<?xml version="1.0" encoding="UTF-8" standalone="no" ?>
<gpx xmlns="http://www.topografix.com/GPX/1/1" xmlns:xsi="http://www.w3.org/2001/XMLSchema-instance" xsi:schemaLocation="http://www.topografix.com/GPX/1/1 http://www.topografix.com/GPX/1/1/gpx.xsd" version="1.1" creator="VisuGPX - https://www.visugpx.com">
  <metadata>
    <name>Vallet - Clisson - St Crespin - Vallet</name>
  </metadata>
  <trk>
    <name><![CDATA[Sortie à vélo dans l'après-midi]]></name>
    <trkseg>
      <trkpt lat="47.16801" lon="-1.27261">
        <ele>61.9</ele>
        <time>2019-10-11T11:36:17Z</time>
      </trkpt>
      <trkpt lat="47.16803" lon="-1.27273">
        <ele>61.8</ele>
        <time>2019-10-11T11:37:23Z</time>
      </trkpt>
      <trkpt lat="47.168" lon="-1.27278">
        <ele>61.8</ele>
        <time>2019-10-11T11:37:25Z</time>
      </trkpt>
      <trkpt lat="47.16796" lon="-1.27283">
        <ele>61.7</ele>
        <time>2019-10-11T11:37:27Z</time>
      </trkpt>
      <trkpt lat="47.16791" lon="-1.27283">
        <ele>61.6</ele>
        <time>2019-10-11T11:37:29Z</time>
      </trkpt>
      <trkpt lat="47.16787" lon="-1.27278">
        <ele>61.5</ele>
        <time>2019-10-11T11:37:31Z</time>
      </trkpt>
      <trkpt lat="47.16785" lon="-1.27272">
        <ele>61.4</ele>
        <time>2019-10-11T11:37:33Z</time>
      </trkpt>
      <trkpt lat="47.16785" lon="-1.27267">
        <ele>61.4</ele>
        <time>2019-10-11T11:37:34Z</time>
      </trkpt>
      <trkpt lat="47.16785" lon="-1.27263">
        <ele>61.4</ele>
        <time>2019-10-11T11:37:35Z</time>
      </trkpt>
      <trkpt lat="47.16786" lon="-1.27259">
        <ele>61.4</ele>
        <time>2019-10-11T11:37:36Z</time>
      </trkpt>
      <trkpt lat="47.16788" lon="-1.27256">
        <ele>61.4</ele>
        <time>2019-10-11T11:37:37Z</time>
      </trkpt>
      <trkpt lat="47.16789" lon="-1.2725">
        <ele>61.4</ele>
        <time>2019-10-11T11:37:39Z</time>
      </trkpt>
      <trkpt lat="47.16789" lon="-1.27256">
        <ele>61.4</ele>
        <time>2019-10-11T11:48:33Z</time>
      </trkpt>
      <trkpt lat="47.16787" lon="-1.2726">
        <ele>61.4</ele>
        <time>2019-10-11T11:48:37Z</time>
      </trkpt>
      <trkpt lat="47.16785" lon="-1.27263">
        <ele>61.4</ele>
        <time>2019-10-11T11:48:40Z</time>
      </trkpt>
      <trkpt lat="47.16783" lon="-1.27267">
        <ele>61.4</ele>
        <time>2019-10-11T11:48:43Z</time>
      </trkpt>
      <trkpt lat="47.16782" lon="-1.27271">
        <ele>61.4</ele>
        <time>2019-10-11T11:48:47Z</time>
      </trkpt>
      <trkpt lat="47.16781" lon="-1.27276">
        <ele>61.4</ele>
        <time>2019-10-11T11:48:51Z</time>
      </trkpt>
      <trkpt lat="47.16779" lon="-1.27279">
        <ele>61.4</ele>
        <time>2019-10-11T11:48:54Z</time>
      </trkpt>
      <trkpt lat="47.16777" lon="-1.27283">
        <ele>61.4</ele>
        <time>2019-10-11T11:48:56Z</time>
      </trkpt>
      <trkpt lat="47.16775" lon="-1.27286">
        <ele>61.4</ele>
        <time>2019-10-11T11:48:58Z</time>
      </trkpt>
      <trkpt lat="47.16773" lon="-1.2729">
        <ele>61.4</ele>
        <time>2019-10-11T11:49:00Z</time>
      </trkpt>
      <trkpt lat="47.16771" lon="-1.27293">
        <ele>61.4</ele>
        <time>2019-10-11T11:49:02Z</time>
      </trkpt>
      <trkpt lat="47.1677" lon="-1.27298">
        <ele>61.4</ele>
        <time>2019-10-11T11:49:04Z</time>
      </trkpt>
      <trkpt lat="47.16771" lon="-1.27304">
        <ele>61.6</ele>
        <time>2019-10-11T11:49:06Z</time>
      </trkpt>
      <trkpt lat="47.16774" lon="-1.27306">
        <ele>61.7</ele>
        <time>2019-10-11T11:49:07Z</time>
      </trkpt>
      <trkpt lat="47.16778" lon="-1.27309">
        <ele>61.7</ele>
        <time>2019-10-11T11:49:09Z</time>
      </trkpt>
      <trkpt lat="47.16783" lon="-1.27313">
        <ele>61.8</ele>
        <time>2019-10-11T11:49:11Z</time>
      </trkpt>
      <trkpt lat="47.16788" lon="-1.27317">
        <ele>61.9</ele>
        <time>2019-10-11T11:49:13Z</time>
      </trkpt>
      <trkpt lat="47.16792" lon="-1.27322">
        <ele>62</ele>
        <time>2019-10-11T11:49:15Z</time>
      </trkpt>
      <trkpt lat="47.16794" lon="-1.2733">
        <ele>62.1</ele>
        <time>2019-10-11T11:49:17Z</time>
      </trkpt>
      <trkpt lat="47.16795" lon="-1.27334">
        <ele>62</ele>
        <time>2019-10-11T11:49:18Z</time>
      </trkpt>
      <trkpt lat="47.16794" lon="-1.27339">
        <ele>61.9</ele>
        <time>2019-10-11T11:49:19Z</time>
      </trkpt>
      <trkpt lat="47.16793" lon="-1.27344">
        <ele>61.8</ele>
        <time>2019-10-11T11:49:20Z</time>
      </trkpt>
      <trkpt lat="47.16791" lon="-1.27348">
        <ele>61.7</ele>
        <time>2019-10-11T11:49:21Z</time>
      </trkpt>
      <trkpt lat="47.16789" lon="-1.27352">
        <ele>61.7</ele>
        <time>2019-10-11T11:49:22Z</time>
      </trkpt>
      <trkpt lat="47.16787" lon="-1.27357">
        <ele>61.6</ele>
        <time>2019-10-11T11:49:23Z</time>
      </trkpt>
      <trkpt lat="47.16785" lon="-1.27361">
        <ele>61.5</ele>
        <time>2019-10-11T11:49:24Z</time>
      </trkpt>
      <trkpt lat="47.16782" lon="-1.27366">
        <ele>61.4</ele>
        <time>2019-10-11T11:49:25Z</time>
      </trkpt>
      <trkpt lat="47.1678" lon="-1.27371">
        <ele>61.3</ele>
        <time>2019-10-11T11:49:26Z</time>
      </trkpt>
      <trkpt lat="47.16777" lon="-1.27375">
        <ele>61.3</ele>
        <time>2019-10-11T11:49:27Z</time>
      </trkpt>
      <trkpt lat="47.16775" lon="-1.2738">
        <ele>61.2</ele>
        <time>2019-10-11T11:49:28Z</time>
      </trkpt>
      <trkpt lat="47.16772" lon="-1.27384">
        <ele>61.1</ele>
        <time>2019-10-11T11:49:29Z</time>
      </trkpt>
      <trkpt lat="47.1677" lon="-1.27389">
        <ele>61.1</ele>
        <time>2019-10-11T11:49:30Z</time>
      </trkpt>
      <trkpt lat="47.16767" lon="-1.27393">
        <ele>61</ele>
        <time>2019-10-11T11:49:31Z</time>
      </trkpt>
      <trkpt lat="47.16765" lon="-1.27398">
        <ele>61</ele>
        <time>2019-10-11T11:49:32Z</time>
      </trkpt>
      <trkpt lat="47.16762" lon="-1.27402">
        <ele>61</ele>
        <time>2019-10-11T11:49:33Z</time>
      </trkpt>
      <trkpt lat="47.1676" lon="-1.27407">
        <ele>61</ele>
        <time>2019-10-11T11:49:34Z</time>
      </trkpt>
      <trkpt lat="47.16757" lon="-1.27412">
        <ele>60.9</ele>
        <time>2019-10-11T11:49:35Z</time>
      </trkpt>
      <trkpt lat="47.16755" lon="-1.27417">
        <ele>60.9</ele>
        <time>2019-10-11T11:49:36Z</time>
      </trkpt>
      <trkpt lat="47.16752" lon="-1.27421">
        <ele>60.9</ele>
        <time>2019-10-11T11:49:37Z</time>
      </trkpt>
      <trkpt lat="47.1675" lon="-1.27426">
        <ele>60.9</ele>
        <time>2019-10-11T11:49:38Z</time>
      </trkpt>
      <trkpt lat="47.16747" lon="-1.27431">
        <ele>60.8</ele>
        <time>2019-10-11T11:49:39Z</time>
      </trkpt>
      <trkpt lat="47.16744" lon="-1.27436">
        <ele>60.7</ele>
        <time>2019-10-11T11:49:40Z</time>
      </trkpt>
      <trkpt lat="47.16742" lon="-1.27441">
        <ele>60.6</ele>
        <time>2019-10-11T11:49:41Z</time>
      </trkpt>
      <trkpt lat="47.16739" lon="-1.27446">
        <ele>60.6</ele>
        <time>2019-10-11T11:49:42Z</time>
      </trkpt>
      <trkpt lat="47.16736" lon="-1.27451">
        <ele>60.5</ele>
        <time>2019-10-11T11:49:43Z</time>
      </trkpt>
      <trkpt lat="47.16734" lon="-1.27456">
        <ele>60.4</ele>
        <time>2019-10-11T11:49:44Z</time>
      </trkpt>
      <trkpt lat="47.16731" lon="-1.27461">
        <ele>60.4</ele>
        <time>2019-10-11T11:49:45Z</time>
      </trkpt>
      <trkpt lat="47.16728" lon="-1.27466">
        <ele>60.4</ele>
        <time>2019-10-11T11:49:46Z</time>
      </trkpt>
      <trkpt lat="47.16726" lon="-1.27471">
        <ele>60.3</ele>
        <time>2019-10-11T11:49:47Z</time>
      </trkpt>
      <trkpt lat="47.16723" lon="-1.27475">
        <ele>60.3</ele>
        <time>2019-10-11T11:49:48Z</time>
      </trkpt>
      <trkpt lat="47.16721" lon="-1.2748">
        <ele>60.2</ele>
        <time>2019-10-11T11:49:49Z</time>
      </trkpt>
      <trkpt lat="47.16719" lon="-1.27485">
        <ele>60.2</ele>
        <time>2019-10-11T11:49:50Z</time>
      </trkpt>
      <trkpt lat="47.16717" lon="-1.2749">
        <ele>60.1</ele>
        <time>2019-10-11T11:49:51Z</time>
      </trkpt>
      <trkpt lat="47.16716" lon="-1.27494">
        <ele>60.1</ele>
        <time>2019-10-11T11:49:52Z</time>
      </trkpt>
      <trkpt lat="47.16715" lon="-1.27499">
        <ele>60</ele>
        <time>2019-10-11T11:49:53Z</time>
      </trkpt>
      <trkpt lat="47.16713" lon="-1.27503">
        <ele>59.9</ele>
        <time>2019-10-11T11:49:54Z</time>
      </trkpt>
      <trkpt lat="47.16711" lon="-1.27507">
        <ele>59.7</ele>
        <time>2019-10-11T11:49:55Z</time>
      </trkpt>
      <trkpt lat="47.16709" lon="-1.27511">
        <ele>59.6</ele>
        <time>2019-10-11T11:49:56Z</time>
      </trkpt>
      <trkpt lat="47.16707" lon="-1.27515">
        <ele>59.4</ele>
        <time>2019-10-11T11:49:57Z</time>
      </trkpt>
      <trkpt lat="47.16705" lon="-1.27519">
        <ele>59.3</ele>
        <time>2019-10-11T11:49:58Z</time>
      </trkpt>
      <trkpt lat="47.16703" lon="-1.27522">
        <ele>59.2</ele>
        <time>2019-10-11T11:49:59Z</time>
      </trkpt>
      <trkpt lat="47.16701" lon="-1.27526">
        <ele>59.1</ele>
        <time>2019-10-11T11:50:00Z</time>
      </trkpt>
      <trkpt lat="47.16699" lon="-1.2753">
        <ele>59</ele>
        <time>2019-10-11T11:50:01Z</time>
      </trkpt>
      <trkpt lat="47.16697" lon="-1.27535">
        <ele>59</ele>
        <time>2019-10-11T11:50:02Z</time>
      </trkpt>
      <trkpt lat="47.16695" lon="-1.27538">
        <ele>59</ele>
        <time>2019-10-11T11:50:03Z</time>
      </trkpt>
      <trkpt lat="47.16693" lon="-1.27542">
        <ele>58.9</ele>
        <time>2019-10-11T11:50:04Z</time>
      </trkpt>
      <trkpt lat="47.16691" lon="-1.27547">
        <ele>58.9</ele>
        <time>2019-10-11T11:50:05Z</time>
      </trkpt>
      <trkpt lat="47.16689" lon="-1.27552">
        <ele>58.9</ele>
        <time>2019-10-11T11:50:06Z</time>
      </trkpt>
      <trkpt lat="47.16686" lon="-1.27556">
        <ele>58.9</ele>
        <time>2019-10-11T11:50:07Z</time>
      </trkpt>
      <trkpt lat="47.16684" lon="-1.27561">
        <ele>58.9</ele>
        <time>2019-10-11T11:50:08Z</time>
      </trkpt>
      <trkpt lat="47.16681" lon="-1.27566">
        <ele>58.8</ele>
        <time>2019-10-11T11:50:09Z</time>
      </trkpt>
      <trkpt lat="47.16679" lon="-1.2757">
        <ele>58.8</ele>
        <time>2019-10-11T11:50:10Z</time>
      </trkpt>
      <trkpt lat="47.16677" lon="-1.27575">
        <ele>58.8</ele>
        <time>2019-10-11T11:50:11Z</time>
      </trkpt>
      <trkpt lat="47.16675" lon="-1.2758">
        <ele>58.8</ele>
        <time>2019-10-11T11:50:12Z</time>
      </trkpt>
      <trkpt lat="47.16673" lon="-1.27585">
        <ele>58.7</ele>
        <time>2019-10-11T11:50:13Z</time>
      </trkpt>
      <trkpt lat="47.16671" lon="-1.2759">
        <ele>58.7</ele>
        <time>2019-10-11T11:50:14Z</time>
      </trkpt>
      <trkpt lat="47.16669" lon="-1.27594">
        <ele>58.8</ele>
        <time>2019-10-11T11:50:15Z</time>
      </trkpt>
      <trkpt lat="47.16667" lon="-1.27598">
        <ele>58.8</ele>
        <time>2019-10-11T11:50:16Z</time>
      </trkpt>
      <trkpt lat="47.16665" lon="-1.27603">
        <ele>58.8</ele>
        <time>2019-10-11T11:50:17Z</time>
      </trkpt>
      <trkpt lat="47.16662" lon="-1.27607">
        <ele>58.8</ele>
        <time>2019-10-11T11:50:18Z</time>
      </trkpt>
      <trkpt lat="47.1666" lon="-1.27612">
        <ele>58.8</ele>
        <time>2019-10-11T11:50:19Z</time>
      </trkpt>
      <trkpt lat="47.16657" lon="-1.27616">
        <ele>58.8</ele>
        <time>2019-10-11T11:50:20Z</time>
      </trkpt>
      <trkpt lat="47.16655" lon="-1.27621">
        <ele>58.7</ele>
        <time>2019-10-11T11:50:21Z</time>
      </trkpt>
      <trkpt lat="47.16652" lon="-1.27625">
        <ele>58.7</ele>
        <time>2019-10-11T11:50:22Z</time>
      </trkpt>
      <trkpt lat="47.1665" lon="-1.27629">
        <ele>58.7</ele>
        <time>2019-10-11T11:50:23Z</time>
      </trkpt>
      <trkpt lat="47.16647" lon="-1.27634">
        <ele>58.6</ele>
        <time>2019-10-11T11:50:24Z</time>
      </trkpt>
      <trkpt lat="47.16645" lon="-1.27638">
        <ele>58.5</ele>
        <time>2019-10-11T11:50:25Z</time>
      </trkpt>
      <trkpt lat="47.16643" lon="-1.27642">
        <ele>58.5</ele>
        <time>2019-10-11T11:50:26Z</time>
      </trkpt>
      <trkpt lat="47.16641" lon="-1.27646">
        <ele>58.4</ele>
        <time>2019-10-11T11:50:27Z</time>
      </trkpt>
      <trkpt lat="47.16639" lon="-1.2765">
        <ele>58.3</ele>
        <time>2019-10-11T11:50:28Z</time>
      </trkpt>
      <trkpt lat="47.16637" lon="-1.27654">
        <ele>58.3</ele>
        <time>2019-10-11T11:50:29Z</time>
      </trkpt>
      <trkpt lat="47.16635" lon="-1.27658">
        <ele>58.3</ele>
        <time>2019-10-11T11:50:30Z</time>
      </trkpt>
      <trkpt lat="47.16633" lon="-1.27662">
        <ele>58.3</ele>
        <time>2019-10-11T11:50:31Z</time>
      </trkpt>
      <trkpt lat="47.16631" lon="-1.27667">
        <ele>58.3</ele>
        <time>2019-10-11T11:50:32Z</time>
      </trkpt>
      <trkpt lat="47.16629" lon="-1.2767">
        <ele>58.3</ele>
        <time>2019-10-11T11:50:33Z</time>
      </trkpt>
      <trkpt lat="47.16627" lon="-1.27673">
        <ele>58.4</ele>
        <time>2019-10-11T11:50:34Z</time>
      </trkpt>
      <trkpt lat="47.16626" lon="-1.27677">
        <ele>58.5</ele>
        <time>2019-10-11T11:50:35Z</time>
      </trkpt>
      <trkpt lat="47.16627" lon="-1.27683">
        <ele>58.9</ele>
        <time>2019-10-11T11:50:37Z</time>
      </trkpt>
      <trkpt lat="47.16629" lon="-1.27686">
        <ele>59</ele>
        <time>2019-10-11T11:50:38Z</time>
      </trkpt>
      <trkpt lat="47.16632" lon="-1.27688">
        <ele>59.2</ele>
        <time>2019-10-11T11:50:39Z</time>
      </trkpt>
      <trkpt lat="47.16634" lon="-1.2769">
        <ele>59.4</ele>
        <time>2019-10-11T11:50:40Z</time>
      </trkpt>
      <trkpt lat="47.16637" lon="-1.27693">
        <ele>59.5</ele>
        <time>2019-10-11T11:50:41Z</time>
      </trkpt>
      <trkpt lat="47.16639" lon="-1.27695">
        <ele>59.7</ele>
        <time>2019-10-11T11:50:42Z</time>
      </trkpt>
      <trkpt lat="47.16641" lon="-1.27698">
        <ele>59.8</ele>
        <time>2019-10-11T11:50:43Z</time>
      </trkpt>
      <trkpt lat="47.16643" lon="-1.27701">
        <ele>60</ele>
        <time>2019-10-11T11:50:44Z</time>
      </trkpt>
      <trkpt lat="47.16648" lon="-1.27707">
        <ele>60.2</ele>
        <time>2019-10-11T11:50:46Z</time>
      </trkpt>
      <trkpt lat="47.16651" lon="-1.2771">
        <ele>60.4</ele>
        <time>2019-10-11T11:50:47Z</time>
      </trkpt>
      <trkpt lat="47.16653" lon="-1.27714">
        <ele>60.5</ele>
        <time>2019-10-11T11:50:48Z</time>
      </trkpt>
      <trkpt lat="47.16656" lon="-1.27718">
        <ele>60.7</ele>
        <time>2019-10-11T11:50:49Z</time>
      </trkpt>
      <trkpt lat="47.16659" lon="-1.27721">
        <ele>60.9</ele>
        <time>2019-10-11T11:50:50Z</time>
      </trkpt>
      <trkpt lat="47.16662" lon="-1.27724">
        <ele>61.1</ele>
        <time>2019-10-11T11:50:51Z</time>
      </trkpt>
      <trkpt lat="47.16665" lon="-1.27728">
        <ele>61.3</ele>
        <time>2019-10-11T11:50:52Z</time>
      </trkpt>
      <trkpt lat="47.16668" lon="-1.27732">
        <ele>61.5</ele>
        <time>2019-10-11T11:50:53Z</time>
      </trkpt>
      <trkpt lat="47.16671" lon="-1.27735">
        <ele>61.6</ele>
        <time>2019-10-11T11:50:54Z</time>
      </trkpt>
      <trkpt lat="47.16674" lon="-1.27739">
        <ele>61.8</ele>
        <time>2019-10-11T11:50:55Z</time>
      </trkpt>
      <trkpt lat="47.16677" lon="-1.27743">
        <ele>62</ele>
        <time>2019-10-11T11:50:56Z</time>
      </trkpt>
      <trkpt lat="47.1668" lon="-1.27747">
        <ele>62.1</ele>
        <time>2019-10-11T11:50:57Z</time>
      </trkpt>
      <trkpt lat="47.16683" lon="-1.2775">
        <ele>62.3</ele>
        <time>2019-10-11T11:50:58Z</time>
      </trkpt>
      <trkpt lat="47.16685" lon="-1.27754">
        <ele>62.4</ele>
        <time>2019-10-11T11:50:59Z</time>
      </trkpt>
      <trkpt lat="47.16688" lon="-1.27758">
        <ele>62.5</ele>
        <time>2019-10-11T11:51:00Z</time>
      </trkpt>
      <trkpt lat="47.16692" lon="-1.27761">
        <ele>62.6</ele>
        <time>2019-10-11T11:51:01Z</time>
      </trkpt>
      <trkpt lat="47.16695" lon="-1.27765">
        <ele>62.8</ele>
        <time>2019-10-11T11:51:02Z</time>
      </trkpt>
      <trkpt lat="47.16698" lon="-1.27769">
        <ele>62.9</ele>
        <time>2019-10-11T11:51:03Z</time>
      </trkpt>
      <trkpt lat="47.16701" lon="-1.27773">
        <ele>63</ele>
        <time>2019-10-11T11:51:04Z</time>
      </trkpt>
      <trkpt lat="47.16704" lon="-1.27777">
        <ele>63.1</ele>
        <time>2019-10-11T11:51:05Z</time>
      </trkpt>
      <trkpt lat="47.16707" lon="-1.27781">
        <ele>63.2</ele>
        <time>2019-10-11T11:51:06Z</time>
      </trkpt>
      <trkpt lat="47.16709" lon="-1.27785">
        <ele>63.3</ele>
        <time>2019-10-11T11:51:07Z</time>
      </trkpt>
      <trkpt lat="47.16712" lon="-1.27789">
        <ele>63.4</ele>
        <time>2019-10-11T11:51:08Z</time>
      </trkpt>
      <trkpt lat="47.16714" lon="-1.27792">
        <ele>63.5</ele>
        <time>2019-10-11T11:51:09Z</time>
      </trkpt>
      <trkpt lat="47.16717" lon="-1.27794">
        <ele>63.5</ele>
        <time>2019-10-11T11:51:10Z</time>
      </trkpt>
      <trkpt lat="47.16721" lon="-1.27798">
        <ele>63.4</ele>
        <time>2019-10-11T11:51:12Z</time>
      </trkpt>
      <trkpt lat="47.16724" lon="-1.27804">
        <ele>63.4</ele>
        <time>2019-10-11T11:51:14Z</time>
      </trkpt>
      <trkpt lat="47.16722" lon="-1.27811">
        <ele>63.3</ele>
        <time>2019-10-11T11:51:16Z</time>
      </trkpt>
      <trkpt lat="47.1672" lon="-1.27818">
        <ele>63.3</ele>
        <time>2019-10-11T11:51:18Z</time>
      </trkpt>
      <trkpt lat="47.16718" lon="-1.27821">
        <ele>63.2</ele>
        <time>2019-10-11T11:51:19Z</time>
      </trkpt>
      <trkpt lat="47.16714" lon="-1.27827">
        <ele>63.2</ele>
        <time>2019-10-11T11:51:21Z</time>
      </trkpt>
      <trkpt lat="47.16712" lon="-1.27829">
        <ele>63.1</ele>
        <time>2019-10-11T11:51:22Z</time>
      </trkpt>
      <trkpt lat="47.16709" lon="-1.27831">
        <ele>63.1</ele>
        <time>2019-10-11T11:51:23Z</time>
      </trkpt>
      <trkpt lat="47.16706" lon="-1.27833">
        <ele>63.1</ele>
        <time>2019-10-11T11:51:24Z</time>
      </trkpt>
      <trkpt lat="47.16702" lon="-1.27836">
        <ele>63</ele>
        <time>2019-10-11T11:51:25Z</time>
      </trkpt>
      <trkpt lat="47.16699" lon="-1.27838">
        <ele>63</ele>
        <time>2019-10-11T11:51:26Z</time>
      </trkpt>
      <trkpt lat="47.16696" lon="-1.2784">
        <ele>62.9</ele>
        <time>2019-10-11T11:51:27Z</time>
      </trkpt>
      <trkpt lat="47.16693" lon="-1.27842">
        <ele>62.9</ele>
        <time>2019-10-11T11:51:28Z</time>
      </trkpt>
      <trkpt lat="47.1669" lon="-1.27844">
        <ele>62.9</ele>
        <time>2019-10-11T11:51:29Z</time>
      </trkpt>
      <trkpt lat="47.16687" lon="-1.27846">
        <ele>62.8</ele>
        <time>2019-10-11T11:51:30Z</time>
      </trkpt>
      <trkpt lat="47.16684" lon="-1.27848">
        <ele>62.8</ele>
        <time>2019-10-11T11:51:31Z</time>
      </trkpt>
      <trkpt lat="47.16681" lon="-1.27849">
        <ele>62.8</ele>
        <time>2019-10-11T11:51:32Z</time>
      </trkpt>
      <trkpt lat="47.16676" lon="-1.27852">
        <ele>62.7</ele>
        <time>2019-10-11T11:51:34Z</time>
      </trkpt>
      <trkpt lat="47.16673" lon="-1.27855">
        <ele>62.5</ele>
        <time>2019-10-11T11:51:36Z</time>
      </trkpt>
      <trkpt lat="47.16671" lon="-1.2786">
        <ele>62.3</ele>
        <time>2019-10-11T11:51:38Z</time>
      </trkpt>
      <trkpt lat="47.16672" lon="-1.27866">
        <ele>62.3</ele>
        <time>2019-10-11T11:51:40Z</time>
      </trkpt>
      <trkpt lat="47.16673" lon="-1.2787">
        <ele>62.4</ele>
        <time>2019-10-11T11:51:41Z</time>
      </trkpt>
      <trkpt lat="47.16675" lon="-1.27874">
        <ele>62.5</ele>
        <time>2019-10-11T11:51:42Z</time>
      </trkpt>
      <trkpt lat="47.16678" lon="-1.27878">
        <ele>62.6</ele>
        <time>2019-10-11T11:51:43Z</time>
      </trkpt>
      <trkpt lat="47.1668" lon="-1.27883">
        <ele>62.7</ele>
        <time>2019-10-11T11:51:44Z</time>
      </trkpt>
      <trkpt lat="47.16682" lon="-1.27887">
        <ele>62.9</ele>
        <time>2019-10-11T11:51:45Z</time>
      </trkpt>
      <trkpt lat="47.16684" lon="-1.27892">
        <ele>63</ele>
        <time>2019-10-11T11:51:46Z</time>
      </trkpt>
      <trkpt lat="47.16685" lon="-1.27898">
        <ele>63.1</ele>
        <time>2019-10-11T11:51:47Z</time>
      </trkpt>
      <trkpt lat="47.16686" lon="-1.27903">
        <ele>63.3</ele>
        <time>2019-10-11T11:51:48Z</time>
      </trkpt>
      <trkpt lat="47.16686" lon="-1.27909">
        <ele>63.4</ele>
        <time>2019-10-11T11:51:49Z</time>
      </trkpt>
      <trkpt lat="47.16684" lon="-1.27912">
        <ele>63.5</ele>
        <time>2019-10-11T11:51:50Z</time>
      </trkpt>
      <trkpt lat="47.16682" lon="-1.27916">
        <ele>63.6</ele>
        <time>2019-10-11T11:51:51Z</time>
      </trkpt>
      <trkpt lat="47.1668" lon="-1.27921">
        <ele>63.7</ele>
        <time>2019-10-11T11:51:52Z</time>
      </trkpt>
      <trkpt lat="47.16678" lon="-1.27925">
        <ele>63.8</ele>
        <time>2019-10-11T11:51:53Z</time>
      </trkpt>
      <trkpt lat="47.16676" lon="-1.2793">
        <ele>63.9</ele>
        <time>2019-10-11T11:51:54Z</time>
      </trkpt>
      <trkpt lat="47.16674" lon="-1.27934">
        <ele>64</ele>
        <time>2019-10-11T11:51:55Z</time>
      </trkpt>
      <trkpt lat="47.16671" lon="-1.27939">
        <ele>64</ele>
        <time>2019-10-11T11:51:56Z</time>
      </trkpt>
      <trkpt lat="47.16669" lon="-1.27943">
        <ele>64.1</ele>
        <time>2019-10-11T11:51:57Z</time>
      </trkpt>
      <trkpt lat="47.16667" lon="-1.27948">
        <ele>64.2</ele>
        <time>2019-10-11T11:51:58Z</time>
      </trkpt>
      <trkpt lat="47.16664" lon="-1.27952">
        <ele>64.2</ele>
        <time>2019-10-11T11:51:59Z</time>
      </trkpt>
      <trkpt lat="47.16662" lon="-1.27957">
        <ele>64.2</ele>
        <time>2019-10-11T11:52:00Z</time>
      </trkpt>
      <trkpt lat="47.1666" lon="-1.27962">
        <ele>64.2</ele>
        <time>2019-10-11T11:52:01Z</time>
      </trkpt>
      <trkpt lat="47.16657" lon="-1.27967">
        <ele>64.2</ele>
        <time>2019-10-11T11:52:02Z</time>
      </trkpt>
      <trkpt lat="47.16655" lon="-1.27972">
        <ele>64.2</ele>
        <time>2019-10-11T11:52:03Z</time>
      </trkpt>
      <trkpt lat="47.16653" lon="-1.27977">
        <ele>64.1</ele>
        <time>2019-10-11T11:52:04Z</time>
      </trkpt>
      <trkpt lat="47.16651" lon="-1.27982">
        <ele>64</ele>
        <time>2019-10-11T11:52:05Z</time>
      </trkpt>
      <trkpt lat="47.16649" lon="-1.27987">
        <ele>63.8</ele>
        <time>2019-10-11T11:52:06Z</time>
      </trkpt>
      <trkpt lat="47.16646" lon="-1.27992">
        <ele>63.6</ele>
        <time>2019-10-11T11:52:07Z</time>
      </trkpt>
      <trkpt lat="47.16643" lon="-1.27997">
        <ele>63.3</ele>
        <time>2019-10-11T11:52:08Z</time>
      </trkpt>
      <trkpt lat="47.16641" lon="-1.28002">
        <ele>63.1</ele>
        <time>2019-10-11T11:52:09Z</time>
      </trkpt>
      <trkpt lat="47.16639" lon="-1.28007">
        <ele>62.9</ele>
        <time>2019-10-11T11:52:10Z</time>
      </trkpt>
      <trkpt lat="47.16636" lon="-1.28012">
        <ele>62.7</ele>
        <time>2019-10-11T11:52:11Z</time>
      </trkpt>
      <trkpt lat="47.16634" lon="-1.28017">
        <ele>62.5</ele>
        <time>2019-10-11T11:52:12Z</time>
      </trkpt>
      <trkpt lat="47.16631" lon="-1.28023">
        <ele>62.4</ele>
        <time>2019-10-11T11:52:13Z</time>
      </trkpt>
      <trkpt lat="47.16629" lon="-1.28028">
        <ele>62.3</ele>
        <time>2019-10-11T11:52:14Z</time>
      </trkpt>
      <trkpt lat="47.16626" lon="-1.28033">
        <ele>62.3</ele>
        <time>2019-10-11T11:52:15Z</time>
      </trkpt>
      <trkpt lat="47.16624" lon="-1.28038">
        <ele>62.3</ele>
        <time>2019-10-11T11:52:16Z</time>
      </trkpt>
      <trkpt lat="47.16621" lon="-1.28043">
        <ele>62.3</ele>
        <time>2019-10-11T11:52:17Z</time>
      </trkpt>
      <trkpt lat="47.16619" lon="-1.28048">
        <ele>62.3</ele>
        <time>2019-10-11T11:52:18Z</time>
      </trkpt>
      <trkpt lat="47.16616" lon="-1.28054">
        <ele>62.3</ele>
        <time>2019-10-11T11:52:19Z</time>
      </trkpt>
      <trkpt lat="47.16614" lon="-1.28059">
        <ele>62.3</ele>
        <time>2019-10-11T11:52:20Z</time>
      </trkpt>
      <trkpt lat="47.16611" lon="-1.28064">
        <ele>62.3</ele>
        <time>2019-10-11T11:52:21Z</time>
      </trkpt>
      <trkpt lat="47.16609" lon="-1.2807">
        <ele>62.2</ele>
        <time>2019-10-11T11:52:22Z</time>
      </trkpt>
      <trkpt lat="47.16606" lon="-1.28075">
        <ele>62.2</ele>
        <time>2019-10-11T11:52:23Z</time>
      </trkpt>
      <trkpt lat="47.16604" lon="-1.28081">
        <ele>62.1</ele>
        <time>2019-10-11T11:52:24Z</time>
      </trkpt>
      <trkpt lat="47.16601" lon="-1.28086">
        <ele>62</ele>
        <time>2019-10-11T11:52:25Z</time>
      </trkpt>
      <trkpt lat="47.16598" lon="-1.28091">
        <ele>61.9</ele>
        <time>2019-10-11T11:52:26Z</time>
      </trkpt>
      <trkpt lat="47.16595" lon="-1.28097">
        <ele>61.7</ele>
        <time>2019-10-11T11:52:27Z</time>
      </trkpt>
      <trkpt lat="47.16593" lon="-1.28103">
        <ele>61.5</ele>
        <time>2019-10-11T11:52:28Z</time>
      </trkpt>
      <trkpt lat="47.1659" lon="-1.28109">
        <ele>61.3</ele>
        <time>2019-10-11T11:52:29Z</time>
      </trkpt>
      <trkpt lat="47.16587" lon="-1.28115">
        <ele>61.1</ele>
        <time>2019-10-11T11:52:30Z</time>
      </trkpt>
      <trkpt lat="47.16585" lon="-1.28121">
        <ele>60.8</ele>
        <time>2019-10-11T11:52:31Z</time>
      </trkpt>
      <trkpt lat="47.16582" lon="-1.28127">
        <ele>60.4</ele>
        <time>2019-10-11T11:52:32Z</time>
      </trkpt>
      <trkpt lat="47.16579" lon="-1.28133">
        <ele>60.1</ele>
        <time>2019-10-11T11:52:33Z</time>
      </trkpt>
      <trkpt lat="47.16576" lon="-1.28139">
        <ele>59.7</ele>
        <time>2019-10-11T11:52:34Z</time>
      </trkpt>
      <trkpt lat="47.16573" lon="-1.28146">
        <ele>59.4</ele>
        <time>2019-10-11T11:52:35Z</time>
      </trkpt>
      <trkpt lat="47.1657" lon="-1.28152">
        <ele>59</ele>
        <time>2019-10-11T11:52:36Z</time>
      </trkpt>
      <trkpt lat="47.16566" lon="-1.28159">
        <ele>58.7</ele>
        <time>2019-10-11T11:52:37Z</time>
      </trkpt>
      <trkpt lat="47.16563" lon="-1.28166">
        <ele>58.4</ele>
        <time>2019-10-11T11:52:38Z</time>
      </trkpt>
      <trkpt lat="47.16559" lon="-1.28172">
        <ele>58.2</ele>
        <time>2019-10-11T11:52:39Z</time>
      </trkpt>
      <trkpt lat="47.16556" lon="-1.28179">
        <ele>57.9</ele>
        <time>2019-10-11T11:52:40Z</time>
      </trkpt>
      <trkpt lat="47.16553" lon="-1.28186">
        <ele>57.7</ele>
        <time>2019-10-11T11:52:41Z</time>
      </trkpt>
      <trkpt lat="47.1655" lon="-1.28193">
        <ele>57.6</ele>
        <time>2019-10-11T11:52:42Z</time>
      </trkpt>
      <trkpt lat="47.16546" lon="-1.282">
        <ele>57.4</ele>
        <time>2019-10-11T11:52:43Z</time>
      </trkpt>
      <trkpt lat="47.16543" lon="-1.28207">
        <ele>57.3</ele>
        <time>2019-10-11T11:52:44Z</time>
      </trkpt>
      <trkpt lat="47.1654" lon="-1.28214">
        <ele>57.2</ele>
        <time>2019-10-11T11:52:45Z</time>
      </trkpt>
      <trkpt lat="47.16536" lon="-1.28221">
        <ele>57.1</ele>
        <time>2019-10-11T11:52:46Z</time>
      </trkpt>
      <trkpt lat="47.16533" lon="-1.28228">
        <ele>56.9</ele>
        <time>2019-10-11T11:52:47Z</time>
      </trkpt>
      <trkpt lat="47.16529" lon="-1.28235">
        <ele>56.7</ele>
        <time>2019-10-11T11:52:48Z</time>
      </trkpt>
      <trkpt lat="47.16526" lon="-1.28242">
        <ele>56.5</ele>
        <time>2019-10-11T11:52:49Z</time>
      </trkpt>
      <trkpt lat="47.16523" lon="-1.28249">
        <ele>56.2</ele>
        <time>2019-10-11T11:52:50Z</time>
      </trkpt>
      <trkpt lat="47.16521" lon="-1.28257">
        <ele>55.8</ele>
        <time>2019-10-11T11:52:51Z</time>
      </trkpt>
      <trkpt lat="47.16521" lon="-1.28265">
        <ele>55.5</ele>
        <time>2019-10-11T11:52:52Z</time>
      </trkpt>
      <trkpt lat="47.16521" lon="-1.28272">
        <ele>55.1</ele>
        <time>2019-10-11T11:52:53Z</time>
      </trkpt>
      <trkpt lat="47.16524" lon="-1.28279">
        <ele>54.8</ele>
        <time>2019-10-11T11:52:54Z</time>
      </trkpt>
      <trkpt lat="47.16527" lon="-1.28285">
        <ele>54.4</ele>
        <time>2019-10-11T11:52:55Z</time>
      </trkpt>
      <trkpt lat="47.1653" lon="-1.28292">
        <ele>54</ele>
        <time>2019-10-11T11:52:56Z</time>
      </trkpt>
      <trkpt lat="47.16532" lon="-1.283">
        <ele>53.7</ele>
        <time>2019-10-11T11:52:57Z</time>
      </trkpt>
      <trkpt lat="47.16531" lon="-1.28307">
        <ele>53.4</ele>
        <time>2019-10-11T11:52:58Z</time>
      </trkpt>
      <trkpt lat="47.16529" lon="-1.28314">
        <ele>53.2</ele>
        <time>2019-10-11T11:52:59Z</time>
      </trkpt>
      <trkpt lat="47.16527" lon="-1.28321">
        <ele>53.1</ele>
        <time>2019-10-11T11:53:00Z</time>
      </trkpt>
      <trkpt lat="47.16524" lon="-1.28328">
        <ele>53</ele>
        <time>2019-10-11T11:53:01Z</time>
      </trkpt>
      <trkpt lat="47.16521" lon="-1.28334">
        <ele>52.9</ele>
        <time>2019-10-11T11:53:02Z</time>
      </trkpt>
      <trkpt lat="47.16518" lon="-1.2834">
        <ele>52.9</ele>
        <time>2019-10-11T11:53:03Z</time>
      </trkpt>
      <trkpt lat="47.16516" lon="-1.28347">
        <ele>52.8</ele>
        <time>2019-10-11T11:53:04Z</time>
      </trkpt>
      <trkpt lat="47.16513" lon="-1.28354">
        <ele>52.7</ele>
        <time>2019-10-11T11:53:05Z</time>
      </trkpt>
      <trkpt lat="47.1651" lon="-1.28362">
        <ele>52.6</ele>
        <time>2019-10-11T11:53:06Z</time>
      </trkpt>
      <trkpt lat="47.16507" lon="-1.28369">
        <ele>52.3</ele>
        <time>2019-10-11T11:53:07Z</time>
      </trkpt>
      <trkpt lat="47.16503" lon="-1.28375">
        <ele>52.1</ele>
        <time>2019-10-11T11:53:08Z</time>
      </trkpt>
      <trkpt lat="47.16498" lon="-1.2838">
        <ele>51.8</ele>
        <time>2019-10-11T11:53:09Z</time>
      </trkpt>
      <trkpt lat="47.16493" lon="-1.28381">
        <ele>51.6</ele>
        <time>2019-10-11T11:53:10Z</time>
      </trkpt>
      <trkpt lat="47.16487" lon="-1.28381">
        <ele>51</ele>
        <time>2019-10-11T11:53:11Z</time>
      </trkpt>
      <trkpt lat="47.16482" lon="-1.28383">
        <ele>50.8</ele>
        <time>2019-10-11T11:53:12Z</time>
      </trkpt>
      <trkpt lat="47.16478" lon="-1.28389">
        <ele>50.6</ele>
        <time>2019-10-11T11:53:13Z</time>
      </trkpt>
      <trkpt lat="47.16476" lon="-1.28395">
        <ele>50.4</ele>
        <time>2019-10-11T11:53:14Z</time>
      </trkpt>
      <trkpt lat="47.16473" lon="-1.28403">
        <ele>50.2</ele>
        <time>2019-10-11T11:53:15Z</time>
      </trkpt>
      <trkpt lat="47.1647" lon="-1.2841">
        <ele>50</ele>
        <time>2019-10-11T11:53:16Z</time>
      </trkpt>
      <trkpt lat="47.16467" lon="-1.28417">
        <ele>49.8</ele>
        <time>2019-10-11T11:53:17Z</time>
      </trkpt>
      <trkpt lat="47.16465" lon="-1.28424">
        <ele>49.6</ele>
        <time>2019-10-11T11:53:18Z</time>
      </trkpt>
      <trkpt lat="47.16462" lon="-1.28431">
        <ele>49.5</ele>
        <time>2019-10-11T11:53:19Z</time>
      </trkpt>
      <trkpt lat="47.16459" lon="-1.28438">
        <ele>49.3</ele>
        <time>2019-10-11T11:53:20Z</time>
      </trkpt>
      <trkpt lat="47.16456" lon="-1.28445">
        <ele>49.1</ele>
        <time>2019-10-11T11:53:21Z</time>
      </trkpt>
      <trkpt lat="47.16454" lon="-1.28452">
        <ele>49</ele>
        <time>2019-10-11T11:53:22Z</time>
      </trkpt>
      <trkpt lat="47.16451" lon="-1.28458">
        <ele>48.8</ele>
        <time>2019-10-11T11:53:23Z</time>
      </trkpt>
      <trkpt lat="47.16449" lon="-1.28465">
        <ele>48.7</ele>
        <time>2019-10-11T11:53:24Z</time>
      </trkpt>
      <trkpt lat="47.16446" lon="-1.28472">
        <ele>48.5</ele>
        <time>2019-10-11T11:53:25Z</time>
      </trkpt>
      <trkpt lat="47.16442" lon="-1.28478">
        <ele>48.4</ele>
        <time>2019-10-11T11:53:26Z</time>
      </trkpt>
      <trkpt lat="47.16437" lon="-1.28482">
        <ele>48.2</ele>
        <time>2019-10-11T11:53:27Z</time>
      </trkpt>
      <trkpt lat="47.16431" lon="-1.28484">
        <ele>48.1</ele>
        <time>2019-10-11T11:53:28Z</time>
      </trkpt>
      <trkpt lat="47.16425" lon="-1.28484">
        <ele>47.9</ele>
        <time>2019-10-11T11:53:29Z</time>
      </trkpt>
      <trkpt lat="47.1642" lon="-1.28481">
        <ele>47.8</ele>
        <time>2019-10-11T11:53:30Z</time>
      </trkpt>
      <trkpt lat="47.16414" lon="-1.28479">
        <ele>47.6</ele>
        <time>2019-10-11T11:53:31Z</time>
      </trkpt>
      <trkpt lat="47.1641" lon="-1.28473">
        <ele>47.5</ele>
        <time>2019-10-11T11:53:32Z</time>
      </trkpt>
      <trkpt lat="47.16406" lon="-1.28466">
        <ele>47.4</ele>
        <time>2019-10-11T11:53:33Z</time>
      </trkpt>
      <trkpt lat="47.16403" lon="-1.28458">
        <ele>47.2</ele>
        <time>2019-10-11T11:53:34Z</time>
      </trkpt>
      <trkpt lat="47.16399" lon="-1.28451">
        <ele>47.1</ele>
        <time>2019-10-11T11:53:35Z</time>
      </trkpt>
      <trkpt lat="47.16395" lon="-1.28445">
        <ele>47</ele>
        <time>2019-10-11T11:53:36Z</time>
      </trkpt>
      <trkpt lat="47.16391" lon="-1.28439">
        <ele>46.8</ele>
        <time>2019-10-11T11:53:37Z</time>
      </trkpt>
      <trkpt lat="47.16386" lon="-1.28434">
        <ele>46.7</ele>
        <time>2019-10-11T11:53:38Z</time>
      </trkpt>
      <trkpt lat="47.1638" lon="-1.28429">
        <ele>46.5</ele>
        <time>2019-10-11T11:53:39Z</time>
      </trkpt>
      <trkpt lat="47.16375" lon="-1.28424">
        <ele>46.4</ele>
        <time>2019-10-11T11:53:40Z</time>
      </trkpt>
      <trkpt lat="47.16369" lon="-1.28418">
        <ele>46.2</ele>
        <time>2019-10-11T11:53:41Z</time>
      </trkpt>
      <trkpt lat="47.16363" lon="-1.28413">
        <ele>46.1</ele>
        <time>2019-10-11T11:53:42Z</time>
      </trkpt>
      <trkpt lat="47.16357" lon="-1.28409">
        <ele>46</ele>
        <time>2019-10-11T11:53:43Z</time>
      </trkpt>
      <trkpt lat="47.16351" lon="-1.28404">
        <ele>45.8</ele>
        <time>2019-10-11T11:53:44Z</time>
      </trkpt>
      <trkpt lat="47.16345" lon="-1.28401">
        <ele>45.8</ele>
        <time>2019-10-11T11:53:45Z</time>
      </trkpt>
      <trkpt lat="47.16338" lon="-1.28398">
        <ele>45.8</ele>
        <time>2019-10-11T11:53:46Z</time>
      </trkpt>
      <trkpt lat="47.16332" lon="-1.28396">
        <ele>45.7</ele>
        <time>2019-10-11T11:53:47Z</time>
      </trkpt>
      <trkpt lat="47.16325" lon="-1.28395">
        <ele>45.7</ele>
        <time>2019-10-11T11:53:48Z</time>
      </trkpt>
      <trkpt lat="47.16319" lon="-1.28394">
        <ele>45.8</ele>
        <time>2019-10-11T11:53:49Z</time>
      </trkpt>
      <trkpt lat="47.16312" lon="-1.28393">
        <ele>45.8</ele>
        <time>2019-10-11T11:53:50Z</time>
      </trkpt>
      <trkpt lat="47.16306" lon="-1.28392">
        <ele>45.9</ele>
        <time>2019-10-11T11:53:51Z</time>
      </trkpt>
      <trkpt lat="47.163" lon="-1.28391">
        <ele>46</ele>
        <time>2019-10-11T11:53:52Z</time>
      </trkpt>
      <trkpt lat="47.16294" lon="-1.2839">
        <ele>46</ele>
        <time>2019-10-11T11:53:53Z</time>
      </trkpt>
      <trkpt lat="47.16288" lon="-1.28389">
        <ele>46.1</ele>
        <time>2019-10-11T11:53:54Z</time>
      </trkpt>
      <trkpt lat="47.16282" lon="-1.28389">
        <ele>46.2</ele>
        <time>2019-10-11T11:53:55Z</time>
      </trkpt>
      <trkpt lat="47.16277" lon="-1.28388">
        <ele>46.3</ele>
        <time>2019-10-11T11:53:56Z</time>
      </trkpt>
      <trkpt lat="47.16272" lon="-1.28387">
        <ele>46.3</ele>
        <time>2019-10-11T11:53:57Z</time>
      </trkpt>
      <trkpt lat="47.16267" lon="-1.28386">
        <ele>46.4</ele>
        <time>2019-10-11T11:53:58Z</time>
      </trkpt>
      <trkpt lat="47.16262" lon="-1.28386">
        <ele>46.5</ele>
        <time>2019-10-11T11:53:59Z</time>
      </trkpt>
      <trkpt lat="47.16257" lon="-1.28385">
        <ele>46.5</ele>
        <time>2019-10-11T11:54:00Z</time>
      </trkpt>
      <trkpt lat="47.16253" lon="-1.28385">
        <ele>46.6</ele>
        <time>2019-10-11T11:54:01Z</time>
      </trkpt>
      <trkpt lat="47.16249" lon="-1.28385">
        <ele>46.7</ele>
        <time>2019-10-11T11:54:02Z</time>
      </trkpt>
      <trkpt lat="47.16245" lon="-1.28385">
        <ele>46.7</ele>
        <time>2019-10-11T11:54:03Z</time>
      </trkpt>
      <trkpt lat="47.16241" lon="-1.28386">
        <ele>46.8</ele>
        <time>2019-10-11T11:54:04Z</time>
      </trkpt>
      <trkpt lat="47.16238" lon="-1.28389">
        <ele>46.8</ele>
        <time>2019-10-11T11:54:05Z</time>
      </trkpt>
      <trkpt lat="47.16236" lon="-1.28393">
        <ele>46.2</ele>
        <time>2019-10-11T11:54:06Z</time>
      </trkpt>
      <trkpt lat="47.16236" lon="-1.28398">
        <ele>45.9</ele>
        <time>2019-10-11T11:54:07Z</time>
      </trkpt>
      <trkpt lat="47.16236" lon="-1.28404">
        <ele>45.7</ele>
        <time>2019-10-11T11:54:08Z</time>
      </trkpt>
      <trkpt lat="47.16236" lon="-1.28409">
        <ele>45.4</ele>
        <time>2019-10-11T11:54:09Z</time>
      </trkpt>
      <trkpt lat="47.16235" lon="-1.28415">
        <ele>45.2</ele>
        <time>2019-10-11T11:54:10Z</time>
      </trkpt>
      <trkpt lat="47.16235" lon="-1.28421">
        <ele>45.1</ele>
        <time>2019-10-11T11:54:11Z</time>
      </trkpt>
      <trkpt lat="47.16234" lon="-1.28428">
        <ele>45</ele>
        <time>2019-10-11T11:54:12Z</time>
      </trkpt>
      <trkpt lat="47.16234" lon="-1.28434">
        <ele>45</ele>
        <time>2019-10-11T11:54:13Z</time>
      </trkpt>
      <trkpt lat="47.16232" lon="-1.28441">
        <ele>45</ele>
        <time>2019-10-11T11:54:14Z</time>
      </trkpt>
      <trkpt lat="47.1623" lon="-1.28446">
        <ele>45</ele>
        <time>2019-10-11T11:54:15Z</time>
      </trkpt>
      <trkpt lat="47.16226" lon="-1.2845">
        <ele>45.1</ele>
        <time>2019-10-11T11:54:16Z</time>
      </trkpt>
      <trkpt lat="47.16221" lon="-1.28451">
        <ele>45.4</ele>
        <time>2019-10-11T11:54:17Z</time>
      </trkpt>
      <trkpt lat="47.16216" lon="-1.28451">
        <ele>45.6</ele>
        <time>2019-10-11T11:54:18Z</time>
      </trkpt>
      <trkpt lat="47.16211" lon="-1.28447">
        <ele>45.8</ele>
        <time>2019-10-11T11:54:19Z</time>
      </trkpt>
      <trkpt lat="47.16207" lon="-1.28444">
        <ele>45.9</ele>
        <time>2019-10-11T11:54:20Z</time>
      </trkpt>
      <trkpt lat="47.16203" lon="-1.2844">
        <ele>46.1</ele>
        <time>2019-10-11T11:54:21Z</time>
      </trkpt>
      <trkpt lat="47.16199" lon="-1.28437">
        <ele>46.2</ele>
        <time>2019-10-11T11:54:22Z</time>
      </trkpt>
      <trkpt lat="47.16194" lon="-1.28433">
        <ele>46.4</ele>
        <time>2019-10-11T11:54:23Z</time>
      </trkpt>
      <trkpt lat="47.1619" lon="-1.2843">
        <ele>46.5</ele>
        <time>2019-10-11T11:54:24Z</time>
      </trkpt>
      <trkpt lat="47.16186" lon="-1.28427">
        <ele>46.7</ele>
        <time>2019-10-11T11:54:25Z</time>
      </trkpt>
      <trkpt lat="47.16182" lon="-1.28423">
        <ele>46.8</ele>
        <time>2019-10-11T11:54:26Z</time>
      </trkpt>
      <trkpt lat="47.16177" lon="-1.28419">
        <ele>46.9</ele>
        <time>2019-10-11T11:54:27Z</time>
      </trkpt>
      <trkpt lat="47.16173" lon="-1.28416">
        <ele>47.1</ele>
        <time>2019-10-11T11:54:28Z</time>
      </trkpt>
      <trkpt lat="47.16169" lon="-1.28412">
        <ele>47.2</ele>
        <time>2019-10-11T11:54:29Z</time>
      </trkpt>
      <trkpt lat="47.16164" lon="-1.28409">
        <ele>47.3</ele>
        <time>2019-10-11T11:54:30Z</time>
      </trkpt>
      <trkpt lat="47.1616" lon="-1.28406">
        <ele>47.4</ele>
        <time>2019-10-11T11:54:31Z</time>
      </trkpt>
      <trkpt lat="47.16156" lon="-1.28403">
        <ele>47.6</ele>
        <time>2019-10-11T11:54:32Z</time>
      </trkpt>
      <trkpt lat="47.16151" lon="-1.284">
        <ele>47.7</ele>
        <time>2019-10-11T11:54:33Z</time>
      </trkpt>
      <trkpt lat="47.16147" lon="-1.28397">
        <ele>47.8</ele>
        <time>2019-10-11T11:54:34Z</time>
      </trkpt>
      <trkpt lat="47.16143" lon="-1.28394">
        <ele>47.9</ele>
        <time>2019-10-11T11:54:35Z</time>
      </trkpt>
      <trkpt lat="47.16138" lon="-1.28391">
        <ele>48.1</ele>
        <time>2019-10-11T11:54:36Z</time>
      </trkpt>
      <trkpt lat="47.16134" lon="-1.28387">
        <ele>48.2</ele>
        <time>2019-10-11T11:54:37Z</time>
      </trkpt>
      <trkpt lat="47.1613" lon="-1.28383">
        <ele>48.3</ele>
        <time>2019-10-11T11:54:38Z</time>
      </trkpt>
      <trkpt lat="47.16126" lon="-1.2838">
        <ele>48.4</ele>
        <time>2019-10-11T11:54:39Z</time>
      </trkpt>
      <trkpt lat="47.16121" lon="-1.28377">
        <ele>48.6</ele>
        <time>2019-10-11T11:54:40Z</time>
      </trkpt>
      <trkpt lat="47.16117" lon="-1.28374">
        <ele>48.7</ele>
        <time>2019-10-11T11:54:41Z</time>
      </trkpt>
      <trkpt lat="47.16112" lon="-1.28372">
        <ele>48.7</ele>
        <time>2019-10-11T11:54:42Z</time>
      </trkpt>
      <trkpt lat="47.16107" lon="-1.28372">
        <ele>48.8</ele>
        <time>2019-10-11T11:54:43Z</time>
      </trkpt>
      <trkpt lat="47.16102" lon="-1.28372">
        <ele>49</ele>
        <time>2019-10-11T11:54:44Z</time>
      </trkpt>
      <trkpt lat="47.16097" lon="-1.28374">
        <ele>48.9</ele>
        <time>2019-10-11T11:54:45Z</time>
      </trkpt>
      <trkpt lat="47.16092" lon="-1.28376">
        <ele>48.9</ele>
        <time>2019-10-11T11:54:46Z</time>
      </trkpt>
      <trkpt lat="47.16087" lon="-1.28379">
        <ele>48.8</ele>
        <time>2019-10-11T11:54:47Z</time>
      </trkpt>
      <trkpt lat="47.16082" lon="-1.28381">
        <ele>48.6</ele>
        <time>2019-10-11T11:54:48Z</time>
      </trkpt>
      <trkpt lat="47.16077" lon="-1.28381">
        <ele>48.5</ele>
        <time>2019-10-11T11:54:49Z</time>
      </trkpt>
      <trkpt lat="47.16071" lon="-1.2838">
        <ele>48.3</ele>
        <time>2019-10-11T11:54:50Z</time>
      </trkpt>
      <trkpt lat="47.16065" lon="-1.28379">
        <ele>48.1</ele>
        <time>2019-10-11T11:54:51Z</time>
      </trkpt>
      <trkpt lat="47.16059" lon="-1.28377">
        <ele>47.9</ele>
        <time>2019-10-11T11:54:52Z</time>
      </trkpt>
      <trkpt lat="47.16054" lon="-1.28376">
        <ele>47.8</ele>
        <time>2019-10-11T11:54:53Z</time>
      </trkpt>
      <trkpt lat="47.16048" lon="-1.28374">
        <ele>47.7</ele>
        <time>2019-10-11T11:54:54Z</time>
      </trkpt>
      <trkpt lat="47.16042" lon="-1.28373">
        <ele>47.6</ele>
        <time>2019-10-11T11:54:55Z</time>
      </trkpt>
      <trkpt lat="47.16036" lon="-1.28371">
        <ele>47.5</ele>
        <time>2019-10-11T11:54:56Z</time>
      </trkpt>
      <trkpt lat="47.1603" lon="-1.2837">
        <ele>47.5</ele>
        <time>2019-10-11T11:54:57Z</time>
      </trkpt>
      <trkpt lat="47.16025" lon="-1.28368">
        <ele>47.4</ele>
        <time>2019-10-11T11:54:58Z</time>
      </trkpt>
      <trkpt lat="47.16019" lon="-1.28365">
        <ele>47.3</ele>
        <time>2019-10-11T11:54:59Z</time>
      </trkpt>
      <trkpt lat="47.16013" lon="-1.28363">
        <ele>47.2</ele>
        <time>2019-10-11T11:55:00Z</time>
      </trkpt>
      <trkpt lat="47.16008" lon="-1.28359">
        <ele>47.1</ele>
        <time>2019-10-11T11:55:01Z</time>
      </trkpt>
      <trkpt lat="47.16002" lon="-1.28354">
        <ele>47</ele>
        <time>2019-10-11T11:55:02Z</time>
      </trkpt>
      <trkpt lat="47.15997" lon="-1.2835">
        <ele>47</ele>
        <time>2019-10-11T11:55:03Z</time>
      </trkpt>
      <trkpt lat="47.15992" lon="-1.28345">
        <ele>46.9</ele>
        <time>2019-10-11T11:55:04Z</time>
      </trkpt>
      <trkpt lat="47.15987" lon="-1.28341">
        <ele>46.8</ele>
        <time>2019-10-11T11:55:05Z</time>
      </trkpt>
      <trkpt lat="47.15981" lon="-1.28337">
        <ele>46.7</ele>
        <time>2019-10-11T11:55:06Z</time>
      </trkpt>
      <trkpt lat="47.15976" lon="-1.28333">
        <ele>46.6</ele>
        <time>2019-10-11T11:55:07Z</time>
      </trkpt>
      <trkpt lat="47.1597" lon="-1.28328">
        <ele>46.6</ele>
        <time>2019-10-11T11:55:08Z</time>
      </trkpt>
      <trkpt lat="47.15965" lon="-1.28324">
        <ele>46.5</ele>
        <time>2019-10-11T11:55:09Z</time>
      </trkpt>
      <trkpt lat="47.15961" lon="-1.2832">
        <ele>46.4</ele>
        <time>2019-10-11T11:55:10Z</time>
      </trkpt>
      <trkpt lat="47.15956" lon="-1.28315">
        <ele>46.3</ele>
        <time>2019-10-11T11:55:11Z</time>
      </trkpt>
      <trkpt lat="47.15951" lon="-1.28311">
        <ele>46.2</ele>
        <time>2019-10-11T11:55:12Z</time>
      </trkpt>
      <trkpt lat="47.15946" lon="-1.28307">
        <ele>46.1</ele>
        <time>2019-10-11T11:55:13Z</time>
      </trkpt>
      <trkpt lat="47.15941" lon="-1.28303">
        <ele>45.9</ele>
        <time>2019-10-11T11:55:14Z</time>
      </trkpt>
      <trkpt lat="47.15936" lon="-1.28299">
        <ele>45.8</ele>
        <time>2019-10-11T11:55:15Z</time>
      </trkpt>
      <trkpt lat="47.1593" lon="-1.28296">
        <ele>45.7</ele>
        <time>2019-10-11T11:55:16Z</time>
      </trkpt>
      <trkpt lat="47.15924" lon="-1.28295">
        <ele>45.6</ele>
        <time>2019-10-11T11:55:17Z</time>
      </trkpt>
      <trkpt lat="47.15919" lon="-1.28294">
        <ele>45.6</ele>
        <time>2019-10-11T11:55:18Z</time>
      </trkpt>
      <trkpt lat="47.15914" lon="-1.28298">
        <ele>45.5</ele>
        <time>2019-10-11T11:55:19Z</time>
      </trkpt>
      <trkpt lat="47.15909" lon="-1.28302">
        <ele>45.4</ele>
        <time>2019-10-11T11:55:20Z</time>
      </trkpt>
      <trkpt lat="47.15904" lon="-1.28308">
        <ele>45.4</ele>
        <time>2019-10-11T11:55:21Z</time>
      </trkpt>
      <trkpt lat="47.159" lon="-1.28315">
        <ele>45.4</ele>
        <time>2019-10-11T11:55:22Z</time>
      </trkpt>
      <trkpt lat="47.15895" lon="-1.28321">
        <ele>45.4</ele>
        <time>2019-10-11T11:55:23Z</time>
      </trkpt>
      <trkpt lat="47.1589" lon="-1.28326">
        <ele>45.4</ele>
        <time>2019-10-11T11:55:24Z</time>
      </trkpt>
      <trkpt lat="47.15885" lon="-1.28331">
        <ele>45.4</ele>
        <time>2019-10-11T11:55:25Z</time>
      </trkpt>
      <trkpt lat="47.15879" lon="-1.28333">
        <ele>45.4</ele>
        <time>2019-10-11T11:55:26Z</time>
      </trkpt>
      <trkpt lat="47.15873" lon="-1.28334">
        <ele>45.5</ele>
        <time>2019-10-11T11:55:27Z</time>
      </trkpt>
      <trkpt lat="47.15868" lon="-1.28335">
        <ele>45.5</ele>
        <time>2019-10-11T11:55:28Z</time>
      </trkpt>
      <trkpt lat="47.15862" lon="-1.28336">
        <ele>45.5</ele>
        <time>2019-10-11T11:55:29Z</time>
      </trkpt>
      <trkpt lat="47.15857" lon="-1.28337">
        <ele>45.5</ele>
        <time>2019-10-11T11:55:30Z</time>
      </trkpt>
      <trkpt lat="47.15852" lon="-1.28339">
        <ele>45.4</ele>
        <time>2019-10-11T11:55:31Z</time>
      </trkpt>
      <trkpt lat="47.15848" lon="-1.28342">
        <ele>45.4</ele>
        <time>2019-10-11T11:55:32Z</time>
      </trkpt>
      <trkpt lat="47.15844" lon="-1.28346">
        <ele>45.2</ele>
        <time>2019-10-11T11:55:33Z</time>
      </trkpt>
      <trkpt lat="47.15841" lon="-1.28352">
        <ele>45.2</ele>
        <time>2019-10-11T11:55:34Z</time>
      </trkpt>
      <trkpt lat="47.15839" lon="-1.28358">
        <ele>45.1</ele>
        <time>2019-10-11T11:55:35Z</time>
      </trkpt>
      <trkpt lat="47.15837" lon="-1.28365">
        <ele>45</ele>
        <time>2019-10-11T11:55:36Z</time>
      </trkpt>
      <trkpt lat="47.15835" lon="-1.28372">
        <ele>45</ele>
        <time>2019-10-11T11:55:37Z</time>
      </trkpt>
      <trkpt lat="47.15832" lon="-1.28379">
        <ele>44.9</ele>
        <time>2019-10-11T11:55:38Z</time>
      </trkpt>
      <trkpt lat="47.1583" lon="-1.28387">
        <ele>44.8</ele>
        <time>2019-10-11T11:55:39Z</time>
      </trkpt>
      <trkpt lat="47.15827" lon="-1.28394">
        <ele>44.8</ele>
        <time>2019-10-11T11:55:40Z</time>
      </trkpt>
      <trkpt lat="47.15824" lon="-1.28401">
        <ele>44.5</ele>
        <time>2019-10-11T11:55:41Z</time>
      </trkpt>
      <trkpt lat="47.15822" lon="-1.28409">
        <ele>44.4</ele>
        <time>2019-10-11T11:55:42Z</time>
      </trkpt>
      <trkpt lat="47.15819" lon="-1.28416">
        <ele>44.2</ele>
        <time>2019-10-11T11:55:43Z</time>
      </trkpt>
      <trkpt lat="47.15816" lon="-1.28424">
        <ele>44.1</ele>
        <time>2019-10-11T11:55:44Z</time>
      </trkpt>
      <trkpt lat="47.15813" lon="-1.28432">
        <ele>43.9</ele>
        <time>2019-10-11T11:55:45Z</time>
      </trkpt>
      <trkpt lat="47.1581" lon="-1.28439">
        <ele>43.8</ele>
        <time>2019-10-11T11:55:46Z</time>
      </trkpt>
      <trkpt lat="47.15807" lon="-1.28446">
        <ele>43.7</ele>
        <time>2019-10-11T11:55:47Z</time>
      </trkpt>
      <trkpt lat="47.15804" lon="-1.28453">
        <ele>43.6</ele>
        <time>2019-10-11T11:55:48Z</time>
      </trkpt>
      <trkpt lat="47.15802" lon="-1.28461">
        <ele>43.5</ele>
        <time>2019-10-11T11:55:49Z</time>
      </trkpt>
      <trkpt lat="47.15802" lon="-1.28469">
        <ele>43.5</ele>
        <time>2019-10-11T11:55:50Z</time>
      </trkpt>
      <trkpt lat="47.15801" lon="-1.28477">
        <ele>43.4</ele>
        <time>2019-10-11T11:55:51Z</time>
      </trkpt>
      <trkpt lat="47.15805" lon="-1.28484">
        <ele>43.4</ele>
        <time>2019-10-11T11:55:52Z</time>
      </trkpt>
      <trkpt lat="47.15809" lon="-1.2849">
        <ele>43.4</ele>
        <time>2019-10-11T11:55:53Z</time>
      </trkpt>
      <trkpt lat="47.15813" lon="-1.28497">
        <ele>43.4</ele>
        <time>2019-10-11T11:55:54Z</time>
      </trkpt>
      <trkpt lat="47.15818" lon="-1.28503">
        <ele>43.5</ele>
        <time>2019-10-11T11:55:55Z</time>
      </trkpt>
      <trkpt lat="47.15822" lon="-1.28509">
        <ele>43.5</ele>
        <time>2019-10-11T11:55:56Z</time>
      </trkpt>
      <trkpt lat="47.15826" lon="-1.28515">
        <ele>43.5</ele>
        <time>2019-10-11T11:55:57Z</time>
      </trkpt>
      <trkpt lat="47.1583" lon="-1.28521">
        <ele>43.5</ele>
        <time>2019-10-11T11:55:58Z</time>
      </trkpt>
      <trkpt lat="47.15835" lon="-1.28528">
        <ele>43.6</ele>
        <time>2019-10-11T11:55:59Z</time>
      </trkpt>
      <trkpt lat="47.15839" lon="-1.28534">
        <ele>43.6</ele>
        <time>2019-10-11T11:56:00Z</time>
      </trkpt>
      <trkpt lat="47.15844" lon="-1.2854">
        <ele>43.6</ele>
        <time>2019-10-11T11:56:01Z</time>
      </trkpt>
      <trkpt lat="47.15848" lon="-1.28546">
        <ele>43.6</ele>
        <time>2019-10-11T11:56:02Z</time>
      </trkpt>
      <trkpt lat="47.15852" lon="-1.28552">
        <ele>43.7</ele>
        <time>2019-10-11T11:56:03Z</time>
      </trkpt>
      <trkpt lat="47.15856" lon="-1.28558">
        <ele>43.8</ele>
        <time>2019-10-11T11:56:04Z</time>
      </trkpt>
      <trkpt lat="47.15861" lon="-1.28564">
        <ele>43.9</ele>
        <time>2019-10-11T11:56:05Z</time>
      </trkpt>
      <trkpt lat="47.15865" lon="-1.2857">
        <ele>44</ele>
        <time>2019-10-11T11:56:06Z</time>
      </trkpt>
      <trkpt lat="47.15869" lon="-1.28576">
        <ele>44.1</ele>
        <time>2019-10-11T11:56:07Z</time>
      </trkpt>
      <trkpt lat="47.15873" lon="-1.28583">
        <ele>44.2</ele>
        <time>2019-10-11T11:56:08Z</time>
      </trkpt>
      <trkpt lat="47.15877" lon="-1.28589">
        <ele>44.3</ele>
        <time>2019-10-11T11:56:09Z</time>
      </trkpt>
      <trkpt lat="47.15881" lon="-1.28595">
        <ele>44.5</ele>
        <time>2019-10-11T11:56:10Z</time>
      </trkpt>
      <trkpt lat="47.15885" lon="-1.28601">
        <ele>44.6</ele>
        <time>2019-10-11T11:56:11Z</time>
      </trkpt>
      <trkpt lat="47.15889" lon="-1.28607">
        <ele>44.8</ele>
        <time>2019-10-11T11:56:12Z</time>
      </trkpt>
      <trkpt lat="47.15893" lon="-1.28613">
        <ele>44.9</ele>
        <time>2019-10-11T11:56:13Z</time>
      </trkpt>
      <trkpt lat="47.15897" lon="-1.28619">
        <ele>45</ele>
        <time>2019-10-11T11:56:14Z</time>
      </trkpt>
      <trkpt lat="47.15901" lon="-1.28625">
        <ele>45</ele>
        <time>2019-10-11T11:56:15Z</time>
      </trkpt>
      <trkpt lat="47.15905" lon="-1.28631">
        <ele>45.1</ele>
        <time>2019-10-11T11:56:16Z</time>
      </trkpt>
      <trkpt lat="47.15909" lon="-1.28637">
        <ele>45.1</ele>
        <time>2019-10-11T11:56:17Z</time>
      </trkpt>
      <trkpt lat="47.15913" lon="-1.28643">
        <ele>45.1</ele>
        <time>2019-10-11T11:56:18Z</time>
      </trkpt>
      <trkpt lat="47.15917" lon="-1.28649">
        <ele>45.1</ele>
        <time>2019-10-11T11:56:19Z</time>
      </trkpt>
      <trkpt lat="47.15921" lon="-1.28655">
        <ele>45.1</ele>
        <time>2019-10-11T11:56:20Z</time>
      </trkpt>
      <trkpt lat="47.15925" lon="-1.28661">
        <ele>45</ele>
        <time>2019-10-11T11:56:21Z</time>
      </trkpt>
      <trkpt lat="47.15928" lon="-1.28667">
        <ele>44.9</ele>
        <time>2019-10-11T11:56:22Z</time>
      </trkpt>
      <trkpt lat="47.15933" lon="-1.28673">
        <ele>44.8</ele>
        <time>2019-10-11T11:56:23Z</time>
      </trkpt>
      <trkpt lat="47.15937" lon="-1.28679">
        <ele>44.7</ele>
        <time>2019-10-11T11:56:24Z</time>
      </trkpt>
      <trkpt lat="47.15941" lon="-1.28685">
        <ele>44.6</ele>
        <time>2019-10-11T11:56:25Z</time>
      </trkpt>
      <trkpt lat="47.15945" lon="-1.28691">
        <ele>44.5</ele>
        <time>2019-10-11T11:56:26Z</time>
      </trkpt>
      <trkpt lat="47.15949" lon="-1.28697">
        <ele>44.4</ele>
        <time>2019-10-11T11:56:27Z</time>
      </trkpt>
      <trkpt lat="47.15953" lon="-1.28703">
        <ele>44.3</ele>
        <time>2019-10-11T11:56:28Z</time>
      </trkpt>
      <trkpt lat="47.15958" lon="-1.28709">
        <ele>44.2</ele>
        <time>2019-10-11T11:56:29Z</time>
      </trkpt>
      <trkpt lat="47.15962" lon="-1.28715">
        <ele>44.1</ele>
        <time>2019-10-11T11:56:30Z</time>
      </trkpt>
      <trkpt lat="47.15966" lon="-1.2872">
        <ele>44</ele>
        <time>2019-10-11T11:56:31Z</time>
      </trkpt>
      <trkpt lat="47.1597" lon="-1.28724">
        <ele>44</ele>
        <time>2019-10-11T11:56:32Z</time>
      </trkpt>
      <trkpt lat="47.15973" lon="-1.28729">
        <ele>43.9</ele>
        <time>2019-10-11T11:56:33Z</time>
      </trkpt>
      <trkpt lat="47.15976" lon="-1.28734">
        <ele>43.8</ele>
        <time>2019-10-11T11:56:34Z</time>
      </trkpt>
      <trkpt lat="47.15976" lon="-1.28742">
        <ele>43.8</ele>
        <time>2019-10-11T11:56:35Z</time>
      </trkpt>
      <trkpt lat="47.15974" lon="-1.2875">
        <ele>43.8</ele>
        <time>2019-10-11T11:56:36Z</time>
      </trkpt>
      <trkpt lat="47.15971" lon="-1.28758">
        <ele>43.8</ele>
        <time>2019-10-11T11:56:37Z</time>
      </trkpt>
      <trkpt lat="47.15969" lon="-1.28767">
        <ele>43.8</ele>
        <time>2019-10-11T11:56:38Z</time>
      </trkpt>
      <trkpt lat="47.15966" lon="-1.28775">
        <ele>43.8</ele>
        <time>2019-10-11T11:56:39Z</time>
      </trkpt>
      <trkpt lat="47.15964" lon="-1.28783">
        <ele>43.7</ele>
        <time>2019-10-11T11:56:40Z</time>
      </trkpt>
      <trkpt lat="47.15961" lon="-1.2879">
        <ele>43.7</ele>
        <time>2019-10-11T11:56:41Z</time>
      </trkpt>
      <trkpt lat="47.15959" lon="-1.28799">
        <ele>43.6</ele>
        <time>2019-10-11T11:56:42Z</time>
      </trkpt>
      <trkpt lat="47.15957" lon="-1.28807">
        <ele>43.6</ele>
        <time>2019-10-11T11:56:43Z</time>
      </trkpt>
      <trkpt lat="47.15955" lon="-1.28814">
        <ele>43.5</ele>
        <time>2019-10-11T11:56:44Z</time>
      </trkpt>
      <trkpt lat="47.15953" lon="-1.28822">
        <ele>43.4</ele>
        <time>2019-10-11T11:56:45Z</time>
      </trkpt>
      <trkpt lat="47.1595" lon="-1.2883">
        <ele>43.3</ele>
        <time>2019-10-11T11:56:46Z</time>
      </trkpt>
      <trkpt lat="47.15948" lon="-1.28839">
        <ele>43.2</ele>
        <time>2019-10-11T11:56:47Z</time>
      </trkpt>
      <trkpt lat="47.15945" lon="-1.28847">
        <ele>43.2</ele>
        <time>2019-10-11T11:56:48Z</time>
      </trkpt>
      <trkpt lat="47.15943" lon="-1.28855">
        <ele>43.2</ele>
        <time>2019-10-11T11:56:49Z</time>
      </trkpt>
      <trkpt lat="47.15941" lon="-1.28863">
        <ele>43.3</ele>
        <time>2019-10-11T11:56:50Z</time>
      </trkpt>
      <trkpt lat="47.15939" lon="-1.28871">
        <ele>43.4</ele>
        <time>2019-10-11T11:56:51Z</time>
      </trkpt>
      <trkpt lat="47.15936" lon="-1.28879">
        <ele>43.5</ele>
        <time>2019-10-11T11:56:52Z</time>
      </trkpt>
      <trkpt lat="47.15934" lon="-1.28888">
        <ele>43.5</ele>
        <time>2019-10-11T11:56:53Z</time>
      </trkpt>
      <trkpt lat="47.15931" lon="-1.28896">
        <ele>43.6</ele>
        <time>2019-10-11T11:56:54Z</time>
      </trkpt>
      <trkpt lat="47.15929" lon="-1.28904">
        <ele>43.5</ele>
        <time>2019-10-11T11:56:55Z</time>
      </trkpt>
      <trkpt lat="47.15927" lon="-1.28913">
        <ele>43.3</ele>
        <time>2019-10-11T11:56:56Z</time>
      </trkpt>
      <trkpt lat="47.15924" lon="-1.28921">
        <ele>43</ele>
        <time>2019-10-11T11:56:57Z</time>
      </trkpt>
      <trkpt lat="47.15922" lon="-1.2893">
        <ele>42.7</ele>
        <time>2019-10-11T11:56:58Z</time>
      </trkpt>
      <trkpt lat="47.1592" lon="-1.28938">
        <ele>42.5</ele>
        <time>2019-10-11T11:56:59Z</time>
      </trkpt>
      <trkpt lat="47.15917" lon="-1.28946">
        <ele>42.2</ele>
        <time>2019-10-11T11:57:00Z</time>
      </trkpt>
      <trkpt lat="47.15915" lon="-1.28955">
        <ele>42</ele>
        <time>2019-10-11T11:57:01Z</time>
      </trkpt>
      <trkpt lat="47.15913" lon="-1.28964">
        <ele>41.8</ele>
        <time>2019-10-11T11:57:02Z</time>
      </trkpt>
      <trkpt lat="47.15911" lon="-1.28972">
        <ele>41.7</ele>
        <time>2019-10-11T11:57:03Z</time>
      </trkpt>
      <trkpt lat="47.15909" lon="-1.28981">
        <ele>41.7</ele>
        <time>2019-10-11T11:57:04Z</time>
      </trkpt>
      <trkpt lat="47.15907" lon="-1.28989">
        <ele>41.7</ele>
        <time>2019-10-11T11:57:05Z</time>
      </trkpt>
      <trkpt lat="47.15905" lon="-1.28998">
        <ele>41.6</ele>
        <time>2019-10-11T11:57:06Z</time>
      </trkpt>
      <trkpt lat="47.15903" lon="-1.29006">
        <ele>41.6</ele>
        <time>2019-10-11T11:57:07Z</time>
      </trkpt>
      <trkpt lat="47.15901" lon="-1.29014">
        <ele>41.5</ele>
        <time>2019-10-11T11:57:08Z</time>
      </trkpt>
      <trkpt lat="47.15898" lon="-1.29022">
        <ele>41.5</ele>
        <time>2019-10-11T11:57:09Z</time>
      </trkpt>
      <trkpt lat="47.15896" lon="-1.29031">
        <ele>41.4</ele>
        <time>2019-10-11T11:57:10Z</time>
      </trkpt>
      <trkpt lat="47.15894" lon="-1.29039">
        <ele>41.3</ele>
        <time>2019-10-11T11:57:11Z</time>
      </trkpt>
      <trkpt lat="47.15892" lon="-1.29048">
        <ele>41.1</ele>
        <time>2019-10-11T11:57:12Z</time>
      </trkpt>
      <trkpt lat="47.1589" lon="-1.29057">
        <ele>40.9</ele>
        <time>2019-10-11T11:57:13Z</time>
      </trkpt>
      <trkpt lat="47.15888" lon="-1.29065">
        <ele>40.8</ele>
        <time>2019-10-11T11:57:14Z</time>
      </trkpt>
      <trkpt lat="47.15886" lon="-1.29073">
        <ele>40.6</ele>
        <time>2019-10-11T11:57:15Z</time>
      </trkpt>
      <trkpt lat="47.15884" lon="-1.29081">
        <ele>40.6</ele>
        <time>2019-10-11T11:57:16Z</time>
      </trkpt>
      <trkpt lat="47.15882" lon="-1.2909">
        <ele>40.5</ele>
        <time>2019-10-11T11:57:17Z</time>
      </trkpt>
      <trkpt lat="47.15879" lon="-1.29098">
        <ele>40.4</ele>
        <time>2019-10-11T11:57:18Z</time>
      </trkpt>
      <trkpt lat="47.15877" lon="-1.29107">
        <ele>40.2</ele>
        <time>2019-10-11T11:57:19Z</time>
      </trkpt>
      <trkpt lat="47.15876" lon="-1.29116">
        <ele>40</ele>
        <time>2019-10-11T11:57:20Z</time>
      </trkpt>
      <trkpt lat="47.15874" lon="-1.29125">
        <ele>39.8</ele>
        <time>2019-10-11T11:57:21Z</time>
      </trkpt>
      <trkpt lat="47.15873" lon="-1.29134">
        <ele>39.5</ele>
        <time>2019-10-11T11:57:22Z</time>
      </trkpt>
      <trkpt lat="47.15872" lon="-1.29143">
        <ele>39.3</ele>
        <time>2019-10-11T11:57:23Z</time>
      </trkpt>
      <trkpt lat="47.15871" lon="-1.29153">
        <ele>39.2</ele>
        <time>2019-10-11T11:57:24Z</time>
      </trkpt>
      <trkpt lat="47.15871" lon="-1.29162">
        <ele>38.9</ele>
        <time>2019-10-11T11:57:25Z</time>
      </trkpt>
      <trkpt lat="47.1587" lon="-1.29171">
        <ele>38.7</ele>
        <time>2019-10-11T11:57:26Z</time>
      </trkpt>
      <trkpt lat="47.1587" lon="-1.2918">
        <ele>38.5</ele>
        <time>2019-10-11T11:57:27Z</time>
      </trkpt>
      <trkpt lat="47.15869" lon="-1.2919">
        <ele>38.3</ele>
        <time>2019-10-11T11:57:28Z</time>
      </trkpt>
      <trkpt lat="47.15869" lon="-1.292">
        <ele>38.1</ele>
        <time>2019-10-11T11:57:29Z</time>
      </trkpt>
      <trkpt lat="47.15868" lon="-1.29209">
        <ele>37.9</ele>
        <time>2019-10-11T11:57:30Z</time>
      </trkpt>
      <trkpt lat="47.15868" lon="-1.29219">
        <ele>37.7</ele>
        <time>2019-10-11T11:57:31Z</time>
      </trkpt>
      <trkpt lat="47.15869" lon="-1.29228">
        <ele>37.6</ele>
        <time>2019-10-11T11:57:32Z</time>
      </trkpt>
      <trkpt lat="47.15869" lon="-1.29238">
        <ele>37.6</ele>
        <time>2019-10-11T11:57:33Z</time>
      </trkpt>
      <trkpt lat="47.1587" lon="-1.29248">
        <ele>37.5</ele>
        <time>2019-10-11T11:57:34Z</time>
      </trkpt>
      <trkpt lat="47.15871" lon="-1.29257">
        <ele>37.5</ele>
        <time>2019-10-11T11:57:35Z</time>
      </trkpt>
      <trkpt lat="47.15872" lon="-1.29267">
        <ele>37.5</ele>
        <time>2019-10-11T11:57:36Z</time>
      </trkpt>
      <trkpt lat="47.15873" lon="-1.29276">
        <ele>37.5</ele>
        <time>2019-10-11T11:57:37Z</time>
      </trkpt>
      <trkpt lat="47.15874" lon="-1.29286">
        <ele>37.5</ele>
        <time>2019-10-11T11:57:38Z</time>
      </trkpt>
      <trkpt lat="47.15875" lon="-1.29295">
        <ele>37.5</ele>
        <time>2019-10-11T11:57:39Z</time>
      </trkpt>
      <trkpt lat="47.15875" lon="-1.29305">
        <ele>37.5</ele>
        <time>2019-10-11T11:57:40Z</time>
      </trkpt>
      <trkpt lat="47.15876" lon="-1.29314">
        <ele>37.5</ele>
        <time>2019-10-11T11:57:41Z</time>
      </trkpt>
      <trkpt lat="47.15876" lon="-1.29324">
        <ele>37.4</ele>
        <time>2019-10-11T11:57:42Z</time>
      </trkpt>
      <trkpt lat="47.15875" lon="-1.29332">
        <ele>37.4</ele>
        <time>2019-10-11T11:57:43Z</time>
      </trkpt>
      <trkpt lat="47.15875" lon="-1.29341">
        <ele>37.4</ele>
        <time>2019-10-11T11:57:44Z</time>
      </trkpt>
      <trkpt lat="47.15874" lon="-1.29349">
        <ele>37.4</ele>
        <time>2019-10-11T11:57:45Z</time>
      </trkpt>
      <trkpt lat="47.15872" lon="-1.29358">
        <ele>37.4</ele>
        <time>2019-10-11T11:57:46Z</time>
      </trkpt>
      <trkpt lat="47.1587" lon="-1.29366">
        <ele>37.4</ele>
        <time>2019-10-11T11:57:47Z</time>
      </trkpt>
      <trkpt lat="47.15867" lon="-1.29373">
        <ele>37.4</ele>
        <time>2019-10-11T11:57:48Z</time>
      </trkpt>
      <trkpt lat="47.15864" lon="-1.2938">
        <ele>37.4</ele>
        <time>2019-10-11T11:57:49Z</time>
      </trkpt>
      <trkpt lat="47.15861" lon="-1.29387">
        <ele>37.4</ele>
        <time>2019-10-11T11:57:50Z</time>
      </trkpt>
      <trkpt lat="47.15857" lon="-1.29394">
        <ele>37.3</ele>
        <time>2019-10-11T11:57:51Z</time>
      </trkpt>
      <trkpt lat="47.15854" lon="-1.294">
        <ele>37.3</ele>
        <time>2019-10-11T11:57:52Z</time>
      </trkpt>
      <trkpt lat="47.1585" lon="-1.29406">
        <ele>37.2</ele>
        <time>2019-10-11T11:57:53Z</time>
      </trkpt>
      <trkpt lat="47.15846" lon="-1.29413">
        <ele>37.1</ele>
        <time>2019-10-11T11:57:54Z</time>
      </trkpt>
      <trkpt lat="47.15843" lon="-1.29421">
        <ele>36.9</ele>
        <time>2019-10-11T11:57:55Z</time>
      </trkpt>
      <trkpt lat="47.1584" lon="-1.29428">
        <ele>36.7</ele>
        <time>2019-10-11T11:57:56Z</time>
      </trkpt>
      <trkpt lat="47.15839" lon="-1.29435">
        <ele>36.6</ele>
        <time>2019-10-11T11:57:57Z</time>
      </trkpt>
      <trkpt lat="47.15837" lon="-1.29442">
        <ele>36.5</ele>
        <time>2019-10-11T11:57:58Z</time>
      </trkpt>
      <trkpt lat="47.15834" lon="-1.29449">
        <ele>36.4</ele>
        <time>2019-10-11T11:57:59Z</time>
      </trkpt>
      <trkpt lat="47.1583" lon="-1.29454">
        <ele>36.3</ele>
        <time>2019-10-11T11:58:00Z</time>
      </trkpt>
      <trkpt lat="47.15825" lon="-1.29458">
        <ele>36.3</ele>
        <time>2019-10-11T11:58:01Z</time>
      </trkpt>
      <trkpt lat="47.1582" lon="-1.29461">
        <ele>36.3</ele>
        <time>2019-10-11T11:58:02Z</time>
      </trkpt>
      <trkpt lat="47.15815" lon="-1.29464">
        <ele>36.3</ele>
        <time>2019-10-11T11:58:03Z</time>
      </trkpt>
      <trkpt lat="47.15809" lon="-1.29467">
        <ele>36.3</ele>
        <time>2019-10-11T11:58:04Z</time>
      </trkpt>
      <trkpt lat="47.15804" lon="-1.2947">
        <ele>36.3</ele>
        <time>2019-10-11T11:58:05Z</time>
      </trkpt>
      <trkpt lat="47.15799" lon="-1.29473">
        <ele>36.3</ele>
        <time>2019-10-11T11:58:06Z</time>
      </trkpt>
      <trkpt lat="47.15793" lon="-1.29476">
        <ele>36.3</ele>
        <time>2019-10-11T11:58:07Z</time>
      </trkpt>
      <trkpt lat="47.15788" lon="-1.29479">
        <ele>36.3</ele>
        <time>2019-10-11T11:58:08Z</time>
      </trkpt>
      <trkpt lat="47.15783" lon="-1.29483">
        <ele>36.3</ele>
        <time>2019-10-11T11:58:09Z</time>
      </trkpt>
      <trkpt lat="47.15778" lon="-1.29486">
        <ele>36.2</ele>
        <time>2019-10-11T11:58:10Z</time>
      </trkpt>
      <trkpt lat="47.15773" lon="-1.2949">
        <ele>36.2</ele>
        <time>2019-10-11T11:58:11Z</time>
      </trkpt>
      <trkpt lat="47.15768" lon="-1.29495">
        <ele>36.2</ele>
        <time>2019-10-11T11:58:12Z</time>
      </trkpt>
      <trkpt lat="47.15764" lon="-1.29499">
        <ele>36.2</ele>
        <time>2019-10-11T11:58:13Z</time>
      </trkpt>
      <trkpt lat="47.1576" lon="-1.29503">
        <ele>36.2</ele>
        <time>2019-10-11T11:58:14Z</time>
      </trkpt>
      <trkpt lat="47.15756" lon="-1.29508">
        <ele>36.2</ele>
        <time>2019-10-11T11:58:15Z</time>
      </trkpt>
      <trkpt lat="47.15753" lon="-1.29512">
        <ele>36.1</ele>
        <time>2019-10-11T11:58:16Z</time>
      </trkpt>
      <trkpt lat="47.15749" lon="-1.29516">
        <ele>36</ele>
        <time>2019-10-11T11:58:17Z</time>
      </trkpt>
      <trkpt lat="47.15745" lon="-1.2952">
        <ele>35.9</ele>
        <time>2019-10-11T11:58:18Z</time>
      </trkpt>
      <trkpt lat="47.15742" lon="-1.29524">
        <ele>35.8</ele>
        <time>2019-10-11T11:58:19Z</time>
      </trkpt>
      <trkpt lat="47.15739" lon="-1.29528">
        <ele>35.8</ele>
        <time>2019-10-11T11:58:20Z</time>
      </trkpt>
      <trkpt lat="47.15736" lon="-1.29532">
        <ele>35.7</ele>
        <time>2019-10-11T11:58:21Z</time>
      </trkpt>
      <trkpt lat="47.15733" lon="-1.29535">
        <ele>35.7</ele>
        <time>2019-10-11T11:58:22Z</time>
      </trkpt>
      <trkpt lat="47.15729" lon="-1.29539">
        <ele>35.7</ele>
        <time>2019-10-11T11:58:23Z</time>
      </trkpt>
      <trkpt lat="47.15726" lon="-1.29542">
        <ele>35.6</ele>
        <time>2019-10-11T11:58:24Z</time>
      </trkpt>
      <trkpt lat="47.15723" lon="-1.29546">
        <ele>35.6</ele>
        <time>2019-10-11T11:58:25Z</time>
      </trkpt>
      <trkpt lat="47.15719" lon="-1.29549">
        <ele>35.6</ele>
        <time>2019-10-11T11:58:26Z</time>
      </trkpt>
      <trkpt lat="47.15716" lon="-1.29553">
        <ele>35.6</ele>
        <time>2019-10-11T11:58:27Z</time>
      </trkpt>
      <trkpt lat="47.15713" lon="-1.29557">
        <ele>35.7</ele>
        <time>2019-10-11T11:58:28Z</time>
      </trkpt>
      <trkpt lat="47.15709" lon="-1.2956">
        <ele>35.7</ele>
        <time>2019-10-11T11:58:29Z</time>
      </trkpt>
      <trkpt lat="47.15705" lon="-1.29563">
        <ele>35.7</ele>
        <time>2019-10-11T11:58:30Z</time>
      </trkpt>
      <trkpt lat="47.15702" lon="-1.29566">
        <ele>35.8</ele>
        <time>2019-10-11T11:58:31Z</time>
      </trkpt>
      <trkpt lat="47.15698" lon="-1.29569">
        <ele>35.9</ele>
        <time>2019-10-11T11:58:32Z</time>
      </trkpt>
      <trkpt lat="47.15694" lon="-1.29571">
        <ele>36</ele>
        <time>2019-10-11T11:58:33Z</time>
      </trkpt>
      <trkpt lat="47.1569" lon="-1.29574">
        <ele>36.1</ele>
        <time>2019-10-11T11:58:34Z</time>
      </trkpt>
      <trkpt lat="47.15686" lon="-1.29576">
        <ele>36.1</ele>
        <time>2019-10-11T11:58:35Z</time>
      </trkpt>
      <trkpt lat="47.15683" lon="-1.29578">
        <ele>36.2</ele>
        <time>2019-10-11T11:58:36Z</time>
      </trkpt>
      <trkpt lat="47.15679" lon="-1.2958">
        <ele>36.2</ele>
        <time>2019-10-11T11:58:37Z</time>
      </trkpt>
      <trkpt lat="47.15675" lon="-1.29581">
        <ele>36.2</ele>
        <time>2019-10-11T11:58:38Z</time>
      </trkpt>
      <trkpt lat="47.15671" lon="-1.29582">
        <ele>36.2</ele>
        <time>2019-10-11T11:58:39Z</time>
      </trkpt>
      <trkpt lat="47.15667" lon="-1.29584">
        <ele>36.2</ele>
        <time>2019-10-11T11:58:40Z</time>
      </trkpt>
      <trkpt lat="47.15663" lon="-1.29585">
        <ele>36.2</ele>
        <time>2019-10-11T11:58:41Z</time>
      </trkpt>
      <trkpt lat="47.15658" lon="-1.29587">
        <ele>36.2</ele>
        <time>2019-10-11T11:58:42Z</time>
      </trkpt>
      <trkpt lat="47.15654" lon="-1.29589">
        <ele>36.2</ele>
        <time>2019-10-11T11:58:43Z</time>
      </trkpt>
      <trkpt lat="47.1565" lon="-1.2959">
        <ele>36.2</ele>
        <time>2019-10-11T11:58:44Z</time>
      </trkpt>
      <trkpt lat="47.15645" lon="-1.29592">
        <ele>36.2</ele>
        <time>2019-10-11T11:58:45Z</time>
      </trkpt>
      <trkpt lat="47.15641" lon="-1.29593">
        <ele>36.2</ele>
        <time>2019-10-11T11:58:46Z</time>
      </trkpt>
      <trkpt lat="47.15637" lon="-1.29595">
        <ele>36.2</ele>
        <time>2019-10-11T11:58:47Z</time>
      </trkpt>
      <trkpt lat="47.15633" lon="-1.29596">
        <ele>36.1</ele>
        <time>2019-10-11T11:58:48Z</time>
      </trkpt>
      <trkpt lat="47.15628" lon="-1.29598">
        <ele>36.1</ele>
        <time>2019-10-11T11:58:49Z</time>
      </trkpt>
      <trkpt lat="47.15624" lon="-1.29599">
        <ele>36</ele>
        <time>2019-10-11T11:58:50Z</time>
      </trkpt>
      <trkpt lat="47.15619" lon="-1.296">
        <ele>36</ele>
        <time>2019-10-11T11:58:51Z</time>
      </trkpt>
      <trkpt lat="47.15615" lon="-1.29602">
        <ele>35.9</ele>
        <time>2019-10-11T11:58:52Z</time>
      </trkpt>
      <trkpt lat="47.1561" lon="-1.29603">
        <ele>35.9</ele>
        <time>2019-10-11T11:58:53Z</time>
      </trkpt>
      <trkpt lat="47.15606" lon="-1.29605">
        <ele>35.9</ele>
        <time>2019-10-11T11:58:54Z</time>
      </trkpt>
      <trkpt lat="47.15601" lon="-1.29606">
        <ele>35.9</ele>
        <time>2019-10-11T11:58:55Z</time>
      </trkpt>
      <trkpt lat="47.15597" lon="-1.29606">
        <ele>35.8</ele>
        <time>2019-10-11T11:58:56Z</time>
      </trkpt>
      <trkpt lat="47.15591" lon="-1.29606">
        <ele>35.7</ele>
        <time>2019-10-11T11:58:57Z</time>
      </trkpt>
      <trkpt lat="47.15586" lon="-1.29606">
        <ele>35.7</ele>
        <time>2019-10-11T11:58:58Z</time>
      </trkpt>
      <trkpt lat="47.15581" lon="-1.29606">
        <ele>35.6</ele>
        <time>2019-10-11T11:58:59Z</time>
      </trkpt>
      <trkpt lat="47.15576" lon="-1.29605">
        <ele>35.6</ele>
        <time>2019-10-11T11:59:00Z</time>
      </trkpt>
      <trkpt lat="47.15571" lon="-1.29604">
        <ele>35.5</ele>
        <time>2019-10-11T11:59:01Z</time>
      </trkpt>
      <trkpt lat="47.15565" lon="-1.29602">
        <ele>35.5</ele>
        <time>2019-10-11T11:59:02Z</time>
      </trkpt>
      <trkpt lat="47.1556" lon="-1.29601">
        <ele>35.5</ele>
        <time>2019-10-11T11:59:03Z</time>
      </trkpt>
      <trkpt lat="47.15554" lon="-1.29598">
        <ele>35.5</ele>
        <time>2019-10-11T11:59:04Z</time>
      </trkpt>
      <trkpt lat="47.15548" lon="-1.29596">
        <ele>35.4</ele>
        <time>2019-10-11T11:59:05Z</time>
      </trkpt>
      <trkpt lat="47.15543" lon="-1.29593">
        <ele>35.4</ele>
        <time>2019-10-11T11:59:06Z</time>
      </trkpt>
      <trkpt lat="47.15537" lon="-1.2959">
        <ele>35.4</ele>
        <time>2019-10-11T11:59:07Z</time>
      </trkpt>
      <trkpt lat="47.15531" lon="-1.29586">
        <ele>35.4</ele>
        <time>2019-10-11T11:59:08Z</time>
      </trkpt>
      <trkpt lat="47.15526" lon="-1.29582">
        <ele>35.4</ele>
        <time>2019-10-11T11:59:09Z</time>
      </trkpt>
      <trkpt lat="47.1552" lon="-1.29579">
        <ele>35.4</ele>
        <time>2019-10-11T11:59:10Z</time>
      </trkpt>
      <trkpt lat="47.15514" lon="-1.29577">
        <ele>35.4</ele>
        <time>2019-10-11T11:59:11Z</time>
      </trkpt>
      <trkpt lat="47.15509" lon="-1.29578">
        <ele>35.5</ele>
        <time>2019-10-11T11:59:12Z</time>
      </trkpt>
      <trkpt lat="47.15503" lon="-1.29583">
        <ele>35.5</ele>
        <time>2019-10-11T11:59:13Z</time>
      </trkpt>
      <trkpt lat="47.15499" lon="-1.29588">
        <ele>35.5</ele>
        <time>2019-10-11T11:59:14Z</time>
      </trkpt>
      <trkpt lat="47.15494" lon="-1.29593">
        <ele>35.5</ele>
        <time>2019-10-11T11:59:15Z</time>
      </trkpt>
      <trkpt lat="47.1549" lon="-1.29597">
        <ele>35.6</ele>
        <time>2019-10-11T11:59:16Z</time>
      </trkpt>
      <trkpt lat="47.15485" lon="-1.29602">
        <ele>35.6</ele>
        <time>2019-10-11T11:59:17Z</time>
      </trkpt>
      <trkpt lat="47.15481" lon="-1.29606">
        <ele>35.7</ele>
        <time>2019-10-11T11:59:18Z</time>
      </trkpt>
      <trkpt lat="47.15477" lon="-1.2961">
        <ele>35.8</ele>
        <time>2019-10-11T11:59:19Z</time>
      </trkpt>
      <trkpt lat="47.15472" lon="-1.29615">
        <ele>35.9</ele>
        <time>2019-10-11T11:59:20Z</time>
      </trkpt>
      <trkpt lat="47.15468" lon="-1.29619">
        <ele>36</ele>
        <time>2019-10-11T11:59:21Z</time>
      </trkpt>
      <trkpt lat="47.15464" lon="-1.29624">
        <ele>36.1</ele>
        <time>2019-10-11T11:59:22Z</time>
      </trkpt>
      <trkpt lat="47.1546" lon="-1.29628">
        <ele>36.2</ele>
        <time>2019-10-11T11:59:23Z</time>
      </trkpt>
      <trkpt lat="47.15456" lon="-1.29632">
        <ele>36.3</ele>
        <time>2019-10-11T11:59:24Z</time>
      </trkpt>
      <trkpt lat="47.15452" lon="-1.29637">
        <ele>36.3</ele>
        <time>2019-10-11T11:59:25Z</time>
      </trkpt>
      <trkpt lat="47.15448" lon="-1.29641">
        <ele>36.4</ele>
        <time>2019-10-11T11:59:26Z</time>
      </trkpt>
      <trkpt lat="47.15443" lon="-1.29645">
        <ele>36.4</ele>
        <time>2019-10-11T11:59:27Z</time>
      </trkpt>
      <trkpt lat="47.1544" lon="-1.29649">
        <ele>36.5</ele>
        <time>2019-10-11T11:59:28Z</time>
      </trkpt>
      <trkpt lat="47.15436" lon="-1.29654">
        <ele>36.5</ele>
        <time>2019-10-11T11:59:29Z</time>
      </trkpt>
      <trkpt lat="47.15432" lon="-1.29658">
        <ele>36.5</ele>
        <time>2019-10-11T11:59:30Z</time>
      </trkpt>
      <trkpt lat="47.15428" lon="-1.29662">
        <ele>36.5</ele>
        <time>2019-10-11T11:59:31Z</time>
      </trkpt>
      <trkpt lat="47.15425" lon="-1.29667">
        <ele>36.5</ele>
        <time>2019-10-11T11:59:32Z</time>
      </trkpt>
      <trkpt lat="47.15421" lon="-1.29671">
        <ele>36.5</ele>
        <time>2019-10-11T11:59:33Z</time>
      </trkpt>
      <trkpt lat="47.15418" lon="-1.29676">
        <ele>36.5</ele>
        <time>2019-10-11T11:59:34Z</time>
      </trkpt>
      <trkpt lat="47.15415" lon="-1.29682">
        <ele>36.4</ele>
        <time>2019-10-11T11:59:35Z</time>
      </trkpt>
      <trkpt lat="47.15413" lon="-1.29688">
        <ele>36.3</ele>
        <time>2019-10-11T11:59:36Z</time>
      </trkpt>
      <trkpt lat="47.15411" lon="-1.29695">
        <ele>36.1</ele>
        <time>2019-10-11T11:59:37Z</time>
      </trkpt>
      <trkpt lat="47.15409" lon="-1.29702">
        <ele>36</ele>
        <time>2019-10-11T11:59:38Z</time>
      </trkpt>
      <trkpt lat="47.15409" lon="-1.29709">
        <ele>35.8</ele>
        <time>2019-10-11T11:59:39Z</time>
      </trkpt>
      <trkpt lat="47.15409" lon="-1.29717">
        <ele>35.7</ele>
        <time>2019-10-11T11:59:40Z</time>
      </trkpt>
      <trkpt lat="47.1541" lon="-1.29725">
        <ele>35.5</ele>
        <time>2019-10-11T11:59:41Z</time>
      </trkpt>
      <trkpt lat="47.15412" lon="-1.29732">
        <ele>35.4</ele>
        <time>2019-10-11T11:59:42Z</time>
      </trkpt>
      <trkpt lat="47.15415" lon="-1.2974">
        <ele>35.2</ele>
        <time>2019-10-11T11:59:43Z</time>
      </trkpt>
      <trkpt lat="47.15417" lon="-1.29748">
        <ele>35.1</ele>
        <time>2019-10-11T11:59:44Z</time>
      </trkpt>
      <trkpt lat="47.1542" lon="-1.29755">
        <ele>35</ele>
        <time>2019-10-11T11:59:45Z</time>
      </trkpt>
      <trkpt lat="47.15422" lon="-1.29763">
        <ele>34.9</ele>
        <time>2019-10-11T11:59:46Z</time>
      </trkpt>
      <trkpt lat="47.15425" lon="-1.29771">
        <ele>34.7</ele>
        <time>2019-10-11T11:59:47Z</time>
      </trkpt>
      <trkpt lat="47.15428" lon="-1.29779">
        <ele>34.6</ele>
        <time>2019-10-11T11:59:48Z</time>
      </trkpt>
      <trkpt lat="47.1543" lon="-1.29787">
        <ele>34.5</ele>
        <time>2019-10-11T11:59:49Z</time>
      </trkpt>
      <trkpt lat="47.15433" lon="-1.29794">
        <ele>34.5</ele>
        <time>2019-10-11T11:59:50Z</time>
      </trkpt>
      <trkpt lat="47.15435" lon="-1.29803">
        <ele>34.4</ele>
        <time>2019-10-11T11:59:51Z</time>
      </trkpt>
      <trkpt lat="47.15438" lon="-1.29811">
        <ele>34.4</ele>
        <time>2019-10-11T11:59:52Z</time>
      </trkpt>
      <trkpt lat="47.1544" lon="-1.29819">
        <ele>34.4</ele>
        <time>2019-10-11T11:59:53Z</time>
      </trkpt>
      <trkpt lat="47.15443" lon="-1.29827">
        <ele>34.3</ele>
        <time>2019-10-11T11:59:54Z</time>
      </trkpt>
      <trkpt lat="47.15445" lon="-1.29835">
        <ele>34.3</ele>
        <time>2019-10-11T11:59:55Z</time>
      </trkpt>
      <trkpt lat="47.15447" lon="-1.29843">
        <ele>34.3</ele>
        <time>2019-10-11T11:59:56Z</time>
      </trkpt>
      <trkpt lat="47.15449" lon="-1.29852">
        <ele>34.2</ele>
        <time>2019-10-11T11:59:57Z</time>
      </trkpt>
      <trkpt lat="47.15451" lon="-1.2986">
        <ele>34</ele>
        <time>2019-10-11T11:59:58Z</time>
      </trkpt>
      <trkpt lat="47.15453" lon="-1.29869">
        <ele>33.8</ele>
        <time>2019-10-11T11:59:59Z</time>
      </trkpt>
      <trkpt lat="47.15453" lon="-1.29878">
        <ele>33.6</ele>
        <time>2019-10-11T12:00:00Z</time>
      </trkpt>
      <trkpt lat="47.15454" lon="-1.29887">
        <ele>33.5</ele>
        <time>2019-10-11T12:00:01Z</time>
      </trkpt>
      <trkpt lat="47.15453" lon="-1.29896">
        <ele>33.3</ele>
        <time>2019-10-11T12:00:02Z</time>
      </trkpt>
      <trkpt lat="47.15453" lon="-1.29906">
        <ele>33.1</ele>
        <time>2019-10-11T12:00:03Z</time>
      </trkpt>
      <trkpt lat="47.15454" lon="-1.29915">
        <ele>32.9</ele>
        <time>2019-10-11T12:00:04Z</time>
      </trkpt>
      <trkpt lat="47.15454" lon="-1.29924">
        <ele>32.7</ele>
        <time>2019-10-11T12:00:05Z</time>
      </trkpt>
      <trkpt lat="47.15455" lon="-1.29933">
        <ele>32.5</ele>
        <time>2019-10-11T12:00:06Z</time>
      </trkpt>
      <trkpt lat="47.15455" lon="-1.29942">
        <ele>32.4</ele>
        <time>2019-10-11T12:00:07Z</time>
      </trkpt>
      <trkpt lat="47.15456" lon="-1.29952">
        <ele>32.3</ele>
        <time>2019-10-11T12:00:08Z</time>
      </trkpt>
      <trkpt lat="47.15458" lon="-1.29961">
        <ele>32.2</ele>
        <time>2019-10-11T12:00:09Z</time>
      </trkpt>
      <trkpt lat="47.15459" lon="-1.29971">
        <ele>32</ele>
        <time>2019-10-11T12:00:10Z</time>
      </trkpt>
      <trkpt lat="47.15461" lon="-1.29979">
        <ele>32</ele>
        <time>2019-10-11T12:00:11Z</time>
      </trkpt>
      <trkpt lat="47.15464" lon="-1.29988">
        <ele>32</ele>
        <time>2019-10-11T12:00:12Z</time>
      </trkpt>
      <trkpt lat="47.15467" lon="-1.29995">
        <ele>31.9</ele>
        <time>2019-10-11T12:00:13Z</time>
      </trkpt>
      <trkpt lat="47.1547" lon="-1.30003">
        <ele>32</ele>
        <time>2019-10-11T12:00:14Z</time>
      </trkpt>
      <trkpt lat="47.15474" lon="-1.30011">
        <ele>32</ele>
        <time>2019-10-11T12:00:15Z</time>
      </trkpt>
      <trkpt lat="47.15477" lon="-1.30018">
        <ele>32</ele>
        <time>2019-10-11T12:00:16Z</time>
      </trkpt>
      <trkpt lat="47.15481" lon="-1.30026">
        <ele>32</ele>
        <time>2019-10-11T12:00:17Z</time>
      </trkpt>
      <trkpt lat="47.15484" lon="-1.30033">
        <ele>32</ele>
        <time>2019-10-11T12:00:18Z</time>
      </trkpt>
      <trkpt lat="47.15485" lon="-1.30042">
        <ele>32</ele>
        <time>2019-10-11T12:00:19Z</time>
      </trkpt>
      <trkpt lat="47.15484" lon="-1.3005">
        <ele>32</ele>
        <time>2019-10-11T12:00:20Z</time>
      </trkpt>
      <trkpt lat="47.15482" lon="-1.30058">
        <ele>32</ele>
        <time>2019-10-11T12:00:21Z</time>
      </trkpt>
      <trkpt lat="47.15479" lon="-1.30066">
        <ele>32</ele>
        <time>2019-10-11T12:00:22Z</time>
      </trkpt>
      <trkpt lat="47.15476" lon="-1.30073">
        <ele>32</ele>
        <time>2019-10-11T12:00:23Z</time>
      </trkpt>
      <trkpt lat="47.15474" lon="-1.3008">
        <ele>32</ele>
        <time>2019-10-11T12:00:24Z</time>
      </trkpt>
      <trkpt lat="47.15471" lon="-1.30088">
        <ele>32</ele>
        <time>2019-10-11T12:00:25Z</time>
      </trkpt>
      <trkpt lat="47.15468" lon="-1.30096">
        <ele>32</ele>
        <time>2019-10-11T12:00:26Z</time>
      </trkpt>
      <trkpt lat="47.15465" lon="-1.30104">
        <ele>32</ele>
        <time>2019-10-11T12:00:27Z</time>
      </trkpt>
      <trkpt lat="47.15463" lon="-1.30111">
        <ele>32.1</ele>
        <time>2019-10-11T12:00:28Z</time>
      </trkpt>
      <trkpt lat="47.1546" lon="-1.30119">
        <ele>32.1</ele>
        <time>2019-10-11T12:00:29Z</time>
      </trkpt>
      <trkpt lat="47.15458" lon="-1.30127">
        <ele>32.1</ele>
        <time>2019-10-11T12:00:30Z</time>
      </trkpt>
      <trkpt lat="47.15456" lon="-1.30135">
        <ele>32.2</ele>
        <time>2019-10-11T12:00:31Z</time>
      </trkpt>
      <trkpt lat="47.15453" lon="-1.30143">
        <ele>32.2</ele>
        <time>2019-10-11T12:00:32Z</time>
      </trkpt>
      <trkpt lat="47.15451" lon="-1.30152">
        <ele>32.3</ele>
        <time>2019-10-11T12:00:33Z</time>
      </trkpt>
      <trkpt lat="47.15449" lon="-1.3016">
        <ele>32.3</ele>
        <time>2019-10-11T12:00:34Z</time>
      </trkpt>
      <trkpt lat="47.15446" lon="-1.30168">
        <ele>32.4</ele>
        <time>2019-10-11T12:00:35Z</time>
      </trkpt>
      <trkpt lat="47.15444" lon="-1.30175">
        <ele>32.4</ele>
        <time>2019-10-11T12:00:36Z</time>
      </trkpt>
      <trkpt lat="47.15441" lon="-1.30183">
        <ele>32.5</ele>
        <time>2019-10-11T12:00:37Z</time>
      </trkpt>
      <trkpt lat="47.15439" lon="-1.3019">
        <ele>32.6</ele>
        <time>2019-10-11T12:00:38Z</time>
      </trkpt>
      <trkpt lat="47.15436" lon="-1.30197">
        <ele>32.7</ele>
        <time>2019-10-11T12:00:39Z</time>
      </trkpt>
      <trkpt lat="47.15434" lon="-1.30204">
        <ele>32.8</ele>
        <time>2019-10-11T12:00:40Z</time>
      </trkpt>
      <trkpt lat="47.15432" lon="-1.30211">
        <ele>33</ele>
        <time>2019-10-11T12:00:41Z</time>
      </trkpt>
      <trkpt lat="47.15429" lon="-1.30218">
        <ele>33.1</ele>
        <time>2019-10-11T12:00:42Z</time>
      </trkpt>
      <trkpt lat="47.15427" lon="-1.30225">
        <ele>33.2</ele>
        <time>2019-10-11T12:00:43Z</time>
      </trkpt>
      <trkpt lat="47.15424" lon="-1.30232">
        <ele>33.4</ele>
        <time>2019-10-11T12:00:44Z</time>
      </trkpt>
      <trkpt lat="47.15422" lon="-1.30239">
        <ele>33.5</ele>
        <time>2019-10-11T12:00:45Z</time>
      </trkpt>
      <trkpt lat="47.1542" lon="-1.30246">
        <ele>33.6</ele>
        <time>2019-10-11T12:00:46Z</time>
      </trkpt>
      <trkpt lat="47.15418" lon="-1.30253">
        <ele>33.7</ele>
        <time>2019-10-11T12:00:47Z</time>
      </trkpt>
      <trkpt lat="47.15416" lon="-1.3026">
        <ele>33.7</ele>
        <time>2019-10-11T12:00:48Z</time>
      </trkpt>
      <trkpt lat="47.15414" lon="-1.30266">
        <ele>33.7</ele>
        <time>2019-10-11T12:00:49Z</time>
      </trkpt>
      <trkpt lat="47.15411" lon="-1.30273">
        <ele>33.7</ele>
        <time>2019-10-11T12:00:50Z</time>
      </trkpt>
      <trkpt lat="47.15409" lon="-1.30279">
        <ele>33.7</ele>
        <time>2019-10-11T12:00:51Z</time>
      </trkpt>
      <trkpt lat="47.15407" lon="-1.30286">
        <ele>33.6</ele>
        <time>2019-10-11T12:00:52Z</time>
      </trkpt>
      <trkpt lat="47.15404" lon="-1.30292">
        <ele>33.6</ele>
        <time>2019-10-11T12:00:53Z</time>
      </trkpt>
      <trkpt lat="47.15402" lon="-1.30299">
        <ele>33.6</ele>
        <time>2019-10-11T12:00:54Z</time>
      </trkpt>
      <trkpt lat="47.15399" lon="-1.30305">
        <ele>33.5</ele>
        <time>2019-10-11T12:00:55Z</time>
      </trkpt>
      <trkpt lat="47.15396" lon="-1.30312">
        <ele>33.5</ele>
        <time>2019-10-11T12:00:56Z</time>
      </trkpt>
      <trkpt lat="47.15394" lon="-1.30318">
        <ele>33.4</ele>
        <time>2019-10-11T12:00:57Z</time>
      </trkpt>
      <trkpt lat="47.15391" lon="-1.30325">
        <ele>33.3</ele>
        <time>2019-10-11T12:00:58Z</time>
      </trkpt>
      <trkpt lat="47.15388" lon="-1.30332">
        <ele>33.3</ele>
        <time>2019-10-11T12:00:59Z</time>
      </trkpt>
      <trkpt lat="47.15386" lon="-1.30338">
        <ele>33.3</ele>
        <time>2019-10-11T12:01:00Z</time>
      </trkpt>
      <trkpt lat="47.15383" lon="-1.30345">
        <ele>33.2</ele>
        <time>2019-10-11T12:01:01Z</time>
      </trkpt>
      <trkpt lat="47.1538" lon="-1.30351">
        <ele>33.2</ele>
        <time>2019-10-11T12:01:02Z</time>
      </trkpt>
      <trkpt lat="47.15377" lon="-1.30357">
        <ele>33.2</ele>
        <time>2019-10-11T12:01:03Z</time>
      </trkpt>
      <trkpt lat="47.15374" lon="-1.30364">
        <ele>33.1</ele>
        <time>2019-10-11T12:01:04Z</time>
      </trkpt>
      <trkpt lat="47.15371" lon="-1.3037">
        <ele>33.1</ele>
        <time>2019-10-11T12:01:05Z</time>
      </trkpt>
      <trkpt lat="47.15368" lon="-1.30377">
        <ele>33</ele>
        <time>2019-10-11T12:01:06Z</time>
      </trkpt>
      <trkpt lat="47.15365" lon="-1.30384">
        <ele>32.9</ele>
        <time>2019-10-11T12:01:07Z</time>
      </trkpt>
      <trkpt lat="47.15362" lon="-1.30391">
        <ele>32.9</ele>
        <time>2019-10-11T12:01:08Z</time>
      </trkpt>
      <trkpt lat="47.15359" lon="-1.30398">
        <ele>32.8</ele>
        <time>2019-10-11T12:01:09Z</time>
      </trkpt>
      <trkpt lat="47.15356" lon="-1.30405">
        <ele>32.8</ele>
        <time>2019-10-11T12:01:10Z</time>
      </trkpt>
      <trkpt lat="47.15354" lon="-1.30412">
        <ele>32.7</ele>
        <time>2019-10-11T12:01:11Z</time>
      </trkpt>
      <trkpt lat="47.15351" lon="-1.30419">
        <ele>32.8</ele>
        <time>2019-10-11T12:01:12Z</time>
      </trkpt>
      <trkpt lat="47.15348" lon="-1.30426">
        <ele>32.9</ele>
        <time>2019-10-11T12:01:13Z</time>
      </trkpt>
      <trkpt lat="47.15347" lon="-1.30433">
        <ele>33.1</ele>
        <time>2019-10-11T12:01:14Z</time>
      </trkpt>
      <trkpt lat="47.15347" lon="-1.30441">
        <ele>33.2</ele>
        <time>2019-10-11T12:01:15Z</time>
      </trkpt>
      <trkpt lat="47.15346" lon="-1.30449">
        <ele>33.1</ele>
        <time>2019-10-11T12:01:16Z</time>
      </trkpt>
      <trkpt lat="47.15345" lon="-1.30457">
        <ele>33.1</ele>
        <time>2019-10-11T12:01:17Z</time>
      </trkpt>
      <trkpt lat="47.15343" lon="-1.30464">
        <ele>33.1</ele>
        <time>2019-10-11T12:01:18Z</time>
      </trkpt>
      <trkpt lat="47.1534" lon="-1.30471">
        <ele>33.1</ele>
        <time>2019-10-11T12:01:19Z</time>
      </trkpt>
      <trkpt lat="47.15337" lon="-1.30479">
        <ele>33.1</ele>
        <time>2019-10-11T12:01:20Z</time>
      </trkpt>
      <trkpt lat="47.15335" lon="-1.30486">
        <ele>33.1</ele>
        <time>2019-10-11T12:01:21Z</time>
      </trkpt>
      <trkpt lat="47.15333" lon="-1.30494">
        <ele>33.2</ele>
        <time>2019-10-11T12:01:22Z</time>
      </trkpt>
      <trkpt lat="47.1533" lon="-1.30501">
        <ele>33.2</ele>
        <time>2019-10-11T12:01:23Z</time>
      </trkpt>
      <trkpt lat="47.15328" lon="-1.30507">
        <ele>33.3</ele>
        <time>2019-10-11T12:01:24Z</time>
      </trkpt>
      <trkpt lat="47.15325" lon="-1.30514">
        <ele>33.3</ele>
        <time>2019-10-11T12:01:25Z</time>
      </trkpt>
      <trkpt lat="47.15323" lon="-1.3052">
        <ele>33.4</ele>
        <time>2019-10-11T12:01:26Z</time>
      </trkpt>
      <trkpt lat="47.15321" lon="-1.30526">
        <ele>33.4</ele>
        <time>2019-10-11T12:01:27Z</time>
      </trkpt>
      <trkpt lat="47.15319" lon="-1.30532">
        <ele>33.5</ele>
        <time>2019-10-11T12:01:28Z</time>
      </trkpt>
      <trkpt lat="47.15317" lon="-1.30539">
        <ele>33.6</ele>
        <time>2019-10-11T12:01:29Z</time>
      </trkpt>
      <trkpt lat="47.15315" lon="-1.30545">
        <ele>33.6</ele>
        <time>2019-10-11T12:01:30Z</time>
      </trkpt>
      <trkpt lat="47.15313" lon="-1.30551">
        <ele>33.7</ele>
        <time>2019-10-11T12:01:31Z</time>
      </trkpt>
      <trkpt lat="47.1531" lon="-1.30557">
        <ele>33.8</ele>
        <time>2019-10-11T12:01:32Z</time>
      </trkpt>
      <trkpt lat="47.15308" lon="-1.30563">
        <ele>33.8</ele>
        <time>2019-10-11T12:01:33Z</time>
      </trkpt>
      <trkpt lat="47.15306" lon="-1.30569">
        <ele>33.8</ele>
        <time>2019-10-11T12:01:34Z</time>
      </trkpt>
      <trkpt lat="47.15304" lon="-1.30575">
        <ele>33.9</ele>
        <time>2019-10-11T12:01:35Z</time>
      </trkpt>
      <trkpt lat="47.15302" lon="-1.30582">
        <ele>34</ele>
        <time>2019-10-11T12:01:36Z</time>
      </trkpt>
      <trkpt lat="47.15299" lon="-1.30588">
        <ele>34</ele>
        <time>2019-10-11T12:01:37Z</time>
      </trkpt>
      <trkpt lat="47.15297" lon="-1.30594">
        <ele>34.1</ele>
        <time>2019-10-11T12:01:38Z</time>
      </trkpt>
      <trkpt lat="47.15295" lon="-1.30601">
        <ele>34.1</ele>
        <time>2019-10-11T12:01:39Z</time>
      </trkpt>
      <trkpt lat="47.15293" lon="-1.30607">
        <ele>34.2</ele>
        <time>2019-10-11T12:01:40Z</time>
      </trkpt>
      <trkpt lat="47.1529" lon="-1.30613">
        <ele>34.3</ele>
        <time>2019-10-11T12:01:41Z</time>
      </trkpt>
      <trkpt lat="47.15288" lon="-1.30619">
        <ele>34.4</ele>
        <time>2019-10-11T12:01:42Z</time>
      </trkpt>
      <trkpt lat="47.15285" lon="-1.30625">
        <ele>34.5</ele>
        <time>2019-10-11T12:01:43Z</time>
      </trkpt>
      <trkpt lat="47.15283" lon="-1.3063">
        <ele>34.6</ele>
        <time>2019-10-11T12:01:44Z</time>
      </trkpt>
      <trkpt lat="47.1528" lon="-1.30635">
        <ele>34.7</ele>
        <time>2019-10-11T12:01:45Z</time>
      </trkpt>
      <trkpt lat="47.15276" lon="-1.3064">
        <ele>34.8</ele>
        <time>2019-10-11T12:01:46Z</time>
      </trkpt>
      <trkpt lat="47.15273" lon="-1.30645">
        <ele>34.9</ele>
        <time>2019-10-11T12:01:47Z</time>
      </trkpt>
      <trkpt lat="47.15269" lon="-1.3065">
        <ele>35</ele>
        <time>2019-10-11T12:01:48Z</time>
      </trkpt>
      <trkpt lat="47.15266" lon="-1.30654">
        <ele>35.1</ele>
        <time>2019-10-11T12:01:49Z</time>
      </trkpt>
      <trkpt lat="47.15262" lon="-1.30659">
        <ele>35.2</ele>
        <time>2019-10-11T12:01:50Z</time>
      </trkpt>
      <trkpt lat="47.15259" lon="-1.30664">
        <ele>35.3</ele>
        <time>2019-10-11T12:01:51Z</time>
      </trkpt>
      <trkpt lat="47.15255" lon="-1.30669">
        <ele>35.4</ele>
        <time>2019-10-11T12:01:52Z</time>
      </trkpt>
      <trkpt lat="47.15252" lon="-1.30673">
        <ele>35.4</ele>
        <time>2019-10-11T12:01:53Z</time>
      </trkpt>
      <trkpt lat="47.15248" lon="-1.30678">
        <ele>35.5</ele>
        <time>2019-10-11T12:01:54Z</time>
      </trkpt>
      <trkpt lat="47.15245" lon="-1.30682">
        <ele>35.5</ele>
        <time>2019-10-11T12:01:55Z</time>
      </trkpt>
      <trkpt lat="47.15241" lon="-1.30687">
        <ele>35.6</ele>
        <time>2019-10-11T12:01:56Z</time>
      </trkpt>
      <trkpt lat="47.15239" lon="-1.30691">
        <ele>35.6</ele>
        <time>2019-10-11T12:01:57Z</time>
      </trkpt>
      <trkpt lat="47.15237" lon="-1.30695">
        <ele>35.6</ele>
        <time>2019-10-11T12:01:58Z</time>
      </trkpt>
      <trkpt lat="47.15235" lon="-1.30699">
        <ele>35.6</ele>
        <time>2019-10-11T12:01:59Z</time>
      </trkpt>
      <trkpt lat="47.15235" lon="-1.30703">
        <ele>35.6</ele>
        <time>2019-10-11T12:02:04Z</time>
      </trkpt>
      <trkpt lat="47.15236" lon="-1.30709">
        <ele>35.6</ele>
        <time>2019-10-11T12:02:06Z</time>
      </trkpt>
      <trkpt lat="47.15239" lon="-1.30716">
        <ele>35.6</ele>
        <time>2019-10-11T12:02:08Z</time>
      </trkpt>
      <trkpt lat="47.1524" lon="-1.3072">
        <ele>35.5</ele>
        <time>2019-10-11T12:02:09Z</time>
      </trkpt>
      <trkpt lat="47.15241" lon="-1.30725">
        <ele>35.5</ele>
        <time>2019-10-11T12:02:10Z</time>
      </trkpt>
      <trkpt lat="47.15243" lon="-1.3073">
        <ele>35.5</ele>
        <time>2019-10-11T12:02:11Z</time>
      </trkpt>
      <trkpt lat="47.15245" lon="-1.30735">
        <ele>35.6</ele>
        <time>2019-10-11T12:02:12Z</time>
      </trkpt>
      <trkpt lat="47.15247" lon="-1.3074">
        <ele>35.6</ele>
        <time>2019-10-11T12:02:13Z</time>
      </trkpt>
      <trkpt lat="47.15249" lon="-1.30746">
        <ele>35.6</ele>
        <time>2019-10-11T12:02:14Z</time>
      </trkpt>
      <trkpt lat="47.15251" lon="-1.30752">
        <ele>35.7</ele>
        <time>2019-10-11T12:02:15Z</time>
      </trkpt>
      <trkpt lat="47.15253" lon="-1.30758">
        <ele>35.7</ele>
        <time>2019-10-11T12:02:16Z</time>
      </trkpt>
      <trkpt lat="47.15255" lon="-1.30764">
        <ele>35.7</ele>
        <time>2019-10-11T12:02:17Z</time>
      </trkpt>
      <trkpt lat="47.15257" lon="-1.3077">
        <ele>35.7</ele>
        <time>2019-10-11T12:02:18Z</time>
      </trkpt>
      <trkpt lat="47.15259" lon="-1.30776">
        <ele>35.8</ele>
        <time>2019-10-11T12:02:19Z</time>
      </trkpt>
      <trkpt lat="47.15261" lon="-1.30783">
        <ele>35.8</ele>
        <time>2019-10-11T12:02:20Z</time>
      </trkpt>
      <trkpt lat="47.15263" lon="-1.30789">
        <ele>35.8</ele>
        <time>2019-10-11T12:02:21Z</time>
      </trkpt>
      <trkpt lat="47.15266" lon="-1.30796">
        <ele>35.9</ele>
        <time>2019-10-11T12:02:22Z</time>
      </trkpt>
      <trkpt lat="47.15268" lon="-1.30803">
        <ele>35.8</ele>
        <time>2019-10-11T12:02:23Z</time>
      </trkpt>
      <trkpt lat="47.1527" lon="-1.30809">
        <ele>35.8</ele>
        <time>2019-10-11T12:02:24Z</time>
      </trkpt>
      <trkpt lat="47.15272" lon="-1.30815">
        <ele>35.8</ele>
        <time>2019-10-11T12:02:25Z</time>
      </trkpt>
      <trkpt lat="47.15274" lon="-1.30822">
        <ele>35.8</ele>
        <time>2019-10-11T12:02:26Z</time>
      </trkpt>
      <trkpt lat="47.15276" lon="-1.30828">
        <ele>35.7</ele>
        <time>2019-10-11T12:02:27Z</time>
      </trkpt>
      <trkpt lat="47.15277" lon="-1.30835">
        <ele>35.7</ele>
        <time>2019-10-11T12:02:28Z</time>
      </trkpt>
      <trkpt lat="47.15278" lon="-1.30842">
        <ele>35.6</ele>
        <time>2019-10-11T12:02:29Z</time>
      </trkpt>
      <trkpt lat="47.15279" lon="-1.30849">
        <ele>35.6</ele>
        <time>2019-10-11T12:02:30Z</time>
      </trkpt>
      <trkpt lat="47.15281" lon="-1.30856">
        <ele>35.5</ele>
        <time>2019-10-11T12:02:31Z</time>
      </trkpt>
      <trkpt lat="47.15281" lon="-1.30863">
        <ele>35.4</ele>
        <time>2019-10-11T12:02:32Z</time>
      </trkpt>
      <trkpt lat="47.15282" lon="-1.3087">
        <ele>35.4</ele>
        <time>2019-10-11T12:02:33Z</time>
      </trkpt>
      <trkpt lat="47.15282" lon="-1.30878">
        <ele>35.3</ele>
        <time>2019-10-11T12:02:34Z</time>
      </trkpt>
      <trkpt lat="47.15283" lon="-1.30885">
        <ele>35.2</ele>
        <time>2019-10-11T12:02:35Z</time>
      </trkpt>
      <trkpt lat="47.15283" lon="-1.30893">
        <ele>35.2</ele>
        <time>2019-10-11T12:02:36Z</time>
      </trkpt>
      <trkpt lat="47.15283" lon="-1.30901">
        <ele>35.2</ele>
        <time>2019-10-11T12:02:37Z</time>
      </trkpt>
      <trkpt lat="47.15283" lon="-1.30908">
        <ele>35.2</ele>
        <time>2019-10-11T12:02:38Z</time>
      </trkpt>
      <trkpt lat="47.15283" lon="-1.30915">
        <ele>35.2</ele>
        <time>2019-10-11T12:02:39Z</time>
      </trkpt>
      <trkpt lat="47.15283" lon="-1.30923">
        <ele>35.2</ele>
        <time>2019-10-11T12:02:40Z</time>
      </trkpt>
      <trkpt lat="47.15283" lon="-1.3093">
        <ele>35.2</ele>
        <time>2019-10-11T12:02:41Z</time>
      </trkpt>
      <trkpt lat="47.15283" lon="-1.30938">
        <ele>35.2</ele>
        <time>2019-10-11T12:02:42Z</time>
      </trkpt>
      <trkpt lat="47.15283" lon="-1.30945">
        <ele>35.2</ele>
        <time>2019-10-11T12:02:43Z</time>
      </trkpt>
      <trkpt lat="47.15283" lon="-1.30952">
        <ele>35.2</ele>
        <time>2019-10-11T12:02:44Z</time>
      </trkpt>
      <trkpt lat="47.15283" lon="-1.30959">
        <ele>35.3</ele>
        <time>2019-10-11T12:02:45Z</time>
      </trkpt>
      <trkpt lat="47.15283" lon="-1.30967">
        <ele>35.3</ele>
        <time>2019-10-11T12:02:46Z</time>
      </trkpt>
      <trkpt lat="47.15283" lon="-1.30974">
        <ele>35.3</ele>
        <time>2019-10-11T12:02:47Z</time>
      </trkpt>
      <trkpt lat="47.15283" lon="-1.30982">
        <ele>35.3</ele>
        <time>2019-10-11T12:02:48Z</time>
      </trkpt>
      <trkpt lat="47.15281" lon="-1.30989">
        <ele>35.4</ele>
        <time>2019-10-11T12:02:49Z</time>
      </trkpt>
      <trkpt lat="47.15279" lon="-1.30996">
        <ele>35.6</ele>
        <time>2019-10-11T12:02:50Z</time>
      </trkpt>
      <trkpt lat="47.15276" lon="-1.31003">
        <ele>35.7</ele>
        <time>2019-10-11T12:02:51Z</time>
      </trkpt>
      <trkpt lat="47.15274" lon="-1.31009">
        <ele>35.8</ele>
        <time>2019-10-11T12:02:52Z</time>
      </trkpt>
      <trkpt lat="47.1527" lon="-1.31015">
        <ele>35.9</ele>
        <time>2019-10-11T12:02:53Z</time>
      </trkpt>
      <trkpt lat="47.15267" lon="-1.3102">
        <ele>36</ele>
        <time>2019-10-11T12:02:54Z</time>
      </trkpt>
      <trkpt lat="47.15264" lon="-1.31026">
        <ele>36.2</ele>
        <time>2019-10-11T12:02:55Z</time>
      </trkpt>
      <trkpt lat="47.15261" lon="-1.31031">
        <ele>36.3</ele>
        <time>2019-10-11T12:02:56Z</time>
      </trkpt>
      <trkpt lat="47.15259" lon="-1.31036">
        <ele>36.4</ele>
        <time>2019-10-11T12:02:57Z</time>
      </trkpt>
      <trkpt lat="47.15256" lon="-1.31042">
        <ele>36.5</ele>
        <time>2019-10-11T12:02:58Z</time>
      </trkpt>
      <trkpt lat="47.15254" lon="-1.31047">
        <ele>36.6</ele>
        <time>2019-10-11T12:02:59Z</time>
      </trkpt>
      <trkpt lat="47.15251" lon="-1.31053">
        <ele>36.7</ele>
        <time>2019-10-11T12:03:00Z</time>
      </trkpt>
      <trkpt lat="47.15248" lon="-1.31058">
        <ele>36.8</ele>
        <time>2019-10-11T12:03:01Z</time>
      </trkpt>
      <trkpt lat="47.15246" lon="-1.31063">
        <ele>36.9</ele>
        <time>2019-10-11T12:03:02Z</time>
      </trkpt>
      <trkpt lat="47.15243" lon="-1.31069">
        <ele>37</ele>
        <time>2019-10-11T12:03:03Z</time>
      </trkpt>
      <trkpt lat="47.1524" lon="-1.31074">
        <ele>37</ele>
        <time>2019-10-11T12:03:04Z</time>
      </trkpt>
      <trkpt lat="47.15238" lon="-1.3108">
        <ele>37.1</ele>
        <time>2019-10-11T12:03:05Z</time>
      </trkpt>
      <trkpt lat="47.15236" lon="-1.31086">
        <ele>37.2</ele>
        <time>2019-10-11T12:03:06Z</time>
      </trkpt>
      <trkpt lat="47.15234" lon="-1.31092">
        <ele>37.2</ele>
        <time>2019-10-11T12:03:07Z</time>
      </trkpt>
      <trkpt lat="47.15232" lon="-1.31099">
        <ele>37.2</ele>
        <time>2019-10-11T12:03:08Z</time>
      </trkpt>
      <trkpt lat="47.1523" lon="-1.31105">
        <ele>37.3</ele>
        <time>2019-10-11T12:03:09Z</time>
      </trkpt>
      <trkpt lat="47.15228" lon="-1.31112">
        <ele>37.3</ele>
        <time>2019-10-11T12:03:10Z</time>
      </trkpt>
      <trkpt lat="47.15226" lon="-1.31118">
        <ele>37.3</ele>
        <time>2019-10-11T12:03:11Z</time>
      </trkpt>
      <trkpt lat="47.15224" lon="-1.31124">
        <ele>37.3</ele>
        <time>2019-10-11T12:03:12Z</time>
      </trkpt>
      <trkpt lat="47.15222" lon="-1.31131">
        <ele>37.3</ele>
        <time>2019-10-11T12:03:13Z</time>
      </trkpt>
      <trkpt lat="47.15221" lon="-1.31137">
        <ele>37.3</ele>
        <time>2019-10-11T12:03:14Z</time>
      </trkpt>
      <trkpt lat="47.15218" lon="-1.31143">
        <ele>37.3</ele>
        <time>2019-10-11T12:03:15Z</time>
      </trkpt>
      <trkpt lat="47.15216" lon="-1.3115">
        <ele>37.3</ele>
        <time>2019-10-11T12:03:16Z</time>
      </trkpt>
      <trkpt lat="47.15214" lon="-1.31157">
        <ele>37.3</ele>
        <time>2019-10-11T12:03:17Z</time>
      </trkpt>
      <trkpt lat="47.15212" lon="-1.31163">
        <ele>37.3</ele>
        <time>2019-10-11T12:03:18Z</time>
      </trkpt>
      <trkpt lat="47.1521" lon="-1.3117">
        <ele>37.3</ele>
        <time>2019-10-11T12:03:19Z</time>
      </trkpt>
      <trkpt lat="47.15208" lon="-1.31177">
        <ele>37.3</ele>
        <time>2019-10-11T12:03:20Z</time>
      </trkpt>
      <trkpt lat="47.15205" lon="-1.31182">
        <ele>37.3</ele>
        <time>2019-10-11T12:03:21Z</time>
      </trkpt>
      <trkpt lat="47.152" lon="-1.31187">
        <ele>37.3</ele>
        <time>2019-10-11T12:03:22Z</time>
      </trkpt>
      <trkpt lat="47.15196" lon="-1.3119">
        <ele>37.6</ele>
        <time>2019-10-11T12:03:23Z</time>
      </trkpt>
      <trkpt lat="47.15191" lon="-1.31193">
        <ele>37.8</ele>
        <time>2019-10-11T12:03:24Z</time>
      </trkpt>
      <trkpt lat="47.15186" lon="-1.31195">
        <ele>38</ele>
        <time>2019-10-11T12:03:25Z</time>
      </trkpt>
      <trkpt lat="47.15181" lon="-1.31197">
        <ele>38.2</ele>
        <time>2019-10-11T12:03:26Z</time>
      </trkpt>
      <trkpt lat="47.15176" lon="-1.312">
        <ele>38.1</ele>
        <time>2019-10-11T12:03:27Z</time>
      </trkpt>
      <trkpt lat="47.15172" lon="-1.31203">
        <ele>37.9</ele>
        <time>2019-10-11T12:03:28Z</time>
      </trkpt>
      <trkpt lat="47.15168" lon="-1.31205">
        <ele>37.8</ele>
        <time>2019-10-11T12:03:29Z</time>
      </trkpt>
      <trkpt lat="47.15164" lon="-1.3121">
        <ele>37.7</ele>
        <time>2019-10-11T12:03:30Z</time>
      </trkpt>
      <trkpt lat="47.15161" lon="-1.31216">
        <ele>37.6</ele>
        <time>2019-10-11T12:03:31Z</time>
      </trkpt>
      <trkpt lat="47.15158" lon="-1.31222">
        <ele>37.5</ele>
        <time>2019-10-11T12:03:32Z</time>
      </trkpt>
      <trkpt lat="47.15155" lon="-1.31229">
        <ele>37.5</ele>
        <time>2019-10-11T12:03:33Z</time>
      </trkpt>
      <trkpt lat="47.15152" lon="-1.31236">
        <ele>37.4</ele>
        <time>2019-10-11T12:03:34Z</time>
      </trkpt>
      <trkpt lat="47.1515" lon="-1.31242">
        <ele>37.4</ele>
        <time>2019-10-11T12:03:35Z</time>
      </trkpt>
      <trkpt lat="47.15147" lon="-1.31249">
        <ele>37.3</ele>
        <time>2019-10-11T12:03:36Z</time>
      </trkpt>
      <trkpt lat="47.15144" lon="-1.31256">
        <ele>37.3</ele>
        <time>2019-10-11T12:03:37Z</time>
      </trkpt>
      <trkpt lat="47.15141" lon="-1.31262">
        <ele>37.3</ele>
        <time>2019-10-11T12:03:38Z</time>
      </trkpt>
      <trkpt lat="47.15138" lon="-1.31268">
        <ele>37.3</ele>
        <time>2019-10-11T12:03:39Z</time>
      </trkpt>
      <trkpt lat="47.15135" lon="-1.31274">
        <ele>37.2</ele>
        <time>2019-10-11T12:03:40Z</time>
      </trkpt>
      <trkpt lat="47.15132" lon="-1.3128">
        <ele>37.2</ele>
        <time>2019-10-11T12:03:41Z</time>
      </trkpt>
      <trkpt lat="47.15129" lon="-1.31285">
        <ele>37.2</ele>
        <time>2019-10-11T12:03:42Z</time>
      </trkpt>
      <trkpt lat="47.15127" lon="-1.3129">
        <ele>37.2</ele>
        <time>2019-10-11T12:03:43Z</time>
      </trkpt>
      <trkpt lat="47.15127" lon="-1.31296">
        <ele>37.2</ele>
        <time>2019-10-11T12:03:44Z</time>
      </trkpt>
      <trkpt lat="47.15128" lon="-1.31302">
        <ele>37.2</ele>
        <time>2019-10-11T12:03:45Z</time>
      </trkpt>
      <trkpt lat="47.15131" lon="-1.31307">
        <ele>37.2</ele>
        <time>2019-10-11T12:03:46Z</time>
      </trkpt>
      <trkpt lat="47.15134" lon="-1.31311">
        <ele>37.3</ele>
        <time>2019-10-11T12:03:47Z</time>
      </trkpt>
      <trkpt lat="47.15138" lon="-1.31315">
        <ele>37.3</ele>
        <time>2019-10-11T12:03:48Z</time>
      </trkpt>
      <trkpt lat="47.15141" lon="-1.31319">
        <ele>37.3</ele>
        <time>2019-10-11T12:03:49Z</time>
      </trkpt>
      <trkpt lat="47.15145" lon="-1.31323">
        <ele>37.2</ele>
        <time>2019-10-11T12:03:50Z</time>
      </trkpt>
      <trkpt lat="47.15149" lon="-1.31327">
        <ele>37.2</ele>
        <time>2019-10-11T12:03:51Z</time>
      </trkpt>
      <trkpt lat="47.15153" lon="-1.3133">
        <ele>37.1</ele>
        <time>2019-10-11T12:03:52Z</time>
      </trkpt>
      <trkpt lat="47.15156" lon="-1.31335">
        <ele>36.9</ele>
        <time>2019-10-11T12:03:53Z</time>
      </trkpt>
      <trkpt lat="47.15159" lon="-1.3134">
        <ele>36.8</ele>
        <time>2019-10-11T12:03:54Z</time>
      </trkpt>
      <trkpt lat="47.1516" lon="-1.31346">
        <ele>36.6</ele>
        <time>2019-10-11T12:03:55Z</time>
      </trkpt>
      <trkpt lat="47.15159" lon="-1.31353">
        <ele>36.4</ele>
        <time>2019-10-11T12:03:56Z</time>
      </trkpt>
      <trkpt lat="47.15156" lon="-1.31359">
        <ele>36.3</ele>
        <time>2019-10-11T12:03:57Z</time>
      </trkpt>
      <trkpt lat="47.15153" lon="-1.31364">
        <ele>36.3</ele>
        <time>2019-10-11T12:03:58Z</time>
      </trkpt>
      <trkpt lat="47.15149" lon="-1.3137">
        <ele>36.2</ele>
        <time>2019-10-11T12:03:59Z</time>
      </trkpt>
      <trkpt lat="47.15146" lon="-1.31375">
        <ele>36.2</ele>
        <time>2019-10-11T12:04:00Z</time>
      </trkpt>
      <trkpt lat="47.15143" lon="-1.31381">
        <ele>36.1</ele>
        <time>2019-10-11T12:04:01Z</time>
      </trkpt>
      <trkpt lat="47.1514" lon="-1.31387">
        <ele>36.1</ele>
        <time>2019-10-11T12:04:02Z</time>
      </trkpt>
      <trkpt lat="47.15137" lon="-1.31392">
        <ele>36</ele>
        <time>2019-10-11T12:04:03Z</time>
      </trkpt>
      <trkpt lat="47.15133" lon="-1.31397">
        <ele>36</ele>
        <time>2019-10-11T12:04:04Z</time>
      </trkpt>
      <trkpt lat="47.1513" lon="-1.31402">
        <ele>36</ele>
        <time>2019-10-11T12:04:05Z</time>
      </trkpt>
      <trkpt lat="47.15127" lon="-1.31407">
        <ele>36.1</ele>
        <time>2019-10-11T12:04:06Z</time>
      </trkpt>
      <trkpt lat="47.15124" lon="-1.31413">
        <ele>36.1</ele>
        <time>2019-10-11T12:04:07Z</time>
      </trkpt>
      <trkpt lat="47.15121" lon="-1.31418">
        <ele>36.2</ele>
        <time>2019-10-11T12:04:08Z</time>
      </trkpt>
      <trkpt lat="47.15117" lon="-1.31423">
        <ele>36.2</ele>
        <time>2019-10-11T12:04:09Z</time>
      </trkpt>
      <trkpt lat="47.15114" lon="-1.31429">
        <ele>36.3</ele>
        <time>2019-10-11T12:04:10Z</time>
      </trkpt>
      <trkpt lat="47.15111" lon="-1.31434">
        <ele>36.3</ele>
        <time>2019-10-11T12:04:11Z</time>
      </trkpt>
      <trkpt lat="47.15107" lon="-1.31439">
        <ele>36.4</ele>
        <time>2019-10-11T12:04:12Z</time>
      </trkpt>
      <trkpt lat="47.15104" lon="-1.31445">
        <ele>36.4</ele>
        <time>2019-10-11T12:04:13Z</time>
      </trkpt>
      <trkpt lat="47.15101" lon="-1.3145">
        <ele>36.5</ele>
        <time>2019-10-11T12:04:14Z</time>
      </trkpt>
      <trkpt lat="47.15098" lon="-1.31455">
        <ele>36.5</ele>
        <time>2019-10-11T12:04:15Z</time>
      </trkpt>
      <trkpt lat="47.15094" lon="-1.31461">
        <ele>36.6</ele>
        <time>2019-10-11T12:04:16Z</time>
      </trkpt>
      <trkpt lat="47.1509" lon="-1.31466">
        <ele>36.7</ele>
        <time>2019-10-11T12:04:17Z</time>
      </trkpt>
      <trkpt lat="47.15087" lon="-1.31471">
        <ele>36.7</ele>
        <time>2019-10-11T12:04:18Z</time>
      </trkpt>
      <trkpt lat="47.15083" lon="-1.31477">
        <ele>36.8</ele>
        <time>2019-10-11T12:04:19Z</time>
      </trkpt>
      <trkpt lat="47.1508" lon="-1.31483">
        <ele>36.8</ele>
        <time>2019-10-11T12:04:20Z</time>
      </trkpt>
      <trkpt lat="47.15076" lon="-1.31488">
        <ele>36.9</ele>
        <time>2019-10-11T12:04:21Z</time>
      </trkpt>
      <trkpt lat="47.15073" lon="-1.31494">
        <ele>36.9</ele>
        <time>2019-10-11T12:04:22Z</time>
      </trkpt>
      <trkpt lat="47.15069" lon="-1.315">
        <ele>36.9</ele>
        <time>2019-10-11T12:04:23Z</time>
      </trkpt>
      <trkpt lat="47.15065" lon="-1.31505">
        <ele>36.9</ele>
        <time>2019-10-11T12:04:24Z</time>
      </trkpt>
      <trkpt lat="47.15061" lon="-1.31511">
        <ele>36.9</ele>
        <time>2019-10-11T12:04:25Z</time>
      </trkpt>
      <trkpt lat="47.15057" lon="-1.31516">
        <ele>36.9</ele>
        <time>2019-10-11T12:04:26Z</time>
      </trkpt>
      <trkpt lat="47.15053" lon="-1.31522">
        <ele>36.9</ele>
        <time>2019-10-11T12:04:27Z</time>
      </trkpt>
      <trkpt lat="47.15049" lon="-1.31528">
        <ele>36.8</ele>
        <time>2019-10-11T12:04:28Z</time>
      </trkpt>
      <trkpt lat="47.15046" lon="-1.31533">
        <ele>36.8</ele>
        <time>2019-10-11T12:04:29Z</time>
      </trkpt>
      <trkpt lat="47.15042" lon="-1.31539">
        <ele>36.7</ele>
        <time>2019-10-11T12:04:30Z</time>
      </trkpt>
      <trkpt lat="47.15038" lon="-1.31545">
        <ele>36.7</ele>
        <time>2019-10-11T12:04:31Z</time>
      </trkpt>
      <trkpt lat="47.15034" lon="-1.31551">
        <ele>36.6</ele>
        <time>2019-10-11T12:04:32Z</time>
      </trkpt>
      <trkpt lat="47.1503" lon="-1.31556">
        <ele>36.6</ele>
        <time>2019-10-11T12:04:33Z</time>
      </trkpt>
      <trkpt lat="47.15026" lon="-1.31562">
        <ele>36.5</ele>
        <time>2019-10-11T12:04:34Z</time>
      </trkpt>
      <trkpt lat="47.15022" lon="-1.31568">
        <ele>36.5</ele>
        <time>2019-10-11T12:04:35Z</time>
      </trkpt>
      <trkpt lat="47.15018" lon="-1.31574">
        <ele>36.4</ele>
        <time>2019-10-11T12:04:36Z</time>
      </trkpt>
      <trkpt lat="47.15014" lon="-1.3158">
        <ele>36.3</ele>
        <time>2019-10-11T12:04:37Z</time>
      </trkpt>
      <trkpt lat="47.1501" lon="-1.31586">
        <ele>36.2</ele>
        <time>2019-10-11T12:04:38Z</time>
      </trkpt>
      <trkpt lat="47.15006" lon="-1.31592">
        <ele>36.1</ele>
        <time>2019-10-11T12:04:39Z</time>
      </trkpt>
      <trkpt lat="47.15002" lon="-1.31599">
        <ele>35.9</ele>
        <time>2019-10-11T12:04:40Z</time>
      </trkpt>
      <trkpt lat="47.14998" lon="-1.31605">
        <ele>35.8</ele>
        <time>2019-10-11T12:04:41Z</time>
      </trkpt>
      <trkpt lat="47.14994" lon="-1.31611">
        <ele>35.7</ele>
        <time>2019-10-11T12:04:42Z</time>
      </trkpt>
      <trkpt lat="47.1499" lon="-1.31617">
        <ele>35.6</ele>
        <time>2019-10-11T12:04:43Z</time>
      </trkpt>
      <trkpt lat="47.14986" lon="-1.31623">
        <ele>35.4</ele>
        <time>2019-10-11T12:04:44Z</time>
      </trkpt>
      <trkpt lat="47.14982" lon="-1.31629">
        <ele>35.2</ele>
        <time>2019-10-11T12:04:45Z</time>
      </trkpt>
      <trkpt lat="47.14978" lon="-1.31635">
        <ele>34.9</ele>
        <time>2019-10-11T12:04:46Z</time>
      </trkpt>
      <trkpt lat="47.14974" lon="-1.31641">
        <ele>34.8</ele>
        <time>2019-10-11T12:04:47Z</time>
      </trkpt>
      <trkpt lat="47.1497" lon="-1.31646">
        <ele>34.6</ele>
        <time>2019-10-11T12:04:48Z</time>
      </trkpt>
      <trkpt lat="47.14965" lon="-1.3165">
        <ele>34.5</ele>
        <time>2019-10-11T12:04:49Z</time>
      </trkpt>
      <trkpt lat="47.1496" lon="-1.31652">
        <ele>34.3</ele>
        <time>2019-10-11T12:04:50Z</time>
      </trkpt>
      <trkpt lat="47.14954" lon="-1.31652">
        <ele>34.2</ele>
        <time>2019-10-11T12:04:51Z</time>
      </trkpt>
      <trkpt lat="47.14948" lon="-1.3165">
        <ele>34.1</ele>
        <time>2019-10-11T12:04:52Z</time>
      </trkpt>
      <trkpt lat="47.14942" lon="-1.31647">
        <ele>33.9</ele>
        <time>2019-10-11T12:04:53Z</time>
      </trkpt>
      <trkpt lat="47.14937" lon="-1.31643">
        <ele>33.8</ele>
        <time>2019-10-11T12:04:54Z</time>
      </trkpt>
      <trkpt lat="47.14932" lon="-1.31638">
        <ele>33.7</ele>
        <time>2019-10-11T12:04:55Z</time>
      </trkpt>
      <trkpt lat="47.14928" lon="-1.31633">
        <ele>33.6</ele>
        <time>2019-10-11T12:04:56Z</time>
      </trkpt>
      <trkpt lat="47.14924" lon="-1.31628">
        <ele>33.5</ele>
        <time>2019-10-11T12:04:57Z</time>
      </trkpt>
      <trkpt lat="47.14919" lon="-1.31623">
        <ele>33.4</ele>
        <time>2019-10-11T12:04:58Z</time>
      </trkpt>
      <trkpt lat="47.14915" lon="-1.31618">
        <ele>33.3</ele>
        <time>2019-10-11T12:04:59Z</time>
      </trkpt>
      <trkpt lat="47.14911" lon="-1.31612">
        <ele>33.3</ele>
        <time>2019-10-11T12:05:00Z</time>
      </trkpt>
      <trkpt lat="47.14906" lon="-1.31606">
        <ele>33.2</ele>
        <time>2019-10-11T12:05:01Z</time>
      </trkpt>
      <trkpt lat="47.14902" lon="-1.316">
        <ele>33.2</ele>
        <time>2019-10-11T12:05:02Z</time>
      </trkpt>
      <trkpt lat="47.14898" lon="-1.31594">
        <ele>33.1</ele>
        <time>2019-10-11T12:05:03Z</time>
      </trkpt>
      <trkpt lat="47.14893" lon="-1.31588">
        <ele>33</ele>
        <time>2019-10-11T12:05:04Z</time>
      </trkpt>
      <trkpt lat="47.14889" lon="-1.31582">
        <ele>33</ele>
        <time>2019-10-11T12:05:05Z</time>
      </trkpt>
      <trkpt lat="47.14885" lon="-1.31576">
        <ele>32.9</ele>
        <time>2019-10-11T12:05:06Z</time>
      </trkpt>
      <trkpt lat="47.14881" lon="-1.31571">
        <ele>32.9</ele>
        <time>2019-10-11T12:05:07Z</time>
      </trkpt>
      <trkpt lat="47.14877" lon="-1.31565">
        <ele>32.8</ele>
        <time>2019-10-11T12:05:08Z</time>
      </trkpt>
      <trkpt lat="47.14872" lon="-1.31559">
        <ele>32.7</ele>
        <time>2019-10-11T12:05:09Z</time>
      </trkpt>
      <trkpt lat="47.14868" lon="-1.31554">
        <ele>32.7</ele>
        <time>2019-10-11T12:05:10Z</time>
      </trkpt>
      <trkpt lat="47.14864" lon="-1.31549">
        <ele>32.7</ele>
        <time>2019-10-11T12:05:11Z</time>
      </trkpt>
      <trkpt lat="47.1486" lon="-1.31543">
        <ele>32.6</ele>
        <time>2019-10-11T12:05:12Z</time>
      </trkpt>
      <trkpt lat="47.14856" lon="-1.31537">
        <ele>32.6</ele>
        <time>2019-10-11T12:05:13Z</time>
      </trkpt>
      <trkpt lat="47.14852" lon="-1.31531">
        <ele>32.6</ele>
        <time>2019-10-11T12:05:14Z</time>
      </trkpt>
      <trkpt lat="47.14848" lon="-1.31526">
        <ele>32.6</ele>
        <time>2019-10-11T12:05:15Z</time>
      </trkpt>
      <trkpt lat="47.14844" lon="-1.31521">
        <ele>32.6</ele>
        <time>2019-10-11T12:05:16Z</time>
      </trkpt>
      <trkpt lat="47.1484" lon="-1.31516">
        <ele>32.6</ele>
        <time>2019-10-11T12:05:17Z</time>
      </trkpt>
      <trkpt lat="47.14835" lon="-1.31512">
        <ele>32.5</ele>
        <time>2019-10-11T12:05:18Z</time>
      </trkpt>
      <trkpt lat="47.14831" lon="-1.3151">
        <ele>32.5</ele>
        <time>2019-10-11T12:05:19Z</time>
      </trkpt>
      <trkpt lat="47.14826" lon="-1.31511">
        <ele>32.5</ele>
        <time>2019-10-11T12:05:20Z</time>
      </trkpt>
      <trkpt lat="47.14821" lon="-1.31513">
        <ele>32.5</ele>
        <time>2019-10-11T12:05:21Z</time>
      </trkpt>
      <trkpt lat="47.14817" lon="-1.31517">
        <ele>32.5</ele>
        <time>2019-10-11T12:05:22Z</time>
      </trkpt>
      <trkpt lat="47.14813" lon="-1.31523">
        <ele>32.5</ele>
        <time>2019-10-11T12:05:23Z</time>
      </trkpt>
      <trkpt lat="47.14809" lon="-1.31527">
        <ele>32.5</ele>
        <time>2019-10-11T12:05:24Z</time>
      </trkpt>
      <trkpt lat="47.14805" lon="-1.31533">
        <ele>32.5</ele>
        <time>2019-10-11T12:05:25Z</time>
      </trkpt>
      <trkpt lat="47.14801" lon="-1.31538">
        <ele>32.5</ele>
        <time>2019-10-11T12:05:26Z</time>
      </trkpt>
      <trkpt lat="47.14797" lon="-1.31543">
        <ele>32.5</ele>
        <time>2019-10-11T12:05:27Z</time>
      </trkpt>
      <trkpt lat="47.14793" lon="-1.31548">
        <ele>32.4</ele>
        <time>2019-10-11T12:05:28Z</time>
      </trkpt>
      <trkpt lat="47.14789" lon="-1.31554">
        <ele>32.3</ele>
        <time>2019-10-11T12:05:29Z</time>
      </trkpt>
      <trkpt lat="47.14785" lon="-1.31559">
        <ele>32.3</ele>
        <time>2019-10-11T12:05:30Z</time>
      </trkpt>
      <trkpt lat="47.14781" lon="-1.31564">
        <ele>32.2</ele>
        <time>2019-10-11T12:05:31Z</time>
      </trkpt>
      <trkpt lat="47.14776" lon="-1.31569">
        <ele>32.1</ele>
        <time>2019-10-11T12:05:32Z</time>
      </trkpt>
      <trkpt lat="47.14772" lon="-1.31574">
        <ele>32.1</ele>
        <time>2019-10-11T12:05:33Z</time>
      </trkpt>
      <trkpt lat="47.14768" lon="-1.31579">
        <ele>32</ele>
        <time>2019-10-11T12:05:34Z</time>
      </trkpt>
      <trkpt lat="47.14764" lon="-1.31584">
        <ele>31.9</ele>
        <time>2019-10-11T12:05:35Z</time>
      </trkpt>
      <trkpt lat="47.1476" lon="-1.3159">
        <ele>31.8</ele>
        <time>2019-10-11T12:05:36Z</time>
      </trkpt>
      <trkpt lat="47.14756" lon="-1.31594">
        <ele>31.7</ele>
        <time>2019-10-11T12:05:37Z</time>
      </trkpt>
      <trkpt lat="47.14751" lon="-1.31599">
        <ele>31.6</ele>
        <time>2019-10-11T12:05:38Z</time>
      </trkpt>
      <trkpt lat="47.14747" lon="-1.31604">
        <ele>31.5</ele>
        <time>2019-10-11T12:05:39Z</time>
      </trkpt>
      <trkpt lat="47.14743" lon="-1.31609">
        <ele>31.5</ele>
        <time>2019-10-11T12:05:40Z</time>
      </trkpt>
      <trkpt lat="47.14738" lon="-1.31615">
        <ele>31.5</ele>
        <time>2019-10-11T12:05:41Z</time>
      </trkpt>
      <trkpt lat="47.14734" lon="-1.3162">
        <ele>31.5</ele>
        <time>2019-10-11T12:05:42Z</time>
      </trkpt>
      <trkpt lat="47.1473" lon="-1.31626">
        <ele>31.4</ele>
        <time>2019-10-11T12:05:43Z</time>
      </trkpt>
      <trkpt lat="47.14725" lon="-1.31631">
        <ele>31.4</ele>
        <time>2019-10-11T12:05:44Z</time>
      </trkpt>
      <trkpt lat="47.1472" lon="-1.31637">
        <ele>31.4</ele>
        <time>2019-10-11T12:05:45Z</time>
      </trkpt>
      <trkpt lat="47.14716" lon="-1.31642">
        <ele>31.4</ele>
        <time>2019-10-11T12:05:46Z</time>
      </trkpt>
      <trkpt lat="47.14711" lon="-1.31646">
        <ele>31.4</ele>
        <time>2019-10-11T12:05:47Z</time>
      </trkpt>
      <trkpt lat="47.14706" lon="-1.31651">
        <ele>31.4</ele>
        <time>2019-10-11T12:05:48Z</time>
      </trkpt>
      <trkpt lat="47.147" lon="-1.31656">
        <ele>31.4</ele>
        <time>2019-10-11T12:05:49Z</time>
      </trkpt>
      <trkpt lat="47.14695" lon="-1.31661">
        <ele>31.4</ele>
        <time>2019-10-11T12:05:50Z</time>
      </trkpt>
      <trkpt lat="47.14691" lon="-1.31665">
        <ele>31.4</ele>
        <time>2019-10-11T12:05:51Z</time>
      </trkpt>
      <trkpt lat="47.14686" lon="-1.31669">
        <ele>31.4</ele>
        <time>2019-10-11T12:05:52Z</time>
      </trkpt>
      <trkpt lat="47.14682" lon="-1.31673">
        <ele>31.4</ele>
        <time>2019-10-11T12:05:53Z</time>
      </trkpt>
      <trkpt lat="47.14677" lon="-1.31677">
        <ele>31.4</ele>
        <time>2019-10-11T12:05:54Z</time>
      </trkpt>
      <trkpt lat="47.14673" lon="-1.31683">
        <ele>31.3</ele>
        <time>2019-10-11T12:05:55Z</time>
      </trkpt>
      <trkpt lat="47.1467" lon="-1.31688">
        <ele>31.3</ele>
        <time>2019-10-11T12:05:56Z</time>
      </trkpt>
      <trkpt lat="47.14667" lon="-1.31693">
        <ele>31.3</ele>
        <time>2019-10-11T12:05:57Z</time>
      </trkpt>
      <trkpt lat="47.14664" lon="-1.31699">
        <ele>31.3</ele>
        <time>2019-10-11T12:05:58Z</time>
      </trkpt>
      <trkpt lat="47.14661" lon="-1.31705">
        <ele>31.3</ele>
        <time>2019-10-11T12:05:59Z</time>
      </trkpt>
      <trkpt lat="47.14658" lon="-1.3171">
        <ele>31.3</ele>
        <time>2019-10-11T12:06:00Z</time>
      </trkpt>
      <trkpt lat="47.14655" lon="-1.31714">
        <ele>31.3</ele>
        <time>2019-10-11T12:06:01Z</time>
      </trkpt>
      <trkpt lat="47.14651" lon="-1.31718">
        <ele>31.3</ele>
        <time>2019-10-11T12:06:02Z</time>
      </trkpt>
      <trkpt lat="47.14647" lon="-1.3172">
        <ele>31.3</ele>
        <time>2019-10-11T12:06:03Z</time>
      </trkpt>
      <trkpt lat="47.14642" lon="-1.3172">
        <ele>31.4</ele>
        <time>2019-10-11T12:06:04Z</time>
      </trkpt>
      <trkpt lat="47.14638" lon="-1.31718">
        <ele>31.4</ele>
        <time>2019-10-11T12:06:05Z</time>
      </trkpt>
      <trkpt lat="47.14633" lon="-1.31716">
        <ele>31.4</ele>
        <time>2019-10-11T12:06:06Z</time>
      </trkpt>
      <trkpt lat="47.14629" lon="-1.31713">
        <ele>31.5</ele>
        <time>2019-10-11T12:06:07Z</time>
      </trkpt>
      <trkpt lat="47.14625" lon="-1.31709">
        <ele>31.5</ele>
        <time>2019-10-11T12:06:08Z</time>
      </trkpt>
      <trkpt lat="47.1462" lon="-1.31706">
        <ele>31.6</ele>
        <time>2019-10-11T12:06:09Z</time>
      </trkpt>
      <trkpt lat="47.14616" lon="-1.31702">
        <ele>31.6</ele>
        <time>2019-10-11T12:06:10Z</time>
      </trkpt>
      <trkpt lat="47.14612" lon="-1.31698">
        <ele>31.5</ele>
        <time>2019-10-11T12:06:11Z</time>
      </trkpt>
      <trkpt lat="47.14607" lon="-1.31694">
        <ele>31.5</ele>
        <time>2019-10-11T12:06:12Z</time>
      </trkpt>
      <trkpt lat="47.14603" lon="-1.3169">
        <ele>31.5</ele>
        <time>2019-10-11T12:06:13Z</time>
      </trkpt>
      <trkpt lat="47.14599" lon="-1.31686">
        <ele>31.5</ele>
        <time>2019-10-11T12:06:14Z</time>
      </trkpt>
      <trkpt lat="47.14595" lon="-1.31682">
        <ele>31.5</ele>
        <time>2019-10-11T12:06:15Z</time>
      </trkpt>
      <trkpt lat="47.1459" lon="-1.31679">
        <ele>31.5</ele>
        <time>2019-10-11T12:06:16Z</time>
      </trkpt>
      <trkpt lat="47.14586" lon="-1.31676">
        <ele>31.5</ele>
        <time>2019-10-11T12:06:17Z</time>
      </trkpt>
      <trkpt lat="47.14582" lon="-1.31673">
        <ele>31.5</ele>
        <time>2019-10-11T12:06:18Z</time>
      </trkpt>
      <trkpt lat="47.14578" lon="-1.3167">
        <ele>31.5</ele>
        <time>2019-10-11T12:06:19Z</time>
      </trkpt>
      <trkpt lat="47.14574" lon="-1.31668">
        <ele>31.5</ele>
        <time>2019-10-11T12:06:20Z</time>
      </trkpt>
      <trkpt lat="47.14571" lon="-1.31666">
        <ele>31.4</ele>
        <time>2019-10-11T12:06:21Z</time>
      </trkpt>
      <trkpt lat="47.14567" lon="-1.31664">
        <ele>31.4</ele>
        <time>2019-10-11T12:06:22Z</time>
      </trkpt>
      <trkpt lat="47.14563" lon="-1.31665">
        <ele>31.4</ele>
        <time>2019-10-11T12:06:23Z</time>
      </trkpt>
      <trkpt lat="47.1456" lon="-1.31667">
        <ele>31.4</ele>
        <time>2019-10-11T12:06:24Z</time>
      </trkpt>
      <trkpt lat="47.14558" lon="-1.31671">
        <ele>31.4</ele>
        <time>2019-10-11T12:06:25Z</time>
      </trkpt>
      <trkpt lat="47.14556" lon="-1.31676">
        <ele>31.4</ele>
        <time>2019-10-11T12:06:26Z</time>
      </trkpt>
      <trkpt lat="47.14555" lon="-1.31681">
        <ele>31.4</ele>
        <time>2019-10-11T12:06:27Z</time>
      </trkpt>
      <trkpt lat="47.14553" lon="-1.31687">
        <ele>31.5</ele>
        <time>2019-10-11T12:06:28Z</time>
      </trkpt>
      <trkpt lat="47.14552" lon="-1.31693">
        <ele>31.5</ele>
        <time>2019-10-11T12:06:29Z</time>
      </trkpt>
      <trkpt lat="47.14551" lon="-1.31699">
        <ele>31.5</ele>
        <time>2019-10-11T12:06:30Z</time>
      </trkpt>
      <trkpt lat="47.14549" lon="-1.31705">
        <ele>31.6</ele>
        <time>2019-10-11T12:06:31Z</time>
      </trkpt>
      <trkpt lat="47.14548" lon="-1.31712">
        <ele>31.6</ele>
        <time>2019-10-11T12:06:32Z</time>
      </trkpt>
      <trkpt lat="47.14546" lon="-1.31718">
        <ele>31.7</ele>
        <time>2019-10-11T12:06:33Z</time>
      </trkpt>
      <trkpt lat="47.14545" lon="-1.31725">
        <ele>31.8</ele>
        <time>2019-10-11T12:06:34Z</time>
      </trkpt>
      <trkpt lat="47.14543" lon="-1.31731">
        <ele>31.8</ele>
        <time>2019-10-11T12:06:35Z</time>
      </trkpt>
      <trkpt lat="47.14542" lon="-1.31738">
        <ele>31.9</ele>
        <time>2019-10-11T12:06:36Z</time>
      </trkpt>
      <trkpt lat="47.1454" lon="-1.31745">
        <ele>32</ele>
        <time>2019-10-11T12:06:37Z</time>
      </trkpt>
      <trkpt lat="47.14538" lon="-1.31752">
        <ele>32.1</ele>
        <time>2019-10-11T12:06:38Z</time>
      </trkpt>
      <trkpt lat="47.14537" lon="-1.31758">
        <ele>32.1</ele>
        <time>2019-10-11T12:06:39Z</time>
      </trkpt>
      <trkpt lat="47.14535" lon="-1.31765">
        <ele>32.2</ele>
        <time>2019-10-11T12:06:40Z</time>
      </trkpt>
      <trkpt lat="47.14534" lon="-1.31772">
        <ele>32.3</ele>
        <time>2019-10-11T12:06:41Z</time>
      </trkpt>
      <trkpt lat="47.14533" lon="-1.31779">
        <ele>32.3</ele>
        <time>2019-10-11T12:06:42Z</time>
      </trkpt>
      <trkpt lat="47.14532" lon="-1.31786">
        <ele>32.3</ele>
        <time>2019-10-11T12:06:43Z</time>
      </trkpt>
      <trkpt lat="47.1453" lon="-1.31793">
        <ele>32.4</ele>
        <time>2019-10-11T12:06:44Z</time>
      </trkpt>
      <trkpt lat="47.14529" lon="-1.318">
        <ele>32.4</ele>
        <time>2019-10-11T12:06:45Z</time>
      </trkpt>
      <trkpt lat="47.14528" lon="-1.31807">
        <ele>32.4</ele>
        <time>2019-10-11T12:06:46Z</time>
      </trkpt>
      <trkpt lat="47.14527" lon="-1.31814">
        <ele>32.5</ele>
        <time>2019-10-11T12:06:47Z</time>
      </trkpt>
      <trkpt lat="47.14526" lon="-1.31821">
        <ele>32.5</ele>
        <time>2019-10-11T12:06:48Z</time>
      </trkpt>
      <trkpt lat="47.14525" lon="-1.31828">
        <ele>32.5</ele>
        <time>2019-10-11T12:06:49Z</time>
      </trkpt>
      <trkpt lat="47.14523" lon="-1.31835">
        <ele>32.5</ele>
        <time>2019-10-11T12:06:50Z</time>
      </trkpt>
      <trkpt lat="47.14522" lon="-1.31842">
        <ele>32.5</ele>
        <time>2019-10-11T12:06:51Z</time>
      </trkpt>
      <trkpt lat="47.14521" lon="-1.31849">
        <ele>32.5</ele>
        <time>2019-10-11T12:06:52Z</time>
      </trkpt>
      <trkpt lat="47.14521" lon="-1.31856">
        <ele>32.5</ele>
        <time>2019-10-11T12:06:53Z</time>
      </trkpt>
      <trkpt lat="47.1452" lon="-1.31863">
        <ele>32.5</ele>
        <time>2019-10-11T12:06:54Z</time>
      </trkpt>
      <trkpt lat="47.14519" lon="-1.31871">
        <ele>32.5</ele>
        <time>2019-10-11T12:06:55Z</time>
      </trkpt>
      <trkpt lat="47.14518" lon="-1.31878">
        <ele>32.5</ele>
        <time>2019-10-11T12:06:56Z</time>
      </trkpt>
      <trkpt lat="47.14517" lon="-1.31886">
        <ele>32.5</ele>
        <time>2019-10-11T12:06:57Z</time>
      </trkpt>
      <trkpt lat="47.14517" lon="-1.31893">
        <ele>32.5</ele>
        <time>2019-10-11T12:06:58Z</time>
      </trkpt>
      <trkpt lat="47.14516" lon="-1.31901">
        <ele>32.6</ele>
        <time>2019-10-11T12:06:59Z</time>
      </trkpt>
      <trkpt lat="47.14515" lon="-1.31908">
        <ele>32.6</ele>
        <time>2019-10-11T12:07:00Z</time>
      </trkpt>
      <trkpt lat="47.14515" lon="-1.31915">
        <ele>32.6</ele>
        <time>2019-10-11T12:07:01Z</time>
      </trkpt>
      <trkpt lat="47.14514" lon="-1.31923">
        <ele>32.6</ele>
        <time>2019-10-11T12:07:02Z</time>
      </trkpt>
      <trkpt lat="47.14514" lon="-1.3193">
        <ele>32.6</ele>
        <time>2019-10-11T12:07:03Z</time>
      </trkpt>
      <trkpt lat="47.14513" lon="-1.31937">
        <ele>32.6</ele>
        <time>2019-10-11T12:07:04Z</time>
      </trkpt>
      <trkpt lat="47.14513" lon="-1.31944">
        <ele>32.6</ele>
        <time>2019-10-11T12:07:05Z</time>
      </trkpt>
      <trkpt lat="47.14512" lon="-1.31952">
        <ele>32.6</ele>
        <time>2019-10-11T12:07:06Z</time>
      </trkpt>
      <trkpt lat="47.14512" lon="-1.31959">
        <ele>32.6</ele>
        <time>2019-10-11T12:07:07Z</time>
      </trkpt>
      <trkpt lat="47.14511" lon="-1.31966">
        <ele>32.6</ele>
        <time>2019-10-11T12:07:08Z</time>
      </trkpt>
      <trkpt lat="47.14511" lon="-1.31974">
        <ele>32.6</ele>
        <time>2019-10-11T12:07:09Z</time>
      </trkpt>
      <trkpt lat="47.14511" lon="-1.31981">
        <ele>32.6</ele>
        <time>2019-10-11T12:07:10Z</time>
      </trkpt>
      <trkpt lat="47.1451" lon="-1.31988">
        <ele>32.6</ele>
        <time>2019-10-11T12:07:11Z</time>
      </trkpt>
      <trkpt lat="47.1451" lon="-1.31996">
        <ele>32.6</ele>
        <time>2019-10-11T12:07:12Z</time>
      </trkpt>
      <trkpt lat="47.14509" lon="-1.32003">
        <ele>32.6</ele>
        <time>2019-10-11T12:07:13Z</time>
      </trkpt>
      <trkpt lat="47.14509" lon="-1.3201">
        <ele>32.6</ele>
        <time>2019-10-11T12:07:14Z</time>
      </trkpt>
      <trkpt lat="47.14509" lon="-1.32017">
        <ele>32.6</ele>
        <time>2019-10-11T12:07:15Z</time>
      </trkpt>
      <trkpt lat="47.14509" lon="-1.32023">
        <ele>32.6</ele>
        <time>2019-10-11T12:07:16Z</time>
      </trkpt>
      <trkpt lat="47.14508" lon="-1.3203">
        <ele>32.6</ele>
        <time>2019-10-11T12:07:17Z</time>
      </trkpt>
      <trkpt lat="47.14508" lon="-1.32036">
        <ele>32.6</ele>
        <time>2019-10-11T12:07:18Z</time>
      </trkpt>
      <trkpt lat="47.14507" lon="-1.32042">
        <ele>32.6</ele>
        <time>2019-10-11T12:07:19Z</time>
      </trkpt>
      <trkpt lat="47.14506" lon="-1.32048">
        <ele>32.6</ele>
        <time>2019-10-11T12:07:20Z</time>
      </trkpt>
      <trkpt lat="47.14503" lon="-1.32052">
        <ele>32.6</ele>
        <time>2019-10-11T12:07:21Z</time>
      </trkpt>
      <trkpt lat="47.14501" lon="-1.32057">
        <ele>32.6</ele>
        <time>2019-10-11T12:07:22Z</time>
      </trkpt>
      <trkpt lat="47.14497" lon="-1.32059">
        <ele>32.6</ele>
        <time>2019-10-11T12:07:23Z</time>
      </trkpt>
      <trkpt lat="47.14493" lon="-1.3206">
        <ele>32.7</ele>
        <time>2019-10-11T12:07:24Z</time>
      </trkpt>
      <trkpt lat="47.14489" lon="-1.32061">
        <ele>32.7</ele>
        <time>2019-10-11T12:07:25Z</time>
      </trkpt>
      <trkpt lat="47.14485" lon="-1.32062">
        <ele>32.7</ele>
        <time>2019-10-11T12:07:26Z</time>
      </trkpt>
      <trkpt lat="47.14481" lon="-1.32063">
        <ele>32.7</ele>
        <time>2019-10-11T12:07:27Z</time>
      </trkpt>
      <trkpt lat="47.14477" lon="-1.32064">
        <ele>32.7</ele>
        <time>2019-10-11T12:07:28Z</time>
      </trkpt>
      <trkpt lat="47.14473" lon="-1.32065">
        <ele>32.7</ele>
        <time>2019-10-11T12:07:29Z</time>
      </trkpt>
      <trkpt lat="47.14469" lon="-1.32065">
        <ele>32.7</ele>
        <time>2019-10-11T12:07:30Z</time>
      </trkpt>
      <trkpt lat="47.14465" lon="-1.32066">
        <ele>32.7</ele>
        <time>2019-10-11T12:07:31Z</time>
      </trkpt>
      <trkpt lat="47.14461" lon="-1.32067">
        <ele>32.7</ele>
        <time>2019-10-11T12:07:32Z</time>
      </trkpt>
      <trkpt lat="47.14457" lon="-1.32068">
        <ele>32.7</ele>
        <time>2019-10-11T12:07:33Z</time>
      </trkpt>
      <trkpt lat="47.14453" lon="-1.32068">
        <ele>32.7</ele>
        <time>2019-10-11T12:07:34Z</time>
      </trkpt>
      <trkpt lat="47.14449" lon="-1.32069">
        <ele>32.7</ele>
        <time>2019-10-11T12:07:35Z</time>
      </trkpt>
      <trkpt lat="47.14445" lon="-1.32069">
        <ele>32.7</ele>
        <time>2019-10-11T12:07:36Z</time>
      </trkpt>
      <trkpt lat="47.14441" lon="-1.3207">
        <ele>32.7</ele>
        <time>2019-10-11T12:07:37Z</time>
      </trkpt>
      <trkpt lat="47.14437" lon="-1.32071">
        <ele>32.7</ele>
        <time>2019-10-11T12:07:38Z</time>
      </trkpt>
      <trkpt lat="47.14433" lon="-1.32072">
        <ele>32.6</ele>
        <time>2019-10-11T12:07:39Z</time>
      </trkpt>
      <trkpt lat="47.14429" lon="-1.32074">
        <ele>32.6</ele>
        <time>2019-10-11T12:07:40Z</time>
      </trkpt>
      <trkpt lat="47.14426" lon="-1.32075">
        <ele>32.6</ele>
        <time>2019-10-11T12:07:41Z</time>
      </trkpt>
      <trkpt lat="47.14421" lon="-1.32077">
        <ele>32.6</ele>
        <time>2019-10-11T12:07:42Z</time>
      </trkpt>
      <trkpt lat="47.14417" lon="-1.32078">
        <ele>32.6</ele>
        <time>2019-10-11T12:07:43Z</time>
      </trkpt>
      <trkpt lat="47.14413" lon="-1.32079">
        <ele>32.5</ele>
        <time>2019-10-11T12:07:44Z</time>
      </trkpt>
      <trkpt lat="47.14409" lon="-1.32081">
        <ele>32.5</ele>
        <time>2019-10-11T12:07:45Z</time>
      </trkpt>
      <trkpt lat="47.14405" lon="-1.32082">
        <ele>32.5</ele>
        <time>2019-10-11T12:07:46Z</time>
      </trkpt>
      <trkpt lat="47.144" lon="-1.32083">
        <ele>32.4</ele>
        <time>2019-10-11T12:07:47Z</time>
      </trkpt>
      <trkpt lat="47.14396" lon="-1.32084">
        <ele>32.4</ele>
        <time>2019-10-11T12:07:48Z</time>
      </trkpt>
      <trkpt lat="47.14392" lon="-1.32085">
        <ele>32.4</ele>
        <time>2019-10-11T12:07:49Z</time>
      </trkpt>
      <trkpt lat="47.14388" lon="-1.32086">
        <ele>32.3</ele>
        <time>2019-10-11T12:07:50Z</time>
      </trkpt>
      <trkpt lat="47.14383" lon="-1.32087">
        <ele>32.2</ele>
        <time>2019-10-11T12:07:51Z</time>
      </trkpt>
      <trkpt lat="47.14379" lon="-1.32088">
        <ele>32.2</ele>
        <time>2019-10-11T12:07:52Z</time>
      </trkpt>
      <trkpt lat="47.14376" lon="-1.32088">
        <ele>32.1</ele>
        <time>2019-10-11T12:07:53Z</time>
      </trkpt>
      <trkpt lat="47.14372" lon="-1.32089">
        <ele>32.1</ele>
        <time>2019-10-11T12:07:54Z</time>
      </trkpt>
      <trkpt lat="47.14368" lon="-1.3209">
        <ele>32.1</ele>
        <time>2019-10-11T12:07:55Z</time>
      </trkpt>
      <trkpt lat="47.14364" lon="-1.32091">
        <ele>32</ele>
        <time>2019-10-11T12:07:56Z</time>
      </trkpt>
      <trkpt lat="47.1436" lon="-1.32093">
        <ele>31.9</ele>
        <time>2019-10-11T12:07:57Z</time>
      </trkpt>
      <trkpt lat="47.14356" lon="-1.32095">
        <ele>31.9</ele>
        <time>2019-10-11T12:07:58Z</time>
      </trkpt>
      <trkpt lat="47.14353" lon="-1.32097">
        <ele>31.8</ele>
        <time>2019-10-11T12:07:59Z</time>
      </trkpt>
      <trkpt lat="47.14349" lon="-1.321">
        <ele>31.8</ele>
        <time>2019-10-11T12:08:00Z</time>
      </trkpt>
      <trkpt lat="47.14346" lon="-1.32103">
        <ele>31.7</ele>
        <time>2019-10-11T12:08:01Z</time>
      </trkpt>
      <trkpt lat="47.14342" lon="-1.32106">
        <ele>31.7</ele>
        <time>2019-10-11T12:08:02Z</time>
      </trkpt>
      <trkpt lat="47.14339" lon="-1.32108">
        <ele>31.6</ele>
        <time>2019-10-11T12:08:03Z</time>
      </trkpt>
      <trkpt lat="47.14336" lon="-1.3211">
        <ele>31.6</ele>
        <time>2019-10-11T12:08:04Z</time>
      </trkpt>
      <trkpt lat="47.14332" lon="-1.3211">
        <ele>31.5</ele>
        <time>2019-10-11T12:08:05Z</time>
      </trkpt>
      <trkpt lat="47.14328" lon="-1.32111">
        <ele>31.4</ele>
        <time>2019-10-11T12:08:06Z</time>
      </trkpt>
      <trkpt lat="47.14325" lon="-1.32111">
        <ele>31.4</ele>
        <time>2019-10-11T12:08:07Z</time>
      </trkpt>
      <trkpt lat="47.14322" lon="-1.3211">
        <ele>31.3</ele>
        <time>2019-10-11T12:08:08Z</time>
      </trkpt>
      <trkpt lat="47.14319" lon="-1.32109">
        <ele>31.3</ele>
        <time>2019-10-11T12:08:09Z</time>
      </trkpt>
      <trkpt lat="47.14315" lon="-1.32107">
        <ele>31.2</ele>
        <time>2019-10-11T12:08:10Z</time>
      </trkpt>
      <trkpt lat="47.14312" lon="-1.32105">
        <ele>31.2</ele>
        <time>2019-10-11T12:08:11Z</time>
      </trkpt>
      <trkpt lat="47.14309" lon="-1.32103">
        <ele>31.1</ele>
        <time>2019-10-11T12:08:12Z</time>
      </trkpt>
      <trkpt lat="47.14306" lon="-1.321">
        <ele>31.1</ele>
        <time>2019-10-11T12:08:13Z</time>
      </trkpt>
      <trkpt lat="47.14304" lon="-1.32097">
        <ele>31</ele>
        <time>2019-10-11T12:08:14Z</time>
      </trkpt>
      <trkpt lat="47.14301" lon="-1.32094">
        <ele>31</ele>
        <time>2019-10-11T12:08:15Z</time>
      </trkpt>
      <trkpt lat="47.14298" lon="-1.32092">
        <ele>30.9</ele>
        <time>2019-10-11T12:08:16Z</time>
      </trkpt>
      <trkpt lat="47.14295" lon="-1.32089">
        <ele>30.9</ele>
        <time>2019-10-11T12:08:17Z</time>
      </trkpt>
      <trkpt lat="47.14293" lon="-1.32086">
        <ele>30.9</ele>
        <time>2019-10-11T12:08:18Z</time>
      </trkpt>
      <trkpt lat="47.1429" lon="-1.32083">
        <ele>30.8</ele>
        <time>2019-10-11T12:08:19Z</time>
      </trkpt>
      <trkpt lat="47.14287" lon="-1.32081">
        <ele>30.8</ele>
        <time>2019-10-11T12:08:20Z</time>
      </trkpt>
      <trkpt lat="47.14284" lon="-1.32079">
        <ele>30.8</ele>
        <time>2019-10-11T12:08:21Z</time>
      </trkpt>
      <trkpt lat="47.1428" lon="-1.32077">
        <ele>30.7</ele>
        <time>2019-10-11T12:08:22Z</time>
      </trkpt>
      <trkpt lat="47.14277" lon="-1.32075">
        <ele>30.7</ele>
        <time>2019-10-11T12:08:23Z</time>
      </trkpt>
      <trkpt lat="47.14274" lon="-1.32074">
        <ele>30.7</ele>
        <time>2019-10-11T12:08:24Z</time>
      </trkpt>
      <trkpt lat="47.14271" lon="-1.32073">
        <ele>30.6</ele>
        <time>2019-10-11T12:08:25Z</time>
      </trkpt>
      <trkpt lat="47.14268" lon="-1.32073">
        <ele>30.5</ele>
        <time>2019-10-11T12:08:26Z</time>
      </trkpt>
      <trkpt lat="47.14264" lon="-1.32072">
        <ele>30.5</ele>
        <time>2019-10-11T12:08:27Z</time>
      </trkpt>
      <trkpt lat="47.14261" lon="-1.32071">
        <ele>30.5</ele>
        <time>2019-10-11T12:08:28Z</time>
      </trkpt>
      <trkpt lat="47.14258" lon="-1.32071">
        <ele>30.5</ele>
        <time>2019-10-11T12:08:29Z</time>
      </trkpt>
      <trkpt lat="47.14255" lon="-1.3207">
        <ele>30.4</ele>
        <time>2019-10-11T12:08:30Z</time>
      </trkpt>
      <trkpt lat="47.14249" lon="-1.32069">
        <ele>30.4</ele>
        <time>2019-10-11T12:08:32Z</time>
      </trkpt>
      <trkpt lat="47.14246" lon="-1.32067">
        <ele>30.4</ele>
        <time>2019-10-11T12:08:33Z</time>
      </trkpt>
      <trkpt lat="47.14243" lon="-1.32066">
        <ele>30.4</ele>
        <time>2019-10-11T12:08:34Z</time>
      </trkpt>
      <trkpt lat="47.1424" lon="-1.32064">
        <ele>30.4</ele>
        <time>2019-10-11T12:08:35Z</time>
      </trkpt>
      <trkpt lat="47.14237" lon="-1.32062">
        <ele>30.5</ele>
        <time>2019-10-11T12:08:36Z</time>
      </trkpt>
      <trkpt lat="47.14235" lon="-1.32058">
        <ele>30.5</ele>
        <time>2019-10-11T12:08:37Z</time>
      </trkpt>
      <trkpt lat="47.14233" lon="-1.32055">
        <ele>30.6</ele>
        <time>2019-10-11T12:08:38Z</time>
      </trkpt>
      <trkpt lat="47.1423" lon="-1.32051">
        <ele>30.6</ele>
        <time>2019-10-11T12:08:39Z</time>
      </trkpt>
      <trkpt lat="47.14228" lon="-1.32048">
        <ele>30.7</ele>
        <time>2019-10-11T12:08:40Z</time>
      </trkpt>
      <trkpt lat="47.14226" lon="-1.32044">
        <ele>30.8</ele>
        <time>2019-10-11T12:08:41Z</time>
      </trkpt>
      <trkpt lat="47.14223" lon="-1.32041">
        <ele>30.9</ele>
        <time>2019-10-11T12:08:42Z</time>
      </trkpt>
      <trkpt lat="47.14221" lon="-1.32038">
        <ele>30.9</ele>
        <time>2019-10-11T12:08:43Z</time>
      </trkpt>
      <trkpt lat="47.14219" lon="-1.32034">
        <ele>30.9</ele>
        <time>2019-10-11T12:08:44Z</time>
      </trkpt>
      <trkpt lat="47.14217" lon="-1.32031">
        <ele>31</ele>
        <time>2019-10-11T12:08:45Z</time>
      </trkpt>
      <trkpt lat="47.14215" lon="-1.32026">
        <ele>31.1</ele>
        <time>2019-10-11T12:08:46Z</time>
      </trkpt>
      <trkpt lat="47.14213" lon="-1.32023">
        <ele>31.2</ele>
        <time>2019-10-11T12:08:47Z</time>
      </trkpt>
      <trkpt lat="47.14211" lon="-1.32018">
        <ele>31.3</ele>
        <time>2019-10-11T12:08:48Z</time>
      </trkpt>
      <trkpt lat="47.14209" lon="-1.32013">
        <ele>31.4</ele>
        <time>2019-10-11T12:08:49Z</time>
      </trkpt>
      <trkpt lat="47.14207" lon="-1.32009">
        <ele>31.5</ele>
        <time>2019-10-11T12:08:50Z</time>
      </trkpt>
      <trkpt lat="47.14206" lon="-1.32004">
        <ele>31.5</ele>
        <time>2019-10-11T12:08:51Z</time>
      </trkpt>
      <trkpt lat="47.14205" lon="-1.32">
        <ele>31.6</ele>
        <time>2019-10-11T12:08:52Z</time>
      </trkpt>
      <trkpt lat="47.14203" lon="-1.31995">
        <ele>31.7</ele>
        <time>2019-10-11T12:08:53Z</time>
      </trkpt>
      <trkpt lat="47.14202" lon="-1.31991">
        <ele>31.8</ele>
        <time>2019-10-11T12:08:54Z</time>
      </trkpt>
      <trkpt lat="47.142" lon="-1.31986">
        <ele>31.9</ele>
        <time>2019-10-11T12:08:55Z</time>
      </trkpt>
      <trkpt lat="47.14199" lon="-1.31981">
        <ele>32</ele>
        <time>2019-10-11T12:08:56Z</time>
      </trkpt>
      <trkpt lat="47.14198" lon="-1.31976">
        <ele>32.1</ele>
        <time>2019-10-11T12:08:57Z</time>
      </trkpt>
      <trkpt lat="47.14197" lon="-1.31971">
        <ele>32.1</ele>
        <time>2019-10-11T12:08:58Z</time>
      </trkpt>
      <trkpt lat="47.14197" lon="-1.31966">
        <ele>32.2</ele>
        <time>2019-10-11T12:08:59Z</time>
      </trkpt>
      <trkpt lat="47.14196" lon="-1.31961">
        <ele>32.3</ele>
        <time>2019-10-11T12:09:00Z</time>
      </trkpt>
      <trkpt lat="47.14196" lon="-1.31957">
        <ele>32.4</ele>
        <time>2019-10-11T12:09:01Z</time>
      </trkpt>
      <trkpt lat="47.14195" lon="-1.31952">
        <ele>32.4</ele>
        <time>2019-10-11T12:09:02Z</time>
      </trkpt>
      <trkpt lat="47.14193" lon="-1.31949">
        <ele>32.5</ele>
        <time>2019-10-11T12:09:03Z</time>
      </trkpt>
      <trkpt lat="47.14188" lon="-1.31946">
        <ele>32.4</ele>
        <time>2019-10-11T12:09:05Z</time>
      </trkpt>
      <trkpt lat="47.14185" lon="-1.31946">
        <ele>32.4</ele>
        <time>2019-10-11T12:09:06Z</time>
      </trkpt>
      <trkpt lat="47.14182" lon="-1.31946">
        <ele>32.3</ele>
        <time>2019-10-11T12:09:07Z</time>
      </trkpt>
      <trkpt lat="47.14178" lon="-1.31946">
        <ele>32.3</ele>
        <time>2019-10-11T12:09:08Z</time>
      </trkpt>
      <trkpt lat="47.14175" lon="-1.31946">
        <ele>32.2</ele>
        <time>2019-10-11T12:09:09Z</time>
      </trkpt>
      <trkpt lat="47.14172" lon="-1.31946">
        <ele>32.2</ele>
        <time>2019-10-11T12:09:10Z</time>
      </trkpt>
      <trkpt lat="47.14169" lon="-1.31947">
        <ele>32.1</ele>
        <time>2019-10-11T12:09:11Z</time>
      </trkpt>
      <trkpt lat="47.14166" lon="-1.31947">
        <ele>32</ele>
        <time>2019-10-11T12:09:12Z</time>
      </trkpt>
      <trkpt lat="47.14163" lon="-1.31947">
        <ele>32</ele>
        <time>2019-10-11T12:09:13Z</time>
      </trkpt>
      <trkpt lat="47.1416" lon="-1.31947">
        <ele>31.9</ele>
        <time>2019-10-11T12:09:14Z</time>
      </trkpt>
      <trkpt lat="47.14157" lon="-1.31947">
        <ele>31.9</ele>
        <time>2019-10-11T12:09:15Z</time>
      </trkpt>
      <trkpt lat="47.14154" lon="-1.31947">
        <ele>31.8</ele>
        <time>2019-10-11T12:09:16Z</time>
      </trkpt>
      <trkpt lat="47.14151" lon="-1.31946">
        <ele>31.8</ele>
        <time>2019-10-11T12:09:17Z</time>
      </trkpt>
      <trkpt lat="47.14148" lon="-1.31945">
        <ele>31.7</ele>
        <time>2019-10-11T12:09:18Z</time>
      </trkpt>
      <trkpt lat="47.14143" lon="-1.31943">
        <ele>31.7</ele>
        <time>2019-10-11T12:09:20Z</time>
      </trkpt>
      <trkpt lat="47.1414" lon="-1.31942">
        <ele>31.7</ele>
        <time>2019-10-11T12:09:21Z</time>
      </trkpt>
      <trkpt lat="47.14137" lon="-1.3194">
        <ele>31.6</ele>
        <time>2019-10-11T12:09:22Z</time>
      </trkpt>
      <trkpt lat="47.14134" lon="-1.31938">
        <ele>31.6</ele>
        <time>2019-10-11T12:09:23Z</time>
      </trkpt>
      <trkpt lat="47.1413" lon="-1.31937">
        <ele>31.6</ele>
        <time>2019-10-11T12:09:24Z</time>
      </trkpt>
      <trkpt lat="47.14127" lon="-1.31935">
        <ele>31.5</ele>
        <time>2019-10-11T12:09:25Z</time>
      </trkpt>
      <trkpt lat="47.14124" lon="-1.31933">
        <ele>31.5</ele>
        <time>2019-10-11T12:09:26Z</time>
      </trkpt>
      <trkpt lat="47.1412" lon="-1.31931">
        <ele>31.5</ele>
        <time>2019-10-11T12:09:27Z</time>
      </trkpt>
      <trkpt lat="47.14117" lon="-1.3193">
        <ele>31.5</ele>
        <time>2019-10-11T12:09:28Z</time>
      </trkpt>
      <trkpt lat="47.14113" lon="-1.31929">
        <ele>31.5</ele>
        <time>2019-10-11T12:09:29Z</time>
      </trkpt>
      <trkpt lat="47.14109" lon="-1.31928">
        <ele>31.4</ele>
        <time>2019-10-11T12:09:30Z</time>
      </trkpt>
      <trkpt lat="47.14106" lon="-1.31927">
        <ele>31.4</ele>
        <time>2019-10-11T12:09:31Z</time>
      </trkpt>
      <trkpt lat="47.14102" lon="-1.31927">
        <ele>31.4</ele>
        <time>2019-10-11T12:09:32Z</time>
      </trkpt>
      <trkpt lat="47.14098" lon="-1.31927">
        <ele>31.4</ele>
        <time>2019-10-11T12:09:33Z</time>
      </trkpt>
      <trkpt lat="47.14094" lon="-1.31926">
        <ele>31.3</ele>
        <time>2019-10-11T12:09:34Z</time>
      </trkpt>
      <trkpt lat="47.1409" lon="-1.31926">
        <ele>31.3</ele>
        <time>2019-10-11T12:09:35Z</time>
      </trkpt>
      <trkpt lat="47.14086" lon="-1.31927">
        <ele>31.3</ele>
        <time>2019-10-11T12:09:36Z</time>
      </trkpt>
      <trkpt lat="47.14082" lon="-1.31926">
        <ele>31.3</ele>
        <time>2019-10-11T12:09:37Z</time>
      </trkpt>
      <trkpt lat="47.14079" lon="-1.31927">
        <ele>31.2</ele>
        <time>2019-10-11T12:09:38Z</time>
      </trkpt>
      <trkpt lat="47.14075" lon="-1.31927">
        <ele>31.2</ele>
        <time>2019-10-11T12:09:39Z</time>
      </trkpt>
      <trkpt lat="47.14071" lon="-1.31926">
        <ele>31</ele>
        <time>2019-10-11T12:09:40Z</time>
      </trkpt>
      <trkpt lat="47.14067" lon="-1.31926">
        <ele>31</ele>
        <time>2019-10-11T12:09:41Z</time>
      </trkpt>
      <trkpt lat="47.14064" lon="-1.31926">
        <ele>30.9</ele>
        <time>2019-10-11T12:09:42Z</time>
      </trkpt>
      <trkpt lat="47.14061" lon="-1.31926">
        <ele>30.9</ele>
        <time>2019-10-11T12:09:43Z</time>
      </trkpt>
      <trkpt lat="47.14057" lon="-1.31926">
        <ele>30.8</ele>
        <time>2019-10-11T12:09:44Z</time>
      </trkpt>
      <trkpt lat="47.14054" lon="-1.31926">
        <ele>30.8</ele>
        <time>2019-10-11T12:09:45Z</time>
      </trkpt>
      <trkpt lat="47.14051" lon="-1.31926">
        <ele>30.7</ele>
        <time>2019-10-11T12:09:46Z</time>
      </trkpt>
      <trkpt lat="47.14048" lon="-1.31925">
        <ele>30.7</ele>
        <time>2019-10-11T12:09:47Z</time>
      </trkpt>
      <trkpt lat="47.14045" lon="-1.31922">
        <ele>30.7</ele>
        <time>2019-10-11T12:09:49Z</time>
      </trkpt>
      <trkpt lat="47.14043" lon="-1.31918">
        <ele>30.7</ele>
        <time>2019-10-11T12:09:50Z</time>
      </trkpt>
      <trkpt lat="47.14042" lon="-1.31914">
        <ele>30.7</ele>
        <time>2019-10-11T12:09:51Z</time>
      </trkpt>
      <trkpt lat="47.14041" lon="-1.31908">
        <ele>30.7</ele>
        <time>2019-10-11T12:09:52Z</time>
      </trkpt>
      <trkpt lat="47.1404" lon="-1.31904">
        <ele>30.7</ele>
        <time>2019-10-11T12:09:53Z</time>
      </trkpt>
      <trkpt lat="47.14039" lon="-1.31899">
        <ele>30.7</ele>
        <time>2019-10-11T12:09:54Z</time>
      </trkpt>
      <trkpt lat="47.14038" lon="-1.31895">
        <ele>30.6</ele>
        <time>2019-10-11T12:09:55Z</time>
      </trkpt>
      <trkpt lat="47.14037" lon="-1.3189">
        <ele>30.6</ele>
        <time>2019-10-11T12:09:56Z</time>
      </trkpt>
      <trkpt lat="47.14035" lon="-1.31886">
        <ele>30.5</ele>
        <time>2019-10-11T12:09:57Z</time>
      </trkpt>
      <trkpt lat="47.14034" lon="-1.31881">
        <ele>30.4</ele>
        <time>2019-10-11T12:09:58Z</time>
      </trkpt>
      <trkpt lat="47.14032" lon="-1.31877">
        <ele>30.3</ele>
        <time>2019-10-11T12:09:59Z</time>
      </trkpt>
      <trkpt lat="47.1403" lon="-1.31872">
        <ele>30.2</ele>
        <time>2019-10-11T12:10:00Z</time>
      </trkpt>
      <trkpt lat="47.14029" lon="-1.31867">
        <ele>30.1</ele>
        <time>2019-10-11T12:10:01Z</time>
      </trkpt>
      <trkpt lat="47.14027" lon="-1.31863">
        <ele>30.1</ele>
        <time>2019-10-11T12:10:02Z</time>
      </trkpt>
      <trkpt lat="47.14026" lon="-1.31859">
        <ele>30</ele>
        <time>2019-10-11T12:10:03Z</time>
      </trkpt>
      <trkpt lat="47.14024" lon="-1.31855">
        <ele>29.9</ele>
        <time>2019-10-11T12:10:04Z</time>
      </trkpt>
      <trkpt lat="47.14023" lon="-1.31851">
        <ele>29.9</ele>
        <time>2019-10-11T12:10:05Z</time>
      </trkpt>
      <trkpt lat="47.14019" lon="-1.31851">
        <ele>29.9</ele>
        <time>2019-10-11T12:10:06Z</time>
      </trkpt>
      <trkpt lat="47.14015" lon="-1.31852">
        <ele>29.9</ele>
        <time>2019-10-11T12:10:07Z</time>
      </trkpt>
      <trkpt lat="47.14012" lon="-1.31856">
        <ele>29.8</ele>
        <time>2019-10-11T12:10:08Z</time>
      </trkpt>
      <trkpt lat="47.1401" lon="-1.31861">
        <ele>29.8</ele>
        <time>2019-10-11T12:10:09Z</time>
      </trkpt>
      <trkpt lat="47.14009" lon="-1.31866">
        <ele>29.7</ele>
        <time>2019-10-11T12:10:10Z</time>
      </trkpt>
      <trkpt lat="47.14007" lon="-1.31871">
        <ele>29.6</ele>
        <time>2019-10-11T12:10:11Z</time>
      </trkpt>
      <trkpt lat="47.14006" lon="-1.31876">
        <ele>29.5</ele>
        <time>2019-10-11T12:10:12Z</time>
      </trkpt>
      <trkpt lat="47.14004" lon="-1.31881">
        <ele>29.4</ele>
        <time>2019-10-11T12:10:13Z</time>
      </trkpt>
      <trkpt lat="47.14003" lon="-1.31886">
        <ele>29.3</ele>
        <time>2019-10-11T12:10:14Z</time>
      </trkpt>
      <trkpt lat="47.14002" lon="-1.31892">
        <ele>29.2</ele>
        <time>2019-10-11T12:10:15Z</time>
      </trkpt>
      <trkpt lat="47.14001" lon="-1.31897">
        <ele>29</ele>
        <time>2019-10-11T12:10:16Z</time>
      </trkpt>
      <trkpt lat="47.14" lon="-1.31903">
        <ele>28.9</ele>
        <time>2019-10-11T12:10:17Z</time>
      </trkpt>
      <trkpt lat="47.13999" lon="-1.31909">
        <ele>28.8</ele>
        <time>2019-10-11T12:10:18Z</time>
      </trkpt>
      <trkpt lat="47.13998" lon="-1.31915">
        <ele>28.6</ele>
        <time>2019-10-11T12:10:19Z</time>
      </trkpt>
      <trkpt lat="47.13998" lon="-1.31921">
        <ele>28.5</ele>
        <time>2019-10-11T12:10:20Z</time>
      </trkpt>
      <trkpt lat="47.13997" lon="-1.31927">
        <ele>28.4</ele>
        <time>2019-10-11T12:10:21Z</time>
      </trkpt>
      <trkpt lat="47.13996" lon="-1.31934">
        <ele>28.2</ele>
        <time>2019-10-11T12:10:22Z</time>
      </trkpt>
      <trkpt lat="47.13995" lon="-1.31941">
        <ele>28.1</ele>
        <time>2019-10-11T12:10:23Z</time>
      </trkpt>
      <trkpt lat="47.13993" lon="-1.3195">
        <ele>27.9</ele>
        <time>2019-10-11T12:10:24Z</time>
      </trkpt>
      <trkpt lat="47.13991" lon="-1.31958">
        <ele>27.7</ele>
        <time>2019-10-11T12:10:25Z</time>
      </trkpt>
      <trkpt lat="47.13989" lon="-1.31966">
        <ele>27.6</ele>
        <time>2019-10-11T12:10:26Z</time>
      </trkpt>
      <trkpt lat="47.13987" lon="-1.31974">
        <ele>27.4</ele>
        <time>2019-10-11T12:10:27Z</time>
      </trkpt>
      <trkpt lat="47.13984" lon="-1.31982">
        <ele>27.1</ele>
        <time>2019-10-11T12:10:28Z</time>
      </trkpt>
      <trkpt lat="47.13982" lon="-1.3199">
        <ele>26.8</ele>
        <time>2019-10-11T12:10:29Z</time>
      </trkpt>
      <trkpt lat="47.13979" lon="-1.31998">
        <ele>26.7</ele>
        <time>2019-10-11T12:10:30Z</time>
      </trkpt>
      <trkpt lat="47.13976" lon="-1.32006">
        <ele>26.5</ele>
        <time>2019-10-11T12:10:31Z</time>
      </trkpt>
      <trkpt lat="47.13973" lon="-1.32013">
        <ele>26.3</ele>
        <time>2019-10-11T12:10:32Z</time>
      </trkpt>
      <trkpt lat="47.1397" lon="-1.32021">
        <ele>26.2</ele>
        <time>2019-10-11T12:10:33Z</time>
      </trkpt>
      <trkpt lat="47.13967" lon="-1.32028">
        <ele>26</ele>
        <time>2019-10-11T12:10:34Z</time>
      </trkpt>
      <trkpt lat="47.13964" lon="-1.32035">
        <ele>25.8</ele>
        <time>2019-10-11T12:10:35Z</time>
      </trkpt>
      <trkpt lat="47.13961" lon="-1.32041">
        <ele>25.7</ele>
        <time>2019-10-11T12:10:36Z</time>
      </trkpt>
      <trkpt lat="47.13956" lon="-1.32047">
        <ele>25.5</ele>
        <time>2019-10-11T12:10:37Z</time>
      </trkpt>
      <trkpt lat="47.13951" lon="-1.3205">
        <ele>25.4</ele>
        <time>2019-10-11T12:10:38Z</time>
      </trkpt>
      <trkpt lat="47.13946" lon="-1.32051">
        <ele>25.3</ele>
        <time>2019-10-11T12:10:39Z</time>
      </trkpt>
      <trkpt lat="47.13939" lon="-1.32051">
        <ele>25.1</ele>
        <time>2019-10-11T12:10:40Z</time>
      </trkpt>
      <trkpt lat="47.13933" lon="-1.32051">
        <ele>25</ele>
        <time>2019-10-11T12:10:41Z</time>
      </trkpt>
      <trkpt lat="47.13927" lon="-1.32052">
        <ele>24.8</ele>
        <time>2019-10-11T12:10:42Z</time>
      </trkpt>
      <trkpt lat="47.13921" lon="-1.32053">
        <ele>24.6</ele>
        <time>2019-10-11T12:10:43Z</time>
      </trkpt>
      <trkpt lat="47.13915" lon="-1.32054">
        <ele>24.4</ele>
        <time>2019-10-11T12:10:44Z</time>
      </trkpt>
      <trkpt lat="47.13909" lon="-1.32055">
        <ele>24.3</ele>
        <time>2019-10-11T12:10:45Z</time>
      </trkpt>
      <trkpt lat="47.13903" lon="-1.32055">
        <ele>24.1</ele>
        <time>2019-10-11T12:10:46Z</time>
      </trkpt>
      <trkpt lat="47.13897" lon="-1.32057">
        <ele>23.9</ele>
        <time>2019-10-11T12:10:47Z</time>
      </trkpt>
      <trkpt lat="47.13891" lon="-1.32057">
        <ele>23.8</ele>
        <time>2019-10-11T12:10:48Z</time>
      </trkpt>
      <trkpt lat="47.13885" lon="-1.32058">
        <ele>23.7</ele>
        <time>2019-10-11T12:10:49Z</time>
      </trkpt>
      <trkpt lat="47.13879" lon="-1.32059">
        <ele>23.6</ele>
        <time>2019-10-11T12:10:50Z</time>
      </trkpt>
      <trkpt lat="47.13873" lon="-1.32059">
        <ele>23.5</ele>
        <time>2019-10-11T12:10:51Z</time>
      </trkpt>
      <trkpt lat="47.13868" lon="-1.32061">
        <ele>23.4</ele>
        <time>2019-10-11T12:10:52Z</time>
      </trkpt>
      <trkpt lat="47.13862" lon="-1.32061">
        <ele>23.3</ele>
        <time>2019-10-11T12:10:53Z</time>
      </trkpt>
      <trkpt lat="47.13858" lon="-1.32058">
        <ele>23.3</ele>
        <time>2019-10-11T12:10:54Z</time>
      </trkpt>
      <trkpt lat="47.13856" lon="-1.32053">
        <ele>23.2</ele>
        <time>2019-10-11T12:10:55Z</time>
      </trkpt>
      <trkpt lat="47.13855" lon="-1.32048">
        <ele>23.1</ele>
        <time>2019-10-11T12:10:56Z</time>
      </trkpt>
      <trkpt lat="47.13855" lon="-1.32039">
        <ele>23</ele>
        <time>2019-10-11T12:10:58Z</time>
      </trkpt>
      <trkpt lat="47.13854" lon="-1.32035">
        <ele>23</ele>
        <time>2019-10-11T12:10:59Z</time>
      </trkpt>
      <trkpt lat="47.13853" lon="-1.3203">
        <ele>23</ele>
        <time>2019-10-11T12:11:00Z</time>
      </trkpt>
      <trkpt lat="47.13851" lon="-1.32025">
        <ele>23</ele>
        <time>2019-10-11T12:11:01Z</time>
      </trkpt>
      <trkpt lat="47.1385" lon="-1.3202">
        <ele>23.1</ele>
        <time>2019-10-11T12:11:02Z</time>
      </trkpt>
      <trkpt lat="47.13848" lon="-1.32015">
        <ele>23.1</ele>
        <time>2019-10-11T12:11:03Z</time>
      </trkpt>
      <trkpt lat="47.13846" lon="-1.3201">
        <ele>23.1</ele>
        <time>2019-10-11T12:11:04Z</time>
      </trkpt>
      <trkpt lat="47.13845" lon="-1.32005">
        <ele>23.2</ele>
        <time>2019-10-11T12:11:05Z</time>
      </trkpt>
      <trkpt lat="47.13843" lon="-1.32">
        <ele>23.2</ele>
        <time>2019-10-11T12:11:06Z</time>
      </trkpt>
      <trkpt lat="47.13841" lon="-1.31995">
        <ele>23.3</ele>
        <time>2019-10-11T12:11:07Z</time>
      </trkpt>
      <trkpt lat="47.13839" lon="-1.31989">
        <ele>23.3</ele>
        <time>2019-10-11T12:11:08Z</time>
      </trkpt>
      <trkpt lat="47.13837" lon="-1.31984">
        <ele>23.4</ele>
        <time>2019-10-11T12:11:09Z</time>
      </trkpt>
      <trkpt lat="47.13835" lon="-1.31979">
        <ele>23.5</ele>
        <time>2019-10-11T12:11:10Z</time>
      </trkpt>
      <trkpt lat="47.13833" lon="-1.31974">
        <ele>23.5</ele>
        <time>2019-10-11T12:11:11Z</time>
      </trkpt>
      <trkpt lat="47.13832" lon="-1.31968">
        <ele>23.6</ele>
        <time>2019-10-11T12:11:12Z</time>
      </trkpt>
      <trkpt lat="47.13829" lon="-1.31963">
        <ele>23.7</ele>
        <time>2019-10-11T12:11:13Z</time>
      </trkpt>
      <trkpt lat="47.13827" lon="-1.31958">
        <ele>23.8</ele>
        <time>2019-10-11T12:11:14Z</time>
      </trkpt>
      <trkpt lat="47.13825" lon="-1.31953">
        <ele>23.9</ele>
        <time>2019-10-11T12:11:15Z</time>
      </trkpt>
      <trkpt lat="47.13823" lon="-1.31947">
        <ele>23.9</ele>
        <time>2019-10-11T12:11:16Z</time>
      </trkpt>
      <trkpt lat="47.13822" lon="-1.31942">
        <ele>24</ele>
        <time>2019-10-11T12:11:17Z</time>
      </trkpt>
      <trkpt lat="47.1382" lon="-1.31937">
        <ele>24</ele>
        <time>2019-10-11T12:11:18Z</time>
      </trkpt>
      <trkpt lat="47.13818" lon="-1.31932">
        <ele>24.1</ele>
        <time>2019-10-11T12:11:19Z</time>
      </trkpt>
      <trkpt lat="47.13816" lon="-1.31927">
        <ele>24.1</ele>
        <time>2019-10-11T12:11:20Z</time>
      </trkpt>
      <trkpt lat="47.13814" lon="-1.31922">
        <ele>24.2</ele>
        <time>2019-10-11T12:11:21Z</time>
      </trkpt>
      <trkpt lat="47.13812" lon="-1.31917">
        <ele>24.2</ele>
        <time>2019-10-11T12:11:22Z</time>
      </trkpt>
      <trkpt lat="47.1381" lon="-1.31912">
        <ele>24.3</ele>
        <time>2019-10-11T12:11:23Z</time>
      </trkpt>
      <trkpt lat="47.13809" lon="-1.31908">
        <ele>24.3</ele>
        <time>2019-10-11T12:11:24Z</time>
      </trkpt>
      <trkpt lat="47.13807" lon="-1.31903">
        <ele>24.4</ele>
        <time>2019-10-11T12:11:25Z</time>
      </trkpt>
      <trkpt lat="47.13805" lon="-1.31899">
        <ele>24.4</ele>
        <time>2019-10-11T12:11:26Z</time>
      </trkpt>
      <trkpt lat="47.13804" lon="-1.31895">
        <ele>24.4</ele>
        <time>2019-10-11T12:11:27Z</time>
      </trkpt>
      <trkpt lat="47.13802" lon="-1.31891">
        <ele>24.5</ele>
        <time>2019-10-11T12:11:28Z</time>
      </trkpt>
      <trkpt lat="47.138" lon="-1.31887">
        <ele>24.6</ele>
        <time>2019-10-11T12:11:29Z</time>
      </trkpt>
      <trkpt lat="47.13798" lon="-1.31884">
        <ele>24.6</ele>
        <time>2019-10-11T12:11:30Z</time>
      </trkpt>
      <trkpt lat="47.13796" lon="-1.3188">
        <ele>24.7</ele>
        <time>2019-10-11T12:11:31Z</time>
      </trkpt>
      <trkpt lat="47.13794" lon="-1.31877">
        <ele>24.7</ele>
        <time>2019-10-11T12:11:32Z</time>
      </trkpt>
      <trkpt lat="47.13791" lon="-1.31874">
        <ele>24.8</ele>
        <time>2019-10-11T12:11:33Z</time>
      </trkpt>
      <trkpt lat="47.13789" lon="-1.3187">
        <ele>24.9</ele>
        <time>2019-10-11T12:11:34Z</time>
      </trkpt>
      <trkpt lat="47.13787" lon="-1.31867">
        <ele>24.9</ele>
        <time>2019-10-11T12:11:35Z</time>
      </trkpt>
      <trkpt lat="47.13784" lon="-1.31864">
        <ele>25</ele>
        <time>2019-10-11T12:11:36Z</time>
      </trkpt>
      <trkpt lat="47.13782" lon="-1.31861">
        <ele>25.1</ele>
        <time>2019-10-11T12:11:37Z</time>
      </trkpt>
      <trkpt lat="47.1378" lon="-1.31858">
        <ele>25.1</ele>
        <time>2019-10-11T12:11:38Z</time>
      </trkpt>
      <trkpt lat="47.13778" lon="-1.31854">
        <ele>25.2</ele>
        <time>2019-10-11T12:11:39Z</time>
      </trkpt>
      <trkpt lat="47.13775" lon="-1.31851">
        <ele>25.3</ele>
        <time>2019-10-11T12:11:40Z</time>
      </trkpt>
      <trkpt lat="47.13773" lon="-1.31848">
        <ele>25.3</ele>
        <time>2019-10-11T12:11:41Z</time>
      </trkpt>
      <trkpt lat="47.1377" lon="-1.31844">
        <ele>25.4</ele>
        <time>2019-10-11T12:11:42Z</time>
      </trkpt>
      <trkpt lat="47.13768" lon="-1.31841">
        <ele>25.4</ele>
        <time>2019-10-11T12:11:43Z</time>
      </trkpt>
      <trkpt lat="47.13766" lon="-1.31837">
        <ele>25.5</ele>
        <time>2019-10-11T12:11:44Z</time>
      </trkpt>
      <trkpt lat="47.13763" lon="-1.31834">
        <ele>25.6</ele>
        <time>2019-10-11T12:11:45Z</time>
      </trkpt>
      <trkpt lat="47.13761" lon="-1.31831">
        <ele>25.6</ele>
        <time>2019-10-11T12:11:46Z</time>
      </trkpt>
      <trkpt lat="47.13759" lon="-1.31827">
        <ele>25.7</ele>
        <time>2019-10-11T12:11:47Z</time>
      </trkpt>
      <trkpt lat="47.13757" lon="-1.31824">
        <ele>25.7</ele>
        <time>2019-10-11T12:11:48Z</time>
      </trkpt>
      <trkpt lat="47.13755" lon="-1.31821">
        <ele>25.7</ele>
        <time>2019-10-11T12:11:49Z</time>
      </trkpt>
      <trkpt lat="47.13753" lon="-1.31818">
        <ele>25.8</ele>
        <time>2019-10-11T12:11:50Z</time>
      </trkpt>
      <trkpt lat="47.13751" lon="-1.31811">
        <ele>25.9</ele>
        <time>2019-10-11T12:11:52Z</time>
      </trkpt>
      <trkpt lat="47.13753" lon="-1.31808">
        <ele>25.9</ele>
        <time>2019-10-11T12:11:53Z</time>
      </trkpt>
      <trkpt lat="47.13756" lon="-1.31802">
        <ele>26</ele>
        <time>2019-10-11T12:11:55Z</time>
      </trkpt>
      <trkpt lat="47.13758" lon="-1.31799">
        <ele>26</ele>
        <time>2019-10-11T12:11:56Z</time>
      </trkpt>
      <trkpt lat="47.13761" lon="-1.31795">
        <ele>26</ele>
        <time>2019-10-11T12:11:57Z</time>
      </trkpt>
      <trkpt lat="47.13762" lon="-1.31792">
        <ele>26</ele>
        <time>2019-10-11T12:11:58Z</time>
      </trkpt>
      <trkpt lat="47.13765" lon="-1.31786">
        <ele>26</ele>
        <time>2019-10-11T12:12:00Z</time>
      </trkpt>
      <trkpt lat="47.13769" lon="-1.31779">
        <ele>26</ele>
        <time>2019-10-11T12:12:02Z</time>
      </trkpt>
      <trkpt lat="47.13771" lon="-1.31776">
        <ele>26</ele>
        <time>2019-10-11T12:12:03Z</time>
      </trkpt>
      <trkpt lat="47.13773" lon="-1.31773">
        <ele>26</ele>
        <time>2019-10-11T12:12:04Z</time>
      </trkpt>
      <trkpt lat="47.13774" lon="-1.31769">
        <ele>26</ele>
        <time>2019-10-11T12:12:05Z</time>
      </trkpt>
      <trkpt lat="47.13776" lon="-1.31766">
        <ele>26</ele>
        <time>2019-10-11T12:12:06Z</time>
      </trkpt>
      <trkpt lat="47.13778" lon="-1.31762">
        <ele>26</ele>
        <time>2019-10-11T12:12:07Z</time>
      </trkpt>
      <trkpt lat="47.1378" lon="-1.31758">
        <ele>26.1</ele>
        <time>2019-10-11T12:12:08Z</time>
      </trkpt>
      <trkpt lat="47.13782" lon="-1.31754">
        <ele>26.1</ele>
        <time>2019-10-11T12:12:09Z</time>
      </trkpt>
      <trkpt lat="47.13784" lon="-1.3175">
        <ele>26.1</ele>
        <time>2019-10-11T12:12:10Z</time>
      </trkpt>
      <trkpt lat="47.13786" lon="-1.31746">
        <ele>26.1</ele>
        <time>2019-10-11T12:12:11Z</time>
      </trkpt>
      <trkpt lat="47.13788" lon="-1.31742">
        <ele>26.1</ele>
        <time>2019-10-11T12:12:12Z</time>
      </trkpt>
      <trkpt lat="47.1379" lon="-1.31737">
        <ele>26.1</ele>
        <time>2019-10-11T12:12:13Z</time>
      </trkpt>
      <trkpt lat="47.1379" lon="-1.31732">
        <ele>26.1</ele>
        <time>2019-10-11T12:12:14Z</time>
      </trkpt>
      <trkpt lat="47.13788" lon="-1.31728">
        <ele>26.1</ele>
        <time>2019-10-11T12:12:15Z</time>
      </trkpt>
      <trkpt lat="47.13787" lon="-1.31723">
        <ele>26.1</ele>
        <time>2019-10-11T12:12:16Z</time>
      </trkpt>
      <trkpt lat="47.13785" lon="-1.31717">
        <ele>26.2</ele>
        <time>2019-10-11T12:12:17Z</time>
      </trkpt>
      <trkpt lat="47.13783" lon="-1.3171">
        <ele>26.2</ele>
        <time>2019-10-11T12:12:18Z</time>
      </trkpt>
      <trkpt lat="47.13778" lon="-1.31705">
        <ele>26.2</ele>
        <time>2019-10-11T12:12:19Z</time>
      </trkpt>
      <trkpt lat="47.13774" lon="-1.31699">
        <ele>26.2</ele>
        <time>2019-10-11T12:12:20Z</time>
      </trkpt>
      <trkpt lat="47.1377" lon="-1.31694">
        <ele>26.1</ele>
        <time>2019-10-11T12:12:21Z</time>
      </trkpt>
      <trkpt lat="47.13765" lon="-1.31688">
        <ele>26.1</ele>
        <time>2019-10-11T12:12:22Z</time>
      </trkpt>
      <trkpt lat="47.1376" lon="-1.31682">
        <ele>26.1</ele>
        <time>2019-10-11T12:12:23Z</time>
      </trkpt>
      <trkpt lat="47.13756" lon="-1.31676">
        <ele>26</ele>
        <time>2019-10-11T12:12:24Z</time>
      </trkpt>
      <trkpt lat="47.13751" lon="-1.3167">
        <ele>26</ele>
        <time>2019-10-11T12:12:25Z</time>
      </trkpt>
      <trkpt lat="47.13746" lon="-1.31664">
        <ele>25.9</ele>
        <time>2019-10-11T12:12:26Z</time>
      </trkpt>
      <trkpt lat="47.13742" lon="-1.31658">
        <ele>25.8</ele>
        <time>2019-10-11T12:12:27Z</time>
      </trkpt>
      <trkpt lat="47.13737" lon="-1.31652">
        <ele>25.7</ele>
        <time>2019-10-11T12:12:28Z</time>
      </trkpt>
      <trkpt lat="47.13733" lon="-1.31646">
        <ele>25.5</ele>
        <time>2019-10-11T12:12:29Z</time>
      </trkpt>
      <trkpt lat="47.13729" lon="-1.31637">
        <ele>25.3</ele>
        <time>2019-10-11T12:12:30Z</time>
      </trkpt>
      <trkpt lat="47.13726" lon="-1.31629">
        <ele>25.2</ele>
        <time>2019-10-11T12:12:31Z</time>
      </trkpt>
      <trkpt lat="47.13724" lon="-1.3162">
        <ele>25</ele>
        <time>2019-10-11T12:12:32Z</time>
      </trkpt>
      <trkpt lat="47.13724" lon="-1.31614">
        <ele>24.9</ele>
        <time>2019-10-11T12:12:33Z</time>
      </trkpt>
      <trkpt lat="47.13723" lon="-1.31608">
        <ele>22.9</ele>
        <time>2019-10-11T12:12:34Z</time>
      </trkpt>
      <trkpt lat="47.13721" lon="-1.31602">
        <ele>22.1</ele>
        <time>2019-10-11T12:12:35Z</time>
      </trkpt>
      <trkpt lat="47.13719" lon="-1.31594">
        <ele>21</ele>
        <time>2019-10-11T12:12:36Z</time>
      </trkpt>
      <trkpt lat="47.13716" lon="-1.31587">
        <ele>20.2</ele>
        <time>2019-10-11T12:12:37Z</time>
      </trkpt>
      <trkpt lat="47.13714" lon="-1.31579">
        <ele>19.5</ele>
        <time>2019-10-11T12:12:38Z</time>
      </trkpt>
      <trkpt lat="47.13713" lon="-1.31573">
        <ele>18.9</ele>
        <time>2019-10-11T12:12:39Z</time>
      </trkpt>
      <trkpt lat="47.13712" lon="-1.31567">
        <ele>18.6</ele>
        <time>2019-10-11T12:12:40Z</time>
      </trkpt>
      <trkpt lat="47.13712" lon="-1.3156">
        <ele>18.3</ele>
        <time>2019-10-11T12:12:41Z</time>
      </trkpt>
      <trkpt lat="47.13712" lon="-1.31553">
        <ele>17.9</ele>
        <time>2019-10-11T12:12:42Z</time>
      </trkpt>
      <trkpt lat="47.13713" lon="-1.31546">
        <ele>17.7</ele>
        <time>2019-10-11T12:12:43Z</time>
      </trkpt>
      <trkpt lat="47.13714" lon="-1.31538">
        <ele>17.4</ele>
        <time>2019-10-11T12:12:44Z</time>
      </trkpt>
      <trkpt lat="47.13715" lon="-1.31529">
        <ele>17.2</ele>
        <time>2019-10-11T12:12:45Z</time>
      </trkpt>
      <trkpt lat="47.13716" lon="-1.31523">
        <ele>17</ele>
        <time>2019-10-11T12:12:46Z</time>
      </trkpt>
      <trkpt lat="47.13718" lon="-1.31517">
        <ele>16.9</ele>
        <time>2019-10-11T12:12:47Z</time>
      </trkpt>
      <trkpt lat="47.1372" lon="-1.31508">
        <ele>16.7</ele>
        <time>2019-10-11T12:12:48Z</time>
      </trkpt>
      <trkpt lat="47.13723" lon="-1.315">
        <ele>16.6</ele>
        <time>2019-10-11T12:12:49Z</time>
      </trkpt>
      <trkpt lat="47.13725" lon="-1.31491">
        <ele>16.5</ele>
        <time>2019-10-11T12:12:50Z</time>
      </trkpt>
      <trkpt lat="47.13726" lon="-1.31483">
        <ele>16.4</ele>
        <time>2019-10-11T12:12:51Z</time>
      </trkpt>
      <trkpt lat="47.13728" lon="-1.31474">
        <ele>16.3</ele>
        <time>2019-10-11T12:12:52Z</time>
      </trkpt>
      <trkpt lat="47.1373" lon="-1.31466">
        <ele>16.3</ele>
        <time>2019-10-11T12:12:53Z</time>
      </trkpt>
      <trkpt lat="47.13731" lon="-1.31456">
        <ele>16.2</ele>
        <time>2019-10-11T12:12:54Z</time>
      </trkpt>
      <trkpt lat="47.13733" lon="-1.31446">
        <ele>16.2</ele>
        <time>2019-10-11T12:12:55Z</time>
      </trkpt>
      <trkpt lat="47.13733" lon="-1.31438">
        <ele>16.1</ele>
        <time>2019-10-11T12:12:56Z</time>
      </trkpt>
      <trkpt lat="47.13733" lon="-1.31429">
        <ele>16.1</ele>
        <time>2019-10-11T12:12:57Z</time>
      </trkpt>
      <trkpt lat="47.13734" lon="-1.31419">
        <ele>16</ele>
        <time>2019-10-11T12:12:58Z</time>
      </trkpt>
      <trkpt lat="47.13735" lon="-1.31409">
        <ele>16</ele>
        <time>2019-10-11T12:12:59Z</time>
      </trkpt>
      <trkpt lat="47.13736" lon="-1.31399">
        <ele>16</ele>
        <time>2019-10-11T12:13:00Z</time>
      </trkpt>
      <trkpt lat="47.13736" lon="-1.31391">
        <ele>15.9</ele>
        <time>2019-10-11T12:13:01Z</time>
      </trkpt>
      <trkpt lat="47.13736" lon="-1.31384">
        <ele>15.9</ele>
        <time>2019-10-11T12:13:02Z</time>
      </trkpt>
      <trkpt lat="47.13734" lon="-1.31376">
        <ele>15.9</ele>
        <time>2019-10-11T12:13:03Z</time>
      </trkpt>
      <trkpt lat="47.13731" lon="-1.31369">
        <ele>15.8</ele>
        <time>2019-10-11T12:13:04Z</time>
      </trkpt>
      <trkpt lat="47.13729" lon="-1.31361">
        <ele>15.8</ele>
        <time>2019-10-11T12:13:05Z</time>
      </trkpt>
      <trkpt lat="47.13726" lon="-1.31355">
        <ele>15.8</ele>
        <time>2019-10-11T12:13:06Z</time>
      </trkpt>
      <trkpt lat="47.13724" lon="-1.31348">
        <ele>15.7</ele>
        <time>2019-10-11T12:13:07Z</time>
      </trkpt>
      <trkpt lat="47.13722" lon="-1.31342">
        <ele>15.7</ele>
        <time>2019-10-11T12:13:08Z</time>
      </trkpt>
      <trkpt lat="47.1372" lon="-1.31335">
        <ele>15.7</ele>
        <time>2019-10-11T12:13:09Z</time>
      </trkpt>
      <trkpt lat="47.13719" lon="-1.31327">
        <ele>15.7</ele>
        <time>2019-10-11T12:13:10Z</time>
      </trkpt>
      <trkpt lat="47.13719" lon="-1.3132">
        <ele>15.6</ele>
        <time>2019-10-11T12:13:11Z</time>
      </trkpt>
      <trkpt lat="47.13719" lon="-1.31313">
        <ele>15.6</ele>
        <time>2019-10-11T12:13:12Z</time>
      </trkpt>
      <trkpt lat="47.13717" lon="-1.31306">
        <ele>15.6</ele>
        <time>2019-10-11T12:13:13Z</time>
      </trkpt>
      <trkpt lat="47.13715" lon="-1.31299">
        <ele>15.5</ele>
        <time>2019-10-11T12:13:14Z</time>
      </trkpt>
      <trkpt lat="47.13712" lon="-1.31293">
        <ele>15.5</ele>
        <time>2019-10-11T12:13:15Z</time>
      </trkpt>
      <trkpt lat="47.13709" lon="-1.31288">
        <ele>15.5</ele>
        <time>2019-10-11T12:13:16Z</time>
      </trkpt>
      <trkpt lat="47.13705" lon="-1.31284">
        <ele>15.5</ele>
        <time>2019-10-11T12:13:17Z</time>
      </trkpt>
      <trkpt lat="47.13701" lon="-1.31284">
        <ele>15.4</ele>
        <time>2019-10-11T12:13:18Z</time>
      </trkpt>
      <trkpt lat="47.13697" lon="-1.31286">
        <ele>15.4</ele>
        <time>2019-10-11T12:13:19Z</time>
      </trkpt>
      <trkpt lat="47.13693" lon="-1.31289">
        <ele>15.4</ele>
        <time>2019-10-11T12:13:20Z</time>
      </trkpt>
      <trkpt lat="47.13691" lon="-1.31293">
        <ele>15.1</ele>
        <time>2019-10-11T12:13:21Z</time>
      </trkpt>
      <trkpt lat="47.13688" lon="-1.31297">
        <ele>15</ele>
        <time>2019-10-11T12:13:22Z</time>
      </trkpt>
      <trkpt lat="47.13686" lon="-1.313">
        <ele>14.9</ele>
        <time>2019-10-11T12:13:23Z</time>
      </trkpt>
      <trkpt lat="47.13683" lon="-1.31304">
        <ele>14.9</ele>
        <time>2019-10-11T12:13:24Z</time>
      </trkpt>
      <trkpt lat="47.1368" lon="-1.31308">
        <ele>14.8</ele>
        <time>2019-10-11T12:13:25Z</time>
      </trkpt>
      <trkpt lat="47.13677" lon="-1.31311">
        <ele>14.8</ele>
        <time>2019-10-11T12:13:26Z</time>
      </trkpt>
      <trkpt lat="47.13673" lon="-1.31315">
        <ele>14.7</ele>
        <time>2019-10-11T12:13:27Z</time>
      </trkpt>
      <trkpt lat="47.1367" lon="-1.31319">
        <ele>14.7</ele>
        <time>2019-10-11T12:13:28Z</time>
      </trkpt>
      <trkpt lat="47.13667" lon="-1.31323">
        <ele>14.6</ele>
        <time>2019-10-11T12:13:29Z</time>
      </trkpt>
      <trkpt lat="47.13664" lon="-1.31327">
        <ele>14.5</ele>
        <time>2019-10-11T12:13:30Z</time>
      </trkpt>
      <trkpt lat="47.13661" lon="-1.31331">
        <ele>14.5</ele>
        <time>2019-10-11T12:13:31Z</time>
      </trkpt>
      <trkpt lat="47.13658" lon="-1.31335">
        <ele>14.4</ele>
        <time>2019-10-11T12:13:32Z</time>
      </trkpt>
      <trkpt lat="47.13654" lon="-1.31339">
        <ele>14.3</ele>
        <time>2019-10-11T12:13:33Z</time>
      </trkpt>
      <trkpt lat="47.13651" lon="-1.31344">
        <ele>14.2</ele>
        <time>2019-10-11T12:13:34Z</time>
      </trkpt>
      <trkpt lat="47.13648" lon="-1.31349">
        <ele>14.2</ele>
        <time>2019-10-11T12:13:35Z</time>
      </trkpt>
      <trkpt lat="47.13644" lon="-1.31353">
        <ele>14.4</ele>
        <time>2019-10-11T12:13:36Z</time>
      </trkpt>
      <trkpt lat="47.13641" lon="-1.31358">
        <ele>14.4</ele>
        <time>2019-10-11T12:13:37Z</time>
      </trkpt>
      <trkpt lat="47.13638" lon="-1.31362">
        <ele>14.5</ele>
        <time>2019-10-11T12:13:38Z</time>
      </trkpt>
      <trkpt lat="47.13635" lon="-1.31367">
        <ele>14.6</ele>
        <time>2019-10-11T12:13:39Z</time>
      </trkpt>
      <trkpt lat="47.13632" lon="-1.31371">
        <ele>14.6</ele>
        <time>2019-10-11T12:13:40Z</time>
      </trkpt>
      <trkpt lat="47.13629" lon="-1.31375">
        <ele>14.7</ele>
        <time>2019-10-11T12:13:41Z</time>
      </trkpt>
      <trkpt lat="47.13627" lon="-1.31379">
        <ele>14.7</ele>
        <time>2019-10-11T12:13:42Z</time>
      </trkpt>
      <trkpt lat="47.13624" lon="-1.31383">
        <ele>14.8</ele>
        <time>2019-10-11T12:13:43Z</time>
      </trkpt>
      <trkpt lat="47.13621" lon="-1.31386">
        <ele>14.8</ele>
        <time>2019-10-11T12:13:44Z</time>
      </trkpt>
      <trkpt lat="47.13617" lon="-1.3139">
        <ele>14.9</ele>
        <time>2019-10-11T12:13:45Z</time>
      </trkpt>
      <trkpt lat="47.13614" lon="-1.31392">
        <ele>14.9</ele>
        <time>2019-10-11T12:13:46Z</time>
      </trkpt>
      <trkpt lat="47.13611" lon="-1.31395">
        <ele>15</ele>
        <time>2019-10-11T12:13:47Z</time>
      </trkpt>
      <trkpt lat="47.13607" lon="-1.31397">
        <ele>15.1</ele>
        <time>2019-10-11T12:13:48Z</time>
      </trkpt>
      <trkpt lat="47.13604" lon="-1.31399">
        <ele>15.1</ele>
        <time>2019-10-11T12:13:49Z</time>
      </trkpt>
      <trkpt lat="47.136" lon="-1.31401">
        <ele>15.1</ele>
        <time>2019-10-11T12:13:50Z</time>
      </trkpt>
      <trkpt lat="47.13596" lon="-1.31402">
        <ele>15.2</ele>
        <time>2019-10-11T12:13:51Z</time>
      </trkpt>
      <trkpt lat="47.13592" lon="-1.31403">
        <ele>15.2</ele>
        <time>2019-10-11T12:13:52Z</time>
      </trkpt>
      <trkpt lat="47.13588" lon="-1.31404">
        <ele>15.3</ele>
        <time>2019-10-11T12:13:53Z</time>
      </trkpt>
      <trkpt lat="47.13584" lon="-1.31405">
        <ele>15.3</ele>
        <time>2019-10-11T12:13:54Z</time>
      </trkpt>
      <trkpt lat="47.1358" lon="-1.31405">
        <ele>15.4</ele>
        <time>2019-10-11T12:13:55Z</time>
      </trkpt>
      <trkpt lat="47.13576" lon="-1.31405">
        <ele>15.4</ele>
        <time>2019-10-11T12:13:56Z</time>
      </trkpt>
      <trkpt lat="47.13572" lon="-1.31405">
        <ele>15.4</ele>
        <time>2019-10-11T12:13:57Z</time>
      </trkpt>
      <trkpt lat="47.13569" lon="-1.31405">
        <ele>15.5</ele>
        <time>2019-10-11T12:13:58Z</time>
      </trkpt>
      <trkpt lat="47.13565" lon="-1.31406">
        <ele>15.5</ele>
        <time>2019-10-11T12:13:59Z</time>
      </trkpt>
      <trkpt lat="47.13561" lon="-1.31405">
        <ele>15.6</ele>
        <time>2019-10-11T12:14:00Z</time>
      </trkpt>
      <trkpt lat="47.13557" lon="-1.31405">
        <ele>15.6</ele>
        <time>2019-10-11T12:14:01Z</time>
      </trkpt>
      <trkpt lat="47.13554" lon="-1.31405">
        <ele>15.7</ele>
        <time>2019-10-11T12:14:02Z</time>
      </trkpt>
      <trkpt lat="47.1355" lon="-1.31405">
        <ele>15.8</ele>
        <time>2019-10-11T12:14:03Z</time>
      </trkpt>
      <trkpt lat="47.13547" lon="-1.31405">
        <ele>15.8</ele>
        <time>2019-10-11T12:14:04Z</time>
      </trkpt>
      <trkpt lat="47.13543" lon="-1.31405">
        <ele>15.9</ele>
        <time>2019-10-11T12:14:05Z</time>
      </trkpt>
      <trkpt lat="47.1354" lon="-1.31404">
        <ele>15.9</ele>
        <time>2019-10-11T12:14:06Z</time>
      </trkpt>
      <trkpt lat="47.13536" lon="-1.31404">
        <ele>16</ele>
        <time>2019-10-11T12:14:07Z</time>
      </trkpt>
      <trkpt lat="47.13533" lon="-1.31404">
        <ele>16.1</ele>
        <time>2019-10-11T12:14:08Z</time>
      </trkpt>
      <trkpt lat="47.13529" lon="-1.31404">
        <ele>16.1</ele>
        <time>2019-10-11T12:14:09Z</time>
      </trkpt>
      <trkpt lat="47.13526" lon="-1.31404">
        <ele>16.2</ele>
        <time>2019-10-11T12:14:10Z</time>
      </trkpt>
      <trkpt lat="47.13522" lon="-1.31404">
        <ele>16.2</ele>
        <time>2019-10-11T12:14:11Z</time>
      </trkpt>
      <trkpt lat="47.13519" lon="-1.31404">
        <ele>16.3</ele>
        <time>2019-10-11T12:14:12Z</time>
      </trkpt>
      <trkpt lat="47.13515" lon="-1.31404">
        <ele>16.3</ele>
        <time>2019-10-11T12:14:13Z</time>
      </trkpt>
      <trkpt lat="47.13512" lon="-1.31404">
        <ele>16.4</ele>
        <time>2019-10-11T12:14:14Z</time>
      </trkpt>
      <trkpt lat="47.13508" lon="-1.31404">
        <ele>16.4</ele>
        <time>2019-10-11T12:14:15Z</time>
      </trkpt>
      <trkpt lat="47.13505" lon="-1.31404">
        <ele>16.5</ele>
        <time>2019-10-11T12:14:16Z</time>
      </trkpt>
      <trkpt lat="47.13502" lon="-1.31405">
        <ele>16.6</ele>
        <time>2019-10-11T12:14:17Z</time>
      </trkpt>
      <trkpt lat="47.13499" lon="-1.31405">
        <ele>16.6</ele>
        <time>2019-10-11T12:14:18Z</time>
      </trkpt>
      <trkpt lat="47.13496" lon="-1.31405">
        <ele>16.7</ele>
        <time>2019-10-11T12:14:19Z</time>
      </trkpt>
      <trkpt lat="47.13493" lon="-1.31405">
        <ele>16.8</ele>
        <time>2019-10-11T12:14:20Z</time>
      </trkpt>
      <trkpt lat="47.1349" lon="-1.31405">
        <ele>16.8</ele>
        <time>2019-10-11T12:14:21Z</time>
      </trkpt>
      <trkpt lat="47.13487" lon="-1.31405">
        <ele>16.9</ele>
        <time>2019-10-11T12:14:22Z</time>
      </trkpt>
      <trkpt lat="47.13484" lon="-1.31405">
        <ele>17</ele>
        <time>2019-10-11T12:14:23Z</time>
      </trkpt>
      <trkpt lat="47.1348" lon="-1.31405">
        <ele>17</ele>
        <time>2019-10-11T12:14:24Z</time>
      </trkpt>
      <trkpt lat="47.13477" lon="-1.31405">
        <ele>17.2</ele>
        <time>2019-10-11T12:14:25Z</time>
      </trkpt>
      <trkpt lat="47.13474" lon="-1.31405">
        <ele>17.4</ele>
        <time>2019-10-11T12:14:26Z</time>
      </trkpt>
      <trkpt lat="47.13471" lon="-1.31405">
        <ele>17.5</ele>
        <time>2019-10-11T12:14:27Z</time>
      </trkpt>
      <trkpt lat="47.13468" lon="-1.31405">
        <ele>17.7</ele>
        <time>2019-10-11T12:14:28Z</time>
      </trkpt>
      <trkpt lat="47.13465" lon="-1.31405">
        <ele>17.8</ele>
        <time>2019-10-11T12:14:29Z</time>
      </trkpt>
      <trkpt lat="47.13461" lon="-1.31405">
        <ele>17.9</ele>
        <time>2019-10-11T12:14:30Z</time>
      </trkpt>
      <trkpt lat="47.13458" lon="-1.31405">
        <ele>18.1</ele>
        <time>2019-10-11T12:14:31Z</time>
      </trkpt>
      <trkpt lat="47.13455" lon="-1.31405">
        <ele>18.2</ele>
        <time>2019-10-11T12:14:32Z</time>
      </trkpt>
      <trkpt lat="47.13451" lon="-1.31405">
        <ele>18.4</ele>
        <time>2019-10-11T12:14:33Z</time>
      </trkpt>
      <trkpt lat="47.13448" lon="-1.31404">
        <ele>18.6</ele>
        <time>2019-10-11T12:14:34Z</time>
      </trkpt>
      <trkpt lat="47.13444" lon="-1.31403">
        <ele>18.8</ele>
        <time>2019-10-11T12:14:35Z</time>
      </trkpt>
      <trkpt lat="47.13441" lon="-1.31402">
        <ele>19</ele>
        <time>2019-10-11T12:14:36Z</time>
      </trkpt>
      <trkpt lat="47.13438" lon="-1.314">
        <ele>19.2</ele>
        <time>2019-10-11T12:14:37Z</time>
      </trkpt>
      <trkpt lat="47.13435" lon="-1.31398">
        <ele>19.4</ele>
        <time>2019-10-11T12:14:38Z</time>
      </trkpt>
      <trkpt lat="47.13432" lon="-1.31396">
        <ele>19.5</ele>
        <time>2019-10-11T12:14:39Z</time>
      </trkpt>
      <trkpt lat="47.1343" lon="-1.31393">
        <ele>19.6</ele>
        <time>2019-10-11T12:14:40Z</time>
      </trkpt>
      <trkpt lat="47.13427" lon="-1.3139">
        <ele>19.7</ele>
        <time>2019-10-11T12:14:41Z</time>
      </trkpt>
      <trkpt lat="47.13425" lon="-1.31387">
        <ele>19.8</ele>
        <time>2019-10-11T12:14:42Z</time>
      </trkpt>
      <trkpt lat="47.13422" lon="-1.31384">
        <ele>20</ele>
        <time>2019-10-11T12:14:43Z</time>
      </trkpt>
      <trkpt lat="47.1342" lon="-1.31382">
        <ele>20.1</ele>
        <time>2019-10-11T12:14:44Z</time>
      </trkpt>
      <trkpt lat="47.13418" lon="-1.31378">
        <ele>20.2</ele>
        <time>2019-10-11T12:14:45Z</time>
      </trkpt>
      <trkpt lat="47.13416" lon="-1.31375">
        <ele>20.3</ele>
        <time>2019-10-11T12:14:46Z</time>
      </trkpt>
      <trkpt lat="47.13413" lon="-1.31372">
        <ele>20.5</ele>
        <time>2019-10-11T12:14:47Z</time>
      </trkpt>
      <trkpt lat="47.13412" lon="-1.31368">
        <ele>20.6</ele>
        <time>2019-10-11T12:14:48Z</time>
      </trkpt>
      <trkpt lat="47.1341" lon="-1.31365">
        <ele>20.7</ele>
        <time>2019-10-11T12:14:49Z</time>
      </trkpt>
      <trkpt lat="47.13408" lon="-1.31362">
        <ele>20.8</ele>
        <time>2019-10-11T12:14:50Z</time>
      </trkpt>
      <trkpt lat="47.13405" lon="-1.31359">
        <ele>21</ele>
        <time>2019-10-11T12:14:51Z</time>
      </trkpt>
      <trkpt lat="47.13403" lon="-1.31356">
        <ele>21.1</ele>
        <time>2019-10-11T12:14:52Z</time>
      </trkpt>
      <trkpt lat="47.13401" lon="-1.31353">
        <ele>21.2</ele>
        <time>2019-10-11T12:14:53Z</time>
      </trkpt>
      <trkpt lat="47.13399" lon="-1.3135">
        <ele>21.3</ele>
        <time>2019-10-11T12:14:54Z</time>
      </trkpt>
      <trkpt lat="47.13397" lon="-1.31347">
        <ele>21.4</ele>
        <time>2019-10-11T12:14:55Z</time>
      </trkpt>
      <trkpt lat="47.13395" lon="-1.31344">
        <ele>21.5</ele>
        <time>2019-10-11T12:14:56Z</time>
      </trkpt>
      <trkpt lat="47.13392" lon="-1.31341">
        <ele>21.6</ele>
        <time>2019-10-11T12:14:57Z</time>
      </trkpt>
      <trkpt lat="47.1339" lon="-1.31338">
        <ele>21.7</ele>
        <time>2019-10-11T12:14:58Z</time>
      </trkpt>
      <trkpt lat="47.13388" lon="-1.31335">
        <ele>21.9</ele>
        <time>2019-10-11T12:14:59Z</time>
      </trkpt>
      <trkpt lat="47.13386" lon="-1.31332">
        <ele>22</ele>
        <time>2019-10-11T12:15:00Z</time>
      </trkpt>
      <trkpt lat="47.13384" lon="-1.31329">
        <ele>22.1</ele>
        <time>2019-10-11T12:15:01Z</time>
      </trkpt>
      <trkpt lat="47.13382" lon="-1.31326">
        <ele>22.2</ele>
        <time>2019-10-11T12:15:02Z</time>
      </trkpt>
      <trkpt lat="47.13379" lon="-1.31323">
        <ele>22.2</ele>
        <time>2019-10-11T12:15:03Z</time>
      </trkpt>
      <trkpt lat="47.13377" lon="-1.3132">
        <ele>22.3</ele>
        <time>2019-10-11T12:15:04Z</time>
      </trkpt>
      <trkpt lat="47.13375" lon="-1.31317">
        <ele>22.4</ele>
        <time>2019-10-11T12:15:05Z</time>
      </trkpt>
      <trkpt lat="47.13373" lon="-1.31314">
        <ele>22.5</ele>
        <time>2019-10-11T12:15:06Z</time>
      </trkpt>
      <trkpt lat="47.1337" lon="-1.3131">
        <ele>22.6</ele>
        <time>2019-10-11T12:15:07Z</time>
      </trkpt>
      <trkpt lat="47.13368" lon="-1.31307">
        <ele>22.7</ele>
        <time>2019-10-11T12:15:08Z</time>
      </trkpt>
      <trkpt lat="47.13365" lon="-1.31304">
        <ele>22.9</ele>
        <time>2019-10-11T12:15:09Z</time>
      </trkpt>
      <trkpt lat="47.13363" lon="-1.31301">
        <ele>23</ele>
        <time>2019-10-11T12:15:10Z</time>
      </trkpt>
      <trkpt lat="47.1336" lon="-1.31299">
        <ele>23.1</ele>
        <time>2019-10-11T12:15:11Z</time>
      </trkpt>
      <trkpt lat="47.13357" lon="-1.31296">
        <ele>23.2</ele>
        <time>2019-10-11T12:15:12Z</time>
      </trkpt>
      <trkpt lat="47.13355" lon="-1.31294">
        <ele>23.4</ele>
        <time>2019-10-11T12:15:13Z</time>
      </trkpt>
      <trkpt lat="47.13351" lon="-1.31292">
        <ele>23.6</ele>
        <time>2019-10-11T12:15:14Z</time>
      </trkpt>
      <trkpt lat="47.13348" lon="-1.3129">
        <ele>23.7</ele>
        <time>2019-10-11T12:15:15Z</time>
      </trkpt>
      <trkpt lat="47.13345" lon="-1.31288">
        <ele>23.8</ele>
        <time>2019-10-11T12:15:16Z</time>
      </trkpt>
      <trkpt lat="47.13341" lon="-1.31286">
        <ele>23.9</ele>
        <time>2019-10-11T12:15:17Z</time>
      </trkpt>
      <trkpt lat="47.13338" lon="-1.31285">
        <ele>24</ele>
        <time>2019-10-11T12:15:18Z</time>
      </trkpt>
      <trkpt lat="47.13335" lon="-1.31284">
        <ele>24.1</ele>
        <time>2019-10-11T12:15:19Z</time>
      </trkpt>
      <trkpt lat="47.13331" lon="-1.31283">
        <ele>24.4</ele>
        <time>2019-10-11T12:15:20Z</time>
      </trkpt>
      <trkpt lat="47.13328" lon="-1.31283">
        <ele>24.6</ele>
        <time>2019-10-11T12:15:21Z</time>
      </trkpt>
      <trkpt lat="47.13324" lon="-1.31282">
        <ele>24.8</ele>
        <time>2019-10-11T12:15:22Z</time>
      </trkpt>
      <trkpt lat="47.13321" lon="-1.31281">
        <ele>24.9</ele>
        <time>2019-10-11T12:15:23Z</time>
      </trkpt>
      <trkpt lat="47.13319" lon="-1.3128">
        <ele>25.1</ele>
        <time>2019-10-11T12:15:24Z</time>
      </trkpt>
      <trkpt lat="47.13314" lon="-1.31279">
        <ele>25.3</ele>
        <time>2019-10-11T12:15:26Z</time>
      </trkpt>
      <trkpt lat="47.13309" lon="-1.31279">
        <ele>25.5</ele>
        <time>2019-10-11T12:15:28Z</time>
      </trkpt>
      <trkpt lat="47.13306" lon="-1.31278">
        <ele>25.7</ele>
        <time>2019-10-11T12:15:29Z</time>
      </trkpt>
      <trkpt lat="47.13303" lon="-1.31277">
        <ele>25.8</ele>
        <time>2019-10-11T12:15:30Z</time>
      </trkpt>
      <trkpt lat="47.133" lon="-1.31276">
        <ele>26</ele>
        <time>2019-10-11T12:15:31Z</time>
      </trkpt>
      <trkpt lat="47.13297" lon="-1.31276">
        <ele>26.1</ele>
        <time>2019-10-11T12:15:32Z</time>
      </trkpt>
      <trkpt lat="47.13294" lon="-1.31275">
        <ele>26.3</ele>
        <time>2019-10-11T12:15:33Z</time>
      </trkpt>
      <trkpt lat="47.13289" lon="-1.31276">
        <ele>26.3</ele>
        <time>2019-10-11T12:15:35Z</time>
      </trkpt>
      <trkpt lat="47.13286" lon="-1.3128">
        <ele>26.3</ele>
        <time>2019-10-11T12:15:37Z</time>
      </trkpt>
      <trkpt lat="47.13285" lon="-1.31285">
        <ele>26.4</ele>
        <time>2019-10-11T12:15:41Z</time>
      </trkpt>
      <trkpt lat="47.13283" lon="-1.31282">
        <ele>26.4</ele>
        <time>2019-10-11T12:15:44Z</time>
      </trkpt>
      <trkpt lat="47.13282" lon="-1.31276">
        <ele>26.4</ele>
        <time>2019-10-11T12:15:46Z</time>
      </trkpt>
      <trkpt lat="47.1328" lon="-1.31272">
        <ele>26.4</ele>
        <time>2019-10-11T12:15:47Z</time>
      </trkpt>
      <trkpt lat="47.13277" lon="-1.31272">
        <ele>26.5</ele>
        <time>2019-10-11T12:15:48Z</time>
      </trkpt>
      <trkpt lat="47.13272" lon="-1.31273">
        <ele>26.6</ele>
        <time>2019-10-11T12:15:50Z</time>
      </trkpt>
      <trkpt lat="47.13266" lon="-1.31273">
        <ele>26.7</ele>
        <time>2019-10-11T12:15:52Z</time>
      </trkpt>
      <trkpt lat="47.13261" lon="-1.31273">
        <ele>26.9</ele>
        <time>2019-10-11T12:15:54Z</time>
      </trkpt>
      <trkpt lat="47.13256" lon="-1.31273">
        <ele>26.9</ele>
        <time>2019-10-11T12:15:56Z</time>
      </trkpt>
      <trkpt lat="47.13252" lon="-1.3127">
        <ele>26.9</ele>
        <time>2019-10-11T12:15:58Z</time>
      </trkpt>
      <trkpt lat="47.13255" lon="-1.31268">
        <ele>26.8</ele>
        <time>2019-10-11T12:16:00Z</time>
      </trkpt>
      <trkpt lat="47.1326" lon="-1.31268">
        <ele>26.7</ele>
        <time>2019-10-11T12:16:02Z</time>
      </trkpt>
      <trkpt lat="47.13264" lon="-1.31269">
        <ele>26.6</ele>
        <time>2019-10-11T12:16:03Z</time>
      </trkpt>
      <trkpt lat="47.13267" lon="-1.31269">
        <ele>26.6</ele>
        <time>2019-10-11T12:16:04Z</time>
      </trkpt>
      <trkpt lat="47.1327" lon="-1.31269">
        <ele>26.5</ele>
        <time>2019-10-11T12:16:05Z</time>
      </trkpt>
      <trkpt lat="47.13273" lon="-1.3127">
        <ele>26.4</ele>
        <time>2019-10-11T12:16:06Z</time>
      </trkpt>
      <trkpt lat="47.13276" lon="-1.31271">
        <ele>26.4</ele>
        <time>2019-10-11T12:16:07Z</time>
      </trkpt>
      <trkpt lat="47.13279" lon="-1.31273">
        <ele>26.4</ele>
        <time>2019-10-11T12:16:08Z</time>
      </trkpt>
      <trkpt lat="47.13282" lon="-1.31277">
        <ele>26.5</ele>
        <time>2019-10-11T12:16:09Z</time>
      </trkpt>
      <trkpt lat="47.13283" lon="-1.3128">
        <ele>26.6</ele>
        <time>2019-10-11T12:16:10Z</time>
      </trkpt>
      <trkpt lat="47.13283" lon="-1.31285">
        <ele>26.7</ele>
        <time>2019-10-11T12:16:11Z</time>
      </trkpt>
      <trkpt lat="47.13283" lon="-1.31289">
        <ele>26.8</ele>
        <time>2019-10-11T12:16:12Z</time>
      </trkpt>
      <trkpt lat="47.13283" lon="-1.31294">
        <ele>26.9</ele>
        <time>2019-10-11T12:16:13Z</time>
      </trkpt>
      <trkpt lat="47.13283" lon="-1.31298">
        <ele>27</ele>
        <time>2019-10-11T12:16:14Z</time>
      </trkpt>
      <trkpt lat="47.13283" lon="-1.31303">
        <ele>27.1</ele>
        <time>2019-10-11T12:16:15Z</time>
      </trkpt>
      <trkpt lat="47.13282" lon="-1.3131">
        <ele>27.3</ele>
        <time>2019-10-11T12:16:17Z</time>
      </trkpt>
      <trkpt lat="47.13282" lon="-1.31314">
        <ele>27.4</ele>
        <time>2019-10-11T12:16:18Z</time>
      </trkpt>
      <trkpt lat="47.13282" lon="-1.31319">
        <ele>27.6</ele>
        <time>2019-10-11T12:16:19Z</time>
      </trkpt>
      <trkpt lat="47.13282" lon="-1.31323">
        <ele>27.7</ele>
        <time>2019-10-11T12:16:20Z</time>
      </trkpt>
      <trkpt lat="47.13283" lon="-1.31331">
        <ele>27.9</ele>
        <time>2019-10-11T12:16:22Z</time>
      </trkpt>
      <trkpt lat="47.13284" lon="-1.31336">
        <ele>28.1</ele>
        <time>2019-10-11T12:16:23Z</time>
      </trkpt>
      <trkpt lat="47.13286" lon="-1.3134">
        <ele>28.5</ele>
        <time>2019-10-11T12:16:24Z</time>
      </trkpt>
      <trkpt lat="47.13287" lon="-1.31346">
        <ele>28.6</ele>
        <time>2019-10-11T12:16:25Z</time>
      </trkpt>
      <trkpt lat="47.13288" lon="-1.31351">
        <ele>28.6</ele>
        <time>2019-10-11T12:16:26Z</time>
      </trkpt>
      <trkpt lat="47.13289" lon="-1.31356">
        <ele>28.7</ele>
        <time>2019-10-11T12:16:27Z</time>
      </trkpt>
      <trkpt lat="47.1329" lon="-1.31361">
        <ele>28.7</ele>
        <time>2019-10-11T12:16:28Z</time>
      </trkpt>
      <trkpt lat="47.1329" lon="-1.31366">
        <ele>28.8</ele>
        <time>2019-10-11T12:16:29Z</time>
      </trkpt>
      <trkpt lat="47.1329" lon="-1.31372">
        <ele>28.8</ele>
        <time>2019-10-11T12:16:30Z</time>
      </trkpt>
      <trkpt lat="47.13291" lon="-1.31377">
        <ele>28.9</ele>
        <time>2019-10-11T12:16:31Z</time>
      </trkpt>
      <trkpt lat="47.13291" lon="-1.31382">
        <ele>29</ele>
        <time>2019-10-11T12:16:32Z</time>
      </trkpt>
      <trkpt lat="47.13291" lon="-1.31387">
        <ele>29</ele>
        <time>2019-10-11T12:16:33Z</time>
      </trkpt>
      <trkpt lat="47.13291" lon="-1.31392">
        <ele>29.1</ele>
        <time>2019-10-11T12:16:34Z</time>
      </trkpt>
      <trkpt lat="47.13292" lon="-1.31398">
        <ele>29.2</ele>
        <time>2019-10-11T12:16:35Z</time>
      </trkpt>
      <trkpt lat="47.13292" lon="-1.31402">
        <ele>29.2</ele>
        <time>2019-10-11T12:16:36Z</time>
      </trkpt>
      <trkpt lat="47.13292" lon="-1.31407">
        <ele>29.3</ele>
        <time>2019-10-11T12:16:37Z</time>
      </trkpt>
      <trkpt lat="47.13293" lon="-1.31412">
        <ele>29.3</ele>
        <time>2019-10-11T12:16:38Z</time>
      </trkpt>
      <trkpt lat="47.13293" lon="-1.31418">
        <ele>29.4</ele>
        <time>2019-10-11T12:16:39Z</time>
      </trkpt>
      <trkpt lat="47.13293" lon="-1.31422">
        <ele>29.4</ele>
        <time>2019-10-11T12:16:40Z</time>
      </trkpt>
      <trkpt lat="47.13293" lon="-1.31427">
        <ele>29.4</ele>
        <time>2019-10-11T12:16:41Z</time>
      </trkpt>
      <trkpt lat="47.13294" lon="-1.31431">
        <ele>29.4</ele>
        <time>2019-10-11T12:16:42Z</time>
      </trkpt>
      <trkpt lat="47.13293" lon="-1.31436">
        <ele>29.4</ele>
        <time>2019-10-11T12:16:43Z</time>
      </trkpt>
      <trkpt lat="47.13294" lon="-1.31441">
        <ele>29.4</ele>
        <time>2019-10-11T12:16:44Z</time>
      </trkpt>
      <trkpt lat="47.13295" lon="-1.31446">
        <ele>29.4</ele>
        <time>2019-10-11T12:16:45Z</time>
      </trkpt>
      <trkpt lat="47.13296" lon="-1.3145">
        <ele>29.4</ele>
        <time>2019-10-11T12:16:46Z</time>
      </trkpt>
      <trkpt lat="47.13297" lon="-1.31455">
        <ele>29.5</ele>
        <time>2019-10-11T12:16:47Z</time>
      </trkpt>
      <trkpt lat="47.13298" lon="-1.31459">
        <ele>29.5</ele>
        <time>2019-10-11T12:16:48Z</time>
      </trkpt>
      <trkpt lat="47.133" lon="-1.31463">
        <ele>29.5</ele>
        <time>2019-10-11T12:16:49Z</time>
      </trkpt>
      <trkpt lat="47.13301" lon="-1.31468">
        <ele>29.6</ele>
        <time>2019-10-11T12:16:50Z</time>
      </trkpt>
      <trkpt lat="47.13302" lon="-1.31472">
        <ele>29.6</ele>
        <time>2019-10-11T12:16:51Z</time>
      </trkpt>
      <trkpt lat="47.13303" lon="-1.31476">
        <ele>29.6</ele>
        <time>2019-10-11T12:16:52Z</time>
      </trkpt>
      <trkpt lat="47.13304" lon="-1.3148">
        <ele>29.7</ele>
        <time>2019-10-11T12:16:53Z</time>
      </trkpt>
      <trkpt lat="47.13307" lon="-1.31487">
        <ele>29.8</ele>
        <time>2019-10-11T12:16:55Z</time>
      </trkpt>
      <trkpt lat="47.13309" lon="-1.31491">
        <ele>29.9</ele>
        <time>2019-10-11T12:16:56Z</time>
      </trkpt>
      <trkpt lat="47.1331" lon="-1.31495">
        <ele>30</ele>
        <time>2019-10-11T12:16:57Z</time>
      </trkpt>
      <trkpt lat="47.13312" lon="-1.315">
        <ele>30.1</ele>
        <time>2019-10-11T12:16:58Z</time>
      </trkpt>
      <trkpt lat="47.13312" lon="-1.31504">
        <ele>30.2</ele>
        <time>2019-10-11T12:16:59Z</time>
      </trkpt>
      <trkpt lat="47.13312" lon="-1.31509">
        <ele>30.2</ele>
        <time>2019-10-11T12:17:00Z</time>
      </trkpt>
      <trkpt lat="47.13309" lon="-1.31515">
        <ele>30.2</ele>
        <time>2019-10-11T12:17:02Z</time>
      </trkpt>
      <trkpt lat="47.13307" lon="-1.31519">
        <ele>30.3</ele>
        <time>2019-10-11T12:17:03Z</time>
      </trkpt>
      <trkpt lat="47.13305" lon="-1.31523">
        <ele>30.3</ele>
        <time>2019-10-11T12:17:04Z</time>
      </trkpt>
      <trkpt lat="47.13303" lon="-1.31526">
        <ele>30.3</ele>
        <time>2019-10-11T12:17:05Z</time>
      </trkpt>
      <trkpt lat="47.13301" lon="-1.3153">
        <ele>30.3</ele>
        <time>2019-10-11T12:17:06Z</time>
      </trkpt>
      <trkpt lat="47.13299" lon="-1.31533">
        <ele>30.4</ele>
        <time>2019-10-11T12:17:07Z</time>
      </trkpt>
      <trkpt lat="47.13297" lon="-1.31537">
        <ele>30.4</ele>
        <time>2019-10-11T12:17:08Z</time>
      </trkpt>
      <trkpt lat="47.13295" lon="-1.3154">
        <ele>30.5</ele>
        <time>2019-10-11T12:17:09Z</time>
      </trkpt>
      <trkpt lat="47.13293" lon="-1.31544">
        <ele>30.5</ele>
        <time>2019-10-11T12:17:10Z</time>
      </trkpt>
      <trkpt lat="47.13292" lon="-1.31547">
        <ele>30.6</ele>
        <time>2019-10-11T12:17:11Z</time>
      </trkpt>
      <trkpt lat="47.13291" lon="-1.31555">
        <ele>30.7</ele>
        <time>2019-10-11T12:17:13Z</time>
      </trkpt>
      <trkpt lat="47.13291" lon="-1.31559">
        <ele>30.7</ele>
        <time>2019-10-11T12:17:14Z</time>
      </trkpt>
      <trkpt lat="47.13291" lon="-1.31563">
        <ele>30.8</ele>
        <time>2019-10-11T12:17:15Z</time>
      </trkpt>
      <trkpt lat="47.13292" lon="-1.31567">
        <ele>30.9</ele>
        <time>2019-10-11T12:17:16Z</time>
      </trkpt>
      <trkpt lat="47.13292" lon="-1.31572">
        <ele>30.9</ele>
        <time>2019-10-11T12:17:17Z</time>
      </trkpt>
      <trkpt lat="47.13293" lon="-1.31576">
        <ele>31</ele>
        <time>2019-10-11T12:17:18Z</time>
      </trkpt>
      <trkpt lat="47.13293" lon="-1.3158">
        <ele>31.1</ele>
        <time>2019-10-11T12:17:19Z</time>
      </trkpt>
      <trkpt lat="47.13294" lon="-1.31585">
        <ele>31</ele>
        <time>2019-10-11T12:17:20Z</time>
      </trkpt>
      <trkpt lat="47.13295" lon="-1.31589">
        <ele>31</ele>
        <time>2019-10-11T12:17:21Z</time>
      </trkpt>
      <trkpt lat="47.13295" lon="-1.31594">
        <ele>30.9</ele>
        <time>2019-10-11T12:17:22Z</time>
      </trkpt>
      <trkpt lat="47.13296" lon="-1.31599">
        <ele>30.9</ele>
        <time>2019-10-11T12:17:23Z</time>
      </trkpt>
      <trkpt lat="47.13297" lon="-1.31603">
        <ele>30.8</ele>
        <time>2019-10-11T12:17:24Z</time>
      </trkpt>
      <trkpt lat="47.13297" lon="-1.31608">
        <ele>30.8</ele>
        <time>2019-10-11T12:17:25Z</time>
      </trkpt>
      <trkpt lat="47.13298" lon="-1.31612">
        <ele>30.7</ele>
        <time>2019-10-11T12:17:26Z</time>
      </trkpt>
      <trkpt lat="47.13298" lon="-1.31617">
        <ele>30.7</ele>
        <time>2019-10-11T12:17:27Z</time>
      </trkpt>
      <trkpt lat="47.13299" lon="-1.31622">
        <ele>30.6</ele>
        <time>2019-10-11T12:17:28Z</time>
      </trkpt>
      <trkpt lat="47.133" lon="-1.31627">
        <ele>30.6</ele>
        <time>2019-10-11T12:17:29Z</time>
      </trkpt>
      <trkpt lat="47.13301" lon="-1.31631">
        <ele>30.5</ele>
        <time>2019-10-11T12:17:30Z</time>
      </trkpt>
      <trkpt lat="47.13301" lon="-1.31636">
        <ele>30.5</ele>
        <time>2019-10-11T12:17:31Z</time>
      </trkpt>
      <trkpt lat="47.13302" lon="-1.3164">
        <ele>30.5</ele>
        <time>2019-10-11T12:17:32Z</time>
      </trkpt>
      <trkpt lat="47.13302" lon="-1.31645">
        <ele>30.4</ele>
        <time>2019-10-11T12:17:33Z</time>
      </trkpt>
      <trkpt lat="47.13303" lon="-1.3165">
        <ele>30.4</ele>
        <time>2019-10-11T12:17:34Z</time>
      </trkpt>
      <trkpt lat="47.13304" lon="-1.31655">
        <ele>30.3</ele>
        <time>2019-10-11T12:17:35Z</time>
      </trkpt>
      <trkpt lat="47.13304" lon="-1.3166">
        <ele>30.2</ele>
        <time>2019-10-11T12:17:36Z</time>
      </trkpt>
      <trkpt lat="47.13305" lon="-1.31664">
        <ele>30.2</ele>
        <time>2019-10-11T12:17:37Z</time>
      </trkpt>
      <trkpt lat="47.13305" lon="-1.31669">
        <ele>30.1</ele>
        <time>2019-10-11T12:17:38Z</time>
      </trkpt>
      <trkpt lat="47.13306" lon="-1.31674">
        <ele>30.1</ele>
        <time>2019-10-11T12:17:39Z</time>
      </trkpt>
      <trkpt lat="47.13306" lon="-1.31679">
        <ele>30</ele>
        <time>2019-10-11T12:17:40Z</time>
      </trkpt>
      <trkpt lat="47.13307" lon="-1.31684">
        <ele>30</ele>
        <time>2019-10-11T12:17:41Z</time>
      </trkpt>
      <trkpt lat="47.13307" lon="-1.31689">
        <ele>29.9</ele>
        <time>2019-10-11T12:17:42Z</time>
      </trkpt>
      <trkpt lat="47.13307" lon="-1.31694">
        <ele>29.9</ele>
        <time>2019-10-11T12:17:43Z</time>
      </trkpt>
      <trkpt lat="47.13307" lon="-1.31699">
        <ele>29.8</ele>
        <time>2019-10-11T12:17:44Z</time>
      </trkpt>
      <trkpt lat="47.13308" lon="-1.31704">
        <ele>29.7</ele>
        <time>2019-10-11T12:17:45Z</time>
      </trkpt>
      <trkpt lat="47.13309" lon="-1.31709">
        <ele>29.7</ele>
        <time>2019-10-11T12:17:46Z</time>
      </trkpt>
      <trkpt lat="47.13309" lon="-1.31714">
        <ele>29.6</ele>
        <time>2019-10-11T12:17:47Z</time>
      </trkpt>
      <trkpt lat="47.1331" lon="-1.31719">
        <ele>29.5</ele>
        <time>2019-10-11T12:17:48Z</time>
      </trkpt>
      <trkpt lat="47.1331" lon="-1.31724">
        <ele>29.4</ele>
        <time>2019-10-11T12:17:49Z</time>
      </trkpt>
      <trkpt lat="47.1331" lon="-1.31729">
        <ele>29.4</ele>
        <time>2019-10-11T12:17:50Z</time>
      </trkpt>
      <trkpt lat="47.1331" lon="-1.31734">
        <ele>29.3</ele>
        <time>2019-10-11T12:17:51Z</time>
      </trkpt>
      <trkpt lat="47.1331" lon="-1.3174">
        <ele>29.2</ele>
        <time>2019-10-11T12:17:52Z</time>
      </trkpt>
      <trkpt lat="47.1331" lon="-1.31746">
        <ele>29.1</ele>
        <time>2019-10-11T12:17:53Z</time>
      </trkpt>
      <trkpt lat="47.1331" lon="-1.31752">
        <ele>28.9</ele>
        <time>2019-10-11T12:17:54Z</time>
      </trkpt>
      <trkpt lat="47.1331" lon="-1.31757">
        <ele>28.8</ele>
        <time>2019-10-11T12:17:55Z</time>
      </trkpt>
      <trkpt lat="47.1331" lon="-1.31764">
        <ele>28.5</ele>
        <time>2019-10-11T12:17:56Z</time>
      </trkpt>
      <trkpt lat="47.13309" lon="-1.3177">
        <ele>28.4</ele>
        <time>2019-10-11T12:17:57Z</time>
      </trkpt>
      <trkpt lat="47.1331" lon="-1.31776">
        <ele>28.1</ele>
        <time>2019-10-11T12:17:58Z</time>
      </trkpt>
      <trkpt lat="47.1331" lon="-1.31782">
        <ele>27.9</ele>
        <time>2019-10-11T12:17:59Z</time>
      </trkpt>
      <trkpt lat="47.1331" lon="-1.31789">
        <ele>27.7</ele>
        <time>2019-10-11T12:18:00Z</time>
      </trkpt>
      <trkpt lat="47.13311" lon="-1.31796">
        <ele>27.5</ele>
        <time>2019-10-11T12:18:01Z</time>
      </trkpt>
      <trkpt lat="47.13312" lon="-1.31804">
        <ele>27.3</ele>
        <time>2019-10-11T12:18:02Z</time>
      </trkpt>
      <trkpt lat="47.13312" lon="-1.31812">
        <ele>27.1</ele>
        <time>2019-10-11T12:18:03Z</time>
      </trkpt>
      <trkpt lat="47.13313" lon="-1.3182">
        <ele>26.9</ele>
        <time>2019-10-11T12:18:04Z</time>
      </trkpt>
      <trkpt lat="47.13314" lon="-1.31829">
        <ele>26.7</ele>
        <time>2019-10-11T12:18:05Z</time>
      </trkpt>
      <trkpt lat="47.13315" lon="-1.31837">
        <ele>26.5</ele>
        <time>2019-10-11T12:18:06Z</time>
      </trkpt>
      <trkpt lat="47.13316" lon="-1.31846">
        <ele>26.3</ele>
        <time>2019-10-11T12:18:07Z</time>
      </trkpt>
      <trkpt lat="47.13318" lon="-1.31855">
        <ele>26.1</ele>
        <time>2019-10-11T12:18:08Z</time>
      </trkpt>
      <trkpt lat="47.1332" lon="-1.31864">
        <ele>25.9</ele>
        <time>2019-10-11T12:18:09Z</time>
      </trkpt>
      <trkpt lat="47.13321" lon="-1.31872">
        <ele>25.7</ele>
        <time>2019-10-11T12:18:10Z</time>
      </trkpt>
      <trkpt lat="47.13323" lon="-1.3188">
        <ele>25.5</ele>
        <time>2019-10-11T12:18:11Z</time>
      </trkpt>
      <trkpt lat="47.13325" lon="-1.31889">
        <ele>25.4</ele>
        <time>2019-10-11T12:18:12Z</time>
      </trkpt>
      <trkpt lat="47.13327" lon="-1.31897">
        <ele>25.2</ele>
        <time>2019-10-11T12:18:13Z</time>
      </trkpt>
      <trkpt lat="47.13328" lon="-1.31906">
        <ele>25.1</ele>
        <time>2019-10-11T12:18:14Z</time>
      </trkpt>
      <trkpt lat="47.1333" lon="-1.31914">
        <ele>24.9</ele>
        <time>2019-10-11T12:18:15Z</time>
      </trkpt>
      <trkpt lat="47.13331" lon="-1.31922">
        <ele>24.8</ele>
        <time>2019-10-11T12:18:16Z</time>
      </trkpt>
      <trkpt lat="47.13332" lon="-1.31932">
        <ele>24.6</ele>
        <time>2019-10-11T12:18:17Z</time>
      </trkpt>
      <trkpt lat="47.13334" lon="-1.31941">
        <ele>24.5</ele>
        <time>2019-10-11T12:18:18Z</time>
      </trkpt>
      <trkpt lat="47.13335" lon="-1.31949">
        <ele>24.4</ele>
        <time>2019-10-11T12:18:19Z</time>
      </trkpt>
      <trkpt lat="47.13336" lon="-1.31957">
        <ele>24.3</ele>
        <time>2019-10-11T12:18:20Z</time>
      </trkpt>
      <trkpt lat="47.13337" lon="-1.31965">
        <ele>24.3</ele>
        <time>2019-10-11T12:18:21Z</time>
      </trkpt>
      <trkpt lat="47.13338" lon="-1.31973">
        <ele>24.3</ele>
        <time>2019-10-11T12:18:22Z</time>
      </trkpt>
      <trkpt lat="47.13339" lon="-1.31983">
        <ele>24.3</ele>
        <time>2019-10-11T12:18:23Z</time>
      </trkpt>
      <trkpt lat="47.13341" lon="-1.31992">
        <ele>24.3</ele>
        <time>2019-10-11T12:18:24Z</time>
      </trkpt>
      <trkpt lat="47.13342" lon="-1.31999">
        <ele>24.3</ele>
        <time>2019-10-11T12:18:25Z</time>
      </trkpt>
      <trkpt lat="47.13342" lon="-1.32008">
        <ele>24.4</ele>
        <time>2019-10-11T12:18:26Z</time>
      </trkpt>
      <trkpt lat="47.13343" lon="-1.32016">
        <ele>24.5</ele>
        <time>2019-10-11T12:18:27Z</time>
      </trkpt>
      <trkpt lat="47.13343" lon="-1.32021">
        <ele>24.5</ele>
        <time>2019-10-11T12:18:28Z</time>
      </trkpt>
      <trkpt lat="47.13343" lon="-1.32026">
        <ele>24.5</ele>
        <time>2019-10-11T12:18:29Z</time>
      </trkpt>
      <trkpt lat="47.13343" lon="-1.32034">
        <ele>24.5</ele>
        <time>2019-10-11T12:18:30Z</time>
      </trkpt>
      <trkpt lat="47.13343" lon="-1.32041">
        <ele>24.5</ele>
        <time>2019-10-11T12:18:31Z</time>
      </trkpt>
      <trkpt lat="47.13344" lon="-1.32049">
        <ele>24.5</ele>
        <time>2019-10-11T12:18:32Z</time>
      </trkpt>
      <trkpt lat="47.13346" lon="-1.32056">
        <ele>24.5</ele>
        <time>2019-10-11T12:18:33Z</time>
      </trkpt>
      <trkpt lat="47.13347" lon="-1.32064">
        <ele>24.4</ele>
        <time>2019-10-11T12:18:34Z</time>
      </trkpt>
      <trkpt lat="47.13349" lon="-1.32071">
        <ele>24.3</ele>
        <time>2019-10-11T12:18:35Z</time>
      </trkpt>
      <trkpt lat="47.13351" lon="-1.3208">
        <ele>24.2</ele>
        <time>2019-10-11T12:18:36Z</time>
      </trkpt>
      <trkpt lat="47.13353" lon="-1.32088">
        <ele>24.2</ele>
        <time>2019-10-11T12:18:37Z</time>
      </trkpt>
      <trkpt lat="47.13355" lon="-1.32096">
        <ele>24.2</ele>
        <time>2019-10-11T12:18:38Z</time>
      </trkpt>
      <trkpt lat="47.13357" lon="-1.32105">
        <ele>24.3</ele>
        <time>2019-10-11T12:18:39Z</time>
      </trkpt>
      <trkpt lat="47.13359" lon="-1.32114">
        <ele>24.4</ele>
        <time>2019-10-11T12:18:40Z</time>
      </trkpt>
      <trkpt lat="47.13361" lon="-1.32123">
        <ele>24.5</ele>
        <time>2019-10-11T12:18:41Z</time>
      </trkpt>
      <trkpt lat="47.13363" lon="-1.32131">
        <ele>24.7</ele>
        <time>2019-10-11T12:18:42Z</time>
      </trkpt>
      <trkpt lat="47.13364" lon="-1.32139">
        <ele>24.8</ele>
        <time>2019-10-11T12:18:43Z</time>
      </trkpt>
      <trkpt lat="47.13366" lon="-1.32147">
        <ele>24.9</ele>
        <time>2019-10-11T12:18:44Z</time>
      </trkpt>
      <trkpt lat="47.13368" lon="-1.32155">
        <ele>25</ele>
        <time>2019-10-11T12:18:45Z</time>
      </trkpt>
      <trkpt lat="47.1337" lon="-1.32163">
        <ele>25.1</ele>
        <time>2019-10-11T12:18:46Z</time>
      </trkpt>
      <trkpt lat="47.13372" lon="-1.3217">
        <ele>25.1</ele>
        <time>2019-10-11T12:18:47Z</time>
      </trkpt>
      <trkpt lat="47.13374" lon="-1.32178">
        <ele>25.1</ele>
        <time>2019-10-11T12:18:48Z</time>
      </trkpt>
      <trkpt lat="47.13375" lon="-1.32185">
        <ele>25.2</ele>
        <time>2019-10-11T12:18:49Z</time>
      </trkpt>
      <trkpt lat="47.13376" lon="-1.32192">
        <ele>25.2</ele>
        <time>2019-10-11T12:18:50Z</time>
      </trkpt>
      <trkpt lat="47.13377" lon="-1.322">
        <ele>25.2</ele>
        <time>2019-10-11T12:18:51Z</time>
      </trkpt>
      <trkpt lat="47.13377" lon="-1.32207">
        <ele>25.2</ele>
        <time>2019-10-11T12:18:52Z</time>
      </trkpt>
      <trkpt lat="47.13378" lon="-1.32215">
        <ele>25.1</ele>
        <time>2019-10-11T12:18:53Z</time>
      </trkpt>
      <trkpt lat="47.13379" lon="-1.32222">
        <ele>24.9</ele>
        <time>2019-10-11T12:18:54Z</time>
      </trkpt>
      <trkpt lat="47.13379" lon="-1.32229">
        <ele>24.7</ele>
        <time>2019-10-11T12:18:55Z</time>
      </trkpt>
      <trkpt lat="47.1338" lon="-1.32237">
        <ele>24.5</ele>
        <time>2019-10-11T12:18:56Z</time>
      </trkpt>
      <trkpt lat="47.13381" lon="-1.32244">
        <ele>24.5</ele>
        <time>2019-10-11T12:18:57Z</time>
      </trkpt>
      <trkpt lat="47.13382" lon="-1.32251">
        <ele>24.5</ele>
        <time>2019-10-11T12:18:58Z</time>
      </trkpt>
      <trkpt lat="47.13384" lon="-1.32259">
        <ele>24.6</ele>
        <time>2019-10-11T12:18:59Z</time>
      </trkpt>
      <trkpt lat="47.13385" lon="-1.32265">
        <ele>24.7</ele>
        <time>2019-10-11T12:19:00Z</time>
      </trkpt>
      <trkpt lat="47.13386" lon="-1.32272">
        <ele>24.8</ele>
        <time>2019-10-11T12:19:01Z</time>
      </trkpt>
      <trkpt lat="47.13388" lon="-1.32279">
        <ele>24.9</ele>
        <time>2019-10-11T12:19:02Z</time>
      </trkpt>
      <trkpt lat="47.13389" lon="-1.32286">
        <ele>25</ele>
        <time>2019-10-11T12:19:03Z</time>
      </trkpt>
      <trkpt lat="47.1339" lon="-1.32292">
        <ele>25.1</ele>
        <time>2019-10-11T12:19:04Z</time>
      </trkpt>
      <trkpt lat="47.13392" lon="-1.32298">
        <ele>25.1</ele>
        <time>2019-10-11T12:19:05Z</time>
      </trkpt>
      <trkpt lat="47.13393" lon="-1.32305">
        <ele>25.1</ele>
        <time>2019-10-11T12:19:06Z</time>
      </trkpt>
      <trkpt lat="47.13394" lon="-1.32311">
        <ele>25.1</ele>
        <time>2019-10-11T12:19:07Z</time>
      </trkpt>
      <trkpt lat="47.13396" lon="-1.32318">
        <ele>25.1</ele>
        <time>2019-10-11T12:19:08Z</time>
      </trkpt>
      <trkpt lat="47.13398" lon="-1.32325">
        <ele>25.1</ele>
        <time>2019-10-11T12:19:09Z</time>
      </trkpt>
      <trkpt lat="47.134" lon="-1.32332">
        <ele>25.1</ele>
        <time>2019-10-11T12:19:10Z</time>
      </trkpt>
      <trkpt lat="47.13402" lon="-1.32338">
        <ele>25.1</ele>
        <time>2019-10-11T12:19:11Z</time>
      </trkpt>
      <trkpt lat="47.13405" lon="-1.32344">
        <ele>25.1</ele>
        <time>2019-10-11T12:19:12Z</time>
      </trkpt>
      <trkpt lat="47.13408" lon="-1.3235">
        <ele>25.1</ele>
        <time>2019-10-11T12:19:13Z</time>
      </trkpt>
      <trkpt lat="47.13411" lon="-1.32356">
        <ele>25</ele>
        <time>2019-10-11T12:19:14Z</time>
      </trkpt>
      <trkpt lat="47.13414" lon="-1.32362">
        <ele>25</ele>
        <time>2019-10-11T12:19:15Z</time>
      </trkpt>
      <trkpt lat="47.13418" lon="-1.32369">
        <ele>25</ele>
        <time>2019-10-11T12:19:16Z</time>
      </trkpt>
      <trkpt lat="47.13421" lon="-1.32375">
        <ele>25.1</ele>
        <time>2019-10-11T12:19:17Z</time>
      </trkpt>
      <trkpt lat="47.13424" lon="-1.32381">
        <ele>25.2</ele>
        <time>2019-10-11T12:19:18Z</time>
      </trkpt>
      <trkpt lat="47.13428" lon="-1.32387">
        <ele>25.3</ele>
        <time>2019-10-11T12:19:19Z</time>
      </trkpt>
      <trkpt lat="47.13431" lon="-1.32393">
        <ele>25.4</ele>
        <time>2019-10-11T12:19:20Z</time>
      </trkpt>
      <trkpt lat="47.13434" lon="-1.324">
        <ele>25.5</ele>
        <time>2019-10-11T12:19:21Z</time>
      </trkpt>
      <trkpt lat="47.13437" lon="-1.32406">
        <ele>25.6</ele>
        <time>2019-10-11T12:19:22Z</time>
      </trkpt>
      <trkpt lat="47.1344" lon="-1.32412">
        <ele>25.6</ele>
        <time>2019-10-11T12:19:23Z</time>
      </trkpt>
      <trkpt lat="47.13443" lon="-1.32418">
        <ele>25.6</ele>
        <time>2019-10-11T12:19:24Z</time>
      </trkpt>
      <trkpt lat="47.13446" lon="-1.32423">
        <ele>25.5</ele>
        <time>2019-10-11T12:19:25Z</time>
      </trkpt>
      <trkpt lat="47.1345" lon="-1.32429">
        <ele>25.5</ele>
        <time>2019-10-11T12:19:26Z</time>
      </trkpt>
      <trkpt lat="47.13453" lon="-1.32435">
        <ele>25.4</ele>
        <time>2019-10-11T12:19:27Z</time>
      </trkpt>
      <trkpt lat="47.13456" lon="-1.32441">
        <ele>25.3</ele>
        <time>2019-10-11T12:19:28Z</time>
      </trkpt>
      <trkpt lat="47.13459" lon="-1.32447">
        <ele>25.1</ele>
        <time>2019-10-11T12:19:29Z</time>
      </trkpt>
      <trkpt lat="47.13463" lon="-1.32452">
        <ele>25</ele>
        <time>2019-10-11T12:19:30Z</time>
      </trkpt>
      <trkpt lat="47.13466" lon="-1.32458">
        <ele>24.8</ele>
        <time>2019-10-11T12:19:31Z</time>
      </trkpt>
      <trkpt lat="47.1347" lon="-1.32464">
        <ele>24.7</ele>
        <time>2019-10-11T12:19:32Z</time>
      </trkpt>
      <trkpt lat="47.13473" lon="-1.3247">
        <ele>24.6</ele>
        <time>2019-10-11T12:19:33Z</time>
      </trkpt>
      <trkpt lat="47.13477" lon="-1.32477">
        <ele>24.5</ele>
        <time>2019-10-11T12:19:34Z</time>
      </trkpt>
      <trkpt lat="47.1348" lon="-1.32482">
        <ele>24.4</ele>
        <time>2019-10-11T12:19:35Z</time>
      </trkpt>
      <trkpt lat="47.13484" lon="-1.32489">
        <ele>24.3</ele>
        <time>2019-10-11T12:19:36Z</time>
      </trkpt>
      <trkpt lat="47.13487" lon="-1.32494">
        <ele>24.2</ele>
        <time>2019-10-11T12:19:37Z</time>
      </trkpt>
      <trkpt lat="47.13491" lon="-1.32501">
        <ele>24.2</ele>
        <time>2019-10-11T12:19:38Z</time>
      </trkpt>
      <trkpt lat="47.13495" lon="-1.32507">
        <ele>24.2</ele>
        <time>2019-10-11T12:19:39Z</time>
      </trkpt>
      <trkpt lat="47.13498" lon="-1.32513">
        <ele>24.1</ele>
        <time>2019-10-11T12:19:40Z</time>
      </trkpt>
      <trkpt lat="47.13501" lon="-1.3252">
        <ele>24.1</ele>
        <time>2019-10-11T12:19:41Z</time>
      </trkpt>
      <trkpt lat="47.13504" lon="-1.32527">
        <ele>24</ele>
        <time>2019-10-11T12:19:42Z</time>
      </trkpt>
      <trkpt lat="47.13507" lon="-1.32533">
        <ele>23.9</ele>
        <time>2019-10-11T12:19:43Z</time>
      </trkpt>
      <trkpt lat="47.13509" lon="-1.3254">
        <ele>23.8</ele>
        <time>2019-10-11T12:19:44Z</time>
      </trkpt>
      <trkpt lat="47.1351" lon="-1.32547">
        <ele>23.7</ele>
        <time>2019-10-11T12:19:45Z</time>
      </trkpt>
      <trkpt lat="47.13511" lon="-1.32555">
        <ele>23.5</ele>
        <time>2019-10-11T12:19:46Z</time>
      </trkpt>
      <trkpt lat="47.13511" lon="-1.32563">
        <ele>23.4</ele>
        <time>2019-10-11T12:19:47Z</time>
      </trkpt>
      <trkpt lat="47.1351" lon="-1.3257">
        <ele>23.2</ele>
        <time>2019-10-11T12:19:48Z</time>
      </trkpt>
      <trkpt lat="47.13509" lon="-1.32578">
        <ele>23</ele>
        <time>2019-10-11T12:19:49Z</time>
      </trkpt>
      <trkpt lat="47.13507" lon="-1.32586">
        <ele>22.8</ele>
        <time>2019-10-11T12:19:50Z</time>
      </trkpt>
      <trkpt lat="47.13505" lon="-1.32594">
        <ele>22.6</ele>
        <time>2019-10-11T12:19:51Z</time>
      </trkpt>
      <trkpt lat="47.13503" lon="-1.32603">
        <ele>22.5</ele>
        <time>2019-10-11T12:19:52Z</time>
      </trkpt>
      <trkpt lat="47.13502" lon="-1.32611">
        <ele>22.3</ele>
        <time>2019-10-11T12:19:53Z</time>
      </trkpt>
      <trkpt lat="47.135" lon="-1.32619">
        <ele>22.1</ele>
        <time>2019-10-11T12:19:54Z</time>
      </trkpt>
      <trkpt lat="47.13498" lon="-1.32627">
        <ele>21.8</ele>
        <time>2019-10-11T12:19:55Z</time>
      </trkpt>
      <trkpt lat="47.13497" lon="-1.32635">
        <ele>21.4</ele>
        <time>2019-10-11T12:19:56Z</time>
      </trkpt>
      <trkpt lat="47.13496" lon="-1.32643">
        <ele>21.2</ele>
        <time>2019-10-11T12:19:57Z</time>
      </trkpt>
      <trkpt lat="47.13496" lon="-1.3265">
        <ele>21</ele>
        <time>2019-10-11T12:19:58Z</time>
      </trkpt>
      <trkpt lat="47.13496" lon="-1.32656">
        <ele>20.9</ele>
        <time>2019-10-11T12:19:59Z</time>
      </trkpt>
      <trkpt lat="47.13496" lon="-1.3266">
        <ele>20.8</ele>
        <time>2019-10-11T12:20:00Z</time>
      </trkpt>
      <trkpt lat="47.13496" lon="-1.32665">
        <ele>20.7</ele>
        <time>2019-10-11T12:20:01Z</time>
      </trkpt>
      <trkpt lat="47.13497" lon="-1.32669">
        <ele>20.3</ele>
        <time>2019-10-11T12:20:02Z</time>
      </trkpt>
      <trkpt lat="47.13498" lon="-1.32674">
        <ele>20.2</ele>
        <time>2019-10-11T12:20:03Z</time>
      </trkpt>
      <trkpt lat="47.135" lon="-1.32679">
        <ele>20</ele>
        <time>2019-10-11T12:20:04Z</time>
      </trkpt>
      <trkpt lat="47.13502" lon="-1.32683">
        <ele>19.9</ele>
        <time>2019-10-11T12:20:05Z</time>
      </trkpt>
      <trkpt lat="47.13505" lon="-1.32689">
        <ele>19.7</ele>
        <time>2019-10-11T12:20:06Z</time>
      </trkpt>
      <trkpt lat="47.13507" lon="-1.32694">
        <ele>19.5</ele>
        <time>2019-10-11T12:20:07Z</time>
      </trkpt>
      <trkpt lat="47.1351" lon="-1.327">
        <ele>19.3</ele>
        <time>2019-10-11T12:20:08Z</time>
      </trkpt>
      <trkpt lat="47.13511" lon="-1.32707">
        <ele>19.1</ele>
        <time>2019-10-11T12:20:09Z</time>
      </trkpt>
      <trkpt lat="47.1351" lon="-1.32712">
        <ele>19</ele>
        <time>2019-10-11T12:20:10Z</time>
      </trkpt>
      <trkpt lat="47.13508" lon="-1.32717">
        <ele>19.2</ele>
        <time>2019-10-11T12:20:11Z</time>
      </trkpt>
      <trkpt lat="47.13505" lon="-1.3272">
        <ele>19.4</ele>
        <time>2019-10-11T12:20:12Z</time>
      </trkpt>
      <trkpt lat="47.13501" lon="-1.3272">
        <ele>19.6</ele>
        <time>2019-10-11T12:20:13Z</time>
      </trkpt>
      <trkpt lat="47.13497" lon="-1.3272">
        <ele>19.8</ele>
        <time>2019-10-11T12:20:14Z</time>
      </trkpt>
      <trkpt lat="47.13493" lon="-1.32719">
        <ele>20.1</ele>
        <time>2019-10-11T12:20:15Z</time>
      </trkpt>
      <trkpt lat="47.13489" lon="-1.32718">
        <ele>20.4</ele>
        <time>2019-10-11T12:20:16Z</time>
      </trkpt>
      <trkpt lat="47.13485" lon="-1.32716">
        <ele>20.6</ele>
        <time>2019-10-11T12:20:17Z</time>
      </trkpt>
      <trkpt lat="47.13481" lon="-1.32715">
        <ele>20.9</ele>
        <time>2019-10-11T12:20:18Z</time>
      </trkpt>
      <trkpt lat="47.13475" lon="-1.32714">
        <ele>21.1</ele>
        <time>2019-10-11T12:20:19Z</time>
      </trkpt>
      <trkpt lat="47.13471" lon="-1.32713">
        <ele>21.2</ele>
        <time>2019-10-11T12:20:20Z</time>
      </trkpt>
      <trkpt lat="47.13467" lon="-1.32712">
        <ele>21.3</ele>
        <time>2019-10-11T12:20:21Z</time>
      </trkpt>
      <trkpt lat="47.13463" lon="-1.32711">
        <ele>21.4</ele>
        <time>2019-10-11T12:20:22Z</time>
      </trkpt>
      <trkpt lat="47.13459" lon="-1.32709">
        <ele>21.5</ele>
        <time>2019-10-11T12:20:23Z</time>
      </trkpt>
      <trkpt lat="47.13455" lon="-1.32708">
        <ele>21.6</ele>
        <time>2019-10-11T12:20:24Z</time>
      </trkpt>
      <trkpt lat="47.13451" lon="-1.32706">
        <ele>21.7</ele>
        <time>2019-10-11T12:20:25Z</time>
      </trkpt>
      <trkpt lat="47.13448" lon="-1.32704">
        <ele>21.8</ele>
        <time>2019-10-11T12:20:26Z</time>
      </trkpt>
      <trkpt lat="47.13444" lon="-1.32701">
        <ele>21.9</ele>
        <time>2019-10-11T12:20:27Z</time>
      </trkpt>
      <trkpt lat="47.13441" lon="-1.32698">
        <ele>21.9</ele>
        <time>2019-10-11T12:20:28Z</time>
      </trkpt>
      <trkpt lat="47.13438" lon="-1.32696">
        <ele>22</ele>
        <time>2019-10-11T12:20:29Z</time>
      </trkpt>
      <trkpt lat="47.13434" lon="-1.32693">
        <ele>22</ele>
        <time>2019-10-11T12:20:30Z</time>
      </trkpt>
      <trkpt lat="47.13431" lon="-1.3269">
        <ele>22.1</ele>
        <time>2019-10-11T12:20:31Z</time>
      </trkpt>
      <trkpt lat="47.13428" lon="-1.32687">
        <ele>22.1</ele>
        <time>2019-10-11T12:20:32Z</time>
      </trkpt>
      <trkpt lat="47.13425" lon="-1.32684">
        <ele>22.2</ele>
        <time>2019-10-11T12:20:33Z</time>
      </trkpt>
      <trkpt lat="47.13422" lon="-1.3268">
        <ele>22.2</ele>
        <time>2019-10-11T12:20:34Z</time>
      </trkpt>
      <trkpt lat="47.13419" lon="-1.32677">
        <ele>22.3</ele>
        <time>2019-10-11T12:20:35Z</time>
      </trkpt>
      <trkpt lat="47.13416" lon="-1.32675">
        <ele>22.4</ele>
        <time>2019-10-11T12:20:36Z</time>
      </trkpt>
      <trkpt lat="47.13413" lon="-1.32672">
        <ele>22.4</ele>
        <time>2019-10-11T12:20:37Z</time>
      </trkpt>
      <trkpt lat="47.1341" lon="-1.3267">
        <ele>22.5</ele>
        <time>2019-10-11T12:20:38Z</time>
      </trkpt>
      <trkpt lat="47.13407" lon="-1.32668">
        <ele>22.5</ele>
        <time>2019-10-11T12:20:39Z</time>
      </trkpt>
      <trkpt lat="47.13405" lon="-1.32666">
        <ele>22.6</ele>
        <time>2019-10-11T12:20:40Z</time>
      </trkpt>
      <trkpt lat="47.13402" lon="-1.32664">
        <ele>22.6</ele>
        <time>2019-10-11T12:20:41Z</time>
      </trkpt>
      <trkpt lat="47.13399" lon="-1.32663">
        <ele>22.7</ele>
        <time>2019-10-11T12:20:42Z</time>
      </trkpt>
      <trkpt lat="47.13395" lon="-1.32661">
        <ele>22.8</ele>
        <time>2019-10-11T12:20:43Z</time>
      </trkpt>
      <trkpt lat="47.1339" lon="-1.3266">
        <ele>22.8</ele>
        <time>2019-10-11T12:20:44Z</time>
      </trkpt>
      <trkpt lat="47.13386" lon="-1.32659">
        <ele>22.9</ele>
        <time>2019-10-11T12:20:45Z</time>
      </trkpt>
      <trkpt lat="47.13382" lon="-1.32658">
        <ele>23</ele>
        <time>2019-10-11T12:20:46Z</time>
      </trkpt>
      <trkpt lat="47.13378" lon="-1.32658">
        <ele>23</ele>
        <time>2019-10-11T12:20:47Z</time>
      </trkpt>
      <trkpt lat="47.13373" lon="-1.32657">
        <ele>23.1</ele>
        <time>2019-10-11T12:20:48Z</time>
      </trkpt>
      <trkpt lat="47.1337" lon="-1.32657">
        <ele>23.2</ele>
        <time>2019-10-11T12:20:49Z</time>
      </trkpt>
      <trkpt lat="47.13366" lon="-1.32657">
        <ele>23.3</ele>
        <time>2019-10-11T12:20:50Z</time>
      </trkpt>
      <trkpt lat="47.13363" lon="-1.32657">
        <ele>23.4</ele>
        <time>2019-10-11T12:20:51Z</time>
      </trkpt>
      <trkpt lat="47.1336" lon="-1.32658">
        <ele>23.5</ele>
        <time>2019-10-11T12:20:52Z</time>
      </trkpt>
      <trkpt lat="47.13357" lon="-1.32658">
        <ele>23.6</ele>
        <time>2019-10-11T12:20:53Z</time>
      </trkpt>
      <trkpt lat="47.13354" lon="-1.32658">
        <ele>23.7</ele>
        <time>2019-10-11T12:20:54Z</time>
      </trkpt>
      <trkpt lat="47.13351" lon="-1.32659">
        <ele>23.7</ele>
        <time>2019-10-11T12:20:55Z</time>
      </trkpt>
      <trkpt lat="47.13347" lon="-1.3266">
        <ele>23.8</ele>
        <time>2019-10-11T12:20:57Z</time>
      </trkpt>
      <trkpt lat="47.13345" lon="-1.32663">
        <ele>23.9</ele>
        <time>2019-10-11T12:21:53Z</time>
      </trkpt>
      <trkpt lat="47.1334" lon="-1.32663">
        <ele>24.1</ele>
        <time>2019-10-11T12:21:55Z</time>
      </trkpt>
      <trkpt lat="47.13338" lon="-1.32661">
        <ele>24.2</ele>
        <time>2019-10-11T12:21:56Z</time>
      </trkpt>
      <trkpt lat="47.13335" lon="-1.32655">
        <ele>24.4</ele>
        <time>2019-10-11T12:21:58Z</time>
      </trkpt>
      <trkpt lat="47.13333" lon="-1.32647">
        <ele>24.5</ele>
        <time>2019-10-11T12:22:00Z</time>
      </trkpt>
      <trkpt lat="47.13331" lon="-1.32643">
        <ele>24.7</ele>
        <time>2019-10-11T12:22:01Z</time>
      </trkpt>
      <trkpt lat="47.13328" lon="-1.32639">
        <ele>24.9</ele>
        <time>2019-10-11T12:22:02Z</time>
      </trkpt>
      <trkpt lat="47.13326" lon="-1.32635">
        <ele>25.1</ele>
        <time>2019-10-11T12:22:03Z</time>
      </trkpt>
      <trkpt lat="47.13323" lon="-1.3263">
        <ele>25.3</ele>
        <time>2019-10-11T12:22:04Z</time>
      </trkpt>
      <trkpt lat="47.13321" lon="-1.32627">
        <ele>25.5</ele>
        <time>2019-10-11T12:22:05Z</time>
      </trkpt>
      <trkpt lat="47.13318" lon="-1.32623">
        <ele>25.6</ele>
        <time>2019-10-11T12:22:06Z</time>
      </trkpt>
      <trkpt lat="47.13316" lon="-1.32619">
        <ele>25.8</ele>
        <time>2019-10-11T12:22:07Z</time>
      </trkpt>
      <trkpt lat="47.13313" lon="-1.32615">
        <ele>25.9</ele>
        <time>2019-10-11T12:22:08Z</time>
      </trkpt>
      <trkpt lat="47.1331" lon="-1.32611">
        <ele>26.1</ele>
        <time>2019-10-11T12:22:09Z</time>
      </trkpt>
      <trkpt lat="47.13308" lon="-1.32607">
        <ele>26.2</ele>
        <time>2019-10-11T12:22:10Z</time>
      </trkpt>
      <trkpt lat="47.13305" lon="-1.32603">
        <ele>26.4</ele>
        <time>2019-10-11T12:22:11Z</time>
      </trkpt>
      <trkpt lat="47.13302" lon="-1.32599">
        <ele>26.6</ele>
        <time>2019-10-11T12:22:12Z</time>
      </trkpt>
      <trkpt lat="47.13299" lon="-1.32596">
        <ele>26.8</ele>
        <time>2019-10-11T12:22:13Z</time>
      </trkpt>
      <trkpt lat="47.13297" lon="-1.32592">
        <ele>26.9</ele>
        <time>2019-10-11T12:22:14Z</time>
      </trkpt>
      <trkpt lat="47.13294" lon="-1.32589">
        <ele>27.1</ele>
        <time>2019-10-11T12:22:15Z</time>
      </trkpt>
      <trkpt lat="47.13291" lon="-1.32585">
        <ele>27.3</ele>
        <time>2019-10-11T12:22:16Z</time>
      </trkpt>
      <trkpt lat="47.13288" lon="-1.32582">
        <ele>27.4</ele>
        <time>2019-10-11T12:22:17Z</time>
      </trkpt>
      <trkpt lat="47.13286" lon="-1.32579">
        <ele>27.6</ele>
        <time>2019-10-11T12:22:18Z</time>
      </trkpt>
      <trkpt lat="47.13283" lon="-1.32575">
        <ele>27.8</ele>
        <time>2019-10-11T12:22:19Z</time>
      </trkpt>
      <trkpt lat="47.1328" lon="-1.32572">
        <ele>27.9</ele>
        <time>2019-10-11T12:22:20Z</time>
      </trkpt>
      <trkpt lat="47.13278" lon="-1.32569">
        <ele>28.1</ele>
        <time>2019-10-11T12:22:21Z</time>
      </trkpt>
      <trkpt lat="47.13275" lon="-1.32566">
        <ele>28.2</ele>
        <time>2019-10-11T12:22:22Z</time>
      </trkpt>
      <trkpt lat="47.13272" lon="-1.32562">
        <ele>28.3</ele>
        <time>2019-10-11T12:22:23Z</time>
      </trkpt>
      <trkpt lat="47.1327" lon="-1.32559">
        <ele>28.4</ele>
        <time>2019-10-11T12:22:24Z</time>
      </trkpt>
      <trkpt lat="47.13267" lon="-1.32555">
        <ele>28.5</ele>
        <time>2019-10-11T12:22:25Z</time>
      </trkpt>
      <trkpt lat="47.13264" lon="-1.32552">
        <ele>28.7</ele>
        <time>2019-10-11T12:22:26Z</time>
      </trkpt>
      <trkpt lat="47.13261" lon="-1.32548">
        <ele>28.8</ele>
        <time>2019-10-11T12:22:27Z</time>
      </trkpt>
      <trkpt lat="47.13258" lon="-1.32545">
        <ele>29</ele>
        <time>2019-10-11T12:22:28Z</time>
      </trkpt>
      <trkpt lat="47.13255" lon="-1.32542">
        <ele>29.1</ele>
        <time>2019-10-11T12:22:29Z</time>
      </trkpt>
      <trkpt lat="47.13253" lon="-1.32538">
        <ele>29.3</ele>
        <time>2019-10-11T12:22:30Z</time>
      </trkpt>
      <trkpt lat="47.1325" lon="-1.32535">
        <ele>29.4</ele>
        <time>2019-10-11T12:22:31Z</time>
      </trkpt>
      <trkpt lat="47.13248" lon="-1.32531">
        <ele>29.5</ele>
        <time>2019-10-11T12:22:32Z</time>
      </trkpt>
      <trkpt lat="47.13245" lon="-1.32528">
        <ele>29.6</ele>
        <time>2019-10-11T12:22:33Z</time>
      </trkpt>
      <trkpt lat="47.13242" lon="-1.32525">
        <ele>29.7</ele>
        <time>2019-10-11T12:22:34Z</time>
      </trkpt>
      <trkpt lat="47.1324" lon="-1.32521">
        <ele>29.8</ele>
        <time>2019-10-11T12:22:35Z</time>
      </trkpt>
      <trkpt lat="47.13237" lon="-1.32518">
        <ele>29.9</ele>
        <time>2019-10-11T12:22:36Z</time>
      </trkpt>
      <trkpt lat="47.13235" lon="-1.32515">
        <ele>30</ele>
        <time>2019-10-11T12:22:37Z</time>
      </trkpt>
      <trkpt lat="47.13232" lon="-1.32512">
        <ele>30.1</ele>
        <time>2019-10-11T12:22:38Z</time>
      </trkpt>
      <trkpt lat="47.1323" lon="-1.32509">
        <ele>30.2</ele>
        <time>2019-10-11T12:22:39Z</time>
      </trkpt>
      <trkpt lat="47.13228" lon="-1.32506">
        <ele>30.3</ele>
        <time>2019-10-11T12:22:40Z</time>
      </trkpt>
      <trkpt lat="47.13225" lon="-1.32505">
        <ele>30.4</ele>
        <time>2019-10-11T12:22:41Z</time>
      </trkpt>
      <trkpt lat="47.13222" lon="-1.32504">
        <ele>30.5</ele>
        <time>2019-10-11T12:22:42Z</time>
      </trkpt>
      <trkpt lat="47.13219" lon="-1.32504">
        <ele>30.6</ele>
        <time>2019-10-11T12:22:43Z</time>
      </trkpt>
      <trkpt lat="47.13216" lon="-1.32505">
        <ele>30.7</ele>
        <time>2019-10-11T12:22:44Z</time>
      </trkpt>
      <trkpt lat="47.13213" lon="-1.32506">
        <ele>30.6</ele>
        <time>2019-10-11T12:22:45Z</time>
      </trkpt>
      <trkpt lat="47.13211" lon="-1.32509">
        <ele>30.5</ele>
        <time>2019-10-11T12:22:46Z</time>
      </trkpt>
      <trkpt lat="47.13209" lon="-1.32513">
        <ele>30.4</ele>
        <time>2019-10-11T12:22:47Z</time>
      </trkpt>
      <trkpt lat="47.13208" lon="-1.32517">
        <ele>30.3</ele>
        <time>2019-10-11T12:22:48Z</time>
      </trkpt>
      <trkpt lat="47.13206" lon="-1.32521">
        <ele>30.2</ele>
        <time>2019-10-11T12:22:49Z</time>
      </trkpt>
      <trkpt lat="47.13205" lon="-1.32526">
        <ele>30.1</ele>
        <time>2019-10-11T12:22:50Z</time>
      </trkpt>
      <trkpt lat="47.13203" lon="-1.32531">
        <ele>29.9</ele>
        <time>2019-10-11T12:22:51Z</time>
      </trkpt>
      <trkpt lat="47.13202" lon="-1.32535">
        <ele>29.8</ele>
        <time>2019-10-11T12:22:52Z</time>
      </trkpt>
      <trkpt lat="47.132" lon="-1.3254">
        <ele>29.7</ele>
        <time>2019-10-11T12:22:53Z</time>
      </trkpt>
      <trkpt lat="47.13198" lon="-1.32544">
        <ele>29.6</ele>
        <time>2019-10-11T12:22:54Z</time>
      </trkpt>
      <trkpt lat="47.13196" lon="-1.32549">
        <ele>29.5</ele>
        <time>2019-10-11T12:22:55Z</time>
      </trkpt>
      <trkpt lat="47.13193" lon="-1.32553">
        <ele>29.4</ele>
        <time>2019-10-11T12:22:56Z</time>
      </trkpt>
      <trkpt lat="47.1319" lon="-1.32557">
        <ele>29.3</ele>
        <time>2019-10-11T12:22:57Z</time>
      </trkpt>
      <trkpt lat="47.13186" lon="-1.3256">
        <ele>29.3</ele>
        <time>2019-10-11T12:22:58Z</time>
      </trkpt>
      <trkpt lat="47.13182" lon="-1.32562">
        <ele>29.2</ele>
        <time>2019-10-11T12:22:59Z</time>
      </trkpt>
      <trkpt lat="47.13178" lon="-1.32561">
        <ele>29.1</ele>
        <time>2019-10-11T12:23:00Z</time>
      </trkpt>
      <trkpt lat="47.13174" lon="-1.32561">
        <ele>29.1</ele>
        <time>2019-10-11T12:23:01Z</time>
      </trkpt>
      <trkpt lat="47.13169" lon="-1.3256">
        <ele>29</ele>
        <time>2019-10-11T12:23:02Z</time>
      </trkpt>
      <trkpt lat="47.13165" lon="-1.32559">
        <ele>28.9</ele>
        <time>2019-10-11T12:23:03Z</time>
      </trkpt>
      <trkpt lat="47.13161" lon="-1.32558">
        <ele>28.9</ele>
        <time>2019-10-11T12:23:04Z</time>
      </trkpt>
      <trkpt lat="47.13157" lon="-1.32556">
        <ele>28.9</ele>
        <time>2019-10-11T12:23:05Z</time>
      </trkpt>
      <trkpt lat="47.13153" lon="-1.32555">
        <ele>28.9</ele>
        <time>2019-10-11T12:23:06Z</time>
      </trkpt>
      <trkpt lat="47.13149" lon="-1.32553">
        <ele>28.9</ele>
        <time>2019-10-11T12:23:07Z</time>
      </trkpt>
      <trkpt lat="47.13145" lon="-1.32552">
        <ele>29</ele>
        <time>2019-10-11T12:23:08Z</time>
      </trkpt>
      <trkpt lat="47.13141" lon="-1.32551">
        <ele>29</ele>
        <time>2019-10-11T12:23:09Z</time>
      </trkpt>
      <trkpt lat="47.13137" lon="-1.32549">
        <ele>29</ele>
        <time>2019-10-11T12:23:10Z</time>
      </trkpt>
      <trkpt lat="47.13133" lon="-1.32548">
        <ele>29</ele>
        <time>2019-10-11T12:23:11Z</time>
      </trkpt>
      <trkpt lat="47.13128" lon="-1.32547">
        <ele>28.9</ele>
        <time>2019-10-11T12:23:12Z</time>
      </trkpt>
      <trkpt lat="47.13124" lon="-1.32545">
        <ele>28.8</ele>
        <time>2019-10-11T12:23:13Z</time>
      </trkpt>
      <trkpt lat="47.1312" lon="-1.32544">
        <ele>28.7</ele>
        <time>2019-10-11T12:23:14Z</time>
      </trkpt>
      <trkpt lat="47.13116" lon="-1.32542">
        <ele>28.5</ele>
        <time>2019-10-11T12:23:15Z</time>
      </trkpt>
      <trkpt lat="47.13112" lon="-1.32541">
        <ele>28.3</ele>
        <time>2019-10-11T12:23:16Z</time>
      </trkpt>
      <trkpt lat="47.13108" lon="-1.32539">
        <ele>28.2</ele>
        <time>2019-10-11T12:23:17Z</time>
      </trkpt>
      <trkpt lat="47.13103" lon="-1.32537">
        <ele>28.1</ele>
        <time>2019-10-11T12:23:18Z</time>
      </trkpt>
      <trkpt lat="47.13099" lon="-1.32535">
        <ele>28</ele>
        <time>2019-10-11T12:23:19Z</time>
      </trkpt>
      <trkpt lat="47.13095" lon="-1.32534">
        <ele>27.8</ele>
        <time>2019-10-11T12:23:20Z</time>
      </trkpt>
      <trkpt lat="47.1309" lon="-1.32532">
        <ele>27.7</ele>
        <time>2019-10-11T12:23:21Z</time>
      </trkpt>
      <trkpt lat="47.13086" lon="-1.3253">
        <ele>27.6</ele>
        <time>2019-10-11T12:23:22Z</time>
      </trkpt>
      <trkpt lat="47.13081" lon="-1.32529">
        <ele>27.5</ele>
        <time>2019-10-11T12:23:23Z</time>
      </trkpt>
      <trkpt lat="47.13076" lon="-1.32527">
        <ele>27.5</ele>
        <time>2019-10-11T12:23:24Z</time>
      </trkpt>
      <trkpt lat="47.13072" lon="-1.32525">
        <ele>27.4</ele>
        <time>2019-10-11T12:23:25Z</time>
      </trkpt>
      <trkpt lat="47.13067" lon="-1.32523">
        <ele>27.5</ele>
        <time>2019-10-11T12:23:26Z</time>
      </trkpt>
      <trkpt lat="47.13063" lon="-1.32521">
        <ele>27.5</ele>
        <time>2019-10-11T12:23:27Z</time>
      </trkpt>
      <trkpt lat="47.13059" lon="-1.3252">
        <ele>27.5</ele>
        <time>2019-10-11T12:23:28Z</time>
      </trkpt>
      <trkpt lat="47.13055" lon="-1.32518">
        <ele>27.6</ele>
        <time>2019-10-11T12:23:29Z</time>
      </trkpt>
      <trkpt lat="47.13051" lon="-1.32515">
        <ele>27.6</ele>
        <time>2019-10-11T12:23:30Z</time>
      </trkpt>
      <trkpt lat="47.13046" lon="-1.32513">
        <ele>27.7</ele>
        <time>2019-10-11T12:23:31Z</time>
      </trkpt>
      <trkpt lat="47.13042" lon="-1.32511">
        <ele>27.8</ele>
        <time>2019-10-11T12:23:32Z</time>
      </trkpt>
      <trkpt lat="47.13038" lon="-1.32509">
        <ele>27.8</ele>
        <time>2019-10-11T12:23:33Z</time>
      </trkpt>
      <trkpt lat="47.13033" lon="-1.32506">
        <ele>28</ele>
        <time>2019-10-11T12:23:34Z</time>
      </trkpt>
      <trkpt lat="47.13029" lon="-1.32503">
        <ele>28</ele>
        <time>2019-10-11T12:23:35Z</time>
      </trkpt>
      <trkpt lat="47.13024" lon="-1.325">
        <ele>28.1</ele>
        <time>2019-10-11T12:23:36Z</time>
      </trkpt>
      <trkpt lat="47.13019" lon="-1.32497">
        <ele>28.1</ele>
        <time>2019-10-11T12:23:37Z</time>
      </trkpt>
      <trkpt lat="47.13014" lon="-1.32493">
        <ele>28.2</ele>
        <time>2019-10-11T12:23:38Z</time>
      </trkpt>
      <trkpt lat="47.13009" lon="-1.3249">
        <ele>28.2</ele>
        <time>2019-10-11T12:23:39Z</time>
      </trkpt>
      <trkpt lat="47.13005" lon="-1.32486">
        <ele>28.2</ele>
        <time>2019-10-11T12:23:40Z</time>
      </trkpt>
      <trkpt lat="47.13" lon="-1.32482">
        <ele>28.2</ele>
        <time>2019-10-11T12:23:41Z</time>
      </trkpt>
      <trkpt lat="47.12995" lon="-1.32479">
        <ele>28.2</ele>
        <time>2019-10-11T12:23:42Z</time>
      </trkpt>
      <trkpt lat="47.1299" lon="-1.32476">
        <ele>28.2</ele>
        <time>2019-10-11T12:23:43Z</time>
      </trkpt>
      <trkpt lat="47.12984" lon="-1.32473">
        <ele>28.1</ele>
        <time>2019-10-11T12:23:44Z</time>
      </trkpt>
      <trkpt lat="47.12979" lon="-1.32469">
        <ele>28.1</ele>
        <time>2019-10-11T12:23:45Z</time>
      </trkpt>
      <trkpt lat="47.12974" lon="-1.32466">
        <ele>28</ele>
        <time>2019-10-11T12:23:46Z</time>
      </trkpt>
      <trkpt lat="47.12968" lon="-1.32462">
        <ele>27.9</ele>
        <time>2019-10-11T12:23:47Z</time>
      </trkpt>
      <trkpt lat="47.12963" lon="-1.32459">
        <ele>27.8</ele>
        <time>2019-10-11T12:23:48Z</time>
      </trkpt>
      <trkpt lat="47.12958" lon="-1.32456">
        <ele>27.8</ele>
        <time>2019-10-11T12:23:49Z</time>
      </trkpt>
      <trkpt lat="47.12952" lon="-1.32454">
        <ele>27.7</ele>
        <time>2019-10-11T12:23:50Z</time>
      </trkpt>
      <trkpt lat="47.12947" lon="-1.32453">
        <ele>27.6</ele>
        <time>2019-10-11T12:23:51Z</time>
      </trkpt>
      <trkpt lat="47.12941" lon="-1.32452">
        <ele>27.5</ele>
        <time>2019-10-11T12:23:52Z</time>
      </trkpt>
      <trkpt lat="47.12936" lon="-1.32451">
        <ele>27.5</ele>
        <time>2019-10-11T12:23:53Z</time>
      </trkpt>
      <trkpt lat="47.1293" lon="-1.3245">
        <ele>27.4</ele>
        <time>2019-10-11T12:23:54Z</time>
      </trkpt>
      <trkpt lat="47.12925" lon="-1.3245">
        <ele>27.4</ele>
        <time>2019-10-11T12:23:55Z</time>
      </trkpt>
      <trkpt lat="47.12919" lon="-1.32449">
        <ele>27.3</ele>
        <time>2019-10-11T12:23:56Z</time>
      </trkpt>
      <trkpt lat="47.12914" lon="-1.32447">
        <ele>27.2</ele>
        <time>2019-10-11T12:23:57Z</time>
      </trkpt>
      <trkpt lat="47.12908" lon="-1.32445">
        <ele>27.1</ele>
        <time>2019-10-11T12:23:58Z</time>
      </trkpt>
      <trkpt lat="47.12902" lon="-1.32443">
        <ele>26.9</ele>
        <time>2019-10-11T12:23:59Z</time>
      </trkpt>
      <trkpt lat="47.12897" lon="-1.3244">
        <ele>26.6</ele>
        <time>2019-10-11T12:24:00Z</time>
      </trkpt>
      <trkpt lat="47.12892" lon="-1.32437">
        <ele>26.4</ele>
        <time>2019-10-11T12:24:01Z</time>
      </trkpt>
      <trkpt lat="47.12887" lon="-1.32434">
        <ele>26.1</ele>
        <time>2019-10-11T12:24:02Z</time>
      </trkpt>
      <trkpt lat="47.12882" lon="-1.32432">
        <ele>25.9</ele>
        <time>2019-10-11T12:24:03Z</time>
      </trkpt>
      <trkpt lat="47.12877" lon="-1.32429">
        <ele>25.8</ele>
        <time>2019-10-11T12:24:04Z</time>
      </trkpt>
      <trkpt lat="47.12871" lon="-1.32426">
        <ele>25.7</ele>
        <time>2019-10-11T12:24:05Z</time>
      </trkpt>
      <trkpt lat="47.12866" lon="-1.32424">
        <ele>25.6</ele>
        <time>2019-10-11T12:24:06Z</time>
      </trkpt>
      <trkpt lat="47.12861" lon="-1.32422">
        <ele>25.5</ele>
        <time>2019-10-11T12:24:07Z</time>
      </trkpt>
      <trkpt lat="47.12855" lon="-1.32419">
        <ele>25.5</ele>
        <time>2019-10-11T12:24:08Z</time>
      </trkpt>
      <trkpt lat="47.1285" lon="-1.32417">
        <ele>25.4</ele>
        <time>2019-10-11T12:24:09Z</time>
      </trkpt>
      <trkpt lat="47.12844" lon="-1.32414">
        <ele>25.4</ele>
        <time>2019-10-11T12:24:10Z</time>
      </trkpt>
      <trkpt lat="47.12839" lon="-1.32412">
        <ele>25.3</ele>
        <time>2019-10-11T12:24:11Z</time>
      </trkpt>
      <trkpt lat="47.12833" lon="-1.3241">
        <ele>25.2</ele>
        <time>2019-10-11T12:24:12Z</time>
      </trkpt>
      <trkpt lat="47.12828" lon="-1.32407">
        <ele>25.2</ele>
        <time>2019-10-11T12:24:13Z</time>
      </trkpt>
      <trkpt lat="47.12823" lon="-1.32405">
        <ele>25.1</ele>
        <time>2019-10-11T12:24:14Z</time>
      </trkpt>
      <trkpt lat="47.12817" lon="-1.32402">
        <ele>25</ele>
        <time>2019-10-11T12:24:15Z</time>
      </trkpt>
      <trkpt lat="47.12812" lon="-1.32399">
        <ele>24.9</ele>
        <time>2019-10-11T12:24:16Z</time>
      </trkpt>
      <trkpt lat="47.12807" lon="-1.32396">
        <ele>24.7</ele>
        <time>2019-10-11T12:24:17Z</time>
      </trkpt>
      <trkpt lat="47.12802" lon="-1.32394">
        <ele>24.7</ele>
        <time>2019-10-11T12:24:18Z</time>
      </trkpt>
      <trkpt lat="47.12797" lon="-1.32391">
        <ele>24.7</ele>
        <time>2019-10-11T12:24:19Z</time>
      </trkpt>
      <trkpt lat="47.12792" lon="-1.32388">
        <ele>24.7</ele>
        <time>2019-10-11T12:24:20Z</time>
      </trkpt>
      <trkpt lat="47.12787" lon="-1.32385">
        <ele>24.7</ele>
        <time>2019-10-11T12:24:21Z</time>
      </trkpt>
      <trkpt lat="47.12781" lon="-1.32381">
        <ele>24.7</ele>
        <time>2019-10-11T12:24:22Z</time>
      </trkpt>
      <trkpt lat="47.12776" lon="-1.32378">
        <ele>24.6</ele>
        <time>2019-10-11T12:24:23Z</time>
      </trkpt>
      <trkpt lat="47.12771" lon="-1.32375">
        <ele>24.5</ele>
        <time>2019-10-11T12:24:24Z</time>
      </trkpt>
      <trkpt lat="47.12765" lon="-1.32371">
        <ele>24.4</ele>
        <time>2019-10-11T12:24:25Z</time>
      </trkpt>
      <trkpt lat="47.1276" lon="-1.32368">
        <ele>24.2</ele>
        <time>2019-10-11T12:24:26Z</time>
      </trkpt>
      <trkpt lat="47.12755" lon="-1.32365">
        <ele>24.1</ele>
        <time>2019-10-11T12:24:27Z</time>
      </trkpt>
      <trkpt lat="47.12749" lon="-1.32361">
        <ele>23.9</ele>
        <time>2019-10-11T12:24:28Z</time>
      </trkpt>
      <trkpt lat="47.12744" lon="-1.32358">
        <ele>23.7</ele>
        <time>2019-10-11T12:24:29Z</time>
      </trkpt>
      <trkpt lat="47.12739" lon="-1.32354">
        <ele>23.5</ele>
        <time>2019-10-11T12:24:30Z</time>
      </trkpt>
      <trkpt lat="47.12733" lon="-1.32351">
        <ele>23.3</ele>
        <time>2019-10-11T12:24:31Z</time>
      </trkpt>
      <trkpt lat="47.12728" lon="-1.32347">
        <ele>23.1</ele>
        <time>2019-10-11T12:24:32Z</time>
      </trkpt>
      <trkpt lat="47.12723" lon="-1.32343">
        <ele>23</ele>
        <time>2019-10-11T12:24:33Z</time>
      </trkpt>
      <trkpt lat="47.12718" lon="-1.32339">
        <ele>22.9</ele>
        <time>2019-10-11T12:24:34Z</time>
      </trkpt>
      <trkpt lat="47.12713" lon="-1.32334">
        <ele>22.8</ele>
        <time>2019-10-11T12:24:35Z</time>
      </trkpt>
      <trkpt lat="47.12708" lon="-1.32329">
        <ele>22.6</ele>
        <time>2019-10-11T12:24:36Z</time>
      </trkpt>
      <trkpt lat="47.12703" lon="-1.32325">
        <ele>22.5</ele>
        <time>2019-10-11T12:24:37Z</time>
      </trkpt>
      <trkpt lat="47.12698" lon="-1.32319">
        <ele>22.3</ele>
        <time>2019-10-11T12:24:38Z</time>
      </trkpt>
      <trkpt lat="47.12693" lon="-1.32314">
        <ele>22.1</ele>
        <time>2019-10-11T12:24:39Z</time>
      </trkpt>
      <trkpt lat="47.12689" lon="-1.32309">
        <ele>21.8</ele>
        <time>2019-10-11T12:24:40Z</time>
      </trkpt>
      <trkpt lat="47.12684" lon="-1.32303">
        <ele>21.6</ele>
        <time>2019-10-11T12:24:41Z</time>
      </trkpt>
      <trkpt lat="47.12679" lon="-1.32298">
        <ele>21.5</ele>
        <time>2019-10-11T12:24:42Z</time>
      </trkpt>
      <trkpt lat="47.12674" lon="-1.32292">
        <ele>21.4</ele>
        <time>2019-10-11T12:24:43Z</time>
      </trkpt>
      <trkpt lat="47.12669" lon="-1.32286">
        <ele>21.4</ele>
        <time>2019-10-11T12:24:44Z</time>
      </trkpt>
      <trkpt lat="47.12665" lon="-1.3228">
        <ele>21.4</ele>
        <time>2019-10-11T12:24:45Z</time>
      </trkpt>
      <trkpt lat="47.1266" lon="-1.32273">
        <ele>21.4</ele>
        <time>2019-10-11T12:24:46Z</time>
      </trkpt>
      <trkpt lat="47.12655" lon="-1.32266">
        <ele>21.3</ele>
        <time>2019-10-11T12:24:47Z</time>
      </trkpt>
      <trkpt lat="47.12651" lon="-1.32259">
        <ele>21.2</ele>
        <time>2019-10-11T12:24:48Z</time>
      </trkpt>
      <trkpt lat="47.12646" lon="-1.32252">
        <ele>21</ele>
        <time>2019-10-11T12:24:49Z</time>
      </trkpt>
      <trkpt lat="47.12642" lon="-1.32245">
        <ele>20.6</ele>
        <time>2019-10-11T12:24:50Z</time>
      </trkpt>
      <trkpt lat="47.12637" lon="-1.32238">
        <ele>20.2</ele>
        <time>2019-10-11T12:24:51Z</time>
      </trkpt>
      <trkpt lat="47.12633" lon="-1.32232">
        <ele>19.9</ele>
        <time>2019-10-11T12:24:52Z</time>
      </trkpt>
      <trkpt lat="47.12628" lon="-1.32225">
        <ele>19.7</ele>
        <time>2019-10-11T12:24:53Z</time>
      </trkpt>
      <trkpt lat="47.12624" lon="-1.32218">
        <ele>19.4</ele>
        <time>2019-10-11T12:24:54Z</time>
      </trkpt>
      <trkpt lat="47.1262" lon="-1.32212">
        <ele>19.2</ele>
        <time>2019-10-11T12:24:55Z</time>
      </trkpt>
      <trkpt lat="47.12615" lon="-1.32206">
        <ele>19</ele>
        <time>2019-10-11T12:24:56Z</time>
      </trkpt>
      <trkpt lat="47.1261" lon="-1.322">
        <ele>18.9</ele>
        <time>2019-10-11T12:24:57Z</time>
      </trkpt>
      <trkpt lat="47.12605" lon="-1.32195">
        <ele>18.8</ele>
        <time>2019-10-11T12:24:58Z</time>
      </trkpt>
      <trkpt lat="47.126" lon="-1.3219">
        <ele>18.7</ele>
        <time>2019-10-11T12:24:59Z</time>
      </trkpt>
      <trkpt lat="47.12594" lon="-1.32185">
        <ele>18.7</ele>
        <time>2019-10-11T12:25:00Z</time>
      </trkpt>
      <trkpt lat="47.1259" lon="-1.32181">
        <ele>18.6</ele>
        <time>2019-10-11T12:25:01Z</time>
      </trkpt>
      <trkpt lat="47.12584" lon="-1.32178">
        <ele>18.4</ele>
        <time>2019-10-11T12:25:02Z</time>
      </trkpt>
      <trkpt lat="47.12579" lon="-1.32174">
        <ele>18.2</ele>
        <time>2019-10-11T12:25:03Z</time>
      </trkpt>
      <trkpt lat="47.12574" lon="-1.3217">
        <ele>18</ele>
        <time>2019-10-11T12:25:04Z</time>
      </trkpt>
      <trkpt lat="47.12569" lon="-1.32166">
        <ele>17.9</ele>
        <time>2019-10-11T12:25:05Z</time>
      </trkpt>
      <trkpt lat="47.12564" lon="-1.32162">
        <ele>17.8</ele>
        <time>2019-10-11T12:25:06Z</time>
      </trkpt>
      <trkpt lat="47.12559" lon="-1.32159">
        <ele>17.7</ele>
        <time>2019-10-11T12:25:07Z</time>
      </trkpt>
      <trkpt lat="47.12554" lon="-1.32155">
        <ele>17.7</ele>
        <time>2019-10-11T12:25:08Z</time>
      </trkpt>
      <trkpt lat="47.12548" lon="-1.32152">
        <ele>17.7</ele>
        <time>2019-10-11T12:25:09Z</time>
      </trkpt>
      <trkpt lat="47.12543" lon="-1.32149">
        <ele>17.7</ele>
        <time>2019-10-11T12:25:10Z</time>
      </trkpt>
      <trkpt lat="47.12538" lon="-1.32146">
        <ele>17.6</ele>
        <time>2019-10-11T12:25:11Z</time>
      </trkpt>
      <trkpt lat="47.12532" lon="-1.32144">
        <ele>17.6</ele>
        <time>2019-10-11T12:25:12Z</time>
      </trkpt>
      <trkpt lat="47.12526" lon="-1.32141">
        <ele>17.6</ele>
        <time>2019-10-11T12:25:13Z</time>
      </trkpt>
      <trkpt lat="47.12522" lon="-1.32138">
        <ele>17.5</ele>
        <time>2019-10-11T12:25:14Z</time>
      </trkpt>
      <trkpt lat="47.12517" lon="-1.32135">
        <ele>17.5</ele>
        <time>2019-10-11T12:25:15Z</time>
      </trkpt>
      <trkpt lat="47.12512" lon="-1.32133">
        <ele>17.5</ele>
        <time>2019-10-11T12:25:16Z</time>
      </trkpt>
      <trkpt lat="47.12506" lon="-1.3213">
        <ele>17.4</ele>
        <time>2019-10-11T12:25:17Z</time>
      </trkpt>
      <trkpt lat="47.12498" lon="-1.32127">
        <ele>17.3</ele>
        <time>2019-10-11T12:25:18Z</time>
      </trkpt>
      <trkpt lat="47.12491" lon="-1.32125">
        <ele>17.2</ele>
        <time>2019-10-11T12:25:19Z</time>
      </trkpt>
      <trkpt lat="47.12484" lon="-1.32122">
        <ele>17</ele>
        <time>2019-10-11T12:25:20Z</time>
      </trkpt>
      <trkpt lat="47.12477" lon="-1.32121">
        <ele>16.8</ele>
        <time>2019-10-11T12:25:21Z</time>
      </trkpt>
      <trkpt lat="47.1247" lon="-1.32122">
        <ele>16.6</ele>
        <time>2019-10-11T12:25:22Z</time>
      </trkpt>
      <trkpt lat="47.12464" lon="-1.32125">
        <ele>16.3</ele>
        <time>2019-10-11T12:25:23Z</time>
      </trkpt>
      <trkpt lat="47.12457" lon="-1.32126">
        <ele>15.8</ele>
        <time>2019-10-11T12:25:24Z</time>
      </trkpt>
      <trkpt lat="47.12451" lon="-1.32128">
        <ele>15.6</ele>
        <time>2019-10-11T12:25:25Z</time>
      </trkpt>
      <trkpt lat="47.12445" lon="-1.32129">
        <ele>15.5</ele>
        <time>2019-10-11T12:25:26Z</time>
      </trkpt>
      <trkpt lat="47.12439" lon="-1.32131">
        <ele>15.3</ele>
        <time>2019-10-11T12:25:27Z</time>
      </trkpt>
      <trkpt lat="47.12433" lon="-1.32133">
        <ele>15.1</ele>
        <time>2019-10-11T12:25:28Z</time>
      </trkpt>
      <trkpt lat="47.12427" lon="-1.32134">
        <ele>14.9</ele>
        <time>2019-10-11T12:25:29Z</time>
      </trkpt>
      <trkpt lat="47.12421" lon="-1.32136">
        <ele>14.5</ele>
        <time>2019-10-11T12:25:30Z</time>
      </trkpt>
      <trkpt lat="47.12414" lon="-1.32137">
        <ele>14.3</ele>
        <time>2019-10-11T12:25:31Z</time>
      </trkpt>
      <trkpt lat="47.12407" lon="-1.32138">
        <ele>14.1</ele>
        <time>2019-10-11T12:25:32Z</time>
      </trkpt>
      <trkpt lat="47.124" lon="-1.32139">
        <ele>13.9</ele>
        <time>2019-10-11T12:25:33Z</time>
      </trkpt>
      <trkpt lat="47.12392" lon="-1.3214">
        <ele>13.7</ele>
        <time>2019-10-11T12:25:34Z</time>
      </trkpt>
      <trkpt lat="47.12385" lon="-1.32141">
        <ele>13.6</ele>
        <time>2019-10-11T12:25:35Z</time>
      </trkpt>
      <trkpt lat="47.12379" lon="-1.32141">
        <ele>13.5</ele>
        <time>2019-10-11T12:25:36Z</time>
      </trkpt>
      <trkpt lat="47.12373" lon="-1.32141">
        <ele>13.5</ele>
        <time>2019-10-11T12:25:37Z</time>
      </trkpt>
      <trkpt lat="47.12368" lon="-1.32139">
        <ele>13.5</ele>
        <time>2019-10-11T12:25:38Z</time>
      </trkpt>
      <trkpt lat="47.12362" lon="-1.32137">
        <ele>13.5</ele>
        <time>2019-10-11T12:25:39Z</time>
      </trkpt>
      <trkpt lat="47.12357" lon="-1.32136">
        <ele>13.5</ele>
        <time>2019-10-11T12:25:40Z</time>
      </trkpt>
      <trkpt lat="47.12352" lon="-1.32134">
        <ele>13.5</ele>
        <time>2019-10-11T12:25:41Z</time>
      </trkpt>
      <trkpt lat="47.12347" lon="-1.32133">
        <ele>13.5</ele>
        <time>2019-10-11T12:25:42Z</time>
      </trkpt>
      <trkpt lat="47.12343" lon="-1.32133">
        <ele>13.5</ele>
        <time>2019-10-11T12:25:43Z</time>
      </trkpt>
      <trkpt lat="47.12339" lon="-1.32132">
        <ele>13.5</ele>
        <time>2019-10-11T12:25:44Z</time>
      </trkpt>
      <trkpt lat="47.12334" lon="-1.32131">
        <ele>13.5</ele>
        <time>2019-10-11T12:25:45Z</time>
      </trkpt>
      <trkpt lat="47.1233" lon="-1.3213">
        <ele>13.5</ele>
        <time>2019-10-11T12:25:46Z</time>
      </trkpt>
      <trkpt lat="47.12325" lon="-1.32129">
        <ele>13.5</ele>
        <time>2019-10-11T12:25:47Z</time>
      </trkpt>
      <trkpt lat="47.12321" lon="-1.32128">
        <ele>13.5</ele>
        <time>2019-10-11T12:25:48Z</time>
      </trkpt>
      <trkpt lat="47.12317" lon="-1.32128">
        <ele>13.5</ele>
        <time>2019-10-11T12:25:49Z</time>
      </trkpt>
      <trkpt lat="47.12312" lon="-1.32128">
        <ele>13.5</ele>
        <time>2019-10-11T12:25:50Z</time>
      </trkpt>
      <trkpt lat="47.12308" lon="-1.32129">
        <ele>13.5</ele>
        <time>2019-10-11T12:25:51Z</time>
      </trkpt>
      <trkpt lat="47.12304" lon="-1.32131">
        <ele>13.5</ele>
        <time>2019-10-11T12:25:52Z</time>
      </trkpt>
      <trkpt lat="47.12299" lon="-1.32134">
        <ele>13.5</ele>
        <time>2019-10-11T12:25:53Z</time>
      </trkpt>
      <trkpt lat="47.12296" lon="-1.32138">
        <ele>13.5</ele>
        <time>2019-10-11T12:25:54Z</time>
      </trkpt>
      <trkpt lat="47.12292" lon="-1.32142">
        <ele>13.5</ele>
        <time>2019-10-11T12:25:55Z</time>
      </trkpt>
      <trkpt lat="47.12288" lon="-1.32146">
        <ele>13.5</ele>
        <time>2019-10-11T12:25:56Z</time>
      </trkpt>
      <trkpt lat="47.12284" lon="-1.32151">
        <ele>13.5</ele>
        <time>2019-10-11T12:25:57Z</time>
      </trkpt>
      <trkpt lat="47.12281" lon="-1.32155">
        <ele>13.6</ele>
        <time>2019-10-11T12:25:58Z</time>
      </trkpt>
      <trkpt lat="47.12277" lon="-1.32159">
        <ele>13.6</ele>
        <time>2019-10-11T12:25:59Z</time>
      </trkpt>
      <trkpt lat="47.12272" lon="-1.32163">
        <ele>13.6</ele>
        <time>2019-10-11T12:26:00Z</time>
      </trkpt>
      <trkpt lat="47.12269" lon="-1.32166">
        <ele>13.6</ele>
        <time>2019-10-11T12:26:01Z</time>
      </trkpt>
      <trkpt lat="47.12265" lon="-1.32169">
        <ele>13.6</ele>
        <time>2019-10-11T12:26:02Z</time>
      </trkpt>
      <trkpt lat="47.1226" lon="-1.32172">
        <ele>13.6</ele>
        <time>2019-10-11T12:26:03Z</time>
      </trkpt>
      <trkpt lat="47.12256" lon="-1.32175">
        <ele>13.6</ele>
        <time>2019-10-11T12:26:04Z</time>
      </trkpt>
      <trkpt lat="47.12252" lon="-1.32178">
        <ele>13.6</ele>
        <time>2019-10-11T12:26:05Z</time>
      </trkpt>
      <trkpt lat="47.12247" lon="-1.32181">
        <ele>13.6</ele>
        <time>2019-10-11T12:26:06Z</time>
      </trkpt>
      <trkpt lat="47.12242" lon="-1.32184">
        <ele>13.6</ele>
        <time>2019-10-11T12:26:07Z</time>
      </trkpt>
      <trkpt lat="47.12238" lon="-1.32185">
        <ele>13.6</ele>
        <time>2019-10-11T12:26:08Z</time>
      </trkpt>
      <trkpt lat="47.12233" lon="-1.32187">
        <ele>13.7</ele>
        <time>2019-10-11T12:26:09Z</time>
      </trkpt>
      <trkpt lat="47.12228" lon="-1.32189">
        <ele>13.9</ele>
        <time>2019-10-11T12:26:10Z</time>
      </trkpt>
      <trkpt lat="47.12223" lon="-1.3219">
        <ele>14.1</ele>
        <time>2019-10-11T12:26:11Z</time>
      </trkpt>
      <trkpt lat="47.12219" lon="-1.32191">
        <ele>14.2</ele>
        <time>2019-10-11T12:26:12Z</time>
      </trkpt>
      <trkpt lat="47.12214" lon="-1.32193">
        <ele>14.4</ele>
        <time>2019-10-11T12:26:13Z</time>
      </trkpt>
      <trkpt lat="47.1221" lon="-1.32194">
        <ele>14.6</ele>
        <time>2019-10-11T12:26:14Z</time>
      </trkpt>
      <trkpt lat="47.12205" lon="-1.32196">
        <ele>14.8</ele>
        <time>2019-10-11T12:26:15Z</time>
      </trkpt>
      <trkpt lat="47.122" lon="-1.32197">
        <ele>15</ele>
        <time>2019-10-11T12:26:16Z</time>
      </trkpt>
      <trkpt lat="47.12195" lon="-1.32198">
        <ele>15.1</ele>
        <time>2019-10-11T12:26:17Z</time>
      </trkpt>
      <trkpt lat="47.1219" lon="-1.32199">
        <ele>15.1</ele>
        <time>2019-10-11T12:26:18Z</time>
      </trkpt>
      <trkpt lat="47.12185" lon="-1.322">
        <ele>15.1</ele>
        <time>2019-10-11T12:26:19Z</time>
      </trkpt>
      <trkpt lat="47.1218" lon="-1.32201">
        <ele>15</ele>
        <time>2019-10-11T12:26:20Z</time>
      </trkpt>
      <trkpt lat="47.12176" lon="-1.32201">
        <ele>14.7</ele>
        <time>2019-10-11T12:26:21Z</time>
      </trkpt>
      <trkpt lat="47.12172" lon="-1.32202">
        <ele>14.5</ele>
        <time>2019-10-11T12:26:22Z</time>
      </trkpt>
      <trkpt lat="47.12167" lon="-1.32204">
        <ele>14.1</ele>
        <time>2019-10-11T12:26:23Z</time>
      </trkpt>
      <trkpt lat="47.12163" lon="-1.32206">
        <ele>13.8</ele>
        <time>2019-10-11T12:26:24Z</time>
      </trkpt>
      <trkpt lat="47.12158" lon="-1.32207">
        <ele>13.3</ele>
        <time>2019-10-11T12:26:25Z</time>
      </trkpt>
      <trkpt lat="47.12154" lon="-1.32209">
        <ele>12.7</ele>
        <time>2019-10-11T12:26:26Z</time>
      </trkpt>
      <trkpt lat="47.12149" lon="-1.32211">
        <ele>12.2</ele>
        <time>2019-10-11T12:26:27Z</time>
      </trkpt>
      <trkpt lat="47.12144" lon="-1.32213">
        <ele>11.6</ele>
        <time>2019-10-11T12:26:28Z</time>
      </trkpt>
      <trkpt lat="47.12139" lon="-1.32216">
        <ele>11.6</ele>
        <time>2019-10-11T12:26:29Z</time>
      </trkpt>
      <trkpt lat="47.12134" lon="-1.32219">
        <ele>11.6</ele>
        <time>2019-10-11T12:26:30Z</time>
      </trkpt>
      <trkpt lat="47.12129" lon="-1.3222">
        <ele>11.7</ele>
        <time>2019-10-11T12:26:31Z</time>
      </trkpt>
      <trkpt lat="47.12124" lon="-1.32221">
        <ele>11.7</ele>
        <time>2019-10-11T12:26:32Z</time>
      </trkpt>
      <trkpt lat="47.12119" lon="-1.32223">
        <ele>11.7</ele>
        <time>2019-10-11T12:26:33Z</time>
      </trkpt>
      <trkpt lat="47.12114" lon="-1.32224">
        <ele>11.7</ele>
        <time>2019-10-11T12:26:34Z</time>
      </trkpt>
      <trkpt lat="47.12109" lon="-1.32225">
        <ele>11.8</ele>
        <time>2019-10-11T12:26:35Z</time>
      </trkpt>
      <trkpt lat="47.12104" lon="-1.32227">
        <ele>11.9</ele>
        <time>2019-10-11T12:26:36Z</time>
      </trkpt>
      <trkpt lat="47.12099" lon="-1.32227">
        <ele>12</ele>
        <time>2019-10-11T12:26:37Z</time>
      </trkpt>
      <trkpt lat="47.12093" lon="-1.32228">
        <ele>12.1</ele>
        <time>2019-10-11T12:26:38Z</time>
      </trkpt>
      <trkpt lat="47.12088" lon="-1.32228">
        <ele>12.2</ele>
        <time>2019-10-11T12:26:39Z</time>
      </trkpt>
      <trkpt lat="47.12083" lon="-1.32229">
        <ele>12.3</ele>
        <time>2019-10-11T12:26:40Z</time>
      </trkpt>
      <trkpt lat="47.12078" lon="-1.32228">
        <ele>12.4</ele>
        <time>2019-10-11T12:26:41Z</time>
      </trkpt>
      <trkpt lat="47.12073" lon="-1.32228">
        <ele>12.4</ele>
        <time>2019-10-11T12:26:42Z</time>
      </trkpt>
      <trkpt lat="47.12068" lon="-1.32227">
        <ele>12.5</ele>
        <time>2019-10-11T12:26:43Z</time>
      </trkpt>
      <trkpt lat="47.12063" lon="-1.32227">
        <ele>12.5</ele>
        <time>2019-10-11T12:26:44Z</time>
      </trkpt>
      <trkpt lat="47.12058" lon="-1.32226">
        <ele>12.5</ele>
        <time>2019-10-11T12:26:45Z</time>
      </trkpt>
      <trkpt lat="47.12053" lon="-1.32225">
        <ele>12.6</ele>
        <time>2019-10-11T12:26:46Z</time>
      </trkpt>
      <trkpt lat="47.12048" lon="-1.32224">
        <ele>12.6</ele>
        <time>2019-10-11T12:26:47Z</time>
      </trkpt>
      <trkpt lat="47.12043" lon="-1.32222">
        <ele>12.6</ele>
        <time>2019-10-11T12:26:48Z</time>
      </trkpt>
      <trkpt lat="47.12038" lon="-1.3222">
        <ele>12.7</ele>
        <time>2019-10-11T12:26:49Z</time>
      </trkpt>
      <trkpt lat="47.12034" lon="-1.32217">
        <ele>12.7</ele>
        <time>2019-10-11T12:26:50Z</time>
      </trkpt>
      <trkpt lat="47.12029" lon="-1.32214">
        <ele>12.8</ele>
        <time>2019-10-11T12:26:51Z</time>
      </trkpt>
      <trkpt lat="47.12025" lon="-1.3221">
        <ele>12.8</ele>
        <time>2019-10-11T12:26:52Z</time>
      </trkpt>
      <trkpt lat="47.12021" lon="-1.32206">
        <ele>12.8</ele>
        <time>2019-10-11T12:26:53Z</time>
      </trkpt>
      <trkpt lat="47.12016" lon="-1.32203">
        <ele>12.9</ele>
        <time>2019-10-11T12:26:54Z</time>
      </trkpt>
      <trkpt lat="47.12012" lon="-1.32199">
        <ele>12.9</ele>
        <time>2019-10-11T12:26:55Z</time>
      </trkpt>
      <trkpt lat="47.12008" lon="-1.32196">
        <ele>12.9</ele>
        <time>2019-10-11T12:26:56Z</time>
      </trkpt>
      <trkpt lat="47.12003" lon="-1.32193">
        <ele>12.9</ele>
        <time>2019-10-11T12:26:57Z</time>
      </trkpt>
      <trkpt lat="47.11999" lon="-1.32189">
        <ele>12.9</ele>
        <time>2019-10-11T12:26:58Z</time>
      </trkpt>
      <trkpt lat="47.11994" lon="-1.32186">
        <ele>12.9</ele>
        <time>2019-10-11T12:26:59Z</time>
      </trkpt>
      <trkpt lat="47.1199" lon="-1.32183">
        <ele>12.9</ele>
        <time>2019-10-11T12:27:00Z</time>
      </trkpt>
      <trkpt lat="47.11985" lon="-1.32179">
        <ele>12.9</ele>
        <time>2019-10-11T12:27:01Z</time>
      </trkpt>
      <trkpt lat="47.1198" lon="-1.32176">
        <ele>12.9</ele>
        <time>2019-10-11T12:27:02Z</time>
      </trkpt>
      <trkpt lat="47.11976" lon="-1.32172">
        <ele>12.8</ele>
        <time>2019-10-11T12:27:03Z</time>
      </trkpt>
      <trkpt lat="47.11971" lon="-1.32169">
        <ele>12.7</ele>
        <time>2019-10-11T12:27:04Z</time>
      </trkpt>
      <trkpt lat="47.11967" lon="-1.32166">
        <ele>12.5</ele>
        <time>2019-10-11T12:27:05Z</time>
      </trkpt>
      <trkpt lat="47.11962" lon="-1.32163">
        <ele>12.4</ele>
        <time>2019-10-11T12:27:06Z</time>
      </trkpt>
      <trkpt lat="47.11958" lon="-1.3216">
        <ele>12.3</ele>
        <time>2019-10-11T12:27:07Z</time>
      </trkpt>
      <trkpt lat="47.11954" lon="-1.32156">
        <ele>12.2</ele>
        <time>2019-10-11T12:27:08Z</time>
      </trkpt>
      <trkpt lat="47.11949" lon="-1.32153">
        <ele>12.1</ele>
        <time>2019-10-11T12:27:09Z</time>
      </trkpt>
      <trkpt lat="47.11945" lon="-1.3215">
        <ele>12</ele>
        <time>2019-10-11T12:27:10Z</time>
      </trkpt>
      <trkpt lat="47.11941" lon="-1.32147">
        <ele>11.9</ele>
        <time>2019-10-11T12:27:11Z</time>
      </trkpt>
      <trkpt lat="47.11936" lon="-1.32144">
        <ele>11.8</ele>
        <time>2019-10-11T12:27:12Z</time>
      </trkpt>
      <trkpt lat="47.11932" lon="-1.32141">
        <ele>11.8</ele>
        <time>2019-10-11T12:27:13Z</time>
      </trkpt>
      <trkpt lat="47.11927" lon="-1.32138">
        <ele>11.7</ele>
        <time>2019-10-11T12:27:14Z</time>
      </trkpt>
      <trkpt lat="47.11922" lon="-1.32136">
        <ele>11.6</ele>
        <time>2019-10-11T12:27:15Z</time>
      </trkpt>
      <trkpt lat="47.11917" lon="-1.32133">
        <ele>11.5</ele>
        <time>2019-10-11T12:27:16Z</time>
      </trkpt>
      <trkpt lat="47.11913" lon="-1.3213">
        <ele>11.4</ele>
        <time>2019-10-11T12:27:17Z</time>
      </trkpt>
      <trkpt lat="47.11908" lon="-1.32126">
        <ele>11.4</ele>
        <time>2019-10-11T12:27:18Z</time>
      </trkpt>
      <trkpt lat="47.11903" lon="-1.32123">
        <ele>11.3</ele>
        <time>2019-10-11T12:27:19Z</time>
      </trkpt>
      <trkpt lat="47.11898" lon="-1.3212">
        <ele>11.3</ele>
        <time>2019-10-11T12:27:20Z</time>
      </trkpt>
      <trkpt lat="47.11892" lon="-1.3212">
        <ele>11.3</ele>
        <time>2019-10-11T12:27:21Z</time>
      </trkpt>
      <trkpt lat="47.11886" lon="-1.3212">
        <ele>11.4</ele>
        <time>2019-10-11T12:27:22Z</time>
      </trkpt>
      <trkpt lat="47.11881" lon="-1.32119">
        <ele>11.3</ele>
        <time>2019-10-11T12:27:23Z</time>
      </trkpt>
      <trkpt lat="47.11876" lon="-1.32118">
        <ele>11.3</ele>
        <time>2019-10-11T12:27:24Z</time>
      </trkpt>
      <trkpt lat="47.11871" lon="-1.32117">
        <ele>11.3</ele>
        <time>2019-10-11T12:27:25Z</time>
      </trkpt>
      <trkpt lat="47.11867" lon="-1.32115">
        <ele>11.3</ele>
        <time>2019-10-11T12:27:26Z</time>
      </trkpt>
      <trkpt lat="47.11863" lon="-1.32112">
        <ele>11.2</ele>
        <time>2019-10-11T12:27:27Z</time>
      </trkpt>
      <trkpt lat="47.11858" lon="-1.32109">
        <ele>11.1</ele>
        <time>2019-10-11T12:27:28Z</time>
      </trkpt>
      <trkpt lat="47.11854" lon="-1.32106">
        <ele>11</ele>
        <time>2019-10-11T12:27:29Z</time>
      </trkpt>
      <trkpt lat="47.1185" lon="-1.32103">
        <ele>11</ele>
        <time>2019-10-11T12:27:30Z</time>
      </trkpt>
      <trkpt lat="47.11847" lon="-1.32098">
        <ele>11</ele>
        <time>2019-10-11T12:27:31Z</time>
      </trkpt>
      <trkpt lat="47.11844" lon="-1.32092">
        <ele>11</ele>
        <time>2019-10-11T12:27:32Z</time>
      </trkpt>
      <trkpt lat="47.11839" lon="-1.32085">
        <ele>10.8</ele>
        <time>2019-10-11T12:27:33Z</time>
      </trkpt>
      <trkpt lat="47.11835" lon="-1.32078">
        <ele>10.7</ele>
        <time>2019-10-11T12:27:34Z</time>
      </trkpt>
      <trkpt lat="47.11831" lon="-1.32071">
        <ele>10.6</ele>
        <time>2019-10-11T12:27:35Z</time>
      </trkpt>
      <trkpt lat="47.11827" lon="-1.32065">
        <ele>10.6</ele>
        <time>2019-10-11T12:27:36Z</time>
      </trkpt>
      <trkpt lat="47.11823" lon="-1.32058">
        <ele>10.6</ele>
        <time>2019-10-11T12:27:37Z</time>
      </trkpt>
      <trkpt lat="47.1182" lon="-1.32052">
        <ele>10.6</ele>
        <time>2019-10-11T12:27:38Z</time>
      </trkpt>
      <trkpt lat="47.11816" lon="-1.32046">
        <ele>10.6</ele>
        <time>2019-10-11T12:27:39Z</time>
      </trkpt>
      <trkpt lat="47.11813" lon="-1.32039">
        <ele>10.6</ele>
        <time>2019-10-11T12:27:40Z</time>
      </trkpt>
      <trkpt lat="47.11809" lon="-1.32032">
        <ele>10.6</ele>
        <time>2019-10-11T12:27:41Z</time>
      </trkpt>
      <trkpt lat="47.11805" lon="-1.32026">
        <ele>10.6</ele>
        <time>2019-10-11T12:27:42Z</time>
      </trkpt>
      <trkpt lat="47.11802" lon="-1.32019">
        <ele>10.6</ele>
        <time>2019-10-11T12:27:43Z</time>
      </trkpt>
      <trkpt lat="47.11799" lon="-1.32014">
        <ele>10.6</ele>
        <time>2019-10-11T12:27:44Z</time>
      </trkpt>
      <trkpt lat="47.11796" lon="-1.32008">
        <ele>10.6</ele>
        <time>2019-10-11T12:27:45Z</time>
      </trkpt>
      <trkpt lat="47.11794" lon="-1.32003">
        <ele>10.6</ele>
        <time>2019-10-11T12:27:46Z</time>
      </trkpt>
      <trkpt lat="47.11791" lon="-1.31997">
        <ele>10.6</ele>
        <time>2019-10-11T12:27:47Z</time>
      </trkpt>
      <trkpt lat="47.11788" lon="-1.3199">
        <ele>10.6</ele>
        <time>2019-10-11T12:27:48Z</time>
      </trkpt>
      <trkpt lat="47.11785" lon="-1.31983">
        <ele>10.6</ele>
        <time>2019-10-11T12:27:49Z</time>
      </trkpt>
      <trkpt lat="47.11782" lon="-1.31976">
        <ele>10.6</ele>
        <time>2019-10-11T12:27:50Z</time>
      </trkpt>
      <trkpt lat="47.11779" lon="-1.31969">
        <ele>10.6</ele>
        <time>2019-10-11T12:27:51Z</time>
      </trkpt>
      <trkpt lat="47.11777" lon="-1.31962">
        <ele>10.6</ele>
        <time>2019-10-11T12:27:52Z</time>
      </trkpt>
      <trkpt lat="47.11774" lon="-1.31956">
        <ele>10.6</ele>
        <time>2019-10-11T12:27:53Z</time>
      </trkpt>
      <trkpt lat="47.11771" lon="-1.3195">
        <ele>10.6</ele>
        <time>2019-10-11T12:27:54Z</time>
      </trkpt>
      <trkpt lat="47.11769" lon="-1.31944">
        <ele>10.6</ele>
        <time>2019-10-11T12:27:55Z</time>
      </trkpt>
      <trkpt lat="47.11765" lon="-1.31936">
        <ele>10.6</ele>
        <time>2019-10-11T12:27:56Z</time>
      </trkpt>
      <trkpt lat="47.11761" lon="-1.31928">
        <ele>10.6</ele>
        <time>2019-10-11T12:27:57Z</time>
      </trkpt>
      <trkpt lat="47.11758" lon="-1.31921">
        <ele>10.6</ele>
        <time>2019-10-11T12:27:58Z</time>
      </trkpt>
      <trkpt lat="47.11754" lon="-1.31915">
        <ele>10.6</ele>
        <time>2019-10-11T12:27:59Z</time>
      </trkpt>
      <trkpt lat="47.11752" lon="-1.31907">
        <ele>10.7</ele>
        <time>2019-10-11T12:28:00Z</time>
      </trkpt>
      <trkpt lat="47.11748" lon="-1.31899">
        <ele>10.7</ele>
        <time>2019-10-11T12:28:01Z</time>
      </trkpt>
      <trkpt lat="47.11746" lon="-1.31893">
        <ele>10.7</ele>
        <time>2019-10-11T12:28:02Z</time>
      </trkpt>
      <trkpt lat="47.11744" lon="-1.31886">
        <ele>10.7</ele>
        <time>2019-10-11T12:28:03Z</time>
      </trkpt>
      <trkpt lat="47.11741" lon="-1.31879">
        <ele>10.8</ele>
        <time>2019-10-11T12:28:04Z</time>
      </trkpt>
      <trkpt lat="47.11738" lon="-1.31871">
        <ele>10.8</ele>
        <time>2019-10-11T12:28:05Z</time>
      </trkpt>
      <trkpt lat="47.11736" lon="-1.31862">
        <ele>10.8</ele>
        <time>2019-10-11T12:28:06Z</time>
      </trkpt>
      <trkpt lat="47.11733" lon="-1.31854">
        <ele>10.9</ele>
        <time>2019-10-11T12:28:07Z</time>
      </trkpt>
      <trkpt lat="47.11731" lon="-1.31847">
        <ele>10.9</ele>
        <time>2019-10-11T12:28:08Z</time>
      </trkpt>
      <trkpt lat="47.11728" lon="-1.3184">
        <ele>11</ele>
        <time>2019-10-11T12:28:09Z</time>
      </trkpt>
      <trkpt lat="47.11726" lon="-1.31834">
        <ele>11</ele>
        <time>2019-10-11T12:28:10Z</time>
      </trkpt>
      <trkpt lat="47.11724" lon="-1.31827">
        <ele>11.1</ele>
        <time>2019-10-11T12:28:11Z</time>
      </trkpt>
      <trkpt lat="47.11721" lon="-1.31818">
        <ele>11.2</ele>
        <time>2019-10-11T12:28:12Z</time>
      </trkpt>
      <trkpt lat="47.11719" lon="-1.31811">
        <ele>11.3</ele>
        <time>2019-10-11T12:28:13Z</time>
      </trkpt>
      <trkpt lat="47.11717" lon="-1.31804">
        <ele>11.3</ele>
        <time>2019-10-11T12:28:14Z</time>
      </trkpt>
      <trkpt lat="47.11715" lon="-1.31797">
        <ele>11.4</ele>
        <time>2019-10-11T12:28:15Z</time>
      </trkpt>
      <trkpt lat="47.11712" lon="-1.31791">
        <ele>11.5</ele>
        <time>2019-10-11T12:28:16Z</time>
      </trkpt>
      <trkpt lat="47.11711" lon="-1.31786">
        <ele>11.6</ele>
        <time>2019-10-11T12:28:17Z</time>
      </trkpt>
      <trkpt lat="47.11709" lon="-1.31779">
        <ele>11.7</ele>
        <time>2019-10-11T12:28:18Z</time>
      </trkpt>
      <trkpt lat="47.11708" lon="-1.31772">
        <ele>11.7</ele>
        <time>2019-10-11T12:28:19Z</time>
      </trkpt>
      <trkpt lat="47.11706" lon="-1.31767">
        <ele>11.8</ele>
        <time>2019-10-11T12:28:20Z</time>
      </trkpt>
      <trkpt lat="47.11705" lon="-1.31762">
        <ele>11.9</ele>
        <time>2019-10-11T12:28:21Z</time>
      </trkpt>
      <trkpt lat="47.11702" lon="-1.31756">
        <ele>12</ele>
        <time>2019-10-11T12:28:22Z</time>
      </trkpt>
      <trkpt lat="47.117" lon="-1.3175">
        <ele>12</ele>
        <time>2019-10-11T12:28:23Z</time>
      </trkpt>
      <trkpt lat="47.11697" lon="-1.31743">
        <ele>12.1</ele>
        <time>2019-10-11T12:28:24Z</time>
      </trkpt>
      <trkpt lat="47.11695" lon="-1.31736">
        <ele>12.2</ele>
        <time>2019-10-11T12:28:25Z</time>
      </trkpt>
      <trkpt lat="47.11692" lon="-1.3173">
        <ele>12.3</ele>
        <time>2019-10-11T12:28:26Z</time>
      </trkpt>
      <trkpt lat="47.1169" lon="-1.31724">
        <ele>12.4</ele>
        <time>2019-10-11T12:28:27Z</time>
      </trkpt>
      <trkpt lat="47.11686" lon="-1.31718">
        <ele>12.4</ele>
        <time>2019-10-11T12:28:28Z</time>
      </trkpt>
      <trkpt lat="47.11683" lon="-1.31712">
        <ele>12.5</ele>
        <time>2019-10-11T12:28:29Z</time>
      </trkpt>
      <trkpt lat="47.1168" lon="-1.31707">
        <ele>12.6</ele>
        <time>2019-10-11T12:28:30Z</time>
      </trkpt>
      <trkpt lat="47.11677" lon="-1.31702">
        <ele>12.6</ele>
        <time>2019-10-11T12:28:31Z</time>
      </trkpt>
      <trkpt lat="47.11674" lon="-1.31697">
        <ele>12.7</ele>
        <time>2019-10-11T12:28:32Z</time>
      </trkpt>
      <trkpt lat="47.11671" lon="-1.31692">
        <ele>12.8</ele>
        <time>2019-10-11T12:28:33Z</time>
      </trkpt>
      <trkpt lat="47.11668" lon="-1.31688">
        <ele>12.8</ele>
        <time>2019-10-11T12:28:34Z</time>
      </trkpt>
      <trkpt lat="47.11666" lon="-1.31684">
        <ele>12.9</ele>
        <time>2019-10-11T12:28:35Z</time>
      </trkpt>
      <trkpt lat="47.11664" lon="-1.31681">
        <ele>12.9</ele>
        <time>2019-10-11T12:28:36Z</time>
      </trkpt>
      <trkpt lat="47.11661" lon="-1.31678">
        <ele>13</ele>
        <time>2019-10-11T12:28:37Z</time>
      </trkpt>
      <trkpt lat="47.11659" lon="-1.31674">
        <ele>13</ele>
        <time>2019-10-11T12:28:38Z</time>
      </trkpt>
      <trkpt lat="47.11656" lon="-1.3167">
        <ele>13.1</ele>
        <time>2019-10-11T12:28:39Z</time>
      </trkpt>
      <trkpt lat="47.11653" lon="-1.31663">
        <ele>13.2</ele>
        <time>2019-10-11T12:28:40Z</time>
      </trkpt>
      <trkpt lat="47.1165" lon="-1.31657">
        <ele>13.3</ele>
        <time>2019-10-11T12:28:41Z</time>
      </trkpt>
      <trkpt lat="47.11647" lon="-1.31651">
        <ele>13.4</ele>
        <time>2019-10-11T12:28:42Z</time>
      </trkpt>
      <trkpt lat="47.11643" lon="-1.31645">
        <ele>13.6</ele>
        <time>2019-10-11T12:28:43Z</time>
      </trkpt>
      <trkpt lat="47.1164" lon="-1.3164">
        <ele>13.8</ele>
        <time>2019-10-11T12:28:44Z</time>
      </trkpt>
      <trkpt lat="47.11636" lon="-1.31635">
        <ele>13.9</ele>
        <time>2019-10-11T12:28:45Z</time>
      </trkpt>
      <trkpt lat="47.11633" lon="-1.3163">
        <ele>14</ele>
        <time>2019-10-11T12:28:46Z</time>
      </trkpt>
      <trkpt lat="47.1163" lon="-1.31625">
        <ele>14.2</ele>
        <time>2019-10-11T12:28:47Z</time>
      </trkpt>
      <trkpt lat="47.11626" lon="-1.3162">
        <ele>14.4</ele>
        <time>2019-10-11T12:28:48Z</time>
      </trkpt>
      <trkpt lat="47.11623" lon="-1.31615">
        <ele>14.6</ele>
        <time>2019-10-11T12:28:49Z</time>
      </trkpt>
      <trkpt lat="47.11619" lon="-1.31609">
        <ele>14.8</ele>
        <time>2019-10-11T12:28:50Z</time>
      </trkpt>
      <trkpt lat="47.11616" lon="-1.31604">
        <ele>15</ele>
        <time>2019-10-11T12:28:51Z</time>
      </trkpt>
      <trkpt lat="47.11613" lon="-1.31599">
        <ele>15.4</ele>
        <time>2019-10-11T12:28:52Z</time>
      </trkpt>
      <trkpt lat="47.1161" lon="-1.31594">
        <ele>15.7</ele>
        <time>2019-10-11T12:28:53Z</time>
      </trkpt>
      <trkpt lat="47.11607" lon="-1.31589">
        <ele>16</ele>
        <time>2019-10-11T12:28:54Z</time>
      </trkpt>
      <trkpt lat="47.11604" lon="-1.31583">
        <ele>16.2</ele>
        <time>2019-10-11T12:28:55Z</time>
      </trkpt>
      <trkpt lat="47.11601" lon="-1.31578">
        <ele>16.5</ele>
        <time>2019-10-11T12:28:56Z</time>
      </trkpt>
      <trkpt lat="47.11598" lon="-1.31572">
        <ele>16.6</ele>
        <time>2019-10-11T12:28:57Z</time>
      </trkpt>
      <trkpt lat="47.11596" lon="-1.31566">
        <ele>16.8</ele>
        <time>2019-10-11T12:28:58Z</time>
      </trkpt>
      <trkpt lat="47.11593" lon="-1.3156">
        <ele>16.8</ele>
        <time>2019-10-11T12:28:59Z</time>
      </trkpt>
      <trkpt lat="47.1159" lon="-1.31554">
        <ele>16.9</ele>
        <time>2019-10-11T12:29:00Z</time>
      </trkpt>
      <trkpt lat="47.11588" lon="-1.31549">
        <ele>16.9</ele>
        <time>2019-10-11T12:29:01Z</time>
      </trkpt>
      <trkpt lat="47.11586" lon="-1.31543">
        <ele>16.9</ele>
        <time>2019-10-11T12:29:02Z</time>
      </trkpt>
      <trkpt lat="47.11584" lon="-1.31539">
        <ele>16.8</ele>
        <time>2019-10-11T12:29:03Z</time>
      </trkpt>
      <trkpt lat="47.11582" lon="-1.31534">
        <ele>16.8</ele>
        <time>2019-10-11T12:29:04Z</time>
      </trkpt>
      <trkpt lat="47.11579" lon="-1.31529">
        <ele>16.6</ele>
        <time>2019-10-11T12:29:05Z</time>
      </trkpt>
      <trkpt lat="47.11577" lon="-1.31521">
        <ele>16.5</ele>
        <time>2019-10-11T12:29:06Z</time>
      </trkpt>
      <trkpt lat="47.11575" lon="-1.31514">
        <ele>16.3</ele>
        <time>2019-10-11T12:29:07Z</time>
      </trkpt>
      <trkpt lat="47.11573" lon="-1.31508">
        <ele>16.2</ele>
        <time>2019-10-11T12:29:08Z</time>
      </trkpt>
      <trkpt lat="47.11572" lon="-1.31501">
        <ele>16.1</ele>
        <time>2019-10-11T12:29:09Z</time>
      </trkpt>
      <trkpt lat="47.11571" lon="-1.31495">
        <ele>15.9</ele>
        <time>2019-10-11T12:29:10Z</time>
      </trkpt>
      <trkpt lat="47.1157" lon="-1.31489">
        <ele>15.7</ele>
        <time>2019-10-11T12:29:11Z</time>
      </trkpt>
      <trkpt lat="47.11569" lon="-1.31484">
        <ele>15.6</ele>
        <time>2019-10-11T12:29:12Z</time>
      </trkpt>
      <trkpt lat="47.11568" lon="-1.31478">
        <ele>15.4</ele>
        <time>2019-10-11T12:29:13Z</time>
      </trkpt>
      <trkpt lat="47.11567" lon="-1.31474">
        <ele>15.2</ele>
        <time>2019-10-11T12:29:14Z</time>
      </trkpt>
      <trkpt lat="47.11564" lon="-1.3147">
        <ele>15</ele>
        <time>2019-10-11T12:29:15Z</time>
      </trkpt>
      <trkpt lat="47.11561" lon="-1.31467">
        <ele>14.6</ele>
        <time>2019-10-11T12:29:16Z</time>
      </trkpt>
      <trkpt lat="47.11558" lon="-1.31464">
        <ele>14.5</ele>
        <time>2019-10-11T12:29:17Z</time>
      </trkpt>
      <trkpt lat="47.11555" lon="-1.31461">
        <ele>14.3</ele>
        <time>2019-10-11T12:29:18Z</time>
      </trkpt>
      <trkpt lat="47.11551" lon="-1.31458">
        <ele>14.3</ele>
        <time>2019-10-11T12:29:19Z</time>
      </trkpt>
      <trkpt lat="47.11547" lon="-1.31455">
        <ele>14.3</ele>
        <time>2019-10-11T12:29:20Z</time>
      </trkpt>
      <trkpt lat="47.11543" lon="-1.31451">
        <ele>14.3</ele>
        <time>2019-10-11T12:29:21Z</time>
      </trkpt>
      <trkpt lat="47.11538" lon="-1.31447">
        <ele>14.3</ele>
        <time>2019-10-11T12:29:22Z</time>
      </trkpt>
      <trkpt lat="47.11534" lon="-1.31444">
        <ele>14.3</ele>
        <time>2019-10-11T12:29:23Z</time>
      </trkpt>
      <trkpt lat="47.11529" lon="-1.3144">
        <ele>14.3</ele>
        <time>2019-10-11T12:29:24Z</time>
      </trkpt>
      <trkpt lat="47.11525" lon="-1.31435">
        <ele>14.3</ele>
        <time>2019-10-11T12:29:25Z</time>
      </trkpt>
      <trkpt lat="47.11521" lon="-1.31431">
        <ele>14.3</ele>
        <time>2019-10-11T12:29:26Z</time>
      </trkpt>
      <trkpt lat="47.11518" lon="-1.31426">
        <ele>14.3</ele>
        <time>2019-10-11T12:29:27Z</time>
      </trkpt>
      <trkpt lat="47.11514" lon="-1.3142">
        <ele>14.2</ele>
        <time>2019-10-11T12:29:28Z</time>
      </trkpt>
      <trkpt lat="47.1151" lon="-1.31415">
        <ele>14.2</ele>
        <time>2019-10-11T12:29:29Z</time>
      </trkpt>
      <trkpt lat="47.11506" lon="-1.31409">
        <ele>14.2</ele>
        <time>2019-10-11T12:29:30Z</time>
      </trkpt>
      <trkpt lat="47.11502" lon="-1.31403">
        <ele>14.2</ele>
        <time>2019-10-11T12:29:31Z</time>
      </trkpt>
      <trkpt lat="47.11499" lon="-1.31398">
        <ele>14.2</ele>
        <time>2019-10-11T12:29:32Z</time>
      </trkpt>
      <trkpt lat="47.11495" lon="-1.31392">
        <ele>14.2</ele>
        <time>2019-10-11T12:29:33Z</time>
      </trkpt>
      <trkpt lat="47.11491" lon="-1.31386">
        <ele>14.1</ele>
        <time>2019-10-11T12:29:34Z</time>
      </trkpt>
      <trkpt lat="47.11488" lon="-1.31381">
        <ele>14.1</ele>
        <time>2019-10-11T12:29:35Z</time>
      </trkpt>
      <trkpt lat="47.11485" lon="-1.31375">
        <ele>14.1</ele>
        <time>2019-10-11T12:29:36Z</time>
      </trkpt>
      <trkpt lat="47.11481" lon="-1.31369">
        <ele>14.1</ele>
        <time>2019-10-11T12:29:37Z</time>
      </trkpt>
      <trkpt lat="47.11477" lon="-1.31363">
        <ele>14</ele>
        <time>2019-10-11T12:29:38Z</time>
      </trkpt>
      <trkpt lat="47.11474" lon="-1.31357">
        <ele>14</ele>
        <time>2019-10-11T12:29:39Z</time>
      </trkpt>
      <trkpt lat="47.1147" lon="-1.31352">
        <ele>14</ele>
        <time>2019-10-11T12:29:40Z</time>
      </trkpt>
      <trkpt lat="47.11465" lon="-1.31346">
        <ele>14</ele>
        <time>2019-10-11T12:29:41Z</time>
      </trkpt>
      <trkpt lat="47.11461" lon="-1.3134">
        <ele>14</ele>
        <time>2019-10-11T12:29:42Z</time>
      </trkpt>
      <trkpt lat="47.11457" lon="-1.31334">
        <ele>14</ele>
        <time>2019-10-11T12:29:43Z</time>
      </trkpt>
      <trkpt lat="47.11454" lon="-1.31329">
        <ele>14</ele>
        <time>2019-10-11T12:29:44Z</time>
      </trkpt>
      <trkpt lat="47.1145" lon="-1.31323">
        <ele>14</ele>
        <time>2019-10-11T12:29:45Z</time>
      </trkpt>
      <trkpt lat="47.11446" lon="-1.31318">
        <ele>14</ele>
        <time>2019-10-11T12:29:46Z</time>
      </trkpt>
      <trkpt lat="47.11443" lon="-1.31312">
        <ele>14.1</ele>
        <time>2019-10-11T12:29:47Z</time>
      </trkpt>
      <trkpt lat="47.11439" lon="-1.31306">
        <ele>14.1</ele>
        <time>2019-10-11T12:29:48Z</time>
      </trkpt>
      <trkpt lat="47.11434" lon="-1.31301">
        <ele>14.1</ele>
        <time>2019-10-11T12:29:49Z</time>
      </trkpt>
      <trkpt lat="47.11429" lon="-1.31296">
        <ele>14.1</ele>
        <time>2019-10-11T12:29:50Z</time>
      </trkpt>
      <trkpt lat="47.11425" lon="-1.3129">
        <ele>14.1</ele>
        <time>2019-10-11T12:29:51Z</time>
      </trkpt>
      <trkpt lat="47.1142" lon="-1.31285">
        <ele>14.2</ele>
        <time>2019-10-11T12:29:52Z</time>
      </trkpt>
      <trkpt lat="47.11416" lon="-1.3128">
        <ele>14.2</ele>
        <time>2019-10-11T12:29:53Z</time>
      </trkpt>
      <trkpt lat="47.11411" lon="-1.31275">
        <ele>14.3</ele>
        <time>2019-10-11T12:29:54Z</time>
      </trkpt>
      <trkpt lat="47.11407" lon="-1.31271">
        <ele>14.3</ele>
        <time>2019-10-11T12:29:55Z</time>
      </trkpt>
      <trkpt lat="47.11402" lon="-1.31267">
        <ele>14.4</ele>
        <time>2019-10-11T12:29:56Z</time>
      </trkpt>
      <trkpt lat="47.11397" lon="-1.31262">
        <ele>14.4</ele>
        <time>2019-10-11T12:29:57Z</time>
      </trkpt>
      <trkpt lat="47.11393" lon="-1.31258">
        <ele>14.5</ele>
        <time>2019-10-11T12:29:58Z</time>
      </trkpt>
      <trkpt lat="47.11388" lon="-1.31254">
        <ele>14.5</ele>
        <time>2019-10-11T12:29:59Z</time>
      </trkpt>
      <trkpt lat="47.11383" lon="-1.3125">
        <ele>14.7</ele>
        <time>2019-10-11T12:30:00Z</time>
      </trkpt>
      <trkpt lat="47.11378" lon="-1.31245">
        <ele>14.8</ele>
        <time>2019-10-11T12:30:01Z</time>
      </trkpt>
      <trkpt lat="47.11373" lon="-1.31241">
        <ele>14.9</ele>
        <time>2019-10-11T12:30:02Z</time>
      </trkpt>
      <trkpt lat="47.11369" lon="-1.31237">
        <ele>15.1</ele>
        <time>2019-10-11T12:30:03Z</time>
      </trkpt>
      <trkpt lat="47.11364" lon="-1.31233">
        <ele>15.2</ele>
        <time>2019-10-11T12:30:04Z</time>
      </trkpt>
      <trkpt lat="47.1136" lon="-1.31229">
        <ele>15.3</ele>
        <time>2019-10-11T12:30:05Z</time>
      </trkpt>
      <trkpt lat="47.11356" lon="-1.31225">
        <ele>15.3</ele>
        <time>2019-10-11T12:30:06Z</time>
      </trkpt>
      <trkpt lat="47.11352" lon="-1.31221">
        <ele>15.3</ele>
        <time>2019-10-11T12:30:07Z</time>
      </trkpt>
      <trkpt lat="47.11349" lon="-1.31217">
        <ele>15.3</ele>
        <time>2019-10-11T12:30:08Z</time>
      </trkpt>
      <trkpt lat="47.11345" lon="-1.31211">
        <ele>15.4</ele>
        <time>2019-10-11T12:30:10Z</time>
      </trkpt>
      <trkpt lat="47.11342" lon="-1.31208">
        <ele>15.4</ele>
        <time>2019-10-11T12:30:11Z</time>
      </trkpt>
      <trkpt lat="47.11338" lon="-1.31205">
        <ele>15.4</ele>
        <time>2019-10-11T12:30:12Z</time>
      </trkpt>
      <trkpt lat="47.11335" lon="-1.31203">
        <ele>15.4</ele>
        <time>2019-10-11T12:30:13Z</time>
      </trkpt>
      <trkpt lat="47.11331" lon="-1.312">
        <ele>15.4</ele>
        <time>2019-10-11T12:30:14Z</time>
      </trkpt>
      <trkpt lat="47.11328" lon="-1.31196">
        <ele>15.4</ele>
        <time>2019-10-11T12:30:15Z</time>
      </trkpt>
      <trkpt lat="47.11324" lon="-1.31192">
        <ele>15.4</ele>
        <time>2019-10-11T12:30:16Z</time>
      </trkpt>
      <trkpt lat="47.1132" lon="-1.31187">
        <ele>15.4</ele>
        <time>2019-10-11T12:30:17Z</time>
      </trkpt>
      <trkpt lat="47.11315" lon="-1.31181">
        <ele>15.4</ele>
        <time>2019-10-11T12:30:18Z</time>
      </trkpt>
      <trkpt lat="47.11311" lon="-1.31175">
        <ele>15.4</ele>
        <time>2019-10-11T12:30:19Z</time>
      </trkpt>
      <trkpt lat="47.11307" lon="-1.3117">
        <ele>15.4</ele>
        <time>2019-10-11T12:30:20Z</time>
      </trkpt>
      <trkpt lat="47.11304" lon="-1.31165">
        <ele>15.4</ele>
        <time>2019-10-11T12:30:21Z</time>
      </trkpt>
      <trkpt lat="47.11301" lon="-1.31161">
        <ele>15.4</ele>
        <time>2019-10-11T12:30:22Z</time>
      </trkpt>
      <trkpt lat="47.11298" lon="-1.31157">
        <ele>15.4</ele>
        <time>2019-10-11T12:30:23Z</time>
      </trkpt>
      <trkpt lat="47.11294" lon="-1.31153">
        <ele>15.4</ele>
        <time>2019-10-11T12:30:24Z</time>
      </trkpt>
      <trkpt lat="47.11289" lon="-1.31147">
        <ele>15.4</ele>
        <time>2019-10-11T12:30:25Z</time>
      </trkpt>
      <trkpt lat="47.11285" lon="-1.31143">
        <ele>15.4</ele>
        <time>2019-10-11T12:30:26Z</time>
      </trkpt>
      <trkpt lat="47.1128" lon="-1.31137">
        <ele>15.5</ele>
        <time>2019-10-11T12:30:27Z</time>
      </trkpt>
      <trkpt lat="47.11277" lon="-1.3113">
        <ele>15.6</ele>
        <time>2019-10-11T12:30:28Z</time>
      </trkpt>
      <trkpt lat="47.11274" lon="-1.31122">
        <ele>15.8</ele>
        <time>2019-10-11T12:30:29Z</time>
      </trkpt>
      <trkpt lat="47.11271" lon="-1.31116">
        <ele>15.9</ele>
        <time>2019-10-11T12:30:30Z</time>
      </trkpt>
      <trkpt lat="47.11268" lon="-1.3111">
        <ele>16.1</ele>
        <time>2019-10-11T12:30:31Z</time>
      </trkpt>
      <trkpt lat="47.11266" lon="-1.31106">
        <ele>16.2</ele>
        <time>2019-10-11T12:30:32Z</time>
      </trkpt>
      <trkpt lat="47.1126" lon="-1.31099">
        <ele>16.3</ele>
        <time>2019-10-11T12:30:33Z</time>
      </trkpt>
      <trkpt lat="47.11255" lon="-1.31094">
        <ele>16.3</ele>
        <time>2019-10-11T12:30:34Z</time>
      </trkpt>
      <trkpt lat="47.11251" lon="-1.31089">
        <ele>16.3</ele>
        <time>2019-10-11T12:30:35Z</time>
      </trkpt>
      <trkpt lat="47.11246" lon="-1.31084">
        <ele>16.4</ele>
        <time>2019-10-11T12:30:36Z</time>
      </trkpt>
      <trkpt lat="47.11242" lon="-1.3108">
        <ele>16.4</ele>
        <time>2019-10-11T12:30:37Z</time>
      </trkpt>
      <trkpt lat="47.11238" lon="-1.31076">
        <ele>16.4</ele>
        <time>2019-10-11T12:30:38Z</time>
      </trkpt>
      <trkpt lat="47.11235" lon="-1.31072">
        <ele>16.4</ele>
        <time>2019-10-11T12:30:39Z</time>
      </trkpt>
      <trkpt lat="47.11232" lon="-1.31068">
        <ele>16.4</ele>
        <time>2019-10-11T12:30:40Z</time>
      </trkpt>
      <trkpt lat="47.11227" lon="-1.31063">
        <ele>16.4</ele>
        <time>2019-10-11T12:30:41Z</time>
      </trkpt>
      <trkpt lat="47.11224" lon="-1.31059">
        <ele>16.5</ele>
        <time>2019-10-11T12:30:42Z</time>
      </trkpt>
      <trkpt lat="47.1122" lon="-1.31055">
        <ele>16.5</ele>
        <time>2019-10-11T12:30:43Z</time>
      </trkpt>
      <trkpt lat="47.11217" lon="-1.31053">
        <ele>16.6</ele>
        <time>2019-10-11T12:30:44Z</time>
      </trkpt>
      <trkpt lat="47.11212" lon="-1.3105">
        <ele>16.7</ele>
        <time>2019-10-11T12:30:45Z</time>
      </trkpt>
      <trkpt lat="47.11206" lon="-1.31045">
        <ele>16.8</ele>
        <time>2019-10-11T12:30:46Z</time>
      </trkpt>
      <trkpt lat="47.11201" lon="-1.31041">
        <ele>17</ele>
        <time>2019-10-11T12:30:47Z</time>
      </trkpt>
      <trkpt lat="47.11197" lon="-1.31037">
        <ele>17.2</ele>
        <time>2019-10-11T12:30:48Z</time>
      </trkpt>
      <trkpt lat="47.11193" lon="-1.31033">
        <ele>17.3</ele>
        <time>2019-10-11T12:30:49Z</time>
      </trkpt>
      <trkpt lat="47.11188" lon="-1.31029">
        <ele>17.3</ele>
        <time>2019-10-11T12:30:50Z</time>
      </trkpt>
      <trkpt lat="47.11185" lon="-1.31025">
        <ele>17.4</ele>
        <time>2019-10-11T12:30:51Z</time>
      </trkpt>
      <trkpt lat="47.11181" lon="-1.31021">
        <ele>17.4</ele>
        <time>2019-10-11T12:30:52Z</time>
      </trkpt>
      <trkpt lat="47.11176" lon="-1.31016">
        <ele>17.4</ele>
        <time>2019-10-11T12:30:53Z</time>
      </trkpt>
      <trkpt lat="47.11172" lon="-1.31013">
        <ele>17.4</ele>
        <time>2019-10-11T12:30:54Z</time>
      </trkpt>
      <trkpt lat="47.11167" lon="-1.31009">
        <ele>17.4</ele>
        <time>2019-10-11T12:30:55Z</time>
      </trkpt>
      <trkpt lat="47.11163" lon="-1.31005">
        <ele>17.4</ele>
        <time>2019-10-11T12:30:56Z</time>
      </trkpt>
      <trkpt lat="47.11158" lon="-1.31002">
        <ele>17.4</ele>
        <time>2019-10-11T12:30:57Z</time>
      </trkpt>
      <trkpt lat="47.11152" lon="-1.30998">
        <ele>17.4</ele>
        <time>2019-10-11T12:30:58Z</time>
      </trkpt>
      <trkpt lat="47.11147" lon="-1.30995">
        <ele>17.4</ele>
        <time>2019-10-11T12:30:59Z</time>
      </trkpt>
      <trkpt lat="47.11142" lon="-1.30992">
        <ele>17.4</ele>
        <time>2019-10-11T12:31:00Z</time>
      </trkpt>
      <trkpt lat="47.11135" lon="-1.30989">
        <ele>17.4</ele>
        <time>2019-10-11T12:31:01Z</time>
      </trkpt>
      <trkpt lat="47.11129" lon="-1.30987">
        <ele>17.4</ele>
        <time>2019-10-11T12:31:02Z</time>
      </trkpt>
      <trkpt lat="47.11123" lon="-1.30984">
        <ele>17.4</ele>
        <time>2019-10-11T12:31:03Z</time>
      </trkpt>
      <trkpt lat="47.11118" lon="-1.30982">
        <ele>17.4</ele>
        <time>2019-10-11T12:31:04Z</time>
      </trkpt>
      <trkpt lat="47.11112" lon="-1.30981">
        <ele>17.4</ele>
        <time>2019-10-11T12:31:05Z</time>
      </trkpt>
      <trkpt lat="47.11107" lon="-1.30979">
        <ele>17.4</ele>
        <time>2019-10-11T12:31:06Z</time>
      </trkpt>
      <trkpt lat="47.11101" lon="-1.30977">
        <ele>17.4</ele>
        <time>2019-10-11T12:31:07Z</time>
      </trkpt>
      <trkpt lat="47.11095" lon="-1.30975">
        <ele>17.4</ele>
        <time>2019-10-11T12:31:08Z</time>
      </trkpt>
      <trkpt lat="47.1109" lon="-1.30973">
        <ele>17.4</ele>
        <time>2019-10-11T12:31:09Z</time>
      </trkpt>
      <trkpt lat="47.11084" lon="-1.3097">
        <ele>17.4</ele>
        <time>2019-10-11T12:31:10Z</time>
      </trkpt>
      <trkpt lat="47.11079" lon="-1.30968">
        <ele>17.3</ele>
        <time>2019-10-11T12:31:11Z</time>
      </trkpt>
      <trkpt lat="47.11074" lon="-1.30965">
        <ele>17.3</ele>
        <time>2019-10-11T12:31:12Z</time>
      </trkpt>
      <trkpt lat="47.11068" lon="-1.30962">
        <ele>17.2</ele>
        <time>2019-10-11T12:31:13Z</time>
      </trkpt>
      <trkpt lat="47.11063" lon="-1.30958">
        <ele>17</ele>
        <time>2019-10-11T12:31:14Z</time>
      </trkpt>
      <trkpt lat="47.11058" lon="-1.30954">
        <ele>16.9</ele>
        <time>2019-10-11T12:31:15Z</time>
      </trkpt>
      <trkpt lat="47.11053" lon="-1.3095">
        <ele>16.7</ele>
        <time>2019-10-11T12:31:16Z</time>
      </trkpt>
      <trkpt lat="47.11048" lon="-1.30946">
        <ele>16.6</ele>
        <time>2019-10-11T12:31:17Z</time>
      </trkpt>
      <trkpt lat="47.11043" lon="-1.30941">
        <ele>16.5</ele>
        <time>2019-10-11T12:31:18Z</time>
      </trkpt>
      <trkpt lat="47.11038" lon="-1.30936">
        <ele>16.4</ele>
        <time>2019-10-11T12:31:19Z</time>
      </trkpt>
      <trkpt lat="47.11034" lon="-1.30931">
        <ele>16.4</ele>
        <time>2019-10-11T12:31:20Z</time>
      </trkpt>
      <trkpt lat="47.11029" lon="-1.30926">
        <ele>16.4</ele>
        <time>2019-10-11T12:31:21Z</time>
      </trkpt>
      <trkpt lat="47.11024" lon="-1.30921">
        <ele>16.4</ele>
        <time>2019-10-11T12:31:22Z</time>
      </trkpt>
      <trkpt lat="47.11019" lon="-1.30915">
        <ele>16.4</ele>
        <time>2019-10-11T12:31:23Z</time>
      </trkpt>
      <trkpt lat="47.11015" lon="-1.3091">
        <ele>16.4</ele>
        <time>2019-10-11T12:31:24Z</time>
      </trkpt>
      <trkpt lat="47.1101" lon="-1.30904">
        <ele>16.4</ele>
        <time>2019-10-11T12:31:25Z</time>
      </trkpt>
      <trkpt lat="47.11005" lon="-1.30899">
        <ele>16.4</ele>
        <time>2019-10-11T12:31:26Z</time>
      </trkpt>
      <trkpt lat="47.11001" lon="-1.30894">
        <ele>16.4</ele>
        <time>2019-10-11T12:31:27Z</time>
      </trkpt>
      <trkpt lat="47.10996" lon="-1.30889">
        <ele>16.4</ele>
        <time>2019-10-11T12:31:28Z</time>
      </trkpt>
      <trkpt lat="47.10991" lon="-1.30883">
        <ele>16.4</ele>
        <time>2019-10-11T12:31:29Z</time>
      </trkpt>
      <trkpt lat="47.10987" lon="-1.30878">
        <ele>16.4</ele>
        <time>2019-10-11T12:31:30Z</time>
      </trkpt>
      <trkpt lat="47.10982" lon="-1.30872">
        <ele>16.4</ele>
        <time>2019-10-11T12:31:31Z</time>
      </trkpt>
      <trkpt lat="47.10978" lon="-1.30866">
        <ele>16.4</ele>
        <time>2019-10-11T12:31:32Z</time>
      </trkpt>
      <trkpt lat="47.10974" lon="-1.3086">
        <ele>16.4</ele>
        <time>2019-10-11T12:31:33Z</time>
      </trkpt>
      <trkpt lat="47.10969" lon="-1.30854">
        <ele>16.4</ele>
        <time>2019-10-11T12:31:34Z</time>
      </trkpt>
      <trkpt lat="47.10965" lon="-1.30848">
        <ele>16.4</ele>
        <time>2019-10-11T12:31:35Z</time>
      </trkpt>
      <trkpt lat="47.10961" lon="-1.30841">
        <ele>16.4</ele>
        <time>2019-10-11T12:31:36Z</time>
      </trkpt>
      <trkpt lat="47.10958" lon="-1.30835">
        <ele>16.4</ele>
        <time>2019-10-11T12:31:37Z</time>
      </trkpt>
      <trkpt lat="47.10954" lon="-1.30829">
        <ele>16.4</ele>
        <time>2019-10-11T12:31:38Z</time>
      </trkpt>
      <trkpt lat="47.1095" lon="-1.30822">
        <ele>16.4</ele>
        <time>2019-10-11T12:31:39Z</time>
      </trkpt>
      <trkpt lat="47.10946" lon="-1.30816">
        <ele>16.4</ele>
        <time>2019-10-11T12:31:40Z</time>
      </trkpt>
      <trkpt lat="47.10943" lon="-1.30809">
        <ele>16.4</ele>
        <time>2019-10-11T12:31:41Z</time>
      </trkpt>
      <trkpt lat="47.10939" lon="-1.30803">
        <ele>16.4</ele>
        <time>2019-10-11T12:31:42Z</time>
      </trkpt>
      <trkpt lat="47.10936" lon="-1.30796">
        <ele>16.4</ele>
        <time>2019-10-11T12:31:43Z</time>
      </trkpt>
      <trkpt lat="47.10932" lon="-1.30789">
        <ele>16.4</ele>
        <time>2019-10-11T12:31:44Z</time>
      </trkpt>
      <trkpt lat="47.10929" lon="-1.30783">
        <ele>16.4</ele>
        <time>2019-10-11T12:31:45Z</time>
      </trkpt>
      <trkpt lat="47.10926" lon="-1.30776">
        <ele>16.4</ele>
        <time>2019-10-11T12:31:46Z</time>
      </trkpt>
      <trkpt lat="47.10923" lon="-1.30769">
        <ele>16.4</ele>
        <time>2019-10-11T12:31:47Z</time>
      </trkpt>
      <trkpt lat="47.10919" lon="-1.30763">
        <ele>16.4</ele>
        <time>2019-10-11T12:31:48Z</time>
      </trkpt>
      <trkpt lat="47.10916" lon="-1.30756">
        <ele>16.4</ele>
        <time>2019-10-11T12:31:49Z</time>
      </trkpt>
      <trkpt lat="47.10913" lon="-1.30749">
        <ele>16.4</ele>
        <time>2019-10-11T12:31:50Z</time>
      </trkpt>
      <trkpt lat="47.1091" lon="-1.30743">
        <ele>16.4</ele>
        <time>2019-10-11T12:31:51Z</time>
      </trkpt>
      <trkpt lat="47.10907" lon="-1.30737">
        <ele>16.4</ele>
        <time>2019-10-11T12:31:52Z</time>
      </trkpt>
      <trkpt lat="47.10904" lon="-1.30731">
        <ele>16.4</ele>
        <time>2019-10-11T12:31:53Z</time>
      </trkpt>
      <trkpt lat="47.10901" lon="-1.30724">
        <ele>16.4</ele>
        <time>2019-10-11T12:31:54Z</time>
      </trkpt>
      <trkpt lat="47.10897" lon="-1.30718">
        <ele>16.4</ele>
        <time>2019-10-11T12:31:55Z</time>
      </trkpt>
      <trkpt lat="47.10894" lon="-1.30711">
        <ele>16.4</ele>
        <time>2019-10-11T12:31:56Z</time>
      </trkpt>
      <trkpt lat="47.1089" lon="-1.30704">
        <ele>16.4</ele>
        <time>2019-10-11T12:31:57Z</time>
      </trkpt>
      <trkpt lat="47.10887" lon="-1.30697">
        <ele>16.4</ele>
        <time>2019-10-11T12:31:58Z</time>
      </trkpt>
      <trkpt lat="47.10883" lon="-1.30691">
        <ele>16.4</ele>
        <time>2019-10-11T12:31:59Z</time>
      </trkpt>
      <trkpt lat="47.1088" lon="-1.30684">
        <ele>16.4</ele>
        <time>2019-10-11T12:32:00Z</time>
      </trkpt>
      <trkpt lat="47.10877" lon="-1.30678">
        <ele>16.4</ele>
        <time>2019-10-11T12:32:01Z</time>
      </trkpt>
      <trkpt lat="47.10873" lon="-1.30671">
        <ele>16.4</ele>
        <time>2019-10-11T12:32:02Z</time>
      </trkpt>
      <trkpt lat="47.1087" lon="-1.30664">
        <ele>16.4</ele>
        <time>2019-10-11T12:32:03Z</time>
      </trkpt>
      <trkpt lat="47.10866" lon="-1.30657">
        <ele>16.4</ele>
        <time>2019-10-11T12:32:04Z</time>
      </trkpt>
      <trkpt lat="47.10863" lon="-1.3065">
        <ele>16.4</ele>
        <time>2019-10-11T12:32:05Z</time>
      </trkpt>
      <trkpt lat="47.1086" lon="-1.30643">
        <ele>16.4</ele>
        <time>2019-10-11T12:32:06Z</time>
      </trkpt>
      <trkpt lat="47.10856" lon="-1.30636">
        <ele>16.4</ele>
        <time>2019-10-11T12:32:07Z</time>
      </trkpt>
      <trkpt lat="47.10853" lon="-1.30629">
        <ele>16.4</ele>
        <time>2019-10-11T12:32:08Z</time>
      </trkpt>
      <trkpt lat="47.1085" lon="-1.30622">
        <ele>16.4</ele>
        <time>2019-10-11T12:32:09Z</time>
      </trkpt>
      <trkpt lat="47.10846" lon="-1.30615">
        <ele>16.4</ele>
        <time>2019-10-11T12:32:10Z</time>
      </trkpt>
      <trkpt lat="47.10843" lon="-1.30609">
        <ele>16.4</ele>
        <time>2019-10-11T12:32:11Z</time>
      </trkpt>
      <trkpt lat="47.1084" lon="-1.30602">
        <ele>16.4</ele>
        <time>2019-10-11T12:32:12Z</time>
      </trkpt>
      <trkpt lat="47.10837" lon="-1.30595">
        <ele>16.4</ele>
        <time>2019-10-11T12:32:13Z</time>
      </trkpt>
      <trkpt lat="47.10833" lon="-1.30588">
        <ele>16.4</ele>
        <time>2019-10-11T12:32:14Z</time>
      </trkpt>
      <trkpt lat="47.1083" lon="-1.30581">
        <ele>16.4</ele>
        <time>2019-10-11T12:32:15Z</time>
      </trkpt>
      <trkpt lat="47.10827" lon="-1.30575">
        <ele>16.5</ele>
        <time>2019-10-11T12:32:16Z</time>
      </trkpt>
      <trkpt lat="47.10823" lon="-1.30569">
        <ele>16.5</ele>
        <time>2019-10-11T12:32:17Z</time>
      </trkpt>
      <trkpt lat="47.1082" lon="-1.30562">
        <ele>16.5</ele>
        <time>2019-10-11T12:32:18Z</time>
      </trkpt>
      <trkpt lat="47.10817" lon="-1.30556">
        <ele>16.5</ele>
        <time>2019-10-11T12:32:19Z</time>
      </trkpt>
      <trkpt lat="47.10814" lon="-1.3055">
        <ele>16.5</ele>
        <time>2019-10-11T12:32:20Z</time>
      </trkpt>
      <trkpt lat="47.10811" lon="-1.30543">
        <ele>16.5</ele>
        <time>2019-10-11T12:32:21Z</time>
      </trkpt>
      <trkpt lat="47.10808" lon="-1.30537">
        <ele>16.5</ele>
        <time>2019-10-11T12:32:22Z</time>
      </trkpt>
      <trkpt lat="47.10805" lon="-1.30531">
        <ele>16.5</ele>
        <time>2019-10-11T12:32:23Z</time>
      </trkpt>
      <trkpt lat="47.10802" lon="-1.30525">
        <ele>16.6</ele>
        <time>2019-10-11T12:32:24Z</time>
      </trkpt>
      <trkpt lat="47.108" lon="-1.30518">
        <ele>16.7</ele>
        <time>2019-10-11T12:32:25Z</time>
      </trkpt>
      <trkpt lat="47.10798" lon="-1.30512">
        <ele>16.8</ele>
        <time>2019-10-11T12:32:26Z</time>
      </trkpt>
      <trkpt lat="47.10795" lon="-1.30506">
        <ele>17</ele>
        <time>2019-10-11T12:32:27Z</time>
      </trkpt>
      <trkpt lat="47.10793" lon="-1.305">
        <ele>17.1</ele>
        <time>2019-10-11T12:32:28Z</time>
      </trkpt>
      <trkpt lat="47.10791" lon="-1.30493">
        <ele>17.2</ele>
        <time>2019-10-11T12:32:29Z</time>
      </trkpt>
      <trkpt lat="47.1079" lon="-1.30487">
        <ele>17.3</ele>
        <time>2019-10-11T12:32:30Z</time>
      </trkpt>
      <trkpt lat="47.10788" lon="-1.3048">
        <ele>17.4</ele>
        <time>2019-10-11T12:32:31Z</time>
      </trkpt>
      <trkpt lat="47.10786" lon="-1.30474">
        <ele>17.5</ele>
        <time>2019-10-11T12:32:32Z</time>
      </trkpt>
      <trkpt lat="47.10785" lon="-1.30467">
        <ele>17.5</ele>
        <time>2019-10-11T12:32:33Z</time>
      </trkpt>
      <trkpt lat="47.10783" lon="-1.30461">
        <ele>17.6</ele>
        <time>2019-10-11T12:32:34Z</time>
      </trkpt>
      <trkpt lat="47.10781" lon="-1.30455">
        <ele>17.9</ele>
        <time>2019-10-11T12:32:35Z</time>
      </trkpt>
      <trkpt lat="47.10779" lon="-1.30448">
        <ele>18.2</ele>
        <time>2019-10-11T12:32:36Z</time>
      </trkpt>
      <trkpt lat="47.10778" lon="-1.30442">
        <ele>18.4</ele>
        <time>2019-10-11T12:32:37Z</time>
      </trkpt>
      <trkpt lat="47.10776" lon="-1.30436">
        <ele>18.5</ele>
        <time>2019-10-11T12:32:38Z</time>
      </trkpt>
      <trkpt lat="47.10775" lon="-1.3043">
        <ele>18.4</ele>
        <time>2019-10-11T12:32:39Z</time>
      </trkpt>
      <trkpt lat="47.10773" lon="-1.30425">
        <ele>18.2</ele>
        <time>2019-10-11T12:32:40Z</time>
      </trkpt>
      <trkpt lat="47.10771" lon="-1.3042">
        <ele>18</ele>
        <time>2019-10-11T12:32:41Z</time>
      </trkpt>
      <trkpt lat="47.1077" lon="-1.30416">
        <ele>17.9</ele>
        <time>2019-10-11T12:32:42Z</time>
      </trkpt>
      <trkpt lat="47.10768" lon="-1.30413">
        <ele>17.7</ele>
        <time>2019-10-11T12:32:43Z</time>
      </trkpt>
      <trkpt lat="47.10767" lon="-1.30409">
        <ele>17.7</ele>
        <time>2019-10-11T12:32:44Z</time>
      </trkpt>
      <trkpt lat="47.10766" lon="-1.30405">
        <ele>17.6</ele>
        <time>2019-10-11T12:32:45Z</time>
      </trkpt>
      <trkpt lat="47.10766" lon="-1.30401">
        <ele>18.1</ele>
        <time>2019-10-11T12:32:46Z</time>
      </trkpt>
      <trkpt lat="47.10765" lon="-1.30396">
        <ele>18</ele>
        <time>2019-10-11T12:32:47Z</time>
      </trkpt>
      <trkpt lat="47.10764" lon="-1.3039">
        <ele>17.9</ele>
        <time>2019-10-11T12:32:48Z</time>
      </trkpt>
      <trkpt lat="47.10763" lon="-1.30386">
        <ele>17.7</ele>
        <time>2019-10-11T12:32:49Z</time>
      </trkpt>
      <trkpt lat="47.10761" lon="-1.3038">
        <ele>17.5</ele>
        <time>2019-10-11T12:32:50Z</time>
      </trkpt>
      <trkpt lat="47.10759" lon="-1.30375">
        <ele>17.3</ele>
        <time>2019-10-11T12:32:51Z</time>
      </trkpt>
      <trkpt lat="47.10757" lon="-1.30369">
        <ele>17.1</ele>
        <time>2019-10-11T12:32:52Z</time>
      </trkpt>
      <trkpt lat="47.10754" lon="-1.30363">
        <ele>16.9</ele>
        <time>2019-10-11T12:32:53Z</time>
      </trkpt>
      <trkpt lat="47.10751" lon="-1.30357">
        <ele>16.7</ele>
        <time>2019-10-11T12:32:54Z</time>
      </trkpt>
      <trkpt lat="47.10748" lon="-1.3035">
        <ele>16.5</ele>
        <time>2019-10-11T12:32:55Z</time>
      </trkpt>
      <trkpt lat="47.10745" lon="-1.30344">
        <ele>16.2</ele>
        <time>2019-10-11T12:32:56Z</time>
      </trkpt>
      <trkpt lat="47.10742" lon="-1.30337">
        <ele>15.9</ele>
        <time>2019-10-11T12:32:57Z</time>
      </trkpt>
      <trkpt lat="47.10738" lon="-1.3033">
        <ele>15.5</ele>
        <time>2019-10-11T12:32:58Z</time>
      </trkpt>
      <trkpt lat="47.10735" lon="-1.30322">
        <ele>15.1</ele>
        <time>2019-10-11T12:32:59Z</time>
      </trkpt>
      <trkpt lat="47.10732" lon="-1.30314">
        <ele>14.8</ele>
        <time>2019-10-11T12:33:00Z</time>
      </trkpt>
      <trkpt lat="47.10728" lon="-1.30306">
        <ele>14.4</ele>
        <time>2019-10-11T12:33:01Z</time>
      </trkpt>
      <trkpt lat="47.10725" lon="-1.30299">
        <ele>14.2</ele>
        <time>2019-10-11T12:33:02Z</time>
      </trkpt>
      <trkpt lat="47.10722" lon="-1.30291">
        <ele>13.9</ele>
        <time>2019-10-11T12:33:03Z</time>
      </trkpt>
      <trkpt lat="47.10718" lon="-1.30284">
        <ele>13.6</ele>
        <time>2019-10-11T12:33:04Z</time>
      </trkpt>
      <trkpt lat="47.10715" lon="-1.30276">
        <ele>13.4</ele>
        <time>2019-10-11T12:33:05Z</time>
      </trkpt>
      <trkpt lat="47.10711" lon="-1.30268">
        <ele>13.1</ele>
        <time>2019-10-11T12:33:06Z</time>
      </trkpt>
      <trkpt lat="47.10707" lon="-1.3026">
        <ele>12.9</ele>
        <time>2019-10-11T12:33:07Z</time>
      </trkpt>
      <trkpt lat="47.10704" lon="-1.30252">
        <ele>12.7</ele>
        <time>2019-10-11T12:33:08Z</time>
      </trkpt>
      <trkpt lat="47.10701" lon="-1.30244">
        <ele>12.6</ele>
        <time>2019-10-11T12:33:09Z</time>
      </trkpt>
      <trkpt lat="47.10699" lon="-1.30236">
        <ele>12.4</ele>
        <time>2019-10-11T12:33:10Z</time>
      </trkpt>
      <trkpt lat="47.10696" lon="-1.30228">
        <ele>12.3</ele>
        <time>2019-10-11T12:33:11Z</time>
      </trkpt>
      <trkpt lat="47.10694" lon="-1.3022">
        <ele>12.2</ele>
        <time>2019-10-11T12:33:12Z</time>
      </trkpt>
      <trkpt lat="47.10692" lon="-1.30213">
        <ele>12.2</ele>
        <time>2019-10-11T12:33:13Z</time>
      </trkpt>
      <trkpt lat="47.10691" lon="-1.30207">
        <ele>12.1</ele>
        <time>2019-10-11T12:33:14Z</time>
      </trkpt>
      <trkpt lat="47.10689" lon="-1.30201">
        <ele>12.1</ele>
        <time>2019-10-11T12:33:15Z</time>
      </trkpt>
      <trkpt lat="47.10688" lon="-1.30194">
        <ele>12.1</ele>
        <time>2019-10-11T12:33:16Z</time>
      </trkpt>
      <trkpt lat="47.10687" lon="-1.30187">
        <ele>12</ele>
        <time>2019-10-11T12:33:17Z</time>
      </trkpt>
      <trkpt lat="47.10685" lon="-1.3018">
        <ele>12</ele>
        <time>2019-10-11T12:33:18Z</time>
      </trkpt>
      <trkpt lat="47.10684" lon="-1.30173">
        <ele>12</ele>
        <time>2019-10-11T12:33:19Z</time>
      </trkpt>
      <trkpt lat="47.10683" lon="-1.30165">
        <ele>12</ele>
        <time>2019-10-11T12:33:20Z</time>
      </trkpt>
      <trkpt lat="47.10681" lon="-1.30156">
        <ele>12</ele>
        <time>2019-10-11T12:33:21Z</time>
      </trkpt>
      <trkpt lat="47.1068" lon="-1.30149">
        <ele>12</ele>
        <time>2019-10-11T12:33:22Z</time>
      </trkpt>
      <trkpt lat="47.1068" lon="-1.30142">
        <ele>12</ele>
        <time>2019-10-11T12:33:23Z</time>
      </trkpt>
      <trkpt lat="47.10677" lon="-1.30133">
        <ele>12</ele>
        <time>2019-10-11T12:33:24Z</time>
      </trkpt>
      <trkpt lat="47.10675" lon="-1.30124">
        <ele>12</ele>
        <time>2019-10-11T12:33:25Z</time>
      </trkpt>
      <trkpt lat="47.10675" lon="-1.30117">
        <ele>12</ele>
        <time>2019-10-11T12:33:26Z</time>
      </trkpt>
      <trkpt lat="47.10674" lon="-1.30111">
        <ele>12</ele>
        <time>2019-10-11T12:33:27Z</time>
      </trkpt>
      <trkpt lat="47.10673" lon="-1.30104">
        <ele>12</ele>
        <time>2019-10-11T12:33:28Z</time>
      </trkpt>
      <trkpt lat="47.10672" lon="-1.30096">
        <ele>12</ele>
        <time>2019-10-11T12:33:29Z</time>
      </trkpt>
      <trkpt lat="47.1067" lon="-1.30089">
        <ele>12</ele>
        <time>2019-10-11T12:33:30Z</time>
      </trkpt>
      <trkpt lat="47.10668" lon="-1.3008">
        <ele>12</ele>
        <time>2019-10-11T12:33:31Z</time>
      </trkpt>
      <trkpt lat="47.10667" lon="-1.30072">
        <ele>12</ele>
        <time>2019-10-11T12:33:32Z</time>
      </trkpt>
      <trkpt lat="47.10666" lon="-1.30065">
        <ele>11.9</ele>
        <time>2019-10-11T12:33:33Z</time>
      </trkpt>
      <trkpt lat="47.10664" lon="-1.30056">
        <ele>11.9</ele>
        <time>2019-10-11T12:33:34Z</time>
      </trkpt>
      <trkpt lat="47.10663" lon="-1.30049">
        <ele>11.9</ele>
        <time>2019-10-11T12:33:35Z</time>
      </trkpt>
      <trkpt lat="47.10663" lon="-1.30042">
        <ele>11.9</ele>
        <time>2019-10-11T12:33:36Z</time>
      </trkpt>
      <trkpt lat="47.10661" lon="-1.30034">
        <ele>11.9</ele>
        <time>2019-10-11T12:33:37Z</time>
      </trkpt>
      <trkpt lat="47.10659" lon="-1.30027">
        <ele>11.9</ele>
        <time>2019-10-11T12:33:38Z</time>
      </trkpt>
      <trkpt lat="47.10658" lon="-1.3002">
        <ele>11.9</ele>
        <time>2019-10-11T12:33:39Z</time>
      </trkpt>
      <trkpt lat="47.10657" lon="-1.30014">
        <ele>11.9</ele>
        <time>2019-10-11T12:33:40Z</time>
      </trkpt>
      <trkpt lat="47.10655" lon="-1.30007">
        <ele>11.9</ele>
        <time>2019-10-11T12:33:41Z</time>
      </trkpt>
      <trkpt lat="47.10654" lon="-1.3">
        <ele>11.9</ele>
        <time>2019-10-11T12:33:42Z</time>
      </trkpt>
      <trkpt lat="47.10652" lon="-1.29993">
        <ele>11.9</ele>
        <time>2019-10-11T12:33:43Z</time>
      </trkpt>
      <trkpt lat="47.10651" lon="-1.29986">
        <ele>11.9</ele>
        <time>2019-10-11T12:33:44Z</time>
      </trkpt>
      <trkpt lat="47.10649" lon="-1.29979">
        <ele>11.9</ele>
        <time>2019-10-11T12:33:45Z</time>
      </trkpt>
      <trkpt lat="47.10648" lon="-1.29972">
        <ele>11.9</ele>
        <time>2019-10-11T12:33:46Z</time>
      </trkpt>
      <trkpt lat="47.10646" lon="-1.29966">
        <ele>11.9</ele>
        <time>2019-10-11T12:33:47Z</time>
      </trkpt>
      <trkpt lat="47.10645" lon="-1.29959">
        <ele>11.9</ele>
        <time>2019-10-11T12:33:48Z</time>
      </trkpt>
      <trkpt lat="47.10644" lon="-1.29953">
        <ele>11.9</ele>
        <time>2019-10-11T12:33:49Z</time>
      </trkpt>
      <trkpt lat="47.10642" lon="-1.29947">
        <ele>11.9</ele>
        <time>2019-10-11T12:33:50Z</time>
      </trkpt>
      <trkpt lat="47.1064" lon="-1.2994">
        <ele>11.9</ele>
        <time>2019-10-11T12:33:51Z</time>
      </trkpt>
      <trkpt lat="47.10638" lon="-1.29935">
        <ele>11.9</ele>
        <time>2019-10-11T12:33:52Z</time>
      </trkpt>
      <trkpt lat="47.10636" lon="-1.29929">
        <ele>11.9</ele>
        <time>2019-10-11T12:33:53Z</time>
      </trkpt>
      <trkpt lat="47.10634" lon="-1.29924">
        <ele>11.9</ele>
        <time>2019-10-11T12:33:54Z</time>
      </trkpt>
      <trkpt lat="47.10633" lon="-1.2992">
        <ele>11.9</ele>
        <time>2019-10-11T12:33:55Z</time>
      </trkpt>
      <trkpt lat="47.1063" lon="-1.29913">
        <ele>11.9</ele>
        <time>2019-10-11T12:33:57Z</time>
      </trkpt>
      <trkpt lat="47.10628" lon="-1.29908">
        <ele>11.9</ele>
        <time>2019-10-11T12:33:59Z</time>
      </trkpt>
      <trkpt lat="47.10626" lon="-1.29901">
        <ele>12</ele>
        <time>2019-10-11T12:34:01Z</time>
      </trkpt>
      <trkpt lat="47.10624" lon="-1.29895">
        <ele>12</ele>
        <time>2019-10-11T12:34:03Z</time>
      </trkpt>
      <trkpt lat="47.10622" lon="-1.29888">
        <ele>12.1</ele>
        <time>2019-10-11T12:34:05Z</time>
      </trkpt>
      <trkpt lat="47.10621" lon="-1.29881">
        <ele>12.2</ele>
        <time>2019-10-11T12:34:07Z</time>
      </trkpt>
      <trkpt lat="47.10619" lon="-1.29873">
        <ele>12.3</ele>
        <time>2019-10-11T12:34:09Z</time>
      </trkpt>
      <trkpt lat="47.10618" lon="-1.29869">
        <ele>12.4</ele>
        <time>2019-10-11T12:34:10Z</time>
      </trkpt>
      <trkpt lat="47.10617" lon="-1.29865">
        <ele>12.5</ele>
        <time>2019-10-11T12:34:11Z</time>
      </trkpt>
      <trkpt lat="47.10616" lon="-1.29861">
        <ele>12.6</ele>
        <time>2019-10-11T12:34:12Z</time>
      </trkpt>
      <trkpt lat="47.10614" lon="-1.29857">
        <ele>12.7</ele>
        <time>2019-10-11T12:34:13Z</time>
      </trkpt>
      <trkpt lat="47.10613" lon="-1.29853">
        <ele>12.7</ele>
        <time>2019-10-11T12:34:14Z</time>
      </trkpt>
      <trkpt lat="47.10611" lon="-1.29849">
        <ele>12.8</ele>
        <time>2019-10-11T12:34:15Z</time>
      </trkpt>
      <trkpt lat="47.10609" lon="-1.29845">
        <ele>12.6</ele>
        <time>2019-10-11T12:34:16Z</time>
      </trkpt>
      <trkpt lat="47.10606" lon="-1.29841">
        <ele>12.2</ele>
        <time>2019-10-11T12:34:17Z</time>
      </trkpt>
      <trkpt lat="47.10602" lon="-1.29837">
        <ele>11.7</ele>
        <time>2019-10-11T12:34:18Z</time>
      </trkpt>
      <trkpt lat="47.10599" lon="-1.29832">
        <ele>11.2</ele>
        <time>2019-10-11T12:34:19Z</time>
      </trkpt>
      <trkpt lat="47.10596" lon="-1.29827">
        <ele>10.7</ele>
        <time>2019-10-11T12:34:20Z</time>
      </trkpt>
      <trkpt lat="47.10593" lon="-1.29821">
        <ele>10.1</ele>
        <time>2019-10-11T12:34:21Z</time>
      </trkpt>
      <trkpt lat="47.1059" lon="-1.29815">
        <ele>9.6</ele>
        <time>2019-10-11T12:34:22Z</time>
      </trkpt>
      <trkpt lat="47.10588" lon="-1.29809">
        <ele>9.1</ele>
        <time>2019-10-11T12:34:23Z</time>
      </trkpt>
      <trkpt lat="47.10586" lon="-1.29803">
        <ele>8.7</ele>
        <time>2019-10-11T12:34:24Z</time>
      </trkpt>
      <trkpt lat="47.10584" lon="-1.29797">
        <ele>8.7</ele>
        <time>2019-10-11T12:34:25Z</time>
      </trkpt>
      <trkpt lat="47.10582" lon="-1.29791">
        <ele>8.7</ele>
        <time>2019-10-11T12:34:26Z</time>
      </trkpt>
      <trkpt lat="47.1058" lon="-1.29786">
        <ele>8.7</ele>
        <time>2019-10-11T12:34:27Z</time>
      </trkpt>
      <trkpt lat="47.10578" lon="-1.29781">
        <ele>8.7</ele>
        <time>2019-10-11T12:34:28Z</time>
      </trkpt>
      <trkpt lat="47.10576" lon="-1.29775">
        <ele>8.7</ele>
        <time>2019-10-11T12:34:29Z</time>
      </trkpt>
      <trkpt lat="47.10575" lon="-1.2977">
        <ele>8.7</ele>
        <time>2019-10-11T12:34:30Z</time>
      </trkpt>
      <trkpt lat="47.10573" lon="-1.29764">
        <ele>8.7</ele>
        <time>2019-10-11T12:34:31Z</time>
      </trkpt>
      <trkpt lat="47.10571" lon="-1.29758">
        <ele>8.7</ele>
        <time>2019-10-11T12:34:32Z</time>
      </trkpt>
      <trkpt lat="47.1057" lon="-1.29753">
        <ele>8.8</ele>
        <time>2019-10-11T12:34:33Z</time>
      </trkpt>
      <trkpt lat="47.10568" lon="-1.29748">
        <ele>8.8</ele>
        <time>2019-10-11T12:34:34Z</time>
      </trkpt>
      <trkpt lat="47.10567" lon="-1.29742">
        <ele>8.8</ele>
        <time>2019-10-11T12:34:35Z</time>
      </trkpt>
      <trkpt lat="47.10567" lon="-1.29737">
        <ele>8.9</ele>
        <time>2019-10-11T12:34:36Z</time>
      </trkpt>
      <trkpt lat="47.10565" lon="-1.29731">
        <ele>8.9</ele>
        <time>2019-10-11T12:34:37Z</time>
      </trkpt>
      <trkpt lat="47.10564" lon="-1.29726">
        <ele>8.9</ele>
        <time>2019-10-11T12:34:38Z</time>
      </trkpt>
      <trkpt lat="47.10563" lon="-1.29721">
        <ele>9</ele>
        <time>2019-10-11T12:34:39Z</time>
      </trkpt>
      <trkpt lat="47.10562" lon="-1.29716">
        <ele>9</ele>
        <time>2019-10-11T12:34:40Z</time>
      </trkpt>
      <trkpt lat="47.10561" lon="-1.29712">
        <ele>9</ele>
        <time>2019-10-11T12:34:41Z</time>
      </trkpt>
      <trkpt lat="47.1056" lon="-1.29708">
        <ele>9.1</ele>
        <time>2019-10-11T12:34:42Z</time>
      </trkpt>
      <trkpt lat="47.10559" lon="-1.29703">
        <ele>9.1</ele>
        <time>2019-10-11T12:34:43Z</time>
      </trkpt>
      <trkpt lat="47.10558" lon="-1.29698">
        <ele>9.2</ele>
        <time>2019-10-11T12:34:44Z</time>
      </trkpt>
      <trkpt lat="47.10556" lon="-1.29692">
        <ele>9.2</ele>
        <time>2019-10-11T12:34:45Z</time>
      </trkpt>
      <trkpt lat="47.10554" lon="-1.29687">
        <ele>9.3</ele>
        <time>2019-10-11T12:34:46Z</time>
      </trkpt>
      <trkpt lat="47.10552" lon="-1.29682">
        <ele>9.3</ele>
        <time>2019-10-11T12:34:47Z</time>
      </trkpt>
      <trkpt lat="47.10551" lon="-1.29677">
        <ele>9.3</ele>
        <time>2019-10-11T12:34:48Z</time>
      </trkpt>
      <trkpt lat="47.10549" lon="-1.29671">
        <ele>9.4</ele>
        <time>2019-10-11T12:34:49Z</time>
      </trkpt>
      <trkpt lat="47.10547" lon="-1.29665">
        <ele>9.4</ele>
        <time>2019-10-11T12:34:50Z</time>
      </trkpt>
      <trkpt lat="47.10545" lon="-1.29659">
        <ele>9.4</ele>
        <time>2019-10-11T12:34:51Z</time>
      </trkpt>
      <trkpt lat="47.10542" lon="-1.29652">
        <ele>9.5</ele>
        <time>2019-10-11T12:34:52Z</time>
      </trkpt>
      <trkpt lat="47.1054" lon="-1.29647">
        <ele>9.5</ele>
        <time>2019-10-11T12:34:53Z</time>
      </trkpt>
      <trkpt lat="47.10538" lon="-1.29641">
        <ele>9.5</ele>
        <time>2019-10-11T12:34:54Z</time>
      </trkpt>
      <trkpt lat="47.10536" lon="-1.29636">
        <ele>9.5</ele>
        <time>2019-10-11T12:34:55Z</time>
      </trkpt>
      <trkpt lat="47.10534" lon="-1.29632">
        <ele>9.5</ele>
        <time>2019-10-11T12:34:56Z</time>
      </trkpt>
      <trkpt lat="47.10532" lon="-1.29627">
        <ele>9.5</ele>
        <time>2019-10-11T12:34:57Z</time>
      </trkpt>
      <trkpt lat="47.1053" lon="-1.29622">
        <ele>9.5</ele>
        <time>2019-10-11T12:34:58Z</time>
      </trkpt>
      <trkpt lat="47.10528" lon="-1.29616">
        <ele>9.5</ele>
        <time>2019-10-11T12:34:59Z</time>
      </trkpt>
      <trkpt lat="47.10525" lon="-1.2961">
        <ele>9.5</ele>
        <time>2019-10-11T12:35:00Z</time>
      </trkpt>
      <trkpt lat="47.10523" lon="-1.29605">
        <ele>9.5</ele>
        <time>2019-10-11T12:35:01Z</time>
      </trkpt>
      <trkpt lat="47.10521" lon="-1.296">
        <ele>9.5</ele>
        <time>2019-10-11T12:35:02Z</time>
      </trkpt>
      <trkpt lat="47.10518" lon="-1.29595">
        <ele>9.6</ele>
        <time>2019-10-11T12:35:03Z</time>
      </trkpt>
      <trkpt lat="47.10516" lon="-1.2959">
        <ele>9.6</ele>
        <time>2019-10-11T12:35:04Z</time>
      </trkpt>
      <trkpt lat="47.10513" lon="-1.29584">
        <ele>9.6</ele>
        <time>2019-10-11T12:35:05Z</time>
      </trkpt>
      <trkpt lat="47.1051" lon="-1.2958">
        <ele>9.7</ele>
        <time>2019-10-11T12:35:06Z</time>
      </trkpt>
      <trkpt lat="47.10508" lon="-1.29575">
        <ele>9.7</ele>
        <time>2019-10-11T12:35:07Z</time>
      </trkpt>
      <trkpt lat="47.10505" lon="-1.29569">
        <ele>9.8</ele>
        <time>2019-10-11T12:35:08Z</time>
      </trkpt>
      <trkpt lat="47.10501" lon="-1.29565">
        <ele>9.9</ele>
        <time>2019-10-11T12:35:09Z</time>
      </trkpt>
      <trkpt lat="47.10498" lon="-1.29559">
        <ele>10</ele>
        <time>2019-10-11T12:35:10Z</time>
      </trkpt>
      <trkpt lat="47.10494" lon="-1.29554">
        <ele>10.1</ele>
        <time>2019-10-11T12:35:11Z</time>
      </trkpt>
      <trkpt lat="47.10491" lon="-1.2955">
        <ele>10.2</ele>
        <time>2019-10-11T12:35:12Z</time>
      </trkpt>
      <trkpt lat="47.10487" lon="-1.29545">
        <ele>10.3</ele>
        <time>2019-10-11T12:35:13Z</time>
      </trkpt>
      <trkpt lat="47.10484" lon="-1.29539">
        <ele>10.4</ele>
        <time>2019-10-11T12:35:14Z</time>
      </trkpt>
      <trkpt lat="47.1048" lon="-1.29535">
        <ele>10.5</ele>
        <time>2019-10-11T12:35:15Z</time>
      </trkpt>
      <trkpt lat="47.10477" lon="-1.2953">
        <ele>10.6</ele>
        <time>2019-10-11T12:35:16Z</time>
      </trkpt>
      <trkpt lat="47.10473" lon="-1.29525">
        <ele>10.8</ele>
        <time>2019-10-11T12:35:17Z</time>
      </trkpt>
      <trkpt lat="47.10469" lon="-1.29521">
        <ele>10.9</ele>
        <time>2019-10-11T12:35:18Z</time>
      </trkpt>
      <trkpt lat="47.10465" lon="-1.29517">
        <ele>11</ele>
        <time>2019-10-11T12:35:19Z</time>
      </trkpt>
      <trkpt lat="47.10461" lon="-1.29513">
        <ele>11.2</ele>
        <time>2019-10-11T12:35:20Z</time>
      </trkpt>
      <trkpt lat="47.10457" lon="-1.2951">
        <ele>11.3</ele>
        <time>2019-10-11T12:35:21Z</time>
      </trkpt>
      <trkpt lat="47.10453" lon="-1.29507">
        <ele>11.4</ele>
        <time>2019-10-11T12:35:22Z</time>
      </trkpt>
      <trkpt lat="47.10449" lon="-1.29504">
        <ele>11.5</ele>
        <time>2019-10-11T12:35:23Z</time>
      </trkpt>
      <trkpt lat="47.10445" lon="-1.295">
        <ele>11.7</ele>
        <time>2019-10-11T12:35:24Z</time>
      </trkpt>
      <trkpt lat="47.10441" lon="-1.29495">
        <ele>11.8</ele>
        <time>2019-10-11T12:35:25Z</time>
      </trkpt>
      <trkpt lat="47.10437" lon="-1.29491">
        <ele>12</ele>
        <time>2019-10-11T12:35:26Z</time>
      </trkpt>
      <trkpt lat="47.10434" lon="-1.29488">
        <ele>12.1</ele>
        <time>2019-10-11T12:35:27Z</time>
      </trkpt>
      <trkpt lat="47.10431" lon="-1.29484">
        <ele>12.3</ele>
        <time>2019-10-11T12:35:28Z</time>
      </trkpt>
      <trkpt lat="47.10427" lon="-1.2948">
        <ele>12.4</ele>
        <time>2019-10-11T12:35:29Z</time>
      </trkpt>
      <trkpt lat="47.10424" lon="-1.29475">
        <ele>12.6</ele>
        <time>2019-10-11T12:35:30Z</time>
      </trkpt>
      <trkpt lat="47.10421" lon="-1.29471">
        <ele>12.8</ele>
        <time>2019-10-11T12:35:31Z</time>
      </trkpt>
      <trkpt lat="47.10418" lon="-1.29467">
        <ele>12.9</ele>
        <time>2019-10-11T12:35:32Z</time>
      </trkpt>
      <trkpt lat="47.10416" lon="-1.29463">
        <ele>13</ele>
        <time>2019-10-11T12:35:33Z</time>
      </trkpt>
      <trkpt lat="47.10414" lon="-1.2946">
        <ele>13</ele>
        <time>2019-10-11T12:35:34Z</time>
      </trkpt>
      <trkpt lat="47.10412" lon="-1.29456">
        <ele>13.1</ele>
        <time>2019-10-11T12:35:35Z</time>
      </trkpt>
      <trkpt lat="47.1041" lon="-1.29452">
        <ele>13.1</ele>
        <time>2019-10-11T12:35:36Z</time>
      </trkpt>
      <trkpt lat="47.10408" lon="-1.29448">
        <ele>13.2</ele>
        <time>2019-10-11T12:35:37Z</time>
      </trkpt>
      <trkpt lat="47.10406" lon="-1.29443">
        <ele>13.2</ele>
        <time>2019-10-11T12:35:38Z</time>
      </trkpt>
      <trkpt lat="47.10405" lon="-1.29439">
        <ele>13.3</ele>
        <time>2019-10-11T12:35:39Z</time>
      </trkpt>
      <trkpt lat="47.10403" lon="-1.29435">
        <ele>13.3</ele>
        <time>2019-10-11T12:35:40Z</time>
      </trkpt>
      <trkpt lat="47.104" lon="-1.29428">
        <ele>13.3</ele>
        <time>2019-10-11T12:35:42Z</time>
      </trkpt>
      <trkpt lat="47.10399" lon="-1.29425">
        <ele>13.3</ele>
        <time>2019-10-11T12:35:43Z</time>
      </trkpt>
      <trkpt lat="47.10397" lon="-1.2942">
        <ele>13.3</ele>
        <time>2019-10-11T12:35:44Z</time>
      </trkpt>
      <trkpt lat="47.10393" lon="-1.29415">
        <ele>13.3</ele>
        <time>2019-10-11T12:35:45Z</time>
      </trkpt>
      <trkpt lat="47.10389" lon="-1.29411">
        <ele>13.3</ele>
        <time>2019-10-11T12:35:46Z</time>
      </trkpt>
      <trkpt lat="47.10385" lon="-1.29405">
        <ele>13.3</ele>
        <time>2019-10-11T12:35:47Z</time>
      </trkpt>
      <trkpt lat="47.1038" lon="-1.29401">
        <ele>13.4</ele>
        <time>2019-10-11T12:35:48Z</time>
      </trkpt>
      <trkpt lat="47.10376" lon="-1.29397">
        <ele>13.4</ele>
        <time>2019-10-11T12:35:49Z</time>
      </trkpt>
      <trkpt lat="47.10373" lon="-1.29395">
        <ele>13.4</ele>
        <time>2019-10-11T12:35:50Z</time>
      </trkpt>
      <trkpt lat="47.1037" lon="-1.29392">
        <ele>13.4</ele>
        <time>2019-10-11T12:35:51Z</time>
      </trkpt>
      <trkpt lat="47.10368" lon="-1.2939">
        <ele>13.4</ele>
        <time>2019-10-11T12:35:52Z</time>
      </trkpt>
      <trkpt lat="47.10363" lon="-1.29386">
        <ele>13.5</ele>
        <time>2019-10-11T12:35:54Z</time>
      </trkpt>
      <trkpt lat="47.10359" lon="-1.29381">
        <ele>13.6</ele>
        <time>2019-10-11T12:35:56Z</time>
      </trkpt>
      <trkpt lat="47.10355" lon="-1.29377">
        <ele>13.6</ele>
        <time>2019-10-11T12:35:58Z</time>
      </trkpt>
      <trkpt lat="47.10352" lon="-1.29373">
        <ele>13.7</ele>
        <time>2019-10-11T12:36:00Z</time>
      </trkpt>
      <trkpt lat="47.10349" lon="-1.2937">
        <ele>13.7</ele>
        <time>2019-10-11T12:36:01Z</time>
      </trkpt>
      <trkpt lat="47.10346" lon="-1.29367">
        <ele>13.8</ele>
        <time>2019-10-11T12:36:02Z</time>
      </trkpt>
      <trkpt lat="47.10342" lon="-1.29364">
        <ele>13.8</ele>
        <time>2019-10-11T12:36:03Z</time>
      </trkpt>
      <trkpt lat="47.10339" lon="-1.29362">
        <ele>13.9</ele>
        <time>2019-10-11T12:36:04Z</time>
      </trkpt>
      <trkpt lat="47.10334" lon="-1.29358">
        <ele>13.9</ele>
        <time>2019-10-11T12:36:05Z</time>
      </trkpt>
      <trkpt lat="47.1033" lon="-1.29356">
        <ele>14</ele>
        <time>2019-10-11T12:36:06Z</time>
      </trkpt>
      <trkpt lat="47.10326" lon="-1.29352">
        <ele>14</ele>
        <time>2019-10-11T12:36:07Z</time>
      </trkpt>
      <trkpt lat="47.10323" lon="-1.29349">
        <ele>14</ele>
        <time>2019-10-11T12:36:08Z</time>
      </trkpt>
      <trkpt lat="47.10319" lon="-1.29347">
        <ele>14</ele>
        <time>2019-10-11T12:36:09Z</time>
      </trkpt>
      <trkpt lat="47.10316" lon="-1.29344">
        <ele>14</ele>
        <time>2019-10-11T12:36:10Z</time>
      </trkpt>
      <trkpt lat="47.10313" lon="-1.29342">
        <ele>14</ele>
        <time>2019-10-11T12:36:11Z</time>
      </trkpt>
      <trkpt lat="47.1031" lon="-1.2934">
        <ele>14</ele>
        <time>2019-10-11T12:36:12Z</time>
      </trkpt>
      <trkpt lat="47.10308" lon="-1.29338">
        <ele>14</ele>
        <time>2019-10-11T12:36:13Z</time>
      </trkpt>
      <trkpt lat="47.10305" lon="-1.29335">
        <ele>13.9</ele>
        <time>2019-10-11T12:36:14Z</time>
      </trkpt>
      <trkpt lat="47.10301" lon="-1.29333">
        <ele>13.9</ele>
        <time>2019-10-11T12:36:15Z</time>
      </trkpt>
      <trkpt lat="47.10297" lon="-1.2933">
        <ele>13.9</ele>
        <time>2019-10-11T12:36:16Z</time>
      </trkpt>
      <trkpt lat="47.10294" lon="-1.29327">
        <ele>13.8</ele>
        <time>2019-10-11T12:36:17Z</time>
      </trkpt>
      <trkpt lat="47.10291" lon="-1.29324">
        <ele>13.7</ele>
        <time>2019-10-11T12:36:18Z</time>
      </trkpt>
      <trkpt lat="47.10288" lon="-1.29322">
        <ele>13.7</ele>
        <time>2019-10-11T12:36:19Z</time>
      </trkpt>
      <trkpt lat="47.10285" lon="-1.29318">
        <ele>13.6</ele>
        <time>2019-10-11T12:36:20Z</time>
      </trkpt>
      <trkpt lat="47.10283" lon="-1.29316">
        <ele>13.6</ele>
        <time>2019-10-11T12:36:21Z</time>
      </trkpt>
      <trkpt lat="47.1028" lon="-1.29313">
        <ele>13.5</ele>
        <time>2019-10-11T12:36:22Z</time>
      </trkpt>
      <trkpt lat="47.10278" lon="-1.2931">
        <ele>13.4</ele>
        <time>2019-10-11T12:36:23Z</time>
      </trkpt>
      <trkpt lat="47.10276" lon="-1.29307">
        <ele>13.4</ele>
        <time>2019-10-11T12:36:24Z</time>
      </trkpt>
      <trkpt lat="47.10274" lon="-1.29304">
        <ele>13.3</ele>
        <time>2019-10-11T12:36:25Z</time>
      </trkpt>
      <trkpt lat="47.1027" lon="-1.29298">
        <ele>13.1</ele>
        <time>2019-10-11T12:36:27Z</time>
      </trkpt>
      <trkpt lat="47.10269" lon="-1.29295">
        <ele>13.1</ele>
        <time>2019-10-11T12:36:28Z</time>
      </trkpt>
      <trkpt lat="47.10267" lon="-1.29292">
        <ele>13</ele>
        <time>2019-10-11T12:36:29Z</time>
      </trkpt>
      <trkpt lat="47.10265" lon="-1.29287">
        <ele>12.9</ele>
        <time>2019-10-11T12:36:30Z</time>
      </trkpt>
      <trkpt lat="47.10262" lon="-1.29281">
        <ele>12.8</ele>
        <time>2019-10-11T12:36:31Z</time>
      </trkpt>
      <trkpt lat="47.10261" lon="-1.29276">
        <ele>12.7</ele>
        <time>2019-10-11T12:36:32Z</time>
      </trkpt>
      <trkpt lat="47.10259" lon="-1.29272">
        <ele>12.6</ele>
        <time>2019-10-11T12:36:33Z</time>
      </trkpt>
      <trkpt lat="47.10259" lon="-1.29267">
        <ele>12.5</ele>
        <time>2019-10-11T12:36:34Z</time>
      </trkpt>
      <trkpt lat="47.10257" lon="-1.29262">
        <ele>12.4</ele>
        <time>2019-10-11T12:36:35Z</time>
      </trkpt>
      <trkpt lat="47.10255" lon="-1.29258">
        <ele>12.4</ele>
        <time>2019-10-11T12:36:36Z</time>
      </trkpt>
      <trkpt lat="47.10254" lon="-1.29252">
        <ele>12.3</ele>
        <time>2019-10-11T12:36:37Z</time>
      </trkpt>
      <trkpt lat="47.10252" lon="-1.29246">
        <ele>12.2</ele>
        <time>2019-10-11T12:36:39Z</time>
      </trkpt>
      <trkpt lat="47.10251" lon="-1.2924">
        <ele>12.1</ele>
        <time>2019-10-11T12:36:41Z</time>
      </trkpt>
      <trkpt lat="47.10251" lon="-1.29235">
        <ele>12</ele>
        <time>2019-10-11T12:36:42Z</time>
      </trkpt>
      <trkpt lat="47.1025" lon="-1.2923">
        <ele>12</ele>
        <time>2019-10-11T12:36:43Z</time>
      </trkpt>
      <trkpt lat="47.1025" lon="-1.29225">
        <ele>11.9</ele>
        <time>2019-10-11T12:36:44Z</time>
      </trkpt>
      <trkpt lat="47.1025" lon="-1.2922">
        <ele>11.9</ele>
        <time>2019-10-11T12:36:45Z</time>
      </trkpt>
      <trkpt lat="47.1025" lon="-1.29216">
        <ele>11.8</ele>
        <time>2019-10-11T12:36:46Z</time>
      </trkpt>
      <trkpt lat="47.10251" lon="-1.2921">
        <ele>11.7</ele>
        <time>2019-10-11T12:36:47Z</time>
      </trkpt>
      <trkpt lat="47.10252" lon="-1.29202">
        <ele>11.7</ele>
        <time>2019-10-11T12:36:48Z</time>
      </trkpt>
      <trkpt lat="47.10254" lon="-1.29192">
        <ele>11.6</ele>
        <time>2019-10-11T12:36:49Z</time>
      </trkpt>
      <trkpt lat="47.10254" lon="-1.29185">
        <ele>11.5</ele>
        <time>2019-10-11T12:36:50Z</time>
      </trkpt>
      <trkpt lat="47.10255" lon="-1.29176">
        <ele>11.4</ele>
        <time>2019-10-11T12:36:51Z</time>
      </trkpt>
      <trkpt lat="47.10256" lon="-1.29168">
        <ele>11.4</ele>
        <time>2019-10-11T12:36:52Z</time>
      </trkpt>
      <trkpt lat="47.10256" lon="-1.29161">
        <ele>11.4</ele>
        <time>2019-10-11T12:36:53Z</time>
      </trkpt>
      <trkpt lat="47.10256" lon="-1.29155">
        <ele>11.4</ele>
        <time>2019-10-11T12:36:54Z</time>
      </trkpt>
      <trkpt lat="47.10257" lon="-1.29145">
        <ele>11.4</ele>
        <time>2019-10-11T12:36:55Z</time>
      </trkpt>
      <trkpt lat="47.10258" lon="-1.29138">
        <ele>11.4</ele>
        <time>2019-10-11T12:36:56Z</time>
      </trkpt>
      <trkpt lat="47.10258" lon="-1.2913">
        <ele>11.4</ele>
        <time>2019-10-11T12:36:57Z</time>
      </trkpt>
      <trkpt lat="47.10259" lon="-1.29123">
        <ele>11.4</ele>
        <time>2019-10-11T12:36:58Z</time>
      </trkpt>
      <trkpt lat="47.10259" lon="-1.29116">
        <ele>11.4</ele>
        <time>2019-10-11T12:36:59Z</time>
      </trkpt>
      <trkpt lat="47.10259" lon="-1.2911">
        <ele>11.5</ele>
        <time>2019-10-11T12:37:00Z</time>
      </trkpt>
      <trkpt lat="47.10259" lon="-1.29105">
        <ele>11.5</ele>
        <time>2019-10-11T12:37:01Z</time>
      </trkpt>
      <trkpt lat="47.10259" lon="-1.291">
        <ele>11.5</ele>
        <time>2019-10-11T12:37:02Z</time>
      </trkpt>
      <trkpt lat="47.1026" lon="-1.29094">
        <ele>11.5</ele>
        <time>2019-10-11T12:37:03Z</time>
      </trkpt>
      <trkpt lat="47.1026" lon="-1.29085">
        <ele>11.5</ele>
        <time>2019-10-11T12:37:04Z</time>
      </trkpt>
      <trkpt lat="47.1026" lon="-1.29078">
        <ele>11.4</ele>
        <time>2019-10-11T12:37:05Z</time>
      </trkpt>
      <trkpt lat="47.10261" lon="-1.2907">
        <ele>11.4</ele>
        <time>2019-10-11T12:37:06Z</time>
      </trkpt>
      <trkpt lat="47.10262" lon="-1.29064">
        <ele>11.4</ele>
        <time>2019-10-11T12:37:07Z</time>
      </trkpt>
      <trkpt lat="47.10263" lon="-1.2906">
        <ele>11.3</ele>
        <time>2019-10-11T12:37:08Z</time>
      </trkpt>
      <trkpt lat="47.10263" lon="-1.29056">
        <ele>11.3</ele>
        <time>2019-10-11T12:37:09Z</time>
      </trkpt>
      <trkpt lat="47.10263" lon="-1.2905">
        <ele>11.2</ele>
        <time>2019-10-11T12:37:10Z</time>
      </trkpt>
      <trkpt lat="47.10263" lon="-1.29044">
        <ele>11.1</ele>
        <time>2019-10-11T12:37:11Z</time>
      </trkpt>
      <trkpt lat="47.10263" lon="-1.29037">
        <ele>11</ele>
        <time>2019-10-11T12:37:12Z</time>
      </trkpt>
      <trkpt lat="47.10263" lon="-1.2903">
        <ele>10.9</ele>
        <time>2019-10-11T12:37:13Z</time>
      </trkpt>
      <trkpt lat="47.10263" lon="-1.29023">
        <ele>10.7</ele>
        <time>2019-10-11T12:37:14Z</time>
      </trkpt>
      <trkpt lat="47.10262" lon="-1.29017">
        <ele>10.6</ele>
        <time>2019-10-11T12:37:15Z</time>
      </trkpt>
      <trkpt lat="47.10262" lon="-1.29008">
        <ele>10.4</ele>
        <time>2019-10-11T12:37:16Z</time>
      </trkpt>
      <trkpt lat="47.10261" lon="-1.29">
        <ele>10.3</ele>
        <time>2019-10-11T12:37:17Z</time>
      </trkpt>
      <trkpt lat="47.10259" lon="-1.28992">
        <ele>10.2</ele>
        <time>2019-10-11T12:37:18Z</time>
      </trkpt>
      <trkpt lat="47.10257" lon="-1.28985">
        <ele>10.1</ele>
        <time>2019-10-11T12:37:19Z</time>
      </trkpt>
      <trkpt lat="47.10255" lon="-1.28977">
        <ele>10</ele>
        <time>2019-10-11T12:37:20Z</time>
      </trkpt>
      <trkpt lat="47.10253" lon="-1.28969">
        <ele>10</ele>
        <time>2019-10-11T12:37:21Z</time>
      </trkpt>
      <trkpt lat="47.10251" lon="-1.28961">
        <ele>10</ele>
        <time>2019-10-11T12:37:22Z</time>
      </trkpt>
      <trkpt lat="47.10248" lon="-1.28952">
        <ele>10</ele>
        <time>2019-10-11T12:37:23Z</time>
      </trkpt>
      <trkpt lat="47.10245" lon="-1.28945">
        <ele>10.2</ele>
        <time>2019-10-11T12:37:24Z</time>
      </trkpt>
      <trkpt lat="47.10242" lon="-1.28939">
        <ele>10.4</ele>
        <time>2019-10-11T12:37:25Z</time>
      </trkpt>
      <trkpt lat="47.10237" lon="-1.28937">
        <ele>10.5</ele>
        <time>2019-10-11T12:37:26Z</time>
      </trkpt>
      <trkpt lat="47.1023" lon="-1.28932">
        <ele>10.9</ele>
        <time>2019-10-11T12:37:27Z</time>
      </trkpt>
      <trkpt lat="47.10226" lon="-1.2893">
        <ele>11.1</ele>
        <time>2019-10-11T12:37:28Z</time>
      </trkpt>
      <trkpt lat="47.10222" lon="-1.28928">
        <ele>11.3</ele>
        <time>2019-10-11T12:37:29Z</time>
      </trkpt>
      <trkpt lat="47.10218" lon="-1.28926">
        <ele>11.5</ele>
        <time>2019-10-11T12:37:30Z</time>
      </trkpt>
      <trkpt lat="47.10214" lon="-1.28924">
        <ele>11.9</ele>
        <time>2019-10-11T12:37:31Z</time>
      </trkpt>
      <trkpt lat="47.1021" lon="-1.28922">
        <ele>12.3</ele>
        <time>2019-10-11T12:37:32Z</time>
      </trkpt>
      <trkpt lat="47.10207" lon="-1.28921">
        <ele>12.7</ele>
        <time>2019-10-11T12:37:33Z</time>
      </trkpt>
      <trkpt lat="47.10204" lon="-1.2892">
        <ele>13</ele>
        <time>2019-10-11T12:37:34Z</time>
      </trkpt>
      <trkpt lat="47.102" lon="-1.28918">
        <ele>13.4</ele>
        <time>2019-10-11T12:37:35Z</time>
      </trkpt>
      <trkpt lat="47.10197" lon="-1.28916">
        <ele>13.8</ele>
        <time>2019-10-11T12:37:36Z</time>
      </trkpt>
      <trkpt lat="47.10194" lon="-1.28914">
        <ele>14.1</ele>
        <time>2019-10-11T12:37:37Z</time>
      </trkpt>
      <trkpt lat="47.1019" lon="-1.2891">
        <ele>14.6</ele>
        <time>2019-10-11T12:37:39Z</time>
      </trkpt>
      <trkpt lat="47.10187" lon="-1.28907">
        <ele>15.2</ele>
        <time>2019-10-11T12:37:41Z</time>
      </trkpt>
      <trkpt lat="47.10182" lon="-1.28904">
        <ele>16</ele>
        <time>2019-10-11T12:37:43Z</time>
      </trkpt>
      <trkpt lat="47.10177" lon="-1.28901">
        <ele>16.8</ele>
        <time>2019-10-11T12:37:45Z</time>
      </trkpt>
      <trkpt lat="47.10173" lon="-1.28899">
        <ele>17.3</ele>
        <time>2019-10-11T12:37:47Z</time>
      </trkpt>
      <trkpt lat="47.1017" lon="-1.28898">
        <ele>17.7</ele>
        <time>2019-10-11T12:37:48Z</time>
      </trkpt>
      <trkpt lat="47.10167" lon="-1.28896">
        <ele>18.2</ele>
        <time>2019-10-11T12:37:51Z</time>
      </trkpt>
      <trkpt lat="47.10164" lon="-1.28895">
        <ele>18.5</ele>
        <time>2019-10-11T12:37:53Z</time>
      </trkpt>
      <trkpt lat="47.10162" lon="-1.28892">
        <ele>18.9</ele>
        <time>2019-10-11T12:37:55Z</time>
      </trkpt>
      <trkpt lat="47.10159" lon="-1.28889">
        <ele>19.4</ele>
        <time>2019-10-11T12:37:58Z</time>
      </trkpt>
      <trkpt lat="47.10156" lon="-1.28887">
        <ele>19.7</ele>
        <time>2019-10-11T12:38:00Z</time>
      </trkpt>
      <trkpt lat="47.10152" lon="-1.28882">
        <ele>20.4</ele>
        <time>2019-10-11T12:38:03Z</time>
      </trkpt>
      <trkpt lat="47.10149" lon="-1.28878">
        <ele>20.9</ele>
        <time>2019-10-11T12:38:05Z</time>
      </trkpt>
      <trkpt lat="47.10146" lon="-1.28874">
        <ele>21.4</ele>
        <time>2019-10-11T12:38:07Z</time>
      </trkpt>
      <trkpt lat="47.10144" lon="-1.2887">
        <ele>21.8</ele>
        <time>2019-10-11T12:38:09Z</time>
      </trkpt>
      <trkpt lat="47.10141" lon="-1.28867">
        <ele>22.2</ele>
        <time>2019-10-11T12:38:11Z</time>
      </trkpt>
      <trkpt lat="47.10138" lon="-1.28863">
        <ele>22.7</ele>
        <time>2019-10-11T12:38:13Z</time>
      </trkpt>
      <trkpt lat="47.10135" lon="-1.28859">
        <ele>23</ele>
        <time>2019-10-11T12:38:15Z</time>
      </trkpt>
      <trkpt lat="47.10133" lon="-1.28856">
        <ele>23.3</ele>
        <time>2019-10-11T12:38:17Z</time>
      </trkpt>
      <trkpt lat="47.10128" lon="-1.28851">
        <ele>23.6</ele>
        <time>2019-10-11T12:38:21Z</time>
      </trkpt>
      <trkpt lat="47.10125" lon="-1.28847">
        <ele>23.7</ele>
        <time>2019-10-11T12:38:23Z</time>
      </trkpt>
      <trkpt lat="47.10122" lon="-1.28842">
        <ele>24</ele>
        <time>2019-10-11T12:38:25Z</time>
      </trkpt>
      <trkpt lat="47.1012" lon="-1.28838">
        <ele>24.1</ele>
        <time>2019-10-11T12:38:26Z</time>
      </trkpt>
      <trkpt lat="47.10117" lon="-1.28834">
        <ele>24.3</ele>
        <time>2019-10-11T12:38:28Z</time>
      </trkpt>
      <trkpt lat="47.10115" lon="-1.2883">
        <ele>24.4</ele>
        <time>2019-10-11T12:38:30Z</time>
      </trkpt>
      <trkpt lat="47.10113" lon="-1.28826">
        <ele>24.5</ele>
        <time>2019-10-11T12:38:31Z</time>
      </trkpt>
      <trkpt lat="47.10111" lon="-1.28823">
        <ele>24.6</ele>
        <time>2019-10-11T12:38:33Z</time>
      </trkpt>
      <trkpt lat="47.10109" lon="-1.28818">
        <ele>24.8</ele>
        <time>2019-10-11T12:38:35Z</time>
      </trkpt>
      <trkpt lat="47.10108" lon="-1.28814">
        <ele>24.9</ele>
        <time>2019-10-11T12:38:37Z</time>
      </trkpt>
      <trkpt lat="47.10106" lon="-1.2881">
        <ele>24.9</ele>
        <time>2019-10-11T12:38:39Z</time>
      </trkpt>
      <trkpt lat="47.10102" lon="-1.28803">
        <ele>25.1</ele>
        <time>2019-10-11T12:38:42Z</time>
      </trkpt>
      <trkpt lat="47.10098" lon="-1.288">
        <ele>25.1</ele>
        <time>2019-10-11T12:38:44Z</time>
      </trkpt>
      <trkpt lat="47.10096" lon="-1.28797">
        <ele>25.1</ele>
        <time>2019-10-11T12:38:46Z</time>
      </trkpt>
      <trkpt lat="47.10093" lon="-1.28793">
        <ele>25.1</ele>
        <time>2019-10-11T12:38:48Z</time>
      </trkpt>
      <trkpt lat="47.1009" lon="-1.2879">
        <ele>25.2</ele>
        <time>2019-10-11T12:38:50Z</time>
      </trkpt>
      <trkpt lat="47.10088" lon="-1.28787">
        <ele>25.2</ele>
        <time>2019-10-11T12:38:52Z</time>
      </trkpt>
      <trkpt lat="47.10086" lon="-1.28783">
        <ele>25.5</ele>
        <time>2019-10-11T12:38:54Z</time>
      </trkpt>
      <trkpt lat="47.10083" lon="-1.28778">
        <ele>25.8</ele>
        <time>2019-10-11T12:38:55Z</time>
      </trkpt>
      <trkpt lat="47.10079" lon="-1.28775">
        <ele>26.1</ele>
        <time>2019-10-11T12:38:58Z</time>
      </trkpt>
      <trkpt lat="47.10076" lon="-1.28773">
        <ele>26.4</ele>
        <time>2019-10-11T12:39:00Z</time>
      </trkpt>
      <trkpt lat="47.10074" lon="-1.28772">
        <ele>26.6</ele>
        <time>2019-10-11T12:39:02Z</time>
      </trkpt>
      <trkpt lat="47.10071" lon="-1.2877">
        <ele>26.9</ele>
        <time>2019-10-11T12:39:04Z</time>
      </trkpt>
      <trkpt lat="47.10067" lon="-1.28766">
        <ele>27.2</ele>
        <time>2019-10-11T12:39:06Z</time>
      </trkpt>
      <trkpt lat="47.10063" lon="-1.28763">
        <ele>27.5</ele>
        <time>2019-10-11T12:39:08Z</time>
      </trkpt>
      <trkpt lat="47.10061" lon="-1.2876">
        <ele>27.8</ele>
        <time>2019-10-11T12:39:10Z</time>
      </trkpt>
      <trkpt lat="47.10059" lon="-1.28757">
        <ele>28</ele>
        <time>2019-10-11T12:39:12Z</time>
      </trkpt>
      <trkpt lat="47.10054" lon="-1.28752">
        <ele>28.5</ele>
        <time>2019-10-11T12:39:14Z</time>
      </trkpt>
      <trkpt lat="47.10051" lon="-1.2875">
        <ele>28.7</ele>
        <time>2019-10-11T12:39:15Z</time>
      </trkpt>
      <trkpt lat="47.10046" lon="-1.28748">
        <ele>29</ele>
        <time>2019-10-11T12:39:17Z</time>
      </trkpt>
      <trkpt lat="47.10043" lon="-1.28747">
        <ele>29.1</ele>
        <time>2019-10-11T12:39:18Z</time>
      </trkpt>
      <trkpt lat="47.1004" lon="-1.28752">
        <ele>29.2</ele>
        <time>2019-10-11T12:39:20Z</time>
      </trkpt>
      <trkpt lat="47.10038" lon="-1.28756">
        <ele>29.2</ele>
        <time>2019-10-11T12:39:22Z</time>
      </trkpt>
      <trkpt lat="47.10036" lon="-1.28763">
        <ele>29.3</ele>
        <time>2019-10-11T12:39:24Z</time>
      </trkpt>
      <trkpt lat="47.10033" lon="-1.28768">
        <ele>29.3</ele>
        <time>2019-10-11T12:39:26Z</time>
      </trkpt>
      <trkpt lat="47.10031" lon="-1.28774">
        <ele>29.3</ele>
        <time>2019-10-11T12:39:28Z</time>
      </trkpt>
      <trkpt lat="47.10029" lon="-1.2878">
        <ele>29.3</ele>
        <time>2019-10-11T12:39:30Z</time>
      </trkpt>
      <trkpt lat="47.10027" lon="-1.28786">
        <ele>29.2</ele>
        <time>2019-10-11T12:39:32Z</time>
      </trkpt>
      <trkpt lat="47.10024" lon="-1.28792">
        <ele>29.2</ele>
        <time>2019-10-11T12:39:34Z</time>
      </trkpt>
      <trkpt lat="47.10021" lon="-1.28798">
        <ele>29.1</ele>
        <time>2019-10-11T12:39:36Z</time>
      </trkpt>
      <trkpt lat="47.10018" lon="-1.28805">
        <ele>29</ele>
        <time>2019-10-11T12:39:38Z</time>
      </trkpt>
      <trkpt lat="47.10016" lon="-1.2881">
        <ele>28.9</ele>
        <time>2019-10-11T12:39:40Z</time>
      </trkpt>
      <trkpt lat="47.10013" lon="-1.28816">
        <ele>28.8</ele>
        <time>2019-10-11T12:39:42Z</time>
      </trkpt>
      <trkpt lat="47.1001" lon="-1.28822">
        <ele>28.7</ele>
        <time>2019-10-11T12:39:44Z</time>
      </trkpt>
      <trkpt lat="47.10008" lon="-1.28825">
        <ele>28.7</ele>
        <time>2019-10-11T12:39:45Z</time>
      </trkpt>
      <trkpt lat="47.10004" lon="-1.28832">
        <ele>28.5</ele>
        <time>2019-10-11T12:39:47Z</time>
      </trkpt>
      <trkpt lat="47.10002" lon="-1.28835">
        <ele>28.5</ele>
        <time>2019-10-11T12:39:48Z</time>
      </trkpt>
      <trkpt lat="47.09998" lon="-1.28841">
        <ele>28.4</ele>
        <time>2019-10-11T12:39:50Z</time>
      </trkpt>
      <trkpt lat="47.09996" lon="-1.28844">
        <ele>28.3</ele>
        <time>2019-10-11T12:39:51Z</time>
      </trkpt>
      <trkpt lat="47.09993" lon="-1.28848">
        <ele>28.3</ele>
        <time>2019-10-11T12:39:52Z</time>
      </trkpt>
      <trkpt lat="47.09991" lon="-1.28852">
        <ele>28.3</ele>
        <time>2019-10-11T12:39:53Z</time>
      </trkpt>
      <trkpt lat="47.09988" lon="-1.28855">
        <ele>28.2</ele>
        <time>2019-10-11T12:39:54Z</time>
      </trkpt>
      <trkpt lat="47.09985" lon="-1.28859">
        <ele>28.2</ele>
        <time>2019-10-11T12:39:55Z</time>
      </trkpt>
      <trkpt lat="47.09983" lon="-1.28862">
        <ele>28.1</ele>
        <time>2019-10-11T12:39:56Z</time>
      </trkpt>
      <trkpt lat="47.0998" lon="-1.28865">
        <ele>28</ele>
        <time>2019-10-11T12:39:57Z</time>
      </trkpt>
      <trkpt lat="47.09978" lon="-1.28869">
        <ele>28</ele>
        <time>2019-10-11T12:39:58Z</time>
      </trkpt>
      <trkpt lat="47.09975" lon="-1.28872">
        <ele>27.8</ele>
        <time>2019-10-11T12:39:59Z</time>
      </trkpt>
      <trkpt lat="47.09973" lon="-1.28875">
        <ele>27.7</ele>
        <time>2019-10-11T12:40:00Z</time>
      </trkpt>
      <trkpt lat="47.09971" lon="-1.28878">
        <ele>27.5</ele>
        <time>2019-10-11T12:40:01Z</time>
      </trkpt>
      <trkpt lat="47.09968" lon="-1.28882">
        <ele>27.3</ele>
        <time>2019-10-11T12:40:02Z</time>
      </trkpt>
      <trkpt lat="47.09965" lon="-1.28886">
        <ele>26.9</ele>
        <time>2019-10-11T12:40:03Z</time>
      </trkpt>
      <trkpt lat="47.09962" lon="-1.2889">
        <ele>26.5</ele>
        <time>2019-10-11T12:40:04Z</time>
      </trkpt>
      <trkpt lat="47.09958" lon="-1.28894">
        <ele>26.1</ele>
        <time>2019-10-11T12:40:05Z</time>
      </trkpt>
      <trkpt lat="47.09954" lon="-1.28899">
        <ele>25.5</ele>
        <time>2019-10-11T12:40:06Z</time>
      </trkpt>
      <trkpt lat="47.09952" lon="-1.28905">
        <ele>24.8</ele>
        <time>2019-10-11T12:40:07Z</time>
      </trkpt>
      <trkpt lat="47.09951" lon="-1.28913">
        <ele>24</ele>
        <time>2019-10-11T12:40:08Z</time>
      </trkpt>
      <trkpt lat="47.09951" lon="-1.28919">
        <ele>23.3</ele>
        <time>2019-10-11T12:40:09Z</time>
      </trkpt>
      <trkpt lat="47.09952" lon="-1.28925">
        <ele>22.7</ele>
        <time>2019-10-11T12:40:10Z</time>
      </trkpt>
      <trkpt lat="47.09952" lon="-1.28931">
        <ele>22.4</ele>
        <time>2019-10-11T12:40:11Z</time>
      </trkpt>
      <trkpt lat="47.09953" lon="-1.28937">
        <ele>22</ele>
        <time>2019-10-11T12:40:12Z</time>
      </trkpt>
      <trkpt lat="47.09954" lon="-1.28942">
        <ele>21.7</ele>
        <time>2019-10-11T12:40:13Z</time>
      </trkpt>
      <trkpt lat="47.09954" lon="-1.28948">
        <ele>21.3</ele>
        <time>2019-10-11T12:40:14Z</time>
      </trkpt>
      <trkpt lat="47.09952" lon="-1.28955">
        <ele>20.8</ele>
        <time>2019-10-11T12:40:15Z</time>
      </trkpt>
      <trkpt lat="47.09948" lon="-1.28962">
        <ele>20.3</ele>
        <time>2019-10-11T12:40:16Z</time>
      </trkpt>
      <trkpt lat="47.09944" lon="-1.28968">
        <ele>19.6</ele>
        <time>2019-10-11T12:40:17Z</time>
      </trkpt>
      <trkpt lat="47.0994" lon="-1.28974">
        <ele>19.6</ele>
        <time>2019-10-11T12:40:18Z</time>
      </trkpt>
      <trkpt lat="47.09936" lon="-1.28978">
        <ele>19.2</ele>
        <time>2019-10-11T12:40:19Z</time>
      </trkpt>
      <trkpt lat="47.09931" lon="-1.28978">
        <ele>18.9</ele>
        <time>2019-10-11T12:40:20Z</time>
      </trkpt>
      <trkpt lat="47.09927" lon="-1.28976">
        <ele>18.7</ele>
        <time>2019-10-11T12:40:21Z</time>
      </trkpt>
      <trkpt lat="47.09922" lon="-1.28973">
        <ele>18.6</ele>
        <time>2019-10-11T12:40:22Z</time>
      </trkpt>
      <trkpt lat="47.09918" lon="-1.28968">
        <ele>18.4</ele>
        <time>2019-10-11T12:40:23Z</time>
      </trkpt>
      <trkpt lat="47.09914" lon="-1.28963">
        <ele>18.6</ele>
        <time>2019-10-11T12:40:24Z</time>
      </trkpt>
      <trkpt lat="47.0991" lon="-1.28956">
        <ele>18.8</ele>
        <time>2019-10-11T12:40:25Z</time>
      </trkpt>
      <trkpt lat="47.09908" lon="-1.28949">
        <ele>19</ele>
        <time>2019-10-11T12:40:26Z</time>
      </trkpt>
      <trkpt lat="47.09907" lon="-1.28943">
        <ele>19.3</ele>
        <time>2019-10-11T12:40:27Z</time>
      </trkpt>
      <trkpt lat="47.09906" lon="-1.28937">
        <ele>19.5</ele>
        <time>2019-10-11T12:40:28Z</time>
      </trkpt>
      <trkpt lat="47.09905" lon="-1.28932">
        <ele>19.5</ele>
        <time>2019-10-11T12:40:29Z</time>
      </trkpt>
      <trkpt lat="47.09903" lon="-1.28926">
        <ele>19.8</ele>
        <time>2019-10-11T12:40:31Z</time>
      </trkpt>
      <trkpt lat="47.09901" lon="-1.2892">
        <ele>20.2</ele>
        <time>2019-10-11T12:40:33Z</time>
      </trkpt>
      <trkpt lat="47.099" lon="-1.28914">
        <ele>20.5</ele>
        <time>2019-10-11T12:40:35Z</time>
      </trkpt>
      <trkpt lat="47.09902" lon="-1.2891">
        <ele>20.8</ele>
        <time>2019-10-11T12:40:37Z</time>
      </trkpt>
      <trkpt lat="47.09905" lon="-1.28909">
        <ele>21</ele>
        <time>2019-10-11T12:40:39Z</time>
      </trkpt>
      <trkpt lat="47.09907" lon="-1.28905">
        <ele>21.3</ele>
        <time>2019-10-11T12:40:41Z</time>
      </trkpt>
      <trkpt lat="47.0991" lon="-1.28899">
        <ele>21.6</ele>
        <time>2019-10-11T12:40:43Z</time>
      </trkpt>
      <trkpt lat="47.09912" lon="-1.28894">
        <ele>22.2</ele>
        <time>2019-10-11T12:40:45Z</time>
      </trkpt>
      <trkpt lat="47.09912" lon="-1.28889">
        <ele>22.2</ele>
        <time>2019-10-11T12:40:47Z</time>
      </trkpt>
      <trkpt lat="47.09909" lon="-1.28886">
        <ele>22.2</ele>
        <time>2019-10-11T12:40:50Z</time>
      </trkpt>
      <trkpt lat="47.09906" lon="-1.28884">
        <ele>22.2</ele>
        <time>2019-10-11T12:40:53Z</time>
      </trkpt>
      <trkpt lat="47.09902" lon="-1.28884">
        <ele>22.2</ele>
        <time>2019-10-11T12:41:09Z</time>
      </trkpt>
      <trkpt lat="47.099" lon="-1.28888">
        <ele>22.2</ele>
        <time>2019-10-11T12:41:11Z</time>
      </trkpt>
      <trkpt lat="47.09896" lon="-1.2889">
        <ele>21.7</ele>
        <time>2019-10-11T12:41:13Z</time>
      </trkpt>
      <trkpt lat="47.09893" lon="-1.28891">
        <ele>21.4</ele>
        <time>2019-10-11T12:41:15Z</time>
      </trkpt>
      <trkpt lat="47.09889" lon="-1.28895">
        <ele>21</ele>
        <time>2019-10-11T12:41:17Z</time>
      </trkpt>
      <trkpt lat="47.09886" lon="-1.289">
        <ele>20.6</ele>
        <time>2019-10-11T12:41:19Z</time>
      </trkpt>
      <trkpt lat="47.09882" lon="-1.28901">
        <ele>20.1</ele>
        <time>2019-10-11T12:41:21Z</time>
      </trkpt>
      <trkpt lat="47.09878" lon="-1.28901">
        <ele>19.8</ele>
        <time>2019-10-11T12:41:23Z</time>
      </trkpt>
      <trkpt lat="47.09874" lon="-1.28902">
        <ele>19.7</ele>
        <time>2019-10-11T12:41:25Z</time>
      </trkpt>
      <trkpt lat="47.09869" lon="-1.28909">
        <ele>19.1</ele>
        <time>2019-10-11T12:41:41Z</time>
      </trkpt>
      <trkpt lat="47.09866" lon="-1.28909">
        <ele>18.7</ele>
        <time>2019-10-11T12:41:42Z</time>
      </trkpt>
      <trkpt lat="47.09864" lon="-1.28908">
        <ele>18.7</ele>
        <time>2019-10-11T12:41:43Z</time>
      </trkpt>
      <trkpt lat="47.09859" lon="-1.28907">
        <ele>18.4</ele>
        <time>2019-10-11T12:41:45Z</time>
      </trkpt>
      <trkpt lat="47.09856" lon="-1.28906">
        <ele>18.1</ele>
        <time>2019-10-11T12:41:47Z</time>
      </trkpt>
      <trkpt lat="47.09854" lon="-1.28901">
        <ele>18</ele>
        <time>2019-10-11T12:41:49Z</time>
      </trkpt>
      <trkpt lat="47.09851" lon="-1.28899">
        <ele>17.8</ele>
        <time>2019-10-11T12:41:50Z</time>
      </trkpt>
      <trkpt lat="47.09848" lon="-1.28899">
        <ele>17.4</ele>
        <time>2019-10-11T12:41:51Z</time>
      </trkpt>
      <trkpt lat="47.09844" lon="-1.28903">
        <ele>17</ele>
        <time>2019-10-11T12:41:53Z</time>
      </trkpt>
      <trkpt lat="47.09842" lon="-1.28909">
        <ele>16.4</ele>
        <time>2019-10-11T12:41:55Z</time>
      </trkpt>
      <trkpt lat="47.09843" lon="-1.28916">
        <ele>16.1</ele>
        <time>2019-10-11T12:41:57Z</time>
      </trkpt>
      <trkpt lat="47.09841" lon="-1.28921">
        <ele>15.6</ele>
        <time>2019-10-11T12:42:03Z</time>
      </trkpt>
      <trkpt lat="47.09837" lon="-1.28919">
        <ele>15.2</ele>
        <time>2019-10-11T12:42:05Z</time>
      </trkpt>
      <trkpt lat="47.09832" lon="-1.28915">
        <ele>15</ele>
        <time>2019-10-11T12:42:07Z</time>
      </trkpt>
      <trkpt lat="47.09831" lon="-1.2891">
        <ele>14.7</ele>
        <time>2019-10-11T12:42:09Z</time>
      </trkpt>
      <trkpt lat="47.09832" lon="-1.28905">
        <ele>14.7</ele>
        <time>2019-10-11T12:42:10Z</time>
      </trkpt>
      <trkpt lat="47.09831" lon="-1.28901">
        <ele>14.8</ele>
        <time>2019-10-11T12:42:11Z</time>
      </trkpt>
      <trkpt lat="47.09828" lon="-1.28894">
        <ele>14.6</ele>
        <time>2019-10-11T12:42:13Z</time>
      </trkpt>
      <trkpt lat="47.09828" lon="-1.2889">
        <ele>14.6</ele>
        <time>2019-10-11T12:42:14Z</time>
      </trkpt>
      <trkpt lat="47.09828" lon="-1.28884">
        <ele>14.7</ele>
        <time>2019-10-11T12:42:16Z</time>
      </trkpt>
      <trkpt lat="47.09831" lon="-1.28881">
        <ele>15.1</ele>
        <time>2019-10-11T12:42:19Z</time>
      </trkpt>
      <trkpt lat="47.09833" lon="-1.28876">
        <ele>15.5</ele>
        <time>2019-10-11T12:42:21Z</time>
      </trkpt>
      <trkpt lat="47.09835" lon="-1.28871">
        <ele>15.5</ele>
        <time>2019-10-11T12:42:23Z</time>
      </trkpt>
      <trkpt lat="47.09837" lon="-1.28866">
        <ele>15.9</ele>
        <time>2019-10-11T12:42:25Z</time>
      </trkpt>
      <trkpt lat="47.09841" lon="-1.28859">
        <ele>16.3</ele>
        <time>2019-10-11T12:42:31Z</time>
      </trkpt>
      <trkpt lat="47.09842" lon="-1.28855">
        <ele>16.7</ele>
        <time>2019-10-11T12:42:33Z</time>
      </trkpt>
      <trkpt lat="47.09843" lon="-1.28846">
        <ele>16.7</ele>
        <time>2019-10-11T12:42:36Z</time>
      </trkpt>
      <trkpt lat="47.09841" lon="-1.28843">
        <ele>16.2</ele>
        <time>2019-10-11T12:42:37Z</time>
      </trkpt>
      <trkpt lat="47.09838" lon="-1.28841">
        <ele>16.2</ele>
        <time>2019-10-11T12:42:38Z</time>
      </trkpt>
      <trkpt lat="47.09836" lon="-1.28836">
        <ele>15.7</ele>
        <time>2019-10-11T12:42:40Z</time>
      </trkpt>
      <trkpt lat="47.09837" lon="-1.28831">
        <ele>15.7</ele>
        <time>2019-10-11T12:42:43Z</time>
      </trkpt>
      <trkpt lat="47.0984" lon="-1.28826">
        <ele>16.1</ele>
        <time>2019-10-11T12:42:48Z</time>
      </trkpt>
      <trkpt lat="47.09843" lon="-1.28825">
        <ele>16.5</ele>
        <time>2019-10-11T12:42:51Z</time>
      </trkpt>
      <trkpt lat="47.09847" lon="-1.28821">
        <ele>17.2</ele>
        <time>2019-10-11T12:42:54Z</time>
      </trkpt>
      <trkpt lat="47.0985" lon="-1.28817">
        <ele>17.5</ele>
        <time>2019-10-11T12:42:55Z</time>
      </trkpt>
      <trkpt lat="47.09852" lon="-1.28814">
        <ele>17.5</ele>
        <time>2019-10-11T12:42:56Z</time>
      </trkpt>
      <trkpt lat="47.09854" lon="-1.28811">
        <ele>17.7</ele>
        <time>2019-10-11T12:42:57Z</time>
      </trkpt>
      <trkpt lat="47.09856" lon="-1.28805">
        <ele>18</ele>
        <time>2019-10-11T12:42:59Z</time>
      </trkpt>
      <trkpt lat="47.0986" lon="-1.28797">
        <ele>18.3</ele>
        <time>2019-10-11T12:43:42Z</time>
      </trkpt>
      <trkpt lat="47.09864" lon="-1.28795">
        <ele>18.6</ele>
        <time>2019-10-11T12:43:44Z</time>
      </trkpt>
      <trkpt lat="47.09869" lon="-1.28795">
        <ele>19.1</ele>
        <time>2019-10-11T12:43:46Z</time>
      </trkpt>
      <trkpt lat="47.09874" lon="-1.28793">
        <ele>19.7</ele>
        <time>2019-10-11T12:43:48Z</time>
      </trkpt>
      <trkpt lat="47.09878" lon="-1.28789">
        <ele>20.1</ele>
        <time>2019-10-11T12:43:50Z</time>
      </trkpt>
      <trkpt lat="47.09881" lon="-1.28786">
        <ele>20.3</ele>
        <time>2019-10-11T12:43:51Z</time>
      </trkpt>
      <trkpt lat="47.09884" lon="-1.28785">
        <ele>20.5</ele>
        <time>2019-10-11T12:43:52Z</time>
      </trkpt>
      <trkpt lat="47.09888" lon="-1.28783">
        <ele>20.8</ele>
        <time>2019-10-11T12:43:54Z</time>
      </trkpt>
      <trkpt lat="47.0989" lon="-1.28781">
        <ele>21</ele>
        <time>2019-10-11T12:43:55Z</time>
      </trkpt>
      <trkpt lat="47.09894" lon="-1.28777">
        <ele>21.4</ele>
        <time>2019-10-11T12:43:57Z</time>
      </trkpt>
      <trkpt lat="47.09897" lon="-1.28774">
        <ele>21.6</ele>
        <time>2019-10-11T12:43:59Z</time>
      </trkpt>
      <trkpt lat="47.099" lon="-1.28772">
        <ele>21.7</ele>
        <time>2019-10-11T12:44:01Z</time>
      </trkpt>
      <trkpt lat="47.09905" lon="-1.2877">
        <ele>21.8</ele>
        <time>2019-10-11T12:44:03Z</time>
      </trkpt>
      <trkpt lat="47.0991" lon="-1.28769">
        <ele>22.1</ele>
        <time>2019-10-11T12:44:05Z</time>
      </trkpt>
      <trkpt lat="47.09914" lon="-1.28767">
        <ele>22.3</ele>
        <time>2019-10-11T12:44:07Z</time>
      </trkpt>
      <trkpt lat="47.09917" lon="-1.28761">
        <ele>22.8</ele>
        <time>2019-10-11T12:44:09Z</time>
      </trkpt>
      <trkpt lat="47.09919" lon="-1.28757">
        <ele>22.8</ele>
        <time>2019-10-11T12:44:10Z</time>
      </trkpt>
      <trkpt lat="47.09922" lon="-1.28754">
        <ele>23</ele>
        <time>2019-10-11T12:44:12Z</time>
      </trkpt>
      <trkpt lat="47.09925" lon="-1.2875">
        <ele>23.2</ele>
        <time>2019-10-11T12:44:14Z</time>
      </trkpt>
      <trkpt lat="47.09928" lon="-1.28747">
        <ele>23.3</ele>
        <time>2019-10-11T12:44:16Z</time>
      </trkpt>
      <trkpt lat="47.09931" lon="-1.28743">
        <ele>23.5</ele>
        <time>2019-10-11T12:44:19Z</time>
      </trkpt>
      <trkpt lat="47.09935" lon="-1.2874">
        <ele>23.8</ele>
        <time>2019-10-11T12:44:28Z</time>
      </trkpt>
      <trkpt lat="47.09938" lon="-1.28737">
        <ele>23.9</ele>
        <time>2019-10-11T12:44:35Z</time>
      </trkpt>
      <trkpt lat="47.0994" lon="-1.28733">
        <ele>24.1</ele>
        <time>2019-10-11T12:44:41Z</time>
      </trkpt>
      <trkpt lat="47.09942" lon="-1.28728">
        <ele>24.1</ele>
        <time>2019-10-11T12:44:45Z</time>
      </trkpt>
      <trkpt lat="47.09946" lon="-1.2872">
        <ele>24.5</ele>
        <time>2019-10-11T12:45:10Z</time>
      </trkpt>
      <trkpt lat="47.09946" lon="-1.28712">
        <ele>24.5</ele>
        <time>2019-10-11T12:45:13Z</time>
      </trkpt>
      <trkpt lat="47.09944" lon="-1.28704">
        <ele>24.6</ele>
        <time>2019-10-11T12:45:15Z</time>
      </trkpt>
      <trkpt lat="47.09943" lon="-1.287">
        <ele>24.7</ele>
        <time>2019-10-11T12:45:16Z</time>
      </trkpt>
      <trkpt lat="47.09942" lon="-1.28694">
        <ele>24.5</ele>
        <time>2019-10-11T12:45:18Z</time>
      </trkpt>
      <trkpt lat="47.09942" lon="-1.28689">
        <ele>24.6</ele>
        <time>2019-10-11T12:45:20Z</time>
      </trkpt>
      <trkpt lat="47.0994" lon="-1.28681">
        <ele>24.7</ele>
        <time>2019-10-11T12:45:25Z</time>
      </trkpt>
      <trkpt lat="47.0994" lon="-1.28677">
        <ele>24.5</ele>
        <time>2019-10-11T12:45:29Z</time>
      </trkpt>
      <trkpt lat="47.09944" lon="-1.28675">
        <ele>24.9</ele>
        <time>2019-10-11T12:45:33Z</time>
      </trkpt>
      <trkpt lat="47.09948" lon="-1.28675">
        <ele>25.1</ele>
        <time>2019-10-11T12:45:35Z</time>
      </trkpt>
      <trkpt lat="47.09952" lon="-1.28674">
        <ele>25.3</ele>
        <time>2019-10-11T12:45:37Z</time>
      </trkpt>
      <trkpt lat="47.09955" lon="-1.28673">
        <ele>25.6</ele>
        <time>2019-10-11T12:45:39Z</time>
      </trkpt>
      <trkpt lat="47.09958" lon="-1.28672">
        <ele>25.9</ele>
        <time>2019-10-11T12:45:42Z</time>
      </trkpt>
      <trkpt lat="47.09962" lon="-1.2867">
        <ele>26.1</ele>
        <time>2019-10-11T12:45:44Z</time>
      </trkpt>
      <trkpt lat="47.09965" lon="-1.2867">
        <ele>26.2</ele>
        <time>2019-10-11T12:45:46Z</time>
      </trkpt>
      <trkpt lat="47.09967" lon="-1.28672">
        <ele>26.4</ele>
        <time>2019-10-11T12:45:48Z</time>
      </trkpt>
      <trkpt lat="47.0997" lon="-1.28673">
        <ele>26.6</ele>
        <time>2019-10-11T12:45:50Z</time>
      </trkpt>
      <trkpt lat="47.09973" lon="-1.28674">
        <ele>26.7</ele>
        <time>2019-10-11T12:45:52Z</time>
      </trkpt>
      <trkpt lat="47.09977" lon="-1.28676">
        <ele>26.9</ele>
        <time>2019-10-11T12:45:54Z</time>
      </trkpt>
      <trkpt lat="47.0998" lon="-1.28677">
        <ele>27.1</ele>
        <time>2019-10-11T12:45:56Z</time>
      </trkpt>
      <trkpt lat="47.09984" lon="-1.28676">
        <ele>27.2</ele>
        <time>2019-10-11T12:45:58Z</time>
      </trkpt>
      <trkpt lat="47.09986" lon="-1.28672">
        <ele>27.4</ele>
        <time>2019-10-11T12:46:00Z</time>
      </trkpt>
      <trkpt lat="47.09988" lon="-1.28668">
        <ele>27.6</ele>
        <time>2019-10-11T12:46:03Z</time>
      </trkpt>
      <trkpt lat="47.09988" lon="-1.2866">
        <ele>27.7</ele>
        <time>2019-10-11T12:46:05Z</time>
      </trkpt>
      <trkpt lat="47.09986" lon="-1.28654">
        <ele>27.5</ele>
        <time>2019-10-11T12:46:07Z</time>
      </trkpt>
      <trkpt lat="47.09983" lon="-1.28649">
        <ele>27.4</ele>
        <time>2019-10-11T12:46:09Z</time>
      </trkpt>
      <trkpt lat="47.0998" lon="-1.28643">
        <ele>27.2</ele>
        <time>2019-10-11T12:46:11Z</time>
      </trkpt>
      <trkpt lat="47.09979" lon="-1.28639">
        <ele>27.2</ele>
        <time>2019-10-11T12:46:12Z</time>
      </trkpt>
      <trkpt lat="47.09978" lon="-1.28635">
        <ele>27.1</ele>
        <time>2019-10-11T12:46:13Z</time>
      </trkpt>
      <trkpt lat="47.09975" lon="-1.28629">
        <ele>27</ele>
        <time>2019-10-11T12:46:15Z</time>
      </trkpt>
      <trkpt lat="47.09972" lon="-1.28625">
        <ele>27</ele>
        <time>2019-10-11T12:46:17Z</time>
      </trkpt>
      <trkpt lat="47.0997" lon="-1.28621">
        <ele>27</ele>
        <time>2019-10-11T12:46:19Z</time>
      </trkpt>
      <trkpt lat="47.09967" lon="-1.28617">
        <ele>27</ele>
        <time>2019-10-11T12:46:21Z</time>
      </trkpt>
      <trkpt lat="47.09964" lon="-1.28612">
        <ele>27</ele>
        <time>2019-10-11T12:46:23Z</time>
      </trkpt>
      <trkpt lat="47.09961" lon="-1.28607">
        <ele>27</ele>
        <time>2019-10-11T12:46:25Z</time>
      </trkpt>
      <trkpt lat="47.09957" lon="-1.28603">
        <ele>27</ele>
        <time>2019-10-11T12:46:27Z</time>
      </trkpt>
      <trkpt lat="47.09954" lon="-1.28598">
        <ele>27</ele>
        <time>2019-10-11T12:46:29Z</time>
      </trkpt>
      <trkpt lat="47.0995" lon="-1.28594">
        <ele>27</ele>
        <time>2019-10-11T12:46:31Z</time>
      </trkpt>
      <trkpt lat="47.09946" lon="-1.28589">
        <ele>27.1</ele>
        <time>2019-10-11T12:46:33Z</time>
      </trkpt>
      <trkpt lat="47.09943" lon="-1.28585">
        <ele>27.1</ele>
        <time>2019-10-11T12:46:35Z</time>
      </trkpt>
      <trkpt lat="47.09939" lon="-1.28581">
        <ele>27.2</ele>
        <time>2019-10-11T12:46:37Z</time>
      </trkpt>
      <trkpt lat="47.09935" lon="-1.28577">
        <ele>27.3</ele>
        <time>2019-10-11T12:46:39Z</time>
      </trkpt>
      <trkpt lat="47.09931" lon="-1.28572">
        <ele>27.5</ele>
        <time>2019-10-11T12:46:41Z</time>
      </trkpt>
      <trkpt lat="47.09929" lon="-1.2857">
        <ele>27.6</ele>
        <time>2019-10-11T12:46:42Z</time>
      </trkpt>
      <trkpt lat="47.09926" lon="-1.28568">
        <ele>27.7</ele>
        <time>2019-10-11T12:46:43Z</time>
      </trkpt>
      <trkpt lat="47.09924" lon="-1.28566">
        <ele>27.8</ele>
        <time>2019-10-11T12:46:44Z</time>
      </trkpt>
      <trkpt lat="47.0992" lon="-1.28564">
        <ele>28</ele>
        <time>2019-10-11T12:46:46Z</time>
      </trkpt>
      <trkpt lat="47.09915" lon="-1.28561">
        <ele>28.2</ele>
        <time>2019-10-11T12:46:48Z</time>
      </trkpt>
      <trkpt lat="47.0991" lon="-1.28558">
        <ele>28.4</ele>
        <time>2019-10-11T12:46:50Z</time>
      </trkpt>
      <trkpt lat="47.09906" lon="-1.28555">
        <ele>28.5</ele>
        <time>2019-10-11T12:46:52Z</time>
      </trkpt>
      <trkpt lat="47.09901" lon="-1.28551">
        <ele>28.7</ele>
        <time>2019-10-11T12:46:54Z</time>
      </trkpt>
      <trkpt lat="47.09898" lon="-1.28548">
        <ele>28.8</ele>
        <time>2019-10-11T12:46:56Z</time>
      </trkpt>
      <trkpt lat="47.09893" lon="-1.28544">
        <ele>28.9</ele>
        <time>2019-10-11T12:46:58Z</time>
      </trkpt>
      <trkpt lat="47.0989" lon="-1.28542">
        <ele>28.9</ele>
        <time>2019-10-11T12:46:59Z</time>
      </trkpt>
      <trkpt lat="47.09885" lon="-1.28538">
        <ele>29</ele>
        <time>2019-10-11T12:47:01Z</time>
      </trkpt>
      <trkpt lat="47.0988" lon="-1.28535">
        <ele>29.1</ele>
        <time>2019-10-11T12:47:03Z</time>
      </trkpt>
      <trkpt lat="47.09876" lon="-1.2853">
        <ele>29.2</ele>
        <time>2019-10-11T12:47:05Z</time>
      </trkpt>
      <trkpt lat="47.09874" lon="-1.28528">
        <ele>29.2</ele>
        <time>2019-10-11T12:47:06Z</time>
      </trkpt>
      <trkpt lat="47.09869" lon="-1.28525">
        <ele>29.3</ele>
        <time>2019-10-11T12:47:08Z</time>
      </trkpt>
      <trkpt lat="47.09865" lon="-1.28522">
        <ele>29.3</ele>
        <time>2019-10-11T12:47:10Z</time>
      </trkpt>
      <trkpt lat="47.09861" lon="-1.28519">
        <ele>29.4</ele>
        <time>2019-10-11T12:47:12Z</time>
      </trkpt>
      <trkpt lat="47.09859" lon="-1.28517">
        <ele>29.4</ele>
        <time>2019-10-11T12:47:13Z</time>
      </trkpt>
      <trkpt lat="47.09854" lon="-1.28515">
        <ele>29.5</ele>
        <time>2019-10-11T12:47:15Z</time>
      </trkpt>
      <trkpt lat="47.09849" lon="-1.28513">
        <ele>29.6</ele>
        <time>2019-10-11T12:47:17Z</time>
      </trkpt>
      <trkpt lat="47.09845" lon="-1.28511">
        <ele>29.7</ele>
        <time>2019-10-11T12:47:19Z</time>
      </trkpt>
      <trkpt lat="47.09841" lon="-1.28509">
        <ele>29.9</ele>
        <time>2019-10-11T12:47:21Z</time>
      </trkpt>
      <trkpt lat="47.09837" lon="-1.28506">
        <ele>30</ele>
        <time>2019-10-11T12:47:23Z</time>
      </trkpt>
      <trkpt lat="47.09833" lon="-1.28501">
        <ele>30.2</ele>
        <time>2019-10-11T12:47:25Z</time>
      </trkpt>
      <trkpt lat="47.0983" lon="-1.28496">
        <ele>30.3</ele>
        <time>2019-10-11T12:47:27Z</time>
      </trkpt>
      <trkpt lat="47.09827" lon="-1.28492">
        <ele>30.4</ele>
        <time>2019-10-11T12:47:28Z</time>
      </trkpt>
      <trkpt lat="47.09825" lon="-1.28488">
        <ele>30.5</ele>
        <time>2019-10-11T12:47:29Z</time>
      </trkpt>
      <trkpt lat="47.09822" lon="-1.28485">
        <ele>30.5</ele>
        <time>2019-10-11T12:47:30Z</time>
      </trkpt>
      <trkpt lat="47.0982" lon="-1.28481">
        <ele>30.6</ele>
        <time>2019-10-11T12:47:31Z</time>
      </trkpt>
      <trkpt lat="47.09817" lon="-1.28476">
        <ele>30.6</ele>
        <time>2019-10-11T12:47:32Z</time>
      </trkpt>
      <trkpt lat="47.09815" lon="-1.28471">
        <ele>30.6</ele>
        <time>2019-10-11T12:47:33Z</time>
      </trkpt>
      <trkpt lat="47.09813" lon="-1.28466">
        <ele>30.6</ele>
        <time>2019-10-11T12:47:34Z</time>
      </trkpt>
      <trkpt lat="47.09811" lon="-1.2846">
        <ele>30.6</ele>
        <time>2019-10-11T12:47:35Z</time>
      </trkpt>
      <trkpt lat="47.0981" lon="-1.28454">
        <ele>30.7</ele>
        <time>2019-10-11T12:47:36Z</time>
      </trkpt>
      <trkpt lat="47.09809" lon="-1.28448">
        <ele>30.8</ele>
        <time>2019-10-11T12:47:37Z</time>
      </trkpt>
      <trkpt lat="47.09808" lon="-1.28443">
        <ele>30.9</ele>
        <time>2019-10-11T12:47:38Z</time>
      </trkpt>
      <trkpt lat="47.09807" lon="-1.2844">
        <ele>31.1</ele>
        <time>2019-10-11T12:47:39Z</time>
      </trkpt>
      <trkpt lat="47.09804" lon="-1.28437">
        <ele>30.8</ele>
        <time>2019-10-11T12:47:40Z</time>
      </trkpt>
      <trkpt lat="47.09802" lon="-1.28433">
        <ele>30.6</ele>
        <time>2019-10-11T12:47:41Z</time>
      </trkpt>
      <trkpt lat="47.098" lon="-1.2843">
        <ele>30.4</ele>
        <time>2019-10-11T12:47:42Z</time>
      </trkpt>
      <trkpt lat="47.09797" lon="-1.28425">
        <ele>30</ele>
        <time>2019-10-11T12:47:44Z</time>
      </trkpt>
      <trkpt lat="47.09793" lon="-1.28425">
        <ele>29.7</ele>
        <time>2019-10-11T12:47:46Z</time>
      </trkpt>
      <trkpt lat="47.09792" lon="-1.28429">
        <ele>29.5</ele>
        <time>2019-10-11T12:47:50Z</time>
      </trkpt>
      <trkpt lat="47.09789" lon="-1.28428">
        <ele>29.3</ele>
        <time>2019-10-11T12:47:59Z</time>
      </trkpt>
      <trkpt lat="47.09787" lon="-1.28436">
        <ele>29</ele>
        <time>2019-10-11T12:49:00Z</time>
      </trkpt>
      <trkpt lat="47.09788" lon="-1.28443">
        <ele>28.8</ele>
        <time>2019-10-11T12:49:02Z</time>
      </trkpt>
      <trkpt lat="47.09788" lon="-1.2845">
        <ele>28.5</ele>
        <time>2019-10-11T12:49:04Z</time>
      </trkpt>
      <trkpt lat="47.09788" lon="-1.28455">
        <ele>28.4</ele>
        <time>2019-10-11T12:49:05Z</time>
      </trkpt>
      <trkpt lat="47.09788" lon="-1.2846">
        <ele>28.2</ele>
        <time>2019-10-11T12:49:06Z</time>
      </trkpt>
      <trkpt lat="47.09788" lon="-1.28464">
        <ele>28.1</ele>
        <time>2019-10-11T12:49:07Z</time>
      </trkpt>
      <trkpt lat="47.09786" lon="-1.28469">
        <ele>28</ele>
        <time>2019-10-11T12:49:08Z</time>
      </trkpt>
      <trkpt lat="47.09783" lon="-1.28474">
        <ele>27.8</ele>
        <time>2019-10-11T12:49:09Z</time>
      </trkpt>
      <trkpt lat="47.0978" lon="-1.2848">
        <ele>27.7</ele>
        <time>2019-10-11T12:49:10Z</time>
      </trkpt>
      <trkpt lat="47.09777" lon="-1.28488">
        <ele>27.5</ele>
        <time>2019-10-11T12:49:11Z</time>
      </trkpt>
      <trkpt lat="47.09774" lon="-1.28496">
        <ele>27.4</ele>
        <time>2019-10-11T12:49:12Z</time>
      </trkpt>
      <trkpt lat="47.09771" lon="-1.28506">
        <ele>27.2</ele>
        <time>2019-10-11T12:49:13Z</time>
      </trkpt>
      <trkpt lat="47.09767" lon="-1.28516">
        <ele>24.9</ele>
        <time>2019-10-11T12:49:14Z</time>
      </trkpt>
      <trkpt lat="47.09763" lon="-1.28526">
        <ele>24.4</ele>
        <time>2019-10-11T12:49:15Z</time>
      </trkpt>
      <trkpt lat="47.0976" lon="-1.28535">
        <ele>23.9</ele>
        <time>2019-10-11T12:49:16Z</time>
      </trkpt>
      <trkpt lat="47.09756" lon="-1.28545">
        <ele>23.5</ele>
        <time>2019-10-11T12:49:17Z</time>
      </trkpt>
      <trkpt lat="47.09753" lon="-1.28552">
        <ele>23.3</ele>
        <time>2019-10-11T12:49:18Z</time>
      </trkpt>
      <trkpt lat="47.09748" lon="-1.28557">
        <ele>23</ele>
        <time>2019-10-11T12:49:19Z</time>
      </trkpt>
      <trkpt lat="47.09742" lon="-1.2856">
        <ele>22.8</ele>
        <time>2019-10-11T12:49:20Z</time>
      </trkpt>
      <trkpt lat="47.09736" lon="-1.28562">
        <ele>22.7</ele>
        <time>2019-10-11T12:49:21Z</time>
      </trkpt>
      <trkpt lat="47.09731" lon="-1.28563">
        <ele>22.6</ele>
        <time>2019-10-11T12:49:22Z</time>
      </trkpt>
      <trkpt lat="47.09727" lon="-1.28562">
        <ele>22.6</ele>
        <time>2019-10-11T12:49:23Z</time>
      </trkpt>
      <trkpt lat="47.09724" lon="-1.28562">
        <ele>22.6</ele>
        <time>2019-10-11T12:49:24Z</time>
      </trkpt>
      <trkpt lat="47.0972" lon="-1.28562">
        <ele>19</ele>
        <time>2019-10-11T12:49:25Z</time>
      </trkpt>
      <trkpt lat="47.09717" lon="-1.28562">
        <ele>18.9</ele>
        <time>2019-10-11T12:49:26Z</time>
      </trkpt>
      <trkpt lat="47.09714" lon="-1.28561">
        <ele>19</ele>
        <time>2019-10-11T12:49:27Z</time>
      </trkpt>
      <trkpt lat="47.09711" lon="-1.28561">
        <ele>19.1</ele>
        <time>2019-10-11T12:49:28Z</time>
      </trkpt>
      <trkpt lat="47.09708" lon="-1.28562">
        <ele>19.2</ele>
        <time>2019-10-11T12:49:29Z</time>
      </trkpt>
      <trkpt lat="47.09704" lon="-1.28562">
        <ele>19.3</ele>
        <time>2019-10-11T12:49:30Z</time>
      </trkpt>
      <trkpt lat="47.097" lon="-1.28561">
        <ele>19.3</ele>
        <time>2019-10-11T12:49:31Z</time>
      </trkpt>
      <trkpt lat="47.09697" lon="-1.28559">
        <ele>19.5</ele>
        <time>2019-10-11T12:49:32Z</time>
      </trkpt>
      <trkpt lat="47.09694" lon="-1.28557">
        <ele>19.7</ele>
        <time>2019-10-11T12:49:33Z</time>
      </trkpt>
      <trkpt lat="47.09691" lon="-1.28555">
        <ele>19.8</ele>
        <time>2019-10-11T12:49:34Z</time>
      </trkpt>
      <trkpt lat="47.09688" lon="-1.28553">
        <ele>19.8</ele>
        <time>2019-10-11T12:49:35Z</time>
      </trkpt>
      <trkpt lat="47.09686" lon="-1.28552">
        <ele>19.9</ele>
        <time>2019-10-11T12:49:36Z</time>
      </trkpt>
      <trkpt lat="47.09682" lon="-1.28552">
        <ele>20.1</ele>
        <time>2019-10-11T12:49:38Z</time>
      </trkpt>
      <trkpt lat="47.09679" lon="-1.2855">
        <ele>20.2</ele>
        <time>2019-10-11T12:49:39Z</time>
      </trkpt>
      <trkpt lat="47.09675" lon="-1.28549">
        <ele>20.3</ele>
        <time>2019-10-11T12:49:40Z</time>
      </trkpt>
      <trkpt lat="47.09671" lon="-1.28548">
        <ele>20.4</ele>
        <time>2019-10-11T12:49:41Z</time>
      </trkpt>
      <trkpt lat="47.09666" lon="-1.28546">
        <ele>20.6</ele>
        <time>2019-10-11T12:49:42Z</time>
      </trkpt>
      <trkpt lat="47.09659" lon="-1.28546">
        <ele>19.5</ele>
        <time>2019-10-11T12:49:43Z</time>
      </trkpt>
      <trkpt lat="47.09654" lon="-1.28546">
        <ele>19.4</ele>
        <time>2019-10-11T12:49:44Z</time>
      </trkpt>
      <trkpt lat="47.0965" lon="-1.28546">
        <ele>19.2</ele>
        <time>2019-10-11T12:49:45Z</time>
      </trkpt>
      <trkpt lat="47.09646" lon="-1.28546">
        <ele>19</ele>
        <time>2019-10-11T12:49:46Z</time>
      </trkpt>
      <trkpt lat="47.09641" lon="-1.28546">
        <ele>18.7</ele>
        <time>2019-10-11T12:49:47Z</time>
      </trkpt>
      <trkpt lat="47.09638" lon="-1.28544">
        <ele>18.5</ele>
        <time>2019-10-11T12:49:48Z</time>
      </trkpt>
      <trkpt lat="47.09635" lon="-1.28543">
        <ele>18.3</ele>
        <time>2019-10-11T12:49:49Z</time>
      </trkpt>
      <trkpt lat="47.09632" lon="-1.28542">
        <ele>18.1</ele>
        <time>2019-10-11T12:49:50Z</time>
      </trkpt>
      <trkpt lat="47.09627" lon="-1.28542">
        <ele>17.8</ele>
        <time>2019-10-11T12:49:51Z</time>
      </trkpt>
      <trkpt lat="47.09623" lon="-1.28542">
        <ele>17.5</ele>
        <time>2019-10-11T12:49:52Z</time>
      </trkpt>
      <trkpt lat="47.09619" lon="-1.28543">
        <ele>17.1</ele>
        <time>2019-10-11T12:49:53Z</time>
      </trkpt>
      <trkpt lat="47.09613" lon="-1.28544">
        <ele>16.6</ele>
        <time>2019-10-11T12:49:54Z</time>
      </trkpt>
      <trkpt lat="47.09607" lon="-1.28544">
        <ele>16</ele>
        <time>2019-10-11T12:49:55Z</time>
      </trkpt>
      <trkpt lat="47.096" lon="-1.28543">
        <ele>15.4</ele>
        <time>2019-10-11T12:49:56Z</time>
      </trkpt>
      <trkpt lat="47.09596" lon="-1.28541">
        <ele>15.8</ele>
        <time>2019-10-11T12:49:57Z</time>
      </trkpt>
      <trkpt lat="47.09592" lon="-1.28537">
        <ele>16.2</ele>
        <time>2019-10-11T12:49:58Z</time>
      </trkpt>
      <trkpt lat="47.09588" lon="-1.28533">
        <ele>16.6</ele>
        <time>2019-10-11T12:49:59Z</time>
      </trkpt>
      <trkpt lat="47.09585" lon="-1.2853">
        <ele>16.8</ele>
        <time>2019-10-11T12:50:00Z</time>
      </trkpt>
      <trkpt lat="47.09582" lon="-1.28527">
        <ele>17</ele>
        <time>2019-10-11T12:50:01Z</time>
      </trkpt>
      <trkpt lat="47.09579" lon="-1.28525">
        <ele>17.2</ele>
        <time>2019-10-11T12:50:02Z</time>
      </trkpt>
      <trkpt lat="47.09575" lon="-1.28522">
        <ele>17.4</ele>
        <time>2019-10-11T12:50:03Z</time>
      </trkpt>
      <trkpt lat="47.09572" lon="-1.28519">
        <ele>17.6</ele>
        <time>2019-10-11T12:50:04Z</time>
      </trkpt>
      <trkpt lat="47.09569" lon="-1.28516">
        <ele>17.8</ele>
        <time>2019-10-11T12:50:05Z</time>
      </trkpt>
      <trkpt lat="47.09566" lon="-1.28513">
        <ele>17.9</ele>
        <time>2019-10-11T12:50:06Z</time>
      </trkpt>
      <trkpt lat="47.09563" lon="-1.2851">
        <ele>18.1</ele>
        <time>2019-10-11T12:50:07Z</time>
      </trkpt>
      <trkpt lat="47.0956" lon="-1.28507">
        <ele>18.2</ele>
        <time>2019-10-11T12:50:08Z</time>
      </trkpt>
      <trkpt lat="47.09557" lon="-1.28505">
        <ele>18.3</ele>
        <time>2019-10-11T12:50:09Z</time>
      </trkpt>
      <trkpt lat="47.09555" lon="-1.28502">
        <ele>18.3</ele>
        <time>2019-10-11T12:50:10Z</time>
      </trkpt>
      <trkpt lat="47.09553" lon="-1.28498">
        <ele>18.4</ele>
        <time>2019-10-11T12:50:11Z</time>
      </trkpt>
      <trkpt lat="47.0955" lon="-1.28495">
        <ele>18.5</ele>
        <time>2019-10-11T12:50:12Z</time>
      </trkpt>
      <trkpt lat="47.09548" lon="-1.28492">
        <ele>18.5</ele>
        <time>2019-10-11T12:50:13Z</time>
      </trkpt>
      <trkpt lat="47.09545" lon="-1.2849">
        <ele>18.6</ele>
        <time>2019-10-11T12:50:14Z</time>
      </trkpt>
      <trkpt lat="47.09541" lon="-1.28486">
        <ele>18.7</ele>
        <time>2019-10-11T12:50:15Z</time>
      </trkpt>
      <trkpt lat="47.09537" lon="-1.28485">
        <ele>18.7</ele>
        <time>2019-10-11T12:50:16Z</time>
      </trkpt>
      <trkpt lat="47.09532" lon="-1.28484">
        <ele>18.7</ele>
        <time>2019-10-11T12:50:18Z</time>
      </trkpt>
      <trkpt lat="47.09528" lon="-1.28485">
        <ele>18.6</ele>
        <time>2019-10-11T12:50:19Z</time>
      </trkpt>
      <trkpt lat="47.09522" lon="-1.28485">
        <ele>18.4</ele>
        <time>2019-10-11T12:50:20Z</time>
      </trkpt>
      <trkpt lat="47.09517" lon="-1.28485">
        <ele>18.2</ele>
        <time>2019-10-11T12:50:21Z</time>
      </trkpt>
      <trkpt lat="47.09511" lon="-1.28484">
        <ele>17.9</ele>
        <time>2019-10-11T12:50:22Z</time>
      </trkpt>
      <trkpt lat="47.09506" lon="-1.28483">
        <ele>17.6</ele>
        <time>2019-10-11T12:50:23Z</time>
      </trkpt>
      <trkpt lat="47.09501" lon="-1.28482">
        <ele>17.3</ele>
        <time>2019-10-11T12:50:24Z</time>
      </trkpt>
      <trkpt lat="47.09496" lon="-1.28481">
        <ele>17.1</ele>
        <time>2019-10-11T12:50:25Z</time>
      </trkpt>
      <trkpt lat="47.09491" lon="-1.28479">
        <ele>16.9</ele>
        <time>2019-10-11T12:50:26Z</time>
      </trkpt>
      <trkpt lat="47.09486" lon="-1.28477">
        <ele>16.8</ele>
        <time>2019-10-11T12:50:27Z</time>
      </trkpt>
      <trkpt lat="47.09483" lon="-1.28476">
        <ele>16.7</ele>
        <time>2019-10-11T12:50:28Z</time>
      </trkpt>
      <trkpt lat="47.09479" lon="-1.28475">
        <ele>16.7</ele>
        <time>2019-10-11T12:50:29Z</time>
      </trkpt>
      <trkpt lat="47.09475" lon="-1.28474">
        <ele>16.7</ele>
        <time>2019-10-11T12:50:30Z</time>
      </trkpt>
      <trkpt lat="47.09472" lon="-1.28473">
        <ele>16.7</ele>
        <time>2019-10-11T12:50:31Z</time>
      </trkpt>
      <trkpt lat="47.09468" lon="-1.28473">
        <ele>16.7</ele>
        <time>2019-10-11T12:50:32Z</time>
      </trkpt>
      <trkpt lat="47.09464" lon="-1.28472">
        <ele>16.7</ele>
        <time>2019-10-11T12:50:33Z</time>
      </trkpt>
      <trkpt lat="47.09461" lon="-1.28472">
        <ele>16.7</ele>
        <time>2019-10-11T12:50:34Z</time>
      </trkpt>
      <trkpt lat="47.09457" lon="-1.28471">
        <ele>16.7</ele>
        <time>2019-10-11T12:50:35Z</time>
      </trkpt>
      <trkpt lat="47.09452" lon="-1.2847">
        <ele>16.8</ele>
        <time>2019-10-11T12:50:36Z</time>
      </trkpt>
      <trkpt lat="47.09448" lon="-1.2847">
        <ele>16.8</ele>
        <time>2019-10-11T12:50:37Z</time>
      </trkpt>
      <trkpt lat="47.09445" lon="-1.2847">
        <ele>16.8</ele>
        <time>2019-10-11T12:50:38Z</time>
      </trkpt>
      <trkpt lat="47.09442" lon="-1.28469">
        <ele>16.8</ele>
        <time>2019-10-11T12:50:39Z</time>
      </trkpt>
      <trkpt lat="47.09437" lon="-1.28466">
        <ele>16.9</ele>
        <time>2019-10-11T12:50:40Z</time>
      </trkpt>
      <trkpt lat="47.09432" lon="-1.28465">
        <ele>17.1</ele>
        <time>2019-10-11T12:50:41Z</time>
      </trkpt>
      <trkpt lat="47.09427" lon="-1.28463">
        <ele>17.3</ele>
        <time>2019-10-11T12:50:42Z</time>
      </trkpt>
      <trkpt lat="47.09421" lon="-1.28459">
        <ele>17.7</ele>
        <time>2019-10-11T12:50:43Z</time>
      </trkpt>
      <trkpt lat="47.09415" lon="-1.28455">
        <ele>18.1</ele>
        <time>2019-10-11T12:50:44Z</time>
      </trkpt>
      <trkpt lat="47.09411" lon="-1.28452">
        <ele>18.4</ele>
        <time>2019-10-11T12:50:45Z</time>
      </trkpt>
      <trkpt lat="47.09406" lon="-1.2845">
        <ele>18.7</ele>
        <time>2019-10-11T12:50:46Z</time>
      </trkpt>
      <trkpt lat="47.09403" lon="-1.28447">
        <ele>18.7</ele>
        <time>2019-10-11T12:50:47Z</time>
      </trkpt>
      <trkpt lat="47.09399" lon="-1.28445">
        <ele>18.7</ele>
        <time>2019-10-11T12:50:48Z</time>
      </trkpt>
      <trkpt lat="47.09393" lon="-1.28443">
        <ele>18.7</ele>
        <time>2019-10-11T12:50:49Z</time>
      </trkpt>
      <trkpt lat="47.09389" lon="-1.28441">
        <ele>18.7</ele>
        <time>2019-10-11T12:50:50Z</time>
      </trkpt>
      <trkpt lat="47.09384" lon="-1.28438">
        <ele>18.7</ele>
        <time>2019-10-11T12:50:51Z</time>
      </trkpt>
      <trkpt lat="47.0938" lon="-1.28436">
        <ele>18.7</ele>
        <time>2019-10-11T12:50:52Z</time>
      </trkpt>
      <trkpt lat="47.09376" lon="-1.28434">
        <ele>18.7</ele>
        <time>2019-10-11T12:50:53Z</time>
      </trkpt>
      <trkpt lat="47.09372" lon="-1.28432">
        <ele>18.7</ele>
        <time>2019-10-11T12:50:54Z</time>
      </trkpt>
      <trkpt lat="47.09368" lon="-1.28429">
        <ele>18.7</ele>
        <time>2019-10-11T12:50:55Z</time>
      </trkpt>
      <trkpt lat="47.09365" lon="-1.28427">
        <ele>18.7</ele>
        <time>2019-10-11T12:50:56Z</time>
      </trkpt>
      <trkpt lat="47.09361" lon="-1.28425">
        <ele>18.7</ele>
        <time>2019-10-11T12:50:57Z</time>
      </trkpt>
      <trkpt lat="47.09358" lon="-1.28422">
        <ele>18.6</ele>
        <time>2019-10-11T12:50:58Z</time>
      </trkpt>
      <trkpt lat="47.09354" lon="-1.28419">
        <ele>18.6</ele>
        <time>2019-10-11T12:50:59Z</time>
      </trkpt>
      <trkpt lat="47.0935" lon="-1.28416">
        <ele>18.6</ele>
        <time>2019-10-11T12:51:00Z</time>
      </trkpt>
      <trkpt lat="47.09346" lon="-1.28413">
        <ele>18.5</ele>
        <time>2019-10-11T12:51:01Z</time>
      </trkpt>
      <trkpt lat="47.09342" lon="-1.2841">
        <ele>18.5</ele>
        <time>2019-10-11T12:51:02Z</time>
      </trkpt>
      <trkpt lat="47.09338" lon="-1.28405">
        <ele>18.5</ele>
        <time>2019-10-11T12:51:03Z</time>
      </trkpt>
      <trkpt lat="47.09334" lon="-1.284">
        <ele>18.4</ele>
        <time>2019-10-11T12:51:04Z</time>
      </trkpt>
      <trkpt lat="47.0933" lon="-1.28395">
        <ele>18.3</ele>
        <time>2019-10-11T12:51:05Z</time>
      </trkpt>
      <trkpt lat="47.09327" lon="-1.2839">
        <ele>18.2</ele>
        <time>2019-10-11T12:51:06Z</time>
      </trkpt>
      <trkpt lat="47.09323" lon="-1.28385">
        <ele>18.2</ele>
        <time>2019-10-11T12:51:07Z</time>
      </trkpt>
      <trkpt lat="47.09321" lon="-1.28379">
        <ele>18.1</ele>
        <time>2019-10-11T12:51:08Z</time>
      </trkpt>
      <trkpt lat="47.09318" lon="-1.28374">
        <ele>18.1</ele>
        <time>2019-10-11T12:51:09Z</time>
      </trkpt>
      <trkpt lat="47.09314" lon="-1.28369">
        <ele>18.1</ele>
        <time>2019-10-11T12:51:10Z</time>
      </trkpt>
      <trkpt lat="47.09311" lon="-1.28365">
        <ele>18.1</ele>
        <time>2019-10-11T12:51:11Z</time>
      </trkpt>
      <trkpt lat="47.09308" lon="-1.2836">
        <ele>18.1</ele>
        <time>2019-10-11T12:51:12Z</time>
      </trkpt>
      <trkpt lat="47.09305" lon="-1.28356">
        <ele>18.1</ele>
        <time>2019-10-11T12:51:13Z</time>
      </trkpt>
      <trkpt lat="47.09302" lon="-1.28352">
        <ele>18.1</ele>
        <time>2019-10-11T12:51:14Z</time>
      </trkpt>
      <trkpt lat="47.09298" lon="-1.28348">
        <ele>18.1</ele>
        <time>2019-10-11T12:51:15Z</time>
      </trkpt>
      <trkpt lat="47.09295" lon="-1.28344">
        <ele>18.2</ele>
        <time>2019-10-11T12:51:16Z</time>
      </trkpt>
      <trkpt lat="47.09292" lon="-1.28341">
        <ele>18.2</ele>
        <time>2019-10-11T12:51:17Z</time>
      </trkpt>
      <trkpt lat="47.09289" lon="-1.28338">
        <ele>18.3</ele>
        <time>2019-10-11T12:51:18Z</time>
      </trkpt>
      <trkpt lat="47.09286" lon="-1.28334">
        <ele>18.3</ele>
        <time>2019-10-11T12:51:19Z</time>
      </trkpt>
      <trkpt lat="47.09283" lon="-1.2833">
        <ele>18.4</ele>
        <time>2019-10-11T12:51:20Z</time>
      </trkpt>
      <trkpt lat="47.0928" lon="-1.28327">
        <ele>18.4</ele>
        <time>2019-10-11T12:51:21Z</time>
      </trkpt>
      <trkpt lat="47.09277" lon="-1.28324">
        <ele>18.5</ele>
        <time>2019-10-11T12:51:22Z</time>
      </trkpt>
      <trkpt lat="47.09274" lon="-1.28321">
        <ele>18.5</ele>
        <time>2019-10-11T12:51:23Z</time>
      </trkpt>
      <trkpt lat="47.09271" lon="-1.28318">
        <ele>18.6</ele>
        <time>2019-10-11T12:51:24Z</time>
      </trkpt>
      <trkpt lat="47.09268" lon="-1.28316">
        <ele>18.6</ele>
        <time>2019-10-11T12:51:25Z</time>
      </trkpt>
      <trkpt lat="47.09265" lon="-1.28313">
        <ele>18.7</ele>
        <time>2019-10-11T12:51:26Z</time>
      </trkpt>
      <trkpt lat="47.09263" lon="-1.2831">
        <ele>18.7</ele>
        <time>2019-10-11T12:51:27Z</time>
      </trkpt>
      <trkpt lat="47.0926" lon="-1.28308">
        <ele>18.8</ele>
        <time>2019-10-11T12:51:28Z</time>
      </trkpt>
      <trkpt lat="47.09257" lon="-1.28306">
        <ele>18.8</ele>
        <time>2019-10-11T12:51:29Z</time>
      </trkpt>
      <trkpt lat="47.09255" lon="-1.28304">
        <ele>18.8</ele>
        <time>2019-10-11T12:51:30Z</time>
      </trkpt>
      <trkpt lat="47.09252" lon="-1.28302">
        <ele>18.9</ele>
        <time>2019-10-11T12:51:31Z</time>
      </trkpt>
      <trkpt lat="47.0925" lon="-1.283">
        <ele>18.9</ele>
        <time>2019-10-11T12:51:32Z</time>
      </trkpt>
      <trkpt lat="47.09247" lon="-1.28298">
        <ele>18.9</ele>
        <time>2019-10-11T12:51:33Z</time>
      </trkpt>
      <trkpt lat="47.09244" lon="-1.28296">
        <ele>18.9</ele>
        <time>2019-10-11T12:51:34Z</time>
      </trkpt>
      <trkpt lat="47.09242" lon="-1.28293">
        <ele>18.9</ele>
        <time>2019-10-11T12:51:35Z</time>
      </trkpt>
      <trkpt lat="47.0924" lon="-1.2829">
        <ele>19</ele>
        <time>2019-10-11T12:51:36Z</time>
      </trkpt>
      <trkpt lat="47.09237" lon="-1.28287">
        <ele>19</ele>
        <time>2019-10-11T12:51:37Z</time>
      </trkpt>
      <trkpt lat="47.09234" lon="-1.28284">
        <ele>19</ele>
        <time>2019-10-11T12:51:38Z</time>
      </trkpt>
      <trkpt lat="47.09231" lon="-1.28281">
        <ele>19</ele>
        <time>2019-10-11T12:51:39Z</time>
      </trkpt>
      <trkpt lat="47.09228" lon="-1.28279">
        <ele>19</ele>
        <time>2019-10-11T12:51:40Z</time>
      </trkpt>
      <trkpt lat="47.09225" lon="-1.28276">
        <ele>19</ele>
        <time>2019-10-11T12:51:41Z</time>
      </trkpt>
      <trkpt lat="47.09223" lon="-1.28273">
        <ele>19</ele>
        <time>2019-10-11T12:51:42Z</time>
      </trkpt>
      <trkpt lat="47.09221" lon="-1.2827">
        <ele>19</ele>
        <time>2019-10-11T12:51:43Z</time>
      </trkpt>
      <trkpt lat="47.09219" lon="-1.28267">
        <ele>19</ele>
        <time>2019-10-11T12:51:44Z</time>
      </trkpt>
      <trkpt lat="47.09217" lon="-1.28264">
        <ele>19</ele>
        <time>2019-10-11T12:51:45Z</time>
      </trkpt>
      <trkpt lat="47.09214" lon="-1.28259">
        <ele>19.1</ele>
        <time>2019-10-11T12:51:47Z</time>
      </trkpt>
      <trkpt lat="47.09211" lon="-1.28253">
        <ele>19.1</ele>
        <time>2019-10-11T12:51:49Z</time>
      </trkpt>
      <trkpt lat="47.0921" lon="-1.28249">
        <ele>19.1</ele>
        <time>2019-10-11T12:51:50Z</time>
      </trkpt>
      <trkpt lat="47.09209" lon="-1.28245">
        <ele>19.1</ele>
        <time>2019-10-11T12:51:51Z</time>
      </trkpt>
      <trkpt lat="47.09208" lon="-1.28241">
        <ele>19.1</ele>
        <time>2019-10-11T12:51:52Z</time>
      </trkpt>
      <trkpt lat="47.09206" lon="-1.28234">
        <ele>19.7</ele>
        <time>2019-10-11T12:51:54Z</time>
      </trkpt>
      <trkpt lat="47.09205" lon="-1.28228">
        <ele>20.2</ele>
        <time>2019-10-11T12:51:56Z</time>
      </trkpt>
      <trkpt lat="47.09205" lon="-1.28223">
        <ele>20.4</ele>
        <time>2019-10-11T12:51:58Z</time>
      </trkpt>
      <trkpt lat="47.09205" lon="-1.28216">
        <ele>20.8</ele>
        <time>2019-10-11T12:52:00Z</time>
      </trkpt>
      <trkpt lat="47.09205" lon="-1.2821">
        <ele>21.1</ele>
        <time>2019-10-11T12:52:02Z</time>
      </trkpt>
      <trkpt lat="47.09206" lon="-1.28205">
        <ele>21.3</ele>
        <time>2019-10-11T12:52:04Z</time>
      </trkpt>
      <trkpt lat="47.09208" lon="-1.282">
        <ele>21.6</ele>
        <time>2019-10-11T12:52:06Z</time>
      </trkpt>
      <trkpt lat="47.09208" lon="-1.28196">
        <ele>21.8</ele>
        <time>2019-10-11T12:52:08Z</time>
      </trkpt>
      <trkpt lat="47.0921" lon="-1.28192">
        <ele>22</ele>
        <time>2019-10-11T12:52:10Z</time>
      </trkpt>
      <trkpt lat="47.09212" lon="-1.28188">
        <ele>22.3</ele>
        <time>2019-10-11T12:52:12Z</time>
      </trkpt>
      <trkpt lat="47.09214" lon="-1.28183">
        <ele>22.6</ele>
        <time>2019-10-11T12:52:14Z</time>
      </trkpt>
      <trkpt lat="47.09217" lon="-1.28176">
        <ele>23</ele>
        <time>2019-10-11T12:52:16Z</time>
      </trkpt>
      <trkpt lat="47.09219" lon="-1.28171">
        <ele>23.4</ele>
        <time>2019-10-11T12:52:18Z</time>
      </trkpt>
      <trkpt lat="47.0922" lon="-1.28165">
        <ele>23.7</ele>
        <time>2019-10-11T12:52:20Z</time>
      </trkpt>
      <trkpt lat="47.0922" lon="-1.2816">
        <ele>24</ele>
        <time>2019-10-11T12:52:22Z</time>
      </trkpt>
      <trkpt lat="47.09221" lon="-1.28154">
        <ele>24.3</ele>
        <time>2019-10-11T12:52:24Z</time>
      </trkpt>
      <trkpt lat="47.09218" lon="-1.2815">
        <ele>24.8</ele>
        <time>2019-10-11T12:52:26Z</time>
      </trkpt>
      <trkpt lat="47.09214" lon="-1.28152">
        <ele>25.3</ele>
        <time>2019-10-11T12:52:28Z</time>
      </trkpt>
      <trkpt lat="47.09211" lon="-1.28155">
        <ele>25.3</ele>
        <time>2019-10-11T12:52:29Z</time>
      </trkpt>
      <trkpt lat="47.09209" lon="-1.28157">
        <ele>25.2</ele>
        <time>2019-10-11T12:52:30Z</time>
      </trkpt>
      <trkpt lat="47.09206" lon="-1.2816">
        <ele>25.1</ele>
        <time>2019-10-11T12:52:31Z</time>
      </trkpt>
      <trkpt lat="47.09203" lon="-1.28163">
        <ele>25.1</ele>
        <time>2019-10-11T12:52:32Z</time>
      </trkpt>
      <trkpt lat="47.092" lon="-1.28165">
        <ele>25</ele>
        <time>2019-10-11T12:52:33Z</time>
      </trkpt>
      <trkpt lat="47.09197" lon="-1.28167">
        <ele>24.9</ele>
        <time>2019-10-11T12:52:34Z</time>
      </trkpt>
      <trkpt lat="47.09193" lon="-1.28169">
        <ele>24.8</ele>
        <time>2019-10-11T12:52:35Z</time>
      </trkpt>
      <trkpt lat="47.09189" lon="-1.2817">
        <ele>24.7</ele>
        <time>2019-10-11T12:52:36Z</time>
      </trkpt>
      <trkpt lat="47.09185" lon="-1.2817">
        <ele>24.6</ele>
        <time>2019-10-11T12:52:37Z</time>
      </trkpt>
      <trkpt lat="47.09181" lon="-1.28169">
        <ele>24.5</ele>
        <time>2019-10-11T12:52:38Z</time>
      </trkpt>
      <trkpt lat="47.09177" lon="-1.28168">
        <ele>24.4</ele>
        <time>2019-10-11T12:52:39Z</time>
      </trkpt>
      <trkpt lat="47.09172" lon="-1.28165">
        <ele>24.3</ele>
        <time>2019-10-11T12:52:40Z</time>
      </trkpt>
      <trkpt lat="47.09168" lon="-1.28162">
        <ele>24.2</ele>
        <time>2019-10-11T12:52:41Z</time>
      </trkpt>
      <trkpt lat="47.09163" lon="-1.28159">
        <ele>24.1</ele>
        <time>2019-10-11T12:52:42Z</time>
      </trkpt>
      <trkpt lat="47.09159" lon="-1.28155">
        <ele>24</ele>
        <time>2019-10-11T12:52:43Z</time>
      </trkpt>
      <trkpt lat="47.09155" lon="-1.28151">
        <ele>23.9</ele>
        <time>2019-10-11T12:52:44Z</time>
      </trkpt>
      <trkpt lat="47.09151" lon="-1.28147">
        <ele>23.8</ele>
        <time>2019-10-11T12:52:45Z</time>
      </trkpt>
      <trkpt lat="47.09146" lon="-1.28142">
        <ele>23.6</ele>
        <time>2019-10-11T12:52:46Z</time>
      </trkpt>
      <trkpt lat="47.09142" lon="-1.28138">
        <ele>23.5</ele>
        <time>2019-10-11T12:52:47Z</time>
      </trkpt>
      <trkpt lat="47.09137" lon="-1.28134">
        <ele>23.4</ele>
        <time>2019-10-11T12:52:48Z</time>
      </trkpt>
      <trkpt lat="47.09132" lon="-1.28129">
        <ele>23.4</ele>
        <time>2019-10-11T12:52:49Z</time>
      </trkpt>
      <trkpt lat="47.09126" lon="-1.28124">
        <ele>23.7</ele>
        <time>2019-10-11T12:52:50Z</time>
      </trkpt>
      <trkpt lat="47.09121" lon="-1.28119">
        <ele>24</ele>
        <time>2019-10-11T12:52:51Z</time>
      </trkpt>
      <trkpt lat="47.09115" lon="-1.28114">
        <ele>24.2</ele>
        <time>2019-10-11T12:52:52Z</time>
      </trkpt>
      <trkpt lat="47.09109" lon="-1.28111">
        <ele>24.5</ele>
        <time>2019-10-11T12:52:53Z</time>
      </trkpt>
      <trkpt lat="47.09103" lon="-1.28108">
        <ele>24.8</ele>
        <time>2019-10-11T12:52:54Z</time>
      </trkpt>
      <trkpt lat="47.09096" lon="-1.28109">
        <ele>25</ele>
        <time>2019-10-11T12:52:55Z</time>
      </trkpt>
      <trkpt lat="47.09089" lon="-1.28111">
        <ele>24.9</ele>
        <time>2019-10-11T12:52:56Z</time>
      </trkpt>
      <trkpt lat="47.09083" lon="-1.28116">
        <ele>24.8</ele>
        <time>2019-10-11T12:52:57Z</time>
      </trkpt>
      <trkpt lat="47.09078" lon="-1.28122">
        <ele>24</ele>
        <time>2019-10-11T12:52:58Z</time>
      </trkpt>
      <trkpt lat="47.09074" lon="-1.28129">
        <ele>22.5</ele>
        <time>2019-10-11T12:52:59Z</time>
      </trkpt>
      <trkpt lat="47.0907" lon="-1.28136">
        <ele>20.6</ele>
        <time>2019-10-11T12:53:00Z</time>
      </trkpt>
      <trkpt lat="47.09067" lon="-1.28143">
        <ele>18.7</ele>
        <time>2019-10-11T12:53:01Z</time>
      </trkpt>
      <trkpt lat="47.09064" lon="-1.28151">
        <ele>18</ele>
        <time>2019-10-11T12:53:02Z</time>
      </trkpt>
      <trkpt lat="47.09062" lon="-1.28158">
        <ele>17.9</ele>
        <time>2019-10-11T12:53:03Z</time>
      </trkpt>
      <trkpt lat="47.09059" lon="-1.28165">
        <ele>17.8</ele>
        <time>2019-10-11T12:53:04Z</time>
      </trkpt>
      <trkpt lat="47.09057" lon="-1.28172">
        <ele>17.7</ele>
        <time>2019-10-11T12:53:05Z</time>
      </trkpt>
      <trkpt lat="47.09054" lon="-1.28179">
        <ele>17.7</ele>
        <time>2019-10-11T12:53:06Z</time>
      </trkpt>
      <trkpt lat="47.09051" lon="-1.28187">
        <ele>17.6</ele>
        <time>2019-10-11T12:53:07Z</time>
      </trkpt>
      <trkpt lat="47.09048" lon="-1.28194">
        <ele>17.6</ele>
        <time>2019-10-11T12:53:08Z</time>
      </trkpt>
      <trkpt lat="47.09046" lon="-1.28202">
        <ele>17.5</ele>
        <time>2019-10-11T12:53:09Z</time>
      </trkpt>
      <trkpt lat="47.09043" lon="-1.2821">
        <ele>17.5</ele>
        <time>2019-10-11T12:53:10Z</time>
      </trkpt>
      <trkpt lat="47.0904" lon="-1.28217">
        <ele>17.4</ele>
        <time>2019-10-11T12:53:11Z</time>
      </trkpt>
      <trkpt lat="47.09037" lon="-1.28225">
        <ele>17.7</ele>
        <time>2019-10-11T12:53:12Z</time>
      </trkpt>
      <trkpt lat="47.09035" lon="-1.28233">
        <ele>18.1</ele>
        <time>2019-10-11T12:53:13Z</time>
      </trkpt>
      <trkpt lat="47.09032" lon="-1.2824">
        <ele>18.6</ele>
        <time>2019-10-11T12:53:14Z</time>
      </trkpt>
      <trkpt lat="47.0903" lon="-1.28247">
        <ele>19</ele>
        <time>2019-10-11T12:53:15Z</time>
      </trkpt>
      <trkpt lat="47.09027" lon="-1.28254">
        <ele>19.4</ele>
        <time>2019-10-11T12:53:16Z</time>
      </trkpt>
      <trkpt lat="47.09024" lon="-1.2826">
        <ele>19.7</ele>
        <time>2019-10-11T12:53:17Z</time>
      </trkpt>
      <trkpt lat="47.09023" lon="-1.28264">
        <ele>19.9</ele>
        <time>2019-10-11T12:53:18Z</time>
      </trkpt>
      <trkpt lat="47.09021" lon="-1.2827">
        <ele>20.2</ele>
        <time>2019-10-11T12:53:20Z</time>
      </trkpt>
      <trkpt lat="47.0902" lon="-1.28274">
        <ele>20.4</ele>
        <time>2019-10-11T12:53:22Z</time>
      </trkpt>
      <trkpt lat="47.09018" lon="-1.28278">
        <ele>20.7</ele>
        <time>2019-10-11T12:53:31Z</time>
      </trkpt>
      <trkpt lat="47.09015" lon="-1.28274">
        <ele>20.9</ele>
        <time>2019-10-11T12:53:34Z</time>
      </trkpt>
      <trkpt lat="47.09013" lon="-1.28268">
        <ele>21.3</ele>
        <time>2019-10-11T12:54:10Z</time>
      </trkpt>
      <trkpt lat="47.0901" lon="-1.28264">
        <ele>21.5</ele>
        <time>2019-10-11T12:54:13Z</time>
      </trkpt>
      <trkpt lat="47.09007" lon="-1.28261">
        <ele>21.7</ele>
        <time>2019-10-11T12:54:15Z</time>
      </trkpt>
      <trkpt lat="47.09004" lon="-1.28259">
        <ele>21.8</ele>
        <time>2019-10-11T12:54:17Z</time>
      </trkpt>
      <trkpt lat="47.09002" lon="-1.28258">
        <ele>22</ele>
        <time>2019-10-11T12:54:19Z</time>
      </trkpt>
      <trkpt lat="47.08998" lon="-1.28256">
        <ele>22.2</ele>
        <time>2019-10-11T12:54:22Z</time>
      </trkpt>
      <trkpt lat="47.08994" lon="-1.28255">
        <ele>22.4</ele>
        <time>2019-10-11T12:54:24Z</time>
      </trkpt>
      <trkpt lat="47.08988" lon="-1.28255">
        <ele>22.6</ele>
        <time>2019-10-11T12:54:26Z</time>
      </trkpt>
      <trkpt lat="47.08985" lon="-1.28256">
        <ele>22.8</ele>
        <time>2019-10-11T12:54:27Z</time>
      </trkpt>
      <trkpt lat="47.08981" lon="-1.2826">
        <ele>23.1</ele>
        <time>2019-10-11T12:54:29Z</time>
      </trkpt>
      <trkpt lat="47.08979" lon="-1.28265">
        <ele>23.3</ele>
        <time>2019-10-11T12:54:31Z</time>
      </trkpt>
      <trkpt lat="47.08977" lon="-1.28269">
        <ele>23.4</ele>
        <time>2019-10-11T12:54:33Z</time>
      </trkpt>
      <trkpt lat="47.08975" lon="-1.28274">
        <ele>23.6</ele>
        <time>2019-10-11T12:54:35Z</time>
      </trkpt>
      <trkpt lat="47.08973" lon="-1.28278">
        <ele>23.8</ele>
        <time>2019-10-11T12:54:37Z</time>
      </trkpt>
      <trkpt lat="47.08971" lon="-1.28282">
        <ele>24</ele>
        <time>2019-10-11T12:54:39Z</time>
      </trkpt>
      <trkpt lat="47.08969" lon="-1.28286">
        <ele>24.1</ele>
        <time>2019-10-11T12:54:41Z</time>
      </trkpt>
      <trkpt lat="47.08968" lon="-1.2829">
        <ele>24.3</ele>
        <time>2019-10-11T12:55:06Z</time>
      </trkpt>
      <trkpt lat="47.0897" lon="-1.28293">
        <ele>24.4</ele>
        <time>2019-10-11T12:55:10Z</time>
      </trkpt>
      <trkpt lat="47.08971" lon="-1.28287">
        <ele>24.6</ele>
        <time>2019-10-11T12:57:11Z</time>
      </trkpt>
      <trkpt lat="47.08967" lon="-1.28285">
        <ele>24.8</ele>
        <time>2019-10-11T12:57:14Z</time>
      </trkpt>
      <trkpt lat="47.08963" lon="-1.28282">
        <ele>25</ele>
        <time>2019-10-11T12:57:16Z</time>
      </trkpt>
      <trkpt lat="47.08959" lon="-1.2828">
        <ele>25.8</ele>
        <time>2019-10-11T12:57:18Z</time>
      </trkpt>
      <trkpt lat="47.08955" lon="-1.28279">
        <ele>26</ele>
        <time>2019-10-11T12:57:20Z</time>
      </trkpt>
      <trkpt lat="47.08952" lon="-1.28278">
        <ele>26.2</ele>
        <time>2019-10-11T12:57:22Z</time>
      </trkpt>
      <trkpt lat="47.08948" lon="-1.28277">
        <ele>26.5</ele>
        <time>2019-10-11T12:57:24Z</time>
      </trkpt>
      <trkpt lat="47.08943" lon="-1.28276">
        <ele>26.7</ele>
        <time>2019-10-11T12:57:26Z</time>
      </trkpt>
      <trkpt lat="47.08938" lon="-1.28275">
        <ele>27</ele>
        <time>2019-10-11T12:57:28Z</time>
      </trkpt>
      <trkpt lat="47.08935" lon="-1.28274">
        <ele>27.2</ele>
        <time>2019-10-11T12:57:29Z</time>
      </trkpt>
      <trkpt lat="47.0893" lon="-1.28276">
        <ele>27.3</ele>
        <time>2019-10-11T12:57:31Z</time>
      </trkpt>
      <trkpt lat="47.08925" lon="-1.28275">
        <ele>27.4</ele>
        <time>2019-10-11T12:57:33Z</time>
      </trkpt>
      <trkpt lat="47.08921" lon="-1.28272">
        <ele>27.4</ele>
        <time>2019-10-11T12:57:35Z</time>
      </trkpt>
      <trkpt lat="47.08918" lon="-1.28272">
        <ele>28</ele>
        <time>2019-10-11T12:57:36Z</time>
      </trkpt>
      <trkpt lat="47.08915" lon="-1.28271">
        <ele>28.4</ele>
        <time>2019-10-11T12:57:37Z</time>
      </trkpt>
      <trkpt lat="47.08912" lon="-1.28271">
        <ele>28.7</ele>
        <time>2019-10-11T12:57:38Z</time>
      </trkpt>
      <trkpt lat="47.08909" lon="-1.28272">
        <ele>29.1</ele>
        <time>2019-10-11T12:57:39Z</time>
      </trkpt>
      <trkpt lat="47.08906" lon="-1.28274">
        <ele>29.5</ele>
        <time>2019-10-11T12:57:40Z</time>
      </trkpt>
      <trkpt lat="47.08904" lon="-1.28275">
        <ele>29.9</ele>
        <time>2019-10-11T12:57:41Z</time>
      </trkpt>
      <trkpt lat="47.08901" lon="-1.28277">
        <ele>30.3</ele>
        <time>2019-10-11T12:57:42Z</time>
      </trkpt>
      <trkpt lat="47.08899" lon="-1.28279">
        <ele>30.8</ele>
        <time>2019-10-11T12:57:43Z</time>
      </trkpt>
      <trkpt lat="47.08897" lon="-1.28282">
        <ele>31.2</ele>
        <time>2019-10-11T12:57:44Z</time>
      </trkpt>
      <trkpt lat="47.08893" lon="-1.28288">
        <ele>32.1</ele>
        <time>2019-10-11T12:57:46Z</time>
      </trkpt>
      <trkpt lat="47.08892" lon="-1.28291">
        <ele>32.5</ele>
        <time>2019-10-11T12:57:47Z</time>
      </trkpt>
      <trkpt lat="47.08888" lon="-1.28297">
        <ele>33.3</ele>
        <time>2019-10-11T12:57:49Z</time>
      </trkpt>
      <trkpt lat="47.08885" lon="-1.28303">
        <ele>34</ele>
        <time>2019-10-11T12:57:51Z</time>
      </trkpt>
      <trkpt lat="47.08882" lon="-1.28308">
        <ele>34.6</ele>
        <time>2019-10-11T12:57:53Z</time>
      </trkpt>
      <trkpt lat="47.08879" lon="-1.28313">
        <ele>35.1</ele>
        <time>2019-10-11T12:57:55Z</time>
      </trkpt>
      <trkpt lat="47.08877" lon="-1.28317">
        <ele>35.6</ele>
        <time>2019-10-11T12:57:57Z</time>
      </trkpt>
      <trkpt lat="47.08874" lon="-1.28321">
        <ele>35.9</ele>
        <time>2019-10-11T12:57:59Z</time>
      </trkpt>
      <trkpt lat="47.08871" lon="-1.28324">
        <ele>36.4</ele>
        <time>2019-10-11T12:58:04Z</time>
      </trkpt>
      <trkpt lat="47.08868" lon="-1.28322">
        <ele>36.9</ele>
        <time>2019-10-11T12:58:06Z</time>
      </trkpt>
      <trkpt lat="47.08865" lon="-1.28321">
        <ele>36.9</ele>
        <time>2019-10-11T12:58:09Z</time>
      </trkpt>
      <trkpt lat="47.08862" lon="-1.28318">
        <ele>36.8</ele>
        <time>2019-10-11T12:58:11Z</time>
      </trkpt>
      <trkpt lat="47.0886" lon="-1.28315">
        <ele>36.7</ele>
        <time>2019-10-11T12:58:12Z</time>
      </trkpt>
      <trkpt lat="47.08856" lon="-1.28312">
        <ele>36.7</ele>
        <time>2019-10-11T12:58:13Z</time>
      </trkpt>
      <trkpt lat="47.08854" lon="-1.2831">
        <ele>36.6</ele>
        <time>2019-10-11T12:58:14Z</time>
      </trkpt>
      <trkpt lat="47.08852" lon="-1.28306">
        <ele>36.6</ele>
        <time>2019-10-11T12:58:15Z</time>
      </trkpt>
      <trkpt lat="47.0885" lon="-1.28303">
        <ele>36.5</ele>
        <time>2019-10-11T12:58:16Z</time>
      </trkpt>
      <trkpt lat="47.08847" lon="-1.283">
        <ele>36.4</ele>
        <time>2019-10-11T12:58:17Z</time>
      </trkpt>
      <trkpt lat="47.08844" lon="-1.28299">
        <ele>36.4</ele>
        <time>2019-10-11T12:58:18Z</time>
      </trkpt>
      <trkpt lat="47.08841" lon="-1.28297">
        <ele>36.3</ele>
        <time>2019-10-11T12:58:19Z</time>
      </trkpt>
      <trkpt lat="47.08838" lon="-1.28296">
        <ele>36.3</ele>
        <time>2019-10-11T12:58:20Z</time>
      </trkpt>
      <trkpt lat="47.08835" lon="-1.28294">
        <ele>36.4</ele>
        <time>2019-10-11T12:58:21Z</time>
      </trkpt>
      <trkpt lat="47.08831" lon="-1.28293">
        <ele>36.6</ele>
        <time>2019-10-11T12:58:22Z</time>
      </trkpt>
      <trkpt lat="47.08828" lon="-1.28291">
        <ele>36.7</ele>
        <time>2019-10-11T12:58:23Z</time>
      </trkpt>
      <trkpt lat="47.08825" lon="-1.28289">
        <ele>36.8</ele>
        <time>2019-10-11T12:58:24Z</time>
      </trkpt>
      <trkpt lat="47.08823" lon="-1.28287">
        <ele>36.7</ele>
        <time>2019-10-11T12:58:25Z</time>
      </trkpt>
      <trkpt lat="47.0882" lon="-1.28286">
        <ele>36.7</ele>
        <time>2019-10-11T12:58:26Z</time>
      </trkpt>
      <trkpt lat="47.08816" lon="-1.28284">
        <ele>36.5</ele>
        <time>2019-10-11T12:58:28Z</time>
      </trkpt>
      <trkpt lat="47.08813" lon="-1.28281">
        <ele>36.5</ele>
        <time>2019-10-11T12:58:30Z</time>
      </trkpt>
      <trkpt lat="47.0881" lon="-1.28279">
        <ele>36.4</ele>
        <time>2019-10-11T12:58:32Z</time>
      </trkpt>
      <trkpt lat="47.08807" lon="-1.28278">
        <ele>36.4</ele>
        <time>2019-10-11T12:58:34Z</time>
      </trkpt>
      <trkpt lat="47.08804" lon="-1.28276">
        <ele>36.5</ele>
        <time>2019-10-11T12:58:36Z</time>
      </trkpt>
      <trkpt lat="47.088" lon="-1.28274">
        <ele>36.5</ele>
        <time>2019-10-11T12:58:39Z</time>
      </trkpt>
      <trkpt lat="47.08798" lon="-1.28272">
        <ele>36.5</ele>
        <time>2019-10-11T12:58:41Z</time>
      </trkpt>
      <trkpt lat="47.08795" lon="-1.28271">
        <ele>36.6</ele>
        <time>2019-10-11T12:58:43Z</time>
      </trkpt>
      <trkpt lat="47.08792" lon="-1.28269">
        <ele>36.6</ele>
        <time>2019-10-11T12:58:45Z</time>
      </trkpt>
      <trkpt lat="47.08788" lon="-1.28268">
        <ele>36.6</ele>
        <time>2019-10-11T12:58:47Z</time>
      </trkpt>
      <trkpt lat="47.08784" lon="-1.28264">
        <ele>36.7</ele>
        <time>2019-10-11T12:58:49Z</time>
      </trkpt>
      <trkpt lat="47.08781" lon="-1.28261">
        <ele>36.7</ele>
        <time>2019-10-11T12:58:51Z</time>
      </trkpt>
      <trkpt lat="47.08777" lon="-1.28258">
        <ele>36.8</ele>
        <time>2019-10-11T12:58:53Z</time>
      </trkpt>
      <trkpt lat="47.08773" lon="-1.28256">
        <ele>36.7</ele>
        <time>2019-10-11T12:58:55Z</time>
      </trkpt>
      <trkpt lat="47.08769" lon="-1.28255">
        <ele>36.7</ele>
        <time>2019-10-11T12:58:57Z</time>
      </trkpt>
      <trkpt lat="47.08765" lon="-1.28253">
        <ele>37.1</ele>
        <time>2019-10-11T12:58:59Z</time>
      </trkpt>
      <trkpt lat="47.0876" lon="-1.28251">
        <ele>37.4</ele>
        <time>2019-10-11T12:59:01Z</time>
      </trkpt>
      <trkpt lat="47.08758" lon="-1.2825">
        <ele>37.5</ele>
        <time>2019-10-11T12:59:02Z</time>
      </trkpt>
      <trkpt lat="47.08753" lon="-1.28248">
        <ele>37.7</ele>
        <time>2019-10-11T12:59:04Z</time>
      </trkpt>
      <trkpt lat="47.08748" lon="-1.28247">
        <ele>37.9</ele>
        <time>2019-10-11T12:59:06Z</time>
      </trkpt>
      <trkpt lat="47.08744" lon="-1.28247">
        <ele>38.1</ele>
        <time>2019-10-11T12:59:08Z</time>
      </trkpt>
      <trkpt lat="47.0874" lon="-1.28245">
        <ele>38.2</ele>
        <time>2019-10-11T12:59:10Z</time>
      </trkpt>
      <trkpt lat="47.08736" lon="-1.28243">
        <ele>38.3</ele>
        <time>2019-10-11T12:59:12Z</time>
      </trkpt>
      <trkpt lat="47.08734" lon="-1.2824">
        <ele>38.3</ele>
        <time>2019-10-11T12:59:14Z</time>
      </trkpt>
      <trkpt lat="47.08731" lon="-1.28239">
        <ele>38.3</ele>
        <time>2019-10-11T12:59:16Z</time>
      </trkpt>
      <trkpt lat="47.08726" lon="-1.28237">
        <ele>38.3</ele>
        <time>2019-10-11T12:59:18Z</time>
      </trkpt>
      <trkpt lat="47.08721" lon="-1.28236">
        <ele>38.3</ele>
        <time>2019-10-11T12:59:20Z</time>
      </trkpt>
      <trkpt lat="47.08718" lon="-1.28235">
        <ele>38.3</ele>
        <time>2019-10-11T12:59:21Z</time>
      </trkpt>
      <trkpt lat="47.08715" lon="-1.28234">
        <ele>38.3</ele>
        <time>2019-10-11T12:59:22Z</time>
      </trkpt>
      <trkpt lat="47.08713" lon="-1.28233">
        <ele>38.3</ele>
        <time>2019-10-11T12:59:23Z</time>
      </trkpt>
      <trkpt lat="47.0871" lon="-1.28233">
        <ele>38.3</ele>
        <time>2019-10-11T12:59:24Z</time>
      </trkpt>
      <trkpt lat="47.08707" lon="-1.28232">
        <ele>38.3</ele>
        <time>2019-10-11T12:59:25Z</time>
      </trkpt>
      <trkpt lat="47.08705" lon="-1.2823">
        <ele>38.3</ele>
        <time>2019-10-11T12:59:26Z</time>
      </trkpt>
      <trkpt lat="47.08702" lon="-1.28229">
        <ele>38.3</ele>
        <time>2019-10-11T12:59:27Z</time>
      </trkpt>
      <trkpt lat="47.08697" lon="-1.28229">
        <ele>38.4</ele>
        <time>2019-10-11T12:59:29Z</time>
      </trkpt>
      <trkpt lat="47.08693" lon="-1.2823">
        <ele>38.5</ele>
        <time>2019-10-11T12:59:30Z</time>
      </trkpt>
      <trkpt lat="47.0869" lon="-1.28229">
        <ele>38.6</ele>
        <time>2019-10-11T12:59:31Z</time>
      </trkpt>
      <trkpt lat="47.08685" lon="-1.28229">
        <ele>38.7</ele>
        <time>2019-10-11T12:59:32Z</time>
      </trkpt>
      <trkpt lat="47.08682" lon="-1.2823">
        <ele>38.7</ele>
        <time>2019-10-11T12:59:33Z</time>
      </trkpt>
      <trkpt lat="47.08678" lon="-1.28229">
        <ele>38.8</ele>
        <time>2019-10-11T12:59:34Z</time>
      </trkpt>
      <trkpt lat="47.08675" lon="-1.2823">
        <ele>38.9</ele>
        <time>2019-10-11T12:59:35Z</time>
      </trkpt>
      <trkpt lat="47.08671" lon="-1.28229">
        <ele>39</ele>
        <time>2019-10-11T12:59:36Z</time>
      </trkpt>
      <trkpt lat="47.08667" lon="-1.28228">
        <ele>39.1</ele>
        <time>2019-10-11T12:59:37Z</time>
      </trkpt>
      <trkpt lat="47.08664" lon="-1.28228">
        <ele>39.1</ele>
        <time>2019-10-11T12:59:38Z</time>
      </trkpt>
      <trkpt lat="47.08661" lon="-1.28228">
        <ele>39.1</ele>
        <time>2019-10-11T12:59:39Z</time>
      </trkpt>
      <trkpt lat="47.08657" lon="-1.28229">
        <ele>39.1</ele>
        <time>2019-10-11T12:59:40Z</time>
      </trkpt>
      <trkpt lat="47.08654" lon="-1.2823">
        <ele>39.2</ele>
        <time>2019-10-11T12:59:41Z</time>
      </trkpt>
      <trkpt lat="47.08651" lon="-1.2823">
        <ele>39.2</ele>
        <time>2019-10-11T12:59:42Z</time>
      </trkpt>
      <trkpt lat="47.08648" lon="-1.2823">
        <ele>39.2</ele>
        <time>2019-10-11T12:59:43Z</time>
      </trkpt>
      <trkpt lat="47.08645" lon="-1.2823">
        <ele>39.2</ele>
        <time>2019-10-11T12:59:44Z</time>
      </trkpt>
      <trkpt lat="47.08641" lon="-1.28229">
        <ele>39.2</ele>
        <time>2019-10-11T12:59:45Z</time>
      </trkpt>
      <trkpt lat="47.08638" lon="-1.28229">
        <ele>39.1</ele>
        <time>2019-10-11T12:59:46Z</time>
      </trkpt>
      <trkpt lat="47.08634" lon="-1.28229">
        <ele>39.1</ele>
        <time>2019-10-11T12:59:47Z</time>
      </trkpt>
      <trkpt lat="47.08631" lon="-1.28229">
        <ele>39.1</ele>
        <time>2019-10-11T12:59:48Z</time>
      </trkpt>
      <trkpt lat="47.08627" lon="-1.28228">
        <ele>39.1</ele>
        <time>2019-10-11T12:59:49Z</time>
      </trkpt>
      <trkpt lat="47.08624" lon="-1.28228">
        <ele>39.1</ele>
        <time>2019-10-11T12:59:50Z</time>
      </trkpt>
      <trkpt lat="47.08621" lon="-1.28228">
        <ele>39.1</ele>
        <time>2019-10-11T12:59:51Z</time>
      </trkpt>
      <trkpt lat="47.08617" lon="-1.28228">
        <ele>39.1</ele>
        <time>2019-10-11T12:59:52Z</time>
      </trkpt>
      <trkpt lat="47.08614" lon="-1.28228">
        <ele>39</ele>
        <time>2019-10-11T12:59:53Z</time>
      </trkpt>
      <trkpt lat="47.08611" lon="-1.28228">
        <ele>39</ele>
        <time>2019-10-11T12:59:54Z</time>
      </trkpt>
      <trkpt lat="47.08608" lon="-1.28228">
        <ele>38.9</ele>
        <time>2019-10-11T12:59:55Z</time>
      </trkpt>
      <trkpt lat="47.08605" lon="-1.28228">
        <ele>38.9</ele>
        <time>2019-10-11T12:59:56Z</time>
      </trkpt>
      <trkpt lat="47.08602" lon="-1.28229">
        <ele>38.9</ele>
        <time>2019-10-11T12:59:57Z</time>
      </trkpt>
      <trkpt lat="47.086" lon="-1.28229">
        <ele>38.8</ele>
        <time>2019-10-11T12:59:58Z</time>
      </trkpt>
      <trkpt lat="47.08597" lon="-1.2823">
        <ele>38.8</ele>
        <time>2019-10-11T12:59:59Z</time>
      </trkpt>
      <trkpt lat="47.08591" lon="-1.2823">
        <ele>38.8</ele>
        <time>2019-10-11T13:00:01Z</time>
      </trkpt>
      <trkpt lat="47.08589" lon="-1.28231">
        <ele>38.8</ele>
        <time>2019-10-11T13:00:02Z</time>
      </trkpt>
      <trkpt lat="47.08586" lon="-1.28231">
        <ele>38.8</ele>
        <time>2019-10-11T13:00:03Z</time>
      </trkpt>
      <trkpt lat="47.08583" lon="-1.28231">
        <ele>38.8</ele>
        <time>2019-10-11T13:00:04Z</time>
      </trkpt>
      <trkpt lat="47.0858" lon="-1.28232">
        <ele>38.8</ele>
        <time>2019-10-11T13:00:05Z</time>
      </trkpt>
      <trkpt lat="47.08577" lon="-1.28232">
        <ele>38.9</ele>
        <time>2019-10-11T13:00:06Z</time>
      </trkpt>
      <trkpt lat="47.08574" lon="-1.28233">
        <ele>38.9</ele>
        <time>2019-10-11T13:00:07Z</time>
      </trkpt>
      <trkpt lat="47.08571" lon="-1.28234">
        <ele>38.9</ele>
        <time>2019-10-11T13:00:08Z</time>
      </trkpt>
      <trkpt lat="47.08568" lon="-1.28234">
        <ele>38.9</ele>
        <time>2019-10-11T13:00:09Z</time>
      </trkpt>
      <trkpt lat="47.08565" lon="-1.28235">
        <ele>38.9</ele>
        <time>2019-10-11T13:00:10Z</time>
      </trkpt>
      <trkpt lat="47.08562" lon="-1.28235">
        <ele>38.9</ele>
        <time>2019-10-11T13:00:11Z</time>
      </trkpt>
      <trkpt lat="47.08558" lon="-1.28235">
        <ele>39</ele>
        <time>2019-10-11T13:00:12Z</time>
      </trkpt>
      <trkpt lat="47.08555" lon="-1.28235">
        <ele>39</ele>
        <time>2019-10-11T13:00:13Z</time>
      </trkpt>
      <trkpt lat="47.08552" lon="-1.28235">
        <ele>39.1</ele>
        <time>2019-10-11T13:00:14Z</time>
      </trkpt>
      <trkpt lat="47.08548" lon="-1.28235">
        <ele>39.2</ele>
        <time>2019-10-11T13:00:15Z</time>
      </trkpt>
      <trkpt lat="47.08545" lon="-1.28233">
        <ele>39.2</ele>
        <time>2019-10-11T13:00:16Z</time>
      </trkpt>
      <trkpt lat="47.08542" lon="-1.28231">
        <ele>39.2</ele>
        <time>2019-10-11T13:00:17Z</time>
      </trkpt>
      <trkpt lat="47.08539" lon="-1.28229">
        <ele>39.2</ele>
        <time>2019-10-11T13:00:18Z</time>
      </trkpt>
      <trkpt lat="47.08536" lon="-1.28226">
        <ele>39.2</ele>
        <time>2019-10-11T13:00:19Z</time>
      </trkpt>
      <trkpt lat="47.08532" lon="-1.28224">
        <ele>39.2</ele>
        <time>2019-10-11T13:00:20Z</time>
      </trkpt>
      <trkpt lat="47.08529" lon="-1.28222">
        <ele>39.1</ele>
        <time>2019-10-11T13:00:21Z</time>
      </trkpt>
      <trkpt lat="47.08525" lon="-1.2822">
        <ele>39.1</ele>
        <time>2019-10-11T13:00:22Z</time>
      </trkpt>
      <trkpt lat="47.08522" lon="-1.28218">
        <ele>39.1</ele>
        <time>2019-10-11T13:00:23Z</time>
      </trkpt>
      <trkpt lat="47.08519" lon="-1.28216">
        <ele>39</ele>
        <time>2019-10-11T13:00:24Z</time>
      </trkpt>
      <trkpt lat="47.08515" lon="-1.28215">
        <ele>39</ele>
        <time>2019-10-11T13:00:25Z</time>
      </trkpt>
      <trkpt lat="47.08512" lon="-1.28214">
        <ele>39</ele>
        <time>2019-10-11T13:00:26Z</time>
      </trkpt>
      <trkpt lat="47.08509" lon="-1.28215">
        <ele>39.5</ele>
        <time>2019-10-11T13:00:27Z</time>
      </trkpt>
      <trkpt lat="47.08505" lon="-1.28215">
        <ele>39.5</ele>
        <time>2019-10-11T13:00:29Z</time>
      </trkpt>
      <trkpt lat="47.08502" lon="-1.28212">
        <ele>39.5</ele>
        <time>2019-10-11T13:00:30Z</time>
      </trkpt>
      <trkpt lat="47.085" lon="-1.28209">
        <ele>39.6</ele>
        <time>2019-10-11T13:00:31Z</time>
      </trkpt>
      <trkpt lat="47.08498" lon="-1.28205">
        <ele>39.5</ele>
        <time>2019-10-11T13:00:32Z</time>
      </trkpt>
      <trkpt lat="47.08497" lon="-1.28202">
        <ele>39.5</ele>
        <time>2019-10-11T13:00:33Z</time>
      </trkpt>
      <trkpt lat="47.08494" lon="-1.28196">
        <ele>39.4</ele>
        <time>2019-10-11T13:00:35Z</time>
      </trkpt>
      <trkpt lat="47.08492" lon="-1.2819">
        <ele>38.8</ele>
        <time>2019-10-11T13:00:37Z</time>
      </trkpt>
      <trkpt lat="47.08492" lon="-1.28186">
        <ele>38.7</ele>
        <time>2019-10-11T13:00:38Z</time>
      </trkpt>
      <trkpt lat="47.08492" lon="-1.28182">
        <ele>38.6</ele>
        <time>2019-10-11T13:00:39Z</time>
      </trkpt>
      <trkpt lat="47.08493" lon="-1.28174">
        <ele>38.3</ele>
        <time>2019-10-11T13:00:41Z</time>
      </trkpt>
      <trkpt lat="47.08494" lon="-1.2817">
        <ele>38.2</ele>
        <time>2019-10-11T13:00:42Z</time>
      </trkpt>
      <trkpt lat="47.08496" lon="-1.28165">
        <ele>38</ele>
        <time>2019-10-11T13:00:43Z</time>
      </trkpt>
      <trkpt lat="47.08497" lon="-1.28159">
        <ele>37.9</ele>
        <time>2019-10-11T13:00:44Z</time>
      </trkpt>
      <trkpt lat="47.08498" lon="-1.28153">
        <ele>37.7</ele>
        <time>2019-10-11T13:00:45Z</time>
      </trkpt>
      <trkpt lat="47.085" lon="-1.28145">
        <ele>37.4</ele>
        <time>2019-10-11T13:00:46Z</time>
      </trkpt>
      <trkpt lat="47.08502" lon="-1.28137">
        <ele>37.2</ele>
        <time>2019-10-11T13:00:47Z</time>
      </trkpt>
      <trkpt lat="47.08504" lon="-1.28128">
        <ele>36.4</ele>
        <time>2019-10-11T13:00:48Z</time>
      </trkpt>
      <trkpt lat="47.08506" lon="-1.28118">
        <ele>35.7</ele>
        <time>2019-10-11T13:00:49Z</time>
      </trkpt>
      <trkpt lat="47.08509" lon="-1.28107">
        <ele>35.1</ele>
        <time>2019-10-11T13:00:50Z</time>
      </trkpt>
      <trkpt lat="47.08509" lon="-1.28095">
        <ele>34.5</ele>
        <time>2019-10-11T13:00:51Z</time>
      </trkpt>
      <trkpt lat="47.08507" lon="-1.28082">
        <ele>34</ele>
        <time>2019-10-11T13:00:52Z</time>
      </trkpt>
      <trkpt lat="47.08503" lon="-1.28071">
        <ele>33.7</ele>
        <time>2019-10-11T13:00:53Z</time>
      </trkpt>
      <trkpt lat="47.08497" lon="-1.28061">
        <ele>33.4</ele>
        <time>2019-10-11T13:00:54Z</time>
      </trkpt>
      <trkpt lat="47.08492" lon="-1.28053">
        <ele>33.3</ele>
        <time>2019-10-11T13:00:55Z</time>
      </trkpt>
      <trkpt lat="47.08488" lon="-1.28048">
        <ele>33.2</ele>
        <time>2019-10-11T13:00:56Z</time>
      </trkpt>
      <trkpt lat="47.08485" lon="-1.28043">
        <ele>33.1</ele>
        <time>2019-10-11T13:00:57Z</time>
      </trkpt>
      <trkpt lat="47.08484" lon="-1.28037">
        <ele>33</ele>
        <time>2019-10-11T13:00:58Z</time>
      </trkpt>
      <trkpt lat="47.08485" lon="-1.28031">
        <ele>32.7</ele>
        <time>2019-10-11T13:00:59Z</time>
      </trkpt>
      <trkpt lat="47.08487" lon="-1.28025">
        <ele>32.4</ele>
        <time>2019-10-11T13:01:00Z</time>
      </trkpt>
      <trkpt lat="47.08491" lon="-1.2802">
        <ele>32.1</ele>
        <time>2019-10-11T13:01:01Z</time>
      </trkpt>
      <trkpt lat="47.08495" lon="-1.28013">
        <ele>31.7</ele>
        <time>2019-10-11T13:01:02Z</time>
      </trkpt>
      <trkpt lat="47.085" lon="-1.28007">
        <ele>31.3</ele>
        <time>2019-10-11T13:01:03Z</time>
      </trkpt>
      <trkpt lat="47.08503" lon="-1.28">
        <ele>30.8</ele>
        <time>2019-10-11T13:01:04Z</time>
      </trkpt>
      <trkpt lat="47.08507" lon="-1.27992">
        <ele>30.3</ele>
        <time>2019-10-11T13:01:05Z</time>
      </trkpt>
      <trkpt lat="47.08509" lon="-1.27986">
        <ele>29.9</ele>
        <time>2019-10-11T13:01:06Z</time>
      </trkpt>
      <trkpt lat="47.08511" lon="-1.27981">
        <ele>29.6</ele>
        <time>2019-10-11T13:01:07Z</time>
      </trkpt>
      <trkpt lat="47.08512" lon="-1.27974">
        <ele>29.1</ele>
        <time>2019-10-11T13:01:09Z</time>
      </trkpt>
      <trkpt lat="47.08514" lon="-1.27967">
        <ele>28.7</ele>
        <time>2019-10-11T13:01:11Z</time>
      </trkpt>
      <trkpt lat="47.08516" lon="-1.27962">
        <ele>27.9</ele>
        <time>2019-10-11T13:01:13Z</time>
      </trkpt>
      <trkpt lat="47.08517" lon="-1.27958">
        <ele>27.6</ele>
        <time>2019-10-11T13:01:14Z</time>
      </trkpt>
      <trkpt lat="47.08521" lon="-1.27952">
        <ele>27.1</ele>
        <time>2019-10-11T13:01:15Z</time>
      </trkpt>
      <trkpt lat="47.08525" lon="-1.27946">
        <ele>26.5</ele>
        <time>2019-10-11T13:01:16Z</time>
      </trkpt>
      <trkpt lat="47.08529" lon="-1.27941">
        <ele>26</ele>
        <time>2019-10-11T13:01:17Z</time>
      </trkpt>
      <trkpt lat="47.08532" lon="-1.27937">
        <ele>25.6</ele>
        <time>2019-10-11T13:01:18Z</time>
      </trkpt>
      <trkpt lat="47.08534" lon="-1.27932">
        <ele>25.2</ele>
        <time>2019-10-11T13:01:19Z</time>
      </trkpt>
      <trkpt lat="47.08535" lon="-1.27925">
        <ele>24.9</ele>
        <time>2019-10-11T13:01:20Z</time>
      </trkpt>
      <trkpt lat="47.08535" lon="-1.27919">
        <ele>24.9</ele>
        <time>2019-10-11T13:01:21Z</time>
      </trkpt>
      <trkpt lat="47.08534" lon="-1.27914">
        <ele>24.9</ele>
        <time>2019-10-11T13:01:22Z</time>
      </trkpt>
      <trkpt lat="47.08532" lon="-1.2791">
        <ele>24.9</ele>
        <time>2019-10-11T13:01:25Z</time>
      </trkpt>
      <trkpt lat="47.0853" lon="-1.27904">
        <ele>24.8</ele>
        <time>2019-10-11T13:01:27Z</time>
      </trkpt>
      <trkpt lat="47.08529" lon="-1.27899">
        <ele>24.8</ele>
        <time>2019-10-11T13:01:28Z</time>
      </trkpt>
      <trkpt lat="47.08528" lon="-1.27894">
        <ele>24.8</ele>
        <time>2019-10-11T13:01:29Z</time>
      </trkpt>
      <trkpt lat="47.08527" lon="-1.27889">
        <ele>24.8</ele>
        <time>2019-10-11T13:01:30Z</time>
      </trkpt>
      <trkpt lat="47.08526" lon="-1.27885">
        <ele>24.7</ele>
        <time>2019-10-11T13:01:31Z</time>
      </trkpt>
      <trkpt lat="47.08523" lon="-1.27877">
        <ele>24.7</ele>
        <time>2019-10-11T13:01:33Z</time>
      </trkpt>
      <trkpt lat="47.08521" lon="-1.27871">
        <ele>24.6</ele>
        <time>2019-10-11T13:01:35Z</time>
      </trkpt>
      <trkpt lat="47.08518" lon="-1.27865">
        <ele>24.6</ele>
        <time>2019-10-11T13:01:37Z</time>
      </trkpt>
      <trkpt lat="47.08516" lon="-1.2786">
        <ele>24.5</ele>
        <time>2019-10-11T13:01:39Z</time>
      </trkpt>
      <trkpt lat="47.08513" lon="-1.27855">
        <ele>24.5</ele>
        <time>2019-10-11T13:01:41Z</time>
      </trkpt>
      <trkpt lat="47.08511" lon="-1.27851">
        <ele>24.4</ele>
        <time>2019-10-11T13:01:42Z</time>
      </trkpt>
      <trkpt lat="47.08508" lon="-1.27847">
        <ele>24.4</ele>
        <time>2019-10-11T13:01:44Z</time>
      </trkpt>
      <trkpt lat="47.08506" lon="-1.27843">
        <ele>24.3</ele>
        <time>2019-10-11T13:01:47Z</time>
      </trkpt>
      <trkpt lat="47.08502" lon="-1.27838">
        <ele>24.3</ele>
        <time>2019-10-11T13:01:49Z</time>
      </trkpt>
      <trkpt lat="47.08499" lon="-1.27834">
        <ele>24.2</ele>
        <time>2019-10-11T13:01:51Z</time>
      </trkpt>
      <trkpt lat="47.08497" lon="-1.2783">
        <ele>24.2</ele>
        <time>2019-10-11T13:01:54Z</time>
      </trkpt>
      <trkpt lat="47.08493" lon="-1.27826">
        <ele>24.1</ele>
        <time>2019-10-11T13:02:01Z</time>
      </trkpt>
      <trkpt lat="47.08489" lon="-1.27822">
        <ele>24</ele>
        <time>2019-10-11T13:02:04Z</time>
      </trkpt>
      <trkpt lat="47.08476" lon="-1.27818">
        <ele>24.6</ele>
        <time>2019-10-11T13:02:30Z</time>
      </trkpt>
      <trkpt lat="47.08472" lon="-1.27814">
        <ele>24.8</ele>
        <time>2019-10-11T13:02:32Z</time>
      </trkpt>
      <trkpt lat="47.08469" lon="-1.27813">
        <ele>24.9</ele>
        <time>2019-10-11T13:02:34Z</time>
      </trkpt>
      <trkpt lat="47.08466" lon="-1.27813">
        <ele>24.9</ele>
        <time>2019-10-11T13:02:35Z</time>
      </trkpt>
      <trkpt lat="47.08461" lon="-1.27812">
        <ele>25.1</ele>
        <time>2019-10-11T13:02:37Z</time>
      </trkpt>
      <trkpt lat="47.08458" lon="-1.27811">
        <ele>25.1</ele>
        <time>2019-10-11T13:02:38Z</time>
      </trkpt>
      <trkpt lat="47.08455" lon="-1.2781">
        <ele>25.2</ele>
        <time>2019-10-11T13:02:40Z</time>
      </trkpt>
      <trkpt lat="47.08452" lon="-1.27811">
        <ele>25.3</ele>
        <time>2019-10-11T13:02:42Z</time>
      </trkpt>
      <trkpt lat="47.08449" lon="-1.27809">
        <ele>25.3</ele>
        <time>2019-10-11T13:02:44Z</time>
      </trkpt>
      <trkpt lat="47.08447" lon="-1.27806">
        <ele>25.4</ele>
        <time>2019-10-11T13:02:46Z</time>
      </trkpt>
      <trkpt lat="47.08444" lon="-1.27803">
        <ele>25.4</ele>
        <time>2019-10-11T13:02:47Z</time>
      </trkpt>
      <trkpt lat="47.08441" lon="-1.278">
        <ele>25.5</ele>
        <time>2019-10-11T13:02:48Z</time>
      </trkpt>
      <trkpt lat="47.08438" lon="-1.27798">
        <ele>25.5</ele>
        <time>2019-10-11T13:02:49Z</time>
      </trkpt>
      <trkpt lat="47.08435" lon="-1.27795">
        <ele>25.5</ele>
        <time>2019-10-11T13:02:51Z</time>
      </trkpt>
      <trkpt lat="47.08432" lon="-1.27796">
        <ele>25.6</ele>
        <time>2019-10-11T13:02:53Z</time>
      </trkpt>
      <trkpt lat="47.08429" lon="-1.27799">
        <ele>26.2</ele>
        <time>2019-10-11T13:02:55Z</time>
      </trkpt>
      <trkpt lat="47.08426" lon="-1.27803">
        <ele>26.8</ele>
        <time>2019-10-11T13:02:57Z</time>
      </trkpt>
      <trkpt lat="47.08421" lon="-1.27804">
        <ele>27.4</ele>
        <time>2019-10-11T13:02:59Z</time>
      </trkpt>
      <trkpt lat="47.08416" lon="-1.27804">
        <ele>27.9</ele>
        <time>2019-10-11T13:03:01Z</time>
      </trkpt>
      <trkpt lat="47.08413" lon="-1.27802">
        <ele>28.4</ele>
        <time>2019-10-11T13:03:03Z</time>
      </trkpt>
      <trkpt lat="47.0841" lon="-1.27802">
        <ele>28.2</ele>
        <time>2019-10-11T13:03:14Z</time>
      </trkpt>
      <trkpt lat="47.08405" lon="-1.27798">
        <ele>27.8</ele>
        <time>2019-10-11T13:03:16Z</time>
      </trkpt>
      <trkpt lat="47.08403" lon="-1.27793">
        <ele>27.5</ele>
        <time>2019-10-11T13:03:17Z</time>
      </trkpt>
      <trkpt lat="47.084" lon="-1.27788">
        <ele>27.3</ele>
        <time>2019-10-11T13:03:18Z</time>
      </trkpt>
      <trkpt lat="47.08396" lon="-1.27783">
        <ele>27.2</ele>
        <time>2019-10-11T13:03:19Z</time>
      </trkpt>
      <trkpt lat="47.08393" lon="-1.2778">
        <ele>27.1</ele>
        <time>2019-10-11T13:03:20Z</time>
      </trkpt>
      <trkpt lat="47.0839" lon="-1.27775">
        <ele>26.9</ele>
        <time>2019-10-11T13:03:22Z</time>
      </trkpt>
      <trkpt lat="47.08387" lon="-1.27772">
        <ele>26.7</ele>
        <time>2019-10-11T13:03:24Z</time>
      </trkpt>
      <trkpt lat="47.08386" lon="-1.27764">
        <ele>26.3</ele>
        <time>2019-10-11T13:03:26Z</time>
      </trkpt>
      <trkpt lat="47.08384" lon="-1.27758">
        <ele>25.9</ele>
        <time>2019-10-11T13:03:27Z</time>
      </trkpt>
      <trkpt lat="47.08383" lon="-1.27753">
        <ele>25.5</ele>
        <time>2019-10-11T13:03:28Z</time>
      </trkpt>
      <trkpt lat="47.0838" lon="-1.27747">
        <ele>24.9</ele>
        <time>2019-10-11T13:03:29Z</time>
      </trkpt>
      <trkpt lat="47.08378" lon="-1.27742">
        <ele>25</ele>
        <time>2019-10-11T13:03:30Z</time>
      </trkpt>
      <trkpt lat="47.08376" lon="-1.27736">
        <ele>25.1</ele>
        <time>2019-10-11T13:03:31Z</time>
      </trkpt>
      <trkpt lat="47.08374" lon="-1.27729">
        <ele>25.3</ele>
        <time>2019-10-11T13:03:32Z</time>
      </trkpt>
      <trkpt lat="47.08372" lon="-1.27725">
        <ele>25.3</ele>
        <time>2019-10-11T13:03:33Z</time>
      </trkpt>
      <trkpt lat="47.08369" lon="-1.2772">
        <ele>25.4</ele>
        <time>2019-10-11T13:03:34Z</time>
      </trkpt>
      <trkpt lat="47.08365" lon="-1.27715">
        <ele>25.6</ele>
        <time>2019-10-11T13:03:35Z</time>
      </trkpt>
      <trkpt lat="47.08363" lon="-1.27711">
        <ele>25.7</ele>
        <time>2019-10-11T13:03:36Z</time>
      </trkpt>
      <trkpt lat="47.0836" lon="-1.27708">
        <ele>25.8</ele>
        <time>2019-10-11T13:03:38Z</time>
      </trkpt>
      <trkpt lat="47.08357" lon="-1.27705">
        <ele>25.8</ele>
        <time>2019-10-11T13:03:39Z</time>
      </trkpt>
      <trkpt lat="47.08355" lon="-1.277">
        <ele>25.9</ele>
        <time>2019-10-11T13:03:40Z</time>
      </trkpt>
      <trkpt lat="47.08353" lon="-1.27697">
        <ele>26</ele>
        <time>2019-10-11T13:03:41Z</time>
      </trkpt>
      <trkpt lat="47.08348" lon="-1.27694">
        <ele>26.1</ele>
        <time>2019-10-11T13:03:43Z</time>
      </trkpt>
      <trkpt lat="47.08344" lon="-1.27692">
        <ele>26.2</ele>
        <time>2019-10-11T13:03:45Z</time>
      </trkpt>
      <trkpt lat="47.08339" lon="-1.2769">
        <ele>26.3</ele>
        <time>2019-10-11T13:03:47Z</time>
      </trkpt>
      <trkpt lat="47.08336" lon="-1.27688">
        <ele>26.4</ele>
        <time>2019-10-11T13:03:48Z</time>
      </trkpt>
      <trkpt lat="47.08331" lon="-1.27688">
        <ele>26.5</ele>
        <time>2019-10-11T13:03:50Z</time>
      </trkpt>
      <trkpt lat="47.08327" lon="-1.27687">
        <ele>26.6</ele>
        <time>2019-10-11T13:03:52Z</time>
      </trkpt>
      <trkpt lat="47.08324" lon="-1.27684">
        <ele>26.6</ele>
        <time>2019-10-11T13:03:54Z</time>
      </trkpt>
      <trkpt lat="47.0832" lon="-1.27685">
        <ele>26.6</ele>
        <time>2019-10-11T13:03:56Z</time>
      </trkpt>
      <trkpt lat="47.08317" lon="-1.27686">
        <ele>26.7</ele>
        <time>2019-10-11T13:03:57Z</time>
      </trkpt>
      <trkpt lat="47.08314" lon="-1.27689">
        <ele>26.7</ele>
        <time>2019-10-11T13:03:58Z</time>
      </trkpt>
      <trkpt lat="47.0831" lon="-1.27689">
        <ele>26.7</ele>
        <time>2019-10-11T13:04:00Z</time>
      </trkpt>
      <trkpt lat="47.08306" lon="-1.27686">
        <ele>26.7</ele>
        <time>2019-10-11T13:04:02Z</time>
      </trkpt>
      <trkpt lat="47.08302" lon="-1.27684">
        <ele>26.7</ele>
        <time>2019-10-11T13:04:04Z</time>
      </trkpt>
      <trkpt lat="47.08299" lon="-1.27681">
        <ele>26.7</ele>
        <time>2019-10-11T13:04:05Z</time>
      </trkpt>
      <trkpt lat="47.08297" lon="-1.27679">
        <ele>26.7</ele>
        <time>2019-10-11T13:04:06Z</time>
      </trkpt>
      <trkpt lat="47.08293" lon="-1.27674">
        <ele>26.7</ele>
        <time>2019-10-11T13:04:08Z</time>
      </trkpt>
      <trkpt lat="47.08291" lon="-1.27668">
        <ele>26.7</ele>
        <time>2019-10-11T13:04:10Z</time>
      </trkpt>
      <trkpt lat="47.0829" lon="-1.27662">
        <ele>26.7</ele>
        <time>2019-10-11T13:04:12Z</time>
      </trkpt>
      <trkpt lat="47.08289" lon="-1.27658">
        <ele>26.8</ele>
        <time>2019-10-11T13:04:14Z</time>
      </trkpt>
      <trkpt lat="47.08288" lon="-1.27652">
        <ele>26.8</ele>
        <time>2019-10-11T13:04:16Z</time>
      </trkpt>
      <trkpt lat="47.08286" lon="-1.27648">
        <ele>26.9</ele>
        <time>2019-10-11T13:04:17Z</time>
      </trkpt>
      <trkpt lat="47.08284" lon="-1.27646">
        <ele>26.9</ele>
        <time>2019-10-11T13:04:18Z</time>
      </trkpt>
      <trkpt lat="47.0828" lon="-1.27645">
        <ele>27</ele>
        <time>2019-10-11T13:04:20Z</time>
      </trkpt>
      <trkpt lat="47.08276" lon="-1.27645">
        <ele>27</ele>
        <time>2019-10-11T13:04:22Z</time>
      </trkpt>
      <trkpt lat="47.08272" lon="-1.27643">
        <ele>27</ele>
        <time>2019-10-11T13:04:23Z</time>
      </trkpt>
      <trkpt lat="47.08268" lon="-1.27645">
        <ele>27</ele>
        <time>2019-10-11T13:04:24Z</time>
      </trkpt>
      <trkpt lat="47.08265" lon="-1.27644">
        <ele>26.9</ele>
        <time>2019-10-11T13:04:25Z</time>
      </trkpt>
      <trkpt lat="47.08262" lon="-1.27642">
        <ele>26.8</ele>
        <time>2019-10-11T13:04:26Z</time>
      </trkpt>
      <trkpt lat="47.08259" lon="-1.27638">
        <ele>26.7</ele>
        <time>2019-10-11T13:04:27Z</time>
      </trkpt>
      <trkpt lat="47.08256" lon="-1.27633">
        <ele>26.6</ele>
        <time>2019-10-11T13:04:28Z</time>
      </trkpt>
      <trkpt lat="47.08254" lon="-1.27626">
        <ele>25.4</ele>
        <time>2019-10-11T13:04:29Z</time>
      </trkpt>
      <trkpt lat="47.08251" lon="-1.27619">
        <ele>24.6</ele>
        <time>2019-10-11T13:04:30Z</time>
      </trkpt>
      <trkpt lat="47.08245" lon="-1.27611">
        <ele>23.8</ele>
        <time>2019-10-11T13:04:31Z</time>
      </trkpt>
      <trkpt lat="47.0824" lon="-1.27603">
        <ele>23</ele>
        <time>2019-10-11T13:04:32Z</time>
      </trkpt>
      <trkpt lat="47.08236" lon="-1.27598">
        <ele>22.6</ele>
        <time>2019-10-11T13:04:33Z</time>
      </trkpt>
      <trkpt lat="47.08233" lon="-1.27592">
        <ele>22.2</ele>
        <time>2019-10-11T13:04:34Z</time>
      </trkpt>
      <trkpt lat="47.08233" lon="-1.27585">
        <ele>21.9</ele>
        <time>2019-10-11T13:04:35Z</time>
      </trkpt>
      <trkpt lat="47.08233" lon="-1.27577">
        <ele>21.6</ele>
        <time>2019-10-11T13:04:36Z</time>
      </trkpt>
      <trkpt lat="47.08232" lon="-1.27566">
        <ele>21.3</ele>
        <time>2019-10-11T13:04:37Z</time>
      </trkpt>
      <trkpt lat="47.08233" lon="-1.27557">
        <ele>21.1</ele>
        <time>2019-10-11T13:04:38Z</time>
      </trkpt>
      <trkpt lat="47.08233" lon="-1.27547">
        <ele>21</ele>
        <time>2019-10-11T13:04:39Z</time>
      </trkpt>
      <trkpt lat="47.08232" lon="-1.27539">
        <ele>21</ele>
        <time>2019-10-11T13:04:40Z</time>
      </trkpt>
      <trkpt lat="47.08231" lon="-1.27529">
        <ele>21</ele>
        <time>2019-10-11T13:04:41Z</time>
      </trkpt>
      <trkpt lat="47.08231" lon="-1.27522">
        <ele>21</ele>
        <time>2019-10-11T13:04:42Z</time>
      </trkpt>
      <trkpt lat="47.0823" lon="-1.27515">
        <ele>21.1</ele>
        <time>2019-10-11T13:04:43Z</time>
      </trkpt>
      <trkpt lat="47.08229" lon="-1.2751">
        <ele>21.1</ele>
        <time>2019-10-11T13:04:44Z</time>
      </trkpt>
      <trkpt lat="47.08228" lon="-1.27504">
        <ele>21.2</ele>
        <time>2019-10-11T13:04:45Z</time>
      </trkpt>
      <trkpt lat="47.08227" lon="-1.27497">
        <ele>21.3</ele>
        <time>2019-10-11T13:04:46Z</time>
      </trkpt>
      <trkpt lat="47.08227" lon="-1.27493">
        <ele>21.4</ele>
        <time>2019-10-11T13:04:47Z</time>
      </trkpt>
      <trkpt lat="47.08228" lon="-1.27489">
        <ele>21.5</ele>
        <time>2019-10-11T13:04:48Z</time>
      </trkpt>
      <trkpt lat="47.0823" lon="-1.27484">
        <ele>21.7</ele>
        <time>2019-10-11T13:04:50Z</time>
      </trkpt>
      <trkpt lat="47.08232" lon="-1.2748">
        <ele>21.7</ele>
        <time>2019-10-11T13:04:51Z</time>
      </trkpt>
      <trkpt lat="47.08237" lon="-1.27474">
        <ele>21.5</ele>
        <time>2019-10-11T13:04:53Z</time>
      </trkpt>
      <trkpt lat="47.0824" lon="-1.27472">
        <ele>21.4</ele>
        <time>2019-10-11T13:04:54Z</time>
      </trkpt>
      <trkpt lat="47.08243" lon="-1.27469">
        <ele>21.3</ele>
        <time>2019-10-11T13:04:55Z</time>
      </trkpt>
      <trkpt lat="47.08245" lon="-1.27467">
        <ele>21.3</ele>
        <time>2019-10-11T13:04:56Z</time>
      </trkpt>
      <trkpt lat="47.08248" lon="-1.27465">
        <ele>21.2</ele>
        <time>2019-10-11T13:04:57Z</time>
      </trkpt>
      <trkpt lat="47.08251" lon="-1.27462">
        <ele>21.1</ele>
        <time>2019-10-11T13:04:58Z</time>
      </trkpt>
      <trkpt lat="47.08253" lon="-1.2746">
        <ele>21.1</ele>
        <time>2019-10-11T13:04:59Z</time>
      </trkpt>
      <trkpt lat="47.08256" lon="-1.27458">
        <ele>21</ele>
        <time>2019-10-11T13:05:00Z</time>
      </trkpt>
      <trkpt lat="47.08258" lon="-1.27455">
        <ele>20.9</ele>
        <time>2019-10-11T13:05:01Z</time>
      </trkpt>
      <trkpt lat="47.0826" lon="-1.27452">
        <ele>20.9</ele>
        <time>2019-10-11T13:05:02Z</time>
      </trkpt>
      <trkpt lat="47.08263" lon="-1.27449">
        <ele>20.8</ele>
        <time>2019-10-11T13:05:03Z</time>
      </trkpt>
      <trkpt lat="47.08265" lon="-1.27446">
        <ele>20.7</ele>
        <time>2019-10-11T13:05:04Z</time>
      </trkpt>
      <trkpt lat="47.08267" lon="-1.27442">
        <ele>20.7</ele>
        <time>2019-10-11T13:05:05Z</time>
      </trkpt>
      <trkpt lat="47.08269" lon="-1.27438">
        <ele>20.6</ele>
        <time>2019-10-11T13:05:06Z</time>
      </trkpt>
      <trkpt lat="47.08271" lon="-1.27435">
        <ele>20.6</ele>
        <time>2019-10-11T13:05:07Z</time>
      </trkpt>
      <trkpt lat="47.08273" lon="-1.27428">
        <ele>20.5</ele>
        <time>2019-10-11T13:05:09Z</time>
      </trkpt>
      <trkpt lat="47.08275" lon="-1.27424">
        <ele>20.4</ele>
        <time>2019-10-11T13:05:10Z</time>
      </trkpt>
      <trkpt lat="47.08277" lon="-1.27417">
        <ele>20.3</ele>
        <time>2019-10-11T13:05:12Z</time>
      </trkpt>
      <trkpt lat="47.08277" lon="-1.27411">
        <ele>20.3</ele>
        <time>2019-10-11T13:05:13Z</time>
      </trkpt>
      <trkpt lat="47.08277" lon="-1.27405">
        <ele>20.2</ele>
        <time>2019-10-11T13:05:14Z</time>
      </trkpt>
      <trkpt lat="47.08273" lon="-1.274">
        <ele>20.4</ele>
        <time>2019-10-11T13:05:16Z</time>
      </trkpt>
      <trkpt lat="47.0827" lon="-1.27397">
        <ele>20.6</ele>
        <time>2019-10-11T13:05:18Z</time>
      </trkpt>
      <trkpt lat="47.08267" lon="-1.27391">
        <ele>20.8</ele>
        <time>2019-10-11T13:05:20Z</time>
      </trkpt>
      <trkpt lat="47.08266" lon="-1.27385">
        <ele>21.1</ele>
        <time>2019-10-11T13:05:22Z</time>
      </trkpt>
      <trkpt lat="47.08266" lon="-1.27381">
        <ele>21.3</ele>
        <time>2019-10-11T13:05:24Z</time>
      </trkpt>
      <trkpt lat="47.08267" lon="-1.27376">
        <ele>21.5</ele>
        <time>2019-10-11T13:05:26Z</time>
      </trkpt>
      <trkpt lat="47.08267" lon="-1.27369">
        <ele>21.8</ele>
        <time>2019-10-11T13:05:28Z</time>
      </trkpt>
      <trkpt lat="47.08266" lon="-1.27363">
        <ele>22</ele>
        <time>2019-10-11T13:05:30Z</time>
      </trkpt>
      <trkpt lat="47.08265" lon="-1.27358">
        <ele>22.3</ele>
        <time>2019-10-11T13:05:32Z</time>
      </trkpt>
      <trkpt lat="47.08265" lon="-1.27353">
        <ele>22.6</ele>
        <time>2019-10-11T13:05:34Z</time>
      </trkpt>
      <trkpt lat="47.08264" lon="-1.27349">
        <ele>22.8</ele>
        <time>2019-10-11T13:05:36Z</time>
      </trkpt>
      <trkpt lat="47.08264" lon="-1.27343">
        <ele>23.1</ele>
        <time>2019-10-11T13:05:38Z</time>
      </trkpt>
      <trkpt lat="47.08264" lon="-1.27338">
        <ele>23.4</ele>
        <time>2019-10-11T13:05:40Z</time>
      </trkpt>
      <trkpt lat="47.08263" lon="-1.27332">
        <ele>23.8</ele>
        <time>2019-10-11T13:05:42Z</time>
      </trkpt>
      <trkpt lat="47.08263" lon="-1.27326">
        <ele>24.1</ele>
        <time>2019-10-11T13:05:44Z</time>
      </trkpt>
      <trkpt lat="47.08263" lon="-1.27321">
        <ele>24.4</ele>
        <time>2019-10-11T13:05:46Z</time>
      </trkpt>
      <trkpt lat="47.08263" lon="-1.27313">
        <ele>24.9</ele>
        <time>2019-10-11T13:05:49Z</time>
      </trkpt>
      <trkpt lat="47.08263" lon="-1.27307">
        <ele>25.2</ele>
        <time>2019-10-11T13:05:51Z</time>
      </trkpt>
      <trkpt lat="47.08263" lon="-1.27299">
        <ele>25.7</ele>
        <time>2019-10-11T13:05:54Z</time>
      </trkpt>
      <trkpt lat="47.08262" lon="-1.27295">
        <ele>25.9</ele>
        <time>2019-10-11T13:05:56Z</time>
      </trkpt>
      <trkpt lat="47.08262" lon="-1.2729">
        <ele>26.1</ele>
        <time>2019-10-11T13:05:57Z</time>
      </trkpt>
      <trkpt lat="47.08262" lon="-1.27285">
        <ele>26.4</ele>
        <time>2019-10-11T13:06:00Z</time>
      </trkpt>
      <trkpt lat="47.08262" lon="-1.2728">
        <ele>26.6</ele>
        <time>2019-10-11T13:06:02Z</time>
      </trkpt>
      <trkpt lat="47.08262" lon="-1.27274">
        <ele>26.8</ele>
        <time>2019-10-11T13:06:04Z</time>
      </trkpt>
      <trkpt lat="47.08261" lon="-1.2727">
        <ele>27</ele>
        <time>2019-10-11T13:06:06Z</time>
      </trkpt>
      <trkpt lat="47.08261" lon="-1.27262">
        <ele>27.2</ele>
        <time>2019-10-11T13:06:10Z</time>
      </trkpt>
      <trkpt lat="47.08261" lon="-1.27256">
        <ele>27.4</ele>
        <time>2019-10-11T13:06:13Z</time>
      </trkpt>
      <trkpt lat="47.0826" lon="-1.27252">
        <ele>27.5</ele>
        <time>2019-10-11T13:06:14Z</time>
      </trkpt>
      <trkpt lat="47.0826" lon="-1.27247">
        <ele>27.6</ele>
        <time>2019-10-11T13:06:16Z</time>
      </trkpt>
      <trkpt lat="47.0826" lon="-1.27243">
        <ele>27.7</ele>
        <time>2019-10-11T13:06:18Z</time>
      </trkpt>
      <trkpt lat="47.0826" lon="-1.27235">
        <ele>27.9</ele>
        <time>2019-10-11T13:06:21Z</time>
      </trkpt>
      <trkpt lat="47.08261" lon="-1.27231">
        <ele>28.1</ele>
        <time>2019-10-11T13:06:23Z</time>
      </trkpt>
      <trkpt lat="47.08261" lon="-1.27227">
        <ele>28.2</ele>
        <time>2019-10-11T13:06:25Z</time>
      </trkpt>
      <trkpt lat="47.08262" lon="-1.2722">
        <ele>28.5</ele>
        <time>2019-10-11T13:06:27Z</time>
      </trkpt>
      <trkpt lat="47.08263" lon="-1.27212">
        <ele>28.8</ele>
        <time>2019-10-11T13:06:28Z</time>
      </trkpt>
      <trkpt lat="47.08265" lon="-1.27206">
        <ele>29</ele>
        <time>2019-10-11T13:06:29Z</time>
      </trkpt>
      <trkpt lat="47.08265" lon="-1.27201">
        <ele>29.2</ele>
        <time>2019-10-11T13:06:30Z</time>
      </trkpt>
      <trkpt lat="47.08266" lon="-1.27195">
        <ele>29.6</ele>
        <time>2019-10-11T13:06:31Z</time>
      </trkpt>
      <trkpt lat="47.08266" lon="-1.2719">
        <ele>29.8</ele>
        <time>2019-10-11T13:06:32Z</time>
      </trkpt>
      <trkpt lat="47.08266" lon="-1.27186">
        <ele>30</ele>
        <time>2019-10-11T13:06:33Z</time>
      </trkpt>
      <trkpt lat="47.08267" lon="-1.27181">
        <ele>30.3</ele>
        <time>2019-10-11T13:06:34Z</time>
      </trkpt>
      <trkpt lat="47.08267" lon="-1.27177">
        <ele>30.6</ele>
        <time>2019-10-11T13:06:35Z</time>
      </trkpt>
      <trkpt lat="47.08268" lon="-1.27171">
        <ele>30.9</ele>
        <time>2019-10-11T13:06:37Z</time>
      </trkpt>
      <trkpt lat="47.08269" lon="-1.27163">
        <ele>31.3</ele>
        <time>2019-10-11T13:06:39Z</time>
      </trkpt>
      <trkpt lat="47.08269" lon="-1.27156">
        <ele>31.7</ele>
        <time>2019-10-11T13:06:41Z</time>
      </trkpt>
      <trkpt lat="47.08268" lon="-1.27151">
        <ele>31.9</ele>
        <time>2019-10-11T13:06:43Z</time>
      </trkpt>
      <trkpt lat="47.08267" lon="-1.27146">
        <ele>32.1</ele>
        <time>2019-10-11T13:06:45Z</time>
      </trkpt>
      <trkpt lat="47.08268" lon="-1.27141">
        <ele>32.3</ele>
        <time>2019-10-11T13:06:48Z</time>
      </trkpt>
      <trkpt lat="47.08268" lon="-1.27136">
        <ele>32.6</ele>
        <time>2019-10-11T13:06:50Z</time>
      </trkpt>
      <trkpt lat="47.08269" lon="-1.27128">
        <ele>32.9</ele>
        <time>2019-10-11T13:06:53Z</time>
      </trkpt>
      <trkpt lat="47.0827" lon="-1.27124">
        <ele>33.1</ele>
        <time>2019-10-11T13:06:56Z</time>
      </trkpt>
      <trkpt lat="47.0827" lon="-1.2712">
        <ele>33.2</ele>
        <time>2019-10-11T13:06:58Z</time>
      </trkpt>
      <trkpt lat="47.0827" lon="-1.27114">
        <ele>33.5</ele>
        <time>2019-10-11T13:07:00Z</time>
      </trkpt>
      <trkpt lat="47.0827" lon="-1.27107">
        <ele>33.7</ele>
        <time>2019-10-11T13:07:02Z</time>
      </trkpt>
      <trkpt lat="47.0827" lon="-1.27101">
        <ele>33.9</ele>
        <time>2019-10-11T13:07:04Z</time>
      </trkpt>
      <trkpt lat="47.08271" lon="-1.27096">
        <ele>34</ele>
        <time>2019-10-11T13:07:06Z</time>
      </trkpt>
      <trkpt lat="47.08271" lon="-1.27091">
        <ele>34.1</ele>
        <time>2019-10-11T13:07:08Z</time>
      </trkpt>
      <trkpt lat="47.08271" lon="-1.27085">
        <ele>34.2</ele>
        <time>2019-10-11T13:07:10Z</time>
      </trkpt>
      <trkpt lat="47.0827" lon="-1.2708">
        <ele>34.3</ele>
        <time>2019-10-11T13:07:12Z</time>
      </trkpt>
      <trkpt lat="47.0827" lon="-1.27075">
        <ele>34.4</ele>
        <time>2019-10-11T13:07:14Z</time>
      </trkpt>
      <trkpt lat="47.0827" lon="-1.27068">
        <ele>34.5</ele>
        <time>2019-10-11T13:07:17Z</time>
      </trkpt>
      <trkpt lat="47.08269" lon="-1.27063">
        <ele>34.5</ele>
        <time>2019-10-11T13:07:19Z</time>
      </trkpt>
      <trkpt lat="47.08269" lon="-1.27059">
        <ele>34.5</ele>
        <time>2019-10-11T13:07:22Z</time>
      </trkpt>
      <trkpt lat="47.0827" lon="-1.27047">
        <ele>34.6</ele>
        <time>2019-10-11T13:21:15Z</time>
      </trkpt>
      <trkpt lat="47.0827" lon="-1.27042">
        <ele>34.6</ele>
        <time>2019-10-11T13:21:16Z</time>
      </trkpt>
      <trkpt lat="47.08271" lon="-1.27036">
        <ele>34.7</ele>
        <time>2019-10-11T13:21:18Z</time>
      </trkpt>
      <trkpt lat="47.08271" lon="-1.2703">
        <ele>34.7</ele>
        <time>2019-10-11T13:21:19Z</time>
      </trkpt>
      <trkpt lat="47.08272" lon="-1.27025">
        <ele>34.8</ele>
        <time>2019-10-11T13:21:20Z</time>
      </trkpt>
      <trkpt lat="47.08272" lon="-1.2702">
        <ele>34.9</ele>
        <time>2019-10-11T13:21:21Z</time>
      </trkpt>
      <trkpt lat="47.08272" lon="-1.27016">
        <ele>34.9</ele>
        <time>2019-10-11T13:21:22Z</time>
      </trkpt>
      <trkpt lat="47.08272" lon="-1.27011">
        <ele>34.9</ele>
        <time>2019-10-11T13:21:23Z</time>
      </trkpt>
      <trkpt lat="47.08272" lon="-1.27005">
        <ele>34.9</ele>
        <time>2019-10-11T13:21:24Z</time>
      </trkpt>
      <trkpt lat="47.08273" lon="-1.27">
        <ele>34.9</ele>
        <time>2019-10-11T13:21:25Z</time>
      </trkpt>
      <trkpt lat="47.08273" lon="-1.26995">
        <ele>35</ele>
        <time>2019-10-11T13:21:26Z</time>
      </trkpt>
      <trkpt lat="47.08273" lon="-1.2699">
        <ele>34.9</ele>
        <time>2019-10-11T13:21:27Z</time>
      </trkpt>
      <trkpt lat="47.08273" lon="-1.26985">
        <ele>34.9</ele>
        <time>2019-10-11T13:21:28Z</time>
      </trkpt>
      <trkpt lat="47.08274" lon="-1.2698">
        <ele>34.8</ele>
        <time>2019-10-11T13:21:29Z</time>
      </trkpt>
      <trkpt lat="47.08274" lon="-1.26975">
        <ele>34.7</ele>
        <time>2019-10-11T13:21:30Z</time>
      </trkpt>
      <trkpt lat="47.08275" lon="-1.26969">
        <ele>34.7</ele>
        <time>2019-10-11T13:21:31Z</time>
      </trkpt>
      <trkpt lat="47.08275" lon="-1.26964">
        <ele>34.6</ele>
        <time>2019-10-11T13:21:32Z</time>
      </trkpt>
      <trkpt lat="47.08275" lon="-1.26958">
        <ele>34.5</ele>
        <time>2019-10-11T13:21:33Z</time>
      </trkpt>
      <trkpt lat="47.08276" lon="-1.26953">
        <ele>34.5</ele>
        <time>2019-10-11T13:21:34Z</time>
      </trkpt>
      <trkpt lat="47.08276" lon="-1.26948">
        <ele>34.4</ele>
        <time>2019-10-11T13:21:35Z</time>
      </trkpt>
      <trkpt lat="47.08276" lon="-1.26942">
        <ele>34.3</ele>
        <time>2019-10-11T13:21:36Z</time>
      </trkpt>
      <trkpt lat="47.08276" lon="-1.26938">
        <ele>34.2</ele>
        <time>2019-10-11T13:21:37Z</time>
      </trkpt>
      <trkpt lat="47.08275" lon="-1.26931">
        <ele>34.1</ele>
        <time>2019-10-11T13:21:39Z</time>
      </trkpt>
      <trkpt lat="47.08277" lon="-1.26927">
        <ele>34.1</ele>
        <time>2019-10-11T13:21:42Z</time>
      </trkpt>
      <trkpt lat="47.0828" lon="-1.26927">
        <ele>34</ele>
        <time>2019-10-11T13:21:45Z</time>
      </trkpt>
      <trkpt lat="47.08279" lon="-1.26931">
        <ele>33.9</ele>
        <time>2019-10-11T13:21:56Z</time>
      </trkpt>
      <trkpt lat="47.08276" lon="-1.26928">
        <ele>33.8</ele>
        <time>2019-10-11T13:21:59Z</time>
      </trkpt>
      <trkpt lat="47.08274" lon="-1.26923">
        <ele>33.7</ele>
        <time>2019-10-11T13:22:01Z</time>
      </trkpt>
      <trkpt lat="47.08271" lon="-1.26916">
        <ele>33.5</ele>
        <time>2019-10-11T13:22:03Z</time>
      </trkpt>
      <trkpt lat="47.08269" lon="-1.26913">
        <ele>33.7</ele>
        <time>2019-10-11T13:22:04Z</time>
      </trkpt>
      <trkpt lat="47.08266" lon="-1.26908">
        <ele>33.8</ele>
        <time>2019-10-11T13:22:06Z</time>
      </trkpt>
      <trkpt lat="47.08263" lon="-1.26902">
        <ele>33.8</ele>
        <time>2019-10-11T13:22:08Z</time>
      </trkpt>
      <trkpt lat="47.0826" lon="-1.26895">
        <ele>33.9</ele>
        <time>2019-10-11T13:22:10Z</time>
      </trkpt>
      <trkpt lat="47.08258" lon="-1.26892">
        <ele>34</ele>
        <time>2019-10-11T13:22:11Z</time>
      </trkpt>
      <trkpt lat="47.08257" lon="-1.26888">
        <ele>34</ele>
        <time>2019-10-11T13:22:12Z</time>
      </trkpt>
      <trkpt lat="47.08255" lon="-1.26885">
        <ele>34.1</ele>
        <time>2019-10-11T13:22:13Z</time>
      </trkpt>
      <trkpt lat="47.08254" lon="-1.26881">
        <ele>34.1</ele>
        <time>2019-10-11T13:22:14Z</time>
      </trkpt>
      <trkpt lat="47.08253" lon="-1.26877">
        <ele>34.2</ele>
        <time>2019-10-11T13:22:15Z</time>
      </trkpt>
      <trkpt lat="47.08252" lon="-1.26874">
        <ele>34.2</ele>
        <time>2019-10-11T13:22:16Z</time>
      </trkpt>
      <trkpt lat="47.08251" lon="-1.2687">
        <ele>34.3</ele>
        <time>2019-10-11T13:22:17Z</time>
      </trkpt>
      <trkpt lat="47.08248" lon="-1.26863">
        <ele>34.3</ele>
        <time>2019-10-11T13:22:19Z</time>
      </trkpt>
      <trkpt lat="47.08246" lon="-1.26857">
        <ele>34.4</ele>
        <time>2019-10-11T13:22:21Z</time>
      </trkpt>
      <trkpt lat="47.08243" lon="-1.26851">
        <ele>34.5</ele>
        <time>2019-10-11T13:22:23Z</time>
      </trkpt>
      <trkpt lat="47.08241" lon="-1.26843">
        <ele>34.5</ele>
        <time>2019-10-11T13:22:25Z</time>
      </trkpt>
      <trkpt lat="47.0824" lon="-1.2684">
        <ele>34.6</ele>
        <time>2019-10-11T13:22:26Z</time>
      </trkpt>
      <trkpt lat="47.08239" lon="-1.26836">
        <ele>34.6</ele>
        <time>2019-10-11T13:22:27Z</time>
      </trkpt>
      <trkpt lat="47.08238" lon="-1.26832">
        <ele>34.7</ele>
        <time>2019-10-11T13:22:28Z</time>
      </trkpt>
      <trkpt lat="47.08237" lon="-1.26828">
        <ele>34.7</ele>
        <time>2019-10-11T13:22:29Z</time>
      </trkpt>
      <trkpt lat="47.08236" lon="-1.26824">
        <ele>34.8</ele>
        <time>2019-10-11T13:22:30Z</time>
      </trkpt>
      <trkpt lat="47.08235" lon="-1.26821">
        <ele>34.8</ele>
        <time>2019-10-11T13:22:31Z</time>
      </trkpt>
      <trkpt lat="47.08235" lon="-1.26817">
        <ele>34.8</ele>
        <time>2019-10-11T13:22:32Z</time>
      </trkpt>
      <trkpt lat="47.08234" lon="-1.26813">
        <ele>34.9</ele>
        <time>2019-10-11T13:22:33Z</time>
      </trkpt>
      <trkpt lat="47.08233" lon="-1.26809">
        <ele>34.9</ele>
        <time>2019-10-11T13:22:34Z</time>
      </trkpt>
      <trkpt lat="47.08232" lon="-1.26805">
        <ele>35</ele>
        <time>2019-10-11T13:22:35Z</time>
      </trkpt>
      <trkpt lat="47.08231" lon="-1.26798">
        <ele>35</ele>
        <time>2019-10-11T13:22:37Z</time>
      </trkpt>
      <trkpt lat="47.08229" lon="-1.26791">
        <ele>35.1</ele>
        <time>2019-10-11T13:22:39Z</time>
      </trkpt>
      <trkpt lat="47.08228" lon="-1.26784">
        <ele>35.1</ele>
        <time>2019-10-11T13:22:41Z</time>
      </trkpt>
      <trkpt lat="47.08226" lon="-1.26779">
        <ele>35.2</ele>
        <time>2019-10-11T13:22:43Z</time>
      </trkpt>
      <trkpt lat="47.08225" lon="-1.26775">
        <ele>35.2</ele>
        <time>2019-10-11T13:22:45Z</time>
      </trkpt>
      <trkpt lat="47.08224" lon="-1.26768">
        <ele>35.3</ele>
        <time>2019-10-11T13:22:47Z</time>
      </trkpt>
      <trkpt lat="47.08223" lon="-1.26761">
        <ele>35.3</ele>
        <time>2019-10-11T13:22:49Z</time>
      </trkpt>
      <trkpt lat="47.0822" lon="-1.26757">
        <ele>35.3</ele>
        <time>2019-10-11T13:22:51Z</time>
      </trkpt>
      <trkpt lat="47.08224" lon="-1.26756">
        <ele>35.4</ele>
        <time>2019-10-11T13:22:54Z</time>
      </trkpt>
      <trkpt lat="47.08225" lon="-1.26762">
        <ele>35.4</ele>
        <time>2019-10-11T13:22:56Z</time>
      </trkpt>
      <trkpt lat="47.08227" lon="-1.26766">
        <ele>35.4</ele>
        <time>2019-10-11T13:22:58Z</time>
      </trkpt>
      <trkpt lat="47.0823" lon="-1.26765">
        <ele>35.4</ele>
        <time>2019-10-11T13:23:00Z</time>
      </trkpt>
      <trkpt lat="47.08234" lon="-1.26762">
        <ele>35.5</ele>
        <time>2019-10-11T13:23:02Z</time>
      </trkpt>
      <trkpt lat="47.08238" lon="-1.26759">
        <ele>35.5</ele>
        <time>2019-10-11T13:23:04Z</time>
      </trkpt>
      <trkpt lat="47.08241" lon="-1.26756">
        <ele>35.5</ele>
        <time>2019-10-11T13:23:06Z</time>
      </trkpt>
      <trkpt lat="47.08246" lon="-1.26753">
        <ele>35.5</ele>
        <time>2019-10-11T13:23:08Z</time>
      </trkpt>
      <trkpt lat="47.0825" lon="-1.26749">
        <ele>35.5</ele>
        <time>2019-10-11T13:23:10Z</time>
      </trkpt>
      <trkpt lat="47.08253" lon="-1.26747">
        <ele>35.5</ele>
        <time>2019-10-11T13:23:11Z</time>
      </trkpt>
      <trkpt lat="47.08256" lon="-1.26744">
        <ele>35.5</ele>
        <time>2019-10-11T13:23:13Z</time>
      </trkpt>
      <trkpt lat="47.0826" lon="-1.26741">
        <ele>35.5</ele>
        <time>2019-10-11T13:23:15Z</time>
      </trkpt>
      <trkpt lat="47.08263" lon="-1.26741">
        <ele>35.5</ele>
        <time>2019-10-11T13:23:17Z</time>
      </trkpt>
      <trkpt lat="47.08264" lon="-1.26745">
        <ele>35.5</ele>
        <time>2019-10-11T13:23:19Z</time>
      </trkpt>
      <trkpt lat="47.08259" lon="-1.26745">
        <ele>35.4</ele>
        <time>2019-10-11T13:23:22Z</time>
      </trkpt>
      <trkpt lat="47.08254" lon="-1.26745">
        <ele>35.4</ele>
        <time>2019-10-11T13:23:24Z</time>
      </trkpt>
      <trkpt lat="47.0825" lon="-1.26747">
        <ele>35.3</ele>
        <time>2019-10-11T13:23:25Z</time>
      </trkpt>
      <trkpt lat="47.08247" lon="-1.26749">
        <ele>35.3</ele>
        <time>2019-10-11T13:23:26Z</time>
      </trkpt>
      <trkpt lat="47.08245" lon="-1.26752">
        <ele>35.3</ele>
        <time>2019-10-11T13:23:27Z</time>
      </trkpt>
      <trkpt lat="47.0824" lon="-1.26755">
        <ele>35.2</ele>
        <time>2019-10-11T13:23:29Z</time>
      </trkpt>
      <trkpt lat="47.08236" lon="-1.26758">
        <ele>35.2</ele>
        <time>2019-10-11T13:23:31Z</time>
      </trkpt>
      <trkpt lat="47.08232" lon="-1.2676">
        <ele>35.1</ele>
        <time>2019-10-11T13:23:33Z</time>
      </trkpt>
      <trkpt lat="47.08229" lon="-1.26762">
        <ele>35</ele>
        <time>2019-10-11T13:23:35Z</time>
      </trkpt>
      <trkpt lat="47.08225" lon="-1.2676">
        <ele>34.9</ele>
        <time>2019-10-11T13:23:37Z</time>
      </trkpt>
      <trkpt lat="47.08223" lon="-1.26753">
        <ele>34.8</ele>
        <time>2019-10-11T13:23:39Z</time>
      </trkpt>
      <trkpt lat="47.08221" lon="-1.26749">
        <ele>34.7</ele>
        <time>2019-10-11T13:23:40Z</time>
      </trkpt>
      <trkpt lat="47.0822" lon="-1.26745">
        <ele>34.6</ele>
        <time>2019-10-11T13:23:41Z</time>
      </trkpt>
      <trkpt lat="47.08219" lon="-1.26741">
        <ele>34.6</ele>
        <time>2019-10-11T13:23:42Z</time>
      </trkpt>
      <trkpt lat="47.08217" lon="-1.26737">
        <ele>34.5</ele>
        <time>2019-10-11T13:23:43Z</time>
      </trkpt>
      <trkpt lat="47.08216" lon="-1.26733">
        <ele>34.5</ele>
        <time>2019-10-11T13:23:44Z</time>
      </trkpt>
      <trkpt lat="47.08215" lon="-1.26729">
        <ele>34.4</ele>
        <time>2019-10-11T13:23:45Z</time>
      </trkpt>
      <trkpt lat="47.08214" lon="-1.26725">
        <ele>34.3</ele>
        <time>2019-10-11T13:23:46Z</time>
      </trkpt>
      <trkpt lat="47.08212" lon="-1.26721">
        <ele>34</ele>
        <time>2019-10-11T13:23:47Z</time>
      </trkpt>
      <trkpt lat="47.08211" lon="-1.26716">
        <ele>33.8</ele>
        <time>2019-10-11T13:23:48Z</time>
      </trkpt>
      <trkpt lat="47.0821" lon="-1.26711">
        <ele>33.6</ele>
        <time>2019-10-11T13:23:49Z</time>
      </trkpt>
      <trkpt lat="47.08208" lon="-1.26706">
        <ele>33.5</ele>
        <time>2019-10-11T13:23:50Z</time>
      </trkpt>
      <trkpt lat="47.08206" lon="-1.26701">
        <ele>33.3</ele>
        <time>2019-10-11T13:23:51Z</time>
      </trkpt>
      <trkpt lat="47.08205" lon="-1.26695">
        <ele>33.1</ele>
        <time>2019-10-11T13:23:52Z</time>
      </trkpt>
      <trkpt lat="47.08203" lon="-1.26689">
        <ele>32.9</ele>
        <time>2019-10-11T13:23:53Z</time>
      </trkpt>
      <trkpt lat="47.08202" lon="-1.26684">
        <ele>32.7</ele>
        <time>2019-10-11T13:23:54Z</time>
      </trkpt>
      <trkpt lat="47.082" lon="-1.26679">
        <ele>32.6</ele>
        <time>2019-10-11T13:23:55Z</time>
      </trkpt>
      <trkpt lat="47.08199" lon="-1.26675">
        <ele>32.4</ele>
        <time>2019-10-11T13:23:56Z</time>
      </trkpt>
      <trkpt lat="47.08197" lon="-1.26671">
        <ele>32.3</ele>
        <time>2019-10-11T13:23:57Z</time>
      </trkpt>
      <trkpt lat="47.08195" lon="-1.26667">
        <ele>32.2</ele>
        <time>2019-10-11T13:23:58Z</time>
      </trkpt>
      <trkpt lat="47.08194" lon="-1.26663">
        <ele>32</ele>
        <time>2019-10-11T13:23:59Z</time>
      </trkpt>
      <trkpt lat="47.08191" lon="-1.26656">
        <ele>31.8</ele>
        <time>2019-10-11T13:24:01Z</time>
      </trkpt>
      <trkpt lat="47.08188" lon="-1.2665">
        <ele>31.6</ele>
        <time>2019-10-11T13:24:03Z</time>
      </trkpt>
      <trkpt lat="47.0819" lon="-1.26643">
        <ele>31.4</ele>
        <time>2019-10-11T13:24:05Z</time>
      </trkpt>
      <trkpt lat="47.08193" lon="-1.2664">
        <ele>31.4</ele>
        <time>2019-10-11T13:24:06Z</time>
      </trkpt>
      <trkpt lat="47.08196" lon="-1.26638">
        <ele>31.3</ele>
        <time>2019-10-11T13:24:07Z</time>
      </trkpt>
      <trkpt lat="47.08199" lon="-1.26635">
        <ele>31.3</ele>
        <time>2019-10-11T13:24:08Z</time>
      </trkpt>
      <trkpt lat="47.08202" lon="-1.26632">
        <ele>31.2</ele>
        <time>2019-10-11T13:24:09Z</time>
      </trkpt>
      <trkpt lat="47.08205" lon="-1.2663">
        <ele>31.2</ele>
        <time>2019-10-11T13:24:10Z</time>
      </trkpt>
      <trkpt lat="47.08207" lon="-1.26628">
        <ele>31.1</ele>
        <time>2019-10-11T13:24:11Z</time>
      </trkpt>
      <trkpt lat="47.0821" lon="-1.26625">
        <ele>31.1</ele>
        <time>2019-10-11T13:24:12Z</time>
      </trkpt>
      <trkpt lat="47.08213" lon="-1.26623">
        <ele>31</ele>
        <time>2019-10-11T13:24:13Z</time>
      </trkpt>
      <trkpt lat="47.08216" lon="-1.2662">
        <ele>30.9</ele>
        <time>2019-10-11T13:24:14Z</time>
      </trkpt>
      <trkpt lat="47.0822" lon="-1.26617">
        <ele>30.8</ele>
        <time>2019-10-11T13:24:15Z</time>
      </trkpt>
      <trkpt lat="47.08225" lon="-1.26614">
        <ele>30.6</ele>
        <time>2019-10-11T13:24:16Z</time>
      </trkpt>
      <trkpt lat="47.0823" lon="-1.2661">
        <ele>30.3</ele>
        <time>2019-10-11T13:24:17Z</time>
      </trkpt>
      <trkpt lat="47.08236" lon="-1.26605">
        <ele>30</ele>
        <time>2019-10-11T13:24:18Z</time>
      </trkpt>
      <trkpt lat="47.08241" lon="-1.266">
        <ele>29.7</ele>
        <time>2019-10-11T13:24:19Z</time>
      </trkpt>
      <trkpt lat="47.08246" lon="-1.26596">
        <ele>29.5</ele>
        <time>2019-10-11T13:24:20Z</time>
      </trkpt>
      <trkpt lat="47.08251" lon="-1.26593">
        <ele>29</ele>
        <time>2019-10-11T13:24:21Z</time>
      </trkpt>
      <trkpt lat="47.08257" lon="-1.26591">
        <ele>28.6</ele>
        <time>2019-10-11T13:24:22Z</time>
      </trkpt>
      <trkpt lat="47.08263" lon="-1.26592">
        <ele>28.2</ele>
        <time>2019-10-11T13:24:23Z</time>
      </trkpt>
      <trkpt lat="47.0827" lon="-1.26596">
        <ele>27.8</ele>
        <time>2019-10-11T13:24:24Z</time>
      </trkpt>
      <trkpt lat="47.08276" lon="-1.266">
        <ele>27.1</ele>
        <time>2019-10-11T13:24:25Z</time>
      </trkpt>
      <trkpt lat="47.08281" lon="-1.26609">
        <ele>26.3</ele>
        <time>2019-10-11T13:24:26Z</time>
      </trkpt>
      <trkpt lat="47.08287" lon="-1.26617">
        <ele>25.7</ele>
        <time>2019-10-11T13:24:27Z</time>
      </trkpt>
      <trkpt lat="47.08294" lon="-1.26624">
        <ele>25.1</ele>
        <time>2019-10-11T13:24:28Z</time>
      </trkpt>
      <trkpt lat="47.08299" lon="-1.26631">
        <ele>24.6</ele>
        <time>2019-10-11T13:24:29Z</time>
      </trkpt>
      <trkpt lat="47.08302" lon="-1.26634">
        <ele>24.2</ele>
        <time>2019-10-11T13:24:30Z</time>
      </trkpt>
      <trkpt lat="47.08307" lon="-1.26635">
        <ele>23.8</ele>
        <time>2019-10-11T13:24:32Z</time>
      </trkpt>
      <trkpt lat="47.08307" lon="-1.26628">
        <ele>23.4</ele>
        <time>2019-10-11T13:24:35Z</time>
      </trkpt>
      <trkpt lat="47.08304" lon="-1.26624">
        <ele>20.2</ele>
        <time>2019-10-11T13:24:36Z</time>
      </trkpt>
      <trkpt lat="47.08302" lon="-1.26619">
        <ele>20.3</ele>
        <time>2019-10-11T13:24:37Z</time>
      </trkpt>
      <trkpt lat="47.083" lon="-1.26615">
        <ele>20.3</ele>
        <time>2019-10-11T13:24:38Z</time>
      </trkpt>
      <trkpt lat="47.08299" lon="-1.2661">
        <ele>20.5</ele>
        <time>2019-10-11T13:24:39Z</time>
      </trkpt>
      <trkpt lat="47.08301" lon="-1.26606">
        <ele>20.3</ele>
        <time>2019-10-11T13:24:40Z</time>
      </trkpt>
      <trkpt lat="47.08304" lon="-1.26603">
        <ele>20.2</ele>
        <time>2019-10-11T13:24:41Z</time>
      </trkpt>
      <trkpt lat="47.08306" lon="-1.266">
        <ele>20.1</ele>
        <time>2019-10-11T13:24:42Z</time>
      </trkpt>
      <trkpt lat="47.08308" lon="-1.26597">
        <ele>20</ele>
        <time>2019-10-11T13:24:43Z</time>
      </trkpt>
      <trkpt lat="47.08311" lon="-1.26594">
        <ele>20</ele>
        <time>2019-10-11T13:24:44Z</time>
      </trkpt>
      <trkpt lat="47.08314" lon="-1.26589">
        <ele>19.8</ele>
        <time>2019-10-11T13:24:46Z</time>
      </trkpt>
      <trkpt lat="47.08317" lon="-1.26587">
        <ele>19.7</ele>
        <time>2019-10-11T13:24:47Z</time>
      </trkpt>
      <trkpt lat="47.0832" lon="-1.26582">
        <ele>19.6</ele>
        <time>2019-10-11T13:24:49Z</time>
      </trkpt>
      <trkpt lat="47.08323" lon="-1.26578">
        <ele>19.4</ele>
        <time>2019-10-11T13:24:51Z</time>
      </trkpt>
      <trkpt lat="47.08326" lon="-1.26575">
        <ele>19.3</ele>
        <time>2019-10-11T13:24:53Z</time>
      </trkpt>
      <trkpt lat="47.08329" lon="-1.2657">
        <ele>19.2</ele>
        <time>2019-10-11T13:24:55Z</time>
      </trkpt>
      <trkpt lat="47.08331" lon="-1.26567">
        <ele>19.2</ele>
        <time>2019-10-11T13:24:57Z</time>
      </trkpt>
      <trkpt lat="47.08331" lon="-1.26561">
        <ele>19.2</ele>
        <time>2019-10-11T13:26:06Z</time>
      </trkpt>
      <trkpt lat="47.08329" lon="-1.26557">
        <ele>19.2</ele>
        <time>2019-10-11T13:26:09Z</time>
      </trkpt>
      <trkpt lat="47.08332" lon="-1.26557">
        <ele>19.5</ele>
        <time>2019-10-11T13:26:13Z</time>
      </trkpt>
      <trkpt lat="47.08336" lon="-1.2656">
        <ele>19.8</ele>
        <time>2019-10-11T13:26:16Z</time>
      </trkpt>
      <trkpt lat="47.08338" lon="-1.26558">
        <ele>20.1</ele>
        <time>2019-10-11T13:26:18Z</time>
      </trkpt>
      <trkpt lat="47.08341" lon="-1.26556">
        <ele>20.3</ele>
        <time>2019-10-11T13:26:20Z</time>
      </trkpt>
      <trkpt lat="47.08344" lon="-1.26556">
        <ele>20.6</ele>
        <time>2019-10-11T13:26:22Z</time>
      </trkpt>
      <trkpt lat="47.08349" lon="-1.26557">
        <ele>21</ele>
        <time>2019-10-11T13:26:24Z</time>
      </trkpt>
      <trkpt lat="47.08351" lon="-1.26559">
        <ele>21.2</ele>
        <time>2019-10-11T13:26:26Z</time>
      </trkpt>
      <trkpt lat="47.08355" lon="-1.26561">
        <ele>21.5</ele>
        <time>2019-10-11T13:26:28Z</time>
      </trkpt>
      <trkpt lat="47.08358" lon="-1.26563">
        <ele>21.8</ele>
        <time>2019-10-11T13:26:30Z</time>
      </trkpt>
      <trkpt lat="47.08361" lon="-1.26565">
        <ele>22.2</ele>
        <time>2019-10-11T13:26:32Z</time>
      </trkpt>
      <trkpt lat="47.08365" lon="-1.26566">
        <ele>22.6</ele>
        <time>2019-10-11T13:26:34Z</time>
      </trkpt>
      <trkpt lat="47.08368" lon="-1.26568">
        <ele>23</ele>
        <time>2019-10-11T13:26:36Z</time>
      </trkpt>
      <trkpt lat="47.08372" lon="-1.26571">
        <ele>23.4</ele>
        <time>2019-10-11T13:26:38Z</time>
      </trkpt>
      <trkpt lat="47.08376" lon="-1.26574">
        <ele>23.9</ele>
        <time>2019-10-11T13:26:40Z</time>
      </trkpt>
      <trkpt lat="47.08379" lon="-1.26576">
        <ele>24.4</ele>
        <time>2019-10-11T13:26:42Z</time>
      </trkpt>
      <trkpt lat="47.08382" lon="-1.26579">
        <ele>24.8</ele>
        <time>2019-10-11T13:26:44Z</time>
      </trkpt>
      <trkpt lat="47.08385" lon="-1.26582">
        <ele>25.2</ele>
        <time>2019-10-11T13:26:46Z</time>
      </trkpt>
      <trkpt lat="47.08388" lon="-1.26585">
        <ele>25.6</ele>
        <time>2019-10-11T13:26:48Z</time>
      </trkpt>
      <trkpt lat="47.08391" lon="-1.26586">
        <ele>25.9</ele>
        <time>2019-10-11T13:26:50Z</time>
      </trkpt>
      <trkpt lat="47.08394" lon="-1.26588">
        <ele>26.2</ele>
        <time>2019-10-11T13:26:52Z</time>
      </trkpt>
      <trkpt lat="47.08397" lon="-1.2659">
        <ele>26.5</ele>
        <time>2019-10-11T13:26:55Z</time>
      </trkpt>
      <trkpt lat="47.08399" lon="-1.26592">
        <ele>26.8</ele>
        <time>2019-10-11T13:26:58Z</time>
      </trkpt>
      <trkpt lat="47.08402" lon="-1.26594">
        <ele>27.3</ele>
        <time>2019-10-11T13:27:00Z</time>
      </trkpt>
      <trkpt lat="47.08405" lon="-1.26598">
        <ele>27.7</ele>
        <time>2019-10-11T13:27:03Z</time>
      </trkpt>
      <trkpt lat="47.08407" lon="-1.26601">
        <ele>28.3</ele>
        <time>2019-10-11T13:27:05Z</time>
      </trkpt>
      <trkpt lat="47.0841" lon="-1.26604">
        <ele>28.8</ele>
        <time>2019-10-11T13:27:07Z</time>
      </trkpt>
      <trkpt lat="47.08414" lon="-1.26607">
        <ele>29.1</ele>
        <time>2019-10-11T13:27:09Z</time>
      </trkpt>
      <trkpt lat="47.08419" lon="-1.26611">
        <ele>29.6</ele>
        <time>2019-10-11T13:27:17Z</time>
      </trkpt>
      <trkpt lat="47.08421" lon="-1.26614">
        <ele>29.9</ele>
        <time>2019-10-11T13:27:19Z</time>
      </trkpt>
      <trkpt lat="47.08424" lon="-1.26617">
        <ele>30.3</ele>
        <time>2019-10-11T13:27:22Z</time>
      </trkpt>
      <trkpt lat="47.08427" lon="-1.26621">
        <ele>30.7</ele>
        <time>2019-10-11T13:27:25Z</time>
      </trkpt>
      <trkpt lat="47.08429" lon="-1.26624">
        <ele>31.1</ele>
        <time>2019-10-11T13:27:27Z</time>
      </trkpt>
      <trkpt lat="47.08432" lon="-1.26627">
        <ele>31.4</ele>
        <time>2019-10-11T13:27:29Z</time>
      </trkpt>
      <trkpt lat="47.08434" lon="-1.2663">
        <ele>31.7</ele>
        <time>2019-10-11T13:27:30Z</time>
      </trkpt>
      <trkpt lat="47.08439" lon="-1.26634">
        <ele>32.2</ele>
        <time>2019-10-11T13:27:32Z</time>
      </trkpt>
      <trkpt lat="47.08441" lon="-1.26636">
        <ele>32.4</ele>
        <time>2019-10-11T13:27:33Z</time>
      </trkpt>
      <trkpt lat="47.08444" lon="-1.26638">
        <ele>32.6</ele>
        <time>2019-10-11T13:27:34Z</time>
      </trkpt>
      <trkpt lat="47.08448" lon="-1.2664">
        <ele>32.9</ele>
        <time>2019-10-11T13:27:36Z</time>
      </trkpt>
      <trkpt lat="47.08452" lon="-1.26644">
        <ele>33.3</ele>
        <time>2019-10-11T13:27:38Z</time>
      </trkpt>
      <trkpt lat="47.08456" lon="-1.26647">
        <ele>33.5</ele>
        <time>2019-10-11T13:27:40Z</time>
      </trkpt>
      <trkpt lat="47.0846" lon="-1.26649">
        <ele>33.7</ele>
        <time>2019-10-11T13:27:43Z</time>
      </trkpt>
      <trkpt lat="47.08464" lon="-1.26651">
        <ele>33.9</ele>
        <time>2019-10-11T13:27:45Z</time>
      </trkpt>
      <trkpt lat="47.08468" lon="-1.26654">
        <ele>34.1</ele>
        <time>2019-10-11T13:27:47Z</time>
      </trkpt>
      <trkpt lat="47.08472" lon="-1.26657">
        <ele>34.2</ele>
        <time>2019-10-11T13:27:48Z</time>
      </trkpt>
      <trkpt lat="47.08475" lon="-1.26659">
        <ele>34.3</ele>
        <time>2019-10-11T13:27:50Z</time>
      </trkpt>
      <trkpt lat="47.0848" lon="-1.26657">
        <ele>34.4</ele>
        <time>2019-10-11T13:27:54Z</time>
      </trkpt>
      <trkpt lat="47.08483" lon="-1.26656">
        <ele>34.4</ele>
        <time>2019-10-11T13:27:56Z</time>
      </trkpt>
      <trkpt lat="47.08485" lon="-1.26654">
        <ele>34.5</ele>
        <time>2019-10-11T13:27:58Z</time>
      </trkpt>
      <trkpt lat="47.08489" lon="-1.26652">
        <ele>34.5</ele>
        <time>2019-10-11T13:28:00Z</time>
      </trkpt>
      <trkpt lat="47.08493" lon="-1.26649">
        <ele>34.6</ele>
        <time>2019-10-11T13:28:03Z</time>
      </trkpt>
      <trkpt lat="47.08496" lon="-1.26647">
        <ele>34.7</ele>
        <time>2019-10-11T13:28:06Z</time>
      </trkpt>
      <trkpt lat="47.08498" lon="-1.26644">
        <ele>34.8</ele>
        <time>2019-10-11T13:28:07Z</time>
      </trkpt>
      <trkpt lat="47.08501" lon="-1.26642">
        <ele>34.8</ele>
        <time>2019-10-11T13:28:10Z</time>
      </trkpt>
      <trkpt lat="47.08505" lon="-1.26639">
        <ele>34.9</ele>
        <time>2019-10-11T13:28:12Z</time>
      </trkpt>
      <trkpt lat="47.08509" lon="-1.26635">
        <ele>35.1</ele>
        <time>2019-10-11T13:28:14Z</time>
      </trkpt>
      <trkpt lat="47.08512" lon="-1.26631">
        <ele>35.2</ele>
        <time>2019-10-11T13:28:16Z</time>
      </trkpt>
      <trkpt lat="47.08516" lon="-1.26626">
        <ele>35.3</ele>
        <time>2019-10-11T13:28:18Z</time>
      </trkpt>
      <trkpt lat="47.0852" lon="-1.26622">
        <ele>35.4</ele>
        <time>2019-10-11T13:28:20Z</time>
      </trkpt>
      <trkpt lat="47.08523" lon="-1.2662">
        <ele>35.5</ele>
        <time>2019-10-11T13:28:22Z</time>
      </trkpt>
      <trkpt lat="47.08527" lon="-1.26616">
        <ele>35.6</ele>
        <time>2019-10-11T13:28:24Z</time>
      </trkpt>
      <trkpt lat="47.0853" lon="-1.26613">
        <ele>35.7</ele>
        <time>2019-10-11T13:28:26Z</time>
      </trkpt>
      <trkpt lat="47.08534" lon="-1.2661">
        <ele>35.9</ele>
        <time>2019-10-11T13:28:28Z</time>
      </trkpt>
      <trkpt lat="47.08538" lon="-1.26607">
        <ele>36.2</ele>
        <time>2019-10-11T13:28:30Z</time>
      </trkpt>
      <trkpt lat="47.08541" lon="-1.26605">
        <ele>36.4</ele>
        <time>2019-10-11T13:28:32Z</time>
      </trkpt>
      <trkpt lat="47.08545" lon="-1.26601">
        <ele>36.5</ele>
        <time>2019-10-11T13:28:34Z</time>
      </trkpt>
      <trkpt lat="47.0855" lon="-1.26597">
        <ele>36.7</ele>
        <time>2019-10-11T13:28:36Z</time>
      </trkpt>
      <trkpt lat="47.08554" lon="-1.26593">
        <ele>36.9</ele>
        <time>2019-10-11T13:28:38Z</time>
      </trkpt>
      <trkpt lat="47.08556" lon="-1.26591">
        <ele>37</ele>
        <time>2019-10-11T13:28:39Z</time>
      </trkpt>
      <trkpt lat="47.08561" lon="-1.26585">
        <ele>37.2</ele>
        <time>2019-10-11T13:28:41Z</time>
      </trkpt>
      <trkpt lat="47.08564" lon="-1.2658">
        <ele>37.5</ele>
        <time>2019-10-11T13:28:44Z</time>
      </trkpt>
      <trkpt lat="47.08564" lon="-1.26573">
        <ele>37.5</ele>
        <time>2019-10-11T13:28:46Z</time>
      </trkpt>
      <trkpt lat="47.08564" lon="-1.26569">
        <ele>37.6</ele>
        <time>2019-10-11T13:28:48Z</time>
      </trkpt>
      <trkpt lat="47.08564" lon="-1.26564">
        <ele>37.6</ele>
        <time>2019-10-11T13:28:50Z</time>
      </trkpt>
      <trkpt lat="47.08565" lon="-1.2656">
        <ele>37.7</ele>
        <time>2019-10-11T13:28:53Z</time>
      </trkpt>
      <trkpt lat="47.08567" lon="-1.26557">
        <ele>37.7</ele>
        <time>2019-10-11T13:28:54Z</time>
      </trkpt>
      <trkpt lat="47.0857" lon="-1.26556">
        <ele>37.7</ele>
        <time>2019-10-11T13:28:55Z</time>
      </trkpt>
      <trkpt lat="47.08573" lon="-1.26554">
        <ele>37.8</ele>
        <time>2019-10-11T13:28:56Z</time>
      </trkpt>
      <trkpt lat="47.08576" lon="-1.26553">
        <ele>37.8</ele>
        <time>2019-10-11T13:28:57Z</time>
      </trkpt>
      <trkpt lat="47.0858" lon="-1.26552">
        <ele>37.9</ele>
        <time>2019-10-11T13:28:58Z</time>
      </trkpt>
      <trkpt lat="47.08583" lon="-1.26551">
        <ele>37.9</ele>
        <time>2019-10-11T13:28:59Z</time>
      </trkpt>
      <trkpt lat="47.08586" lon="-1.26551">
        <ele>38.1</ele>
        <time>2019-10-11T13:29:00Z</time>
      </trkpt>
      <trkpt lat="47.08589" lon="-1.26548">
        <ele>38.1</ele>
        <time>2019-10-11T13:29:01Z</time>
      </trkpt>
      <trkpt lat="47.08591" lon="-1.26546">
        <ele>38.2</ele>
        <time>2019-10-11T13:29:02Z</time>
      </trkpt>
      <trkpt lat="47.08595" lon="-1.26542">
        <ele>38.4</ele>
        <time>2019-10-11T13:29:04Z</time>
      </trkpt>
      <trkpt lat="47.08599" lon="-1.26536">
        <ele>38.5</ele>
        <time>2019-10-11T13:29:06Z</time>
      </trkpt>
      <trkpt lat="47.08601" lon="-1.26532">
        <ele>38.6</ele>
        <time>2019-10-11T13:29:07Z</time>
      </trkpt>
      <trkpt lat="47.08604" lon="-1.26525">
        <ele>38.6</ele>
        <time>2019-10-11T13:29:09Z</time>
      </trkpt>
      <trkpt lat="47.08605" lon="-1.26522">
        <ele>38.7</ele>
        <time>2019-10-11T13:29:10Z</time>
      </trkpt>
      <trkpt lat="47.08607" lon="-1.26518">
        <ele>38.7</ele>
        <time>2019-10-11T13:29:11Z</time>
      </trkpt>
      <trkpt lat="47.08609" lon="-1.26515">
        <ele>38.8</ele>
        <time>2019-10-11T13:29:12Z</time>
      </trkpt>
      <trkpt lat="47.08611" lon="-1.2651">
        <ele>38.8</ele>
        <time>2019-10-11T13:29:13Z</time>
      </trkpt>
      <trkpt lat="47.08612" lon="-1.26507">
        <ele>38.9</ele>
        <time>2019-10-11T13:29:14Z</time>
      </trkpt>
      <trkpt lat="47.08614" lon="-1.26503">
        <ele>38.9</ele>
        <time>2019-10-11T13:29:15Z</time>
      </trkpt>
      <trkpt lat="47.08617" lon="-1.26497">
        <ele>39</ele>
        <time>2019-10-11T13:29:17Z</time>
      </trkpt>
      <trkpt lat="47.0862" lon="-1.26491">
        <ele>39.1</ele>
        <time>2019-10-11T13:29:19Z</time>
      </trkpt>
      <trkpt lat="47.08623" lon="-1.26484">
        <ele>39.2</ele>
        <time>2019-10-11T13:29:21Z</time>
      </trkpt>
      <trkpt lat="47.08625" lon="-1.26479">
        <ele>39.3</ele>
        <time>2019-10-11T13:29:23Z</time>
      </trkpt>
      <trkpt lat="47.08628" lon="-1.26477">
        <ele>39.4</ele>
        <time>2019-10-11T13:29:25Z</time>
      </trkpt>
      <trkpt lat="47.08633" lon="-1.26481">
        <ele>39.4</ele>
        <time>2019-10-11T13:29:27Z</time>
      </trkpt>
      <trkpt lat="47.08638" lon="-1.26485">
        <ele>39.5</ele>
        <time>2019-10-11T13:29:29Z</time>
      </trkpt>
      <trkpt lat="47.08639" lon="-1.26488">
        <ele>39.5</ele>
        <time>2019-10-11T13:29:30Z</time>
      </trkpt>
      <trkpt lat="47.08641" lon="-1.26491">
        <ele>39.6</ele>
        <time>2019-10-11T13:29:31Z</time>
      </trkpt>
      <trkpt lat="47.08644" lon="-1.26495">
        <ele>39.6</ele>
        <time>2019-10-11T13:29:32Z</time>
      </trkpt>
      <trkpt lat="47.08646" lon="-1.26498">
        <ele>39.6</ele>
        <time>2019-10-11T13:29:33Z</time>
      </trkpt>
      <trkpt lat="47.0865" lon="-1.26503">
        <ele>39.6</ele>
        <time>2019-10-11T13:29:35Z</time>
      </trkpt>
      <trkpt lat="47.08654" lon="-1.26508">
        <ele>39.5</ele>
        <time>2019-10-11T13:29:37Z</time>
      </trkpt>
      <trkpt lat="47.08656" lon="-1.26511">
        <ele>39.5</ele>
        <time>2019-10-11T13:29:38Z</time>
      </trkpt>
      <trkpt lat="47.08658" lon="-1.26514">
        <ele>39.5</ele>
        <time>2019-10-11T13:29:39Z</time>
      </trkpt>
      <trkpt lat="47.0866" lon="-1.26517">
        <ele>39.5</ele>
        <time>2019-10-11T13:29:40Z</time>
      </trkpt>
      <trkpt lat="47.08663" lon="-1.2652">
        <ele>39.4</ele>
        <time>2019-10-11T13:29:41Z</time>
      </trkpt>
      <trkpt lat="47.08665" lon="-1.26523">
        <ele>39.4</ele>
        <time>2019-10-11T13:29:42Z</time>
      </trkpt>
      <trkpt lat="47.08667" lon="-1.26525">
        <ele>39.3</ele>
        <time>2019-10-11T13:29:43Z</time>
      </trkpt>
      <trkpt lat="47.08669" lon="-1.26528">
        <ele>39.2</ele>
        <time>2019-10-11T13:29:44Z</time>
      </trkpt>
      <trkpt lat="47.08672" lon="-1.26531">
        <ele>39.3</ele>
        <time>2019-10-11T13:29:45Z</time>
      </trkpt>
      <trkpt lat="47.08674" lon="-1.26534">
        <ele>39.2</ele>
        <time>2019-10-11T13:29:46Z</time>
      </trkpt>
      <trkpt lat="47.08677" lon="-1.26537">
        <ele>39.1</ele>
        <time>2019-10-11T13:29:47Z</time>
      </trkpt>
      <trkpt lat="47.08679" lon="-1.2654">
        <ele>39.1</ele>
        <time>2019-10-11T13:29:48Z</time>
      </trkpt>
      <trkpt lat="47.08682" lon="-1.26543">
        <ele>39</ele>
        <time>2019-10-11T13:29:49Z</time>
      </trkpt>
      <trkpt lat="47.08684" lon="-1.26546">
        <ele>38.9</ele>
        <time>2019-10-11T13:29:50Z</time>
      </trkpt>
      <trkpt lat="47.08687" lon="-1.26549">
        <ele>38.8</ele>
        <time>2019-10-11T13:29:51Z</time>
      </trkpt>
      <trkpt lat="47.08689" lon="-1.26552">
        <ele>38.8</ele>
        <time>2019-10-11T13:29:52Z</time>
      </trkpt>
      <trkpt lat="47.08692" lon="-1.26555">
        <ele>38.8</ele>
        <time>2019-10-11T13:29:53Z</time>
      </trkpt>
      <trkpt lat="47.08694" lon="-1.26558">
        <ele>38.7</ele>
        <time>2019-10-11T13:29:54Z</time>
      </trkpt>
      <trkpt lat="47.08697" lon="-1.26561">
        <ele>38.7</ele>
        <time>2019-10-11T13:29:55Z</time>
      </trkpt>
      <trkpt lat="47.087" lon="-1.26564">
        <ele>38.6</ele>
        <time>2019-10-11T13:29:56Z</time>
      </trkpt>
      <trkpt lat="47.08703" lon="-1.26567">
        <ele>38.6</ele>
        <time>2019-10-11T13:29:57Z</time>
      </trkpt>
      <trkpt lat="47.08705" lon="-1.2657">
        <ele>38.6</ele>
        <time>2019-10-11T13:29:58Z</time>
      </trkpt>
      <trkpt lat="47.08707" lon="-1.26572">
        <ele>38.5</ele>
        <time>2019-10-11T13:29:59Z</time>
      </trkpt>
      <trkpt lat="47.0871" lon="-1.26575">
        <ele>38.5</ele>
        <time>2019-10-11T13:30:00Z</time>
      </trkpt>
      <trkpt lat="47.08712" lon="-1.26577">
        <ele>38.5</ele>
        <time>2019-10-11T13:30:01Z</time>
      </trkpt>
      <trkpt lat="47.08714" lon="-1.26581">
        <ele>38.4</ele>
        <time>2019-10-11T13:30:02Z</time>
      </trkpt>
      <trkpt lat="47.08717" lon="-1.26584">
        <ele>38.3</ele>
        <time>2019-10-11T13:30:03Z</time>
      </trkpt>
      <trkpt lat="47.08719" lon="-1.26587">
        <ele>38.3</ele>
        <time>2019-10-11T13:30:04Z</time>
      </trkpt>
      <trkpt lat="47.08722" lon="-1.2659">
        <ele>38.3</ele>
        <time>2019-10-11T13:30:05Z</time>
      </trkpt>
      <trkpt lat="47.08724" lon="-1.26593">
        <ele>38.2</ele>
        <time>2019-10-11T13:30:06Z</time>
      </trkpt>
      <trkpt lat="47.08726" lon="-1.26596">
        <ele>38.1</ele>
        <time>2019-10-11T13:30:07Z</time>
      </trkpt>
      <trkpt lat="47.08729" lon="-1.266">
        <ele>38.1</ele>
        <time>2019-10-11T13:30:08Z</time>
      </trkpt>
      <trkpt lat="47.08731" lon="-1.26604">
        <ele>38</ele>
        <time>2019-10-11T13:30:09Z</time>
      </trkpt>
      <trkpt lat="47.08734" lon="-1.26607">
        <ele>37.9</ele>
        <time>2019-10-11T13:30:10Z</time>
      </trkpt>
      <trkpt lat="47.08736" lon="-1.2661">
        <ele>37.9</ele>
        <time>2019-10-11T13:30:11Z</time>
      </trkpt>
      <trkpt lat="47.08739" lon="-1.26613">
        <ele>37.7</ele>
        <time>2019-10-11T13:30:12Z</time>
      </trkpt>
      <trkpt lat="47.08741" lon="-1.26617">
        <ele>37.7</ele>
        <time>2019-10-11T13:30:13Z</time>
      </trkpt>
      <trkpt lat="47.08744" lon="-1.26621">
        <ele>37.5</ele>
        <time>2019-10-11T13:30:14Z</time>
      </trkpt>
      <trkpt lat="47.08746" lon="-1.26624">
        <ele>37.3</ele>
        <time>2019-10-11T13:30:15Z</time>
      </trkpt>
      <trkpt lat="47.08748" lon="-1.26627">
        <ele>37.2</ele>
        <time>2019-10-11T13:30:16Z</time>
      </trkpt>
      <trkpt lat="47.0875" lon="-1.2663">
        <ele>37.1</ele>
        <time>2019-10-11T13:30:17Z</time>
      </trkpt>
      <trkpt lat="47.08753" lon="-1.26635">
        <ele>36.7</ele>
        <time>2019-10-11T13:30:19Z</time>
      </trkpt>
      <trkpt lat="47.08756" lon="-1.2664">
        <ele>36.5</ele>
        <time>2019-10-11T13:30:21Z</time>
      </trkpt>
      <trkpt lat="47.08758" lon="-1.26647">
        <ele>36.2</ele>
        <time>2019-10-11T13:30:23Z</time>
      </trkpt>
      <trkpt lat="47.08762" lon="-1.26648">
        <ele>35.9</ele>
        <time>2019-10-11T13:30:25Z</time>
      </trkpt>
      <trkpt lat="47.08765" lon="-1.26645">
        <ele>35.9</ele>
        <time>2019-10-11T13:30:26Z</time>
      </trkpt>
      <trkpt lat="47.08767" lon="-1.26641">
        <ele>36</ele>
        <time>2019-10-11T13:30:27Z</time>
      </trkpt>
      <trkpt lat="47.0877" lon="-1.26637">
        <ele>36</ele>
        <time>2019-10-11T13:30:28Z</time>
      </trkpt>
      <trkpt lat="47.08772" lon="-1.26633">
        <ele>36.1</ele>
        <time>2019-10-11T13:30:29Z</time>
      </trkpt>
      <trkpt lat="47.08774" lon="-1.26629">
        <ele>36.2</ele>
        <time>2019-10-11T13:30:30Z</time>
      </trkpt>
      <trkpt lat="47.08777" lon="-1.26625">
        <ele>36.3</ele>
        <time>2019-10-11T13:30:31Z</time>
      </trkpt>
      <trkpt lat="47.08779" lon="-1.26621">
        <ele>36.4</ele>
        <time>2019-10-11T13:30:32Z</time>
      </trkpt>
      <trkpt lat="47.08781" lon="-1.26618">
        <ele>36.5</ele>
        <time>2019-10-11T13:30:33Z</time>
      </trkpt>
      <trkpt lat="47.08784" lon="-1.26614">
        <ele>36.5</ele>
        <time>2019-10-11T13:30:34Z</time>
      </trkpt>
      <trkpt lat="47.08787" lon="-1.2661">
        <ele>36.6</ele>
        <time>2019-10-11T13:30:35Z</time>
      </trkpt>
      <trkpt lat="47.08789" lon="-1.26606">
        <ele>36.7</ele>
        <time>2019-10-11T13:30:36Z</time>
      </trkpt>
      <trkpt lat="47.08792" lon="-1.26602">
        <ele>36.7</ele>
        <time>2019-10-11T13:30:37Z</time>
      </trkpt>
      <trkpt lat="47.08795" lon="-1.26597">
        <ele>36.8</ele>
        <time>2019-10-11T13:30:38Z</time>
      </trkpt>
      <trkpt lat="47.08798" lon="-1.26593">
        <ele>36.8</ele>
        <time>2019-10-11T13:30:39Z</time>
      </trkpt>
      <trkpt lat="47.08801" lon="-1.2659">
        <ele>36.8</ele>
        <time>2019-10-11T13:30:40Z</time>
      </trkpt>
      <trkpt lat="47.08804" lon="-1.26586">
        <ele>36.8</ele>
        <time>2019-10-11T13:30:41Z</time>
      </trkpt>
      <trkpt lat="47.08807" lon="-1.26583">
        <ele>36.8</ele>
        <time>2019-10-11T13:30:42Z</time>
      </trkpt>
      <trkpt lat="47.0881" lon="-1.26579">
        <ele>36.8</ele>
        <time>2019-10-11T13:30:43Z</time>
      </trkpt>
      <trkpt lat="47.08814" lon="-1.26576">
        <ele>36.8</ele>
        <time>2019-10-11T13:30:44Z</time>
      </trkpt>
      <trkpt lat="47.08817" lon="-1.26573">
        <ele>36.8</ele>
        <time>2019-10-11T13:30:45Z</time>
      </trkpt>
      <trkpt lat="47.08819" lon="-1.26569">
        <ele>36.8</ele>
        <time>2019-10-11T13:30:46Z</time>
      </trkpt>
      <trkpt lat="47.08822" lon="-1.26566">
        <ele>36.8</ele>
        <time>2019-10-11T13:30:47Z</time>
      </trkpt>
      <trkpt lat="47.08825" lon="-1.26562">
        <ele>36.8</ele>
        <time>2019-10-11T13:30:48Z</time>
      </trkpt>
      <trkpt lat="47.08828" lon="-1.26558">
        <ele>36.8</ele>
        <time>2019-10-11T13:30:49Z</time>
      </trkpt>
      <trkpt lat="47.08831" lon="-1.26554">
        <ele>36.8</ele>
        <time>2019-10-11T13:30:50Z</time>
      </trkpt>
      <trkpt lat="47.08834" lon="-1.2655">
        <ele>36.8</ele>
        <time>2019-10-11T13:30:51Z</time>
      </trkpt>
      <trkpt lat="47.08837" lon="-1.26546">
        <ele>36.7</ele>
        <time>2019-10-11T13:30:52Z</time>
      </trkpt>
      <trkpt lat="47.0884" lon="-1.26541">
        <ele>36.7</ele>
        <time>2019-10-11T13:30:53Z</time>
      </trkpt>
      <trkpt lat="47.08844" lon="-1.26537">
        <ele>36.6</ele>
        <time>2019-10-11T13:30:54Z</time>
      </trkpt>
      <trkpt lat="47.08847" lon="-1.26533">
        <ele>36.6</ele>
        <time>2019-10-11T13:30:55Z</time>
      </trkpt>
      <trkpt lat="47.0885" lon="-1.26528">
        <ele>36.4</ele>
        <time>2019-10-11T13:30:56Z</time>
      </trkpt>
      <trkpt lat="47.08852" lon="-1.26524">
        <ele>36.2</ele>
        <time>2019-10-11T13:30:57Z</time>
      </trkpt>
      <trkpt lat="47.08855" lon="-1.26519">
        <ele>36</ele>
        <time>2019-10-11T13:30:58Z</time>
      </trkpt>
      <trkpt lat="47.08858" lon="-1.26515">
        <ele>35.9</ele>
        <time>2019-10-11T13:30:59Z</time>
      </trkpt>
      <trkpt lat="47.08861" lon="-1.2651">
        <ele>35.9</ele>
        <time>2019-10-11T13:31:00Z</time>
      </trkpt>
      <trkpt lat="47.08863" lon="-1.26506">
        <ele>35.8</ele>
        <time>2019-10-11T13:31:01Z</time>
      </trkpt>
      <trkpt lat="47.08865" lon="-1.26501">
        <ele>35.8</ele>
        <time>2019-10-11T13:31:02Z</time>
      </trkpt>
      <trkpt lat="47.08867" lon="-1.26497">
        <ele>35.7</ele>
        <time>2019-10-11T13:31:03Z</time>
      </trkpt>
      <trkpt lat="47.08869" lon="-1.26492">
        <ele>35.7</ele>
        <time>2019-10-11T13:31:04Z</time>
      </trkpt>
      <trkpt lat="47.08872" lon="-1.26487">
        <ele>35.7</ele>
        <time>2019-10-11T13:31:05Z</time>
      </trkpt>
      <trkpt lat="47.08874" lon="-1.26482">
        <ele>35.7</ele>
        <time>2019-10-11T13:31:06Z</time>
      </trkpt>
      <trkpt lat="47.08876" lon="-1.26477">
        <ele>35.7</ele>
        <time>2019-10-11T13:31:07Z</time>
      </trkpt>
      <trkpt lat="47.08878" lon="-1.26472">
        <ele>35.7</ele>
        <time>2019-10-11T13:31:08Z</time>
      </trkpt>
      <trkpt lat="47.0888" lon="-1.26467">
        <ele>35.6</ele>
        <time>2019-10-11T13:31:09Z</time>
      </trkpt>
      <trkpt lat="47.08883" lon="-1.26462">
        <ele>35.6</ele>
        <time>2019-10-11T13:31:10Z</time>
      </trkpt>
      <trkpt lat="47.08886" lon="-1.26458">
        <ele>35.5</ele>
        <time>2019-10-11T13:31:11Z</time>
      </trkpt>
      <trkpt lat="47.08888" lon="-1.26453">
        <ele>35.4</ele>
        <time>2019-10-11T13:31:12Z</time>
      </trkpt>
      <trkpt lat="47.0889" lon="-1.26448">
        <ele>35.3</ele>
        <time>2019-10-11T13:31:13Z</time>
      </trkpt>
      <trkpt lat="47.08893" lon="-1.26443">
        <ele>35.2</ele>
        <time>2019-10-11T13:31:14Z</time>
      </trkpt>
      <trkpt lat="47.08896" lon="-1.26438">
        <ele>35.1</ele>
        <time>2019-10-11T13:31:15Z</time>
      </trkpt>
      <trkpt lat="47.08898" lon="-1.26434">
        <ele>35</ele>
        <time>2019-10-11T13:31:16Z</time>
      </trkpt>
      <trkpt lat="47.08901" lon="-1.26429">
        <ele>34.9</ele>
        <time>2019-10-11T13:31:17Z</time>
      </trkpt>
      <trkpt lat="47.08903" lon="-1.26424">
        <ele>34.9</ele>
        <time>2019-10-11T13:31:18Z</time>
      </trkpt>
      <trkpt lat="47.08906" lon="-1.26419">
        <ele>34.8</ele>
        <time>2019-10-11T13:31:19Z</time>
      </trkpt>
      <trkpt lat="47.08908" lon="-1.26415">
        <ele>34.7</ele>
        <time>2019-10-11T13:31:20Z</time>
      </trkpt>
      <trkpt lat="47.0891" lon="-1.2641">
        <ele>34.7</ele>
        <time>2019-10-11T13:31:21Z</time>
      </trkpt>
      <trkpt lat="47.08912" lon="-1.26405">
        <ele>34.6</ele>
        <time>2019-10-11T13:31:22Z</time>
      </trkpt>
      <trkpt lat="47.08915" lon="-1.264">
        <ele>34.5</ele>
        <time>2019-10-11T13:31:23Z</time>
      </trkpt>
      <trkpt lat="47.08917" lon="-1.26395">
        <ele>34.3</ele>
        <time>2019-10-11T13:31:24Z</time>
      </trkpt>
      <trkpt lat="47.08919" lon="-1.2639">
        <ele>34.2</ele>
        <time>2019-10-11T13:31:25Z</time>
      </trkpt>
      <trkpt lat="47.08921" lon="-1.26385">
        <ele>34.1</ele>
        <time>2019-10-11T13:31:26Z</time>
      </trkpt>
      <trkpt lat="47.08923" lon="-1.2638">
        <ele>33.9</ele>
        <time>2019-10-11T13:31:27Z</time>
      </trkpt>
      <trkpt lat="47.08924" lon="-1.26375">
        <ele>33.8</ele>
        <time>2019-10-11T13:31:28Z</time>
      </trkpt>
      <trkpt lat="47.08926" lon="-1.2637">
        <ele>33.7</ele>
        <time>2019-10-11T13:31:29Z</time>
      </trkpt>
      <trkpt lat="47.08928" lon="-1.26365">
        <ele>33.6</ele>
        <time>2019-10-11T13:31:30Z</time>
      </trkpt>
      <trkpt lat="47.0893" lon="-1.26359">
        <ele>33.5</ele>
        <time>2019-10-11T13:31:31Z</time>
      </trkpt>
      <trkpt lat="47.08932" lon="-1.26354">
        <ele>33.5</ele>
        <time>2019-10-11T13:31:32Z</time>
      </trkpt>
      <trkpt lat="47.08933" lon="-1.26349">
        <ele>33.4</ele>
        <time>2019-10-11T13:31:33Z</time>
      </trkpt>
      <trkpt lat="47.08935" lon="-1.26343">
        <ele>33.3</ele>
        <time>2019-10-11T13:31:34Z</time>
      </trkpt>
      <trkpt lat="47.08937" lon="-1.26338">
        <ele>33.3</ele>
        <time>2019-10-11T13:31:35Z</time>
      </trkpt>
      <trkpt lat="47.08938" lon="-1.26332">
        <ele>33.2</ele>
        <time>2019-10-11T13:31:36Z</time>
      </trkpt>
      <trkpt lat="47.0894" lon="-1.26326">
        <ele>33.2</ele>
        <time>2019-10-11T13:31:37Z</time>
      </trkpt>
      <trkpt lat="47.08942" lon="-1.2632">
        <ele>33.1</ele>
        <time>2019-10-11T13:31:38Z</time>
      </trkpt>
      <trkpt lat="47.08944" lon="-1.26315">
        <ele>33.1</ele>
        <time>2019-10-11T13:31:39Z</time>
      </trkpt>
      <trkpt lat="47.08945" lon="-1.26309">
        <ele>33</ele>
        <time>2019-10-11T13:31:40Z</time>
      </trkpt>
      <trkpt lat="47.08946" lon="-1.26303">
        <ele>32.9</ele>
        <time>2019-10-11T13:31:41Z</time>
      </trkpt>
      <trkpt lat="47.08947" lon="-1.26298">
        <ele>32.8</ele>
        <time>2019-10-11T13:31:42Z</time>
      </trkpt>
      <trkpt lat="47.08948" lon="-1.26293">
        <ele>32.8</ele>
        <time>2019-10-11T13:31:43Z</time>
      </trkpt>
      <trkpt lat="47.08949" lon="-1.26289">
        <ele>32.7</ele>
        <time>2019-10-11T13:31:44Z</time>
      </trkpt>
      <trkpt lat="47.08951" lon="-1.26282">
        <ele>32.7</ele>
        <time>2019-10-11T13:31:46Z</time>
      </trkpt>
      <trkpt lat="47.08952" lon="-1.26278">
        <ele>32.6</ele>
        <time>2019-10-11T13:31:47Z</time>
      </trkpt>
      <trkpt lat="47.08954" lon="-1.26272">
        <ele>32.5</ele>
        <time>2019-10-11T13:31:49Z</time>
      </trkpt>
      <trkpt lat="47.08957" lon="-1.26268">
        <ele>32.4</ele>
        <time>2019-10-11T13:31:51Z</time>
      </trkpt>
      <trkpt lat="47.0896" lon="-1.26267">
        <ele>32.3</ele>
        <time>2019-10-11T13:31:53Z</time>
      </trkpt>
      <trkpt lat="47.08961" lon="-1.26271">
        <ele>32.3</ele>
        <time>2019-10-11T13:32:12Z</time>
      </trkpt>
      <trkpt lat="47.08961" lon="-1.26275">
        <ele>32.2</ele>
        <time>2019-10-11T13:32:14Z</time>
      </trkpt>
      <trkpt lat="47.0896" lon="-1.2628">
        <ele>32.2</ele>
        <time>2019-10-11T13:32:16Z</time>
      </trkpt>
      <trkpt lat="47.08958" lon="-1.26287">
        <ele>32.5</ele>
        <time>2019-10-11T13:32:18Z</time>
      </trkpt>
      <trkpt lat="47.08958" lon="-1.26294">
        <ele>32.4</ele>
        <time>2019-10-11T13:32:20Z</time>
      </trkpt>
      <trkpt lat="47.08958" lon="-1.26299">
        <ele>32.4</ele>
        <time>2019-10-11T13:32:22Z</time>
      </trkpt>
      <trkpt lat="47.0896" lon="-1.26303">
        <ele>32</ele>
        <time>2019-10-11T13:32:24Z</time>
      </trkpt>
      <trkpt lat="47.08963" lon="-1.26305">
        <ele>31.5</ele>
        <time>2019-10-11T13:32:26Z</time>
      </trkpt>
      <trkpt lat="47.08966" lon="-1.26308">
        <ele>31.2</ele>
        <time>2019-10-11T13:32:28Z</time>
      </trkpt>
      <trkpt lat="47.08969" lon="-1.2631">
        <ele>30.8</ele>
        <time>2019-10-11T13:32:30Z</time>
      </trkpt>
      <trkpt lat="47.08973" lon="-1.26313">
        <ele>30.4</ele>
        <time>2019-10-11T13:32:32Z</time>
      </trkpt>
      <trkpt lat="47.08977" lon="-1.26315">
        <ele>29.8</ele>
        <time>2019-10-11T13:32:34Z</time>
      </trkpt>
      <trkpt lat="47.0898" lon="-1.26318">
        <ele>29.5</ele>
        <time>2019-10-11T13:32:36Z</time>
      </trkpt>
      <trkpt lat="47.08983" lon="-1.2632">
        <ele>29.2</ele>
        <time>2019-10-11T13:32:38Z</time>
      </trkpt>
      <trkpt lat="47.08987" lon="-1.26324">
        <ele>29</ele>
        <time>2019-10-11T13:32:40Z</time>
      </trkpt>
      <trkpt lat="47.0899" lon="-1.26326">
        <ele>28.7</ele>
        <time>2019-10-11T13:32:42Z</time>
      </trkpt>
      <trkpt lat="47.08995" lon="-1.26329">
        <ele>28.2</ele>
        <time>2019-10-11T13:32:44Z</time>
      </trkpt>
      <trkpt lat="47.08998" lon="-1.26332">
        <ele>28</ele>
        <time>2019-10-11T13:32:45Z</time>
      </trkpt>
      <trkpt lat="47.09001" lon="-1.26334">
        <ele>27.7</ele>
        <time>2019-10-11T13:32:46Z</time>
      </trkpt>
      <trkpt lat="47.09004" lon="-1.26336">
        <ele>27.4</ele>
        <time>2019-10-11T13:32:47Z</time>
      </trkpt>
      <trkpt lat="47.09007" lon="-1.26339">
        <ele>27.2</ele>
        <time>2019-10-11T13:32:48Z</time>
      </trkpt>
      <trkpt lat="47.09011" lon="-1.26341">
        <ele>27</ele>
        <time>2019-10-11T13:32:49Z</time>
      </trkpt>
      <trkpt lat="47.09013" lon="-1.26344">
        <ele>26.9</ele>
        <time>2019-10-11T13:32:50Z</time>
      </trkpt>
      <trkpt lat="47.09015" lon="-1.26349">
        <ele>26.8</ele>
        <time>2019-10-11T13:32:51Z</time>
      </trkpt>
      <trkpt lat="47.09018" lon="-1.26355">
        <ele>26.7</ele>
        <time>2019-10-11T13:32:52Z</time>
      </trkpt>
      <trkpt lat="47.09022" lon="-1.26359">
        <ele>26.6</ele>
        <time>2019-10-11T13:32:53Z</time>
      </trkpt>
      <trkpt lat="47.09026" lon="-1.2636">
        <ele>26.4</ele>
        <time>2019-10-11T13:32:54Z</time>
      </trkpt>
      <trkpt lat="47.0903" lon="-1.26362">
        <ele>26.4</ele>
        <time>2019-10-11T13:32:55Z</time>
      </trkpt>
      <trkpt lat="47.09033" lon="-1.26364">
        <ele>26.2</ele>
        <time>2019-10-11T13:32:56Z</time>
      </trkpt>
      <trkpt lat="47.09036" lon="-1.26366">
        <ele>26</ele>
        <time>2019-10-11T13:32:57Z</time>
      </trkpt>
      <trkpt lat="47.09039" lon="-1.26369">
        <ele>25.7</ele>
        <time>2019-10-11T13:32:59Z</time>
      </trkpt>
      <trkpt lat="47.09042" lon="-1.26373">
        <ele>25.5</ele>
        <time>2019-10-11T13:33:02Z</time>
      </trkpt>
      <trkpt lat="47.09046" lon="-1.26378">
        <ele>24.5</ele>
        <time>2019-10-11T13:33:04Z</time>
      </trkpt>
      <trkpt lat="47.0905" lon="-1.26382">
        <ele>24</ele>
        <time>2019-10-11T13:33:05Z</time>
      </trkpt>
      <trkpt lat="47.09054" lon="-1.26384">
        <ele>23.5</ele>
        <time>2019-10-11T13:33:06Z</time>
      </trkpt>
      <trkpt lat="47.09058" lon="-1.26386">
        <ele>22.6</ele>
        <time>2019-10-11T13:33:08Z</time>
      </trkpt>
      <trkpt lat="47.0906" lon="-1.2639">
        <ele>22.6</ele>
        <time>2019-10-11T13:33:10Z</time>
      </trkpt>
      <trkpt lat="47.09062" lon="-1.26393">
        <ele>22.1</ele>
        <time>2019-10-11T13:33:29Z</time>
      </trkpt>
      <trkpt lat="47.09064" lon="-1.26394">
        <ele>21.8</ele>
        <time>2019-10-11T13:33:36Z</time>
      </trkpt>
      <trkpt lat="47.09067" lon="-1.26396">
        <ele>21.7</ele>
        <time>2019-10-11T13:33:42Z</time>
      </trkpt>
      <trkpt lat="47.09072" lon="-1.26401">
        <ele>21.5</ele>
        <time>2019-10-11T13:34:09Z</time>
      </trkpt>
      <trkpt lat="47.09075" lon="-1.26403">
        <ele>21.4</ele>
        <time>2019-10-11T13:34:14Z</time>
      </trkpt>
      <trkpt lat="47.09077" lon="-1.26405">
        <ele>21.3</ele>
        <time>2019-10-11T13:34:18Z</time>
      </trkpt>
      <trkpt lat="47.0908" lon="-1.26408">
        <ele>21.2</ele>
        <time>2019-10-11T13:34:22Z</time>
      </trkpt>
      <trkpt lat="47.09082" lon="-1.2641">
        <ele>21.1</ele>
        <time>2019-10-11T13:34:26Z</time>
      </trkpt>
      <trkpt lat="47.09085" lon="-1.26411">
        <ele>21.3</ele>
        <time>2019-10-11T13:34:35Z</time>
      </trkpt>
      <trkpt lat="47.09087" lon="-1.26413">
        <ele>21.5</ele>
        <time>2019-10-11T13:34:46Z</time>
      </trkpt>
      <trkpt lat="47.0909" lon="-1.26413">
        <ele>21.7</ele>
        <time>2019-10-11T13:34:48Z</time>
      </trkpt>
      <trkpt lat="47.09092" lon="-1.26418">
        <ele>22</ele>
        <time>2019-10-11T13:34:51Z</time>
      </trkpt>
      <trkpt lat="47.09096" lon="-1.26421">
        <ele>22.2</ele>
        <time>2019-10-11T13:34:54Z</time>
      </trkpt>
      <trkpt lat="47.09101" lon="-1.26422">
        <ele>22.6</ele>
        <time>2019-10-11T13:34:56Z</time>
      </trkpt>
      <trkpt lat="47.09105" lon="-1.26424">
        <ele>22.9</ele>
        <time>2019-10-11T13:34:57Z</time>
      </trkpt>
      <trkpt lat="47.09109" lon="-1.26425">
        <ele>23.2</ele>
        <time>2019-10-11T13:34:58Z</time>
      </trkpt>
      <trkpt lat="47.09119" lon="-1.2643">
        <ele>23.8</ele>
        <time>2019-10-11T13:35:00Z</time>
      </trkpt>
      <trkpt lat="47.09124" lon="-1.26433">
        <ele>24</ele>
        <time>2019-10-11T13:35:01Z</time>
      </trkpt>
      <trkpt lat="47.09128" lon="-1.26434">
        <ele>24.2</ele>
        <time>2019-10-11T13:35:02Z</time>
      </trkpt>
      <trkpt lat="47.0913" lon="-1.26435">
        <ele>24.4</ele>
        <time>2019-10-11T13:35:06Z</time>
      </trkpt>
      <trkpt lat="47.09133" lon="-1.26434">
        <ele>24.5</ele>
        <time>2019-10-11T13:35:17Z</time>
      </trkpt>
      <trkpt lat="47.09133" lon="-1.26438">
        <ele>24.7</ele>
        <time>2019-10-11T13:35:27Z</time>
      </trkpt>
      <trkpt lat="47.09134" lon="-1.26444">
        <ele>24.8</ele>
        <time>2019-10-11T13:35:30Z</time>
      </trkpt>
      <trkpt lat="47.09137" lon="-1.26449">
        <ele>25</ele>
        <time>2019-10-11T13:35:34Z</time>
      </trkpt>
      <trkpt lat="47.0914" lon="-1.26451">
        <ele>25.1</ele>
        <time>2019-10-11T13:35:37Z</time>
      </trkpt>
      <trkpt lat="47.09142" lon="-1.26455">
        <ele>25.2</ele>
        <time>2019-10-11T13:35:45Z</time>
      </trkpt>
      <trkpt lat="47.09145" lon="-1.26452">
        <ele>25.4</ele>
        <time>2019-10-11T13:35:49Z</time>
      </trkpt>
      <trkpt lat="47.09147" lon="-1.26449">
        <ele>25.6</ele>
        <time>2019-10-11T13:35:52Z</time>
      </trkpt>
      <trkpt lat="47.09149" lon="-1.26444">
        <ele>25.8</ele>
        <time>2019-10-11T13:35:53Z</time>
      </trkpt>
      <trkpt lat="47.0915" lon="-1.26438">
        <ele>26</ele>
        <time>2019-10-11T13:35:54Z</time>
      </trkpt>
      <trkpt lat="47.09151" lon="-1.26432">
        <ele>26.2</ele>
        <time>2019-10-11T13:35:55Z</time>
      </trkpt>
      <trkpt lat="47.09152" lon="-1.26428">
        <ele>26.4</ele>
        <time>2019-10-11T13:35:56Z</time>
      </trkpt>
      <trkpt lat="47.09153" lon="-1.2642">
        <ele>26.7</ele>
        <time>2019-10-11T13:35:58Z</time>
      </trkpt>
      <trkpt lat="47.09155" lon="-1.26414">
        <ele>27</ele>
        <time>2019-10-11T13:36:00Z</time>
      </trkpt>
      <trkpt lat="47.09157" lon="-1.26408">
        <ele>27.3</ele>
        <time>2019-10-11T13:36:02Z</time>
      </trkpt>
      <trkpt lat="47.09161" lon="-1.26405">
        <ele>27.5</ele>
        <time>2019-10-11T13:36:04Z</time>
      </trkpt>
      <trkpt lat="47.09165" lon="-1.26404">
        <ele>27.8</ele>
        <time>2019-10-11T13:36:06Z</time>
      </trkpt>
      <trkpt lat="47.09169" lon="-1.26404">
        <ele>28</ele>
        <time>2019-10-11T13:36:08Z</time>
      </trkpt>
      <trkpt lat="47.09173" lon="-1.26407">
        <ele>28.2</ele>
        <time>2019-10-11T13:36:10Z</time>
      </trkpt>
      <trkpt lat="47.09177" lon="-1.2641">
        <ele>28.5</ele>
        <time>2019-10-11T13:36:12Z</time>
      </trkpt>
      <trkpt lat="47.0918" lon="-1.26415">
        <ele>28.7</ele>
        <time>2019-10-11T13:36:14Z</time>
      </trkpt>
      <trkpt lat="47.0918" lon="-1.26422">
        <ele>29</ele>
        <time>2019-10-11T13:36:16Z</time>
      </trkpt>
      <trkpt lat="47.09179" lon="-1.26426">
        <ele>29.1</ele>
        <time>2019-10-11T13:36:17Z</time>
      </trkpt>
      <trkpt lat="47.09178" lon="-1.26429">
        <ele>29.3</ele>
        <time>2019-10-11T13:36:18Z</time>
      </trkpt>
      <trkpt lat="47.09176" lon="-1.26436">
        <ele>29.6</ele>
        <time>2019-10-11T13:36:20Z</time>
      </trkpt>
      <trkpt lat="47.09177" lon="-1.26443">
        <ele>29.9</ele>
        <time>2019-10-11T13:36:22Z</time>
      </trkpt>
      <trkpt lat="47.09181" lon="-1.26446">
        <ele>30</ele>
        <time>2019-10-11T13:36:24Z</time>
      </trkpt>
      <trkpt lat="47.09185" lon="-1.26447">
        <ele>30.1</ele>
        <time>2019-10-11T13:36:26Z</time>
      </trkpt>
      <trkpt lat="47.09191" lon="-1.26447">
        <ele>30.2</ele>
        <time>2019-10-11T13:36:28Z</time>
      </trkpt>
      <trkpt lat="47.09193" lon="-1.26448">
        <ele>30.3</ele>
        <time>2019-10-11T13:36:29Z</time>
      </trkpt>
      <trkpt lat="47.09198" lon="-1.26448">
        <ele>30.4</ele>
        <time>2019-10-11T13:36:31Z</time>
      </trkpt>
      <trkpt lat="47.09203" lon="-1.26449">
        <ele>30.6</ele>
        <time>2019-10-11T13:36:33Z</time>
      </trkpt>
      <trkpt lat="47.09208" lon="-1.26451">
        <ele>30.7</ele>
        <time>2019-10-11T13:36:35Z</time>
      </trkpt>
      <trkpt lat="47.09213" lon="-1.26452">
        <ele>30.9</ele>
        <time>2019-10-11T13:36:37Z</time>
      </trkpt>
      <trkpt lat="47.09218" lon="-1.26453">
        <ele>31</ele>
        <time>2019-10-11T13:36:39Z</time>
      </trkpt>
      <trkpt lat="47.09223" lon="-1.26454">
        <ele>31.1</ele>
        <time>2019-10-11T13:36:41Z</time>
      </trkpt>
      <trkpt lat="47.09228" lon="-1.26455">
        <ele>31.2</ele>
        <time>2019-10-11T13:36:43Z</time>
      </trkpt>
      <trkpt lat="47.09232" lon="-1.26457">
        <ele>31.2</ele>
        <time>2019-10-11T13:36:45Z</time>
      </trkpt>
      <trkpt lat="47.09237" lon="-1.26459">
        <ele>31.3</ele>
        <time>2019-10-11T13:36:47Z</time>
      </trkpt>
      <trkpt lat="47.09241" lon="-1.26461">
        <ele>31.4</ele>
        <time>2019-10-11T13:36:49Z</time>
      </trkpt>
      <trkpt lat="47.09245" lon="-1.26462">
        <ele>31.4</ele>
        <time>2019-10-11T13:36:51Z</time>
      </trkpt>
      <trkpt lat="47.09249" lon="-1.2646">
        <ele>31.4</ele>
        <time>2019-10-11T13:36:53Z</time>
      </trkpt>
      <trkpt lat="47.09251" lon="-1.26455">
        <ele>31.5</ele>
        <time>2019-10-11T13:36:55Z</time>
      </trkpt>
      <trkpt lat="47.0925" lon="-1.26449">
        <ele>31.5</ele>
        <time>2019-10-11T13:36:57Z</time>
      </trkpt>
      <trkpt lat="47.09247" lon="-1.26443">
        <ele>31.5</ele>
        <time>2019-10-11T13:36:59Z</time>
      </trkpt>
      <trkpt lat="47.09244" lon="-1.26436">
        <ele>31.4</ele>
        <time>2019-10-11T13:37:01Z</time>
      </trkpt>
      <trkpt lat="47.09242" lon="-1.26432">
        <ele>31.4</ele>
        <time>2019-10-11T13:37:02Z</time>
      </trkpt>
      <trkpt lat="47.0924" lon="-1.26429">
        <ele>31.4</ele>
        <time>2019-10-11T13:37:03Z</time>
      </trkpt>
      <trkpt lat="47.09238" lon="-1.26425">
        <ele>31.4</ele>
        <time>2019-10-11T13:37:04Z</time>
      </trkpt>
      <trkpt lat="47.09236" lon="-1.26422">
        <ele>31.3</ele>
        <time>2019-10-11T13:37:05Z</time>
      </trkpt>
      <trkpt lat="47.09234" lon="-1.26418">
        <ele>31.3</ele>
        <time>2019-10-11T13:37:06Z</time>
      </trkpt>
      <trkpt lat="47.09232" lon="-1.26414">
        <ele>31.3</ele>
        <time>2019-10-11T13:37:07Z</time>
      </trkpt>
      <trkpt lat="47.0923" lon="-1.26411">
        <ele>31.3</ele>
        <time>2019-10-11T13:37:08Z</time>
      </trkpt>
      <trkpt lat="47.09228" lon="-1.26406">
        <ele>31.2</ele>
        <time>2019-10-11T13:37:09Z</time>
      </trkpt>
      <trkpt lat="47.09225" lon="-1.26402">
        <ele>31.2</ele>
        <time>2019-10-11T13:37:10Z</time>
      </trkpt>
      <trkpt lat="47.09223" lon="-1.26398">
        <ele>31.2</ele>
        <time>2019-10-11T13:37:11Z</time>
      </trkpt>
      <trkpt lat="47.09221" lon="-1.26393">
        <ele>31.2</ele>
        <time>2019-10-11T13:37:12Z</time>
      </trkpt>
      <trkpt lat="47.09219" lon="-1.26389">
        <ele>31.1</ele>
        <time>2019-10-11T13:37:13Z</time>
      </trkpt>
      <trkpt lat="47.09217" lon="-1.26384">
        <ele>31.1</ele>
        <time>2019-10-11T13:37:14Z</time>
      </trkpt>
      <trkpt lat="47.09218" lon="-1.26378">
        <ele>31.1</ele>
        <time>2019-10-11T13:37:15Z</time>
      </trkpt>
      <trkpt lat="47.09219" lon="-1.26373">
        <ele>31</ele>
        <time>2019-10-11T13:37:16Z</time>
      </trkpt>
      <trkpt lat="47.0922" lon="-1.26368">
        <ele>31</ele>
        <time>2019-10-11T13:37:17Z</time>
      </trkpt>
      <trkpt lat="47.09222" lon="-1.26364">
        <ele>31</ele>
        <time>2019-10-11T13:37:18Z</time>
      </trkpt>
      <trkpt lat="47.09224" lon="-1.26361">
        <ele>30.9</ele>
        <time>2019-10-11T13:37:19Z</time>
      </trkpt>
      <trkpt lat="47.09226" lon="-1.26357">
        <ele>30.9</ele>
        <time>2019-10-11T13:37:20Z</time>
      </trkpt>
      <trkpt lat="47.09228" lon="-1.26352">
        <ele>30.9</ele>
        <time>2019-10-11T13:37:21Z</time>
      </trkpt>
      <trkpt lat="47.09231" lon="-1.26348">
        <ele>30.9</ele>
        <time>2019-10-11T13:37:22Z</time>
      </trkpt>
      <trkpt lat="47.09233" lon="-1.26344">
        <ele>31</ele>
        <time>2019-10-11T13:37:23Z</time>
      </trkpt>
      <trkpt lat="47.09236" lon="-1.2634">
        <ele>31</ele>
        <time>2019-10-11T13:37:24Z</time>
      </trkpt>
      <trkpt lat="47.09238" lon="-1.26337">
        <ele>31</ele>
        <time>2019-10-11T13:37:25Z</time>
      </trkpt>
      <trkpt lat="47.0924" lon="-1.26333">
        <ele>31.1</ele>
        <time>2019-10-11T13:37:26Z</time>
      </trkpt>
      <trkpt lat="47.09243" lon="-1.2633">
        <ele>31.1</ele>
        <time>2019-10-11T13:37:27Z</time>
      </trkpt>
      <trkpt lat="47.09245" lon="-1.26326">
        <ele>31.2</ele>
        <time>2019-10-11T13:37:28Z</time>
      </trkpt>
      <trkpt lat="47.09247" lon="-1.26323">
        <ele>31.2</ele>
        <time>2019-10-11T13:37:29Z</time>
      </trkpt>
      <trkpt lat="47.0925" lon="-1.2632">
        <ele>31.3</ele>
        <time>2019-10-11T13:37:30Z</time>
      </trkpt>
      <trkpt lat="47.09252" lon="-1.26316">
        <ele>31.3</ele>
        <time>2019-10-11T13:37:31Z</time>
      </trkpt>
      <trkpt lat="47.09254" lon="-1.26313">
        <ele>31.4</ele>
        <time>2019-10-11T13:37:32Z</time>
      </trkpt>
      <trkpt lat="47.09257" lon="-1.2631">
        <ele>31.4</ele>
        <time>2019-10-11T13:37:33Z</time>
      </trkpt>
      <trkpt lat="47.09259" lon="-1.26307">
        <ele>31.5</ele>
        <time>2019-10-11T13:37:34Z</time>
      </trkpt>
      <trkpt lat="47.09261" lon="-1.26303">
        <ele>31.5</ele>
        <time>2019-10-11T13:37:35Z</time>
      </trkpt>
      <trkpt lat="47.09264" lon="-1.263">
        <ele>31.6</ele>
        <time>2019-10-11T13:37:36Z</time>
      </trkpt>
      <trkpt lat="47.09266" lon="-1.26297">
        <ele>31.7</ele>
        <time>2019-10-11T13:37:37Z</time>
      </trkpt>
      <trkpt lat="47.09268" lon="-1.26293">
        <ele>31.7</ele>
        <time>2019-10-11T13:37:38Z</time>
      </trkpt>
      <trkpt lat="47.09271" lon="-1.2629">
        <ele>31.8</ele>
        <time>2019-10-11T13:37:39Z</time>
      </trkpt>
      <trkpt lat="47.09273" lon="-1.26286">
        <ele>31.8</ele>
        <time>2019-10-11T13:37:40Z</time>
      </trkpt>
      <trkpt lat="47.09275" lon="-1.26283">
        <ele>31.9</ele>
        <time>2019-10-11T13:37:41Z</time>
      </trkpt>
      <trkpt lat="47.09278" lon="-1.26279">
        <ele>32</ele>
        <time>2019-10-11T13:37:42Z</time>
      </trkpt>
      <trkpt lat="47.0928" lon="-1.26276">
        <ele>32</ele>
        <time>2019-10-11T13:37:43Z</time>
      </trkpt>
      <trkpt lat="47.09282" lon="-1.26272">
        <ele>32.1</ele>
        <time>2019-10-11T13:37:44Z</time>
      </trkpt>
      <trkpt lat="47.09285" lon="-1.26269">
        <ele>32.1</ele>
        <time>2019-10-11T13:37:45Z</time>
      </trkpt>
      <trkpt lat="47.09287" lon="-1.26265">
        <ele>32.2</ele>
        <time>2019-10-11T13:37:46Z</time>
      </trkpt>
      <trkpt lat="47.09289" lon="-1.26262">
        <ele>32.2</ele>
        <time>2019-10-11T13:37:47Z</time>
      </trkpt>
      <trkpt lat="47.09291" lon="-1.26259">
        <ele>32.3</ele>
        <time>2019-10-11T13:37:48Z</time>
      </trkpt>
      <trkpt lat="47.09293" lon="-1.26256">
        <ele>32.3</ele>
        <time>2019-10-11T13:37:49Z</time>
      </trkpt>
      <trkpt lat="47.09295" lon="-1.26253">
        <ele>32.4</ele>
        <time>2019-10-11T13:37:50Z</time>
      </trkpt>
      <trkpt lat="47.09296" lon="-1.26249">
        <ele>32.4</ele>
        <time>2019-10-11T13:37:51Z</time>
      </trkpt>
      <trkpt lat="47.09297" lon="-1.26246">
        <ele>32.3</ele>
        <time>2019-10-11T13:37:52Z</time>
      </trkpt>
      <trkpt lat="47.09297" lon="-1.26238">
        <ele>31.4</ele>
        <time>2019-10-11T13:37:54Z</time>
      </trkpt>
      <trkpt lat="47.09296" lon="-1.26234">
        <ele>31</ele>
        <time>2019-10-11T13:37:55Z</time>
      </trkpt>
      <trkpt lat="47.09293" lon="-1.26231">
        <ele>30.6</ele>
        <time>2019-10-11T13:37:56Z</time>
      </trkpt>
      <trkpt lat="47.09291" lon="-1.26227">
        <ele>30.1</ele>
        <time>2019-10-11T13:37:57Z</time>
      </trkpt>
      <trkpt lat="47.09288" lon="-1.26223">
        <ele>29.7</ele>
        <time>2019-10-11T13:37:58Z</time>
      </trkpt>
      <trkpt lat="47.09285" lon="-1.26219">
        <ele>29.3</ele>
        <time>2019-10-11T13:37:59Z</time>
      </trkpt>
      <trkpt lat="47.09281" lon="-1.26214">
        <ele>28.9</ele>
        <time>2019-10-11T13:38:00Z</time>
      </trkpt>
      <trkpt lat="47.09278" lon="-1.26209">
        <ele>28.6</ele>
        <time>2019-10-11T13:38:01Z</time>
      </trkpt>
      <trkpt lat="47.09274" lon="-1.26203">
        <ele>28.3</ele>
        <time>2019-10-11T13:38:02Z</time>
      </trkpt>
      <trkpt lat="47.09271" lon="-1.26197">
        <ele>28</ele>
        <time>2019-10-11T13:38:03Z</time>
      </trkpt>
      <trkpt lat="47.0927" lon="-1.26189">
        <ele>27.7</ele>
        <time>2019-10-11T13:38:04Z</time>
      </trkpt>
      <trkpt lat="47.09268" lon="-1.26181">
        <ele>27.5</ele>
        <time>2019-10-11T13:38:05Z</time>
      </trkpt>
      <trkpt lat="47.0927" lon="-1.26175">
        <ele>27.3</ele>
        <time>2019-10-11T13:38:06Z</time>
      </trkpt>
      <trkpt lat="47.09272" lon="-1.26169">
        <ele>27.1</ele>
        <time>2019-10-11T13:38:07Z</time>
      </trkpt>
      <trkpt lat="47.09275" lon="-1.26164">
        <ele>26.9</ele>
        <time>2019-10-11T13:38:08Z</time>
      </trkpt>
      <trkpt lat="47.09278" lon="-1.26159">
        <ele>26.8</ele>
        <time>2019-10-11T13:38:09Z</time>
      </trkpt>
      <trkpt lat="47.09281" lon="-1.26155">
        <ele>26.7</ele>
        <time>2019-10-11T13:38:10Z</time>
      </trkpt>
      <trkpt lat="47.09284" lon="-1.2615">
        <ele>26.7</ele>
        <time>2019-10-11T13:38:11Z</time>
      </trkpt>
      <trkpt lat="47.09288" lon="-1.26146">
        <ele>26.6</ele>
        <time>2019-10-11T13:38:12Z</time>
      </trkpt>
      <trkpt lat="47.09291" lon="-1.26141">
        <ele>26.5</ele>
        <time>2019-10-11T13:38:13Z</time>
      </trkpt>
      <trkpt lat="47.09294" lon="-1.26136">
        <ele>26.4</ele>
        <time>2019-10-11T13:38:14Z</time>
      </trkpt>
      <trkpt lat="47.09298" lon="-1.26131">
        <ele>26.3</ele>
        <time>2019-10-11T13:38:15Z</time>
      </trkpt>
      <trkpt lat="47.09301" lon="-1.26125">
        <ele>26.2</ele>
        <time>2019-10-11T13:38:16Z</time>
      </trkpt>
      <trkpt lat="47.09305" lon="-1.2612">
        <ele>26</ele>
        <time>2019-10-11T13:38:17Z</time>
      </trkpt>
      <trkpt lat="47.09309" lon="-1.26115">
        <ele>25.9</ele>
        <time>2019-10-11T13:38:18Z</time>
      </trkpt>
      <trkpt lat="47.09313" lon="-1.2611">
        <ele>25.7</ele>
        <time>2019-10-11T13:38:19Z</time>
      </trkpt>
      <trkpt lat="47.09317" lon="-1.26106">
        <ele>24.2</ele>
        <time>2019-10-11T13:38:20Z</time>
      </trkpt>
      <trkpt lat="47.09321" lon="-1.26101">
        <ele>22.6</ele>
        <time>2019-10-11T13:38:21Z</time>
      </trkpt>
      <trkpt lat="47.09324" lon="-1.26097">
        <ele>21.4</ele>
        <time>2019-10-11T13:38:22Z</time>
      </trkpt>
      <trkpt lat="47.09328" lon="-1.26093">
        <ele>20.3</ele>
        <time>2019-10-11T13:38:23Z</time>
      </trkpt>
      <trkpt lat="47.09332" lon="-1.26088">
        <ele>19.2</ele>
        <time>2019-10-11T13:38:24Z</time>
      </trkpt>
      <trkpt lat="47.09335" lon="-1.26085">
        <ele>18.5</ele>
        <time>2019-10-11T13:38:25Z</time>
      </trkpt>
      <trkpt lat="47.09339" lon="-1.26083">
        <ele>18.1</ele>
        <time>2019-10-11T13:38:26Z</time>
      </trkpt>
      <trkpt lat="47.09343" lon="-1.26079">
        <ele>17.6</ele>
        <time>2019-10-11T13:38:27Z</time>
      </trkpt>
      <trkpt lat="47.09348" lon="-1.26077">
        <ele>17.2</ele>
        <time>2019-10-11T13:38:28Z</time>
      </trkpt>
      <trkpt lat="47.09355" lon="-1.26077">
        <ele>16.7</ele>
        <time>2019-10-11T13:38:29Z</time>
      </trkpt>
      <trkpt lat="47.09363" lon="-1.26074">
        <ele>16.4</ele>
        <time>2019-10-11T13:38:30Z</time>
      </trkpt>
      <trkpt lat="47.09369" lon="-1.26071">
        <ele>16.1</ele>
        <time>2019-10-11T13:38:31Z</time>
      </trkpt>
      <trkpt lat="47.09375" lon="-1.26064">
        <ele>15.9</ele>
        <time>2019-10-11T13:38:32Z</time>
      </trkpt>
      <trkpt lat="47.09381" lon="-1.26058">
        <ele>15.6</ele>
        <time>2019-10-11T13:38:33Z</time>
      </trkpt>
      <trkpt lat="47.09387" lon="-1.26053">
        <ele>15.3</ele>
        <time>2019-10-11T13:38:34Z</time>
      </trkpt>
      <trkpt lat="47.09393" lon="-1.26052">
        <ele>15</ele>
        <time>2019-10-11T13:38:35Z</time>
      </trkpt>
      <trkpt lat="47.09399" lon="-1.2605">
        <ele>14.6</ele>
        <time>2019-10-11T13:38:36Z</time>
      </trkpt>
      <trkpt lat="47.09404" lon="-1.26049">
        <ele>14.2</ele>
        <time>2019-10-11T13:38:37Z</time>
      </trkpt>
      <trkpt lat="47.09409" lon="-1.26047">
        <ele>13.9</ele>
        <time>2019-10-11T13:38:38Z</time>
      </trkpt>
      <trkpt lat="47.09414" lon="-1.26043">
        <ele>13.6</ele>
        <time>2019-10-11T13:38:41Z</time>
      </trkpt>
      <trkpt lat="47.09418" lon="-1.26042">
        <ele>13.4</ele>
        <time>2019-10-11T13:38:43Z</time>
      </trkpt>
      <trkpt lat="47.09423" lon="-1.26042">
        <ele>13.3</ele>
        <time>2019-10-11T13:38:45Z</time>
      </trkpt>
      <trkpt lat="47.09426" lon="-1.26041">
        <ele>13.2</ele>
        <time>2019-10-11T13:38:46Z</time>
      </trkpt>
      <trkpt lat="47.09429" lon="-1.2604">
        <ele>13.1</ele>
        <time>2019-10-11T13:38:47Z</time>
      </trkpt>
      <trkpt lat="47.09432" lon="-1.26039">
        <ele>13.1</ele>
        <time>2019-10-11T13:38:48Z</time>
      </trkpt>
      <trkpt lat="47.09435" lon="-1.26038">
        <ele>13.1</ele>
        <time>2019-10-11T13:38:49Z</time>
      </trkpt>
      <trkpt lat="47.09438" lon="-1.26036">
        <ele>13</ele>
        <time>2019-10-11T13:38:50Z</time>
      </trkpt>
      <trkpt lat="47.09443" lon="-1.26035">
        <ele>13</ele>
        <time>2019-10-11T13:38:52Z</time>
      </trkpt>
      <trkpt lat="47.09446" lon="-1.26034">
        <ele>13</ele>
        <time>2019-10-11T13:38:54Z</time>
      </trkpt>
      <trkpt lat="47.09451" lon="-1.26032">
        <ele>13.1</ele>
        <time>2019-10-11T13:38:56Z</time>
      </trkpt>
      <trkpt lat="47.09455" lon="-1.2603">
        <ele>13.1</ele>
        <time>2019-10-11T13:38:59Z</time>
      </trkpt>
      <trkpt lat="47.0946" lon="-1.26027">
        <ele>13.3</ele>
        <time>2019-10-11T13:39:01Z</time>
      </trkpt>
      <trkpt lat="47.09464" lon="-1.26024">
        <ele>13.4</ele>
        <time>2019-10-11T13:39:02Z</time>
      </trkpt>
      <trkpt lat="47.09468" lon="-1.26023">
        <ele>13.5</ele>
        <time>2019-10-11T13:39:03Z</time>
      </trkpt>
      <trkpt lat="47.09472" lon="-1.26021">
        <ele>13.6</ele>
        <time>2019-10-11T13:39:04Z</time>
      </trkpt>
      <trkpt lat="47.09474" lon="-1.26016">
        <ele>13.7</ele>
        <time>2019-10-11T13:39:05Z</time>
      </trkpt>
      <trkpt lat="47.09477" lon="-1.26012">
        <ele>13.8</ele>
        <time>2019-10-11T13:39:06Z</time>
      </trkpt>
      <trkpt lat="47.09479" lon="-1.26008">
        <ele>13.8</ele>
        <time>2019-10-11T13:39:07Z</time>
      </trkpt>
      <trkpt lat="47.09482" lon="-1.26002">
        <ele>13.9</ele>
        <time>2019-10-11T13:39:08Z</time>
      </trkpt>
      <trkpt lat="47.09483" lon="-1.25998">
        <ele>13.9</ele>
        <time>2019-10-11T13:39:09Z</time>
      </trkpt>
      <trkpt lat="47.09484" lon="-1.25994">
        <ele>13.9</ele>
        <time>2019-10-11T13:39:10Z</time>
      </trkpt>
      <trkpt lat="47.09485" lon="-1.25989">
        <ele>14</ele>
        <time>2019-10-11T13:39:11Z</time>
      </trkpt>
      <trkpt lat="47.09486" lon="-1.25984">
        <ele>14</ele>
        <time>2019-10-11T13:39:12Z</time>
      </trkpt>
      <trkpt lat="47.09487" lon="-1.25976">
        <ele>14</ele>
        <time>2019-10-11T13:39:14Z</time>
      </trkpt>
      <trkpt lat="47.09488" lon="-1.25972">
        <ele>14</ele>
        <time>2019-10-11T13:39:15Z</time>
      </trkpt>
      <trkpt lat="47.09488" lon="-1.25967">
        <ele>14</ele>
        <time>2019-10-11T13:39:16Z</time>
      </trkpt>
      <trkpt lat="47.09489" lon="-1.2596">
        <ele>14</ele>
        <time>2019-10-11T13:39:17Z</time>
      </trkpt>
      <trkpt lat="47.09489" lon="-1.25953">
        <ele>14</ele>
        <time>2019-10-11T13:39:18Z</time>
      </trkpt>
      <trkpt lat="47.09489" lon="-1.25948">
        <ele>14</ele>
        <time>2019-10-11T13:39:19Z</time>
      </trkpt>
      <trkpt lat="47.09489" lon="-1.25943">
        <ele>14</ele>
        <time>2019-10-11T13:39:20Z</time>
      </trkpt>
      <trkpt lat="47.09489" lon="-1.25939">
        <ele>14</ele>
        <time>2019-10-11T13:39:21Z</time>
      </trkpt>
      <trkpt lat="47.0949" lon="-1.2593">
        <ele>13.9</ele>
        <time>2019-10-11T13:39:23Z</time>
      </trkpt>
      <trkpt lat="47.09491" lon="-1.25926">
        <ele>13.9</ele>
        <time>2019-10-11T13:39:24Z</time>
      </trkpt>
      <trkpt lat="47.09491" lon="-1.25921">
        <ele>13.8</ele>
        <time>2019-10-11T13:39:25Z</time>
      </trkpt>
      <trkpt lat="47.09492" lon="-1.25915">
        <ele>13.7</ele>
        <time>2019-10-11T13:39:26Z</time>
      </trkpt>
      <trkpt lat="47.09492" lon="-1.2591">
        <ele>13.6</ele>
        <time>2019-10-11T13:39:27Z</time>
      </trkpt>
      <trkpt lat="47.09493" lon="-1.25902">
        <ele>13.5</ele>
        <time>2019-10-11T13:39:28Z</time>
      </trkpt>
      <trkpt lat="47.09494" lon="-1.25896">
        <ele>13.4</ele>
        <time>2019-10-11T13:39:29Z</time>
      </trkpt>
      <trkpt lat="47.09494" lon="-1.2589">
        <ele>13.3</ele>
        <time>2019-10-11T13:39:30Z</time>
      </trkpt>
      <trkpt lat="47.09494" lon="-1.25886">
        <ele>13.3</ele>
        <time>2019-10-11T13:39:31Z</time>
      </trkpt>
      <trkpt lat="47.09495" lon="-1.25881">
        <ele>13.3</ele>
        <time>2019-10-11T13:39:32Z</time>
      </trkpt>
      <trkpt lat="47.09495" lon="-1.25876">
        <ele>13.2</ele>
        <time>2019-10-11T13:39:34Z</time>
      </trkpt>
      <trkpt lat="47.09495" lon="-1.25868">
        <ele>13.2</ele>
        <time>2019-10-11T13:39:36Z</time>
      </trkpt>
      <trkpt lat="47.09496" lon="-1.25863">
        <ele>13.2</ele>
        <time>2019-10-11T13:39:37Z</time>
      </trkpt>
      <trkpt lat="47.09496" lon="-1.25857">
        <ele>13.2</ele>
        <time>2019-10-11T13:39:38Z</time>
      </trkpt>
      <trkpt lat="47.09497" lon="-1.25848">
        <ele>13.2</ele>
        <time>2019-10-11T13:39:39Z</time>
      </trkpt>
      <trkpt lat="47.09496" lon="-1.25842">
        <ele>13.2</ele>
        <time>2019-10-11T13:39:40Z</time>
      </trkpt>
      <trkpt lat="47.09496" lon="-1.25836">
        <ele>13.2</ele>
        <time>2019-10-11T13:39:41Z</time>
      </trkpt>
      <trkpt lat="47.09496" lon="-1.25832">
        <ele>13.2</ele>
        <time>2019-10-11T13:39:42Z</time>
      </trkpt>
      <trkpt lat="47.09496" lon="-1.25823">
        <ele>13.2</ele>
        <time>2019-10-11T13:39:44Z</time>
      </trkpt>
      <trkpt lat="47.09497" lon="-1.25818">
        <ele>13.2</ele>
        <time>2019-10-11T13:39:45Z</time>
      </trkpt>
      <trkpt lat="47.09497" lon="-1.25813">
        <ele>13.2</ele>
        <time>2019-10-11T13:39:46Z</time>
      </trkpt>
      <trkpt lat="47.09497" lon="-1.25808">
        <ele>13.2</ele>
        <time>2019-10-11T13:39:47Z</time>
      </trkpt>
      <trkpt lat="47.09498" lon="-1.25803">
        <ele>13.2</ele>
        <time>2019-10-11T13:39:48Z</time>
      </trkpt>
      <trkpt lat="47.09498" lon="-1.25798">
        <ele>13.2</ele>
        <time>2019-10-11T13:39:49Z</time>
      </trkpt>
      <trkpt lat="47.09499" lon="-1.2579">
        <ele>13.3</ele>
        <time>2019-10-11T13:39:50Z</time>
      </trkpt>
      <trkpt lat="47.09498" lon="-1.25785">
        <ele>13.3</ele>
        <time>2019-10-11T13:39:51Z</time>
      </trkpt>
      <trkpt lat="47.09497" lon="-1.25781">
        <ele>13.3</ele>
        <time>2019-10-11T13:39:52Z</time>
      </trkpt>
      <trkpt lat="47.09496" lon="-1.25776">
        <ele>13.4</ele>
        <time>2019-10-11T13:39:53Z</time>
      </trkpt>
      <trkpt lat="47.09496" lon="-1.25768">
        <ele>13.5</ele>
        <time>2019-10-11T13:39:55Z</time>
      </trkpt>
      <trkpt lat="47.09496" lon="-1.25763">
        <ele>13.6</ele>
        <time>2019-10-11T13:39:56Z</time>
      </trkpt>
      <trkpt lat="47.09497" lon="-1.25759">
        <ele>13.7</ele>
        <time>2019-10-11T13:39:57Z</time>
      </trkpt>
      <trkpt lat="47.09498" lon="-1.25754">
        <ele>13.8</ele>
        <time>2019-10-11T13:39:58Z</time>
      </trkpt>
      <trkpt lat="47.09499" lon="-1.2575">
        <ele>13.9</ele>
        <time>2019-10-11T13:39:59Z</time>
      </trkpt>
      <trkpt lat="47.09499" lon="-1.25745">
        <ele>14</ele>
        <time>2019-10-11T13:40:00Z</time>
      </trkpt>
      <trkpt lat="47.095" lon="-1.25741">
        <ele>14.1</ele>
        <time>2019-10-11T13:40:01Z</time>
      </trkpt>
      <trkpt lat="47.095" lon="-1.25736">
        <ele>14.2</ele>
        <time>2019-10-11T13:40:02Z</time>
      </trkpt>
      <trkpt lat="47.09501" lon="-1.25732">
        <ele>14.2</ele>
        <time>2019-10-11T13:40:03Z</time>
      </trkpt>
      <trkpt lat="47.09501" lon="-1.25728">
        <ele>14.2</ele>
        <time>2019-10-11T13:40:04Z</time>
      </trkpt>
      <trkpt lat="47.09502" lon="-1.25722">
        <ele>14.2</ele>
        <time>2019-10-11T13:40:05Z</time>
      </trkpt>
      <trkpt lat="47.09503" lon="-1.25716">
        <ele>14.2</ele>
        <time>2019-10-11T13:40:06Z</time>
      </trkpt>
      <trkpt lat="47.09504" lon="-1.2571">
        <ele>14.2</ele>
        <time>2019-10-11T13:40:07Z</time>
      </trkpt>
      <trkpt lat="47.09504" lon="-1.25704">
        <ele>14.1</ele>
        <time>2019-10-11T13:40:08Z</time>
      </trkpt>
      <trkpt lat="47.09504" lon="-1.25699">
        <ele>14.1</ele>
        <time>2019-10-11T13:40:09Z</time>
      </trkpt>
      <trkpt lat="47.09503" lon="-1.25695">
        <ele>14.1</ele>
        <time>2019-10-11T13:40:10Z</time>
      </trkpt>
      <trkpt lat="47.09503" lon="-1.25686">
        <ele>14</ele>
        <time>2019-10-11T13:40:12Z</time>
      </trkpt>
      <trkpt lat="47.09503" lon="-1.25679">
        <ele>13.9</ele>
        <time>2019-10-11T13:40:13Z</time>
      </trkpt>
      <trkpt lat="47.09502" lon="-1.25673">
        <ele>13.9</ele>
        <time>2019-10-11T13:40:14Z</time>
      </trkpt>
      <trkpt lat="47.09502" lon="-1.25667">
        <ele>13.8</ele>
        <time>2019-10-11T13:40:15Z</time>
      </trkpt>
      <trkpt lat="47.09502" lon="-1.25661">
        <ele>13.7</ele>
        <time>2019-10-11T13:40:16Z</time>
      </trkpt>
      <trkpt lat="47.09502" lon="-1.25654">
        <ele>13.7</ele>
        <time>2019-10-11T13:40:17Z</time>
      </trkpt>
      <trkpt lat="47.09503" lon="-1.25648">
        <ele>13.6</ele>
        <time>2019-10-11T13:40:18Z</time>
      </trkpt>
      <trkpt lat="47.09503" lon="-1.25642">
        <ele>13.6</ele>
        <time>2019-10-11T13:40:19Z</time>
      </trkpt>
      <trkpt lat="47.09504" lon="-1.25638">
        <ele>13.5</ele>
        <time>2019-10-11T13:40:20Z</time>
      </trkpt>
      <trkpt lat="47.09505" lon="-1.25634">
        <ele>13.5</ele>
        <time>2019-10-11T13:40:21Z</time>
      </trkpt>
      <trkpt lat="47.09507" lon="-1.25629">
        <ele>13.5</ele>
        <time>2019-10-11T13:40:23Z</time>
      </trkpt>
      <trkpt lat="47.0951" lon="-1.25625">
        <ele>13.5</ele>
        <time>2019-10-11T13:40:25Z</time>
      </trkpt>
      <trkpt lat="47.09514" lon="-1.2562">
        <ele>13.4</ele>
        <time>2019-10-11T13:40:27Z</time>
      </trkpt>
      <trkpt lat="47.09516" lon="-1.25616">
        <ele>13.4</ele>
        <time>2019-10-11T13:40:28Z</time>
      </trkpt>
      <trkpt lat="47.09518" lon="-1.25611">
        <ele>13.4</ele>
        <time>2019-10-11T13:40:29Z</time>
      </trkpt>
      <trkpt lat="47.0952" lon="-1.25606">
        <ele>13.4</ele>
        <time>2019-10-11T13:40:30Z</time>
      </trkpt>
      <trkpt lat="47.09522" lon="-1.25602">
        <ele>13.4</ele>
        <time>2019-10-11T13:40:31Z</time>
      </trkpt>
      <trkpt lat="47.09526" lon="-1.25597">
        <ele>13.4</ele>
        <time>2019-10-11T13:40:32Z</time>
      </trkpt>
      <trkpt lat="47.09529" lon="-1.2559">
        <ele>13.4</ele>
        <time>2019-10-11T13:40:33Z</time>
      </trkpt>
      <trkpt lat="47.09531" lon="-1.25584">
        <ele>13.4</ele>
        <time>2019-10-11T13:40:34Z</time>
      </trkpt>
      <trkpt lat="47.09532" lon="-1.2558">
        <ele>13.4</ele>
        <time>2019-10-11T13:40:35Z</time>
      </trkpt>
      <trkpt lat="47.09534" lon="-1.25576">
        <ele>13.5</ele>
        <time>2019-10-11T13:40:36Z</time>
      </trkpt>
      <trkpt lat="47.09535" lon="-1.25572">
        <ele>13.5</ele>
        <time>2019-10-11T13:40:37Z</time>
      </trkpt>
      <trkpt lat="47.09537" lon="-1.25569">
        <ele>13.5</ele>
        <time>2019-10-11T13:40:38Z</time>
      </trkpt>
      <trkpt lat="47.09539" lon="-1.25565">
        <ele>13.5</ele>
        <time>2019-10-11T13:40:39Z</time>
      </trkpt>
      <trkpt lat="47.09541" lon="-1.25559">
        <ele>13.6</ele>
        <time>2019-10-11T13:40:40Z</time>
      </trkpt>
      <trkpt lat="47.09544" lon="-1.25555">
        <ele>13.6</ele>
        <time>2019-10-11T13:40:41Z</time>
      </trkpt>
      <trkpt lat="47.09546" lon="-1.25552">
        <ele>13.6</ele>
        <time>2019-10-11T13:40:42Z</time>
      </trkpt>
      <trkpt lat="47.09548" lon="-1.25548">
        <ele>13.7</ele>
        <time>2019-10-11T13:40:43Z</time>
      </trkpt>
      <trkpt lat="47.09551" lon="-1.25543">
        <ele>13.8</ele>
        <time>2019-10-11T13:40:44Z</time>
      </trkpt>
      <trkpt lat="47.09553" lon="-1.25539">
        <ele>13.9</ele>
        <time>2019-10-11T13:40:45Z</time>
      </trkpt>
      <trkpt lat="47.09555" lon="-1.25535">
        <ele>14</ele>
        <time>2019-10-11T13:40:46Z</time>
      </trkpt>
      <trkpt lat="47.09556" lon="-1.25531">
        <ele>14</ele>
        <time>2019-10-11T13:40:47Z</time>
      </trkpt>
      <trkpt lat="47.09558" lon="-1.25527">
        <ele>14.1</ele>
        <time>2019-10-11T13:40:48Z</time>
      </trkpt>
      <trkpt lat="47.0956" lon="-1.2552">
        <ele>14.2</ele>
        <time>2019-10-11T13:40:50Z</time>
      </trkpt>
      <trkpt lat="47.09563" lon="-1.25512">
        <ele>14.3</ele>
        <time>2019-10-11T13:40:52Z</time>
      </trkpt>
      <trkpt lat="47.09565" lon="-1.25506">
        <ele>14.2</ele>
        <time>2019-10-11T13:40:53Z</time>
      </trkpt>
      <trkpt lat="47.09566" lon="-1.255">
        <ele>14.2</ele>
        <time>2019-10-11T13:40:54Z</time>
      </trkpt>
      <trkpt lat="47.09567" lon="-1.25493">
        <ele>14.2</ele>
        <time>2019-10-11T13:40:55Z</time>
      </trkpt>
      <trkpt lat="47.09568" lon="-1.25486">
        <ele>14.1</ele>
        <time>2019-10-11T13:40:56Z</time>
      </trkpt>
      <trkpt lat="47.09568" lon="-1.25481">
        <ele>14</ele>
        <time>2019-10-11T13:40:57Z</time>
      </trkpt>
      <trkpt lat="47.09569" lon="-1.25476">
        <ele>13.9</ele>
        <time>2019-10-11T13:40:58Z</time>
      </trkpt>
      <trkpt lat="47.09569" lon="-1.25471">
        <ele>13.9</ele>
        <time>2019-10-11T13:40:59Z</time>
      </trkpt>
      <trkpt lat="47.0957" lon="-1.25465">
        <ele>13.8</ele>
        <time>2019-10-11T13:41:00Z</time>
      </trkpt>
      <trkpt lat="47.0957" lon="-1.25461">
        <ele>13.8</ele>
        <time>2019-10-11T13:41:01Z</time>
      </trkpt>
      <trkpt lat="47.0957" lon="-1.25456">
        <ele>13.8</ele>
        <time>2019-10-11T13:41:02Z</time>
      </trkpt>
      <trkpt lat="47.0957" lon="-1.2545">
        <ele>13.8</ele>
        <time>2019-10-11T13:41:03Z</time>
      </trkpt>
      <trkpt lat="47.0957" lon="-1.25445">
        <ele>13.9</ele>
        <time>2019-10-11T13:41:04Z</time>
      </trkpt>
      <trkpt lat="47.0957" lon="-1.2544">
        <ele>13.9</ele>
        <time>2019-10-11T13:41:05Z</time>
      </trkpt>
      <trkpt lat="47.09569" lon="-1.25435">
        <ele>14</ele>
        <time>2019-10-11T13:41:06Z</time>
      </trkpt>
      <trkpt lat="47.09569" lon="-1.2543">
        <ele>14.1</ele>
        <time>2019-10-11T13:41:07Z</time>
      </trkpt>
      <trkpt lat="47.09569" lon="-1.25425">
        <ele>14.2</ele>
        <time>2019-10-11T13:41:08Z</time>
      </trkpt>
      <trkpt lat="47.09569" lon="-1.2542">
        <ele>14.2</ele>
        <time>2019-10-11T13:41:09Z</time>
      </trkpt>
      <trkpt lat="47.09569" lon="-1.25414">
        <ele>14.3</ele>
        <time>2019-10-11T13:41:10Z</time>
      </trkpt>
      <trkpt lat="47.0957" lon="-1.25409">
        <ele>14.3</ele>
        <time>2019-10-11T13:41:11Z</time>
      </trkpt>
      <trkpt lat="47.09571" lon="-1.25404">
        <ele>14.4</ele>
        <time>2019-10-11T13:41:12Z</time>
      </trkpt>
      <trkpt lat="47.09571" lon="-1.25399">
        <ele>14.4</ele>
        <time>2019-10-11T13:41:13Z</time>
      </trkpt>
      <trkpt lat="47.09571" lon="-1.25394">
        <ele>14.4</ele>
        <time>2019-10-11T13:41:14Z</time>
      </trkpt>
      <trkpt lat="47.09572" lon="-1.25389">
        <ele>14.4</ele>
        <time>2019-10-11T13:41:15Z</time>
      </trkpt>
      <trkpt lat="47.09572" lon="-1.25384">
        <ele>14.4</ele>
        <time>2019-10-11T13:41:16Z</time>
      </trkpt>
      <trkpt lat="47.09572" lon="-1.2538">
        <ele>14.4</ele>
        <time>2019-10-11T13:41:17Z</time>
      </trkpt>
      <trkpt lat="47.09573" lon="-1.25375">
        <ele>14.4</ele>
        <time>2019-10-11T13:41:18Z</time>
      </trkpt>
      <trkpt lat="47.09573" lon="-1.2537">
        <ele>14.4</ele>
        <time>2019-10-11T13:41:19Z</time>
      </trkpt>
      <trkpt lat="47.09572" lon="-1.25362">
        <ele>14.4</ele>
        <time>2019-10-11T13:41:20Z</time>
      </trkpt>
      <trkpt lat="47.09571" lon="-1.25355">
        <ele>14.4</ele>
        <time>2019-10-11T13:41:21Z</time>
      </trkpt>
      <trkpt lat="47.09571" lon="-1.25351">
        <ele>14.4</ele>
        <time>2019-10-11T13:41:22Z</time>
      </trkpt>
      <trkpt lat="47.09569" lon="-1.25342">
        <ele>14.6</ele>
        <time>2019-10-11T13:41:23Z</time>
      </trkpt>
      <trkpt lat="47.09568" lon="-1.25336">
        <ele>14.9</ele>
        <time>2019-10-11T13:41:24Z</time>
      </trkpt>
      <trkpt lat="47.09567" lon="-1.25331">
        <ele>15.1</ele>
        <time>2019-10-11T13:41:25Z</time>
      </trkpt>
      <trkpt lat="47.09565" lon="-1.25326">
        <ele>15.4</ele>
        <time>2019-10-11T13:41:26Z</time>
      </trkpt>
      <trkpt lat="47.09564" lon="-1.25321">
        <ele>15.6</ele>
        <time>2019-10-11T13:41:27Z</time>
      </trkpt>
      <trkpt lat="47.09563" lon="-1.25316">
        <ele>15.9</ele>
        <time>2019-10-11T13:41:29Z</time>
      </trkpt>
      <trkpt lat="47.09563" lon="-1.25311">
        <ele>16.1</ele>
        <time>2019-10-11T13:41:31Z</time>
      </trkpt>
      <trkpt lat="47.09563" lon="-1.25307">
        <ele>16.3</ele>
        <time>2019-10-11T13:41:33Z</time>
      </trkpt>
      <trkpt lat="47.09566" lon="-1.25302">
        <ele>16.7</ele>
        <time>2019-10-11T13:41:35Z</time>
      </trkpt>
      <trkpt lat="47.09568" lon="-1.25298">
        <ele>17.1</ele>
        <time>2019-10-11T13:41:36Z</time>
      </trkpt>
      <trkpt lat="47.0957" lon="-1.25295">
        <ele>17.4</ele>
        <time>2019-10-11T13:41:37Z</time>
      </trkpt>
      <trkpt lat="47.09572" lon="-1.25292">
        <ele>17.7</ele>
        <time>2019-10-11T13:41:38Z</time>
      </trkpt>
      <trkpt lat="47.09575" lon="-1.25289">
        <ele>18.3</ele>
        <time>2019-10-11T13:41:40Z</time>
      </trkpt>
      <trkpt lat="47.09578" lon="-1.25286">
        <ele>18.9</ele>
        <time>2019-10-11T13:41:42Z</time>
      </trkpt>
      <trkpt lat="47.09581" lon="-1.25284">
        <ele>19.5</ele>
        <time>2019-10-11T13:41:44Z</time>
      </trkpt>
      <trkpt lat="47.09583" lon="-1.25281">
        <ele>20</ele>
        <time>2019-10-11T13:41:46Z</time>
      </trkpt>
      <trkpt lat="47.09587" lon="-1.25277">
        <ele>20.7</ele>
        <time>2019-10-11T13:41:48Z</time>
      </trkpt>
      <trkpt lat="47.0959" lon="-1.25272">
        <ele>21.4</ele>
        <time>2019-10-11T13:41:50Z</time>
      </trkpt>
      <trkpt lat="47.09592" lon="-1.25269">
        <ele>21.8</ele>
        <time>2019-10-11T13:41:52Z</time>
      </trkpt>
      <trkpt lat="47.09595" lon="-1.25266">
        <ele>22.1</ele>
        <time>2019-10-11T13:41:54Z</time>
      </trkpt>
      <trkpt lat="47.09598" lon="-1.25263">
        <ele>22.3</ele>
        <time>2019-10-11T13:41:56Z</time>
      </trkpt>
      <trkpt lat="47.096" lon="-1.25261">
        <ele>22.6</ele>
        <time>2019-10-11T13:41:58Z</time>
      </trkpt>
      <trkpt lat="47.09604" lon="-1.25258">
        <ele>22.9</ele>
        <time>2019-10-11T13:42:01Z</time>
      </trkpt>
      <trkpt lat="47.09607" lon="-1.25256">
        <ele>23.1</ele>
        <time>2019-10-11T13:42:03Z</time>
      </trkpt>
      <trkpt lat="47.09611" lon="-1.25253">
        <ele>23.4</ele>
        <time>2019-10-11T13:42:05Z</time>
      </trkpt>
      <trkpt lat="47.09614" lon="-1.25252">
        <ele>23.6</ele>
        <time>2019-10-11T13:42:07Z</time>
      </trkpt>
      <trkpt lat="47.09617" lon="-1.25252">
        <ele>23.7</ele>
        <time>2019-10-11T13:42:09Z</time>
      </trkpt>
      <trkpt lat="47.0962" lon="-1.25253">
        <ele>23.9</ele>
        <time>2019-10-11T13:42:12Z</time>
      </trkpt>
      <trkpt lat="47.09623" lon="-1.25255">
        <ele>24.1</ele>
        <time>2019-10-11T13:42:15Z</time>
      </trkpt>
      <trkpt lat="47.09627" lon="-1.25257">
        <ele>24.3</ele>
        <time>2019-10-11T13:42:18Z</time>
      </trkpt>
      <trkpt lat="47.0963" lon="-1.25258">
        <ele>24.4</ele>
        <time>2019-10-11T13:42:20Z</time>
      </trkpt>
      <trkpt lat="47.09634" lon="-1.25259">
        <ele>24.6</ele>
        <time>2019-10-11T13:42:22Z</time>
      </trkpt>
      <trkpt lat="47.09637" lon="-1.2526">
        <ele>24.7</ele>
        <time>2019-10-11T13:42:24Z</time>
      </trkpt>
      <trkpt lat="47.0964" lon="-1.25261">
        <ele>24.8</ele>
        <time>2019-10-11T13:42:26Z</time>
      </trkpt>
      <trkpt lat="47.09643" lon="-1.25262">
        <ele>25</ele>
        <time>2019-10-11T13:42:28Z</time>
      </trkpt>
      <trkpt lat="47.09647" lon="-1.25265">
        <ele>25.2</ele>
        <time>2019-10-11T13:42:30Z</time>
      </trkpt>
      <trkpt lat="47.0965" lon="-1.25266">
        <ele>25.4</ele>
        <time>2019-10-11T13:42:33Z</time>
      </trkpt>
      <trkpt lat="47.09654" lon="-1.25267">
        <ele>25.6</ele>
        <time>2019-10-11T13:42:35Z</time>
      </trkpt>
      <trkpt lat="47.09658" lon="-1.25268">
        <ele>25.8</ele>
        <time>2019-10-11T13:42:37Z</time>
      </trkpt>
      <trkpt lat="47.09661" lon="-1.25269">
        <ele>26</ele>
        <time>2019-10-11T13:42:39Z</time>
      </trkpt>
      <trkpt lat="47.09665" lon="-1.2527">
        <ele>26.3</ele>
        <time>2019-10-11T13:42:41Z</time>
      </trkpt>
      <trkpt lat="47.09669" lon="-1.25272">
        <ele>26.5</ele>
        <time>2019-10-11T13:42:43Z</time>
      </trkpt>
      <trkpt lat="47.09672" lon="-1.25271">
        <ele>26.9</ele>
        <time>2019-10-11T13:42:45Z</time>
      </trkpt>
      <trkpt lat="47.09677" lon="-1.25272">
        <ele>27.2</ele>
        <time>2019-10-11T13:42:49Z</time>
      </trkpt>
      <trkpt lat="47.0968" lon="-1.25273">
        <ele>27.4</ele>
        <time>2019-10-11T13:42:51Z</time>
      </trkpt>
      <trkpt lat="47.09684" lon="-1.25276">
        <ele>27.6</ele>
        <time>2019-10-11T13:42:53Z</time>
      </trkpt>
      <trkpt lat="47.09686" lon="-1.25277">
        <ele>27.9</ele>
        <time>2019-10-11T13:42:54Z</time>
      </trkpt>
      <trkpt lat="47.09689" lon="-1.25279">
        <ele>28</ele>
        <time>2019-10-11T13:42:55Z</time>
      </trkpt>
      <trkpt lat="47.09694" lon="-1.25281">
        <ele>28.2</ele>
        <time>2019-10-11T13:42:57Z</time>
      </trkpt>
      <trkpt lat="47.09697" lon="-1.25283">
        <ele>28.3</ele>
        <time>2019-10-11T13:42:59Z</time>
      </trkpt>
      <trkpt lat="47.097" lon="-1.25284">
        <ele>28.5</ele>
        <time>2019-10-11T13:43:00Z</time>
      </trkpt>
      <trkpt lat="47.09704" lon="-1.25286">
        <ele>28.6</ele>
        <time>2019-10-11T13:43:02Z</time>
      </trkpt>
      <trkpt lat="47.09707" lon="-1.25287">
        <ele>28.7</ele>
        <time>2019-10-11T13:43:03Z</time>
      </trkpt>
      <trkpt lat="47.09711" lon="-1.25289">
        <ele>28.9</ele>
        <time>2019-10-11T13:43:05Z</time>
      </trkpt>
      <trkpt lat="47.09714" lon="-1.25292">
        <ele>29.1</ele>
        <time>2019-10-11T13:43:07Z</time>
      </trkpt>
      <trkpt lat="47.09718" lon="-1.25293">
        <ele>29.2</ele>
        <time>2019-10-11T13:43:09Z</time>
      </trkpt>
      <trkpt lat="47.09721" lon="-1.25295">
        <ele>29.4</ele>
        <time>2019-10-11T13:43:10Z</time>
      </trkpt>
      <trkpt lat="47.09725" lon="-1.25299">
        <ele>29.6</ele>
        <time>2019-10-11T13:43:12Z</time>
      </trkpt>
      <trkpt lat="47.09729" lon="-1.253">
        <ele>29.8</ele>
        <time>2019-10-11T13:43:14Z</time>
      </trkpt>
      <trkpt lat="47.09732" lon="-1.25301">
        <ele>29.9</ele>
        <time>2019-10-11T13:43:16Z</time>
      </trkpt>
      <trkpt lat="47.09736" lon="-1.25302">
        <ele>30.2</ele>
        <time>2019-10-11T13:43:18Z</time>
      </trkpt>
      <trkpt lat="47.0974" lon="-1.25305">
        <ele>30.6</ele>
        <time>2019-10-11T13:43:20Z</time>
      </trkpt>
      <trkpt lat="47.09744" lon="-1.25306">
        <ele>31</ele>
        <time>2019-10-11T13:43:22Z</time>
      </trkpt>
      <trkpt lat="47.09748" lon="-1.25306">
        <ele>31.3</ele>
        <time>2019-10-11T13:43:25Z</time>
      </trkpt>
      <trkpt lat="47.09751" lon="-1.25308">
        <ele>31.7</ele>
        <time>2019-10-11T13:43:27Z</time>
      </trkpt>
      <trkpt lat="47.09756" lon="-1.2531">
        <ele>32.7</ele>
        <time>2019-10-11T13:43:29Z</time>
      </trkpt>
      <trkpt lat="47.09761" lon="-1.25312">
        <ele>32.9</ele>
        <time>2019-10-11T13:43:31Z</time>
      </trkpt>
      <trkpt lat="47.09765" lon="-1.25314">
        <ele>33</ele>
        <time>2019-10-11T13:43:33Z</time>
      </trkpt>
      <trkpt lat="47.0977" lon="-1.25316">
        <ele>33.1</ele>
        <time>2019-10-11T13:43:35Z</time>
      </trkpt>
      <trkpt lat="47.09774" lon="-1.25318">
        <ele>33.3</ele>
        <time>2019-10-11T13:43:37Z</time>
      </trkpt>
      <trkpt lat="47.09778" lon="-1.25319">
        <ele>33.4</ele>
        <time>2019-10-11T13:43:39Z</time>
      </trkpt>
      <trkpt lat="47.09781" lon="-1.25315">
        <ele>33.7</ele>
        <time>2019-10-11T13:43:41Z</time>
      </trkpt>
      <trkpt lat="47.09783" lon="-1.2531">
        <ele>33.7</ele>
        <time>2019-10-11T13:43:43Z</time>
      </trkpt>
      <trkpt lat="47.09784" lon="-1.25304">
        <ele>33.7</ele>
        <time>2019-10-11T13:43:45Z</time>
      </trkpt>
      <trkpt lat="47.09785" lon="-1.25297">
        <ele>33.8</ele>
        <time>2019-10-11T13:43:47Z</time>
      </trkpt>
      <trkpt lat="47.09787" lon="-1.25291">
        <ele>33.8</ele>
        <time>2019-10-11T13:43:49Z</time>
      </trkpt>
      <trkpt lat="47.09789" lon="-1.25285">
        <ele>33.9</ele>
        <time>2019-10-11T13:43:51Z</time>
      </trkpt>
      <trkpt lat="47.09791" lon="-1.25279">
        <ele>33.9</ele>
        <time>2019-10-11T13:43:53Z</time>
      </trkpt>
      <trkpt lat="47.09793" lon="-1.25272">
        <ele>34.1</ele>
        <time>2019-10-11T13:43:55Z</time>
      </trkpt>
      <trkpt lat="47.09794" lon="-1.25269">
        <ele>34.2</ele>
        <time>2019-10-11T13:43:56Z</time>
      </trkpt>
      <trkpt lat="47.09796" lon="-1.25261">
        <ele>34.3</ele>
        <time>2019-10-11T13:43:58Z</time>
      </trkpt>
      <trkpt lat="47.09799" lon="-1.25255">
        <ele>34.5</ele>
        <time>2019-10-11T13:44:00Z</time>
      </trkpt>
      <trkpt lat="47.098" lon="-1.25252">
        <ele>34.5</ele>
        <time>2019-10-11T13:44:01Z</time>
      </trkpt>
      <trkpt lat="47.09801" lon="-1.25248">
        <ele>34.6</ele>
        <time>2019-10-11T13:44:02Z</time>
      </trkpt>
      <trkpt lat="47.09803" lon="-1.25244">
        <ele>34.7</ele>
        <time>2019-10-11T13:44:03Z</time>
      </trkpt>
      <trkpt lat="47.09804" lon="-1.2524">
        <ele>34.7</ele>
        <time>2019-10-11T13:44:04Z</time>
      </trkpt>
      <trkpt lat="47.09805" lon="-1.25236">
        <ele>34.7</ele>
        <time>2019-10-11T13:44:05Z</time>
      </trkpt>
      <trkpt lat="47.09807" lon="-1.25232">
        <ele>34.7</ele>
        <time>2019-10-11T13:44:06Z</time>
      </trkpt>
      <trkpt lat="47.09808" lon="-1.25228">
        <ele>34.7</ele>
        <time>2019-10-11T13:44:07Z</time>
      </trkpt>
      <trkpt lat="47.09809" lon="-1.25224">
        <ele>34.7</ele>
        <time>2019-10-11T13:44:08Z</time>
      </trkpt>
      <trkpt lat="47.0981" lon="-1.2522">
        <ele>34.7</ele>
        <time>2019-10-11T13:44:09Z</time>
      </trkpt>
      <trkpt lat="47.09811" lon="-1.25216">
        <ele>34.7</ele>
        <time>2019-10-11T13:44:10Z</time>
      </trkpt>
      <trkpt lat="47.09813" lon="-1.25212">
        <ele>34.7</ele>
        <time>2019-10-11T13:44:11Z</time>
      </trkpt>
      <trkpt lat="47.09814" lon="-1.25208">
        <ele>34.7</ele>
        <time>2019-10-11T13:44:12Z</time>
      </trkpt>
      <trkpt lat="47.09816" lon="-1.25204">
        <ele>34.6</ele>
        <time>2019-10-11T13:44:13Z</time>
      </trkpt>
      <trkpt lat="47.09817" lon="-1.252">
        <ele>34.6</ele>
        <time>2019-10-11T13:44:14Z</time>
      </trkpt>
      <trkpt lat="47.09819" lon="-1.25196">
        <ele>34.5</ele>
        <time>2019-10-11T13:44:15Z</time>
      </trkpt>
      <trkpt lat="47.0982" lon="-1.25193">
        <ele>34.5</ele>
        <time>2019-10-11T13:44:16Z</time>
      </trkpt>
      <trkpt lat="47.09822" lon="-1.25189">
        <ele>34.4</ele>
        <time>2019-10-11T13:44:17Z</time>
      </trkpt>
      <trkpt lat="47.09823" lon="-1.25185">
        <ele>34.4</ele>
        <time>2019-10-11T13:44:18Z</time>
      </trkpt>
      <trkpt lat="47.09824" lon="-1.25181">
        <ele>34.3</ele>
        <time>2019-10-11T13:44:19Z</time>
      </trkpt>
      <trkpt lat="47.09826" lon="-1.25177">
        <ele>34.2</ele>
        <time>2019-10-11T13:44:20Z</time>
      </trkpt>
      <trkpt lat="47.09827" lon="-1.25173">
        <ele>34.2</ele>
        <time>2019-10-11T13:44:21Z</time>
      </trkpt>
      <trkpt lat="47.09829" lon="-1.25168">
        <ele>34</ele>
        <time>2019-10-11T13:44:22Z</time>
      </trkpt>
      <trkpt lat="47.0983" lon="-1.25163">
        <ele>33.9</ele>
        <time>2019-10-11T13:44:23Z</time>
      </trkpt>
      <trkpt lat="47.09832" lon="-1.25157">
        <ele>33.7</ele>
        <time>2019-10-11T13:44:24Z</time>
      </trkpt>
      <trkpt lat="47.09834" lon="-1.25151">
        <ele>33.5</ele>
        <time>2019-10-11T13:44:25Z</time>
      </trkpt>
      <trkpt lat="47.09836" lon="-1.25145">
        <ele>33.3</ele>
        <time>2019-10-11T13:44:26Z</time>
      </trkpt>
      <trkpt lat="47.09838" lon="-1.25137">
        <ele>33.1</ele>
        <time>2019-10-11T13:44:27Z</time>
      </trkpt>
      <trkpt lat="47.0984" lon="-1.2513">
        <ele>32.9</ele>
        <time>2019-10-11T13:44:28Z</time>
      </trkpt>
      <trkpt lat="47.09841" lon="-1.25121">
        <ele>32.7</ele>
        <time>2019-10-11T13:44:29Z</time>
      </trkpt>
      <trkpt lat="47.09843" lon="-1.25112">
        <ele>32</ele>
        <time>2019-10-11T13:44:30Z</time>
      </trkpt>
      <trkpt lat="47.09845" lon="-1.25103">
        <ele>31.6</ele>
        <time>2019-10-11T13:44:31Z</time>
      </trkpt>
      <trkpt lat="47.09846" lon="-1.25093">
        <ele>31.1</ele>
        <time>2019-10-11T13:44:32Z</time>
      </trkpt>
      <trkpt lat="47.09847" lon="-1.25082">
        <ele>30.5</ele>
        <time>2019-10-11T13:44:33Z</time>
      </trkpt>
      <trkpt lat="47.09847" lon="-1.25071">
        <ele>29.9</ele>
        <time>2019-10-11T13:44:34Z</time>
      </trkpt>
      <trkpt lat="47.09847" lon="-1.25059">
        <ele>29.1</ele>
        <time>2019-10-11T13:44:35Z</time>
      </trkpt>
      <trkpt lat="47.09848" lon="-1.25047">
        <ele>28.5</ele>
        <time>2019-10-11T13:44:36Z</time>
      </trkpt>
      <trkpt lat="47.09848" lon="-1.25035">
        <ele>28</ele>
        <time>2019-10-11T13:44:37Z</time>
      </trkpt>
      <trkpt lat="47.09848" lon="-1.25023">
        <ele>27.5</ele>
        <time>2019-10-11T13:44:38Z</time>
      </trkpt>
      <trkpt lat="47.09847" lon="-1.2501">
        <ele>27</ele>
        <time>2019-10-11T13:44:39Z</time>
      </trkpt>
      <trkpt lat="47.09847" lon="-1.24997">
        <ele>26.7</ele>
        <time>2019-10-11T13:44:40Z</time>
      </trkpt>
      <trkpt lat="47.09847" lon="-1.24984">
        <ele>26.5</ele>
        <time>2019-10-11T13:44:41Z</time>
      </trkpt>
      <trkpt lat="47.09848" lon="-1.24972">
        <ele>26.4</ele>
        <time>2019-10-11T13:44:42Z</time>
      </trkpt>
      <trkpt lat="47.09848" lon="-1.24959">
        <ele>26.3</ele>
        <time>2019-10-11T13:44:43Z</time>
      </trkpt>
      <trkpt lat="47.09848" lon="-1.24947">
        <ele>26.3</ele>
        <time>2019-10-11T13:44:44Z</time>
      </trkpt>
      <trkpt lat="47.09849" lon="-1.24935">
        <ele>26.4</ele>
        <time>2019-10-11T13:44:45Z</time>
      </trkpt>
      <trkpt lat="47.09849" lon="-1.24924">
        <ele>26.5</ele>
        <time>2019-10-11T13:44:46Z</time>
      </trkpt>
      <trkpt lat="47.09849" lon="-1.24915">
        <ele>26.7</ele>
        <time>2019-10-11T13:44:47Z</time>
      </trkpt>
      <trkpt lat="47.0985" lon="-1.24904">
        <ele>27</ele>
        <time>2019-10-11T13:44:48Z</time>
      </trkpt>
      <trkpt lat="47.09851" lon="-1.24895">
        <ele>27.3</ele>
        <time>2019-10-11T13:44:49Z</time>
      </trkpt>
      <trkpt lat="47.09851" lon="-1.24886">
        <ele>27.5</ele>
        <time>2019-10-11T13:44:50Z</time>
      </trkpt>
      <trkpt lat="47.09851" lon="-1.24877">
        <ele>27.9</ele>
        <time>2019-10-11T13:44:51Z</time>
      </trkpt>
      <trkpt lat="47.09852" lon="-1.24869">
        <ele>28.2</ele>
        <time>2019-10-11T13:44:52Z</time>
      </trkpt>
      <trkpt lat="47.09852" lon="-1.24862">
        <ele>28.5</ele>
        <time>2019-10-11T13:44:53Z</time>
      </trkpt>
      <trkpt lat="47.09852" lon="-1.24855">
        <ele>28.8</ele>
        <time>2019-10-11T13:44:54Z</time>
      </trkpt>
      <trkpt lat="47.09853" lon="-1.24849">
        <ele>29.2</ele>
        <time>2019-10-11T13:44:55Z</time>
      </trkpt>
      <trkpt lat="47.09853" lon="-1.24843">
        <ele>29.6</ele>
        <time>2019-10-11T13:44:56Z</time>
      </trkpt>
      <trkpt lat="47.09853" lon="-1.24837">
        <ele>29.9</ele>
        <time>2019-10-11T13:44:57Z</time>
      </trkpt>
      <trkpt lat="47.09854" lon="-1.24832">
        <ele>30.1</ele>
        <time>2019-10-11T13:44:58Z</time>
      </trkpt>
      <trkpt lat="47.09854" lon="-1.24827">
        <ele>30.3</ele>
        <time>2019-10-11T13:44:59Z</time>
      </trkpt>
      <trkpt lat="47.09854" lon="-1.24822">
        <ele>30.5</ele>
        <time>2019-10-11T13:45:00Z</time>
      </trkpt>
      <trkpt lat="47.09854" lon="-1.24817">
        <ele>30.7</ele>
        <time>2019-10-11T13:45:01Z</time>
      </trkpt>
      <trkpt lat="47.09854" lon="-1.24813">
        <ele>30.9</ele>
        <time>2019-10-11T13:45:02Z</time>
      </trkpt>
      <trkpt lat="47.09854" lon="-1.24808">
        <ele>31.2</ele>
        <time>2019-10-11T13:45:03Z</time>
      </trkpt>
      <trkpt lat="47.09854" lon="-1.24803">
        <ele>31.4</ele>
        <time>2019-10-11T13:45:04Z</time>
      </trkpt>
      <trkpt lat="47.09854" lon="-1.24799">
        <ele>31.6</ele>
        <time>2019-10-11T13:45:05Z</time>
      </trkpt>
      <trkpt lat="47.09853" lon="-1.24793">
        <ele>31.9</ele>
        <time>2019-10-11T13:45:06Z</time>
      </trkpt>
      <trkpt lat="47.09853" lon="-1.24788">
        <ele>32.2</ele>
        <time>2019-10-11T13:45:07Z</time>
      </trkpt>
      <trkpt lat="47.09852" lon="-1.24781">
        <ele>32.6</ele>
        <time>2019-10-11T13:45:09Z</time>
      </trkpt>
      <trkpt lat="47.09852" lon="-1.24777">
        <ele>32.8</ele>
        <time>2019-10-11T13:45:10Z</time>
      </trkpt>
      <trkpt lat="47.09851" lon="-1.24769">
        <ele>33.1</ele>
        <time>2019-10-11T13:45:12Z</time>
      </trkpt>
      <trkpt lat="47.0985" lon="-1.24762">
        <ele>33.4</ele>
        <time>2019-10-11T13:45:14Z</time>
      </trkpt>
      <trkpt lat="47.09849" lon="-1.24756">
        <ele>33.7</ele>
        <time>2019-10-11T13:45:16Z</time>
      </trkpt>
      <trkpt lat="47.09847" lon="-1.24749">
        <ele>34</ele>
        <time>2019-10-11T13:45:18Z</time>
      </trkpt>
      <trkpt lat="47.09846" lon="-1.24743">
        <ele>34.3</ele>
        <time>2019-10-11T13:45:20Z</time>
      </trkpt>
      <trkpt lat="47.09844" lon="-1.24737">
        <ele>34.6</ele>
        <time>2019-10-11T13:45:22Z</time>
      </trkpt>
      <trkpt lat="47.09843" lon="-1.24731">
        <ele>34.9</ele>
        <time>2019-10-11T13:45:24Z</time>
      </trkpt>
      <trkpt lat="47.09841" lon="-1.24725">
        <ele>35.2</ele>
        <time>2019-10-11T13:45:26Z</time>
      </trkpt>
      <trkpt lat="47.0984" lon="-1.24719">
        <ele>35.5</ele>
        <time>2019-10-11T13:45:28Z</time>
      </trkpt>
      <trkpt lat="47.09838" lon="-1.24714">
        <ele>35.9</ele>
        <time>2019-10-11T13:45:30Z</time>
      </trkpt>
      <trkpt lat="47.09837" lon="-1.24708">
        <ele>36.1</ele>
        <time>2019-10-11T13:45:32Z</time>
      </trkpt>
      <trkpt lat="47.09835" lon="-1.24703">
        <ele>36.4</ele>
        <time>2019-10-11T13:45:34Z</time>
      </trkpt>
      <trkpt lat="47.09834" lon="-1.24697">
        <ele>36.7</ele>
        <time>2019-10-11T13:45:36Z</time>
      </trkpt>
      <trkpt lat="47.09832" lon="-1.24692">
        <ele>36.9</ele>
        <time>2019-10-11T13:45:38Z</time>
      </trkpt>
      <trkpt lat="47.09831" lon="-1.24687">
        <ele>37.1</ele>
        <time>2019-10-11T13:45:40Z</time>
      </trkpt>
      <trkpt lat="47.0983" lon="-1.24682">
        <ele>37.3</ele>
        <time>2019-10-11T13:45:42Z</time>
      </trkpt>
      <trkpt lat="47.09828" lon="-1.24677">
        <ele>37.5</ele>
        <time>2019-10-11T13:45:44Z</time>
      </trkpt>
      <trkpt lat="47.09827" lon="-1.24672">
        <ele>37.7</ele>
        <time>2019-10-11T13:45:46Z</time>
      </trkpt>
      <trkpt lat="47.09826" lon="-1.24666">
        <ele>37.9</ele>
        <time>2019-10-11T13:45:48Z</time>
      </trkpt>
      <trkpt lat="47.09825" lon="-1.24661">
        <ele>38.2</ele>
        <time>2019-10-11T13:45:50Z</time>
      </trkpt>
      <trkpt lat="47.09824" lon="-1.24656">
        <ele>38.3</ele>
        <time>2019-10-11T13:45:52Z</time>
      </trkpt>
      <trkpt lat="47.09823" lon="-1.24651">
        <ele>38.5</ele>
        <time>2019-10-11T13:45:54Z</time>
      </trkpt>
      <trkpt lat="47.09823" lon="-1.24646">
        <ele>38.7</ele>
        <time>2019-10-11T13:45:56Z</time>
      </trkpt>
      <trkpt lat="47.09822" lon="-1.24641">
        <ele>38.9</ele>
        <time>2019-10-11T13:45:58Z</time>
      </trkpt>
      <trkpt lat="47.09822" lon="-1.24636">
        <ele>39.1</ele>
        <time>2019-10-11T13:46:00Z</time>
      </trkpt>
      <trkpt lat="47.09822" lon="-1.24631">
        <ele>39.4</ele>
        <time>2019-10-11T13:46:02Z</time>
      </trkpt>
      <trkpt lat="47.09822" lon="-1.24624">
        <ele>39.7</ele>
        <time>2019-10-11T13:46:04Z</time>
      </trkpt>
      <trkpt lat="47.09823" lon="-1.24618">
        <ele>40</ele>
        <time>2019-10-11T13:46:06Z</time>
      </trkpt>
      <trkpt lat="47.09824" lon="-1.24612">
        <ele>40.3</ele>
        <time>2019-10-11T13:46:08Z</time>
      </trkpt>
      <trkpt lat="47.09824" lon="-1.24606">
        <ele>40.6</ele>
        <time>2019-10-11T13:46:10Z</time>
      </trkpt>
      <trkpt lat="47.09825" lon="-1.246">
        <ele>40.9</ele>
        <time>2019-10-11T13:46:12Z</time>
      </trkpt>
      <trkpt lat="47.09825" lon="-1.24594">
        <ele>41.1</ele>
        <time>2019-10-11T13:46:14Z</time>
      </trkpt>
      <trkpt lat="47.09826" lon="-1.24588">
        <ele>41.5</ele>
        <time>2019-10-11T13:46:16Z</time>
      </trkpt>
      <trkpt lat="47.09826" lon="-1.24582">
        <ele>41.8</ele>
        <time>2019-10-11T13:46:18Z</time>
      </trkpt>
      <trkpt lat="47.09827" lon="-1.24577">
        <ele>42.1</ele>
        <time>2019-10-11T13:46:20Z</time>
      </trkpt>
      <trkpt lat="47.09828" lon="-1.24571">
        <ele>42.2</ele>
        <time>2019-10-11T13:46:22Z</time>
      </trkpt>
      <trkpt lat="47.09829" lon="-1.24566">
        <ele>42.3</ele>
        <time>2019-10-11T13:46:24Z</time>
      </trkpt>
      <trkpt lat="47.09829" lon="-1.24561">
        <ele>42.5</ele>
        <time>2019-10-11T13:46:26Z</time>
      </trkpt>
      <trkpt lat="47.0983" lon="-1.24555">
        <ele>42.7</ele>
        <time>2019-10-11T13:46:28Z</time>
      </trkpt>
      <trkpt lat="47.09831" lon="-1.2455">
        <ele>42.8</ele>
        <time>2019-10-11T13:46:30Z</time>
      </trkpt>
      <trkpt lat="47.09831" lon="-1.24544">
        <ele>43</ele>
        <time>2019-10-11T13:46:32Z</time>
      </trkpt>
      <trkpt lat="47.09832" lon="-1.24539">
        <ele>43.1</ele>
        <time>2019-10-11T13:46:34Z</time>
      </trkpt>
      <trkpt lat="47.09833" lon="-1.24533">
        <ele>43.2</ele>
        <time>2019-10-11T13:46:36Z</time>
      </trkpt>
      <trkpt lat="47.09833" lon="-1.24529">
        <ele>43.2</ele>
        <time>2019-10-11T13:46:38Z</time>
      </trkpt>
      <trkpt lat="47.09834" lon="-1.24523">
        <ele>43.3</ele>
        <time>2019-10-11T13:46:40Z</time>
      </trkpt>
      <trkpt lat="47.09834" lon="-1.24517">
        <ele>43.4</ele>
        <time>2019-10-11T13:46:42Z</time>
      </trkpt>
      <trkpt lat="47.09835" lon="-1.24512">
        <ele>43.5</ele>
        <time>2019-10-11T13:46:44Z</time>
      </trkpt>
      <trkpt lat="47.09835" lon="-1.24507">
        <ele>43.5</ele>
        <time>2019-10-11T13:46:46Z</time>
      </trkpt>
      <trkpt lat="47.09833" lon="-1.24502">
        <ele>43.6</ele>
        <time>2019-10-11T13:46:48Z</time>
      </trkpt>
      <trkpt lat="47.09829" lon="-1.24498">
        <ele>44.3</ele>
        <time>2019-10-11T13:46:50Z</time>
      </trkpt>
      <trkpt lat="47.09825" lon="-1.24496">
        <ele>44.6</ele>
        <time>2019-10-11T13:46:52Z</time>
      </trkpt>
      <trkpt lat="47.09822" lon="-1.24494">
        <ele>44.8</ele>
        <time>2019-10-11T13:46:54Z</time>
      </trkpt>
      <trkpt lat="47.09818" lon="-1.24492">
        <ele>45.1</ele>
        <time>2019-10-11T13:46:56Z</time>
      </trkpt>
      <trkpt lat="47.09814" lon="-1.2449">
        <ele>45.3</ele>
        <time>2019-10-11T13:46:58Z</time>
      </trkpt>
      <trkpt lat="47.09811" lon="-1.24488">
        <ele>45.5</ele>
        <time>2019-10-11T13:47:00Z</time>
      </trkpt>
      <trkpt lat="47.09807" lon="-1.24486">
        <ele>45.8</ele>
        <time>2019-10-11T13:47:02Z</time>
      </trkpt>
      <trkpt lat="47.09804" lon="-1.24484">
        <ele>46</ele>
        <time>2019-10-11T13:47:04Z</time>
      </trkpt>
      <trkpt lat="47.098" lon="-1.24482">
        <ele>46.2</ele>
        <time>2019-10-11T13:47:06Z</time>
      </trkpt>
      <trkpt lat="47.09796" lon="-1.2448">
        <ele>46.4</ele>
        <time>2019-10-11T13:47:08Z</time>
      </trkpt>
      <trkpt lat="47.09792" lon="-1.24478">
        <ele>46.5</ele>
        <time>2019-10-11T13:47:10Z</time>
      </trkpt>
      <trkpt lat="47.09788" lon="-1.24476">
        <ele>46.6</ele>
        <time>2019-10-11T13:47:12Z</time>
      </trkpt>
      <trkpt lat="47.09785" lon="-1.24475">
        <ele>46.7</ele>
        <time>2019-10-11T13:47:14Z</time>
      </trkpt>
      <trkpt lat="47.09781" lon="-1.24473">
        <ele>46.7</ele>
        <time>2019-10-11T13:47:16Z</time>
      </trkpt>
      <trkpt lat="47.09777" lon="-1.24471">
        <ele>46.8</ele>
        <time>2019-10-11T13:47:18Z</time>
      </trkpt>
      <trkpt lat="47.09773" lon="-1.24469">
        <ele>46.8</ele>
        <time>2019-10-11T13:47:20Z</time>
      </trkpt>
      <trkpt lat="47.09769" lon="-1.24467">
        <ele>46.8</ele>
        <time>2019-10-11T13:47:22Z</time>
      </trkpt>
      <trkpt lat="47.09765" lon="-1.24465">
        <ele>46.8</ele>
        <time>2019-10-11T13:47:24Z</time>
      </trkpt>
      <trkpt lat="47.09761" lon="-1.24463">
        <ele>46.7</ele>
        <time>2019-10-11T13:47:26Z</time>
      </trkpt>
      <trkpt lat="47.09757" lon="-1.2446">
        <ele>46.6</ele>
        <time>2019-10-11T13:47:28Z</time>
      </trkpt>
      <trkpt lat="47.09753" lon="-1.24458">
        <ele>46.5</ele>
        <time>2019-10-11T13:47:30Z</time>
      </trkpt>
      <trkpt lat="47.0975" lon="-1.24457">
        <ele>46.4</ele>
        <time>2019-10-11T13:47:31Z</time>
      </trkpt>
      <trkpt lat="47.09747" lon="-1.24455">
        <ele>46.4</ele>
        <time>2019-10-11T13:47:32Z</time>
      </trkpt>
      <trkpt lat="47.09744" lon="-1.24453">
        <ele>46.3</ele>
        <time>2019-10-11T13:47:33Z</time>
      </trkpt>
      <trkpt lat="47.09741" lon="-1.24452">
        <ele>46.2</ele>
        <time>2019-10-11T13:47:34Z</time>
      </trkpt>
      <trkpt lat="47.09738" lon="-1.2445">
        <ele>46.1</ele>
        <time>2019-10-11T13:47:35Z</time>
      </trkpt>
      <trkpt lat="47.09735" lon="-1.24449">
        <ele>46.1</ele>
        <time>2019-10-11T13:47:36Z</time>
      </trkpt>
      <trkpt lat="47.09732" lon="-1.24447">
        <ele>46</ele>
        <time>2019-10-11T13:47:37Z</time>
      </trkpt>
      <trkpt lat="47.09728" lon="-1.24446">
        <ele>45.8</ele>
        <time>2019-10-11T13:47:38Z</time>
      </trkpt>
      <trkpt lat="47.09724" lon="-1.24445">
        <ele>45.6</ele>
        <time>2019-10-11T13:47:39Z</time>
      </trkpt>
      <trkpt lat="47.09721" lon="-1.24444">
        <ele>45.3</ele>
        <time>2019-10-11T13:47:40Z</time>
      </trkpt>
      <trkpt lat="47.09717" lon="-1.24441">
        <ele>45.1</ele>
        <time>2019-10-11T13:47:41Z</time>
      </trkpt>
      <trkpt lat="47.09712" lon="-1.24439">
        <ele>44.8</ele>
        <time>2019-10-11T13:47:42Z</time>
      </trkpt>
      <trkpt lat="47.09708" lon="-1.24436">
        <ele>44.5</ele>
        <time>2019-10-11T13:47:43Z</time>
      </trkpt>
      <trkpt lat="47.09703" lon="-1.24432">
        <ele>44.1</ele>
        <time>2019-10-11T13:47:44Z</time>
      </trkpt>
      <trkpt lat="47.09698" lon="-1.24429">
        <ele>43.7</ele>
        <time>2019-10-11T13:47:45Z</time>
      </trkpt>
      <trkpt lat="47.09693" lon="-1.24425">
        <ele>43.3</ele>
        <time>2019-10-11T13:47:46Z</time>
      </trkpt>
      <trkpt lat="47.09688" lon="-1.2442">
        <ele>42.7</ele>
        <time>2019-10-11T13:47:47Z</time>
      </trkpt>
      <trkpt lat="47.09682" lon="-1.24415">
        <ele>42.1</ele>
        <time>2019-10-11T13:47:48Z</time>
      </trkpt>
      <trkpt lat="47.09676" lon="-1.24412">
        <ele>41.4</ele>
        <time>2019-10-11T13:47:49Z</time>
      </trkpt>
      <trkpt lat="47.09671" lon="-1.24408">
        <ele>40.6</ele>
        <time>2019-10-11T13:47:50Z</time>
      </trkpt>
      <trkpt lat="47.09665" lon="-1.24404">
        <ele>39.8</ele>
        <time>2019-10-11T13:47:51Z</time>
      </trkpt>
      <trkpt lat="47.0966" lon="-1.24398">
        <ele>39.1</ele>
        <time>2019-10-11T13:47:52Z</time>
      </trkpt>
      <trkpt lat="47.09655" lon="-1.24393">
        <ele>38.4</ele>
        <time>2019-10-11T13:47:53Z</time>
      </trkpt>
      <trkpt lat="47.09651" lon="-1.24388">
        <ele>37.8</ele>
        <time>2019-10-11T13:47:54Z</time>
      </trkpt>
      <trkpt lat="47.09646" lon="-1.24383">
        <ele>37.3</ele>
        <time>2019-10-11T13:47:55Z</time>
      </trkpt>
      <trkpt lat="47.09641" lon="-1.24379">
        <ele>36.9</ele>
        <time>2019-10-11T13:47:56Z</time>
      </trkpt>
      <trkpt lat="47.09635" lon="-1.24375">
        <ele>36.4</ele>
        <time>2019-10-11T13:47:57Z</time>
      </trkpt>
      <trkpt lat="47.09629" lon="-1.24371">
        <ele>36.1</ele>
        <time>2019-10-11T13:47:58Z</time>
      </trkpt>
      <trkpt lat="47.09622" lon="-1.24368">
        <ele>35.8</ele>
        <time>2019-10-11T13:47:59Z</time>
      </trkpt>
      <trkpt lat="47.09618" lon="-1.24366">
        <ele>35.6</ele>
        <time>2019-10-11T13:48:00Z</time>
      </trkpt>
      <trkpt lat="47.09616" lon="-1.24363">
        <ele>35.5</ele>
        <time>2019-10-11T13:48:01Z</time>
      </trkpt>
      <trkpt lat="47.09615" lon="-1.24359">
        <ele>35.4</ele>
        <time>2019-10-11T13:48:02Z</time>
      </trkpt>
      <trkpt lat="47.09613" lon="-1.24356">
        <ele>35.3</ele>
        <time>2019-10-11T13:48:03Z</time>
      </trkpt>
      <trkpt lat="47.09612" lon="-1.24351">
        <ele>35.2</ele>
        <time>2019-10-11T13:48:05Z</time>
      </trkpt>
      <trkpt lat="47.09611" lon="-1.24346">
        <ele>35.2</ele>
        <time>2019-10-11T13:48:06Z</time>
      </trkpt>
      <trkpt lat="47.09608" lon="-1.24341">
        <ele>35.2</ele>
        <time>2019-10-11T13:48:08Z</time>
      </trkpt>
      <trkpt lat="47.09606" lon="-1.24338">
        <ele>35.2</ele>
        <time>2019-10-11T13:48:10Z</time>
      </trkpt>
      <trkpt lat="47.09601" lon="-1.24335">
        <ele>35.3</ele>
        <time>2019-10-11T13:48:12Z</time>
      </trkpt>
      <trkpt lat="47.09598" lon="-1.24332">
        <ele>35.4</ele>
        <time>2019-10-11T13:48:13Z</time>
      </trkpt>
      <trkpt lat="47.09595" lon="-1.2433">
        <ele>35.5</ele>
        <time>2019-10-11T13:48:14Z</time>
      </trkpt>
      <trkpt lat="47.09592" lon="-1.24328">
        <ele>35.6</ele>
        <time>2019-10-11T13:48:15Z</time>
      </trkpt>
      <trkpt lat="47.0959" lon="-1.24326">
        <ele>35.7</ele>
        <time>2019-10-11T13:48:16Z</time>
      </trkpt>
      <trkpt lat="47.09585" lon="-1.24323">
        <ele>35.9</ele>
        <time>2019-10-11T13:48:18Z</time>
      </trkpt>
      <trkpt lat="47.09583" lon="-1.24321">
        <ele>36</ele>
        <time>2019-10-11T13:48:19Z</time>
      </trkpt>
      <trkpt lat="47.0958" lon="-1.2432">
        <ele>36.2</ele>
        <time>2019-10-11T13:48:20Z</time>
      </trkpt>
      <trkpt lat="47.09576" lon="-1.24318">
        <ele>36.3</ele>
        <time>2019-10-11T13:48:21Z</time>
      </trkpt>
      <trkpt lat="47.09573" lon="-1.24317">
        <ele>36.5</ele>
        <time>2019-10-11T13:48:22Z</time>
      </trkpt>
      <trkpt lat="47.0957" lon="-1.24316">
        <ele>36.6</ele>
        <time>2019-10-11T13:48:23Z</time>
      </trkpt>
      <trkpt lat="47.09565" lon="-1.24312">
        <ele>36.8</ele>
        <time>2019-10-11T13:48:25Z</time>
      </trkpt>
      <trkpt lat="47.09561" lon="-1.24309">
        <ele>36.9</ele>
        <time>2019-10-11T13:48:27Z</time>
      </trkpt>
      <trkpt lat="47.09558" lon="-1.24306">
        <ele>36.9</ele>
        <time>2019-10-11T13:48:29Z</time>
      </trkpt>
      <trkpt lat="47.09552" lon="-1.243">
        <ele>37</ele>
        <time>2019-10-11T13:48:37Z</time>
      </trkpt>
      <trkpt lat="47.09547" lon="-1.24297">
        <ele>37</ele>
        <time>2019-10-11T13:48:53Z</time>
      </trkpt>
      <trkpt lat="47.09544" lon="-1.24295">
        <ele>37</ele>
        <time>2019-10-11T13:49:00Z</time>
      </trkpt>
      <trkpt lat="47.09541" lon="-1.24292">
        <ele>37</ele>
        <time>2019-10-11T13:49:02Z</time>
      </trkpt>
      <trkpt lat="47.09537" lon="-1.2429">
        <ele>37</ele>
        <time>2019-10-11T13:49:04Z</time>
      </trkpt>
      <trkpt lat="47.09535" lon="-1.24287">
        <ele>37</ele>
        <time>2019-10-11T13:49:06Z</time>
      </trkpt>
      <trkpt lat="47.09532" lon="-1.24281">
        <ele>37</ele>
        <time>2019-10-11T13:49:08Z</time>
      </trkpt>
      <trkpt lat="47.09531" lon="-1.24274">
        <ele>37</ele>
        <time>2019-10-11T13:49:10Z</time>
      </trkpt>
      <trkpt lat="47.09531" lon="-1.24267">
        <ele>37</ele>
        <time>2019-10-11T13:49:12Z</time>
      </trkpt>
      <trkpt lat="47.09531" lon="-1.2426">
        <ele>37</ele>
        <time>2019-10-11T13:49:14Z</time>
      </trkpt>
      <trkpt lat="47.09531" lon="-1.24254">
        <ele>37</ele>
        <time>2019-10-11T13:49:16Z</time>
      </trkpt>
      <trkpt lat="47.09532" lon="-1.24247">
        <ele>37</ele>
        <time>2019-10-11T13:49:18Z</time>
      </trkpt>
      <trkpt lat="47.09533" lon="-1.24242">
        <ele>37</ele>
        <time>2019-10-11T13:49:20Z</time>
      </trkpt>
      <trkpt lat="47.09533" lon="-1.24237">
        <ele>37</ele>
        <time>2019-10-11T13:49:22Z</time>
      </trkpt>
      <trkpt lat="47.09531" lon="-1.24233">
        <ele>36.8</ele>
        <time>2019-10-11T13:49:25Z</time>
      </trkpt>
      <trkpt lat="47.09529" lon="-1.24227">
        <ele>36.6</ele>
        <time>2019-10-11T13:49:27Z</time>
      </trkpt>
      <trkpt lat="47.09529" lon="-1.2422">
        <ele>36.4</ele>
        <time>2019-10-11T13:49:30Z</time>
      </trkpt>
      <trkpt lat="47.09531" lon="-1.24216">
        <ele>36.3</ele>
        <time>2019-10-11T13:49:32Z</time>
      </trkpt>
      <trkpt lat="47.09532" lon="-1.24211">
        <ele>36.1</ele>
        <time>2019-10-11T13:49:36Z</time>
      </trkpt>
      <trkpt lat="47.09531" lon="-1.24206">
        <ele>35.9</ele>
        <time>2019-10-11T13:49:37Z</time>
      </trkpt>
      <trkpt lat="47.09528" lon="-1.24202">
        <ele>35.7</ele>
        <time>2019-10-11T13:49:38Z</time>
      </trkpt>
      <trkpt lat="47.09524" lon="-1.24199">
        <ele>35.6</ele>
        <time>2019-10-11T13:49:40Z</time>
      </trkpt>
      <trkpt lat="47.09521" lon="-1.24195">
        <ele>35.4</ele>
        <time>2019-10-11T13:49:41Z</time>
      </trkpt>
      <trkpt lat="47.09519" lon="-1.24191">
        <ele>35.3</ele>
        <time>2019-10-11T13:49:42Z</time>
      </trkpt>
      <trkpt lat="47.09516" lon="-1.24187">
        <ele>35.1</ele>
        <time>2019-10-11T13:49:44Z</time>
      </trkpt>
      <trkpt lat="47.09514" lon="-1.24184">
        <ele>35</ele>
        <time>2019-10-11T13:49:45Z</time>
      </trkpt>
      <trkpt lat="47.09511" lon="-1.24182">
        <ele>34.9</ele>
        <time>2019-10-11T13:49:46Z</time>
      </trkpt>
      <trkpt lat="47.09508" lon="-1.24176">
        <ele>34.8</ele>
        <time>2019-10-11T13:49:47Z</time>
      </trkpt>
      <trkpt lat="47.09507" lon="-1.24171">
        <ele>34.6</ele>
        <time>2019-10-11T13:49:48Z</time>
      </trkpt>
      <trkpt lat="47.09506" lon="-1.24166">
        <ele>34.5</ele>
        <time>2019-10-11T13:49:49Z</time>
      </trkpt>
      <trkpt lat="47.09505" lon="-1.24161">
        <ele>34.4</ele>
        <time>2019-10-11T13:49:50Z</time>
      </trkpt>
      <trkpt lat="47.09504" lon="-1.24156">
        <ele>34.3</ele>
        <time>2019-10-11T13:49:51Z</time>
      </trkpt>
      <trkpt lat="47.09503" lon="-1.24151">
        <ele>34.2</ele>
        <time>2019-10-11T13:49:52Z</time>
      </trkpt>
      <trkpt lat="47.09502" lon="-1.24144">
        <ele>34</ele>
        <time>2019-10-11T13:49:54Z</time>
      </trkpt>
      <trkpt lat="47.09501" lon="-1.2414">
        <ele>33.9</ele>
        <time>2019-10-11T13:49:55Z</time>
      </trkpt>
      <trkpt lat="47.095" lon="-1.24135">
        <ele>33.8</ele>
        <time>2019-10-11T13:49:56Z</time>
      </trkpt>
      <trkpt lat="47.09499" lon="-1.24129">
        <ele>33.5</ele>
        <time>2019-10-11T13:49:57Z</time>
      </trkpt>
      <trkpt lat="47.09499" lon="-1.24122">
        <ele>33.3</ele>
        <time>2019-10-11T13:49:58Z</time>
      </trkpt>
      <trkpt lat="47.09499" lon="-1.24116">
        <ele>33.1</ele>
        <time>2019-10-11T13:49:59Z</time>
      </trkpt>
      <trkpt lat="47.095" lon="-1.2411">
        <ele>32.8</ele>
        <time>2019-10-11T13:50:00Z</time>
      </trkpt>
      <trkpt lat="47.09501" lon="-1.24105">
        <ele>32.6</ele>
        <time>2019-10-11T13:50:01Z</time>
      </trkpt>
      <trkpt lat="47.09502" lon="-1.24101">
        <ele>32.3</ele>
        <time>2019-10-11T13:50:02Z</time>
      </trkpt>
      <trkpt lat="47.09502" lon="-1.24097">
        <ele>32.1</ele>
        <time>2019-10-11T13:50:03Z</time>
      </trkpt>
      <trkpt lat="47.09501" lon="-1.24091">
        <ele>31.8</ele>
        <time>2019-10-11T13:50:04Z</time>
      </trkpt>
      <trkpt lat="47.09499" lon="-1.24086">
        <ele>31.4</ele>
        <time>2019-10-11T13:50:05Z</time>
      </trkpt>
      <trkpt lat="47.09498" lon="-1.24081">
        <ele>31.1</ele>
        <time>2019-10-11T13:50:06Z</time>
      </trkpt>
      <trkpt lat="47.09497" lon="-1.24077">
        <ele>30.8</ele>
        <time>2019-10-11T13:50:07Z</time>
      </trkpt>
      <trkpt lat="47.09494" lon="-1.24062">
        <ele>30</ele>
        <time>2019-10-11T13:50:35Z</time>
      </trkpt>
      <trkpt lat="47.09494" lon="-1.24058">
        <ele>29.9</ele>
        <time>2019-10-11T13:50:36Z</time>
      </trkpt>
      <trkpt lat="47.09495" lon="-1.24051">
        <ele>29.6</ele>
        <time>2019-10-11T13:50:37Z</time>
      </trkpt>
      <trkpt lat="47.09496" lon="-1.24046">
        <ele>29.5</ele>
        <time>2019-10-11T13:50:39Z</time>
      </trkpt>
      <trkpt lat="47.09502" lon="-1.24026">
        <ele>29</ele>
        <time>2019-10-11T13:51:33Z</time>
      </trkpt>
      <trkpt lat="47.09506" lon="-1.24022">
        <ele>28.8</ele>
        <time>2019-10-11T13:51:35Z</time>
      </trkpt>
      <trkpt lat="47.09509" lon="-1.2402">
        <ele>28.7</ele>
        <time>2019-10-11T13:51:36Z</time>
      </trkpt>
      <trkpt lat="47.09511" lon="-1.24017">
        <ele>28.6</ele>
        <time>2019-10-11T13:51:37Z</time>
      </trkpt>
      <trkpt lat="47.09516" lon="-1.24013">
        <ele>28.4</ele>
        <time>2019-10-11T13:51:39Z</time>
      </trkpt>
      <trkpt lat="47.0952" lon="-1.24011">
        <ele>28.3</ele>
        <time>2019-10-11T13:51:41Z</time>
      </trkpt>
      <trkpt lat="47.09524" lon="-1.24011">
        <ele>28.2</ele>
        <time>2019-10-11T13:51:43Z</time>
      </trkpt>
      <trkpt lat="47.09528" lon="-1.24008">
        <ele>28.1</ele>
        <time>2019-10-11T13:51:45Z</time>
      </trkpt>
      <trkpt lat="47.09531" lon="-1.24006">
        <ele>28.1</ele>
        <time>2019-10-11T13:51:46Z</time>
      </trkpt>
      <trkpt lat="47.09533" lon="-1.24004">
        <ele>28.1</ele>
        <time>2019-10-11T13:51:47Z</time>
      </trkpt>
      <trkpt lat="47.09537" lon="-1.24001">
        <ele>28</ele>
        <time>2019-10-11T13:51:49Z</time>
      </trkpt>
      <trkpt lat="47.09541" lon="-1.23997">
        <ele>28</ele>
        <time>2019-10-11T13:51:51Z</time>
      </trkpt>
      <trkpt lat="47.09545" lon="-1.23996">
        <ele>28</ele>
        <time>2019-10-11T13:51:53Z</time>
      </trkpt>
      <trkpt lat="47.0955" lon="-1.23994">
        <ele>28</ele>
        <time>2019-10-11T13:51:55Z</time>
      </trkpt>
      <trkpt lat="47.09553" lon="-1.23992">
        <ele>28</ele>
        <time>2019-10-11T13:51:56Z</time>
      </trkpt>
      <trkpt lat="47.09555" lon="-1.23991">
        <ele>28</ele>
        <time>2019-10-11T13:51:57Z</time>
      </trkpt>
      <trkpt lat="47.09559" lon="-1.23989">
        <ele>28</ele>
        <time>2019-10-11T13:51:58Z</time>
      </trkpt>
      <trkpt lat="47.09563" lon="-1.23987">
        <ele>28</ele>
        <time>2019-10-11T13:51:59Z</time>
      </trkpt>
      <trkpt lat="47.09567" lon="-1.23985">
        <ele>28</ele>
        <time>2019-10-11T13:52:00Z</time>
      </trkpt>
      <trkpt lat="47.0957" lon="-1.23983">
        <ele>28</ele>
        <time>2019-10-11T13:52:01Z</time>
      </trkpt>
      <trkpt lat="47.09573" lon="-1.23981">
        <ele>28</ele>
        <time>2019-10-11T13:52:02Z</time>
      </trkpt>
      <trkpt lat="47.09576" lon="-1.23978">
        <ele>28</ele>
        <time>2019-10-11T13:52:03Z</time>
      </trkpt>
      <trkpt lat="47.09579" lon="-1.23975">
        <ele>28</ele>
        <time>2019-10-11T13:52:04Z</time>
      </trkpt>
      <trkpt lat="47.09582" lon="-1.23971">
        <ele>28</ele>
        <time>2019-10-11T13:52:05Z</time>
      </trkpt>
      <trkpt lat="47.09585" lon="-1.23968">
        <ele>28</ele>
        <time>2019-10-11T13:52:06Z</time>
      </trkpt>
      <trkpt lat="47.09587" lon="-1.23963">
        <ele>28</ele>
        <time>2019-10-11T13:52:07Z</time>
      </trkpt>
      <trkpt lat="47.09589" lon="-1.2396">
        <ele>28</ele>
        <time>2019-10-11T13:52:08Z</time>
      </trkpt>
      <trkpt lat="47.09592" lon="-1.23954">
        <ele>28</ele>
        <time>2019-10-11T13:52:09Z</time>
      </trkpt>
      <trkpt lat="47.09594" lon="-1.23952">
        <ele>28</ele>
        <time>2019-10-11T13:52:10Z</time>
      </trkpt>
      <trkpt lat="47.09603" lon="-1.23947">
        <ele>28</ele>
        <time>2019-10-11T13:52:14Z</time>
      </trkpt>
      <trkpt lat="47.09607" lon="-1.23944">
        <ele>28</ele>
        <time>2019-10-11T13:52:16Z</time>
      </trkpt>
      <trkpt lat="47.0961" lon="-1.23941">
        <ele>28</ele>
        <time>2019-10-11T13:52:19Z</time>
      </trkpt>
      <trkpt lat="47.09613" lon="-1.23938">
        <ele>28</ele>
        <time>2019-10-11T13:52:21Z</time>
      </trkpt>
      <trkpt lat="47.09615" lon="-1.23936">
        <ele>28</ele>
        <time>2019-10-11T13:52:22Z</time>
      </trkpt>
      <trkpt lat="47.09619" lon="-1.2393">
        <ele>28.1</ele>
        <time>2019-10-11T13:52:24Z</time>
      </trkpt>
      <trkpt lat="47.09622" lon="-1.23926">
        <ele>28.2</ele>
        <time>2019-10-11T13:52:25Z</time>
      </trkpt>
      <trkpt lat="47.09623" lon="-1.23922">
        <ele>28.2</ele>
        <time>2019-10-11T13:52:26Z</time>
      </trkpt>
      <trkpt lat="47.09625" lon="-1.23917">
        <ele>28.3</ele>
        <time>2019-10-11T13:52:28Z</time>
      </trkpt>
      <trkpt lat="47.09628" lon="-1.23912">
        <ele>28.4</ele>
        <time>2019-10-11T13:52:30Z</time>
      </trkpt>
      <trkpt lat="47.09629" lon="-1.23909">
        <ele>28.4</ele>
        <time>2019-10-11T13:52:31Z</time>
      </trkpt>
      <trkpt lat="47.09632" lon="-1.23903">
        <ele>28.6</ele>
        <time>2019-10-11T13:52:33Z</time>
      </trkpt>
      <trkpt lat="47.09635" lon="-1.23898">
        <ele>28.7</ele>
        <time>2019-10-11T13:52:35Z</time>
      </trkpt>
      <trkpt lat="47.09636" lon="-1.23894">
        <ele>28.7</ele>
        <time>2019-10-11T13:52:36Z</time>
      </trkpt>
      <trkpt lat="47.09638" lon="-1.2389">
        <ele>28.8</ele>
        <time>2019-10-11T13:52:37Z</time>
      </trkpt>
      <trkpt lat="47.09641" lon="-1.23883">
        <ele>28.9</ele>
        <time>2019-10-11T13:52:39Z</time>
      </trkpt>
      <trkpt lat="47.09642" lon="-1.23879">
        <ele>28.9</ele>
        <time>2019-10-11T13:52:40Z</time>
      </trkpt>
      <trkpt lat="47.09643" lon="-1.23875">
        <ele>28.9</ele>
        <time>2019-10-11T13:52:41Z</time>
      </trkpt>
      <trkpt lat="47.09645" lon="-1.23869">
        <ele>28.9</ele>
        <time>2019-10-11T13:52:43Z</time>
      </trkpt>
      <trkpt lat="47.09646" lon="-1.23864">
        <ele>28.9</ele>
        <time>2019-10-11T13:52:44Z</time>
      </trkpt>
      <trkpt lat="47.09646" lon="-1.2386">
        <ele>28.9</ele>
        <time>2019-10-11T13:52:45Z</time>
      </trkpt>
      <trkpt lat="47.09647" lon="-1.23856">
        <ele>29</ele>
        <time>2019-10-11T13:52:46Z</time>
      </trkpt>
      <trkpt lat="47.09647" lon="-1.2385">
        <ele>29</ele>
        <time>2019-10-11T13:52:47Z</time>
      </trkpt>
      <trkpt lat="47.09648" lon="-1.23846">
        <ele>29</ele>
        <time>2019-10-11T13:52:48Z</time>
      </trkpt>
      <trkpt lat="47.09648" lon="-1.23841">
        <ele>29</ele>
        <time>2019-10-11T13:52:49Z</time>
      </trkpt>
      <trkpt lat="47.09649" lon="-1.23837">
        <ele>29</ele>
        <time>2019-10-11T13:52:50Z</time>
      </trkpt>
      <trkpt lat="47.09649" lon="-1.23832">
        <ele>29</ele>
        <time>2019-10-11T13:52:51Z</time>
      </trkpt>
      <trkpt lat="47.09649" lon="-1.23828">
        <ele>29</ele>
        <time>2019-10-11T13:52:52Z</time>
      </trkpt>
      <trkpt lat="47.09651" lon="-1.23821">
        <ele>29</ele>
        <time>2019-10-11T13:52:54Z</time>
      </trkpt>
      <trkpt lat="47.09651" lon="-1.23816">
        <ele>29</ele>
        <time>2019-10-11T13:52:56Z</time>
      </trkpt>
      <trkpt lat="47.09651" lon="-1.23811">
        <ele>29</ele>
        <time>2019-10-11T13:52:58Z</time>
      </trkpt>
      <trkpt lat="47.09651" lon="-1.23807">
        <ele>29</ele>
        <time>2019-10-11T13:52:59Z</time>
      </trkpt>
      <trkpt lat="47.0965" lon="-1.23803">
        <ele>29</ele>
        <time>2019-10-11T13:53:00Z</time>
      </trkpt>
      <trkpt lat="47.09651" lon="-1.23797">
        <ele>29</ele>
        <time>2019-10-11T13:53:01Z</time>
      </trkpt>
      <trkpt lat="47.09651" lon="-1.2379">
        <ele>29</ele>
        <time>2019-10-11T13:53:02Z</time>
      </trkpt>
      <trkpt lat="47.09651" lon="-1.23785">
        <ele>29</ele>
        <time>2019-10-11T13:53:03Z</time>
      </trkpt>
      <trkpt lat="47.0965" lon="-1.23779">
        <ele>29</ele>
        <time>2019-10-11T13:53:04Z</time>
      </trkpt>
      <trkpt lat="47.0965" lon="-1.23775">
        <ele>29</ele>
        <time>2019-10-11T13:53:05Z</time>
      </trkpt>
      <trkpt lat="47.09651" lon="-1.23769">
        <ele>29</ele>
        <time>2019-10-11T13:53:06Z</time>
      </trkpt>
      <trkpt lat="47.09651" lon="-1.23763">
        <ele>29</ele>
        <time>2019-10-11T13:53:07Z</time>
      </trkpt>
      <trkpt lat="47.09651" lon="-1.23758">
        <ele>29</ele>
        <time>2019-10-11T13:53:08Z</time>
      </trkpt>
      <trkpt lat="47.0965" lon="-1.23751">
        <ele>29</ele>
        <time>2019-10-11T13:53:10Z</time>
      </trkpt>
      <trkpt lat="47.09649" lon="-1.23745">
        <ele>29</ele>
        <time>2019-10-11T13:53:12Z</time>
      </trkpt>
      <trkpt lat="47.09649" lon="-1.23738">
        <ele>29</ele>
        <time>2019-10-11T13:53:14Z</time>
      </trkpt>
      <trkpt lat="47.0965" lon="-1.23733">
        <ele>29</ele>
        <time>2019-10-11T13:53:16Z</time>
      </trkpt>
      <trkpt lat="47.09649" lon="-1.23726">
        <ele>29.1</ele>
        <time>2019-10-11T13:53:18Z</time>
      </trkpt>
      <trkpt lat="47.09648" lon="-1.23719">
        <ele>29.2</ele>
        <time>2019-10-11T13:53:20Z</time>
      </trkpt>
      <trkpt lat="47.09648" lon="-1.23711">
        <ele>29.3</ele>
        <time>2019-10-11T13:53:22Z</time>
      </trkpt>
      <trkpt lat="47.09649" lon="-1.23705">
        <ele>29.4</ele>
        <time>2019-10-11T13:53:23Z</time>
      </trkpt>
      <trkpt lat="47.09648" lon="-1.237">
        <ele>29.5</ele>
        <time>2019-10-11T13:53:24Z</time>
      </trkpt>
      <trkpt lat="47.09647" lon="-1.23696">
        <ele>29.6</ele>
        <time>2019-10-11T13:53:25Z</time>
      </trkpt>
      <trkpt lat="47.09646" lon="-1.23692">
        <ele>29.6</ele>
        <time>2019-10-11T13:53:26Z</time>
      </trkpt>
      <trkpt lat="47.09646" lon="-1.23684">
        <ele>29.7</ele>
        <time>2019-10-11T13:53:28Z</time>
      </trkpt>
      <trkpt lat="47.09646" lon="-1.2368">
        <ele>29.8</ele>
        <time>2019-10-11T13:53:29Z</time>
      </trkpt>
      <trkpt lat="47.09646" lon="-1.23675">
        <ele>29.8</ele>
        <time>2019-10-11T13:53:30Z</time>
      </trkpt>
      <trkpt lat="47.09647" lon="-1.2367">
        <ele>29.9</ele>
        <time>2019-10-11T13:53:31Z</time>
      </trkpt>
      <trkpt lat="47.09647" lon="-1.23664">
        <ele>29.9</ele>
        <time>2019-10-11T13:53:32Z</time>
      </trkpt>
      <trkpt lat="47.09646" lon="-1.23657">
        <ele>29.9</ele>
        <time>2019-10-11T13:53:33Z</time>
      </trkpt>
      <trkpt lat="47.09645" lon="-1.2365">
        <ele>29.9</ele>
        <time>2019-10-11T13:53:34Z</time>
      </trkpt>
      <trkpt lat="47.09644" lon="-1.23643">
        <ele>29.9</ele>
        <time>2019-10-11T13:53:35Z</time>
      </trkpt>
      <trkpt lat="47.09643" lon="-1.23637">
        <ele>29.9</ele>
        <time>2019-10-11T13:53:36Z</time>
      </trkpt>
      <trkpt lat="47.09643" lon="-1.2363">
        <ele>29.9</ele>
        <time>2019-10-11T13:53:37Z</time>
      </trkpt>
      <trkpt lat="47.09642" lon="-1.23625">
        <ele>29.9</ele>
        <time>2019-10-11T13:53:38Z</time>
      </trkpt>
      <trkpt lat="47.09642" lon="-1.2362">
        <ele>29.9</ele>
        <time>2019-10-11T13:53:39Z</time>
      </trkpt>
      <trkpt lat="47.09642" lon="-1.23615">
        <ele>29.9</ele>
        <time>2019-10-11T13:53:40Z</time>
      </trkpt>
      <trkpt lat="47.09641" lon="-1.23611">
        <ele>29.9</ele>
        <time>2019-10-11T13:53:41Z</time>
      </trkpt>
      <trkpt lat="47.09641" lon="-1.23606">
        <ele>29.9</ele>
        <time>2019-10-11T13:53:42Z</time>
      </trkpt>
      <trkpt lat="47.09641" lon="-1.23602">
        <ele>29.9</ele>
        <time>2019-10-11T13:53:43Z</time>
      </trkpt>
      <trkpt lat="47.09641" lon="-1.23597">
        <ele>29.9</ele>
        <time>2019-10-11T13:53:44Z</time>
      </trkpt>
      <trkpt lat="47.09641" lon="-1.23592">
        <ele>29.9</ele>
        <time>2019-10-11T13:53:45Z</time>
      </trkpt>
      <trkpt lat="47.09641" lon="-1.23587">
        <ele>29.9</ele>
        <time>2019-10-11T13:53:46Z</time>
      </trkpt>
      <trkpt lat="47.0964" lon="-1.23582">
        <ele>29.9</ele>
        <time>2019-10-11T13:53:47Z</time>
      </trkpt>
      <trkpt lat="47.0964" lon="-1.23577">
        <ele>29.9</ele>
        <time>2019-10-11T13:53:48Z</time>
      </trkpt>
      <trkpt lat="47.0964" lon="-1.23572">
        <ele>29.9</ele>
        <time>2019-10-11T13:53:49Z</time>
      </trkpt>
      <trkpt lat="47.0964" lon="-1.23568">
        <ele>29.9</ele>
        <time>2019-10-11T13:53:50Z</time>
      </trkpt>
      <trkpt lat="47.0964" lon="-1.23561">
        <ele>29.9</ele>
        <time>2019-10-11T13:53:52Z</time>
      </trkpt>
      <trkpt lat="47.0964" lon="-1.23556">
        <ele>30</ele>
        <time>2019-10-11T13:53:53Z</time>
      </trkpt>
      <trkpt lat="47.0964" lon="-1.23552">
        <ele>30</ele>
        <time>2019-10-11T13:53:54Z</time>
      </trkpt>
      <trkpt lat="47.09641" lon="-1.23548">
        <ele>30</ele>
        <time>2019-10-11T13:53:55Z</time>
      </trkpt>
      <trkpt lat="47.09641" lon="-1.23543">
        <ele>30.1</ele>
        <time>2019-10-11T13:53:56Z</time>
      </trkpt>
      <trkpt lat="47.09642" lon="-1.23539">
        <ele>30.1</ele>
        <time>2019-10-11T13:53:57Z</time>
      </trkpt>
      <trkpt lat="47.09642" lon="-1.23534">
        <ele>30.1</ele>
        <time>2019-10-11T13:53:58Z</time>
      </trkpt>
      <trkpt lat="47.09643" lon="-1.23528">
        <ele>30.3</ele>
        <time>2019-10-11T13:54:00Z</time>
      </trkpt>
      <trkpt lat="47.09644" lon="-1.23522">
        <ele>30.4</ele>
        <time>2019-10-11T13:54:02Z</time>
      </trkpt>
      <trkpt lat="47.09646" lon="-1.23513">
        <ele>30.5</ele>
        <time>2019-10-11T13:54:04Z</time>
      </trkpt>
      <trkpt lat="47.09647" lon="-1.23508">
        <ele>30.6</ele>
        <time>2019-10-11T13:54:05Z</time>
      </trkpt>
      <trkpt lat="47.09648" lon="-1.23502">
        <ele>30.8</ele>
        <time>2019-10-11T13:54:06Z</time>
      </trkpt>
      <trkpt lat="47.09649" lon="-1.23498">
        <ele>30.9</ele>
        <time>2019-10-11T13:54:07Z</time>
      </trkpt>
      <trkpt lat="47.0965" lon="-1.23494">
        <ele>30.9</ele>
        <time>2019-10-11T13:54:08Z</time>
      </trkpt>
      <trkpt lat="47.09651" lon="-1.2349">
        <ele>31</ele>
        <time>2019-10-11T13:54:09Z</time>
      </trkpt>
      <trkpt lat="47.09653" lon="-1.23484">
        <ele>31.2</ele>
        <time>2019-10-11T13:54:11Z</time>
      </trkpt>
      <trkpt lat="47.09654" lon="-1.2348">
        <ele>31.3</ele>
        <time>2019-10-11T13:54:12Z</time>
      </trkpt>
      <trkpt lat="47.09655" lon="-1.23476">
        <ele>31.4</ele>
        <time>2019-10-11T13:54:13Z</time>
      </trkpt>
      <trkpt lat="47.09656" lon="-1.23471">
        <ele>31.5</ele>
        <time>2019-10-11T13:54:14Z</time>
      </trkpt>
      <trkpt lat="47.09657" lon="-1.23467">
        <ele>31.7</ele>
        <time>2019-10-11T13:54:15Z</time>
      </trkpt>
      <trkpt lat="47.09658" lon="-1.23463">
        <ele>31.8</ele>
        <time>2019-10-11T13:54:16Z</time>
      </trkpt>
      <trkpt lat="47.09659" lon="-1.23459">
        <ele>31.9</ele>
        <time>2019-10-11T13:54:17Z</time>
      </trkpt>
      <trkpt lat="47.0966" lon="-1.23453">
        <ele>32</ele>
        <time>2019-10-11T13:54:18Z</time>
      </trkpt>
      <trkpt lat="47.09661" lon="-1.23447">
        <ele>32.1</ele>
        <time>2019-10-11T13:54:19Z</time>
      </trkpt>
      <trkpt lat="47.09662" lon="-1.23443">
        <ele>32.2</ele>
        <time>2019-10-11T13:54:20Z</time>
      </trkpt>
      <trkpt lat="47.09664" lon="-1.23439">
        <ele>32.4</ele>
        <time>2019-10-11T13:54:21Z</time>
      </trkpt>
      <trkpt lat="47.09666" lon="-1.23435">
        <ele>32.5</ele>
        <time>2019-10-11T13:54:22Z</time>
      </trkpt>
      <trkpt lat="47.09669" lon="-1.23432">
        <ele>32.7</ele>
        <time>2019-10-11T13:54:23Z</time>
      </trkpt>
      <trkpt lat="47.09671" lon="-1.23428">
        <ele>32.8</ele>
        <time>2019-10-11T13:54:24Z</time>
      </trkpt>
      <trkpt lat="47.09674" lon="-1.23425">
        <ele>32.9</ele>
        <time>2019-10-11T13:54:25Z</time>
      </trkpt>
      <trkpt lat="47.09676" lon="-1.23421">
        <ele>33.1</ele>
        <time>2019-10-11T13:54:26Z</time>
      </trkpt>
      <trkpt lat="47.09678" lon="-1.23419">
        <ele>33.2</ele>
        <time>2019-10-11T13:54:27Z</time>
      </trkpt>
      <trkpt lat="47.09681" lon="-1.23416">
        <ele>33.3</ele>
        <time>2019-10-11T13:54:28Z</time>
      </trkpt>
      <trkpt lat="47.09683" lon="-1.23413">
        <ele>33.4</ele>
        <time>2019-10-11T13:54:29Z</time>
      </trkpt>
      <trkpt lat="47.09686" lon="-1.23411">
        <ele>33.5</ele>
        <time>2019-10-11T13:54:30Z</time>
      </trkpt>
      <trkpt lat="47.09689" lon="-1.23408">
        <ele>33.6</ele>
        <time>2019-10-11T13:54:31Z</time>
      </trkpt>
      <trkpt lat="47.09693" lon="-1.23405">
        <ele>33.7</ele>
        <time>2019-10-11T13:54:33Z</time>
      </trkpt>
      <trkpt lat="47.09696" lon="-1.23402">
        <ele>33.7</ele>
        <time>2019-10-11T13:54:34Z</time>
      </trkpt>
      <trkpt lat="47.09698" lon="-1.234">
        <ele>33.8</ele>
        <time>2019-10-11T13:54:35Z</time>
      </trkpt>
      <trkpt lat="47.09703" lon="-1.23397">
        <ele>33.8</ele>
        <time>2019-10-11T13:54:37Z</time>
      </trkpt>
      <trkpt lat="47.09705" lon="-1.23396">
        <ele>33.8</ele>
        <time>2019-10-11T13:54:38Z</time>
      </trkpt>
      <trkpt lat="47.09708" lon="-1.23394">
        <ele>33.8</ele>
        <time>2019-10-11T13:54:39Z</time>
      </trkpt>
      <trkpt lat="47.0971" lon="-1.23392">
        <ele>33.8</ele>
        <time>2019-10-11T13:54:40Z</time>
      </trkpt>
      <trkpt lat="47.09713" lon="-1.2339">
        <ele>33.9</ele>
        <time>2019-10-11T13:54:41Z</time>
      </trkpt>
      <trkpt lat="47.09717" lon="-1.23386">
        <ele>33.9</ele>
        <time>2019-10-11T13:54:43Z</time>
      </trkpt>
      <trkpt lat="47.09721" lon="-1.2338">
        <ele>33.9</ele>
        <time>2019-10-11T13:54:45Z</time>
      </trkpt>
      <trkpt lat="47.09724" lon="-1.23376">
        <ele>33.9</ele>
        <time>2019-10-11T13:54:47Z</time>
      </trkpt>
      <trkpt lat="47.09728" lon="-1.23372">
        <ele>33.9</ele>
        <time>2019-10-11T13:54:49Z</time>
      </trkpt>
      <trkpt lat="47.0973" lon="-1.2337">
        <ele>33.9</ele>
        <time>2019-10-11T13:54:50Z</time>
      </trkpt>
      <trkpt lat="47.09733" lon="-1.23368">
        <ele>33.9</ele>
        <time>2019-10-11T13:54:51Z</time>
      </trkpt>
      <trkpt lat="47.09738" lon="-1.23365">
        <ele>33.9</ele>
        <time>2019-10-11T13:54:53Z</time>
      </trkpt>
      <trkpt lat="47.09741" lon="-1.23362">
        <ele>33.9</ele>
        <time>2019-10-11T13:54:54Z</time>
      </trkpt>
      <trkpt lat="47.09745" lon="-1.23358">
        <ele>34</ele>
        <time>2019-10-11T13:54:56Z</time>
      </trkpt>
      <trkpt lat="47.09747" lon="-1.23356">
        <ele>34.1</ele>
        <time>2019-10-11T13:54:57Z</time>
      </trkpt>
      <trkpt lat="47.09752" lon="-1.23352">
        <ele>34.2</ele>
        <time>2019-10-11T13:54:59Z</time>
      </trkpt>
      <trkpt lat="47.09755" lon="-1.2335">
        <ele>34.3</ele>
        <time>2019-10-11T13:55:00Z</time>
      </trkpt>
      <trkpt lat="47.09759" lon="-1.23347">
        <ele>34.4</ele>
        <time>2019-10-11T13:55:02Z</time>
      </trkpt>
      <trkpt lat="47.09762" lon="-1.23345">
        <ele>34.5</ele>
        <time>2019-10-11T13:55:03Z</time>
      </trkpt>
      <trkpt lat="47.09765" lon="-1.23343">
        <ele>34.6</ele>
        <time>2019-10-11T13:55:04Z</time>
      </trkpt>
      <trkpt lat="47.09768" lon="-1.23341">
        <ele>34.6</ele>
        <time>2019-10-11T13:55:05Z</time>
      </trkpt>
      <trkpt lat="47.09771" lon="-1.23338">
        <ele>34.7</ele>
        <time>2019-10-11T13:55:06Z</time>
      </trkpt>
      <trkpt lat="47.09775" lon="-1.23334">
        <ele>34.7</ele>
        <time>2019-10-11T13:55:07Z</time>
      </trkpt>
      <trkpt lat="47.0978" lon="-1.23329">
        <ele>34.8</ele>
        <time>2019-10-11T13:55:08Z</time>
      </trkpt>
      <trkpt lat="47.09783" lon="-1.23326">
        <ele>34.8</ele>
        <time>2019-10-11T13:55:09Z</time>
      </trkpt>
      <trkpt lat="47.09786" lon="-1.23325">
        <ele>34.8</ele>
        <time>2019-10-11T13:55:10Z</time>
      </trkpt>
      <trkpt lat="47.0979" lon="-1.23322">
        <ele>34.8</ele>
        <time>2019-10-11T13:55:11Z</time>
      </trkpt>
      <trkpt lat="47.09794" lon="-1.23319">
        <ele>34.8</ele>
        <time>2019-10-11T13:55:12Z</time>
      </trkpt>
      <trkpt lat="47.09798" lon="-1.23315">
        <ele>34.8</ele>
        <time>2019-10-11T13:55:13Z</time>
      </trkpt>
      <trkpt lat="47.09802" lon="-1.23311">
        <ele>34.8</ele>
        <time>2019-10-11T13:55:14Z</time>
      </trkpt>
      <trkpt lat="47.09805" lon="-1.23309">
        <ele>34.8</ele>
        <time>2019-10-11T13:55:15Z</time>
      </trkpt>
      <trkpt lat="47.0981" lon="-1.23305">
        <ele>34.8</ele>
        <time>2019-10-11T13:55:16Z</time>
      </trkpt>
      <trkpt lat="47.09813" lon="-1.23304">
        <ele>34.8</ele>
        <time>2019-10-11T13:55:17Z</time>
      </trkpt>
      <trkpt lat="47.09817" lon="-1.23304">
        <ele>34.8</ele>
        <time>2019-10-11T13:55:19Z</time>
      </trkpt>
      <trkpt lat="47.0982" lon="-1.23306">
        <ele>34.8</ele>
        <time>2019-10-11T13:55:23Z</time>
      </trkpt>
      <trkpt lat="47.09824" lon="-1.23304">
        <ele>34.8</ele>
        <time>2019-10-11T13:56:00Z</time>
      </trkpt>
      <trkpt lat="47.09827" lon="-1.23302">
        <ele>35</ele>
        <time>2019-10-11T13:56:01Z</time>
      </trkpt>
      <trkpt lat="47.09832" lon="-1.23301">
        <ele>35.3</ele>
        <time>2019-10-11T13:56:03Z</time>
      </trkpt>
      <trkpt lat="47.09837" lon="-1.233">
        <ele>35.6</ele>
        <time>2019-10-11T13:56:05Z</time>
      </trkpt>
      <trkpt lat="47.09842" lon="-1.233">
        <ele>35.9</ele>
        <time>2019-10-11T13:56:07Z</time>
      </trkpt>
      <trkpt lat="47.09845" lon="-1.233">
        <ele>36.1</ele>
        <time>2019-10-11T13:56:08Z</time>
      </trkpt>
      <trkpt lat="47.09848" lon="-1.233">
        <ele>36.3</ele>
        <time>2019-10-11T13:56:09Z</time>
      </trkpt>
      <trkpt lat="47.09851" lon="-1.23301">
        <ele>36.5</ele>
        <time>2019-10-11T13:56:10Z</time>
      </trkpt>
      <trkpt lat="47.09854" lon="-1.23302">
        <ele>36.6</ele>
        <time>2019-10-11T13:56:11Z</time>
      </trkpt>
      <trkpt lat="47.09857" lon="-1.23303">
        <ele>36.8</ele>
        <time>2019-10-11T13:56:12Z</time>
      </trkpt>
      <trkpt lat="47.09861" lon="-1.23304">
        <ele>37</ele>
        <time>2019-10-11T13:56:13Z</time>
      </trkpt>
      <trkpt lat="47.09864" lon="-1.23305">
        <ele>37.2</ele>
        <time>2019-10-11T13:56:14Z</time>
      </trkpt>
      <trkpt lat="47.09868" lon="-1.23306">
        <ele>37.3</ele>
        <time>2019-10-11T13:56:15Z</time>
      </trkpt>
      <trkpt lat="47.09872" lon="-1.23307">
        <ele>37.5</ele>
        <time>2019-10-11T13:56:16Z</time>
      </trkpt>
      <trkpt lat="47.09875" lon="-1.23306">
        <ele>37.6</ele>
        <time>2019-10-11T13:56:17Z</time>
      </trkpt>
      <trkpt lat="47.09879" lon="-1.23306">
        <ele>37.6</ele>
        <time>2019-10-11T13:56:18Z</time>
      </trkpt>
      <trkpt lat="47.09884" lon="-1.23306">
        <ele>37.7</ele>
        <time>2019-10-11T13:56:20Z</time>
      </trkpt>
      <trkpt lat="47.09887" lon="-1.23308">
        <ele>37.8</ele>
        <time>2019-10-11T13:56:22Z</time>
      </trkpt>
      <trkpt lat="47.09891" lon="-1.23309">
        <ele>37.8</ele>
        <time>2019-10-11T13:56:24Z</time>
      </trkpt>
      <trkpt lat="47.09894" lon="-1.23309">
        <ele>37.8</ele>
        <time>2019-10-11T13:56:25Z</time>
      </trkpt>
      <trkpt lat="47.09897" lon="-1.23308">
        <ele>37.8</ele>
        <time>2019-10-11T13:56:26Z</time>
      </trkpt>
      <trkpt lat="47.09902" lon="-1.23307">
        <ele>37.8</ele>
        <time>2019-10-11T13:56:28Z</time>
      </trkpt>
      <trkpt lat="47.09905" lon="-1.23306">
        <ele>37.8</ele>
        <time>2019-10-11T13:56:29Z</time>
      </trkpt>
      <trkpt lat="47.09908" lon="-1.23306">
        <ele>37.9</ele>
        <time>2019-10-11T13:56:30Z</time>
      </trkpt>
      <trkpt lat="47.09911" lon="-1.23306">
        <ele>37.9</ele>
        <time>2019-10-11T13:56:31Z</time>
      </trkpt>
      <trkpt lat="47.09914" lon="-1.23306">
        <ele>37.9</ele>
        <time>2019-10-11T13:56:32Z</time>
      </trkpt>
      <trkpt lat="47.09917" lon="-1.23305">
        <ele>37.9</ele>
        <time>2019-10-11T13:56:33Z</time>
      </trkpt>
      <trkpt lat="47.0992" lon="-1.23305">
        <ele>38</ele>
        <time>2019-10-11T13:56:34Z</time>
      </trkpt>
      <trkpt lat="47.09924" lon="-1.23305">
        <ele>38</ele>
        <time>2019-10-11T13:56:35Z</time>
      </trkpt>
      <trkpt lat="47.09929" lon="-1.23303">
        <ele>38.1</ele>
        <time>2019-10-11T13:56:37Z</time>
      </trkpt>
      <trkpt lat="47.09933" lon="-1.23301">
        <ele>38.2</ele>
        <time>2019-10-11T13:56:39Z</time>
      </trkpt>
      <trkpt lat="47.09936" lon="-1.23299">
        <ele>38.3</ele>
        <time>2019-10-11T13:56:40Z</time>
      </trkpt>
      <trkpt lat="47.0994" lon="-1.23298">
        <ele>38.4</ele>
        <time>2019-10-11T13:56:41Z</time>
      </trkpt>
      <trkpt lat="47.09943" lon="-1.23295">
        <ele>38.5</ele>
        <time>2019-10-11T13:56:42Z</time>
      </trkpt>
      <trkpt lat="47.09946" lon="-1.23294">
        <ele>38.5</ele>
        <time>2019-10-11T13:56:43Z</time>
      </trkpt>
      <trkpt lat="47.09949" lon="-1.23292">
        <ele>38.6</ele>
        <time>2019-10-11T13:56:44Z</time>
      </trkpt>
      <trkpt lat="47.09952" lon="-1.23291">
        <ele>38.6</ele>
        <time>2019-10-11T13:56:45Z</time>
      </trkpt>
      <trkpt lat="47.09956" lon="-1.23288">
        <ele>38.7</ele>
        <time>2019-10-11T13:56:47Z</time>
      </trkpt>
      <trkpt lat="47.09961" lon="-1.23283">
        <ele>38.7</ele>
        <time>2019-10-11T13:56:49Z</time>
      </trkpt>
      <trkpt lat="47.09964" lon="-1.23281">
        <ele>38.8</ele>
        <time>2019-10-11T13:56:50Z</time>
      </trkpt>
      <trkpt lat="47.09967" lon="-1.23279">
        <ele>38.8</ele>
        <time>2019-10-11T13:56:51Z</time>
      </trkpt>
      <trkpt lat="47.09969" lon="-1.23277">
        <ele>38.8</ele>
        <time>2019-10-11T13:56:52Z</time>
      </trkpt>
      <trkpt lat="47.09973" lon="-1.23275">
        <ele>38.8</ele>
        <time>2019-10-11T13:56:53Z</time>
      </trkpt>
      <trkpt lat="47.09976" lon="-1.23274">
        <ele>38.8</ele>
        <time>2019-10-11T13:56:54Z</time>
      </trkpt>
      <trkpt lat="47.0998" lon="-1.23272">
        <ele>38.8</ele>
        <time>2019-10-11T13:56:56Z</time>
      </trkpt>
      <trkpt lat="47.09984" lon="-1.23271">
        <ele>38.8</ele>
        <time>2019-10-11T13:56:59Z</time>
      </trkpt>
      <trkpt lat="47.09988" lon="-1.23272">
        <ele>38.8</ele>
        <time>2019-10-11T13:57:01Z</time>
      </trkpt>
      <trkpt lat="47.09992" lon="-1.23273">
        <ele>38.8</ele>
        <time>2019-10-11T13:57:03Z</time>
      </trkpt>
      <trkpt lat="47.09995" lon="-1.23274">
        <ele>38.9</ele>
        <time>2019-10-11T13:57:05Z</time>
      </trkpt>
      <trkpt lat="47.09998" lon="-1.23274">
        <ele>38.9</ele>
        <time>2019-10-11T13:57:07Z</time>
      </trkpt>
      <trkpt lat="47.10001" lon="-1.23275">
        <ele>38.9</ele>
        <time>2019-10-11T13:57:09Z</time>
      </trkpt>
      <trkpt lat="47.10004" lon="-1.23276">
        <ele>39</ele>
        <time>2019-10-11T13:57:11Z</time>
      </trkpt>
      <trkpt lat="47.10008" lon="-1.23276">
        <ele>39.1</ele>
        <time>2019-10-11T13:57:14Z</time>
      </trkpt>
      <trkpt lat="47.10011" lon="-1.23276">
        <ele>39.2</ele>
        <time>2019-10-11T13:57:17Z</time>
      </trkpt>
      <trkpt lat="47.10014" lon="-1.23277">
        <ele>39.2</ele>
        <time>2019-10-11T13:57:19Z</time>
      </trkpt>
      <trkpt lat="47.10017" lon="-1.2328">
        <ele>39.3</ele>
        <time>2019-10-11T13:57:22Z</time>
      </trkpt>
      <trkpt lat="47.10019" lon="-1.23281">
        <ele>39.4</ele>
        <time>2019-10-11T13:57:24Z</time>
      </trkpt>
      <trkpt lat="47.10023" lon="-1.23284">
        <ele>39.5</ele>
        <time>2019-10-11T13:57:29Z</time>
      </trkpt>
      <trkpt lat="47.10025" lon="-1.23285">
        <ele>39.5</ele>
        <time>2019-10-11T13:57:32Z</time>
      </trkpt>
      <trkpt lat="47.10028" lon="-1.23289">
        <ele>39.6</ele>
        <time>2019-10-11T13:57:37Z</time>
      </trkpt>
      <trkpt lat="47.10031" lon="-1.23289">
        <ele>39.7</ele>
        <time>2019-10-11T13:57:40Z</time>
      </trkpt>
      <trkpt lat="47.10035" lon="-1.23288">
        <ele>39.7</ele>
        <time>2019-10-11T13:57:43Z</time>
      </trkpt>
      <trkpt lat="47.10038" lon="-1.23289">
        <ele>39.7</ele>
        <time>2019-10-11T13:57:46Z</time>
      </trkpt>
      <trkpt lat="47.1004" lon="-1.23292">
        <ele>39.7</ele>
        <time>2019-10-11T13:57:56Z</time>
      </trkpt>
      <trkpt lat="47.10047" lon="-1.23287">
        <ele>39.7</ele>
        <time>2019-10-11T14:06:34Z</time>
      </trkpt>
      <trkpt lat="47.10048" lon="-1.2328">
        <ele>39.7</ele>
        <time>2019-10-11T14:06:36Z</time>
      </trkpt>
      <trkpt lat="47.10049" lon="-1.23274">
        <ele>39.7</ele>
        <time>2019-10-11T14:06:38Z</time>
      </trkpt>
      <trkpt lat="47.10051" lon="-1.23266">
        <ele>39.7</ele>
        <time>2019-10-11T14:06:40Z</time>
      </trkpt>
      <trkpt lat="47.10053" lon="-1.23259">
        <ele>39.7</ele>
        <time>2019-10-11T14:06:42Z</time>
      </trkpt>
      <trkpt lat="47.10054" lon="-1.23251">
        <ele>39.7</ele>
        <time>2019-10-11T14:06:44Z</time>
      </trkpt>
      <trkpt lat="47.10055" lon="-1.23247">
        <ele>39.7</ele>
        <time>2019-10-11T14:06:45Z</time>
      </trkpt>
      <trkpt lat="47.10056" lon="-1.23243">
        <ele>39.7</ele>
        <time>2019-10-11T14:06:46Z</time>
      </trkpt>
      <trkpt lat="47.10057" lon="-1.23238">
        <ele>39.7</ele>
        <time>2019-10-11T14:06:47Z</time>
      </trkpt>
      <trkpt lat="47.10058" lon="-1.23235">
        <ele>39.7</ele>
        <time>2019-10-11T14:06:48Z</time>
      </trkpt>
      <trkpt lat="47.10058" lon="-1.2323">
        <ele>39.7</ele>
        <time>2019-10-11T14:06:49Z</time>
      </trkpt>
      <trkpt lat="47.10058" lon="-1.23226">
        <ele>39.7</ele>
        <time>2019-10-11T14:06:50Z</time>
      </trkpt>
      <trkpt lat="47.10058" lon="-1.2322">
        <ele>39.7</ele>
        <time>2019-10-11T14:06:51Z</time>
      </trkpt>
      <trkpt lat="47.10059" lon="-1.23213">
        <ele>39.7</ele>
        <time>2019-10-11T14:06:52Z</time>
      </trkpt>
      <trkpt lat="47.10059" lon="-1.23207">
        <ele>39.7</ele>
        <time>2019-10-11T14:06:53Z</time>
      </trkpt>
      <trkpt lat="47.1006" lon="-1.23201">
        <ele>39.7</ele>
        <time>2019-10-11T14:06:54Z</time>
      </trkpt>
      <trkpt lat="47.1006" lon="-1.23195">
        <ele>39.7</ele>
        <time>2019-10-11T14:06:55Z</time>
      </trkpt>
      <trkpt lat="47.10061" lon="-1.23189">
        <ele>39.7</ele>
        <time>2019-10-11T14:06:56Z</time>
      </trkpt>
      <trkpt lat="47.10061" lon="-1.23182">
        <ele>39.7</ele>
        <time>2019-10-11T14:06:57Z</time>
      </trkpt>
      <trkpt lat="47.10061" lon="-1.23175">
        <ele>39.7</ele>
        <time>2019-10-11T14:06:58Z</time>
      </trkpt>
      <trkpt lat="47.10062" lon="-1.23167">
        <ele>39.7</ele>
        <time>2019-10-11T14:06:59Z</time>
      </trkpt>
      <trkpt lat="47.10062" lon="-1.23159">
        <ele>39.6</ele>
        <time>2019-10-11T14:07:00Z</time>
      </trkpt>
      <trkpt lat="47.10063" lon="-1.23149">
        <ele>39.5</ele>
        <time>2019-10-11T14:07:01Z</time>
      </trkpt>
      <trkpt lat="47.10063" lon="-1.2314">
        <ele>39.3</ele>
        <time>2019-10-11T14:07:02Z</time>
      </trkpt>
      <trkpt lat="47.10064" lon="-1.23132">
        <ele>39.1</ele>
        <time>2019-10-11T14:07:03Z</time>
      </trkpt>
      <trkpt lat="47.10065" lon="-1.23124">
        <ele>38.8</ele>
        <time>2019-10-11T14:07:04Z</time>
      </trkpt>
      <trkpt lat="47.10065" lon="-1.23115">
        <ele>38.5</ele>
        <time>2019-10-11T14:07:05Z</time>
      </trkpt>
      <trkpt lat="47.10065" lon="-1.23106">
        <ele>38.4</ele>
        <time>2019-10-11T14:07:06Z</time>
      </trkpt>
      <trkpt lat="47.10066" lon="-1.23098">
        <ele>38.2</ele>
        <time>2019-10-11T14:07:07Z</time>
      </trkpt>
      <trkpt lat="47.10066" lon="-1.2309">
        <ele>38.1</ele>
        <time>2019-10-11T14:07:08Z</time>
      </trkpt>
      <trkpt lat="47.10066" lon="-1.23082">
        <ele>37.9</ele>
        <time>2019-10-11T14:07:09Z</time>
      </trkpt>
      <trkpt lat="47.10066" lon="-1.23075">
        <ele>37.8</ele>
        <time>2019-10-11T14:07:10Z</time>
      </trkpt>
      <trkpt lat="47.10066" lon="-1.23068">
        <ele>37.8</ele>
        <time>2019-10-11T14:07:11Z</time>
      </trkpt>
      <trkpt lat="47.10066" lon="-1.23062">
        <ele>37.7</ele>
        <time>2019-10-11T14:07:12Z</time>
      </trkpt>
      <trkpt lat="47.10067" lon="-1.23055">
        <ele>37.7</ele>
        <time>2019-10-11T14:07:13Z</time>
      </trkpt>
      <trkpt lat="47.10068" lon="-1.23049">
        <ele>37.7</ele>
        <time>2019-10-11T14:07:14Z</time>
      </trkpt>
      <trkpt lat="47.10069" lon="-1.23043">
        <ele>37.7</ele>
        <time>2019-10-11T14:07:15Z</time>
      </trkpt>
      <trkpt lat="47.1007" lon="-1.23037">
        <ele>37.7</ele>
        <time>2019-10-11T14:07:16Z</time>
      </trkpt>
      <trkpt lat="47.10071" lon="-1.23031">
        <ele>37.6</ele>
        <time>2019-10-11T14:07:17Z</time>
      </trkpt>
      <trkpt lat="47.10072" lon="-1.23025">
        <ele>37.6</ele>
        <time>2019-10-11T14:07:18Z</time>
      </trkpt>
      <trkpt lat="47.10072" lon="-1.23018">
        <ele>37.5</ele>
        <time>2019-10-11T14:07:19Z</time>
      </trkpt>
      <trkpt lat="47.10073" lon="-1.23012">
        <ele>37.4</ele>
        <time>2019-10-11T14:07:20Z</time>
      </trkpt>
      <trkpt lat="47.10074" lon="-1.23006">
        <ele>37.3</ele>
        <time>2019-10-11T14:07:21Z</time>
      </trkpt>
      <trkpt lat="47.10074" lon="-1.23">
        <ele>37.2</ele>
        <time>2019-10-11T14:07:22Z</time>
      </trkpt>
      <trkpt lat="47.10075" lon="-1.22993">
        <ele>37.1</ele>
        <time>2019-10-11T14:07:23Z</time>
      </trkpt>
      <trkpt lat="47.10076" lon="-1.22987">
        <ele>37</ele>
        <time>2019-10-11T14:07:24Z</time>
      </trkpt>
      <trkpt lat="47.10077" lon="-1.22982">
        <ele>37</ele>
        <time>2019-10-11T14:07:25Z</time>
      </trkpt>
      <trkpt lat="47.10079" lon="-1.22975">
        <ele>36.9</ele>
        <time>2019-10-11T14:07:26Z</time>
      </trkpt>
      <trkpt lat="47.1008" lon="-1.22971">
        <ele>36.9</ele>
        <time>2019-10-11T14:07:27Z</time>
      </trkpt>
      <trkpt lat="47.1008" lon="-1.22966">
        <ele>36.8</ele>
        <time>2019-10-11T14:07:28Z</time>
      </trkpt>
      <trkpt lat="47.1008" lon="-1.2296">
        <ele>36.8</ele>
        <time>2019-10-11T14:07:29Z</time>
      </trkpt>
      <trkpt lat="47.10081" lon="-1.22956">
        <ele>36.7</ele>
        <time>2019-10-11T14:07:30Z</time>
      </trkpt>
      <trkpt lat="47.10082" lon="-1.22951">
        <ele>36.7</ele>
        <time>2019-10-11T14:07:31Z</time>
      </trkpt>
      <trkpt lat="47.10083" lon="-1.22946">
        <ele>36.7</ele>
        <time>2019-10-11T14:07:32Z</time>
      </trkpt>
      <trkpt lat="47.10083" lon="-1.22941">
        <ele>36.7</ele>
        <time>2019-10-11T14:07:33Z</time>
      </trkpt>
      <trkpt lat="47.10083" lon="-1.22936">
        <ele>36.7</ele>
        <time>2019-10-11T14:07:34Z</time>
      </trkpt>
      <trkpt lat="47.10084" lon="-1.22931">
        <ele>36.6</ele>
        <time>2019-10-11T14:07:35Z</time>
      </trkpt>
      <trkpt lat="47.10085" lon="-1.22923">
        <ele>36.6</ele>
        <time>2019-10-11T14:07:37Z</time>
      </trkpt>
      <trkpt lat="47.10086" lon="-1.22918">
        <ele>36.6</ele>
        <time>2019-10-11T14:07:38Z</time>
      </trkpt>
      <trkpt lat="47.10087" lon="-1.22913">
        <ele>36.5</ele>
        <time>2019-10-11T14:07:39Z</time>
      </trkpt>
      <trkpt lat="47.10089" lon="-1.22908">
        <ele>36.4</ele>
        <time>2019-10-11T14:07:40Z</time>
      </trkpt>
      <trkpt lat="47.1009" lon="-1.22904">
        <ele>36.3</ele>
        <time>2019-10-11T14:07:41Z</time>
      </trkpt>
      <trkpt lat="47.10091" lon="-1.229">
        <ele>36.3</ele>
        <time>2019-10-11T14:07:42Z</time>
      </trkpt>
      <trkpt lat="47.10092" lon="-1.22895">
        <ele>36.2</ele>
        <time>2019-10-11T14:07:43Z</time>
      </trkpt>
      <trkpt lat="47.10093" lon="-1.22889">
        <ele>36.1</ele>
        <time>2019-10-11T14:07:44Z</time>
      </trkpt>
      <trkpt lat="47.10092" lon="-1.22883">
        <ele>36</ele>
        <time>2019-10-11T14:07:45Z</time>
      </trkpt>
      <trkpt lat="47.10092" lon="-1.22877">
        <ele>35.9</ele>
        <time>2019-10-11T14:07:46Z</time>
      </trkpt>
      <trkpt lat="47.10091" lon="-1.2287">
        <ele>35.9</ele>
        <time>2019-10-11T14:07:47Z</time>
      </trkpt>
      <trkpt lat="47.10089" lon="-1.22863">
        <ele>35.8</ele>
        <time>2019-10-11T14:07:48Z</time>
      </trkpt>
      <trkpt lat="47.10088" lon="-1.22855">
        <ele>35.7</ele>
        <time>2019-10-11T14:07:49Z</time>
      </trkpt>
      <trkpt lat="47.10087" lon="-1.22847">
        <ele>35.7</ele>
        <time>2019-10-11T14:07:50Z</time>
      </trkpt>
      <trkpt lat="47.10085" lon="-1.2284">
        <ele>35.7</ele>
        <time>2019-10-11T14:07:51Z</time>
      </trkpt>
      <trkpt lat="47.10084" lon="-1.22831">
        <ele>35.7</ele>
        <time>2019-10-11T14:07:52Z</time>
      </trkpt>
      <trkpt lat="47.10084" lon="-1.22823">
        <ele>35.7</ele>
        <time>2019-10-11T14:07:53Z</time>
      </trkpt>
      <trkpt lat="47.10083" lon="-1.22814">
        <ele>35.7</ele>
        <time>2019-10-11T14:07:54Z</time>
      </trkpt>
      <trkpt lat="47.10083" lon="-1.22807">
        <ele>35.7</ele>
        <time>2019-10-11T14:07:55Z</time>
      </trkpt>
      <trkpt lat="47.10082" lon="-1.228">
        <ele>35.8</ele>
        <time>2019-10-11T14:07:56Z</time>
      </trkpt>
      <trkpt lat="47.10082" lon="-1.22795">
        <ele>35.9</ele>
        <time>2019-10-11T14:07:57Z</time>
      </trkpt>
      <trkpt lat="47.10082" lon="-1.22789">
        <ele>36</ele>
        <time>2019-10-11T14:07:58Z</time>
      </trkpt>
      <trkpt lat="47.10081" lon="-1.22783">
        <ele>36.1</ele>
        <time>2019-10-11T14:07:59Z</time>
      </trkpt>
      <trkpt lat="47.10081" lon="-1.22778">
        <ele>36.1</ele>
        <time>2019-10-11T14:08:00Z</time>
      </trkpt>
      <trkpt lat="47.10081" lon="-1.22772">
        <ele>36.2</ele>
        <time>2019-10-11T14:08:01Z</time>
      </trkpt>
      <trkpt lat="47.10081" lon="-1.22766">
        <ele>36.3</ele>
        <time>2019-10-11T14:08:02Z</time>
      </trkpt>
      <trkpt lat="47.10081" lon="-1.2276">
        <ele>36.3</ele>
        <time>2019-10-11T14:08:03Z</time>
      </trkpt>
      <trkpt lat="47.1008" lon="-1.22754">
        <ele>36.4</ele>
        <time>2019-10-11T14:08:04Z</time>
      </trkpt>
      <trkpt lat="47.10079" lon="-1.22749">
        <ele>36.5</ele>
        <time>2019-10-11T14:08:05Z</time>
      </trkpt>
      <trkpt lat="47.10079" lon="-1.22744">
        <ele>36.5</ele>
        <time>2019-10-11T14:08:06Z</time>
      </trkpt>
      <trkpt lat="47.10078" lon="-1.22737">
        <ele>36.6</ele>
        <time>2019-10-11T14:08:07Z</time>
      </trkpt>
      <trkpt lat="47.10077" lon="-1.22728">
        <ele>36.6</ele>
        <time>2019-10-11T14:08:08Z</time>
      </trkpt>
      <trkpt lat="47.10077" lon="-1.22721">
        <ele>36.6</ele>
        <time>2019-10-11T14:08:09Z</time>
      </trkpt>
      <trkpt lat="47.10077" lon="-1.22715">
        <ele>36.6</ele>
        <time>2019-10-11T14:08:10Z</time>
      </trkpt>
      <trkpt lat="47.10077" lon="-1.2271">
        <ele>36.6</ele>
        <time>2019-10-11T14:08:11Z</time>
      </trkpt>
      <trkpt lat="47.10077" lon="-1.22704">
        <ele>36.6</ele>
        <time>2019-10-11T14:08:12Z</time>
      </trkpt>
      <trkpt lat="47.10078" lon="-1.22696">
        <ele>36.5</ele>
        <time>2019-10-11T14:08:13Z</time>
      </trkpt>
      <trkpt lat="47.10079" lon="-1.2269">
        <ele>36.4</ele>
        <time>2019-10-11T14:08:14Z</time>
      </trkpt>
      <trkpt lat="47.10079" lon="-1.22684">
        <ele>36.3</ele>
        <time>2019-10-11T14:08:15Z</time>
      </trkpt>
      <trkpt lat="47.1008" lon="-1.22679">
        <ele>36.2</ele>
        <time>2019-10-11T14:08:16Z</time>
      </trkpt>
      <trkpt lat="47.10081" lon="-1.22674">
        <ele>36.2</ele>
        <time>2019-10-11T14:08:17Z</time>
      </trkpt>
      <trkpt lat="47.10082" lon="-1.22669">
        <ele>36.1</ele>
        <time>2019-10-11T14:08:18Z</time>
      </trkpt>
      <trkpt lat="47.10082" lon="-1.22662">
        <ele>36</ele>
        <time>2019-10-11T14:08:19Z</time>
      </trkpt>
      <trkpt lat="47.10083" lon="-1.22657">
        <ele>35.9</ele>
        <time>2019-10-11T14:08:20Z</time>
      </trkpt>
      <trkpt lat="47.10084" lon="-1.22651">
        <ele>35.8</ele>
        <time>2019-10-11T14:08:21Z</time>
      </trkpt>
      <trkpt lat="47.10084" lon="-1.22645">
        <ele>35.8</ele>
        <time>2019-10-11T14:08:22Z</time>
      </trkpt>
      <trkpt lat="47.10084" lon="-1.22639">
        <ele>35.7</ele>
        <time>2019-10-11T14:08:23Z</time>
      </trkpt>
      <trkpt lat="47.10084" lon="-1.22631">
        <ele>35.7</ele>
        <time>2019-10-11T14:08:24Z</time>
      </trkpt>
      <trkpt lat="47.10084" lon="-1.22625">
        <ele>35.6</ele>
        <time>2019-10-11T14:08:25Z</time>
      </trkpt>
      <trkpt lat="47.10084" lon="-1.22619">
        <ele>35.6</ele>
        <time>2019-10-11T14:08:26Z</time>
      </trkpt>
      <trkpt lat="47.10084" lon="-1.22613">
        <ele>35.6</ele>
        <time>2019-10-11T14:08:27Z</time>
      </trkpt>
      <trkpt lat="47.10083" lon="-1.22607">
        <ele>35.6</ele>
        <time>2019-10-11T14:08:28Z</time>
      </trkpt>
      <trkpt lat="47.10083" lon="-1.22602">
        <ele>35.5</ele>
        <time>2019-10-11T14:08:29Z</time>
      </trkpt>
      <trkpt lat="47.10084" lon="-1.22596">
        <ele>35.4</ele>
        <time>2019-10-11T14:08:30Z</time>
      </trkpt>
      <trkpt lat="47.10084" lon="-1.22589">
        <ele>35.4</ele>
        <time>2019-10-11T14:08:31Z</time>
      </trkpt>
      <trkpt lat="47.10084" lon="-1.22584">
        <ele>35.3</ele>
        <time>2019-10-11T14:08:32Z</time>
      </trkpt>
      <trkpt lat="47.10084" lon="-1.22577">
        <ele>35.1</ele>
        <time>2019-10-11T14:08:33Z</time>
      </trkpt>
      <trkpt lat="47.10084" lon="-1.2257">
        <ele>35</ele>
        <time>2019-10-11T14:08:34Z</time>
      </trkpt>
      <trkpt lat="47.10082" lon="-1.22562">
        <ele>34.9</ele>
        <time>2019-10-11T14:08:35Z</time>
      </trkpt>
      <trkpt lat="47.10081" lon="-1.22556">
        <ele>34.8</ele>
        <time>2019-10-11T14:08:36Z</time>
      </trkpt>
      <trkpt lat="47.1008" lon="-1.22551">
        <ele>34.7</ele>
        <time>2019-10-11T14:08:37Z</time>
      </trkpt>
      <trkpt lat="47.10079" lon="-1.22546">
        <ele>34.7</ele>
        <time>2019-10-11T14:08:38Z</time>
      </trkpt>
      <trkpt lat="47.10078" lon="-1.22539">
        <ele>34.6</ele>
        <time>2019-10-11T14:08:39Z</time>
      </trkpt>
      <trkpt lat="47.10076" lon="-1.22533">
        <ele>34.6</ele>
        <time>2019-10-11T14:08:40Z</time>
      </trkpt>
      <trkpt lat="47.10075" lon="-1.22527">
        <ele>34.6</ele>
        <time>2019-10-11T14:08:41Z</time>
      </trkpt>
      <trkpt lat="47.10074" lon="-1.22521">
        <ele>34.6</ele>
        <time>2019-10-11T14:08:42Z</time>
      </trkpt>
      <trkpt lat="47.10073" lon="-1.22515">
        <ele>34.5</ele>
        <time>2019-10-11T14:08:43Z</time>
      </trkpt>
      <trkpt lat="47.10073" lon="-1.2251">
        <ele>34.5</ele>
        <time>2019-10-11T14:08:44Z</time>
      </trkpt>
      <trkpt lat="47.10072" lon="-1.22504">
        <ele>34.4</ele>
        <time>2019-10-11T14:08:45Z</time>
      </trkpt>
      <trkpt lat="47.10071" lon="-1.22498">
        <ele>34.3</ele>
        <time>2019-10-11T14:08:46Z</time>
      </trkpt>
      <trkpt lat="47.10071" lon="-1.22492">
        <ele>34.1</ele>
        <time>2019-10-11T14:08:47Z</time>
      </trkpt>
      <trkpt lat="47.1007" lon="-1.22486">
        <ele>33.8</ele>
        <time>2019-10-11T14:08:48Z</time>
      </trkpt>
      <trkpt lat="47.1007" lon="-1.2248">
        <ele>33.6</ele>
        <time>2019-10-11T14:08:49Z</time>
      </trkpt>
      <trkpt lat="47.10069" lon="-1.22474">
        <ele>33.4</ele>
        <time>2019-10-11T14:08:50Z</time>
      </trkpt>
      <trkpt lat="47.10068" lon="-1.22468">
        <ele>33.2</ele>
        <time>2019-10-11T14:08:51Z</time>
      </trkpt>
      <trkpt lat="47.10067" lon="-1.22462">
        <ele>33.1</ele>
        <time>2019-10-11T14:08:52Z</time>
      </trkpt>
      <trkpt lat="47.10066" lon="-1.22456">
        <ele>32.9</ele>
        <time>2019-10-11T14:08:53Z</time>
      </trkpt>
      <trkpt lat="47.10066" lon="-1.2245">
        <ele>32.8</ele>
        <time>2019-10-11T14:08:54Z</time>
      </trkpt>
      <trkpt lat="47.10065" lon="-1.22444">
        <ele>32.7</ele>
        <time>2019-10-11T14:08:55Z</time>
      </trkpt>
      <trkpt lat="47.10065" lon="-1.22437">
        <ele>32.7</ele>
        <time>2019-10-11T14:08:56Z</time>
      </trkpt>
      <trkpt lat="47.10065" lon="-1.2243">
        <ele>32.6</ele>
        <time>2019-10-11T14:08:57Z</time>
      </trkpt>
      <trkpt lat="47.10065" lon="-1.22423">
        <ele>32.6</ele>
        <time>2019-10-11T14:08:58Z</time>
      </trkpt>
      <trkpt lat="47.10066" lon="-1.22417">
        <ele>32.6</ele>
        <time>2019-10-11T14:08:59Z</time>
      </trkpt>
      <trkpt lat="47.10067" lon="-1.2241">
        <ele>32.6</ele>
        <time>2019-10-11T14:09:00Z</time>
      </trkpt>
      <trkpt lat="47.10068" lon="-1.22404">
        <ele>32.6</ele>
        <time>2019-10-11T14:09:01Z</time>
      </trkpt>
      <trkpt lat="47.10069" lon="-1.22397">
        <ele>32.6</ele>
        <time>2019-10-11T14:09:02Z</time>
      </trkpt>
      <trkpt lat="47.1007" lon="-1.22391">
        <ele>32.6</ele>
        <time>2019-10-11T14:09:03Z</time>
      </trkpt>
      <trkpt lat="47.10071" lon="-1.22386">
        <ele>32.6</ele>
        <time>2019-10-11T14:09:04Z</time>
      </trkpt>
      <trkpt lat="47.10072" lon="-1.22381">
        <ele>32.6</ele>
        <time>2019-10-11T14:09:05Z</time>
      </trkpt>
      <trkpt lat="47.10073" lon="-1.22375">
        <ele>32.6</ele>
        <time>2019-10-11T14:09:06Z</time>
      </trkpt>
      <trkpt lat="47.10074" lon="-1.22369">
        <ele>32.6</ele>
        <time>2019-10-11T14:09:07Z</time>
      </trkpt>
      <trkpt lat="47.10075" lon="-1.22363">
        <ele>32.6</ele>
        <time>2019-10-11T14:09:08Z</time>
      </trkpt>
      <trkpt lat="47.10076" lon="-1.22357">
        <ele>32.6</ele>
        <time>2019-10-11T14:09:09Z</time>
      </trkpt>
      <trkpt lat="47.10077" lon="-1.22351">
        <ele>32.6</ele>
        <time>2019-10-11T14:09:10Z</time>
      </trkpt>
      <trkpt lat="47.10078" lon="-1.22345">
        <ele>32.5</ele>
        <time>2019-10-11T14:09:11Z</time>
      </trkpt>
      <trkpt lat="47.10078" lon="-1.22339">
        <ele>32.5</ele>
        <time>2019-10-11T14:09:12Z</time>
      </trkpt>
      <trkpt lat="47.10078" lon="-1.22333">
        <ele>32.5</ele>
        <time>2019-10-11T14:09:13Z</time>
      </trkpt>
      <trkpt lat="47.10077" lon="-1.22328">
        <ele>32.5</ele>
        <time>2019-10-11T14:09:14Z</time>
      </trkpt>
      <trkpt lat="47.10075" lon="-1.22322">
        <ele>32.5</ele>
        <time>2019-10-11T14:09:15Z</time>
      </trkpt>
      <trkpt lat="47.10073" lon="-1.22316">
        <ele>32.5</ele>
        <time>2019-10-11T14:09:16Z</time>
      </trkpt>
      <trkpt lat="47.10071" lon="-1.22312">
        <ele>32.5</ele>
        <time>2019-10-11T14:09:17Z</time>
      </trkpt>
      <trkpt lat="47.10068" lon="-1.22307">
        <ele>32.5</ele>
        <time>2019-10-11T14:09:18Z</time>
      </trkpt>
      <trkpt lat="47.10065" lon="-1.22302">
        <ele>32.5</ele>
        <time>2019-10-11T14:09:19Z</time>
      </trkpt>
      <trkpt lat="47.10061" lon="-1.22297">
        <ele>32.4</ele>
        <time>2019-10-11T14:09:20Z</time>
      </trkpt>
      <trkpt lat="47.10058" lon="-1.22293">
        <ele>32.3</ele>
        <time>2019-10-11T14:09:21Z</time>
      </trkpt>
      <trkpt lat="47.10054" lon="-1.22289">
        <ele>32.2</ele>
        <time>2019-10-11T14:09:22Z</time>
      </trkpt>
      <trkpt lat="47.1005" lon="-1.22285">
        <ele>32.1</ele>
        <time>2019-10-11T14:09:23Z</time>
      </trkpt>
      <trkpt lat="47.10047" lon="-1.22282">
        <ele>31.9</ele>
        <time>2019-10-11T14:09:24Z</time>
      </trkpt>
      <trkpt lat="47.10043" lon="-1.22278">
        <ele>31.7</ele>
        <time>2019-10-11T14:09:25Z</time>
      </trkpt>
      <trkpt lat="47.1004" lon="-1.22275">
        <ele>31.6</ele>
        <time>2019-10-11T14:09:26Z</time>
      </trkpt>
      <trkpt lat="47.10037" lon="-1.2227">
        <ele>31.4</ele>
        <time>2019-10-11T14:09:27Z</time>
      </trkpt>
      <trkpt lat="47.10035" lon="-1.22265">
        <ele>31.3</ele>
        <time>2019-10-11T14:09:28Z</time>
      </trkpt>
      <trkpt lat="47.10034" lon="-1.22258">
        <ele>31.1</ele>
        <time>2019-10-11T14:09:29Z</time>
      </trkpt>
      <trkpt lat="47.10033" lon="-1.22252">
        <ele>30.9</ele>
        <time>2019-10-11T14:09:30Z</time>
      </trkpt>
      <trkpt lat="47.10032" lon="-1.22245">
        <ele>30.8</ele>
        <time>2019-10-11T14:09:31Z</time>
      </trkpt>
      <trkpt lat="47.10031" lon="-1.22239">
        <ele>30.7</ele>
        <time>2019-10-11T14:09:32Z</time>
      </trkpt>
      <trkpt lat="47.1003" lon="-1.22232">
        <ele>30.6</ele>
        <time>2019-10-11T14:09:33Z</time>
      </trkpt>
      <trkpt lat="47.10028" lon="-1.22226">
        <ele>30.6</ele>
        <time>2019-10-11T14:09:34Z</time>
      </trkpt>
      <trkpt lat="47.10028" lon="-1.2222">
        <ele>30.6</ele>
        <time>2019-10-11T14:09:35Z</time>
      </trkpt>
      <trkpt lat="47.10026" lon="-1.22214">
        <ele>30.5</ele>
        <time>2019-10-11T14:09:36Z</time>
      </trkpt>
      <trkpt lat="47.10025" lon="-1.22207">
        <ele>30.5</ele>
        <time>2019-10-11T14:09:37Z</time>
      </trkpt>
      <trkpt lat="47.10024" lon="-1.22201">
        <ele>30.5</ele>
        <time>2019-10-11T14:09:38Z</time>
      </trkpt>
      <trkpt lat="47.10023" lon="-1.22194">
        <ele>30.5</ele>
        <time>2019-10-11T14:09:39Z</time>
      </trkpt>
      <trkpt lat="47.10022" lon="-1.22188">
        <ele>30.5</ele>
        <time>2019-10-11T14:09:40Z</time>
      </trkpt>
      <trkpt lat="47.10021" lon="-1.22182">
        <ele>30.6</ele>
        <time>2019-10-11T14:09:41Z</time>
      </trkpt>
      <trkpt lat="47.10021" lon="-1.22176">
        <ele>30.6</ele>
        <time>2019-10-11T14:09:42Z</time>
      </trkpt>
      <trkpt lat="47.1002" lon="-1.22171">
        <ele>30.6</ele>
        <time>2019-10-11T14:09:43Z</time>
      </trkpt>
      <trkpt lat="47.10019" lon="-1.22165">
        <ele>30.7</ele>
        <time>2019-10-11T14:09:44Z</time>
      </trkpt>
      <trkpt lat="47.10019" lon="-1.22159">
        <ele>30.7</ele>
        <time>2019-10-11T14:09:45Z</time>
      </trkpt>
      <trkpt lat="47.10018" lon="-1.22152">
        <ele>30.8</ele>
        <time>2019-10-11T14:09:46Z</time>
      </trkpt>
      <trkpt lat="47.10017" lon="-1.22146">
        <ele>30.9</ele>
        <time>2019-10-11T14:09:47Z</time>
      </trkpt>
      <trkpt lat="47.10017" lon="-1.2214">
        <ele>31</ele>
        <time>2019-10-11T14:09:48Z</time>
      </trkpt>
      <trkpt lat="47.10016" lon="-1.22134">
        <ele>31</ele>
        <time>2019-10-11T14:09:49Z</time>
      </trkpt>
      <trkpt lat="47.10016" lon="-1.22128">
        <ele>31.1</ele>
        <time>2019-10-11T14:09:50Z</time>
      </trkpt>
      <trkpt lat="47.10015" lon="-1.22122">
        <ele>31.2</ele>
        <time>2019-10-11T14:09:51Z</time>
      </trkpt>
      <trkpt lat="47.10015" lon="-1.22115">
        <ele>31.3</ele>
        <time>2019-10-11T14:09:52Z</time>
      </trkpt>
      <trkpt lat="47.10014" lon="-1.22109">
        <ele>31.3</ele>
        <time>2019-10-11T14:09:53Z</time>
      </trkpt>
      <trkpt lat="47.10014" lon="-1.22103">
        <ele>31.4</ele>
        <time>2019-10-11T14:09:54Z</time>
      </trkpt>
      <trkpt lat="47.10015" lon="-1.22096">
        <ele>31.4</ele>
        <time>2019-10-11T14:09:55Z</time>
      </trkpt>
      <trkpt lat="47.10016" lon="-1.2209">
        <ele>31.4</ele>
        <time>2019-10-11T14:09:56Z</time>
      </trkpt>
      <trkpt lat="47.10017" lon="-1.22085">
        <ele>31.5</ele>
        <time>2019-10-11T14:09:57Z</time>
      </trkpt>
      <trkpt lat="47.10019" lon="-1.22079">
        <ele>31.5</ele>
        <time>2019-10-11T14:09:58Z</time>
      </trkpt>
      <trkpt lat="47.1002" lon="-1.22074">
        <ele>31.5</ele>
        <time>2019-10-11T14:09:59Z</time>
      </trkpt>
      <trkpt lat="47.10022" lon="-1.22069">
        <ele>31.5</ele>
        <time>2019-10-11T14:10:00Z</time>
      </trkpt>
      <trkpt lat="47.10022" lon="-1.22063">
        <ele>31.5</ele>
        <time>2019-10-11T14:10:01Z</time>
      </trkpt>
      <trkpt lat="47.10021" lon="-1.22058">
        <ele>31.5</ele>
        <time>2019-10-11T14:10:02Z</time>
      </trkpt>
      <trkpt lat="47.10019" lon="-1.22052">
        <ele>31.5</ele>
        <time>2019-10-11T14:10:03Z</time>
      </trkpt>
      <trkpt lat="47.10017" lon="-1.22047">
        <ele>31.5</ele>
        <time>2019-10-11T14:10:04Z</time>
      </trkpt>
      <trkpt lat="47.10014" lon="-1.22042">
        <ele>31.5</ele>
        <time>2019-10-11T14:10:05Z</time>
      </trkpt>
      <trkpt lat="47.10011" lon="-1.22036">
        <ele>31.5</ele>
        <time>2019-10-11T14:10:06Z</time>
      </trkpt>
      <trkpt lat="47.10008" lon="-1.22031">
        <ele>31.5</ele>
        <time>2019-10-11T14:10:07Z</time>
      </trkpt>
      <trkpt lat="47.10005" lon="-1.22026">
        <ele>31.5</ele>
        <time>2019-10-11T14:10:08Z</time>
      </trkpt>
      <trkpt lat="47.10003" lon="-1.2202">
        <ele>31.5</ele>
        <time>2019-10-11T14:10:09Z</time>
      </trkpt>
      <trkpt lat="47.1" lon="-1.22015">
        <ele>31.5</ele>
        <time>2019-10-11T14:10:10Z</time>
      </trkpt>
      <trkpt lat="47.09998" lon="-1.22012">
        <ele>31.5</ele>
        <time>2019-10-11T14:10:11Z</time>
      </trkpt>
      <trkpt lat="47.09996" lon="-1.22007">
        <ele>31.5</ele>
        <time>2019-10-11T14:10:12Z</time>
      </trkpt>
      <trkpt lat="47.09994" lon="-1.22001">
        <ele>31.5</ele>
        <time>2019-10-11T14:10:13Z</time>
      </trkpt>
      <trkpt lat="47.09992" lon="-1.21996">
        <ele>31.6</ele>
        <time>2019-10-11T14:10:14Z</time>
      </trkpt>
      <trkpt lat="47.0999" lon="-1.2199">
        <ele>31.6</ele>
        <time>2019-10-11T14:10:15Z</time>
      </trkpt>
      <trkpt lat="47.09987" lon="-1.21985">
        <ele>31.7</ele>
        <time>2019-10-11T14:10:16Z</time>
      </trkpt>
      <trkpt lat="47.09986" lon="-1.21979">
        <ele>31.7</ele>
        <time>2019-10-11T14:10:17Z</time>
      </trkpt>
      <trkpt lat="47.09984" lon="-1.21973">
        <ele>31.9</ele>
        <time>2019-10-11T14:10:18Z</time>
      </trkpt>
      <trkpt lat="47.09983" lon="-1.21968">
        <ele>32</ele>
        <time>2019-10-11T14:10:19Z</time>
      </trkpt>
      <trkpt lat="47.09982" lon="-1.21963">
        <ele>32.1</ele>
        <time>2019-10-11T14:10:20Z</time>
      </trkpt>
      <trkpt lat="47.09981" lon="-1.21956">
        <ele>32.2</ele>
        <time>2019-10-11T14:10:21Z</time>
      </trkpt>
      <trkpt lat="47.0998" lon="-1.2195">
        <ele>32.3</ele>
        <time>2019-10-11T14:10:22Z</time>
      </trkpt>
      <trkpt lat="47.09979" lon="-1.21944">
        <ele>32.4</ele>
        <time>2019-10-11T14:10:23Z</time>
      </trkpt>
      <trkpt lat="47.09978" lon="-1.21938">
        <ele>32.4</ele>
        <time>2019-10-11T14:10:24Z</time>
      </trkpt>
      <trkpt lat="47.09977" lon="-1.21931">
        <ele>32.5</ele>
        <time>2019-10-11T14:10:25Z</time>
      </trkpt>
      <trkpt lat="47.09976" lon="-1.21925">
        <ele>32.5</ele>
        <time>2019-10-11T14:10:26Z</time>
      </trkpt>
      <trkpt lat="47.09975" lon="-1.21919">
        <ele>32.5</ele>
        <time>2019-10-11T14:10:27Z</time>
      </trkpt>
      <trkpt lat="47.09975" lon="-1.21914">
        <ele>32.6</ele>
        <time>2019-10-11T14:10:28Z</time>
      </trkpt>
      <trkpt lat="47.09975" lon="-1.2191">
        <ele>32.6</ele>
        <time>2019-10-11T14:10:29Z</time>
      </trkpt>
      <trkpt lat="47.09975" lon="-1.21903">
        <ele>32.6</ele>
        <time>2019-10-11T14:10:30Z</time>
      </trkpt>
      <trkpt lat="47.09975" lon="-1.21895">
        <ele>32.6</ele>
        <time>2019-10-11T14:10:31Z</time>
      </trkpt>
      <trkpt lat="47.09974" lon="-1.21888">
        <ele>32.6</ele>
        <time>2019-10-11T14:10:32Z</time>
      </trkpt>
      <trkpt lat="47.09974" lon="-1.21882">
        <ele>32.6</ele>
        <time>2019-10-11T14:10:33Z</time>
      </trkpt>
      <trkpt lat="47.09973" lon="-1.21877">
        <ele>32.6</ele>
        <time>2019-10-11T14:10:34Z</time>
      </trkpt>
      <trkpt lat="47.09973" lon="-1.21872">
        <ele>32.6</ele>
        <time>2019-10-11T14:10:35Z</time>
      </trkpt>
      <trkpt lat="47.09972" lon="-1.21867">
        <ele>32.6</ele>
        <time>2019-10-11T14:10:36Z</time>
      </trkpt>
      <trkpt lat="47.09971" lon="-1.2186">
        <ele>32.6</ele>
        <time>2019-10-11T14:10:37Z</time>
      </trkpt>
      <trkpt lat="47.0997" lon="-1.21854">
        <ele>32.7</ele>
        <time>2019-10-11T14:10:38Z</time>
      </trkpt>
      <trkpt lat="47.0997" lon="-1.21847">
        <ele>32.7</ele>
        <time>2019-10-11T14:10:39Z</time>
      </trkpt>
      <trkpt lat="47.09969" lon="-1.21841">
        <ele>32.8</ele>
        <time>2019-10-11T14:10:40Z</time>
      </trkpt>
      <trkpt lat="47.09968" lon="-1.21834">
        <ele>32.9</ele>
        <time>2019-10-11T14:10:41Z</time>
      </trkpt>
      <trkpt lat="47.09967" lon="-1.21828">
        <ele>33</ele>
        <time>2019-10-11T14:10:42Z</time>
      </trkpt>
      <trkpt lat="47.09966" lon="-1.2182">
        <ele>33.2</ele>
        <time>2019-10-11T14:10:43Z</time>
      </trkpt>
      <trkpt lat="47.09964" lon="-1.21813">
        <ele>33.3</ele>
        <time>2019-10-11T14:10:44Z</time>
      </trkpt>
      <trkpt lat="47.09963" lon="-1.21806">
        <ele>33.4</ele>
        <time>2019-10-11T14:10:45Z</time>
      </trkpt>
      <trkpt lat="47.09962" lon="-1.218">
        <ele>33.5</ele>
        <time>2019-10-11T14:10:46Z</time>
      </trkpt>
      <trkpt lat="47.0996" lon="-1.21794">
        <ele>33.6</ele>
        <time>2019-10-11T14:10:47Z</time>
      </trkpt>
      <trkpt lat="47.09959" lon="-1.21788">
        <ele>33.6</ele>
        <time>2019-10-11T14:10:48Z</time>
      </trkpt>
      <trkpt lat="47.09957" lon="-1.21782">
        <ele>33.7</ele>
        <time>2019-10-11T14:10:49Z</time>
      </trkpt>
      <trkpt lat="47.09956" lon="-1.21775">
        <ele>33.8</ele>
        <time>2019-10-11T14:10:50Z</time>
      </trkpt>
      <trkpt lat="47.09954" lon="-1.21768">
        <ele>33.9</ele>
        <time>2019-10-11T14:10:51Z</time>
      </trkpt>
      <trkpt lat="47.09953" lon="-1.21762">
        <ele>34</ele>
        <time>2019-10-11T14:10:52Z</time>
      </trkpt>
      <trkpt lat="47.09952" lon="-1.21755">
        <ele>34.2</ele>
        <time>2019-10-11T14:10:53Z</time>
      </trkpt>
      <trkpt lat="47.09952" lon="-1.21748">
        <ele>34.4</ele>
        <time>2019-10-11T14:10:54Z</time>
      </trkpt>
      <trkpt lat="47.09951" lon="-1.21741">
        <ele>34.5</ele>
        <time>2019-10-11T14:10:55Z</time>
      </trkpt>
      <trkpt lat="47.0995" lon="-1.21735">
        <ele>34.7</ele>
        <time>2019-10-11T14:10:56Z</time>
      </trkpt>
      <trkpt lat="47.09949" lon="-1.21729">
        <ele>34.8</ele>
        <time>2019-10-11T14:10:57Z</time>
      </trkpt>
      <trkpt lat="47.09948" lon="-1.21723">
        <ele>35</ele>
        <time>2019-10-11T14:10:58Z</time>
      </trkpt>
      <trkpt lat="47.09947" lon="-1.21716">
        <ele>35.2</ele>
        <time>2019-10-11T14:10:59Z</time>
      </trkpt>
      <trkpt lat="47.09946" lon="-1.2171">
        <ele>35.4</ele>
        <time>2019-10-11T14:11:00Z</time>
      </trkpt>
      <trkpt lat="47.09945" lon="-1.21704">
        <ele>35.6</ele>
        <time>2019-10-11T14:11:01Z</time>
      </trkpt>
      <trkpt lat="47.09944" lon="-1.21698">
        <ele>35.8</ele>
        <time>2019-10-11T14:11:02Z</time>
      </trkpt>
      <trkpt lat="47.09943" lon="-1.21692">
        <ele>35.9</ele>
        <time>2019-10-11T14:11:03Z</time>
      </trkpt>
      <trkpt lat="47.09941" lon="-1.21686">
        <ele>36.1</ele>
        <time>2019-10-11T14:11:04Z</time>
      </trkpt>
      <trkpt lat="47.0994" lon="-1.2168">
        <ele>36.2</ele>
        <time>2019-10-11T14:11:05Z</time>
      </trkpt>
      <trkpt lat="47.09939" lon="-1.21675">
        <ele>36.4</ele>
        <time>2019-10-11T14:11:06Z</time>
      </trkpt>
      <trkpt lat="47.09938" lon="-1.2167">
        <ele>36.5</ele>
        <time>2019-10-11T14:11:07Z</time>
      </trkpt>
      <trkpt lat="47.09936" lon="-1.21665">
        <ele>36.6</ele>
        <time>2019-10-11T14:11:08Z</time>
      </trkpt>
      <trkpt lat="47.09934" lon="-1.21659">
        <ele>36.6</ele>
        <time>2019-10-11T14:11:09Z</time>
      </trkpt>
      <trkpt lat="47.09933" lon="-1.21654">
        <ele>36.4</ele>
        <time>2019-10-11T14:11:10Z</time>
      </trkpt>
      <trkpt lat="47.0993" lon="-1.21649">
        <ele>36.1</ele>
        <time>2019-10-11T14:11:11Z</time>
      </trkpt>
      <trkpt lat="47.09927" lon="-1.21645">
        <ele>35.7</ele>
        <time>2019-10-11T14:11:12Z</time>
      </trkpt>
      <trkpt lat="47.09924" lon="-1.2164">
        <ele>35.4</ele>
        <time>2019-10-11T14:11:13Z</time>
      </trkpt>
      <trkpt lat="47.09921" lon="-1.21636">
        <ele>35</ele>
        <time>2019-10-11T14:11:14Z</time>
      </trkpt>
      <trkpt lat="47.09918" lon="-1.21631">
        <ele>34.6</ele>
        <time>2019-10-11T14:11:15Z</time>
      </trkpt>
      <trkpt lat="47.09915" lon="-1.21625">
        <ele>34.2</ele>
        <time>2019-10-11T14:11:16Z</time>
      </trkpt>
      <trkpt lat="47.09913" lon="-1.2162">
        <ele>33.9</ele>
        <time>2019-10-11T14:11:17Z</time>
      </trkpt>
      <trkpt lat="47.09912" lon="-1.21614">
        <ele>33.7</ele>
        <time>2019-10-11T14:11:18Z</time>
      </trkpt>
      <trkpt lat="47.09911" lon="-1.21607">
        <ele>33.6</ele>
        <time>2019-10-11T14:11:19Z</time>
      </trkpt>
      <trkpt lat="47.09911" lon="-1.21601">
        <ele>33.4</ele>
        <time>2019-10-11T14:11:20Z</time>
      </trkpt>
      <trkpt lat="47.09911" lon="-1.21595">
        <ele>33.3</ele>
        <time>2019-10-11T14:11:21Z</time>
      </trkpt>
      <trkpt lat="47.09911" lon="-1.21589">
        <ele>33.2</ele>
        <time>2019-10-11T14:11:22Z</time>
      </trkpt>
      <trkpt lat="47.09913" lon="-1.21583">
        <ele>33.7</ele>
        <time>2019-10-11T14:11:23Z</time>
      </trkpt>
      <trkpt lat="47.09914" lon="-1.21577">
        <ele>33.9</ele>
        <time>2019-10-11T14:11:24Z</time>
      </trkpt>
      <trkpt lat="47.09915" lon="-1.21572">
        <ele>34.1</ele>
        <time>2019-10-11T14:11:25Z</time>
      </trkpt>
      <trkpt lat="47.09917" lon="-1.21566">
        <ele>34.3</ele>
        <time>2019-10-11T14:11:26Z</time>
      </trkpt>
      <trkpt lat="47.09918" lon="-1.2156">
        <ele>34.8</ele>
        <time>2019-10-11T14:11:27Z</time>
      </trkpt>
      <trkpt lat="47.09919" lon="-1.21553">
        <ele>34.7</ele>
        <time>2019-10-11T14:11:28Z</time>
      </trkpt>
      <trkpt lat="47.0992" lon="-1.21547">
        <ele>34.7</ele>
        <time>2019-10-11T14:11:29Z</time>
      </trkpt>
      <trkpt lat="47.0992" lon="-1.2154">
        <ele>34.6</ele>
        <time>2019-10-11T14:11:30Z</time>
      </trkpt>
      <trkpt lat="47.0992" lon="-1.21534">
        <ele>34.6</ele>
        <time>2019-10-11T14:11:31Z</time>
      </trkpt>
      <trkpt lat="47.0992" lon="-1.21528">
        <ele>34.5</ele>
        <time>2019-10-11T14:11:32Z</time>
      </trkpt>
      <trkpt lat="47.0992" lon="-1.21522">
        <ele>34.5</ele>
        <time>2019-10-11T14:11:33Z</time>
      </trkpt>
      <trkpt lat="47.09919" lon="-1.21516">
        <ele>34.5</ele>
        <time>2019-10-11T14:11:34Z</time>
      </trkpt>
      <trkpt lat="47.09918" lon="-1.2151">
        <ele>34.5</ele>
        <time>2019-10-11T14:11:35Z</time>
      </trkpt>
      <trkpt lat="47.09917" lon="-1.21504">
        <ele>34.5</ele>
        <time>2019-10-11T14:11:36Z</time>
      </trkpt>
      <trkpt lat="47.09915" lon="-1.21498">
        <ele>34.5</ele>
        <time>2019-10-11T14:11:37Z</time>
      </trkpt>
      <trkpt lat="47.09913" lon="-1.21493">
        <ele>34.5</ele>
        <time>2019-10-11T14:11:38Z</time>
      </trkpt>
      <trkpt lat="47.09912" lon="-1.21488">
        <ele>34.5</ele>
        <time>2019-10-11T14:11:39Z</time>
      </trkpt>
      <trkpt lat="47.09911" lon="-1.21483">
        <ele>34.5</ele>
        <time>2019-10-11T14:11:40Z</time>
      </trkpt>
      <trkpt lat="47.0991" lon="-1.21478">
        <ele>34.5</ele>
        <time>2019-10-11T14:11:41Z</time>
      </trkpt>
      <trkpt lat="47.09909" lon="-1.21473">
        <ele>34.4</ele>
        <time>2019-10-11T14:11:42Z</time>
      </trkpt>
      <trkpt lat="47.09908" lon="-1.21468">
        <ele>34.4</ele>
        <time>2019-10-11T14:11:43Z</time>
      </trkpt>
      <trkpt lat="47.09906" lon="-1.21462">
        <ele>34.3</ele>
        <time>2019-10-11T14:11:44Z</time>
      </trkpt>
      <trkpt lat="47.09905" lon="-1.21457">
        <ele>34.2</ele>
        <time>2019-10-11T14:11:45Z</time>
      </trkpt>
      <trkpt lat="47.09903" lon="-1.21452">
        <ele>34.1</ele>
        <time>2019-10-11T14:11:46Z</time>
      </trkpt>
      <trkpt lat="47.09902" lon="-1.21448">
        <ele>34</ele>
        <time>2019-10-11T14:11:47Z</time>
      </trkpt>
      <trkpt lat="47.099" lon="-1.21442">
        <ele>33.9</ele>
        <time>2019-10-11T14:11:48Z</time>
      </trkpt>
      <trkpt lat="47.09898" lon="-1.21436">
        <ele>33.8</ele>
        <time>2019-10-11T14:11:49Z</time>
      </trkpt>
      <trkpt lat="47.09896" lon="-1.2143">
        <ele>33.7</ele>
        <time>2019-10-11T14:11:50Z</time>
      </trkpt>
      <trkpt lat="47.09895" lon="-1.21424">
        <ele>33.6</ele>
        <time>2019-10-11T14:11:51Z</time>
      </trkpt>
      <trkpt lat="47.09893" lon="-1.21418">
        <ele>33.5</ele>
        <time>2019-10-11T14:11:52Z</time>
      </trkpt>
      <trkpt lat="47.09892" lon="-1.21412">
        <ele>33.4</ele>
        <time>2019-10-11T14:11:53Z</time>
      </trkpt>
      <trkpt lat="47.09891" lon="-1.21405">
        <ele>33.2</ele>
        <time>2019-10-11T14:11:54Z</time>
      </trkpt>
      <trkpt lat="47.09889" lon="-1.21397">
        <ele>33</ele>
        <time>2019-10-11T14:11:55Z</time>
      </trkpt>
      <trkpt lat="47.09888" lon="-1.21391">
        <ele>32.9</ele>
        <time>2019-10-11T14:11:56Z</time>
      </trkpt>
      <trkpt lat="47.09887" lon="-1.21384">
        <ele>32.8</ele>
        <time>2019-10-11T14:11:57Z</time>
      </trkpt>
      <trkpt lat="47.09886" lon="-1.21377">
        <ele>32.7</ele>
        <time>2019-10-11T14:11:58Z</time>
      </trkpt>
      <trkpt lat="47.09884" lon="-1.21371">
        <ele>32.6</ele>
        <time>2019-10-11T14:11:59Z</time>
      </trkpt>
      <trkpt lat="47.09883" lon="-1.21365">
        <ele>32.5</ele>
        <time>2019-10-11T14:12:00Z</time>
      </trkpt>
      <trkpt lat="47.09881" lon="-1.21358">
        <ele>32.4</ele>
        <time>2019-10-11T14:12:01Z</time>
      </trkpt>
      <trkpt lat="47.0988" lon="-1.21353">
        <ele>32.3</ele>
        <time>2019-10-11T14:12:02Z</time>
      </trkpt>
      <trkpt lat="47.09878" lon="-1.21347">
        <ele>32.1</ele>
        <time>2019-10-11T14:12:03Z</time>
      </trkpt>
      <trkpt lat="47.09876" lon="-1.21341">
        <ele>32</ele>
        <time>2019-10-11T14:12:04Z</time>
      </trkpt>
      <trkpt lat="47.09873" lon="-1.21334">
        <ele>31.9</ele>
        <time>2019-10-11T14:12:05Z</time>
      </trkpt>
      <trkpt lat="47.09871" lon="-1.21328">
        <ele>31.8</ele>
        <time>2019-10-11T14:12:06Z</time>
      </trkpt>
      <trkpt lat="47.09869" lon="-1.21323">
        <ele>31.8</ele>
        <time>2019-10-11T14:12:07Z</time>
      </trkpt>
      <trkpt lat="47.09868" lon="-1.21317">
        <ele>31.7</ele>
        <time>2019-10-11T14:12:08Z</time>
      </trkpt>
      <trkpt lat="47.09865" lon="-1.21311">
        <ele>31.7</ele>
        <time>2019-10-11T14:12:09Z</time>
      </trkpt>
      <trkpt lat="47.09863" lon="-1.21306">
        <ele>31.7</ele>
        <time>2019-10-11T14:12:10Z</time>
      </trkpt>
      <trkpt lat="47.09861" lon="-1.213">
        <ele>31.6</ele>
        <time>2019-10-11T14:12:11Z</time>
      </trkpt>
      <trkpt lat="47.09858" lon="-1.21294">
        <ele>31.6</ele>
        <time>2019-10-11T14:12:12Z</time>
      </trkpt>
      <trkpt lat="47.09856" lon="-1.21288">
        <ele>31.6</ele>
        <time>2019-10-11T14:12:13Z</time>
      </trkpt>
      <trkpt lat="47.09854" lon="-1.21283">
        <ele>31.6</ele>
        <time>2019-10-11T14:12:14Z</time>
      </trkpt>
      <trkpt lat="47.09851" lon="-1.21277">
        <ele>31.6</ele>
        <time>2019-10-11T14:12:15Z</time>
      </trkpt>
      <trkpt lat="47.09849" lon="-1.21272">
        <ele>31.6</ele>
        <time>2019-10-11T14:12:16Z</time>
      </trkpt>
      <trkpt lat="47.09846" lon="-1.21267">
        <ele>31.6</ele>
        <time>2019-10-11T14:12:17Z</time>
      </trkpt>
      <trkpt lat="47.09844" lon="-1.21261">
        <ele>31.6</ele>
        <time>2019-10-11T14:12:18Z</time>
      </trkpt>
      <trkpt lat="47.09841" lon="-1.21256">
        <ele>31.6</ele>
        <time>2019-10-11T14:12:19Z</time>
      </trkpt>
      <trkpt lat="47.09839" lon="-1.2125">
        <ele>31.6</ele>
        <time>2019-10-11T14:12:20Z</time>
      </trkpt>
      <trkpt lat="47.09836" lon="-1.21244">
        <ele>31.5</ele>
        <time>2019-10-11T14:12:21Z</time>
      </trkpt>
      <trkpt lat="47.09834" lon="-1.21238">
        <ele>31.5</ele>
        <time>2019-10-11T14:12:22Z</time>
      </trkpt>
      <trkpt lat="47.09831" lon="-1.21233">
        <ele>31.4</ele>
        <time>2019-10-11T14:12:23Z</time>
      </trkpt>
      <trkpt lat="47.09829" lon="-1.21228">
        <ele>31.3</ele>
        <time>2019-10-11T14:12:24Z</time>
      </trkpt>
      <trkpt lat="47.09827" lon="-1.21223">
        <ele>31.2</ele>
        <time>2019-10-11T14:12:25Z</time>
      </trkpt>
      <trkpt lat="47.09824" lon="-1.21218">
        <ele>31</ele>
        <time>2019-10-11T14:12:26Z</time>
      </trkpt>
      <trkpt lat="47.09821" lon="-1.21212">
        <ele>30.9</ele>
        <time>2019-10-11T14:12:27Z</time>
      </trkpt>
      <trkpt lat="47.09818" lon="-1.21206">
        <ele>30.8</ele>
        <time>2019-10-11T14:12:28Z</time>
      </trkpt>
      <trkpt lat="47.09816" lon="-1.212">
        <ele>30.8</ele>
        <time>2019-10-11T14:12:29Z</time>
      </trkpt>
      <trkpt lat="47.09814" lon="-1.21195">
        <ele>30.7</ele>
        <time>2019-10-11T14:12:30Z</time>
      </trkpt>
      <trkpt lat="47.09812" lon="-1.21188">
        <ele>30.7</ele>
        <time>2019-10-11T14:12:31Z</time>
      </trkpt>
      <trkpt lat="47.0981" lon="-1.21183">
        <ele>30.7</ele>
        <time>2019-10-11T14:12:32Z</time>
      </trkpt>
      <trkpt lat="47.09808" lon="-1.21177">
        <ele>30.7</ele>
        <time>2019-10-11T14:12:33Z</time>
      </trkpt>
      <trkpt lat="47.09806" lon="-1.21171">
        <ele>30.7</ele>
        <time>2019-10-11T14:12:34Z</time>
      </trkpt>
      <trkpt lat="47.09805" lon="-1.21164">
        <ele>30.7</ele>
        <time>2019-10-11T14:12:35Z</time>
      </trkpt>
      <trkpt lat="47.09803" lon="-1.21157">
        <ele>30.7</ele>
        <time>2019-10-11T14:12:36Z</time>
      </trkpt>
      <trkpt lat="47.09801" lon="-1.2115">
        <ele>30.7</ele>
        <time>2019-10-11T14:12:37Z</time>
      </trkpt>
      <trkpt lat="47.098" lon="-1.21143">
        <ele>30.7</ele>
        <time>2019-10-11T14:12:38Z</time>
      </trkpt>
      <trkpt lat="47.09799" lon="-1.21137">
        <ele>30.7</ele>
        <time>2019-10-11T14:12:39Z</time>
      </trkpt>
      <trkpt lat="47.09798" lon="-1.21131">
        <ele>30.7</ele>
        <time>2019-10-11T14:12:40Z</time>
      </trkpt>
      <trkpt lat="47.09798" lon="-1.21124">
        <ele>30.7</ele>
        <time>2019-10-11T14:12:41Z</time>
      </trkpt>
      <trkpt lat="47.09798" lon="-1.21117">
        <ele>30.7</ele>
        <time>2019-10-11T14:12:42Z</time>
      </trkpt>
      <trkpt lat="47.09797" lon="-1.21111">
        <ele>30.7</ele>
        <time>2019-10-11T14:12:43Z</time>
      </trkpt>
      <trkpt lat="47.09797" lon="-1.21105">
        <ele>30.7</ele>
        <time>2019-10-11T14:12:44Z</time>
      </trkpt>
      <trkpt lat="47.09797" lon="-1.21099">
        <ele>30.7</ele>
        <time>2019-10-11T14:12:45Z</time>
      </trkpt>
      <trkpt lat="47.09797" lon="-1.21093">
        <ele>30.7</ele>
        <time>2019-10-11T14:12:46Z</time>
      </trkpt>
      <trkpt lat="47.09797" lon="-1.21087">
        <ele>30.7</ele>
        <time>2019-10-11T14:12:47Z</time>
      </trkpt>
      <trkpt lat="47.09796" lon="-1.21082">
        <ele>30.7</ele>
        <time>2019-10-11T14:12:48Z</time>
      </trkpt>
      <trkpt lat="47.09793" lon="-1.21077">
        <ele>30.7</ele>
        <time>2019-10-11T14:12:49Z</time>
      </trkpt>
      <trkpt lat="47.09791" lon="-1.21073">
        <ele>30.7</ele>
        <time>2019-10-11T14:12:50Z</time>
      </trkpt>
      <trkpt lat="47.09788" lon="-1.21068">
        <ele>30.7</ele>
        <time>2019-10-11T14:12:51Z</time>
      </trkpt>
      <trkpt lat="47.09785" lon="-1.21063">
        <ele>30.7</ele>
        <time>2019-10-11T14:12:52Z</time>
      </trkpt>
      <trkpt lat="47.09783" lon="-1.21057">
        <ele>30.8</ele>
        <time>2019-10-11T14:12:53Z</time>
      </trkpt>
      <trkpt lat="47.09781" lon="-1.21051">
        <ele>30.8</ele>
        <time>2019-10-11T14:12:54Z</time>
      </trkpt>
      <trkpt lat="47.09781" lon="-1.21044">
        <ele>30.8</ele>
        <time>2019-10-11T14:12:55Z</time>
      </trkpt>
      <trkpt lat="47.09781" lon="-1.21037">
        <ele>30.8</ele>
        <time>2019-10-11T14:12:56Z</time>
      </trkpt>
      <trkpt lat="47.0978" lon="-1.2103">
        <ele>30.8</ele>
        <time>2019-10-11T14:12:57Z</time>
      </trkpt>
      <trkpt lat="47.0978" lon="-1.21024">
        <ele>30.8</ele>
        <time>2019-10-11T14:12:58Z</time>
      </trkpt>
      <trkpt lat="47.09779" lon="-1.21019">
        <ele>30.8</ele>
        <time>2019-10-11T14:12:59Z</time>
      </trkpt>
      <trkpt lat="47.09778" lon="-1.21014">
        <ele>30.8</ele>
        <time>2019-10-11T14:13:00Z</time>
      </trkpt>
      <trkpt lat="47.09777" lon="-1.21007">
        <ele>30.8</ele>
        <time>2019-10-11T14:13:01Z</time>
      </trkpt>
      <trkpt lat="47.09776" lon="-1.21002">
        <ele>30.8</ele>
        <time>2019-10-11T14:13:02Z</time>
      </trkpt>
      <trkpt lat="47.09775" lon="-1.20997">
        <ele>30.8</ele>
        <time>2019-10-11T14:13:03Z</time>
      </trkpt>
      <trkpt lat="47.09774" lon="-1.20991">
        <ele>30.8</ele>
        <time>2019-10-11T14:13:04Z</time>
      </trkpt>
      <trkpt lat="47.09773" lon="-1.20985">
        <ele>30.9</ele>
        <time>2019-10-11T14:13:05Z</time>
      </trkpt>
      <trkpt lat="47.09773" lon="-1.20979">
        <ele>30.9</ele>
        <time>2019-10-11T14:13:06Z</time>
      </trkpt>
      <trkpt lat="47.09772" lon="-1.20974">
        <ele>31</ele>
        <time>2019-10-11T14:13:07Z</time>
      </trkpt>
      <trkpt lat="47.09771" lon="-1.20968">
        <ele>31.1</ele>
        <time>2019-10-11T14:13:08Z</time>
      </trkpt>
      <trkpt lat="47.0977" lon="-1.20962">
        <ele>31.2</ele>
        <time>2019-10-11T14:13:09Z</time>
      </trkpt>
      <trkpt lat="47.09769" lon="-1.20957">
        <ele>31.3</ele>
        <time>2019-10-11T14:13:10Z</time>
      </trkpt>
      <trkpt lat="47.09768" lon="-1.20951">
        <ele>31.4</ele>
        <time>2019-10-11T14:13:11Z</time>
      </trkpt>
      <trkpt lat="47.09766" lon="-1.20945">
        <ele>31.5</ele>
        <time>2019-10-11T14:13:12Z</time>
      </trkpt>
      <trkpt lat="47.09765" lon="-1.2094">
        <ele>31.6</ele>
        <time>2019-10-11T14:13:13Z</time>
      </trkpt>
      <trkpt lat="47.09764" lon="-1.20934">
        <ele>31.7</ele>
        <time>2019-10-11T14:13:14Z</time>
      </trkpt>
      <trkpt lat="47.09762" lon="-1.20929">
        <ele>31.7</ele>
        <time>2019-10-11T14:13:15Z</time>
      </trkpt>
      <trkpt lat="47.09761" lon="-1.20923">
        <ele>31.8</ele>
        <time>2019-10-11T14:13:16Z</time>
      </trkpt>
      <trkpt lat="47.0976" lon="-1.20917">
        <ele>31.8</ele>
        <time>2019-10-11T14:13:17Z</time>
      </trkpt>
      <trkpt lat="47.09759" lon="-1.20912">
        <ele>31.8</ele>
        <time>2019-10-11T14:13:18Z</time>
      </trkpt>
      <trkpt lat="47.09757" lon="-1.20907">
        <ele>31.8</ele>
        <time>2019-10-11T14:13:19Z</time>
      </trkpt>
      <trkpt lat="47.09756" lon="-1.20902">
        <ele>31.8</ele>
        <time>2019-10-11T14:13:20Z</time>
      </trkpt>
      <trkpt lat="47.09754" lon="-1.20897">
        <ele>31.9</ele>
        <time>2019-10-11T14:13:21Z</time>
      </trkpt>
      <trkpt lat="47.09752" lon="-1.20892">
        <ele>31.9</ele>
        <time>2019-10-11T14:13:22Z</time>
      </trkpt>
      <trkpt lat="47.0975" lon="-1.20886">
        <ele>31.9</ele>
        <time>2019-10-11T14:13:23Z</time>
      </trkpt>
      <trkpt lat="47.09748" lon="-1.2088">
        <ele>31.9</ele>
        <time>2019-10-11T14:13:24Z</time>
      </trkpt>
      <trkpt lat="47.09746" lon="-1.20874">
        <ele>32</ele>
        <time>2019-10-11T14:13:25Z</time>
      </trkpt>
      <trkpt lat="47.09745" lon="-1.20868">
        <ele>32.1</ele>
        <time>2019-10-11T14:13:26Z</time>
      </trkpt>
      <trkpt lat="47.09744" lon="-1.20862">
        <ele>32.2</ele>
        <time>2019-10-11T14:13:27Z</time>
      </trkpt>
      <trkpt lat="47.09743" lon="-1.20856">
        <ele>32.4</ele>
        <time>2019-10-11T14:13:28Z</time>
      </trkpt>
      <trkpt lat="47.09742" lon="-1.2085">
        <ele>32.6</ele>
        <time>2019-10-11T14:13:29Z</time>
      </trkpt>
      <trkpt lat="47.09741" lon="-1.20845">
        <ele>32.7</ele>
        <time>2019-10-11T14:13:30Z</time>
      </trkpt>
      <trkpt lat="47.0974" lon="-1.20838">
        <ele>32.9</ele>
        <time>2019-10-11T14:13:31Z</time>
      </trkpt>
      <trkpt lat="47.09739" lon="-1.20832">
        <ele>33.1</ele>
        <time>2019-10-11T14:13:32Z</time>
      </trkpt>
      <trkpt lat="47.09739" lon="-1.20826">
        <ele>33.3</ele>
        <time>2019-10-11T14:13:33Z</time>
      </trkpt>
      <trkpt lat="47.09738" lon="-1.2082">
        <ele>33.5</ele>
        <time>2019-10-11T14:13:34Z</time>
      </trkpt>
      <trkpt lat="47.09737" lon="-1.20814">
        <ele>33.6</ele>
        <time>2019-10-11T14:13:35Z</time>
      </trkpt>
      <trkpt lat="47.09737" lon="-1.20809">
        <ele>33.7</ele>
        <time>2019-10-11T14:13:36Z</time>
      </trkpt>
      <trkpt lat="47.09736" lon="-1.20805">
        <ele>33.8</ele>
        <time>2019-10-11T14:13:37Z</time>
      </trkpt>
      <trkpt lat="47.09735" lon="-1.208">
        <ele>33.9</ele>
        <time>2019-10-11T14:13:38Z</time>
      </trkpt>
      <trkpt lat="47.09734" lon="-1.20795">
        <ele>34</ele>
        <time>2019-10-11T14:13:39Z</time>
      </trkpt>
      <trkpt lat="47.09734" lon="-1.2079">
        <ele>34</ele>
        <time>2019-10-11T14:13:40Z</time>
      </trkpt>
      <trkpt lat="47.09733" lon="-1.20786">
        <ele>34.1</ele>
        <time>2019-10-11T14:13:41Z</time>
      </trkpt>
      <trkpt lat="47.09733" lon="-1.20781">
        <ele>34.2</ele>
        <time>2019-10-11T14:13:42Z</time>
      </trkpt>
      <trkpt lat="47.09731" lon="-1.20773">
        <ele>34.3</ele>
        <time>2019-10-11T14:13:44Z</time>
      </trkpt>
      <trkpt lat="47.09731" lon="-1.20769">
        <ele>34.3</ele>
        <time>2019-10-11T14:13:45Z</time>
      </trkpt>
      <trkpt lat="47.0973" lon="-1.20764">
        <ele>34.3</ele>
        <time>2019-10-11T14:13:46Z</time>
      </trkpt>
      <trkpt lat="47.0973" lon="-1.2076">
        <ele>34.3</ele>
        <time>2019-10-11T14:13:47Z</time>
      </trkpt>
      <trkpt lat="47.09729" lon="-1.20755">
        <ele>34.3</ele>
        <time>2019-10-11T14:13:48Z</time>
      </trkpt>
      <trkpt lat="47.09729" lon="-1.2075">
        <ele>34.3</ele>
        <time>2019-10-11T14:13:49Z</time>
      </trkpt>
      <trkpt lat="47.09728" lon="-1.20744">
        <ele>34.3</ele>
        <time>2019-10-11T14:13:50Z</time>
      </trkpt>
      <trkpt lat="47.09728" lon="-1.20739">
        <ele>34.2</ele>
        <time>2019-10-11T14:13:51Z</time>
      </trkpt>
      <trkpt lat="47.09728" lon="-1.20734">
        <ele>34.2</ele>
        <time>2019-10-11T14:13:52Z</time>
      </trkpt>
      <trkpt lat="47.09727" lon="-1.2073">
        <ele>34.1</ele>
        <time>2019-10-11T14:13:53Z</time>
      </trkpt>
      <trkpt lat="47.09727" lon="-1.20723">
        <ele>34.1</ele>
        <time>2019-10-11T14:13:54Z</time>
      </trkpt>
      <trkpt lat="47.09727" lon="-1.20717">
        <ele>34</ele>
        <time>2019-10-11T14:13:55Z</time>
      </trkpt>
      <trkpt lat="47.09728" lon="-1.20711">
        <ele>34</ele>
        <time>2019-10-11T14:13:56Z</time>
      </trkpt>
      <trkpt lat="47.09728" lon="-1.20705">
        <ele>34</ele>
        <time>2019-10-11T14:13:57Z</time>
      </trkpt>
      <trkpt lat="47.09728" lon="-1.207">
        <ele>34</ele>
        <time>2019-10-11T14:13:58Z</time>
      </trkpt>
      <trkpt lat="47.09729" lon="-1.20695">
        <ele>34</ele>
        <time>2019-10-11T14:13:59Z</time>
      </trkpt>
      <trkpt lat="47.0973" lon="-1.2069">
        <ele>34</ele>
        <time>2019-10-11T14:14:00Z</time>
      </trkpt>
      <trkpt lat="47.0973" lon="-1.20685">
        <ele>34</ele>
        <time>2019-10-11T14:14:01Z</time>
      </trkpt>
      <trkpt lat="47.09731" lon="-1.20679">
        <ele>34</ele>
        <time>2019-10-11T14:14:02Z</time>
      </trkpt>
      <trkpt lat="47.09732" lon="-1.20674">
        <ele>34</ele>
        <time>2019-10-11T14:14:03Z</time>
      </trkpt>
      <trkpt lat="47.09732" lon="-1.20668">
        <ele>34</ele>
        <time>2019-10-11T14:14:04Z</time>
      </trkpt>
      <trkpt lat="47.09733" lon="-1.20663">
        <ele>34</ele>
        <time>2019-10-11T14:14:05Z</time>
      </trkpt>
      <trkpt lat="47.09734" lon="-1.20657">
        <ele>34</ele>
        <time>2019-10-11T14:14:06Z</time>
      </trkpt>
      <trkpt lat="47.09734" lon="-1.20652">
        <ele>34</ele>
        <time>2019-10-11T14:14:07Z</time>
      </trkpt>
      <trkpt lat="47.09735" lon="-1.20646">
        <ele>34</ele>
        <time>2019-10-11T14:14:08Z</time>
      </trkpt>
      <trkpt lat="47.09736" lon="-1.20641">
        <ele>34</ele>
        <time>2019-10-11T14:14:09Z</time>
      </trkpt>
      <trkpt lat="47.09737" lon="-1.20636">
        <ele>34</ele>
        <time>2019-10-11T14:14:10Z</time>
      </trkpt>
      <trkpt lat="47.09737" lon="-1.2063">
        <ele>34.1</ele>
        <time>2019-10-11T14:14:11Z</time>
      </trkpt>
      <trkpt lat="47.09738" lon="-1.20625">
        <ele>34.1</ele>
        <time>2019-10-11T14:14:12Z</time>
      </trkpt>
      <trkpt lat="47.09739" lon="-1.2062">
        <ele>34.1</ele>
        <time>2019-10-11T14:14:13Z</time>
      </trkpt>
      <trkpt lat="47.0974" lon="-1.20615">
        <ele>34.1</ele>
        <time>2019-10-11T14:14:14Z</time>
      </trkpt>
      <trkpt lat="47.09741" lon="-1.2061">
        <ele>34.2</ele>
        <time>2019-10-11T14:14:15Z</time>
      </trkpt>
      <trkpt lat="47.09742" lon="-1.20605">
        <ele>34.2</ele>
        <time>2019-10-11T14:14:16Z</time>
      </trkpt>
      <trkpt lat="47.09742" lon="-1.206">
        <ele>34.3</ele>
        <time>2019-10-11T14:14:17Z</time>
      </trkpt>
      <trkpt lat="47.09743" lon="-1.20594">
        <ele>34.5</ele>
        <time>2019-10-11T14:14:18Z</time>
      </trkpt>
      <trkpt lat="47.09744" lon="-1.20588">
        <ele>34.6</ele>
        <time>2019-10-11T14:14:19Z</time>
      </trkpt>
      <trkpt lat="47.09745" lon="-1.20583">
        <ele>34.7</ele>
        <time>2019-10-11T14:14:20Z</time>
      </trkpt>
      <trkpt lat="47.09746" lon="-1.20577">
        <ele>34.9</ele>
        <time>2019-10-11T14:14:21Z</time>
      </trkpt>
      <trkpt lat="47.09747" lon="-1.20571">
        <ele>35</ele>
        <time>2019-10-11T14:14:22Z</time>
      </trkpt>
      <trkpt lat="47.09748" lon="-1.20565">
        <ele>35.1</ele>
        <time>2019-10-11T14:14:23Z</time>
      </trkpt>
      <trkpt lat="47.09749" lon="-1.20559">
        <ele>35.2</ele>
        <time>2019-10-11T14:14:24Z</time>
      </trkpt>
      <trkpt lat="47.0975" lon="-1.20552">
        <ele>35.3</ele>
        <time>2019-10-11T14:14:25Z</time>
      </trkpt>
      <trkpt lat="47.09751" lon="-1.20547">
        <ele>35.5</ele>
        <time>2019-10-11T14:14:26Z</time>
      </trkpt>
      <trkpt lat="47.09752" lon="-1.20541">
        <ele>35.6</ele>
        <time>2019-10-11T14:14:27Z</time>
      </trkpt>
      <trkpt lat="47.09753" lon="-1.20536">
        <ele>35.8</ele>
        <time>2019-10-11T14:14:28Z</time>
      </trkpt>
      <trkpt lat="47.09754" lon="-1.2053">
        <ele>36</ele>
        <time>2019-10-11T14:14:29Z</time>
      </trkpt>
      <trkpt lat="47.09755" lon="-1.20524">
        <ele>36.2</ele>
        <time>2019-10-11T14:14:30Z</time>
      </trkpt>
      <trkpt lat="47.09756" lon="-1.20518">
        <ele>36.4</ele>
        <time>2019-10-11T14:14:31Z</time>
      </trkpt>
      <trkpt lat="47.09758" lon="-1.20512">
        <ele>36.6</ele>
        <time>2019-10-11T14:14:32Z</time>
      </trkpt>
      <trkpt lat="47.09759" lon="-1.20506">
        <ele>36.7</ele>
        <time>2019-10-11T14:14:33Z</time>
      </trkpt>
      <trkpt lat="47.0976" lon="-1.20501">
        <ele>36.8</ele>
        <time>2019-10-11T14:14:34Z</time>
      </trkpt>
      <trkpt lat="47.09761" lon="-1.20496">
        <ele>36.9</ele>
        <time>2019-10-11T14:14:35Z</time>
      </trkpt>
      <trkpt lat="47.09762" lon="-1.20491">
        <ele>37</ele>
        <time>2019-10-11T14:14:36Z</time>
      </trkpt>
      <trkpt lat="47.09763" lon="-1.20487">
        <ele>37</ele>
        <time>2019-10-11T14:14:37Z</time>
      </trkpt>
      <trkpt lat="47.09764" lon="-1.20483">
        <ele>37.1</ele>
        <time>2019-10-11T14:14:38Z</time>
      </trkpt>
      <trkpt lat="47.09765" lon="-1.20479">
        <ele>37.1</ele>
        <time>2019-10-11T14:14:39Z</time>
      </trkpt>
      <trkpt lat="47.09767" lon="-1.20474">
        <ele>37.1</ele>
        <time>2019-10-11T14:14:40Z</time>
      </trkpt>
      <trkpt lat="47.09768" lon="-1.2047">
        <ele>37.1</ele>
        <time>2019-10-11T14:14:41Z</time>
      </trkpt>
      <trkpt lat="47.09769" lon="-1.20466">
        <ele>37.1</ele>
        <time>2019-10-11T14:14:42Z</time>
      </trkpt>
      <trkpt lat="47.0977" lon="-1.20462">
        <ele>37.1</ele>
        <time>2019-10-11T14:14:43Z</time>
      </trkpt>
      <trkpt lat="47.09771" lon="-1.20458">
        <ele>37.2</ele>
        <time>2019-10-11T14:14:44Z</time>
      </trkpt>
      <trkpt lat="47.09772" lon="-1.20454">
        <ele>37.3</ele>
        <time>2019-10-11T14:14:45Z</time>
      </trkpt>
      <trkpt lat="47.09774" lon="-1.2045">
        <ele>37.4</ele>
        <time>2019-10-11T14:14:46Z</time>
      </trkpt>
      <trkpt lat="47.09775" lon="-1.20446">
        <ele>37.4</ele>
        <time>2019-10-11T14:14:47Z</time>
      </trkpt>
      <trkpt lat="47.09777" lon="-1.20443">
        <ele>37.5</ele>
        <time>2019-10-11T14:14:48Z</time>
      </trkpt>
      <trkpt lat="47.09778" lon="-1.20438">
        <ele>37.5</ele>
        <time>2019-10-11T14:14:49Z</time>
      </trkpt>
      <trkpt lat="47.0978" lon="-1.20434">
        <ele>37.6</ele>
        <time>2019-10-11T14:14:50Z</time>
      </trkpt>
      <trkpt lat="47.09781" lon="-1.20428">
        <ele>37.6</ele>
        <time>2019-10-11T14:14:51Z</time>
      </trkpt>
      <trkpt lat="47.09783" lon="-1.20423">
        <ele>37.7</ele>
        <time>2019-10-11T14:14:52Z</time>
      </trkpt>
      <trkpt lat="47.09784" lon="-1.20417">
        <ele>37.7</ele>
        <time>2019-10-11T14:14:53Z</time>
      </trkpt>
      <trkpt lat="47.09786" lon="-1.20411">
        <ele>37.8</ele>
        <time>2019-10-11T14:14:54Z</time>
      </trkpt>
      <trkpt lat="47.09788" lon="-1.20406">
        <ele>37.8</ele>
        <time>2019-10-11T14:14:55Z</time>
      </trkpt>
      <trkpt lat="47.0979" lon="-1.20401">
        <ele>37.8</ele>
        <time>2019-10-11T14:14:56Z</time>
      </trkpt>
      <trkpt lat="47.09792" lon="-1.20397">
        <ele>37.8</ele>
        <time>2019-10-11T14:14:57Z</time>
      </trkpt>
      <trkpt lat="47.09794" lon="-1.20392">
        <ele>37.8</ele>
        <time>2019-10-11T14:14:58Z</time>
      </trkpt>
      <trkpt lat="47.09796" lon="-1.20387">
        <ele>37.9</ele>
        <time>2019-10-11T14:14:59Z</time>
      </trkpt>
      <trkpt lat="47.09797" lon="-1.20382">
        <ele>37.9</ele>
        <time>2019-10-11T14:15:00Z</time>
      </trkpt>
      <trkpt lat="47.09799" lon="-1.20378">
        <ele>37.9</ele>
        <time>2019-10-11T14:15:01Z</time>
      </trkpt>
      <trkpt lat="47.09801" lon="-1.20374">
        <ele>37.9</ele>
        <time>2019-10-11T14:15:02Z</time>
      </trkpt>
      <trkpt lat="47.09802" lon="-1.2037">
        <ele>37.9</ele>
        <time>2019-10-11T14:15:03Z</time>
      </trkpt>
      <trkpt lat="47.09804" lon="-1.20365">
        <ele>37.9</ele>
        <time>2019-10-11T14:15:04Z</time>
      </trkpt>
      <trkpt lat="47.09805" lon="-1.2036">
        <ele>37.9</ele>
        <time>2019-10-11T14:15:05Z</time>
      </trkpt>
      <trkpt lat="47.09807" lon="-1.20354">
        <ele>37.9</ele>
        <time>2019-10-11T14:15:06Z</time>
      </trkpt>
      <trkpt lat="47.09808" lon="-1.20349">
        <ele>37.9</ele>
        <time>2019-10-11T14:15:07Z</time>
      </trkpt>
      <trkpt lat="47.09809" lon="-1.20345">
        <ele>37.9</ele>
        <time>2019-10-11T14:15:08Z</time>
      </trkpt>
      <trkpt lat="47.0981" lon="-1.20341">
        <ele>37.9</ele>
        <time>2019-10-11T14:15:09Z</time>
      </trkpt>
      <trkpt lat="47.09811" lon="-1.20336">
        <ele>37.9</ele>
        <time>2019-10-11T14:15:10Z</time>
      </trkpt>
      <trkpt lat="47.09812" lon="-1.20332">
        <ele>37.9</ele>
        <time>2019-10-11T14:15:11Z</time>
      </trkpt>
      <trkpt lat="47.09813" lon="-1.20328">
        <ele>37.9</ele>
        <time>2019-10-11T14:15:12Z</time>
      </trkpt>
      <trkpt lat="47.09814" lon="-1.20323">
        <ele>37.9</ele>
        <time>2019-10-11T14:15:13Z</time>
      </trkpt>
      <trkpt lat="47.09814" lon="-1.20319">
        <ele>37.9</ele>
        <time>2019-10-11T14:15:14Z</time>
      </trkpt>
      <trkpt lat="47.09814" lon="-1.20314">
        <ele>37.9</ele>
        <time>2019-10-11T14:15:15Z</time>
      </trkpt>
      <trkpt lat="47.09814" lon="-1.2031">
        <ele>37.9</ele>
        <time>2019-10-11T14:15:16Z</time>
      </trkpt>
      <trkpt lat="47.09815" lon="-1.20306">
        <ele>37.9</ele>
        <time>2019-10-11T14:15:17Z</time>
      </trkpt>
      <trkpt lat="47.09816" lon="-1.20298">
        <ele>37.9</ele>
        <time>2019-10-11T14:15:19Z</time>
      </trkpt>
      <trkpt lat="47.09817" lon="-1.20291">
        <ele>37.9</ele>
        <time>2019-10-11T14:15:21Z</time>
      </trkpt>
      <trkpt lat="47.09817" lon="-1.20285">
        <ele>38</ele>
        <time>2019-10-11T14:15:22Z</time>
      </trkpt>
      <trkpt lat="47.09818" lon="-1.20281">
        <ele>38</ele>
        <time>2019-10-11T14:15:23Z</time>
      </trkpt>
      <trkpt lat="47.0982" lon="-1.20275">
        <ele>38.1</ele>
        <time>2019-10-11T14:15:24Z</time>
      </trkpt>
      <trkpt lat="47.0982" lon="-1.2027">
        <ele>38.2</ele>
        <time>2019-10-11T14:15:25Z</time>
      </trkpt>
      <trkpt lat="47.09821" lon="-1.20265">
        <ele>38.2</ele>
        <time>2019-10-11T14:15:26Z</time>
      </trkpt>
      <trkpt lat="47.09821" lon="-1.20259">
        <ele>38.3</ele>
        <time>2019-10-11T14:15:28Z</time>
      </trkpt>
      <trkpt lat="47.09822" lon="-1.20253">
        <ele>38.5</ele>
        <time>2019-10-11T14:15:29Z</time>
      </trkpt>
      <trkpt lat="47.09822" lon="-1.20248">
        <ele>38.5</ele>
        <time>2019-10-11T14:15:30Z</time>
      </trkpt>
      <trkpt lat="47.09822" lon="-1.20244">
        <ele>38.6</ele>
        <time>2019-10-11T14:15:32Z</time>
      </trkpt>
      <trkpt lat="47.09822" lon="-1.20239">
        <ele>38.7</ele>
        <time>2019-10-11T14:15:33Z</time>
      </trkpt>
      <trkpt lat="47.09822" lon="-1.20232">
        <ele>38.8</ele>
        <time>2019-10-11T14:15:34Z</time>
      </trkpt>
      <trkpt lat="47.09822" lon="-1.20226">
        <ele>38.8</ele>
        <time>2019-10-11T14:15:35Z</time>
      </trkpt>
      <trkpt lat="47.09822" lon="-1.20221">
        <ele>38.8</ele>
        <time>2019-10-11T14:15:36Z</time>
      </trkpt>
      <trkpt lat="47.09821" lon="-1.20214">
        <ele>38.9</ele>
        <time>2019-10-11T14:15:37Z</time>
      </trkpt>
      <trkpt lat="47.09821" lon="-1.20208">
        <ele>38.9</ele>
        <time>2019-10-11T14:15:38Z</time>
      </trkpt>
      <trkpt lat="47.0982" lon="-1.20201">
        <ele>38.9</ele>
        <time>2019-10-11T14:15:39Z</time>
      </trkpt>
      <trkpt lat="47.09819" lon="-1.20194">
        <ele>38.9</ele>
        <time>2019-10-11T14:15:40Z</time>
      </trkpt>
      <trkpt lat="47.09817" lon="-1.20188">
        <ele>38.9</ele>
        <time>2019-10-11T14:15:41Z</time>
      </trkpt>
      <trkpt lat="47.09815" lon="-1.20183">
        <ele>38.9</ele>
        <time>2019-10-11T14:15:42Z</time>
      </trkpt>
      <trkpt lat="47.09813" lon="-1.20179">
        <ele>38.9</ele>
        <time>2019-10-11T14:15:43Z</time>
      </trkpt>
      <trkpt lat="47.09812" lon="-1.20174">
        <ele>38.9</ele>
        <time>2019-10-11T14:15:44Z</time>
      </trkpt>
      <trkpt lat="47.0981" lon="-1.20169">
        <ele>39</ele>
        <time>2019-10-11T14:15:45Z</time>
      </trkpt>
      <trkpt lat="47.09808" lon="-1.20163">
        <ele>39</ele>
        <time>2019-10-11T14:15:46Z</time>
      </trkpt>
      <trkpt lat="47.09806" lon="-1.20158">
        <ele>39</ele>
        <time>2019-10-11T14:15:47Z</time>
      </trkpt>
      <trkpt lat="47.09805" lon="-1.20154">
        <ele>39.1</ele>
        <time>2019-10-11T14:15:48Z</time>
      </trkpt>
      <trkpt lat="47.09804" lon="-1.20149">
        <ele>39.1</ele>
        <time>2019-10-11T14:15:49Z</time>
      </trkpt>
      <trkpt lat="47.09803" lon="-1.20145">
        <ele>39.2</ele>
        <time>2019-10-11T14:15:50Z</time>
      </trkpt>
      <trkpt lat="47.09801" lon="-1.20141">
        <ele>39.2</ele>
        <time>2019-10-11T14:15:51Z</time>
      </trkpt>
      <trkpt lat="47.098" lon="-1.20137">
        <ele>39.3</ele>
        <time>2019-10-11T14:15:52Z</time>
      </trkpt>
      <trkpt lat="47.09799" lon="-1.20132">
        <ele>39.4</ele>
        <time>2019-10-11T14:15:53Z</time>
      </trkpt>
      <trkpt lat="47.09798" lon="-1.20127">
        <ele>39.5</ele>
        <time>2019-10-11T14:15:54Z</time>
      </trkpt>
      <trkpt lat="47.09795" lon="-1.2012">
        <ele>39.6</ele>
        <time>2019-10-11T14:15:56Z</time>
      </trkpt>
      <trkpt lat="47.09792" lon="-1.20114">
        <ele>39.7</ele>
        <time>2019-10-11T14:15:58Z</time>
      </trkpt>
      <trkpt lat="47.09789" lon="-1.20107">
        <ele>39.8</ele>
        <time>2019-10-11T14:16:00Z</time>
      </trkpt>
      <trkpt lat="47.09787" lon="-1.20103">
        <ele>39.8</ele>
        <time>2019-10-11T14:16:01Z</time>
      </trkpt>
      <trkpt lat="47.09783" lon="-1.20097">
        <ele>39.9</ele>
        <time>2019-10-11T14:16:03Z</time>
      </trkpt>
      <trkpt lat="47.09779" lon="-1.2009">
        <ele>39.9</ele>
        <time>2019-10-11T14:16:05Z</time>
      </trkpt>
      <trkpt lat="47.09776" lon="-1.20084">
        <ele>39.9</ele>
        <time>2019-10-11T14:16:07Z</time>
      </trkpt>
      <trkpt lat="47.09775" lon="-1.20081">
        <ele>39.9</ele>
        <time>2019-10-11T14:16:08Z</time>
      </trkpt>
      <trkpt lat="47.09773" lon="-1.20074">
        <ele>39.9</ele>
        <time>2019-10-11T14:16:10Z</time>
      </trkpt>
      <trkpt lat="47.09772" lon="-1.2007">
        <ele>39.9</ele>
        <time>2019-10-11T14:16:11Z</time>
      </trkpt>
      <trkpt lat="47.0977" lon="-1.20063">
        <ele>39.9</ele>
        <time>2019-10-11T14:16:13Z</time>
      </trkpt>
      <trkpt lat="47.09769" lon="-1.20058">
        <ele>39.9</ele>
        <time>2019-10-11T14:16:14Z</time>
      </trkpt>
      <trkpt lat="47.09768" lon="-1.20054">
        <ele>39.9</ele>
        <time>2019-10-11T14:16:15Z</time>
      </trkpt>
      <trkpt lat="47.09768" lon="-1.20049">
        <ele>39.9</ele>
        <time>2019-10-11T14:16:16Z</time>
      </trkpt>
      <trkpt lat="47.09767" lon="-1.20045">
        <ele>39.9</ele>
        <time>2019-10-11T14:16:17Z</time>
      </trkpt>
      <trkpt lat="47.09766" lon="-1.2004">
        <ele>40</ele>
        <time>2019-10-11T14:16:19Z</time>
      </trkpt>
      <trkpt lat="47.09765" lon="-1.20035">
        <ele>40</ele>
        <time>2019-10-11T14:16:20Z</time>
      </trkpt>
      <trkpt lat="47.09764" lon="-1.20031">
        <ele>40</ele>
        <time>2019-10-11T14:16:21Z</time>
      </trkpt>
      <trkpt lat="47.09763" lon="-1.20027">
        <ele>40</ele>
        <time>2019-10-11T14:16:22Z</time>
      </trkpt>
      <trkpt lat="47.09761" lon="-1.20023">
        <ele>40</ele>
        <time>2019-10-11T14:16:24Z</time>
      </trkpt>
      <trkpt lat="47.09759" lon="-1.2002">
        <ele>40</ele>
        <time>2019-10-11T14:16:27Z</time>
      </trkpt>
      <trkpt lat="47.09756" lon="-1.20015">
        <ele>40.1</ele>
        <time>2019-10-11T14:16:29Z</time>
      </trkpt>
      <trkpt lat="47.09754" lon="-1.2001">
        <ele>40.2</ele>
        <time>2019-10-11T14:16:31Z</time>
      </trkpt>
      <trkpt lat="47.09753" lon="-1.20005">
        <ele>40.3</ele>
        <time>2019-10-11T14:16:32Z</time>
      </trkpt>
      <trkpt lat="47.09752" lon="-1.19999">
        <ele>40.4</ele>
        <time>2019-10-11T14:16:34Z</time>
      </trkpt>
      <trkpt lat="47.0975" lon="-1.1999">
        <ele>40.5</ele>
        <time>2019-10-11T14:16:37Z</time>
      </trkpt>
      <trkpt lat="47.09749" lon="-1.19986">
        <ele>40.6</ele>
        <time>2019-10-11T14:16:38Z</time>
      </trkpt>
      <trkpt lat="47.09748" lon="-1.19983">
        <ele>40.7</ele>
        <time>2019-10-11T14:16:39Z</time>
      </trkpt>
      <trkpt lat="47.09746" lon="-1.19977">
        <ele>40.8</ele>
        <time>2019-10-11T14:16:41Z</time>
      </trkpt>
      <trkpt lat="47.09745" lon="-1.19972">
        <ele>40.8</ele>
        <time>2019-10-11T14:16:43Z</time>
      </trkpt>
      <trkpt lat="47.09743" lon="-1.19968">
        <ele>40.8</ele>
        <time>2019-10-11T14:16:44Z</time>
      </trkpt>
      <trkpt lat="47.09741" lon="-1.19961">
        <ele>40.9</ele>
        <time>2019-10-11T14:16:46Z</time>
      </trkpt>
      <trkpt lat="47.09739" lon="-1.19955">
        <ele>40.9</ele>
        <time>2019-10-11T14:16:48Z</time>
      </trkpt>
      <trkpt lat="47.09739" lon="-1.19949">
        <ele>40.9</ele>
        <time>2019-10-11T14:16:49Z</time>
      </trkpt>
      <trkpt lat="47.09739" lon="-1.19945">
        <ele>40.9</ele>
        <time>2019-10-11T14:16:50Z</time>
      </trkpt>
      <trkpt lat="47.09737" lon="-1.19938">
        <ele>40.9</ele>
        <time>2019-10-11T14:16:52Z</time>
      </trkpt>
      <trkpt lat="47.09734" lon="-1.1993">
        <ele>40.9</ele>
        <time>2019-10-11T14:16:54Z</time>
      </trkpt>
      <trkpt lat="47.09734" lon="-1.19924">
        <ele>40.9</ele>
        <time>2019-10-11T14:16:55Z</time>
      </trkpt>
      <trkpt lat="47.09733" lon="-1.19917">
        <ele>40.9</ele>
        <time>2019-10-11T14:16:56Z</time>
      </trkpt>
      <trkpt lat="47.09732" lon="-1.1991">
        <ele>40.9</ele>
        <time>2019-10-11T14:16:57Z</time>
      </trkpt>
      <trkpt lat="47.09732" lon="-1.19904">
        <ele>40.9</ele>
        <time>2019-10-11T14:16:58Z</time>
      </trkpt>
      <trkpt lat="47.09731" lon="-1.19899">
        <ele>40.9</ele>
        <time>2019-10-11T14:16:59Z</time>
      </trkpt>
      <trkpt lat="47.0973" lon="-1.19894">
        <ele>40.9</ele>
        <time>2019-10-11T14:17:00Z</time>
      </trkpt>
      <trkpt lat="47.09729" lon="-1.19888">
        <ele>40.9</ele>
        <time>2019-10-11T14:17:01Z</time>
      </trkpt>
      <trkpt lat="47.09728" lon="-1.19881">
        <ele>41</ele>
        <time>2019-10-11T14:17:03Z</time>
      </trkpt>
      <trkpt lat="47.09726" lon="-1.19875">
        <ele>41</ele>
        <time>2019-10-11T14:17:05Z</time>
      </trkpt>
      <trkpt lat="47.09724" lon="-1.19869">
        <ele>41</ele>
        <time>2019-10-11T14:17:07Z</time>
      </trkpt>
      <trkpt lat="47.09723" lon="-1.19864">
        <ele>41</ele>
        <time>2019-10-11T14:17:08Z</time>
      </trkpt>
      <trkpt lat="47.09721" lon="-1.19858">
        <ele>41</ele>
        <time>2019-10-11T14:17:09Z</time>
      </trkpt>
      <trkpt lat="47.09717" lon="-1.19852">
        <ele>41.1</ele>
        <time>2019-10-11T14:17:10Z</time>
      </trkpt>
      <trkpt lat="47.09713" lon="-1.19846">
        <ele>41.2</ele>
        <time>2019-10-11T14:17:11Z</time>
      </trkpt>
      <trkpt lat="47.0971" lon="-1.1984">
        <ele>41.3</ele>
        <time>2019-10-11T14:17:12Z</time>
      </trkpt>
      <trkpt lat="47.09708" lon="-1.19836">
        <ele>41.4</ele>
        <time>2019-10-11T14:17:13Z</time>
      </trkpt>
      <trkpt lat="47.09707" lon="-1.19832">
        <ele>41.4</ele>
        <time>2019-10-11T14:17:14Z</time>
      </trkpt>
      <trkpt lat="47.09705" lon="-1.19828">
        <ele>41.5</ele>
        <time>2019-10-11T14:17:15Z</time>
      </trkpt>
      <trkpt lat="47.09704" lon="-1.19824">
        <ele>41.6</ele>
        <time>2019-10-11T14:17:16Z</time>
      </trkpt>
      <trkpt lat="47.09702" lon="-1.1982">
        <ele>41.7</ele>
        <time>2019-10-11T14:17:17Z</time>
      </trkpt>
      <trkpt lat="47.097" lon="-1.19815">
        <ele>41.7</ele>
        <time>2019-10-11T14:17:18Z</time>
      </trkpt>
      <trkpt lat="47.09698" lon="-1.19809">
        <ele>41.8</ele>
        <time>2019-10-11T14:17:19Z</time>
      </trkpt>
      <trkpt lat="47.09697" lon="-1.19805">
        <ele>41.8</ele>
        <time>2019-10-11T14:17:20Z</time>
      </trkpt>
      <trkpt lat="47.09696" lon="-1.19801">
        <ele>41.9</ele>
        <time>2019-10-11T14:17:21Z</time>
      </trkpt>
      <trkpt lat="47.09694" lon="-1.19798">
        <ele>41.9</ele>
        <time>2019-10-11T14:17:22Z</time>
      </trkpt>
      <trkpt lat="47.09692" lon="-1.19793">
        <ele>41.9</ele>
        <time>2019-10-11T14:17:23Z</time>
      </trkpt>
      <trkpt lat="47.09691" lon="-1.19789">
        <ele>41.9</ele>
        <time>2019-10-11T14:17:24Z</time>
      </trkpt>
      <trkpt lat="47.0969" lon="-1.19784">
        <ele>41.9</ele>
        <time>2019-10-11T14:17:25Z</time>
      </trkpt>
      <trkpt lat="47.09689" lon="-1.19781">
        <ele>42</ele>
        <time>2019-10-11T14:17:26Z</time>
      </trkpt>
      <trkpt lat="47.09687" lon="-1.19773">
        <ele>42</ele>
        <time>2019-10-11T14:17:28Z</time>
      </trkpt>
      <trkpt lat="47.09685" lon="-1.19767">
        <ele>42</ele>
        <time>2019-10-11T14:17:30Z</time>
      </trkpt>
      <trkpt lat="47.09683" lon="-1.19761">
        <ele>42</ele>
        <time>2019-10-11T14:17:32Z</time>
      </trkpt>
      <trkpt lat="47.0968" lon="-1.19755">
        <ele>42</ele>
        <time>2019-10-11T14:17:34Z</time>
      </trkpt>
      <trkpt lat="47.09679" lon="-1.1975">
        <ele>42</ele>
        <time>2019-10-11T14:17:35Z</time>
      </trkpt>
      <trkpt lat="47.09678" lon="-1.19745">
        <ele>42</ele>
        <time>2019-10-11T14:17:36Z</time>
      </trkpt>
      <trkpt lat="47.09677" lon="-1.19738">
        <ele>42</ele>
        <time>2019-10-11T14:17:38Z</time>
      </trkpt>
      <trkpt lat="47.09676" lon="-1.19731">
        <ele>42</ele>
        <time>2019-10-11T14:17:40Z</time>
      </trkpt>
      <trkpt lat="47.09675" lon="-1.19723">
        <ele>42</ele>
        <time>2019-10-11T14:17:42Z</time>
      </trkpt>
      <trkpt lat="47.09674" lon="-1.19712">
        <ele>42</ele>
        <time>2019-10-11T14:17:44Z</time>
      </trkpt>
      <trkpt lat="47.09673" lon="-1.19708">
        <ele>42</ele>
        <time>2019-10-11T14:17:45Z</time>
      </trkpt>
      <trkpt lat="47.09671" lon="-1.19699">
        <ele>42</ele>
        <time>2019-10-11T14:17:47Z</time>
      </trkpt>
      <trkpt lat="47.0967" lon="-1.19695">
        <ele>42</ele>
        <time>2019-10-11T14:17:48Z</time>
      </trkpt>
      <trkpt lat="47.09669" lon="-1.19691">
        <ele>42.1</ele>
        <time>2019-10-11T14:17:49Z</time>
      </trkpt>
      <trkpt lat="47.09668" lon="-1.19687">
        <ele>42.1</ele>
        <time>2019-10-11T14:17:50Z</time>
      </trkpt>
      <trkpt lat="47.09667" lon="-1.19683">
        <ele>42.1</ele>
        <time>2019-10-11T14:17:51Z</time>
      </trkpt>
      <trkpt lat="47.09666" lon="-1.19679">
        <ele>42.2</ele>
        <time>2019-10-11T14:17:52Z</time>
      </trkpt>
      <trkpt lat="47.09663" lon="-1.1967">
        <ele>42.3</ele>
        <time>2019-10-11T14:17:54Z</time>
      </trkpt>
      <trkpt lat="47.09662" lon="-1.19664">
        <ele>42.4</ele>
        <time>2019-10-11T14:17:55Z</time>
      </trkpt>
      <trkpt lat="47.0966" lon="-1.19659">
        <ele>42.5</ele>
        <time>2019-10-11T14:17:56Z</time>
      </trkpt>
      <trkpt lat="47.09659" lon="-1.19655">
        <ele>42.6</ele>
        <time>2019-10-11T14:17:57Z</time>
      </trkpt>
      <trkpt lat="47.09657" lon="-1.19648">
        <ele>42.7</ele>
        <time>2019-10-11T14:17:59Z</time>
      </trkpt>
      <trkpt lat="47.09655" lon="-1.19644">
        <ele>42.7</ele>
        <time>2019-10-11T14:18:00Z</time>
      </trkpt>
      <trkpt lat="47.09652" lon="-1.19636">
        <ele>42.8</ele>
        <time>2019-10-11T14:18:02Z</time>
      </trkpt>
      <trkpt lat="47.09651" lon="-1.19632">
        <ele>42.8</ele>
        <time>2019-10-11T14:18:03Z</time>
      </trkpt>
      <trkpt lat="47.0965" lon="-1.19627">
        <ele>42.9</ele>
        <time>2019-10-11T14:18:04Z</time>
      </trkpt>
      <trkpt lat="47.09649" lon="-1.19621">
        <ele>42.9</ele>
        <time>2019-10-11T14:18:05Z</time>
      </trkpt>
      <trkpt lat="47.09649" lon="-1.19616">
        <ele>43</ele>
        <time>2019-10-11T14:18:06Z</time>
      </trkpt>
      <trkpt lat="47.09647" lon="-1.1961">
        <ele>43</ele>
        <time>2019-10-11T14:18:07Z</time>
      </trkpt>
      <trkpt lat="47.09646" lon="-1.19605">
        <ele>43</ele>
        <time>2019-10-11T14:18:08Z</time>
      </trkpt>
      <trkpt lat="47.09645" lon="-1.196">
        <ele>43</ele>
        <time>2019-10-11T14:18:09Z</time>
      </trkpt>
      <trkpt lat="47.09644" lon="-1.19595">
        <ele>43</ele>
        <time>2019-10-11T14:18:10Z</time>
      </trkpt>
      <trkpt lat="47.09642" lon="-1.19587">
        <ele>43</ele>
        <time>2019-10-11T14:18:12Z</time>
      </trkpt>
      <trkpt lat="47.0964" lon="-1.1958">
        <ele>43</ele>
        <time>2019-10-11T14:18:14Z</time>
      </trkpt>
      <trkpt lat="47.0964" lon="-1.19575">
        <ele>43</ele>
        <time>2019-10-11T14:18:15Z</time>
      </trkpt>
      <trkpt lat="47.09638" lon="-1.19569">
        <ele>43</ele>
        <time>2019-10-11T14:18:16Z</time>
      </trkpt>
      <trkpt lat="47.09637" lon="-1.19564">
        <ele>43</ele>
        <time>2019-10-11T14:18:17Z</time>
      </trkpt>
      <trkpt lat="47.09636" lon="-1.19559">
        <ele>43</ele>
        <time>2019-10-11T14:18:18Z</time>
      </trkpt>
      <trkpt lat="47.09635" lon="-1.19555">
        <ele>43</ele>
        <time>2019-10-11T14:18:19Z</time>
      </trkpt>
      <trkpt lat="47.09634" lon="-1.19547">
        <ele>43</ele>
        <time>2019-10-11T14:18:21Z</time>
      </trkpt>
      <trkpt lat="47.09633" lon="-1.19542">
        <ele>43</ele>
        <time>2019-10-11T14:18:22Z</time>
      </trkpt>
      <trkpt lat="47.09632" lon="-1.19538">
        <ele>43</ele>
        <time>2019-10-11T14:18:23Z</time>
      </trkpt>
      <trkpt lat="47.09631" lon="-1.19533">
        <ele>43</ele>
        <time>2019-10-11T14:18:24Z</time>
      </trkpt>
      <trkpt lat="47.0963" lon="-1.19527">
        <ele>43.1</ele>
        <time>2019-10-11T14:18:25Z</time>
      </trkpt>
      <trkpt lat="47.09629" lon="-1.19523">
        <ele>43.1</ele>
        <time>2019-10-11T14:18:26Z</time>
      </trkpt>
      <trkpt lat="47.09629" lon="-1.19519">
        <ele>43.1</ele>
        <time>2019-10-11T14:18:27Z</time>
      </trkpt>
      <trkpt lat="47.09629" lon="-1.19514">
        <ele>43.2</ele>
        <time>2019-10-11T14:18:28Z</time>
      </trkpt>
      <trkpt lat="47.09629" lon="-1.19509">
        <ele>43.2</ele>
        <time>2019-10-11T14:18:29Z</time>
      </trkpt>
      <trkpt lat="47.09629" lon="-1.19505">
        <ele>43.3</ele>
        <time>2019-10-11T14:18:30Z</time>
      </trkpt>
      <trkpt lat="47.09629" lon="-1.19501">
        <ele>43.4</ele>
        <time>2019-10-11T14:18:31Z</time>
      </trkpt>
      <trkpt lat="47.09629" lon="-1.19496">
        <ele>43.4</ele>
        <time>2019-10-11T14:18:32Z</time>
      </trkpt>
      <trkpt lat="47.09628" lon="-1.19492">
        <ele>43.5</ele>
        <time>2019-10-11T14:18:33Z</time>
      </trkpt>
      <trkpt lat="47.09628" lon="-1.19488">
        <ele>43.6</ele>
        <time>2019-10-11T14:18:34Z</time>
      </trkpt>
      <trkpt lat="47.09628" lon="-1.19483">
        <ele>43.6</ele>
        <time>2019-10-11T14:18:35Z</time>
      </trkpt>
      <trkpt lat="47.09629" lon="-1.19475">
        <ele>43.8</ele>
        <time>2019-10-11T14:18:37Z</time>
      </trkpt>
      <trkpt lat="47.0963" lon="-1.1947">
        <ele>43.8</ele>
        <time>2019-10-11T14:18:38Z</time>
      </trkpt>
      <trkpt lat="47.0963" lon="-1.19461">
        <ele>43.9</ele>
        <time>2019-10-11T14:18:40Z</time>
      </trkpt>
      <trkpt lat="47.09631" lon="-1.19455">
        <ele>44</ele>
        <time>2019-10-11T14:18:41Z</time>
      </trkpt>
      <trkpt lat="47.09631" lon="-1.19449">
        <ele>44</ele>
        <time>2019-10-11T14:18:42Z</time>
      </trkpt>
      <trkpt lat="47.09632" lon="-1.19445">
        <ele>44</ele>
        <time>2019-10-11T14:18:43Z</time>
      </trkpt>
      <trkpt lat="47.09634" lon="-1.1944">
        <ele>44</ele>
        <time>2019-10-11T14:18:44Z</time>
      </trkpt>
      <trkpt lat="47.09635" lon="-1.19437">
        <ele>44</ele>
        <time>2019-10-11T14:18:45Z</time>
      </trkpt>
      <trkpt lat="47.09637" lon="-1.1943">
        <ele>44</ele>
        <time>2019-10-11T14:18:47Z</time>
      </trkpt>
      <trkpt lat="47.09638" lon="-1.19426">
        <ele>44</ele>
        <time>2019-10-11T14:18:48Z</time>
      </trkpt>
      <trkpt lat="47.0964" lon="-1.19423">
        <ele>44</ele>
        <time>2019-10-11T14:18:49Z</time>
      </trkpt>
      <trkpt lat="47.09642" lon="-1.19419">
        <ele>44</ele>
        <time>2019-10-11T14:18:50Z</time>
      </trkpt>
      <trkpt lat="47.09644" lon="-1.19414">
        <ele>44</ele>
        <time>2019-10-11T14:18:52Z</time>
      </trkpt>
      <trkpt lat="47.09646" lon="-1.1941">
        <ele>44</ele>
        <time>2019-10-11T14:18:54Z</time>
      </trkpt>
      <trkpt lat="47.09649" lon="-1.19406">
        <ele>44</ele>
        <time>2019-10-11T14:18:55Z</time>
      </trkpt>
      <trkpt lat="47.0965" lon="-1.19402">
        <ele>44</ele>
        <time>2019-10-11T14:18:56Z</time>
      </trkpt>
      <trkpt lat="47.09653" lon="-1.19397">
        <ele>44</ele>
        <time>2019-10-11T14:18:58Z</time>
      </trkpt>
      <trkpt lat="47.09656" lon="-1.19392">
        <ele>44</ele>
        <time>2019-10-11T14:19:00Z</time>
      </trkpt>
      <trkpt lat="47.09658" lon="-1.19386">
        <ele>44</ele>
        <time>2019-10-11T14:19:02Z</time>
      </trkpt>
      <trkpt lat="47.0966" lon="-1.19382">
        <ele>44</ele>
        <time>2019-10-11T14:19:06Z</time>
      </trkpt>
      <trkpt lat="47.09662" lon="-1.19378">
        <ele>44</ele>
        <time>2019-10-11T14:19:08Z</time>
      </trkpt>
      <trkpt lat="47.09664" lon="-1.19373">
        <ele>44</ele>
        <time>2019-10-11T14:19:10Z</time>
      </trkpt>
      <trkpt lat="47.09671" lon="-1.19363">
        <ele>44.2</ele>
        <time>2019-10-11T14:23:07Z</time>
      </trkpt>
      <trkpt lat="47.09673" lon="-1.1936">
        <ele>44</ele>
        <time>2019-10-11T14:23:09Z</time>
      </trkpt>
      <trkpt lat="47.09676" lon="-1.19357">
        <ele>43.9</ele>
        <time>2019-10-11T14:23:11Z</time>
      </trkpt>
      <trkpt lat="47.09679" lon="-1.19352">
        <ele>43.6</ele>
        <time>2019-10-11T14:23:13Z</time>
      </trkpt>
      <trkpt lat="47.09682" lon="-1.19348">
        <ele>43.8</ele>
        <time>2019-10-11T14:23:15Z</time>
      </trkpt>
      <trkpt lat="47.09685" lon="-1.19345">
        <ele>43.9</ele>
        <time>2019-10-11T14:23:17Z</time>
      </trkpt>
      <trkpt lat="47.09688" lon="-1.19341">
        <ele>44.1</ele>
        <time>2019-10-11T14:23:19Z</time>
      </trkpt>
      <trkpt lat="47.09691" lon="-1.19338">
        <ele>44.2</ele>
        <time>2019-10-11T14:23:21Z</time>
      </trkpt>
      <trkpt lat="47.09693" lon="-1.19335">
        <ele>44.3</ele>
        <time>2019-10-11T14:23:23Z</time>
      </trkpt>
      <trkpt lat="47.09697" lon="-1.19333">
        <ele>44.5</ele>
        <time>2019-10-11T14:23:25Z</time>
      </trkpt>
      <trkpt lat="47.097" lon="-1.19331">
        <ele>44.7</ele>
        <time>2019-10-11T14:23:27Z</time>
      </trkpt>
      <trkpt lat="47.09703" lon="-1.19328">
        <ele>44.9</ele>
        <time>2019-10-11T14:23:29Z</time>
      </trkpt>
      <trkpt lat="47.09707" lon="-1.19326">
        <ele>45.1</ele>
        <time>2019-10-11T14:23:31Z</time>
      </trkpt>
      <trkpt lat="47.0971" lon="-1.19323">
        <ele>45.3</ele>
        <time>2019-10-11T14:23:33Z</time>
      </trkpt>
      <trkpt lat="47.09713" lon="-1.1932">
        <ele>45.6</ele>
        <time>2019-10-11T14:23:35Z</time>
      </trkpt>
      <trkpt lat="47.09716" lon="-1.19317">
        <ele>45.9</ele>
        <time>2019-10-11T14:23:37Z</time>
      </trkpt>
      <trkpt lat="47.0972" lon="-1.19314">
        <ele>46.1</ele>
        <time>2019-10-11T14:23:39Z</time>
      </trkpt>
      <trkpt lat="47.09723" lon="-1.19312">
        <ele>46.3</ele>
        <time>2019-10-11T14:23:41Z</time>
      </trkpt>
      <trkpt lat="47.09727" lon="-1.19309">
        <ele>46.5</ele>
        <time>2019-10-11T14:23:43Z</time>
      </trkpt>
      <trkpt lat="47.0973" lon="-1.19307">
        <ele>46.7</ele>
        <time>2019-10-11T14:23:45Z</time>
      </trkpt>
      <trkpt lat="47.09734" lon="-1.19306">
        <ele>47</ele>
        <time>2019-10-11T14:23:47Z</time>
      </trkpt>
      <trkpt lat="47.09738" lon="-1.19304">
        <ele>47.2</ele>
        <time>2019-10-11T14:23:49Z</time>
      </trkpt>
      <trkpt lat="47.09742" lon="-1.19302">
        <ele>47.4</ele>
        <time>2019-10-11T14:23:51Z</time>
      </trkpt>
      <trkpt lat="47.09745" lon="-1.19301">
        <ele>47.6</ele>
        <time>2019-10-11T14:23:53Z</time>
      </trkpt>
      <trkpt lat="47.09749" lon="-1.19301">
        <ele>47.9</ele>
        <time>2019-10-11T14:23:55Z</time>
      </trkpt>
      <trkpt lat="47.09753" lon="-1.193">
        <ele>48.2</ele>
        <time>2019-10-11T14:23:57Z</time>
      </trkpt>
      <trkpt lat="47.09757" lon="-1.193">
        <ele>48.5</ele>
        <time>2019-10-11T14:23:59Z</time>
      </trkpt>
      <trkpt lat="47.0976" lon="-1.193">
        <ele>48.7</ele>
        <time>2019-10-11T14:24:01Z</time>
      </trkpt>
      <trkpt lat="47.09764" lon="-1.19302">
        <ele>49</ele>
        <time>2019-10-11T14:24:03Z</time>
      </trkpt>
      <trkpt lat="47.09767" lon="-1.19304">
        <ele>49.4</ele>
        <time>2019-10-11T14:24:05Z</time>
      </trkpt>
      <trkpt lat="47.09771" lon="-1.19305">
        <ele>49.7</ele>
        <time>2019-10-11T14:24:07Z</time>
      </trkpt>
      <trkpt lat="47.09774" lon="-1.19306">
        <ele>50</ele>
        <time>2019-10-11T14:24:09Z</time>
      </trkpt>
      <trkpt lat="47.09778" lon="-1.19306">
        <ele>50.2</ele>
        <time>2019-10-11T14:24:11Z</time>
      </trkpt>
      <trkpt lat="47.09781" lon="-1.19307">
        <ele>50.5</ele>
        <time>2019-10-11T14:24:13Z</time>
      </trkpt>
      <trkpt lat="47.09785" lon="-1.19306">
        <ele>50.7</ele>
        <time>2019-10-11T14:24:15Z</time>
      </trkpt>
      <trkpt lat="47.09788" lon="-1.19306">
        <ele>50.9</ele>
        <time>2019-10-11T14:24:17Z</time>
      </trkpt>
      <trkpt lat="47.09791" lon="-1.19307">
        <ele>51.1</ele>
        <time>2019-10-11T14:24:20Z</time>
      </trkpt>
      <trkpt lat="47.09794" lon="-1.19306">
        <ele>51.4</ele>
        <time>2019-10-11T14:24:24Z</time>
      </trkpt>
      <trkpt lat="47.09798" lon="-1.19306">
        <ele>51.6</ele>
        <time>2019-10-11T14:24:27Z</time>
      </trkpt>
      <trkpt lat="47.09802" lon="-1.19306">
        <ele>51.9</ele>
        <time>2019-10-11T14:24:30Z</time>
      </trkpt>
      <trkpt lat="47.09804" lon="-1.19307">
        <ele>52.1</ele>
        <time>2019-10-11T14:24:32Z</time>
      </trkpt>
      <trkpt lat="47.09808" lon="-1.19307">
        <ele>52.3</ele>
        <time>2019-10-11T14:24:35Z</time>
      </trkpt>
      <trkpt lat="47.09811" lon="-1.19307">
        <ele>52.5</ele>
        <time>2019-10-11T14:24:37Z</time>
      </trkpt>
      <trkpt lat="47.09814" lon="-1.19307">
        <ele>52.7</ele>
        <time>2019-10-11T14:24:39Z</time>
      </trkpt>
      <trkpt lat="47.09817" lon="-1.19308">
        <ele>52.9</ele>
        <time>2019-10-11T14:24:41Z</time>
      </trkpt>
      <trkpt lat="47.09821" lon="-1.19308">
        <ele>53.1</ele>
        <time>2019-10-11T14:24:44Z</time>
      </trkpt>
      <trkpt lat="47.09824" lon="-1.19308">
        <ele>53.3</ele>
        <time>2019-10-11T14:24:47Z</time>
      </trkpt>
      <trkpt lat="47.09827" lon="-1.19309">
        <ele>53.5</ele>
        <time>2019-10-11T14:24:50Z</time>
      </trkpt>
      <trkpt lat="47.09831" lon="-1.19309">
        <ele>53.8</ele>
        <time>2019-10-11T14:24:53Z</time>
      </trkpt>
      <trkpt lat="47.09834" lon="-1.19309">
        <ele>54</ele>
        <time>2019-10-11T14:24:56Z</time>
      </trkpt>
      <trkpt lat="47.09838" lon="-1.19308">
        <ele>54.1</ele>
        <time>2019-10-11T14:24:59Z</time>
      </trkpt>
      <trkpt lat="47.09841" lon="-1.19308">
        <ele>54.3</ele>
        <time>2019-10-11T14:25:02Z</time>
      </trkpt>
      <trkpt lat="47.09844" lon="-1.19307">
        <ele>54.5</ele>
        <time>2019-10-11T14:25:05Z</time>
      </trkpt>
      <trkpt lat="47.09848" lon="-1.19307">
        <ele>54.7</ele>
        <time>2019-10-11T14:25:08Z</time>
      </trkpt>
      <trkpt lat="47.09851" lon="-1.19306">
        <ele>54.9</ele>
        <time>2019-10-11T14:25:10Z</time>
      </trkpt>
      <trkpt lat="47.09854" lon="-1.19305">
        <ele>55.1</ele>
        <time>2019-10-11T14:25:13Z</time>
      </trkpt>
      <trkpt lat="47.09858" lon="-1.19304">
        <ele>55.3</ele>
        <time>2019-10-11T14:25:16Z</time>
      </trkpt>
      <trkpt lat="47.09861" lon="-1.19303">
        <ele>55.6</ele>
        <time>2019-10-11T14:25:19Z</time>
      </trkpt>
      <trkpt lat="47.09865" lon="-1.19302">
        <ele>55.9</ele>
        <time>2019-10-11T14:25:22Z</time>
      </trkpt>
      <trkpt lat="47.09868" lon="-1.193">
        <ele>56.1</ele>
        <time>2019-10-11T14:25:25Z</time>
      </trkpt>
      <trkpt lat="47.09871" lon="-1.19298">
        <ele>56.4</ele>
        <time>2019-10-11T14:25:28Z</time>
      </trkpt>
      <trkpt lat="47.09875" lon="-1.19297">
        <ele>56.6</ele>
        <time>2019-10-11T14:25:31Z</time>
      </trkpt>
      <trkpt lat="47.09879" lon="-1.19296">
        <ele>56.9</ele>
        <time>2019-10-11T14:25:34Z</time>
      </trkpt>
      <trkpt lat="47.09882" lon="-1.19294">
        <ele>57</ele>
        <time>2019-10-11T14:25:37Z</time>
      </trkpt>
      <trkpt lat="47.09885" lon="-1.19293">
        <ele>57.2</ele>
        <time>2019-10-11T14:25:40Z</time>
      </trkpt>
      <trkpt lat="47.09888" lon="-1.19291">
        <ele>57.4</ele>
        <time>2019-10-11T14:25:43Z</time>
      </trkpt>
      <trkpt lat="47.09891" lon="-1.1929">
        <ele>57.7</ele>
        <time>2019-10-11T14:25:46Z</time>
      </trkpt>
      <trkpt lat="47.09894" lon="-1.19288">
        <ele>57.9</ele>
        <time>2019-10-11T14:25:49Z</time>
      </trkpt>
      <trkpt lat="47.09897" lon="-1.19286">
        <ele>58.1</ele>
        <time>2019-10-11T14:25:52Z</time>
      </trkpt>
      <trkpt lat="47.099" lon="-1.19285">
        <ele>58.3</ele>
        <time>2019-10-11T14:25:55Z</time>
      </trkpt>
      <trkpt lat="47.09904" lon="-1.19283">
        <ele>58.5</ele>
        <time>2019-10-11T14:25:58Z</time>
      </trkpt>
      <trkpt lat="47.09907" lon="-1.19282">
        <ele>58.7</ele>
        <time>2019-10-11T14:26:01Z</time>
      </trkpt>
      <trkpt lat="47.09911" lon="-1.1928">
        <ele>58.9</ele>
        <time>2019-10-11T14:26:04Z</time>
      </trkpt>
      <trkpt lat="47.09914" lon="-1.19279">
        <ele>59.1</ele>
        <time>2019-10-11T14:26:07Z</time>
      </trkpt>
      <trkpt lat="47.09917" lon="-1.19277">
        <ele>59.3</ele>
        <time>2019-10-11T14:26:10Z</time>
      </trkpt>
      <trkpt lat="47.09921" lon="-1.19275">
        <ele>59.5</ele>
        <time>2019-10-11T14:26:13Z</time>
      </trkpt>
      <trkpt lat="47.09924" lon="-1.19273">
        <ele>59.7</ele>
        <time>2019-10-11T14:26:16Z</time>
      </trkpt>
      <trkpt lat="47.09928" lon="-1.1927">
        <ele>60</ele>
        <time>2019-10-11T14:26:19Z</time>
      </trkpt>
      <trkpt lat="47.0993" lon="-1.19269">
        <ele>60.1</ele>
        <time>2019-10-11T14:26:21Z</time>
      </trkpt>
      <trkpt lat="47.09933" lon="-1.19268">
        <ele>60.3</ele>
        <time>2019-10-11T14:26:23Z</time>
      </trkpt>
      <trkpt lat="47.09936" lon="-1.19267">
        <ele>60.5</ele>
        <time>2019-10-11T14:26:26Z</time>
      </trkpt>
      <trkpt lat="47.09939" lon="-1.19266">
        <ele>60.7</ele>
        <time>2019-10-11T14:26:32Z</time>
      </trkpt>
      <trkpt lat="47.09942" lon="-1.19265">
        <ele>60.8</ele>
        <time>2019-10-11T14:26:34Z</time>
      </trkpt>
      <trkpt lat="47.09945" lon="-1.19263">
        <ele>60.9</ele>
        <time>2019-10-11T14:26:36Z</time>
      </trkpt>
      <trkpt lat="47.09949" lon="-1.19262">
        <ele>61.1</ele>
        <time>2019-10-11T14:26:38Z</time>
      </trkpt>
      <trkpt lat="47.09952" lon="-1.1926">
        <ele>61.2</ele>
        <time>2019-10-11T14:26:40Z</time>
      </trkpt>
      <trkpt lat="47.09955" lon="-1.19258">
        <ele>61.3</ele>
        <time>2019-10-11T14:26:42Z</time>
      </trkpt>
      <trkpt lat="47.09958" lon="-1.19257">
        <ele>61.3</ele>
        <time>2019-10-11T14:26:44Z</time>
      </trkpt>
      <trkpt lat="47.09962" lon="-1.19255">
        <ele>61.4</ele>
        <time>2019-10-11T14:26:46Z</time>
      </trkpt>
      <trkpt lat="47.09966" lon="-1.19253">
        <ele>61.4</ele>
        <time>2019-10-11T14:26:48Z</time>
      </trkpt>
      <trkpt lat="47.0997" lon="-1.19252">
        <ele>61.4</ele>
        <time>2019-10-11T14:26:50Z</time>
      </trkpt>
      <trkpt lat="47.09974" lon="-1.1925">
        <ele>61.4</ele>
        <time>2019-10-11T14:26:52Z</time>
      </trkpt>
      <trkpt lat="47.09978" lon="-1.19248">
        <ele>61.4</ele>
        <time>2019-10-11T14:26:54Z</time>
      </trkpt>
      <trkpt lat="47.09982" lon="-1.19246">
        <ele>61.5</ele>
        <time>2019-10-11T14:26:56Z</time>
      </trkpt>
      <trkpt lat="47.09987" lon="-1.19242">
        <ele>61.5</ele>
        <time>2019-10-11T14:26:58Z</time>
      </trkpt>
      <trkpt lat="47.09991" lon="-1.19239">
        <ele>62</ele>
        <time>2019-10-11T14:27:00Z</time>
      </trkpt>
      <trkpt lat="47.09995" lon="-1.19235">
        <ele>62.2</ele>
        <time>2019-10-11T14:27:02Z</time>
      </trkpt>
      <trkpt lat="47.09998" lon="-1.19232">
        <ele>62.4</ele>
        <time>2019-10-11T14:27:04Z</time>
      </trkpt>
      <trkpt lat="47.10001" lon="-1.19228">
        <ele>62.6</ele>
        <time>2019-10-11T14:27:06Z</time>
      </trkpt>
      <trkpt lat="47.10005" lon="-1.19225">
        <ele>62.7</ele>
        <time>2019-10-11T14:27:08Z</time>
      </trkpt>
      <trkpt lat="47.10009" lon="-1.19224">
        <ele>63.2</ele>
        <time>2019-10-11T14:27:10Z</time>
      </trkpt>
      <trkpt lat="47.10013" lon="-1.19227">
        <ele>63.1</ele>
        <time>2019-10-11T14:27:12Z</time>
      </trkpt>
      <trkpt lat="47.10017" lon="-1.19232">
        <ele>62.9</ele>
        <time>2019-10-11T14:27:14Z</time>
      </trkpt>
      <trkpt lat="47.10019" lon="-1.19235">
        <ele>62.9</ele>
        <time>2019-10-11T14:27:15Z</time>
      </trkpt>
      <trkpt lat="47.10021" lon="-1.19238">
        <ele>62.8</ele>
        <time>2019-10-11T14:27:16Z</time>
      </trkpt>
      <trkpt lat="47.10025" lon="-1.19244">
        <ele>62.7</ele>
        <time>2019-10-11T14:27:18Z</time>
      </trkpt>
      <trkpt lat="47.10026" lon="-1.19248">
        <ele>62.7</ele>
        <time>2019-10-11T14:27:19Z</time>
      </trkpt>
      <trkpt lat="47.10028" lon="-1.19252">
        <ele>62.8</ele>
        <time>2019-10-11T14:27:20Z</time>
      </trkpt>
      <trkpt lat="47.10029" lon="-1.19256">
        <ele>63</ele>
        <time>2019-10-11T14:27:21Z</time>
      </trkpt>
      <trkpt lat="47.10031" lon="-1.1926">
        <ele>63.1</ele>
        <time>2019-10-11T14:27:22Z</time>
      </trkpt>
      <trkpt lat="47.10032" lon="-1.19264">
        <ele>63.3</ele>
        <time>2019-10-11T14:27:23Z</time>
      </trkpt>
      <trkpt lat="47.10034" lon="-1.19268">
        <ele>63.4</ele>
        <time>2019-10-11T14:27:24Z</time>
      </trkpt>
      <trkpt lat="47.10035" lon="-1.19273">
        <ele>63.6</ele>
        <time>2019-10-11T14:27:25Z</time>
      </trkpt>
      <trkpt lat="47.10037" lon="-1.19277">
        <ele>63.7</ele>
        <time>2019-10-11T14:27:26Z</time>
      </trkpt>
      <trkpt lat="47.10038" lon="-1.19281">
        <ele>63.8</ele>
        <time>2019-10-11T14:27:27Z</time>
      </trkpt>
      <trkpt lat="47.10039" lon="-1.19285">
        <ele>63.9</ele>
        <time>2019-10-11T14:27:28Z</time>
      </trkpt>
      <trkpt lat="47.10041" lon="-1.1929">
        <ele>64</ele>
        <time>2019-10-11T14:27:29Z</time>
      </trkpt>
      <trkpt lat="47.10042" lon="-1.19294">
        <ele>64.1</ele>
        <time>2019-10-11T14:27:30Z</time>
      </trkpt>
      <trkpt lat="47.10044" lon="-1.19297">
        <ele>64.1</ele>
        <time>2019-10-11T14:27:31Z</time>
      </trkpt>
      <trkpt lat="47.10046" lon="-1.19304">
        <ele>64.3</ele>
        <time>2019-10-11T14:27:33Z</time>
      </trkpt>
      <trkpt lat="47.10049" lon="-1.19311">
        <ele>64.5</ele>
        <time>2019-10-11T14:27:35Z</time>
      </trkpt>
      <trkpt lat="47.10051" lon="-1.19314">
        <ele>64.6</ele>
        <time>2019-10-11T14:27:36Z</time>
      </trkpt>
      <trkpt lat="47.10053" lon="-1.19317">
        <ele>64.7</ele>
        <time>2019-10-11T14:27:37Z</time>
      </trkpt>
      <trkpt lat="47.10055" lon="-1.19321">
        <ele>64.8</ele>
        <time>2019-10-11T14:27:38Z</time>
      </trkpt>
      <trkpt lat="47.10057" lon="-1.19324">
        <ele>64.9</ele>
        <time>2019-10-11T14:27:39Z</time>
      </trkpt>
      <trkpt lat="47.10058" lon="-1.19328">
        <ele>65</ele>
        <time>2019-10-11T14:27:40Z</time>
      </trkpt>
      <trkpt lat="47.1006" lon="-1.19332">
        <ele>65.1</ele>
        <time>2019-10-11T14:27:41Z</time>
      </trkpt>
      <trkpt lat="47.10062" lon="-1.19335">
        <ele>65.2</ele>
        <time>2019-10-11T14:27:42Z</time>
      </trkpt>
      <trkpt lat="47.10064" lon="-1.19339">
        <ele>65.3</ele>
        <time>2019-10-11T14:27:43Z</time>
      </trkpt>
      <trkpt lat="47.10066" lon="-1.19343">
        <ele>65.4</ele>
        <time>2019-10-11T14:27:44Z</time>
      </trkpt>
      <trkpt lat="47.10068" lon="-1.19346">
        <ele>65.5</ele>
        <time>2019-10-11T14:27:45Z</time>
      </trkpt>
      <trkpt lat="47.10069" lon="-1.1935">
        <ele>65.6</ele>
        <time>2019-10-11T14:27:46Z</time>
      </trkpt>
      <trkpt lat="47.10071" lon="-1.19353">
        <ele>65.7</ele>
        <time>2019-10-11T14:27:47Z</time>
      </trkpt>
      <trkpt lat="47.10073" lon="-1.19357">
        <ele>65.9</ele>
        <time>2019-10-11T14:27:48Z</time>
      </trkpt>
      <trkpt lat="47.10074" lon="-1.19361">
        <ele>66</ele>
        <time>2019-10-11T14:27:49Z</time>
      </trkpt>
      <trkpt lat="47.10076" lon="-1.19364">
        <ele>66.2</ele>
        <time>2019-10-11T14:27:50Z</time>
      </trkpt>
      <trkpt lat="47.10078" lon="-1.19367">
        <ele>66.3</ele>
        <time>2019-10-11T14:27:51Z</time>
      </trkpt>
      <trkpt lat="47.1008" lon="-1.1937">
        <ele>66.5</ele>
        <time>2019-10-11T14:27:52Z</time>
      </trkpt>
      <trkpt lat="47.10082" lon="-1.19374">
        <ele>66.6</ele>
        <time>2019-10-11T14:27:53Z</time>
      </trkpt>
      <trkpt lat="47.10084" lon="-1.19377">
        <ele>66.8</ele>
        <time>2019-10-11T14:27:54Z</time>
      </trkpt>
      <trkpt lat="47.10086" lon="-1.1938">
        <ele>66.9</ele>
        <time>2019-10-11T14:27:55Z</time>
      </trkpt>
      <trkpt lat="47.10088" lon="-1.19383">
        <ele>67</ele>
        <time>2019-10-11T14:27:56Z</time>
      </trkpt>
      <trkpt lat="47.1009" lon="-1.19386">
        <ele>67.2</ele>
        <time>2019-10-11T14:27:57Z</time>
      </trkpt>
      <trkpt lat="47.10092" lon="-1.19389">
        <ele>67.3</ele>
        <time>2019-10-11T14:27:58Z</time>
      </trkpt>
      <trkpt lat="47.10094" lon="-1.19392">
        <ele>67.5</ele>
        <time>2019-10-11T14:27:59Z</time>
      </trkpt>
      <trkpt lat="47.10096" lon="-1.19395">
        <ele>67.6</ele>
        <time>2019-10-11T14:28:00Z</time>
      </trkpt>
      <trkpt lat="47.10099" lon="-1.19398">
        <ele>67.7</ele>
        <time>2019-10-11T14:28:01Z</time>
      </trkpt>
      <trkpt lat="47.10101" lon="-1.19401">
        <ele>67.8</ele>
        <time>2019-10-11T14:28:02Z</time>
      </trkpt>
      <trkpt lat="47.10103" lon="-1.19404">
        <ele>67.9</ele>
        <time>2019-10-11T14:28:03Z</time>
      </trkpt>
      <trkpt lat="47.10105" lon="-1.19406">
        <ele>68.1</ele>
        <time>2019-10-11T14:28:04Z</time>
      </trkpt>
      <trkpt lat="47.10107" lon="-1.19409">
        <ele>68.2</ele>
        <time>2019-10-11T14:28:05Z</time>
      </trkpt>
      <trkpt lat="47.10109" lon="-1.19412">
        <ele>68.3</ele>
        <time>2019-10-11T14:28:06Z</time>
      </trkpt>
      <trkpt lat="47.10111" lon="-1.19415">
        <ele>68.4</ele>
        <time>2019-10-11T14:28:07Z</time>
      </trkpt>
      <trkpt lat="47.10113" lon="-1.19418">
        <ele>68.5</ele>
        <time>2019-10-11T14:28:08Z</time>
      </trkpt>
      <trkpt lat="47.10115" lon="-1.19421">
        <ele>68.6</ele>
        <time>2019-10-11T14:28:09Z</time>
      </trkpt>
      <trkpt lat="47.10117" lon="-1.19423">
        <ele>68.9</ele>
        <time>2019-10-11T14:28:10Z</time>
      </trkpt>
      <trkpt lat="47.10121" lon="-1.19428">
        <ele>69</ele>
        <time>2019-10-11T14:28:12Z</time>
      </trkpt>
      <trkpt lat="47.10125" lon="-1.19433">
        <ele>69.2</ele>
        <time>2019-10-11T14:28:14Z</time>
      </trkpt>
      <trkpt lat="47.10129" lon="-1.19438">
        <ele>69.3</ele>
        <time>2019-10-11T14:28:16Z</time>
      </trkpt>
      <trkpt lat="47.10131" lon="-1.19441">
        <ele>69.4</ele>
        <time>2019-10-11T14:28:17Z</time>
      </trkpt>
      <trkpt lat="47.10135" lon="-1.19447">
        <ele>69.5</ele>
        <time>2019-10-11T14:28:19Z</time>
      </trkpt>
      <trkpt lat="47.10136" lon="-1.1945">
        <ele>69.6</ele>
        <time>2019-10-11T14:28:20Z</time>
      </trkpt>
      <trkpt lat="47.10138" lon="-1.19453">
        <ele>69.6</ele>
        <time>2019-10-11T14:28:21Z</time>
      </trkpt>
      <trkpt lat="47.10142" lon="-1.19458">
        <ele>69.7</ele>
        <time>2019-10-11T14:28:23Z</time>
      </trkpt>
      <trkpt lat="47.10144" lon="-1.19462">
        <ele>69.8</ele>
        <time>2019-10-11T14:28:24Z</time>
      </trkpt>
      <trkpt lat="47.10146" lon="-1.19465">
        <ele>69.8</ele>
        <time>2019-10-11T14:28:25Z</time>
      </trkpt>
      <trkpt lat="47.10147" lon="-1.19468">
        <ele>69.9</ele>
        <time>2019-10-11T14:28:26Z</time>
      </trkpt>
      <trkpt lat="47.10149" lon="-1.19471">
        <ele>69.9</ele>
        <time>2019-10-11T14:28:27Z</time>
      </trkpt>
      <trkpt lat="47.10151" lon="-1.19474">
        <ele>70</ele>
        <time>2019-10-11T14:28:28Z</time>
      </trkpt>
      <trkpt lat="47.10153" lon="-1.19477">
        <ele>70</ele>
        <time>2019-10-11T14:28:29Z</time>
      </trkpt>
      <trkpt lat="47.10155" lon="-1.19481">
        <ele>70.1</ele>
        <time>2019-10-11T14:28:30Z</time>
      </trkpt>
      <trkpt lat="47.10157" lon="-1.19484">
        <ele>70.1</ele>
        <time>2019-10-11T14:28:31Z</time>
      </trkpt>
      <trkpt lat="47.10158" lon="-1.19487">
        <ele>70.2</ele>
        <time>2019-10-11T14:28:32Z</time>
      </trkpt>
      <trkpt lat="47.10162" lon="-1.19494">
        <ele>70.3</ele>
        <time>2019-10-11T14:28:34Z</time>
      </trkpt>
      <trkpt lat="47.10163" lon="-1.19497">
        <ele>70.4</ele>
        <time>2019-10-11T14:28:35Z</time>
      </trkpt>
      <trkpt lat="47.10167" lon="-1.19503">
        <ele>70.5</ele>
        <time>2019-10-11T14:28:37Z</time>
      </trkpt>
      <trkpt lat="47.10169" lon="-1.19506">
        <ele>70.6</ele>
        <time>2019-10-11T14:28:38Z</time>
      </trkpt>
      <trkpt lat="47.10171" lon="-1.19509">
        <ele>70.7</ele>
        <time>2019-10-11T14:28:39Z</time>
      </trkpt>
      <trkpt lat="47.10172" lon="-1.19512">
        <ele>70.7</ele>
        <time>2019-10-11T14:28:40Z</time>
      </trkpt>
      <trkpt lat="47.10174" lon="-1.19516">
        <ele>70.8</ele>
        <time>2019-10-11T14:28:41Z</time>
      </trkpt>
      <trkpt lat="47.10176" lon="-1.19519">
        <ele>70.8</ele>
        <time>2019-10-11T14:28:42Z</time>
      </trkpt>
      <trkpt lat="47.10179" lon="-1.19525">
        <ele>70.8</ele>
        <time>2019-10-11T14:28:44Z</time>
      </trkpt>
      <trkpt lat="47.10181" lon="-1.19528">
        <ele>70.8</ele>
        <time>2019-10-11T14:28:45Z</time>
      </trkpt>
      <trkpt lat="47.10184" lon="-1.19534">
        <ele>70.8</ele>
        <time>2019-10-11T14:28:47Z</time>
      </trkpt>
      <trkpt lat="47.10187" lon="-1.1954">
        <ele>70.9</ele>
        <time>2019-10-11T14:28:49Z</time>
      </trkpt>
      <trkpt lat="47.10189" lon="-1.19543">
        <ele>70.9</ele>
        <time>2019-10-11T14:28:50Z</time>
      </trkpt>
      <trkpt lat="47.10191" lon="-1.19546">
        <ele>70.9</ele>
        <time>2019-10-11T14:28:51Z</time>
      </trkpt>
      <trkpt lat="47.10193" lon="-1.19549">
        <ele>70.9</ele>
        <time>2019-10-11T14:28:52Z</time>
      </trkpt>
      <trkpt lat="47.10195" lon="-1.19552">
        <ele>70.9</ele>
        <time>2019-10-11T14:28:53Z</time>
      </trkpt>
      <trkpt lat="47.10198" lon="-1.19559">
        <ele>70.9</ele>
        <time>2019-10-11T14:28:55Z</time>
      </trkpt>
      <trkpt lat="47.102" lon="-1.19562">
        <ele>70.9</ele>
        <time>2019-10-11T14:28:56Z</time>
      </trkpt>
      <trkpt lat="47.10202" lon="-1.19565">
        <ele>70.9</ele>
        <time>2019-10-11T14:28:57Z</time>
      </trkpt>
      <trkpt lat="47.10204" lon="-1.19569">
        <ele>70.9</ele>
        <time>2019-10-11T14:28:58Z</time>
      </trkpt>
      <trkpt lat="47.10206" lon="-1.19572">
        <ele>70.9</ele>
        <time>2019-10-11T14:28:59Z</time>
      </trkpt>
      <trkpt lat="47.10207" lon="-1.19575">
        <ele>70.9</ele>
        <time>2019-10-11T14:29:00Z</time>
      </trkpt>
      <trkpt lat="47.10209" lon="-1.19578">
        <ele>70.9</ele>
        <time>2019-10-11T14:29:01Z</time>
      </trkpt>
      <trkpt lat="47.10211" lon="-1.19581">
        <ele>70.9</ele>
        <time>2019-10-11T14:29:02Z</time>
      </trkpt>
      <trkpt lat="47.10213" lon="-1.19585">
        <ele>70.9</ele>
        <time>2019-10-11T14:29:03Z</time>
      </trkpt>
      <trkpt lat="47.10215" lon="-1.19588">
        <ele>70.9</ele>
        <time>2019-10-11T14:29:04Z</time>
      </trkpt>
      <trkpt lat="47.1022" lon="-1.19591">
        <ele>70.8</ele>
        <time>2019-10-11T14:29:06Z</time>
      </trkpt>
      <trkpt lat="47.10222" lon="-1.19591">
        <ele>70.8</ele>
        <time>2019-10-11T14:29:07Z</time>
      </trkpt>
      <trkpt lat="47.10225" lon="-1.19588">
        <ele>70.9</ele>
        <time>2019-10-11T14:29:08Z</time>
      </trkpt>
      <trkpt lat="47.10228" lon="-1.19586">
        <ele>70.9</ele>
        <time>2019-10-11T14:29:09Z</time>
      </trkpt>
      <trkpt lat="47.1023" lon="-1.19583">
        <ele>71</ele>
        <time>2019-10-11T14:29:10Z</time>
      </trkpt>
      <trkpt lat="47.10233" lon="-1.19581">
        <ele>71</ele>
        <time>2019-10-11T14:29:11Z</time>
      </trkpt>
      <trkpt lat="47.10235" lon="-1.19578">
        <ele>71.1</ele>
        <time>2019-10-11T14:29:12Z</time>
      </trkpt>
      <trkpt lat="47.10238" lon="-1.19575">
        <ele>71.1</ele>
        <time>2019-10-11T14:29:13Z</time>
      </trkpt>
      <trkpt lat="47.1024" lon="-1.19572">
        <ele>71.2</ele>
        <time>2019-10-11T14:29:14Z</time>
      </trkpt>
      <trkpt lat="47.10242" lon="-1.19568">
        <ele>71.2</ele>
        <time>2019-10-11T14:29:15Z</time>
      </trkpt>
      <trkpt lat="47.10244" lon="-1.19565">
        <ele>71.3</ele>
        <time>2019-10-11T14:29:16Z</time>
      </trkpt>
      <trkpt lat="47.10247" lon="-1.19562">
        <ele>71.3</ele>
        <time>2019-10-11T14:29:17Z</time>
      </trkpt>
      <trkpt lat="47.10249" lon="-1.19559">
        <ele>71.3</ele>
        <time>2019-10-11T14:29:18Z</time>
      </trkpt>
      <trkpt lat="47.10251" lon="-1.19555">
        <ele>71.4</ele>
        <time>2019-10-11T14:29:19Z</time>
      </trkpt>
      <trkpt lat="47.10254" lon="-1.19552">
        <ele>71.4</ele>
        <time>2019-10-11T14:29:20Z</time>
      </trkpt>
      <trkpt lat="47.10256" lon="-1.19549">
        <ele>71.5</ele>
        <time>2019-10-11T14:29:21Z</time>
      </trkpt>
      <trkpt lat="47.10258" lon="-1.19546">
        <ele>71.5</ele>
        <time>2019-10-11T14:29:22Z</time>
      </trkpt>
      <trkpt lat="47.10261" lon="-1.19543">
        <ele>71.5</ele>
        <time>2019-10-11T14:29:23Z</time>
      </trkpt>
      <trkpt lat="47.10263" lon="-1.19539">
        <ele>71.6</ele>
        <time>2019-10-11T14:29:24Z</time>
      </trkpt>
      <trkpt lat="47.10265" lon="-1.19536">
        <ele>71.6</ele>
        <time>2019-10-11T14:29:25Z</time>
      </trkpt>
      <trkpt lat="47.10268" lon="-1.19533">
        <ele>71.6</ele>
        <time>2019-10-11T14:29:26Z</time>
      </trkpt>
      <trkpt lat="47.1027" lon="-1.1953">
        <ele>71.6</ele>
        <time>2019-10-11T14:29:27Z</time>
      </trkpt>
      <trkpt lat="47.10272" lon="-1.19527">
        <ele>71.7</ele>
        <time>2019-10-11T14:29:28Z</time>
      </trkpt>
      <trkpt lat="47.10275" lon="-1.19523">
        <ele>71.8</ele>
        <time>2019-10-11T14:29:29Z</time>
      </trkpt>
      <trkpt lat="47.10277" lon="-1.1952">
        <ele>71.8</ele>
        <time>2019-10-11T14:29:30Z</time>
      </trkpt>
      <trkpt lat="47.10279" lon="-1.19517">
        <ele>71.8</ele>
        <time>2019-10-11T14:29:31Z</time>
      </trkpt>
      <trkpt lat="47.10282" lon="-1.19514">
        <ele>71.9</ele>
        <time>2019-10-11T14:29:32Z</time>
      </trkpt>
      <trkpt lat="47.10284" lon="-1.19511">
        <ele>71.9</ele>
        <time>2019-10-11T14:29:33Z</time>
      </trkpt>
      <trkpt lat="47.10286" lon="-1.19508">
        <ele>71.9</ele>
        <time>2019-10-11T14:29:34Z</time>
      </trkpt>
      <trkpt lat="47.10289" lon="-1.19505">
        <ele>72</ele>
        <time>2019-10-11T14:29:35Z</time>
      </trkpt>
      <trkpt lat="47.10291" lon="-1.19501">
        <ele>72</ele>
        <time>2019-10-11T14:29:36Z</time>
      </trkpt>
      <trkpt lat="47.10294" lon="-1.19498">
        <ele>72</ele>
        <time>2019-10-11T14:29:37Z</time>
      </trkpt>
      <trkpt lat="47.10296" lon="-1.19495">
        <ele>72</ele>
        <time>2019-10-11T14:29:38Z</time>
      </trkpt>
      <trkpt lat="47.10299" lon="-1.19491">
        <ele>72.1</ele>
        <time>2019-10-11T14:29:39Z</time>
      </trkpt>
      <trkpt lat="47.10301" lon="-1.19488">
        <ele>72.1</ele>
        <time>2019-10-11T14:29:40Z</time>
      </trkpt>
      <trkpt lat="47.10304" lon="-1.19484">
        <ele>72.1</ele>
        <time>2019-10-11T14:29:41Z</time>
      </trkpt>
      <trkpt lat="47.10306" lon="-1.19481">
        <ele>72.2</ele>
        <time>2019-10-11T14:29:42Z</time>
      </trkpt>
      <trkpt lat="47.1031" lon="-1.19477">
        <ele>72.2</ele>
        <time>2019-10-11T14:29:44Z</time>
      </trkpt>
      <trkpt lat="47.10313" lon="-1.19474">
        <ele>72.3</ele>
        <time>2019-10-11T14:29:45Z</time>
      </trkpt>
      <trkpt lat="47.10315" lon="-1.19471">
        <ele>72.3</ele>
        <time>2019-10-11T14:29:46Z</time>
      </trkpt>
      <trkpt lat="47.10318" lon="-1.19468">
        <ele>72.4</ele>
        <time>2019-10-11T14:29:47Z</time>
      </trkpt>
      <trkpt lat="47.1032" lon="-1.19465">
        <ele>72.4</ele>
        <time>2019-10-11T14:29:48Z</time>
      </trkpt>
      <trkpt lat="47.10323" lon="-1.19462">
        <ele>72.4</ele>
        <time>2019-10-11T14:29:49Z</time>
      </trkpt>
      <trkpt lat="47.10326" lon="-1.19459">
        <ele>72.5</ele>
        <time>2019-10-11T14:29:50Z</time>
      </trkpt>
      <trkpt lat="47.10329" lon="-1.19456">
        <ele>72.6</ele>
        <time>2019-10-11T14:29:51Z</time>
      </trkpt>
      <trkpt lat="47.10332" lon="-1.19453">
        <ele>72.6</ele>
        <time>2019-10-11T14:29:52Z</time>
      </trkpt>
      <trkpt lat="47.10335" lon="-1.1945">
        <ele>72.7</ele>
        <time>2019-10-11T14:29:53Z</time>
      </trkpt>
      <trkpt lat="47.10337" lon="-1.19447">
        <ele>72.8</ele>
        <time>2019-10-11T14:29:54Z</time>
      </trkpt>
      <trkpt lat="47.1034" lon="-1.19445">
        <ele>72.9</ele>
        <time>2019-10-11T14:29:55Z</time>
      </trkpt>
      <trkpt lat="47.10343" lon="-1.19442">
        <ele>73</ele>
        <time>2019-10-11T14:29:56Z</time>
      </trkpt>
      <trkpt lat="47.10345" lon="-1.19439">
        <ele>73</ele>
        <time>2019-10-11T14:29:57Z</time>
      </trkpt>
      <trkpt lat="47.10348" lon="-1.19436">
        <ele>73.1</ele>
        <time>2019-10-11T14:29:58Z</time>
      </trkpt>
      <trkpt lat="47.10351" lon="-1.19433">
        <ele>73.2</ele>
        <time>2019-10-11T14:29:59Z</time>
      </trkpt>
      <trkpt lat="47.10354" lon="-1.19431">
        <ele>73.3</ele>
        <time>2019-10-11T14:30:00Z</time>
      </trkpt>
      <trkpt lat="47.10356" lon="-1.19428">
        <ele>73.4</ele>
        <time>2019-10-11T14:30:01Z</time>
      </trkpt>
      <trkpt lat="47.10359" lon="-1.19425">
        <ele>73.5</ele>
        <time>2019-10-11T14:30:02Z</time>
      </trkpt>
      <trkpt lat="47.10362" lon="-1.19422">
        <ele>73.7</ele>
        <time>2019-10-11T14:30:03Z</time>
      </trkpt>
      <trkpt lat="47.10365" lon="-1.19419">
        <ele>73.8</ele>
        <time>2019-10-11T14:30:04Z</time>
      </trkpt>
      <trkpt lat="47.10367" lon="-1.19416">
        <ele>73.9</ele>
        <time>2019-10-11T14:30:05Z</time>
      </trkpt>
      <trkpt lat="47.1037" lon="-1.19413">
        <ele>74</ele>
        <time>2019-10-11T14:30:06Z</time>
      </trkpt>
      <trkpt lat="47.10372" lon="-1.1941">
        <ele>74.2</ele>
        <time>2019-10-11T14:30:07Z</time>
      </trkpt>
      <trkpt lat="47.10375" lon="-1.19407">
        <ele>74.3</ele>
        <time>2019-10-11T14:30:08Z</time>
      </trkpt>
      <trkpt lat="47.10377" lon="-1.19404">
        <ele>74.4</ele>
        <time>2019-10-11T14:30:09Z</time>
      </trkpt>
      <trkpt lat="47.1038" lon="-1.19401">
        <ele>74.5</ele>
        <time>2019-10-11T14:30:10Z</time>
      </trkpt>
      <trkpt lat="47.10382" lon="-1.19398">
        <ele>74.6</ele>
        <time>2019-10-11T14:30:11Z</time>
      </trkpt>
      <trkpt lat="47.10384" lon="-1.19395">
        <ele>74.7</ele>
        <time>2019-10-11T14:30:12Z</time>
      </trkpt>
      <trkpt lat="47.10387" lon="-1.19392">
        <ele>74.8</ele>
        <time>2019-10-11T14:30:13Z</time>
      </trkpt>
      <trkpt lat="47.10389" lon="-1.19389">
        <ele>75</ele>
        <time>2019-10-11T14:30:14Z</time>
      </trkpt>
      <trkpt lat="47.10392" lon="-1.19386">
        <ele>75.1</ele>
        <time>2019-10-11T14:30:15Z</time>
      </trkpt>
      <trkpt lat="47.10394" lon="-1.19383">
        <ele>75.2</ele>
        <time>2019-10-11T14:30:16Z</time>
      </trkpt>
      <trkpt lat="47.10397" lon="-1.1938">
        <ele>75.3</ele>
        <time>2019-10-11T14:30:17Z</time>
      </trkpt>
      <trkpt lat="47.10399" lon="-1.19378">
        <ele>75.4</ele>
        <time>2019-10-11T14:30:18Z</time>
      </trkpt>
      <trkpt lat="47.10402" lon="-1.19375">
        <ele>75.4</ele>
        <time>2019-10-11T14:30:19Z</time>
      </trkpt>
      <trkpt lat="47.10404" lon="-1.19373">
        <ele>75.4</ele>
        <time>2019-10-11T14:30:20Z</time>
      </trkpt>
      <trkpt lat="47.10407" lon="-1.1937">
        <ele>75.5</ele>
        <time>2019-10-11T14:30:21Z</time>
      </trkpt>
      <trkpt lat="47.10409" lon="-1.19368">
        <ele>75.6</ele>
        <time>2019-10-11T14:30:22Z</time>
      </trkpt>
      <trkpt lat="47.10411" lon="-1.19365">
        <ele>75.6</ele>
        <time>2019-10-11T14:30:23Z</time>
      </trkpt>
      <trkpt lat="47.10413" lon="-1.19361">
        <ele>75.6</ele>
        <time>2019-10-11T14:30:24Z</time>
      </trkpt>
      <trkpt lat="47.10414" lon="-1.19357">
        <ele>75.7</ele>
        <time>2019-10-11T14:30:25Z</time>
      </trkpt>
      <trkpt lat="47.10414" lon="-1.19352">
        <ele>75.7</ele>
        <time>2019-10-11T14:30:26Z</time>
      </trkpt>
      <trkpt lat="47.10413" lon="-1.19348">
        <ele>75.7</ele>
        <time>2019-10-11T14:30:27Z</time>
      </trkpt>
      <trkpt lat="47.10412" lon="-1.19343">
        <ele>75.7</ele>
        <time>2019-10-11T14:30:28Z</time>
      </trkpt>
      <trkpt lat="47.1041" lon="-1.19339">
        <ele>75.6</ele>
        <time>2019-10-11T14:30:29Z</time>
      </trkpt>
      <trkpt lat="47.10409" lon="-1.19335">
        <ele>75.7</ele>
        <time>2019-10-11T14:30:30Z</time>
      </trkpt>
      <trkpt lat="47.10407" lon="-1.19331">
        <ele>75.6</ele>
        <time>2019-10-11T14:30:31Z</time>
      </trkpt>
      <trkpt lat="47.10405" lon="-1.19327">
        <ele>75.6</ele>
        <time>2019-10-11T14:30:32Z</time>
      </trkpt>
      <trkpt lat="47.10403" lon="-1.19322">
        <ele>75.6</ele>
        <time>2019-10-11T14:30:33Z</time>
      </trkpt>
      <trkpt lat="47.10401" lon="-1.19318">
        <ele>75.6</ele>
        <time>2019-10-11T14:30:34Z</time>
      </trkpt>
      <trkpt lat="47.104" lon="-1.19315">
        <ele>75.7</ele>
        <time>2019-10-11T14:30:35Z</time>
      </trkpt>
      <trkpt lat="47.10398" lon="-1.19311">
        <ele>75.7</ele>
        <time>2019-10-11T14:30:36Z</time>
      </trkpt>
      <trkpt lat="47.10396" lon="-1.19307">
        <ele>75.7</ele>
        <time>2019-10-11T14:30:37Z</time>
      </trkpt>
      <trkpt lat="47.10394" lon="-1.19303">
        <ele>75.6</ele>
        <time>2019-10-11T14:30:38Z</time>
      </trkpt>
      <trkpt lat="47.10393" lon="-1.19299">
        <ele>75.6</ele>
        <time>2019-10-11T14:30:39Z</time>
      </trkpt>
      <trkpt lat="47.10392" lon="-1.19295">
        <ele>75.6</ele>
        <time>2019-10-11T14:30:40Z</time>
      </trkpt>
      <trkpt lat="47.10391" lon="-1.1929">
        <ele>75.6</ele>
        <time>2019-10-11T14:30:41Z</time>
      </trkpt>
      <trkpt lat="47.10392" lon="-1.19286">
        <ele>75.6</ele>
        <time>2019-10-11T14:30:42Z</time>
      </trkpt>
      <trkpt lat="47.10393" lon="-1.19281">
        <ele>75.6</ele>
        <time>2019-10-11T14:30:43Z</time>
      </trkpt>
      <trkpt lat="47.10395" lon="-1.19278">
        <ele>75.7</ele>
        <time>2019-10-11T14:30:44Z</time>
      </trkpt>
      <trkpt lat="47.10398" lon="-1.19275">
        <ele>75.7</ele>
        <time>2019-10-11T14:30:45Z</time>
      </trkpt>
      <trkpt lat="47.10401" lon="-1.19272">
        <ele>75.8</ele>
        <time>2019-10-11T14:30:46Z</time>
      </trkpt>
      <trkpt lat="47.10404" lon="-1.19269">
        <ele>75.8</ele>
        <time>2019-10-11T14:30:47Z</time>
      </trkpt>
      <trkpt lat="47.10407" lon="-1.19266">
        <ele>75.9</ele>
        <time>2019-10-11T14:30:48Z</time>
      </trkpt>
      <trkpt lat="47.1041" lon="-1.19263">
        <ele>75.9</ele>
        <time>2019-10-11T14:30:49Z</time>
      </trkpt>
      <trkpt lat="47.10413" lon="-1.1926">
        <ele>76</ele>
        <time>2019-10-11T14:30:50Z</time>
      </trkpt>
      <trkpt lat="47.10416" lon="-1.19257">
        <ele>76.1</ele>
        <time>2019-10-11T14:30:51Z</time>
      </trkpt>
      <trkpt lat="47.10418" lon="-1.19255">
        <ele>76.1</ele>
        <time>2019-10-11T14:30:52Z</time>
      </trkpt>
      <trkpt lat="47.10421" lon="-1.19253">
        <ele>76.2</ele>
        <time>2019-10-11T14:30:53Z</time>
      </trkpt>
      <trkpt lat="47.10424" lon="-1.1925">
        <ele>76.2</ele>
        <time>2019-10-11T14:30:54Z</time>
      </trkpt>
      <trkpt lat="47.10427" lon="-1.19248">
        <ele>76.3</ele>
        <time>2019-10-11T14:30:55Z</time>
      </trkpt>
      <trkpt lat="47.1043" lon="-1.19245">
        <ele>76.3</ele>
        <time>2019-10-11T14:30:56Z</time>
      </trkpt>
      <trkpt lat="47.10433" lon="-1.19242">
        <ele>76.4</ele>
        <time>2019-10-11T14:30:57Z</time>
      </trkpt>
      <trkpt lat="47.10436" lon="-1.19238">
        <ele>76.5</ele>
        <time>2019-10-11T14:30:58Z</time>
      </trkpt>
      <trkpt lat="47.10439" lon="-1.19235">
        <ele>76.6</ele>
        <time>2019-10-11T14:30:59Z</time>
      </trkpt>
      <trkpt lat="47.10442" lon="-1.19233">
        <ele>76.6</ele>
        <time>2019-10-11T14:31:00Z</time>
      </trkpt>
      <trkpt lat="47.10445" lon="-1.1923">
        <ele>76.7</ele>
        <time>2019-10-11T14:31:01Z</time>
      </trkpt>
      <trkpt lat="47.10448" lon="-1.19227">
        <ele>76.8</ele>
        <time>2019-10-11T14:31:02Z</time>
      </trkpt>
      <trkpt lat="47.10451" lon="-1.19224">
        <ele>76.9</ele>
        <time>2019-10-11T14:31:03Z</time>
      </trkpt>
      <trkpt lat="47.10454" lon="-1.19221">
        <ele>77</ele>
        <time>2019-10-11T14:31:04Z</time>
      </trkpt>
      <trkpt lat="47.10457" lon="-1.19218">
        <ele>77.1</ele>
        <time>2019-10-11T14:31:05Z</time>
      </trkpt>
      <trkpt lat="47.1046" lon="-1.19215">
        <ele>77.2</ele>
        <time>2019-10-11T14:31:06Z</time>
      </trkpt>
      <trkpt lat="47.10463" lon="-1.19212">
        <ele>77.3</ele>
        <time>2019-10-11T14:31:07Z</time>
      </trkpt>
      <trkpt lat="47.10466" lon="-1.19208">
        <ele>77.5</ele>
        <time>2019-10-11T14:31:08Z</time>
      </trkpt>
      <trkpt lat="47.10468" lon="-1.19204">
        <ele>77.6</ele>
        <time>2019-10-11T14:31:09Z</time>
      </trkpt>
      <trkpt lat="47.10471" lon="-1.19201">
        <ele>77.7</ele>
        <time>2019-10-11T14:31:10Z</time>
      </trkpt>
      <trkpt lat="47.10474" lon="-1.19198">
        <ele>77.8</ele>
        <time>2019-10-11T14:31:11Z</time>
      </trkpt>
      <trkpt lat="47.10476" lon="-1.19195">
        <ele>77.9</ele>
        <time>2019-10-11T14:31:12Z</time>
      </trkpt>
      <trkpt lat="47.10479" lon="-1.19192">
        <ele>78.1</ele>
        <time>2019-10-11T14:31:13Z</time>
      </trkpt>
      <trkpt lat="47.10481" lon="-1.19189">
        <ele>78.2</ele>
        <time>2019-10-11T14:31:14Z</time>
      </trkpt>
      <trkpt lat="47.10484" lon="-1.19185">
        <ele>78.2</ele>
        <time>2019-10-11T14:31:15Z</time>
      </trkpt>
      <trkpt lat="47.10487" lon="-1.19182">
        <ele>78.4</ele>
        <time>2019-10-11T14:31:16Z</time>
      </trkpt>
      <trkpt lat="47.10489" lon="-1.19179">
        <ele>78.5</ele>
        <time>2019-10-11T14:31:17Z</time>
      </trkpt>
      <trkpt lat="47.10492" lon="-1.19175">
        <ele>78.6</ele>
        <time>2019-10-11T14:31:18Z</time>
      </trkpt>
      <trkpt lat="47.10494" lon="-1.19172">
        <ele>78.7</ele>
        <time>2019-10-11T14:31:19Z</time>
      </trkpt>
      <trkpt lat="47.10497" lon="-1.19169">
        <ele>78.8</ele>
        <time>2019-10-11T14:31:20Z</time>
      </trkpt>
      <trkpt lat="47.10499" lon="-1.19166">
        <ele>78.9</ele>
        <time>2019-10-11T14:31:21Z</time>
      </trkpt>
      <trkpt lat="47.10502" lon="-1.19163">
        <ele>79</ele>
        <time>2019-10-11T14:31:22Z</time>
      </trkpt>
      <trkpt lat="47.10505" lon="-1.1916">
        <ele>79.1</ele>
        <time>2019-10-11T14:31:23Z</time>
      </trkpt>
      <trkpt lat="47.10507" lon="-1.19157">
        <ele>79.2</ele>
        <time>2019-10-11T14:31:24Z</time>
      </trkpt>
      <trkpt lat="47.10509" lon="-1.19154">
        <ele>79.3</ele>
        <time>2019-10-11T14:31:25Z</time>
      </trkpt>
      <trkpt lat="47.10511" lon="-1.1915">
        <ele>79.3</ele>
        <time>2019-10-11T14:31:26Z</time>
      </trkpt>
      <trkpt lat="47.10514" lon="-1.19147">
        <ele>79.4</ele>
        <time>2019-10-11T14:31:27Z</time>
      </trkpt>
      <trkpt lat="47.10516" lon="-1.19144">
        <ele>79.6</ele>
        <time>2019-10-11T14:31:28Z</time>
      </trkpt>
      <trkpt lat="47.10518" lon="-1.19141">
        <ele>79.6</ele>
        <time>2019-10-11T14:31:29Z</time>
      </trkpt>
      <trkpt lat="47.10521" lon="-1.19138">
        <ele>79.7</ele>
        <time>2019-10-11T14:31:30Z</time>
      </trkpt>
      <trkpt lat="47.10523" lon="-1.19134">
        <ele>79.8</ele>
        <time>2019-10-11T14:31:31Z</time>
      </trkpt>
      <trkpt lat="47.10525" lon="-1.19132">
        <ele>79.9</ele>
        <time>2019-10-11T14:31:32Z</time>
      </trkpt>
      <trkpt lat="47.10528" lon="-1.19129">
        <ele>80</ele>
        <time>2019-10-11T14:31:33Z</time>
      </trkpt>
      <trkpt lat="47.1053" lon="-1.19126">
        <ele>80</ele>
        <time>2019-10-11T14:31:34Z</time>
      </trkpt>
      <trkpt lat="47.10532" lon="-1.19123">
        <ele>80.2</ele>
        <time>2019-10-11T14:31:35Z</time>
      </trkpt>
      <trkpt lat="47.10534" lon="-1.19119">
        <ele>80.3</ele>
        <time>2019-10-11T14:31:36Z</time>
      </trkpt>
      <trkpt lat="47.10536" lon="-1.19116">
        <ele>80.4</ele>
        <time>2019-10-11T14:31:37Z</time>
      </trkpt>
      <trkpt lat="47.10539" lon="-1.19113">
        <ele>80.5</ele>
        <time>2019-10-11T14:31:38Z</time>
      </trkpt>
      <trkpt lat="47.10541" lon="-1.1911">
        <ele>80.6</ele>
        <time>2019-10-11T14:31:39Z</time>
      </trkpt>
      <trkpt lat="47.10543" lon="-1.19107">
        <ele>80.7</ele>
        <time>2019-10-11T14:31:40Z</time>
      </trkpt>
      <trkpt lat="47.10546" lon="-1.19104">
        <ele>80.8</ele>
        <time>2019-10-11T14:31:41Z</time>
      </trkpt>
      <trkpt lat="47.10548" lon="-1.19101">
        <ele>80.9</ele>
        <time>2019-10-11T14:31:42Z</time>
      </trkpt>
      <trkpt lat="47.1055" lon="-1.19098">
        <ele>81</ele>
        <time>2019-10-11T14:31:43Z</time>
      </trkpt>
      <trkpt lat="47.10553" lon="-1.19095">
        <ele>81.1</ele>
        <time>2019-10-11T14:31:44Z</time>
      </trkpt>
      <trkpt lat="47.10555" lon="-1.19092">
        <ele>81.3</ele>
        <time>2019-10-11T14:31:45Z</time>
      </trkpt>
      <trkpt lat="47.10558" lon="-1.19089">
        <ele>81.4</ele>
        <time>2019-10-11T14:31:46Z</time>
      </trkpt>
      <trkpt lat="47.1056" lon="-1.19086">
        <ele>81.5</ele>
        <time>2019-10-11T14:31:47Z</time>
      </trkpt>
      <trkpt lat="47.10563" lon="-1.19083">
        <ele>81.6</ele>
        <time>2019-10-11T14:31:48Z</time>
      </trkpt>
      <trkpt lat="47.10567" lon="-1.19079">
        <ele>81.8</ele>
        <time>2019-10-11T14:31:50Z</time>
      </trkpt>
      <trkpt lat="47.10569" lon="-1.19077">
        <ele>81.9</ele>
        <time>2019-10-11T14:31:51Z</time>
      </trkpt>
      <trkpt lat="47.10572" lon="-1.19074">
        <ele>82</ele>
        <time>2019-10-11T14:31:52Z</time>
      </trkpt>
      <trkpt lat="47.10575" lon="-1.19071">
        <ele>82.1</ele>
        <time>2019-10-11T14:31:53Z</time>
      </trkpt>
      <trkpt lat="47.10577" lon="-1.19069">
        <ele>82.2</ele>
        <time>2019-10-11T14:31:54Z</time>
      </trkpt>
      <trkpt lat="47.1058" lon="-1.19066">
        <ele>82.3</ele>
        <time>2019-10-11T14:31:55Z</time>
      </trkpt>
      <trkpt lat="47.10583" lon="-1.19063">
        <ele>82.4</ele>
        <time>2019-10-11T14:31:56Z</time>
      </trkpt>
      <trkpt lat="47.10586" lon="-1.1906">
        <ele>82.5</ele>
        <time>2019-10-11T14:31:57Z</time>
      </trkpt>
      <trkpt lat="47.10588" lon="-1.19057">
        <ele>82.6</ele>
        <time>2019-10-11T14:31:58Z</time>
      </trkpt>
      <trkpt lat="47.10591" lon="-1.19054">
        <ele>82.7</ele>
        <time>2019-10-11T14:31:59Z</time>
      </trkpt>
      <trkpt lat="47.10594" lon="-1.19051">
        <ele>82.8</ele>
        <time>2019-10-11T14:32:00Z</time>
      </trkpt>
      <trkpt lat="47.10596" lon="-1.19049">
        <ele>82.8</ele>
        <time>2019-10-11T14:32:01Z</time>
      </trkpt>
      <trkpt lat="47.10599" lon="-1.19046">
        <ele>82.9</ele>
        <time>2019-10-11T14:32:02Z</time>
      </trkpt>
      <trkpt lat="47.10601" lon="-1.19044">
        <ele>82.9</ele>
        <time>2019-10-11T14:32:03Z</time>
      </trkpt>
      <trkpt lat="47.10604" lon="-1.19041">
        <ele>83</ele>
        <time>2019-10-11T14:32:04Z</time>
      </trkpt>
      <trkpt lat="47.10606" lon="-1.19038">
        <ele>83.1</ele>
        <time>2019-10-11T14:32:05Z</time>
      </trkpt>
      <trkpt lat="47.10609" lon="-1.19035">
        <ele>83.1</ele>
        <time>2019-10-11T14:32:06Z</time>
      </trkpt>
      <trkpt lat="47.10611" lon="-1.19032">
        <ele>83.2</ele>
        <time>2019-10-11T14:32:07Z</time>
      </trkpt>
      <trkpt lat="47.10613" lon="-1.19029">
        <ele>83.2</ele>
        <time>2019-10-11T14:32:08Z</time>
      </trkpt>
      <trkpt lat="47.10616" lon="-1.19026">
        <ele>83.2</ele>
        <time>2019-10-11T14:32:09Z</time>
      </trkpt>
      <trkpt lat="47.10618" lon="-1.19023">
        <ele>83.3</ele>
        <time>2019-10-11T14:32:10Z</time>
      </trkpt>
      <trkpt lat="47.10621" lon="-1.19019">
        <ele>83.4</ele>
        <time>2019-10-11T14:32:11Z</time>
      </trkpt>
      <trkpt lat="47.10623" lon="-1.19016">
        <ele>83.4</ele>
        <time>2019-10-11T14:32:12Z</time>
      </trkpt>
      <trkpt lat="47.10625" lon="-1.19014">
        <ele>83.4</ele>
        <time>2019-10-11T14:32:13Z</time>
      </trkpt>
      <trkpt lat="47.10627" lon="-1.19011">
        <ele>83.4</ele>
        <time>2019-10-11T14:32:14Z</time>
      </trkpt>
      <trkpt lat="47.1063" lon="-1.19008">
        <ele>83.5</ele>
        <time>2019-10-11T14:32:15Z</time>
      </trkpt>
      <trkpt lat="47.10632" lon="-1.19005">
        <ele>83.5</ele>
        <time>2019-10-11T14:32:16Z</time>
      </trkpt>
      <trkpt lat="47.10634" lon="-1.19002">
        <ele>83.5</ele>
        <time>2019-10-11T14:32:17Z</time>
      </trkpt>
      <trkpt lat="47.10637" lon="-1.18999">
        <ele>83.5</ele>
        <time>2019-10-11T14:32:18Z</time>
      </trkpt>
      <trkpt lat="47.10639" lon="-1.18996">
        <ele>83.5</ele>
        <time>2019-10-11T14:32:19Z</time>
      </trkpt>
      <trkpt lat="47.10641" lon="-1.18993">
        <ele>83.5</ele>
        <time>2019-10-11T14:32:20Z</time>
      </trkpt>
      <trkpt lat="47.10644" lon="-1.1899">
        <ele>83.6</ele>
        <time>2019-10-11T14:32:21Z</time>
      </trkpt>
      <trkpt lat="47.10646" lon="-1.18986">
        <ele>83.6</ele>
        <time>2019-10-11T14:32:22Z</time>
      </trkpt>
      <trkpt lat="47.10649" lon="-1.18983">
        <ele>83.6</ele>
        <time>2019-10-11T14:32:23Z</time>
      </trkpt>
      <trkpt lat="47.10651" lon="-1.18979">
        <ele>83.5</ele>
        <time>2019-10-11T14:32:24Z</time>
      </trkpt>
      <trkpt lat="47.10654" lon="-1.18976">
        <ele>83.5</ele>
        <time>2019-10-11T14:32:25Z</time>
      </trkpt>
      <trkpt lat="47.10656" lon="-1.18974">
        <ele>83.6</ele>
        <time>2019-10-11T14:32:26Z</time>
      </trkpt>
      <trkpt lat="47.10658" lon="-1.18971">
        <ele>83.5</ele>
        <time>2019-10-11T14:32:27Z</time>
      </trkpt>
      <trkpt lat="47.1066" lon="-1.18968">
        <ele>83.5</ele>
        <time>2019-10-11T14:32:28Z</time>
      </trkpt>
      <trkpt lat="47.10663" lon="-1.18965">
        <ele>83.5</ele>
        <time>2019-10-11T14:32:29Z</time>
      </trkpt>
      <trkpt lat="47.10665" lon="-1.18961">
        <ele>83.5</ele>
        <time>2019-10-11T14:32:30Z</time>
      </trkpt>
      <trkpt lat="47.10667" lon="-1.18958">
        <ele>83.5</ele>
        <time>2019-10-11T14:32:31Z</time>
      </trkpt>
      <trkpt lat="47.10669" lon="-1.18956">
        <ele>83.5</ele>
        <time>2019-10-11T14:32:32Z</time>
      </trkpt>
      <trkpt lat="47.10672" lon="-1.18953">
        <ele>83.4</ele>
        <time>2019-10-11T14:32:33Z</time>
      </trkpt>
      <trkpt lat="47.10675" lon="-1.18948">
        <ele>83.4</ele>
        <time>2019-10-11T14:32:35Z</time>
      </trkpt>
      <trkpt lat="47.10678" lon="-1.18943">
        <ele>83.4</ele>
        <time>2019-10-11T14:32:37Z</time>
      </trkpt>
      <trkpt lat="47.10679" lon="-1.18938">
        <ele>83.3</ele>
        <time>2019-10-11T14:32:38Z</time>
      </trkpt>
      <trkpt lat="47.10679" lon="-1.18934">
        <ele>83.3</ele>
        <time>2019-10-11T14:32:39Z</time>
      </trkpt>
      <trkpt lat="47.10678" lon="-1.18929">
        <ele>83.3</ele>
        <time>2019-10-11T14:32:40Z</time>
      </trkpt>
      <trkpt lat="47.10676" lon="-1.18924">
        <ele>83.3</ele>
        <time>2019-10-11T14:32:41Z</time>
      </trkpt>
      <trkpt lat="47.10674" lon="-1.1892">
        <ele>83.3</ele>
        <time>2019-10-11T14:32:42Z</time>
      </trkpt>
      <trkpt lat="47.10672" lon="-1.18915">
        <ele>83.3</ele>
        <time>2019-10-11T14:32:43Z</time>
      </trkpt>
      <trkpt lat="47.1067" lon="-1.1891">
        <ele>83.3</ele>
        <time>2019-10-11T14:32:44Z</time>
      </trkpt>
      <trkpt lat="47.10669" lon="-1.18906">
        <ele>83.3</ele>
        <time>2019-10-11T14:32:45Z</time>
      </trkpt>
      <trkpt lat="47.10667" lon="-1.18902">
        <ele>83.3</ele>
        <time>2019-10-11T14:32:46Z</time>
      </trkpt>
      <trkpt lat="47.10666" lon="-1.18898">
        <ele>83.3</ele>
        <time>2019-10-11T14:32:47Z</time>
      </trkpt>
      <trkpt lat="47.10665" lon="-1.18893">
        <ele>83.3</ele>
        <time>2019-10-11T14:32:48Z</time>
      </trkpt>
      <trkpt lat="47.10664" lon="-1.18889">
        <ele>83.3</ele>
        <time>2019-10-11T14:32:49Z</time>
      </trkpt>
      <trkpt lat="47.10665" lon="-1.18884">
        <ele>83.2</ele>
        <time>2019-10-11T14:32:50Z</time>
      </trkpt>
      <trkpt lat="47.10668" lon="-1.18881">
        <ele>83.2</ele>
        <time>2019-10-11T14:32:51Z</time>
      </trkpt>
      <trkpt lat="47.1067" lon="-1.18879">
        <ele>83.2</ele>
        <time>2019-10-11T14:32:52Z</time>
      </trkpt>
      <trkpt lat="47.10674" lon="-1.18877">
        <ele>83.2</ele>
        <time>2019-10-11T14:32:53Z</time>
      </trkpt>
      <trkpt lat="47.10677" lon="-1.18875">
        <ele>83.2</ele>
        <time>2019-10-11T14:32:54Z</time>
      </trkpt>
      <trkpt lat="47.1068" lon="-1.18872">
        <ele>83.2</ele>
        <time>2019-10-11T14:32:55Z</time>
      </trkpt>
      <trkpt lat="47.10683" lon="-1.1887">
        <ele>83.2</ele>
        <time>2019-10-11T14:32:56Z</time>
      </trkpt>
      <trkpt lat="47.10686" lon="-1.18869">
        <ele>83.2</ele>
        <time>2019-10-11T14:32:57Z</time>
      </trkpt>
      <trkpt lat="47.10689" lon="-1.18867">
        <ele>83.2</ele>
        <time>2019-10-11T14:32:58Z</time>
      </trkpt>
      <trkpt lat="47.10692" lon="-1.18865">
        <ele>83.2</ele>
        <time>2019-10-11T14:32:59Z</time>
      </trkpt>
      <trkpt lat="47.10695" lon="-1.18863">
        <ele>83.2</ele>
        <time>2019-10-11T14:33:00Z</time>
      </trkpt>
      <trkpt lat="47.10699" lon="-1.18861">
        <ele>83.2</ele>
        <time>2019-10-11T14:33:01Z</time>
      </trkpt>
      <trkpt lat="47.10702" lon="-1.18859">
        <ele>83.2</ele>
        <time>2019-10-11T14:33:02Z</time>
      </trkpt>
      <trkpt lat="47.10705" lon="-1.18857">
        <ele>83.2</ele>
        <time>2019-10-11T14:33:03Z</time>
      </trkpt>
      <trkpt lat="47.10709" lon="-1.18855">
        <ele>83.2</ele>
        <time>2019-10-11T14:33:04Z</time>
      </trkpt>
      <trkpt lat="47.10712" lon="-1.18853">
        <ele>83.2</ele>
        <time>2019-10-11T14:33:05Z</time>
      </trkpt>
      <trkpt lat="47.10716" lon="-1.18851">
        <ele>83.2</ele>
        <time>2019-10-11T14:33:06Z</time>
      </trkpt>
      <trkpt lat="47.1072" lon="-1.18849">
        <ele>83.2</ele>
        <time>2019-10-11T14:33:07Z</time>
      </trkpt>
      <trkpt lat="47.10723" lon="-1.18847">
        <ele>83.2</ele>
        <time>2019-10-11T14:33:08Z</time>
      </trkpt>
      <trkpt lat="47.10727" lon="-1.18845">
        <ele>83.2</ele>
        <time>2019-10-11T14:33:09Z</time>
      </trkpt>
      <trkpt lat="47.10731" lon="-1.18843">
        <ele>83.2</ele>
        <time>2019-10-11T14:33:10Z</time>
      </trkpt>
      <trkpt lat="47.10734" lon="-1.18841">
        <ele>83.2</ele>
        <time>2019-10-11T14:33:11Z</time>
      </trkpt>
      <trkpt lat="47.10738" lon="-1.18839">
        <ele>83.2</ele>
        <time>2019-10-11T14:33:12Z</time>
      </trkpt>
      <trkpt lat="47.10741" lon="-1.18837">
        <ele>83.2</ele>
        <time>2019-10-11T14:33:13Z</time>
      </trkpt>
      <trkpt lat="47.10745" lon="-1.18834">
        <ele>83.3</ele>
        <time>2019-10-11T14:33:14Z</time>
      </trkpt>
      <trkpt lat="47.10749" lon="-1.18832">
        <ele>83.3</ele>
        <time>2019-10-11T14:33:15Z</time>
      </trkpt>
      <trkpt lat="47.10752" lon="-1.18829">
        <ele>83.3</ele>
        <time>2019-10-11T14:33:16Z</time>
      </trkpt>
      <trkpt lat="47.10756" lon="-1.18827">
        <ele>83.3</ele>
        <time>2019-10-11T14:33:17Z</time>
      </trkpt>
      <trkpt lat="47.10759" lon="-1.18825">
        <ele>83.3</ele>
        <time>2019-10-11T14:33:18Z</time>
      </trkpt>
      <trkpt lat="47.10763" lon="-1.18822">
        <ele>83.3</ele>
        <time>2019-10-11T14:33:19Z</time>
      </trkpt>
      <trkpt lat="47.10766" lon="-1.18819">
        <ele>83.3</ele>
        <time>2019-10-11T14:33:20Z</time>
      </trkpt>
      <trkpt lat="47.10769" lon="-1.18816">
        <ele>83.4</ele>
        <time>2019-10-11T14:33:21Z</time>
      </trkpt>
      <trkpt lat="47.10773" lon="-1.18813">
        <ele>83.4</ele>
        <time>2019-10-11T14:33:22Z</time>
      </trkpt>
      <trkpt lat="47.10777" lon="-1.1881">
        <ele>83.4</ele>
        <time>2019-10-11T14:33:23Z</time>
      </trkpt>
      <trkpt lat="47.1078" lon="-1.18807">
        <ele>83.4</ele>
        <time>2019-10-11T14:33:24Z</time>
      </trkpt>
      <trkpt lat="47.10784" lon="-1.18804">
        <ele>83.4</ele>
        <time>2019-10-11T14:33:25Z</time>
      </trkpt>
      <trkpt lat="47.10787" lon="-1.18802">
        <ele>83.4</ele>
        <time>2019-10-11T14:33:26Z</time>
      </trkpt>
      <trkpt lat="47.1079" lon="-1.18799">
        <ele>83.4</ele>
        <time>2019-10-11T14:33:27Z</time>
      </trkpt>
      <trkpt lat="47.10793" lon="-1.18796">
        <ele>83.4</ele>
        <time>2019-10-11T14:33:28Z</time>
      </trkpt>
      <trkpt lat="47.10797" lon="-1.18794">
        <ele>83.4</ele>
        <time>2019-10-11T14:33:29Z</time>
      </trkpt>
      <trkpt lat="47.108" lon="-1.1879">
        <ele>83.4</ele>
        <time>2019-10-11T14:33:30Z</time>
      </trkpt>
      <trkpt lat="47.10804" lon="-1.18787">
        <ele>83.4</ele>
        <time>2019-10-11T14:33:31Z</time>
      </trkpt>
      <trkpt lat="47.10807" lon="-1.18785">
        <ele>83.4</ele>
        <time>2019-10-11T14:33:32Z</time>
      </trkpt>
      <trkpt lat="47.10811" lon="-1.18782">
        <ele>83.4</ele>
        <time>2019-10-11T14:33:33Z</time>
      </trkpt>
      <trkpt lat="47.10815" lon="-1.18779">
        <ele>83.4</ele>
        <time>2019-10-11T14:33:34Z</time>
      </trkpt>
      <trkpt lat="47.10818" lon="-1.18776">
        <ele>83.3</ele>
        <time>2019-10-11T14:33:35Z</time>
      </trkpt>
      <trkpt lat="47.10822" lon="-1.18773">
        <ele>83.3</ele>
        <time>2019-10-11T14:33:36Z</time>
      </trkpt>
      <trkpt lat="47.10825" lon="-1.1877">
        <ele>83.3</ele>
        <time>2019-10-11T14:33:37Z</time>
      </trkpt>
      <trkpt lat="47.10829" lon="-1.18767">
        <ele>83.3</ele>
        <time>2019-10-11T14:33:38Z</time>
      </trkpt>
      <trkpt lat="47.10833" lon="-1.18764">
        <ele>83.3</ele>
        <time>2019-10-11T14:33:39Z</time>
      </trkpt>
      <trkpt lat="47.10837" lon="-1.18761">
        <ele>83.3</ele>
        <time>2019-10-11T14:33:40Z</time>
      </trkpt>
      <trkpt lat="47.10841" lon="-1.18758">
        <ele>83.2</ele>
        <time>2019-10-11T14:33:41Z</time>
      </trkpt>
      <trkpt lat="47.10844" lon="-1.18755">
        <ele>83.2</ele>
        <time>2019-10-11T14:33:42Z</time>
      </trkpt>
      <trkpt lat="47.10848" lon="-1.18752">
        <ele>83.2</ele>
        <time>2019-10-11T14:33:43Z</time>
      </trkpt>
      <trkpt lat="47.10851" lon="-1.18749">
        <ele>83.2</ele>
        <time>2019-10-11T14:33:44Z</time>
      </trkpt>
      <trkpt lat="47.10855" lon="-1.18746">
        <ele>83.2</ele>
        <time>2019-10-11T14:33:45Z</time>
      </trkpt>
      <trkpt lat="47.10859" lon="-1.18743">
        <ele>83.2</ele>
        <time>2019-10-11T14:33:46Z</time>
      </trkpt>
      <trkpt lat="47.10863" lon="-1.1874">
        <ele>83.2</ele>
        <time>2019-10-11T14:33:47Z</time>
      </trkpt>
      <trkpt lat="47.10867" lon="-1.18737">
        <ele>83.2</ele>
        <time>2019-10-11T14:33:48Z</time>
      </trkpt>
      <trkpt lat="47.10871" lon="-1.18734">
        <ele>83.2</ele>
        <time>2019-10-11T14:33:49Z</time>
      </trkpt>
      <trkpt lat="47.10875" lon="-1.1873">
        <ele>83.2</ele>
        <time>2019-10-11T14:33:50Z</time>
      </trkpt>
      <trkpt lat="47.10879" lon="-1.18727">
        <ele>83.2</ele>
        <time>2019-10-11T14:33:51Z</time>
      </trkpt>
      <trkpt lat="47.10882" lon="-1.18724">
        <ele>83.1</ele>
        <time>2019-10-11T14:33:52Z</time>
      </trkpt>
      <trkpt lat="47.10886" lon="-1.18721">
        <ele>83.1</ele>
        <time>2019-10-11T14:33:53Z</time>
      </trkpt>
      <trkpt lat="47.1089" lon="-1.18718">
        <ele>83.1</ele>
        <time>2019-10-11T14:33:54Z</time>
      </trkpt>
      <trkpt lat="47.10894" lon="-1.18715">
        <ele>83.1</ele>
        <time>2019-10-11T14:33:55Z</time>
      </trkpt>
      <trkpt lat="47.10899" lon="-1.18712">
        <ele>83</ele>
        <time>2019-10-11T14:33:56Z</time>
      </trkpt>
      <trkpt lat="47.10903" lon="-1.18709">
        <ele>83</ele>
        <time>2019-10-11T14:33:57Z</time>
      </trkpt>
      <trkpt lat="47.10907" lon="-1.18706">
        <ele>83</ele>
        <time>2019-10-11T14:33:58Z</time>
      </trkpt>
      <trkpt lat="47.10911" lon="-1.18703">
        <ele>83</ele>
        <time>2019-10-11T14:33:59Z</time>
      </trkpt>
      <trkpt lat="47.10915" lon="-1.187">
        <ele>82.9</ele>
        <time>2019-10-11T14:34:00Z</time>
      </trkpt>
      <trkpt lat="47.10919" lon="-1.18697">
        <ele>82.9</ele>
        <time>2019-10-11T14:34:01Z</time>
      </trkpt>
      <trkpt lat="47.10922" lon="-1.18694">
        <ele>82.9</ele>
        <time>2019-10-11T14:34:02Z</time>
      </trkpt>
      <trkpt lat="47.10926" lon="-1.18691">
        <ele>82.9</ele>
        <time>2019-10-11T14:34:03Z</time>
      </trkpt>
      <trkpt lat="47.10931" lon="-1.18688">
        <ele>82.9</ele>
        <time>2019-10-11T14:34:04Z</time>
      </trkpt>
      <trkpt lat="47.10935" lon="-1.18685">
        <ele>82.8</ele>
        <time>2019-10-11T14:34:05Z</time>
      </trkpt>
      <trkpt lat="47.10939" lon="-1.18682">
        <ele>82.8</ele>
        <time>2019-10-11T14:34:06Z</time>
      </trkpt>
      <trkpt lat="47.10943" lon="-1.18679">
        <ele>82.8</ele>
        <time>2019-10-11T14:34:07Z</time>
      </trkpt>
      <trkpt lat="47.10947" lon="-1.18676">
        <ele>82.8</ele>
        <time>2019-10-11T14:34:08Z</time>
      </trkpt>
      <trkpt lat="47.10951" lon="-1.18673">
        <ele>82.7</ele>
        <time>2019-10-11T14:34:09Z</time>
      </trkpt>
      <trkpt lat="47.10956" lon="-1.1867">
        <ele>82.7</ele>
        <time>2019-10-11T14:34:10Z</time>
      </trkpt>
      <trkpt lat="47.1096" lon="-1.18667">
        <ele>82.7</ele>
        <time>2019-10-11T14:34:11Z</time>
      </trkpt>
      <trkpt lat="47.10964" lon="-1.18664">
        <ele>82.7</ele>
        <time>2019-10-11T14:34:12Z</time>
      </trkpt>
      <trkpt lat="47.10968" lon="-1.18661">
        <ele>82.6</ele>
        <time>2019-10-11T14:34:13Z</time>
      </trkpt>
      <trkpt lat="47.10972" lon="-1.18658">
        <ele>82.6</ele>
        <time>2019-10-11T14:34:14Z</time>
      </trkpt>
      <trkpt lat="47.10976" lon="-1.18655">
        <ele>82.5</ele>
        <time>2019-10-11T14:34:15Z</time>
      </trkpt>
      <trkpt lat="47.1098" lon="-1.18651">
        <ele>82.5</ele>
        <time>2019-10-11T14:34:16Z</time>
      </trkpt>
      <trkpt lat="47.10984" lon="-1.18648">
        <ele>82.4</ele>
        <time>2019-10-11T14:34:17Z</time>
      </trkpt>
      <trkpt lat="47.10988" lon="-1.18645">
        <ele>82.4</ele>
        <time>2019-10-11T14:34:18Z</time>
      </trkpt>
      <trkpt lat="47.10992" lon="-1.18642">
        <ele>82.4</ele>
        <time>2019-10-11T14:34:19Z</time>
      </trkpt>
      <trkpt lat="47.10996" lon="-1.18639">
        <ele>82.3</ele>
        <time>2019-10-11T14:34:20Z</time>
      </trkpt>
      <trkpt lat="47.11" lon="-1.18636">
        <ele>82.3</ele>
        <time>2019-10-11T14:34:21Z</time>
      </trkpt>
      <trkpt lat="47.11004" lon="-1.18633">
        <ele>82.3</ele>
        <time>2019-10-11T14:34:22Z</time>
      </trkpt>
      <trkpt lat="47.11008" lon="-1.1863">
        <ele>82.3</ele>
        <time>2019-10-11T14:34:23Z</time>
      </trkpt>
      <trkpt lat="47.11011" lon="-1.18626">
        <ele>82.2</ele>
        <time>2019-10-11T14:34:24Z</time>
      </trkpt>
      <trkpt lat="47.11015" lon="-1.18622">
        <ele>82.2</ele>
        <time>2019-10-11T14:34:25Z</time>
      </trkpt>
      <trkpt lat="47.11018" lon="-1.18618">
        <ele>82.2</ele>
        <time>2019-10-11T14:34:26Z</time>
      </trkpt>
      <trkpt lat="47.11022" lon="-1.18614">
        <ele>82.2</ele>
        <time>2019-10-11T14:34:27Z</time>
      </trkpt>
      <trkpt lat="47.11025" lon="-1.1861">
        <ele>82.2</ele>
        <time>2019-10-11T14:34:28Z</time>
      </trkpt>
      <trkpt lat="47.11028" lon="-1.18605">
        <ele>82.3</ele>
        <time>2019-10-11T14:34:29Z</time>
      </trkpt>
      <trkpt lat="47.11031" lon="-1.186">
        <ele>82.3</ele>
        <time>2019-10-11T14:34:30Z</time>
      </trkpt>
      <trkpt lat="47.11033" lon="-1.18595">
        <ele>82.3</ele>
        <time>2019-10-11T14:34:31Z</time>
      </trkpt>
      <trkpt lat="47.11036" lon="-1.1859">
        <ele>82.3</ele>
        <time>2019-10-11T14:34:32Z</time>
      </trkpt>
      <trkpt lat="47.11039" lon="-1.18585">
        <ele>82.4</ele>
        <time>2019-10-11T14:34:33Z</time>
      </trkpt>
      <trkpt lat="47.11042" lon="-1.1858">
        <ele>82.4</ele>
        <time>2019-10-11T14:34:34Z</time>
      </trkpt>
      <trkpt lat="47.11044" lon="-1.18575">
        <ele>82.5</ele>
        <time>2019-10-11T14:34:35Z</time>
      </trkpt>
      <trkpt lat="47.11046" lon="-1.1857">
        <ele>82.5</ele>
        <time>2019-10-11T14:34:36Z</time>
      </trkpt>
      <trkpt lat="47.11049" lon="-1.18564">
        <ele>82.6</ele>
        <time>2019-10-11T14:34:37Z</time>
      </trkpt>
      <trkpt lat="47.11051" lon="-1.18559">
        <ele>82.6</ele>
        <time>2019-10-11T14:34:38Z</time>
      </trkpt>
      <trkpt lat="47.11054" lon="-1.18554">
        <ele>82.7</ele>
        <time>2019-10-11T14:34:39Z</time>
      </trkpt>
      <trkpt lat="47.11056" lon="-1.18549">
        <ele>82.8</ele>
        <time>2019-10-11T14:34:40Z</time>
      </trkpt>
      <trkpt lat="47.11059" lon="-1.18543">
        <ele>82.8</ele>
        <time>2019-10-11T14:34:41Z</time>
      </trkpt>
      <trkpt lat="47.11061" lon="-1.18538">
        <ele>82.8</ele>
        <time>2019-10-11T14:34:42Z</time>
      </trkpt>
      <trkpt lat="47.11063" lon="-1.18533">
        <ele>82.9</ele>
        <time>2019-10-11T14:34:43Z</time>
      </trkpt>
      <trkpt lat="47.11065" lon="-1.18527">
        <ele>82.9</ele>
        <time>2019-10-11T14:34:44Z</time>
      </trkpt>
      <trkpt lat="47.11068" lon="-1.18522">
        <ele>83</ele>
        <time>2019-10-11T14:34:45Z</time>
      </trkpt>
      <trkpt lat="47.1107" lon="-1.18516">
        <ele>83</ele>
        <time>2019-10-11T14:34:46Z</time>
      </trkpt>
      <trkpt lat="47.11072" lon="-1.18511">
        <ele>83</ele>
        <time>2019-10-11T14:34:47Z</time>
      </trkpt>
      <trkpt lat="47.11075" lon="-1.18506">
        <ele>83</ele>
        <time>2019-10-11T14:34:48Z</time>
      </trkpt>
      <trkpt lat="47.11077" lon="-1.18501">
        <ele>83.1</ele>
        <time>2019-10-11T14:34:49Z</time>
      </trkpt>
      <trkpt lat="47.1108" lon="-1.18496">
        <ele>83.1</ele>
        <time>2019-10-11T14:34:50Z</time>
      </trkpt>
      <trkpt lat="47.11083" lon="-1.18492">
        <ele>83.1</ele>
        <time>2019-10-11T14:34:51Z</time>
      </trkpt>
      <trkpt lat="47.11086" lon="-1.18488">
        <ele>83.1</ele>
        <time>2019-10-11T14:34:52Z</time>
      </trkpt>
      <trkpt lat="47.1109" lon="-1.18484">
        <ele>83.2</ele>
        <time>2019-10-11T14:34:53Z</time>
      </trkpt>
      <trkpt lat="47.11094" lon="-1.18481">
        <ele>83.2</ele>
        <time>2019-10-11T14:34:54Z</time>
      </trkpt>
      <trkpt lat="47.11098" lon="-1.18479">
        <ele>83.2</ele>
        <time>2019-10-11T14:34:55Z</time>
      </trkpt>
      <trkpt lat="47.11102" lon="-1.18477">
        <ele>83.3</ele>
        <time>2019-10-11T14:34:56Z</time>
      </trkpt>
      <trkpt lat="47.11107" lon="-1.18476">
        <ele>83.3</ele>
        <time>2019-10-11T14:34:57Z</time>
      </trkpt>
      <trkpt lat="47.11111" lon="-1.18474">
        <ele>83.3</ele>
        <time>2019-10-11T14:34:58Z</time>
      </trkpt>
      <trkpt lat="47.11115" lon="-1.18472">
        <ele>83.4</ele>
        <time>2019-10-11T14:34:59Z</time>
      </trkpt>
      <trkpt lat="47.11119" lon="-1.1847">
        <ele>83.4</ele>
        <time>2019-10-11T14:35:00Z</time>
      </trkpt>
      <trkpt lat="47.11123" lon="-1.18469">
        <ele>83.5</ele>
        <time>2019-10-11T14:35:01Z</time>
      </trkpt>
      <trkpt lat="47.11128" lon="-1.18467">
        <ele>83.6</ele>
        <time>2019-10-11T14:35:02Z</time>
      </trkpt>
      <trkpt lat="47.11132" lon="-1.18465">
        <ele>83.6</ele>
        <time>2019-10-11T14:35:03Z</time>
      </trkpt>
      <trkpt lat="47.11137" lon="-1.18463">
        <ele>83.6</ele>
        <time>2019-10-11T14:35:04Z</time>
      </trkpt>
      <trkpt lat="47.11141" lon="-1.18462">
        <ele>83.7</ele>
        <time>2019-10-11T14:35:05Z</time>
      </trkpt>
      <trkpt lat="47.11145" lon="-1.1846">
        <ele>83.7</ele>
        <time>2019-10-11T14:35:06Z</time>
      </trkpt>
      <trkpt lat="47.11149" lon="-1.18459">
        <ele>83.7</ele>
        <time>2019-10-11T14:35:07Z</time>
      </trkpt>
      <trkpt lat="47.11153" lon="-1.18457">
        <ele>83.7</ele>
        <time>2019-10-11T14:35:08Z</time>
      </trkpt>
      <trkpt lat="47.11157" lon="-1.18456">
        <ele>83.7</ele>
        <time>2019-10-11T14:35:09Z</time>
      </trkpt>
      <trkpt lat="47.1116" lon="-1.18455">
        <ele>83.7</ele>
        <time>2019-10-11T14:35:10Z</time>
      </trkpt>
      <trkpt lat="47.11164" lon="-1.18454">
        <ele>83.7</ele>
        <time>2019-10-11T14:35:11Z</time>
      </trkpt>
      <trkpt lat="47.11168" lon="-1.18453">
        <ele>83.7</ele>
        <time>2019-10-11T14:35:12Z</time>
      </trkpt>
      <trkpt lat="47.11172" lon="-1.18452">
        <ele>83.7</ele>
        <time>2019-10-11T14:35:13Z</time>
      </trkpt>
      <trkpt lat="47.11175" lon="-1.18451">
        <ele>83.7</ele>
        <time>2019-10-11T14:35:14Z</time>
      </trkpt>
      <trkpt lat="47.11179" lon="-1.18449">
        <ele>83.7</ele>
        <time>2019-10-11T14:35:15Z</time>
      </trkpt>
      <trkpt lat="47.11184" lon="-1.18448">
        <ele>83.7</ele>
        <time>2019-10-11T14:35:16Z</time>
      </trkpt>
      <trkpt lat="47.11188" lon="-1.18447">
        <ele>83.7</ele>
        <time>2019-10-11T14:35:17Z</time>
      </trkpt>
      <trkpt lat="47.11192" lon="-1.18445">
        <ele>83.7</ele>
        <time>2019-10-11T14:35:18Z</time>
      </trkpt>
      <trkpt lat="47.11196" lon="-1.18444">
        <ele>83.7</ele>
        <time>2019-10-11T14:35:19Z</time>
      </trkpt>
      <trkpt lat="47.112" lon="-1.18443">
        <ele>83.6</ele>
        <time>2019-10-11T14:35:20Z</time>
      </trkpt>
      <trkpt lat="47.11205" lon="-1.18442">
        <ele>83.6</ele>
        <time>2019-10-11T14:35:21Z</time>
      </trkpt>
      <trkpt lat="47.11209" lon="-1.18441">
        <ele>83.6</ele>
        <time>2019-10-11T14:35:22Z</time>
      </trkpt>
      <trkpt lat="47.11213" lon="-1.18439">
        <ele>83.5</ele>
        <time>2019-10-11T14:35:23Z</time>
      </trkpt>
      <trkpt lat="47.11217" lon="-1.18437">
        <ele>83.5</ele>
        <time>2019-10-11T14:35:24Z</time>
      </trkpt>
      <trkpt lat="47.11221" lon="-1.18436">
        <ele>83.4</ele>
        <time>2019-10-11T14:35:25Z</time>
      </trkpt>
      <trkpt lat="47.11225" lon="-1.18435">
        <ele>83.4</ele>
        <time>2019-10-11T14:35:26Z</time>
      </trkpt>
      <trkpt lat="47.11229" lon="-1.18433">
        <ele>83.3</ele>
        <time>2019-10-11T14:35:27Z</time>
      </trkpt>
      <trkpt lat="47.11234" lon="-1.18432">
        <ele>83.2</ele>
        <time>2019-10-11T14:35:28Z</time>
      </trkpt>
      <trkpt lat="47.11237" lon="-1.1843">
        <ele>83.2</ele>
        <time>2019-10-11T14:35:29Z</time>
      </trkpt>
      <trkpt lat="47.1124" lon="-1.18428">
        <ele>83.2</ele>
        <time>2019-10-11T14:35:30Z</time>
      </trkpt>
      <trkpt lat="47.11243" lon="-1.18427">
        <ele>83.1</ele>
        <time>2019-10-11T14:35:32Z</time>
      </trkpt>
      <trkpt lat="47.11246" lon="-1.18425">
        <ele>83.1</ele>
        <time>2019-10-11T14:35:34Z</time>
      </trkpt>
      <trkpt lat="47.1125" lon="-1.18424">
        <ele>83.1</ele>
        <time>2019-10-11T14:35:36Z</time>
      </trkpt>
      <trkpt lat="47.11253" lon="-1.18428">
        <ele>83.1</ele>
        <time>2019-10-11T14:35:38Z</time>
      </trkpt>
      <trkpt lat="47.11255" lon="-1.18432">
        <ele>83.1</ele>
        <time>2019-10-11T14:35:39Z</time>
      </trkpt>
      <trkpt lat="47.11257" lon="-1.18436">
        <ele>83.1</ele>
        <time>2019-10-11T14:35:40Z</time>
      </trkpt>
      <trkpt lat="47.11259" lon="-1.1844">
        <ele>83.1</ele>
        <time>2019-10-11T14:35:41Z</time>
      </trkpt>
      <trkpt lat="47.11262" lon="-1.18445">
        <ele>83.1</ele>
        <time>2019-10-11T14:35:42Z</time>
      </trkpt>
      <trkpt lat="47.11265" lon="-1.1845">
        <ele>83.1</ele>
        <time>2019-10-11T14:35:43Z</time>
      </trkpt>
      <trkpt lat="47.11268" lon="-1.18455">
        <ele>83.1</ele>
        <time>2019-10-11T14:35:44Z</time>
      </trkpt>
      <trkpt lat="47.11271" lon="-1.18459">
        <ele>83.1</ele>
        <time>2019-10-11T14:35:45Z</time>
      </trkpt>
      <trkpt lat="47.11274" lon="-1.18464">
        <ele>83</ele>
        <time>2019-10-11T14:35:46Z</time>
      </trkpt>
      <trkpt lat="47.11276" lon="-1.18468">
        <ele>83</ele>
        <time>2019-10-11T14:35:47Z</time>
      </trkpt>
      <trkpt lat="47.11279" lon="-1.18473">
        <ele>82.9</ele>
        <time>2019-10-11T14:35:48Z</time>
      </trkpt>
      <trkpt lat="47.11282" lon="-1.18477">
        <ele>82.9</ele>
        <time>2019-10-11T14:35:49Z</time>
      </trkpt>
      <trkpt lat="47.11284" lon="-1.18481">
        <ele>82.8</ele>
        <time>2019-10-11T14:35:50Z</time>
      </trkpt>
      <trkpt lat="47.11287" lon="-1.18485">
        <ele>82.7</ele>
        <time>2019-10-11T14:35:51Z</time>
      </trkpt>
      <trkpt lat="47.11289" lon="-1.18489">
        <ele>82.6</ele>
        <time>2019-10-11T14:35:52Z</time>
      </trkpt>
      <trkpt lat="47.11291" lon="-1.18493">
        <ele>82.5</ele>
        <time>2019-10-11T14:35:53Z</time>
      </trkpt>
      <trkpt lat="47.11294" lon="-1.18497">
        <ele>82.5</ele>
        <time>2019-10-11T14:35:54Z</time>
      </trkpt>
      <trkpt lat="47.11297" lon="-1.18501">
        <ele>82.4</ele>
        <time>2019-10-11T14:35:55Z</time>
      </trkpt>
      <trkpt lat="47.11299" lon="-1.18504">
        <ele>82.3</ele>
        <time>2019-10-11T14:35:56Z</time>
      </trkpt>
      <trkpt lat="47.11302" lon="-1.18508">
        <ele>82.2</ele>
        <time>2019-10-11T14:35:57Z</time>
      </trkpt>
      <trkpt lat="47.11304" lon="-1.18512">
        <ele>82.2</ele>
        <time>2019-10-11T14:35:58Z</time>
      </trkpt>
      <trkpt lat="47.11307" lon="-1.18516">
        <ele>82.2</ele>
        <time>2019-10-11T14:35:59Z</time>
      </trkpt>
      <trkpt lat="47.1131" lon="-1.18521">
        <ele>82.1</ele>
        <time>2019-10-11T14:36:00Z</time>
      </trkpt>
      <trkpt lat="47.11312" lon="-1.18525">
        <ele>82.1</ele>
        <time>2019-10-11T14:36:01Z</time>
      </trkpt>
      <trkpt lat="47.11314" lon="-1.18529">
        <ele>82.1</ele>
        <time>2019-10-11T14:36:02Z</time>
      </trkpt>
      <trkpt lat="47.11317" lon="-1.18534">
        <ele>82.1</ele>
        <time>2019-10-11T14:36:03Z</time>
      </trkpt>
      <trkpt lat="47.11319" lon="-1.18538">
        <ele>82.2</ele>
        <time>2019-10-11T14:36:04Z</time>
      </trkpt>
      <trkpt lat="47.11321" lon="-1.18543">
        <ele>82.2</ele>
        <time>2019-10-11T14:36:05Z</time>
      </trkpt>
      <trkpt lat="47.11324" lon="-1.18548">
        <ele>82.2</ele>
        <time>2019-10-11T14:36:06Z</time>
      </trkpt>
      <trkpt lat="47.11326" lon="-1.18553">
        <ele>82.3</ele>
        <time>2019-10-11T14:36:07Z</time>
      </trkpt>
      <trkpt lat="47.11328" lon="-1.18558">
        <ele>82.3</ele>
        <time>2019-10-11T14:36:08Z</time>
      </trkpt>
      <trkpt lat="47.1133" lon="-1.18562">
        <ele>82.4</ele>
        <time>2019-10-11T14:36:09Z</time>
      </trkpt>
      <trkpt lat="47.11332" lon="-1.18566">
        <ele>82.5</ele>
        <time>2019-10-11T14:36:10Z</time>
      </trkpt>
      <trkpt lat="47.11334" lon="-1.18571">
        <ele>82.5</ele>
        <time>2019-10-11T14:36:11Z</time>
      </trkpt>
      <trkpt lat="47.11335" lon="-1.18575">
        <ele>82.6</ele>
        <time>2019-10-11T14:36:12Z</time>
      </trkpt>
      <trkpt lat="47.11338" lon="-1.18577">
        <ele>82.7</ele>
        <time>2019-10-11T14:36:13Z</time>
      </trkpt>
      <trkpt lat="47.11341" lon="-1.18578">
        <ele>82.8</ele>
        <time>2019-10-11T14:36:14Z</time>
      </trkpt>
      <trkpt lat="47.11344" lon="-1.18577">
        <ele>82.9</ele>
        <time>2019-10-11T14:36:15Z</time>
      </trkpt>
      <trkpt lat="47.11347" lon="-1.18576">
        <ele>82.9</ele>
        <time>2019-10-11T14:36:16Z</time>
      </trkpt>
      <trkpt lat="47.11351" lon="-1.18574">
        <ele>83</ele>
        <time>2019-10-11T14:36:17Z</time>
      </trkpt>
      <trkpt lat="47.11354" lon="-1.18572">
        <ele>83.1</ele>
        <time>2019-10-11T14:36:18Z</time>
      </trkpt>
      <trkpt lat="47.11358" lon="-1.1857">
        <ele>83.2</ele>
        <time>2019-10-11T14:36:19Z</time>
      </trkpt>
      <trkpt lat="47.11361" lon="-1.18568">
        <ele>83.3</ele>
        <time>2019-10-11T14:36:20Z</time>
      </trkpt>
      <trkpt lat="47.11365" lon="-1.18566">
        <ele>83.4</ele>
        <time>2019-10-11T14:36:21Z</time>
      </trkpt>
      <trkpt lat="47.11368" lon="-1.18564">
        <ele>83.5</ele>
        <time>2019-10-11T14:36:22Z</time>
      </trkpt>
      <trkpt lat="47.11371" lon="-1.18562">
        <ele>83.6</ele>
        <time>2019-10-11T14:36:23Z</time>
      </trkpt>
      <trkpt lat="47.11375" lon="-1.18561">
        <ele>83.8</ele>
        <time>2019-10-11T14:36:24Z</time>
      </trkpt>
      <trkpt lat="47.11379" lon="-1.18559">
        <ele>83.8</ele>
        <time>2019-10-11T14:36:25Z</time>
      </trkpt>
      <trkpt lat="47.11382" lon="-1.18558">
        <ele>84</ele>
        <time>2019-10-11T14:36:26Z</time>
      </trkpt>
      <trkpt lat="47.11386" lon="-1.18556">
        <ele>84.2</ele>
        <time>2019-10-11T14:36:27Z</time>
      </trkpt>
      <trkpt lat="47.1139" lon="-1.18554">
        <ele>84.3</ele>
        <time>2019-10-11T14:36:28Z</time>
      </trkpt>
      <trkpt lat="47.11394" lon="-1.18552">
        <ele>84.4</ele>
        <time>2019-10-11T14:36:29Z</time>
      </trkpt>
      <trkpt lat="47.11398" lon="-1.1855">
        <ele>84.6</ele>
        <time>2019-10-11T14:36:30Z</time>
      </trkpt>
      <trkpt lat="47.11402" lon="-1.18549">
        <ele>84.7</ele>
        <time>2019-10-11T14:36:31Z</time>
      </trkpt>
      <trkpt lat="47.11406" lon="-1.18548">
        <ele>84.8</ele>
        <time>2019-10-11T14:36:32Z</time>
      </trkpt>
      <trkpt lat="47.1141" lon="-1.18546">
        <ele>85</ele>
        <time>2019-10-11T14:36:33Z</time>
      </trkpt>
      <trkpt lat="47.11414" lon="-1.18544">
        <ele>85.2</ele>
        <time>2019-10-11T14:36:34Z</time>
      </trkpt>
      <trkpt lat="47.11418" lon="-1.18542">
        <ele>85.3</ele>
        <time>2019-10-11T14:36:35Z</time>
      </trkpt>
      <trkpt lat="47.11422" lon="-1.1854">
        <ele>85.5</ele>
        <time>2019-10-11T14:36:36Z</time>
      </trkpt>
      <trkpt lat="47.11426" lon="-1.18538">
        <ele>85.6</ele>
        <time>2019-10-11T14:36:37Z</time>
      </trkpt>
      <trkpt lat="47.1143" lon="-1.18537">
        <ele>85.6</ele>
        <time>2019-10-11T14:36:38Z</time>
      </trkpt>
      <trkpt lat="47.11433" lon="-1.18535">
        <ele>85.8</ele>
        <time>2019-10-11T14:36:39Z</time>
      </trkpt>
      <trkpt lat="47.11437" lon="-1.18533">
        <ele>85.8</ele>
        <time>2019-10-11T14:36:40Z</time>
      </trkpt>
      <trkpt lat="47.11441" lon="-1.18531">
        <ele>85.9</ele>
        <time>2019-10-11T14:36:41Z</time>
      </trkpt>
      <trkpt lat="47.11445" lon="-1.18529">
        <ele>86</ele>
        <time>2019-10-11T14:36:42Z</time>
      </trkpt>
      <trkpt lat="47.11449" lon="-1.18527">
        <ele>86.1</ele>
        <time>2019-10-11T14:36:43Z</time>
      </trkpt>
      <trkpt lat="47.11453" lon="-1.18525">
        <ele>86.1</ele>
        <time>2019-10-11T14:36:44Z</time>
      </trkpt>
      <trkpt lat="47.11457" lon="-1.18523">
        <ele>86.2</ele>
        <time>2019-10-11T14:36:45Z</time>
      </trkpt>
      <trkpt lat="47.11461" lon="-1.18521">
        <ele>86.2</ele>
        <time>2019-10-11T14:36:46Z</time>
      </trkpt>
      <trkpt lat="47.11465" lon="-1.1852">
        <ele>86.3</ele>
        <time>2019-10-11T14:36:47Z</time>
      </trkpt>
      <trkpt lat="47.11469" lon="-1.18518">
        <ele>86.4</ele>
        <time>2019-10-11T14:36:48Z</time>
      </trkpt>
      <trkpt lat="47.11473" lon="-1.18516">
        <ele>86.4</ele>
        <time>2019-10-11T14:36:49Z</time>
      </trkpt>
      <trkpt lat="47.11477" lon="-1.18515">
        <ele>86.5</ele>
        <time>2019-10-11T14:36:50Z</time>
      </trkpt>
      <trkpt lat="47.11481" lon="-1.18513">
        <ele>86.6</ele>
        <time>2019-10-11T14:36:51Z</time>
      </trkpt>
      <trkpt lat="47.11485" lon="-1.18511">
        <ele>86.6</ele>
        <time>2019-10-11T14:36:52Z</time>
      </trkpt>
      <trkpt lat="47.11489" lon="-1.18509">
        <ele>86.7</ele>
        <time>2019-10-11T14:36:53Z</time>
      </trkpt>
      <trkpt lat="47.11493" lon="-1.18507">
        <ele>86.7</ele>
        <time>2019-10-11T14:36:54Z</time>
      </trkpt>
      <trkpt lat="47.11497" lon="-1.18506">
        <ele>86.8</ele>
        <time>2019-10-11T14:36:55Z</time>
      </trkpt>
      <trkpt lat="47.115" lon="-1.18506">
        <ele>86.8</ele>
        <time>2019-10-11T14:36:56Z</time>
      </trkpt>
      <trkpt lat="47.11504" lon="-1.18506">
        <ele>86.8</ele>
        <time>2019-10-11T14:36:57Z</time>
      </trkpt>
      <trkpt lat="47.11507" lon="-1.18507">
        <ele>86.9</ele>
        <time>2019-10-11T14:36:58Z</time>
      </trkpt>
      <trkpt lat="47.11511" lon="-1.18508">
        <ele>86.9</ele>
        <time>2019-10-11T14:36:59Z</time>
      </trkpt>
      <trkpt lat="47.11514" lon="-1.18509">
        <ele>86.9</ele>
        <time>2019-10-11T14:37:00Z</time>
      </trkpt>
      <trkpt lat="47.11518" lon="-1.18511">
        <ele>86.9</ele>
        <time>2019-10-11T14:37:01Z</time>
      </trkpt>
      <trkpt lat="47.11521" lon="-1.18512">
        <ele>86.9</ele>
        <time>2019-10-11T14:37:02Z</time>
      </trkpt>
      <trkpt lat="47.11525" lon="-1.18514">
        <ele>87</ele>
        <time>2019-10-11T14:37:03Z</time>
      </trkpt>
      <trkpt lat="47.11528" lon="-1.18515">
        <ele>87</ele>
        <time>2019-10-11T14:37:04Z</time>
      </trkpt>
      <trkpt lat="47.11532" lon="-1.18516">
        <ele>87</ele>
        <time>2019-10-11T14:37:05Z</time>
      </trkpt>
      <trkpt lat="47.11536" lon="-1.18518">
        <ele>87.1</ele>
        <time>2019-10-11T14:37:06Z</time>
      </trkpt>
      <trkpt lat="47.11539" lon="-1.18519">
        <ele>87.1</ele>
        <time>2019-10-11T14:37:07Z</time>
      </trkpt>
      <trkpt lat="47.11543" lon="-1.1852">
        <ele>87.1</ele>
        <time>2019-10-11T14:37:08Z</time>
      </trkpt>
      <trkpt lat="47.11547" lon="-1.18522">
        <ele>87.2</ele>
        <time>2019-10-11T14:37:09Z</time>
      </trkpt>
      <trkpt lat="47.11551" lon="-1.18523">
        <ele>87.2</ele>
        <time>2019-10-11T14:37:10Z</time>
      </trkpt>
      <trkpt lat="47.11554" lon="-1.18524">
        <ele>87.3</ele>
        <time>2019-10-11T14:37:11Z</time>
      </trkpt>
      <trkpt lat="47.11558" lon="-1.18525">
        <ele>87.3</ele>
        <time>2019-10-11T14:37:12Z</time>
      </trkpt>
      <trkpt lat="47.11562" lon="-1.18526">
        <ele>87.4</ele>
        <time>2019-10-11T14:37:13Z</time>
      </trkpt>
      <trkpt lat="47.11565" lon="-1.18528">
        <ele>87.5</ele>
        <time>2019-10-11T14:37:14Z</time>
      </trkpt>
      <trkpt lat="47.11569" lon="-1.18529">
        <ele>87.6</ele>
        <time>2019-10-11T14:37:15Z</time>
      </trkpt>
      <trkpt lat="47.11573" lon="-1.1853">
        <ele>87.6</ele>
        <time>2019-10-11T14:37:16Z</time>
      </trkpt>
      <trkpt lat="47.11577" lon="-1.18532">
        <ele>87.8</ele>
        <time>2019-10-11T14:37:17Z</time>
      </trkpt>
      <trkpt lat="47.1158" lon="-1.18533">
        <ele>87.9</ele>
        <time>2019-10-11T14:37:18Z</time>
      </trkpt>
      <trkpt lat="47.11584" lon="-1.18534">
        <ele>88</ele>
        <time>2019-10-11T14:37:19Z</time>
      </trkpt>
      <trkpt lat="47.11588" lon="-1.18535">
        <ele>88.1</ele>
        <time>2019-10-11T14:37:20Z</time>
      </trkpt>
      <trkpt lat="47.11591" lon="-1.18536">
        <ele>88.2</ele>
        <time>2019-10-11T14:37:21Z</time>
      </trkpt>
      <trkpt lat="47.11595" lon="-1.18537">
        <ele>88.3</ele>
        <time>2019-10-11T14:37:22Z</time>
      </trkpt>
      <trkpt lat="47.11598" lon="-1.18538">
        <ele>88.4</ele>
        <time>2019-10-11T14:37:23Z</time>
      </trkpt>
      <trkpt lat="47.11602" lon="-1.18539">
        <ele>88.4</ele>
        <time>2019-10-11T14:37:24Z</time>
      </trkpt>
      <trkpt lat="47.11605" lon="-1.1854">
        <ele>88.6</ele>
        <time>2019-10-11T14:37:25Z</time>
      </trkpt>
      <trkpt lat="47.11609" lon="-1.18541">
        <ele>88.7</ele>
        <time>2019-10-11T14:37:26Z</time>
      </trkpt>
      <trkpt lat="47.11613" lon="-1.18542">
        <ele>88.8</ele>
        <time>2019-10-11T14:37:27Z</time>
      </trkpt>
      <trkpt lat="47.11616" lon="-1.18543">
        <ele>88.8</ele>
        <time>2019-10-11T14:37:28Z</time>
      </trkpt>
      <trkpt lat="47.1162" lon="-1.18545">
        <ele>88.9</ele>
        <time>2019-10-11T14:37:29Z</time>
      </trkpt>
      <trkpt lat="47.11623" lon="-1.18545">
        <ele>89</ele>
        <time>2019-10-11T14:37:30Z</time>
      </trkpt>
      <trkpt lat="47.11627" lon="-1.18546">
        <ele>89.1</ele>
        <time>2019-10-11T14:37:31Z</time>
      </trkpt>
      <trkpt lat="47.1163" lon="-1.18547">
        <ele>89.2</ele>
        <time>2019-10-11T14:37:32Z</time>
      </trkpt>
      <trkpt lat="47.11633" lon="-1.18548">
        <ele>89.2</ele>
        <time>2019-10-11T14:37:33Z</time>
      </trkpt>
      <trkpt lat="47.11637" lon="-1.18549">
        <ele>89.3</ele>
        <time>2019-10-11T14:37:34Z</time>
      </trkpt>
      <trkpt lat="47.1164" lon="-1.1855">
        <ele>89.3</ele>
        <time>2019-10-11T14:37:35Z</time>
      </trkpt>
      <trkpt lat="47.11643" lon="-1.18551">
        <ele>89.4</ele>
        <time>2019-10-11T14:37:36Z</time>
      </trkpt>
      <trkpt lat="47.11646" lon="-1.18552">
        <ele>89.5</ele>
        <time>2019-10-11T14:37:37Z</time>
      </trkpt>
      <trkpt lat="47.1165" lon="-1.18553">
        <ele>89.5</ele>
        <time>2019-10-11T14:37:38Z</time>
      </trkpt>
      <trkpt lat="47.11653" lon="-1.18555">
        <ele>89.5</ele>
        <time>2019-10-11T14:37:39Z</time>
      </trkpt>
      <trkpt lat="47.11657" lon="-1.18556">
        <ele>89.6</ele>
        <time>2019-10-11T14:37:40Z</time>
      </trkpt>
      <trkpt lat="47.1166" lon="-1.18557">
        <ele>89.6</ele>
        <time>2019-10-11T14:37:41Z</time>
      </trkpt>
      <trkpt lat="47.11664" lon="-1.18558">
        <ele>89.6</ele>
        <time>2019-10-11T14:37:42Z</time>
      </trkpt>
      <trkpt lat="47.11667" lon="-1.18559">
        <ele>89.6</ele>
        <time>2019-10-11T14:37:43Z</time>
      </trkpt>
      <trkpt lat="47.11671" lon="-1.1856">
        <ele>89.6</ele>
        <time>2019-10-11T14:37:44Z</time>
      </trkpt>
      <trkpt lat="47.11674" lon="-1.18561">
        <ele>89.6</ele>
        <time>2019-10-11T14:37:45Z</time>
      </trkpt>
      <trkpt lat="47.11678" lon="-1.18563">
        <ele>89.6</ele>
        <time>2019-10-11T14:37:46Z</time>
      </trkpt>
      <trkpt lat="47.11682" lon="-1.18564">
        <ele>89.5</ele>
        <time>2019-10-11T14:37:47Z</time>
      </trkpt>
      <trkpt lat="47.11685" lon="-1.18565">
        <ele>89.5</ele>
        <time>2019-10-11T14:37:48Z</time>
      </trkpt>
      <trkpt lat="47.11689" lon="-1.18566">
        <ele>89.5</ele>
        <time>2019-10-11T14:37:49Z</time>
      </trkpt>
      <trkpt lat="47.11692" lon="-1.18567">
        <ele>89.4</ele>
        <time>2019-10-11T14:37:50Z</time>
      </trkpt>
      <trkpt lat="47.11696" lon="-1.18568">
        <ele>89.4</ele>
        <time>2019-10-11T14:37:51Z</time>
      </trkpt>
      <trkpt lat="47.11699" lon="-1.18568">
        <ele>89.4</ele>
        <time>2019-10-11T14:37:52Z</time>
      </trkpt>
      <trkpt lat="47.11703" lon="-1.18569">
        <ele>89.3</ele>
        <time>2019-10-11T14:37:53Z</time>
      </trkpt>
      <trkpt lat="47.11707" lon="-1.1857">
        <ele>89.3</ele>
        <time>2019-10-11T14:37:54Z</time>
      </trkpt>
      <trkpt lat="47.1171" lon="-1.18571">
        <ele>89.3</ele>
        <time>2019-10-11T14:37:55Z</time>
      </trkpt>
      <trkpt lat="47.11714" lon="-1.18572">
        <ele>89.2</ele>
        <time>2019-10-11T14:37:56Z</time>
      </trkpt>
      <trkpt lat="47.11718" lon="-1.18572">
        <ele>89.2</ele>
        <time>2019-10-11T14:37:57Z</time>
      </trkpt>
      <trkpt lat="47.11721" lon="-1.18573">
        <ele>89.2</ele>
        <time>2019-10-11T14:37:58Z</time>
      </trkpt>
      <trkpt lat="47.11724" lon="-1.18573">
        <ele>89.3</ele>
        <time>2019-10-11T14:37:59Z</time>
      </trkpt>
      <trkpt lat="47.11727" lon="-1.18574">
        <ele>89.3</ele>
        <time>2019-10-11T14:38:00Z</time>
      </trkpt>
      <trkpt lat="47.11731" lon="-1.18575">
        <ele>89.3</ele>
        <time>2019-10-11T14:38:01Z</time>
      </trkpt>
      <trkpt lat="47.11735" lon="-1.18575">
        <ele>89.3</ele>
        <time>2019-10-11T14:38:02Z</time>
      </trkpt>
      <trkpt lat="47.11739" lon="-1.18576">
        <ele>89.4</ele>
        <time>2019-10-11T14:38:03Z</time>
      </trkpt>
      <trkpt lat="47.11743" lon="-1.18577">
        <ele>89.4</ele>
        <time>2019-10-11T14:38:04Z</time>
      </trkpt>
      <trkpt lat="47.11746" lon="-1.18577">
        <ele>89.5</ele>
        <time>2019-10-11T14:38:05Z</time>
      </trkpt>
      <trkpt lat="47.11751" lon="-1.18578">
        <ele>89.5</ele>
        <time>2019-10-11T14:38:06Z</time>
      </trkpt>
      <trkpt lat="47.11755" lon="-1.18579">
        <ele>89.7</ele>
        <time>2019-10-11T14:38:07Z</time>
      </trkpt>
      <trkpt lat="47.11759" lon="-1.18579">
        <ele>89.7</ele>
        <time>2019-10-11T14:38:08Z</time>
      </trkpt>
      <trkpt lat="47.11763" lon="-1.1858">
        <ele>89.8</ele>
        <time>2019-10-11T14:38:09Z</time>
      </trkpt>
      <trkpt lat="47.11767" lon="-1.1858">
        <ele>90</ele>
        <time>2019-10-11T14:38:10Z</time>
      </trkpt>
      <trkpt lat="47.1177" lon="-1.1858">
        <ele>90.1</ele>
        <time>2019-10-11T14:38:11Z</time>
      </trkpt>
      <trkpt lat="47.11774" lon="-1.18581">
        <ele>90.2</ele>
        <time>2019-10-11T14:38:12Z</time>
      </trkpt>
      <trkpt lat="47.11777" lon="-1.18582">
        <ele>90.3</ele>
        <time>2019-10-11T14:38:13Z</time>
      </trkpt>
      <trkpt lat="47.11781" lon="-1.18583">
        <ele>90.5</ele>
        <time>2019-10-11T14:38:14Z</time>
      </trkpt>
      <trkpt lat="47.11784" lon="-1.18584">
        <ele>90.6</ele>
        <time>2019-10-11T14:38:15Z</time>
      </trkpt>
      <trkpt lat="47.11788" lon="-1.18584">
        <ele>90.7</ele>
        <time>2019-10-11T14:38:16Z</time>
      </trkpt>
      <trkpt lat="47.11791" lon="-1.18584">
        <ele>90.8</ele>
        <time>2019-10-11T14:38:17Z</time>
      </trkpt>
      <trkpt lat="47.11795" lon="-1.18584">
        <ele>91</ele>
        <time>2019-10-11T14:38:18Z</time>
      </trkpt>
      <trkpt lat="47.11799" lon="-1.18585">
        <ele>91.1</ele>
        <time>2019-10-11T14:38:19Z</time>
      </trkpt>
      <trkpt lat="47.11803" lon="-1.18585">
        <ele>91.2</ele>
        <time>2019-10-11T14:38:20Z</time>
      </trkpt>
      <trkpt lat="47.11807" lon="-1.18586">
        <ele>91.3</ele>
        <time>2019-10-11T14:38:21Z</time>
      </trkpt>
      <trkpt lat="47.11811" lon="-1.18587">
        <ele>91.4</ele>
        <time>2019-10-11T14:38:22Z</time>
      </trkpt>
      <trkpt lat="47.11815" lon="-1.18587">
        <ele>91.4</ele>
        <time>2019-10-11T14:38:23Z</time>
      </trkpt>
      <trkpt lat="47.11819" lon="-1.18588">
        <ele>91.4</ele>
        <time>2019-10-11T14:38:24Z</time>
      </trkpt>
      <trkpt lat="47.11823" lon="-1.18589">
        <ele>91.5</ele>
        <time>2019-10-11T14:38:25Z</time>
      </trkpt>
      <trkpt lat="47.11827" lon="-1.1859">
        <ele>91.5</ele>
        <time>2019-10-11T14:38:26Z</time>
      </trkpt>
      <trkpt lat="47.1183" lon="-1.18591">
        <ele>91.5</ele>
        <time>2019-10-11T14:38:27Z</time>
      </trkpt>
      <trkpt lat="47.11834" lon="-1.18592">
        <ele>91.5</ele>
        <time>2019-10-11T14:38:28Z</time>
      </trkpt>
      <trkpt lat="47.11837" lon="-1.18593">
        <ele>91.5</ele>
        <time>2019-10-11T14:38:29Z</time>
      </trkpt>
      <trkpt lat="47.1184" lon="-1.18594">
        <ele>91.4</ele>
        <time>2019-10-11T14:38:30Z</time>
      </trkpt>
      <trkpt lat="47.11844" lon="-1.18596">
        <ele>91.4</ele>
        <time>2019-10-11T14:38:31Z</time>
      </trkpt>
      <trkpt lat="47.11848" lon="-1.18597">
        <ele>91.4</ele>
        <time>2019-10-11T14:38:32Z</time>
      </trkpt>
      <trkpt lat="47.11851" lon="-1.18598">
        <ele>91.3</ele>
        <time>2019-10-11T14:38:33Z</time>
      </trkpt>
      <trkpt lat="47.11855" lon="-1.18599">
        <ele>91.3</ele>
        <time>2019-10-11T14:38:34Z</time>
      </trkpt>
      <trkpt lat="47.11859" lon="-1.186">
        <ele>91.2</ele>
        <time>2019-10-11T14:38:35Z</time>
      </trkpt>
      <trkpt lat="47.11864" lon="-1.186">
        <ele>91.2</ele>
        <time>2019-10-11T14:38:36Z</time>
      </trkpt>
      <trkpt lat="47.11868" lon="-1.18601">
        <ele>91.1</ele>
        <time>2019-10-11T14:38:37Z</time>
      </trkpt>
      <trkpt lat="47.11872" lon="-1.18602">
        <ele>91</ele>
        <time>2019-10-11T14:38:38Z</time>
      </trkpt>
      <trkpt lat="47.11876" lon="-1.18603">
        <ele>91</ele>
        <time>2019-10-11T14:38:39Z</time>
      </trkpt>
      <trkpt lat="47.1188" lon="-1.18603">
        <ele>90.9</ele>
        <time>2019-10-11T14:38:40Z</time>
      </trkpt>
      <trkpt lat="47.11884" lon="-1.18604">
        <ele>90.9</ele>
        <time>2019-10-11T14:38:41Z</time>
      </trkpt>
      <trkpt lat="47.11887" lon="-1.18605">
        <ele>90.8</ele>
        <time>2019-10-11T14:38:42Z</time>
      </trkpt>
      <trkpt lat="47.11891" lon="-1.18605">
        <ele>90.8</ele>
        <time>2019-10-11T14:38:43Z</time>
      </trkpt>
      <trkpt lat="47.11894" lon="-1.18605">
        <ele>90.8</ele>
        <time>2019-10-11T14:38:44Z</time>
      </trkpt>
      <trkpt lat="47.11897" lon="-1.18605">
        <ele>90.7</ele>
        <time>2019-10-11T14:38:45Z</time>
      </trkpt>
      <trkpt lat="47.119" lon="-1.18606">
        <ele>90.6</ele>
        <time>2019-10-11T14:38:46Z</time>
      </trkpt>
      <trkpt lat="47.11904" lon="-1.18606">
        <ele>90.6</ele>
        <time>2019-10-11T14:38:47Z</time>
      </trkpt>
      <trkpt lat="47.11908" lon="-1.18607">
        <ele>90.6</ele>
        <time>2019-10-11T14:38:48Z</time>
      </trkpt>
      <trkpt lat="47.11912" lon="-1.18607">
        <ele>90.6</ele>
        <time>2019-10-11T14:38:49Z</time>
      </trkpt>
      <trkpt lat="47.11916" lon="-1.18608">
        <ele>90.5</ele>
        <time>2019-10-11T14:38:50Z</time>
      </trkpt>
      <trkpt lat="47.1192" lon="-1.18608">
        <ele>90.5</ele>
        <time>2019-10-11T14:38:51Z</time>
      </trkpt>
      <trkpt lat="47.11924" lon="-1.18609">
        <ele>90.4</ele>
        <time>2019-10-11T14:38:52Z</time>
      </trkpt>
      <trkpt lat="47.11928" lon="-1.18609">
        <ele>90.4</ele>
        <time>2019-10-11T14:38:53Z</time>
      </trkpt>
      <trkpt lat="47.11932" lon="-1.18609">
        <ele>90.4</ele>
        <time>2019-10-11T14:38:54Z</time>
      </trkpt>
      <trkpt lat="47.11936" lon="-1.18609">
        <ele>90.3</ele>
        <time>2019-10-11T14:38:55Z</time>
      </trkpt>
      <trkpt lat="47.1194" lon="-1.18609">
        <ele>90.3</ele>
        <time>2019-10-11T14:38:56Z</time>
      </trkpt>
      <trkpt lat="47.11944" lon="-1.1861">
        <ele>90.3</ele>
        <time>2019-10-11T14:38:57Z</time>
      </trkpt>
      <trkpt lat="47.11948" lon="-1.1861">
        <ele>90.3</ele>
        <time>2019-10-11T14:38:58Z</time>
      </trkpt>
      <trkpt lat="47.11952" lon="-1.1861">
        <ele>90.2</ele>
        <time>2019-10-11T14:38:59Z</time>
      </trkpt>
      <trkpt lat="47.11956" lon="-1.1861">
        <ele>90.2</ele>
        <time>2019-10-11T14:39:00Z</time>
      </trkpt>
      <trkpt lat="47.11959" lon="-1.1861">
        <ele>90.2</ele>
        <time>2019-10-11T14:39:01Z</time>
      </trkpt>
      <trkpt lat="47.11963" lon="-1.18611">
        <ele>90.2</ele>
        <time>2019-10-11T14:39:02Z</time>
      </trkpt>
      <trkpt lat="47.11968" lon="-1.18612">
        <ele>90.1</ele>
        <time>2019-10-11T14:39:03Z</time>
      </trkpt>
      <trkpt lat="47.11972" lon="-1.18612">
        <ele>90.1</ele>
        <time>2019-10-11T14:39:04Z</time>
      </trkpt>
      <trkpt lat="47.11976" lon="-1.18613">
        <ele>90.1</ele>
        <time>2019-10-11T14:39:05Z</time>
      </trkpt>
      <trkpt lat="47.1198" lon="-1.18613">
        <ele>90</ele>
        <time>2019-10-11T14:39:06Z</time>
      </trkpt>
      <trkpt lat="47.11983" lon="-1.18614">
        <ele>90.1</ele>
        <time>2019-10-11T14:39:07Z</time>
      </trkpt>
      <trkpt lat="47.11987" lon="-1.18615">
        <ele>90</ele>
        <time>2019-10-11T14:39:08Z</time>
      </trkpt>
      <trkpt lat="47.11992" lon="-1.18616">
        <ele>90</ele>
        <time>2019-10-11T14:39:09Z</time>
      </trkpt>
      <trkpt lat="47.11996" lon="-1.18618">
        <ele>89.9</ele>
        <time>2019-10-11T14:39:10Z</time>
      </trkpt>
      <trkpt lat="47.12" lon="-1.18619">
        <ele>89.9</ele>
        <time>2019-10-11T14:39:11Z</time>
      </trkpt>
      <trkpt lat="47.12004" lon="-1.1862">
        <ele>89.8</ele>
        <time>2019-10-11T14:39:12Z</time>
      </trkpt>
      <trkpt lat="47.12009" lon="-1.18621">
        <ele>89.7</ele>
        <time>2019-10-11T14:39:13Z</time>
      </trkpt>
      <trkpt lat="47.12012" lon="-1.18622">
        <ele>89.7</ele>
        <time>2019-10-11T14:39:14Z</time>
      </trkpt>
      <trkpt lat="47.12016" lon="-1.18623">
        <ele>89.7</ele>
        <time>2019-10-11T14:39:15Z</time>
      </trkpt>
      <trkpt lat="47.1202" lon="-1.18625">
        <ele>89.6</ele>
        <time>2019-10-11T14:39:16Z</time>
      </trkpt>
      <trkpt lat="47.12024" lon="-1.18626">
        <ele>89.5</ele>
        <time>2019-10-11T14:39:17Z</time>
      </trkpt>
      <trkpt lat="47.12028" lon="-1.18627">
        <ele>89.5</ele>
        <time>2019-10-11T14:39:18Z</time>
      </trkpt>
      <trkpt lat="47.12033" lon="-1.18628">
        <ele>89.3</ele>
        <time>2019-10-11T14:39:19Z</time>
      </trkpt>
      <trkpt lat="47.12037" lon="-1.1863">
        <ele>89.3</ele>
        <time>2019-10-11T14:39:20Z</time>
      </trkpt>
      <trkpt lat="47.1204" lon="-1.18631">
        <ele>89.1</ele>
        <time>2019-10-11T14:39:21Z</time>
      </trkpt>
      <trkpt lat="47.12044" lon="-1.18632">
        <ele>89.1</ele>
        <time>2019-10-11T14:39:22Z</time>
      </trkpt>
      <trkpt lat="47.12048" lon="-1.18634">
        <ele>89</ele>
        <time>2019-10-11T14:39:23Z</time>
      </trkpt>
      <trkpt lat="47.12052" lon="-1.18635">
        <ele>89</ele>
        <time>2019-10-11T14:39:24Z</time>
      </trkpt>
      <trkpt lat="47.12055" lon="-1.18637">
        <ele>88.8</ele>
        <time>2019-10-11T14:39:25Z</time>
      </trkpt>
      <trkpt lat="47.12059" lon="-1.18638">
        <ele>88.7</ele>
        <time>2019-10-11T14:39:26Z</time>
      </trkpt>
      <trkpt lat="47.12062" lon="-1.1864">
        <ele>88.6</ele>
        <time>2019-10-11T14:39:27Z</time>
      </trkpt>
      <trkpt lat="47.12065" lon="-1.18641">
        <ele>88.6</ele>
        <time>2019-10-11T14:39:28Z</time>
      </trkpt>
      <trkpt lat="47.12069" lon="-1.1864">
        <ele>88.5</ele>
        <time>2019-10-11T14:39:29Z</time>
      </trkpt>
      <trkpt lat="47.12071" lon="-1.18638">
        <ele>88.4</ele>
        <time>2019-10-11T14:39:30Z</time>
      </trkpt>
      <trkpt lat="47.12074" lon="-1.18636">
        <ele>88.4</ele>
        <time>2019-10-11T14:39:31Z</time>
      </trkpt>
      <trkpt lat="47.12076" lon="-1.18631">
        <ele>88.4</ele>
        <time>2019-10-11T14:39:32Z</time>
      </trkpt>
      <trkpt lat="47.12076" lon="-1.18625">
        <ele>88.4</ele>
        <time>2019-10-11T14:39:33Z</time>
      </trkpt>
      <trkpt lat="47.12077" lon="-1.1862">
        <ele>88.4</ele>
        <time>2019-10-11T14:39:34Z</time>
      </trkpt>
      <trkpt lat="47.12078" lon="-1.18614">
        <ele>88.5</ele>
        <time>2019-10-11T14:39:35Z</time>
      </trkpt>
      <trkpt lat="47.12077" lon="-1.18607">
        <ele>88.5</ele>
        <time>2019-10-11T14:39:36Z</time>
      </trkpt>
      <trkpt lat="47.12077" lon="-1.18601">
        <ele>88.5</ele>
        <time>2019-10-11T14:39:37Z</time>
      </trkpt>
      <trkpt lat="47.12077" lon="-1.18595">
        <ele>88.6</ele>
        <time>2019-10-11T14:39:38Z</time>
      </trkpt>
      <trkpt lat="47.12077" lon="-1.18589">
        <ele>88.6</ele>
        <time>2019-10-11T14:39:39Z</time>
      </trkpt>
      <trkpt lat="47.12076" lon="-1.18584">
        <ele>88.7</ele>
        <time>2019-10-11T14:39:40Z</time>
      </trkpt>
      <trkpt lat="47.12076" lon="-1.18578">
        <ele>88.7</ele>
        <time>2019-10-11T14:39:41Z</time>
      </trkpt>
      <trkpt lat="47.12076" lon="-1.18573">
        <ele>88.7</ele>
        <time>2019-10-11T14:39:42Z</time>
      </trkpt>
      <trkpt lat="47.12075" lon="-1.18568">
        <ele>88.8</ele>
        <time>2019-10-11T14:39:43Z</time>
      </trkpt>
      <trkpt lat="47.12075" lon="-1.18562">
        <ele>88.8</ele>
        <time>2019-10-11T14:39:44Z</time>
      </trkpt>
      <trkpt lat="47.12075" lon="-1.18557">
        <ele>88.8</ele>
        <time>2019-10-11T14:39:45Z</time>
      </trkpt>
      <trkpt lat="47.12075" lon="-1.18551">
        <ele>88.9</ele>
        <time>2019-10-11T14:39:46Z</time>
      </trkpt>
      <trkpt lat="47.12075" lon="-1.18545">
        <ele>88.9</ele>
        <time>2019-10-11T14:39:47Z</time>
      </trkpt>
      <trkpt lat="47.12075" lon="-1.18539">
        <ele>88.9</ele>
        <time>2019-10-11T14:39:48Z</time>
      </trkpt>
      <trkpt lat="47.12075" lon="-1.18533">
        <ele>88.8</ele>
        <time>2019-10-11T14:39:49Z</time>
      </trkpt>
      <trkpt lat="47.12076" lon="-1.18527">
        <ele>88.8</ele>
        <time>2019-10-11T14:39:50Z</time>
      </trkpt>
      <trkpt lat="47.12076" lon="-1.18521">
        <ele>88.8</ele>
        <time>2019-10-11T14:39:51Z</time>
      </trkpt>
      <trkpt lat="47.12077" lon="-1.18516">
        <ele>88.8</ele>
        <time>2019-10-11T14:39:52Z</time>
      </trkpt>
      <trkpt lat="47.12078" lon="-1.18511">
        <ele>88.9</ele>
        <time>2019-10-11T14:39:53Z</time>
      </trkpt>
      <trkpt lat="47.12079" lon="-1.18505">
        <ele>88.8</ele>
        <time>2019-10-11T14:39:54Z</time>
      </trkpt>
      <trkpt lat="47.12079" lon="-1.185">
        <ele>88.9</ele>
        <time>2019-10-11T14:39:55Z</time>
      </trkpt>
      <trkpt lat="47.1208" lon="-1.18495">
        <ele>88.9</ele>
        <time>2019-10-11T14:39:56Z</time>
      </trkpt>
      <trkpt lat="47.12081" lon="-1.18489">
        <ele>89</ele>
        <time>2019-10-11T14:39:57Z</time>
      </trkpt>
      <trkpt lat="47.12082" lon="-1.18483">
        <ele>89</ele>
        <time>2019-10-11T14:39:58Z</time>
      </trkpt>
      <trkpt lat="47.12082" lon="-1.18477">
        <ele>89</ele>
        <time>2019-10-11T14:39:59Z</time>
      </trkpt>
      <trkpt lat="47.12083" lon="-1.18472">
        <ele>89.1</ele>
        <time>2019-10-11T14:40:00Z</time>
      </trkpt>
      <trkpt lat="47.12084" lon="-1.18467">
        <ele>89.1</ele>
        <time>2019-10-11T14:40:01Z</time>
      </trkpt>
      <trkpt lat="47.12085" lon="-1.18462">
        <ele>89.1</ele>
        <time>2019-10-11T14:40:02Z</time>
      </trkpt>
      <trkpt lat="47.12086" lon="-1.18457">
        <ele>89.2</ele>
        <time>2019-10-11T14:40:03Z</time>
      </trkpt>
      <trkpt lat="47.12087" lon="-1.18451">
        <ele>89.2</ele>
        <time>2019-10-11T14:40:04Z</time>
      </trkpt>
      <trkpt lat="47.12088" lon="-1.18446">
        <ele>89.3</ele>
        <time>2019-10-11T14:40:05Z</time>
      </trkpt>
      <trkpt lat="47.1209" lon="-1.18441">
        <ele>89.3</ele>
        <time>2019-10-11T14:40:06Z</time>
      </trkpt>
      <trkpt lat="47.12091" lon="-1.18436">
        <ele>89.3</ele>
        <time>2019-10-11T14:40:07Z</time>
      </trkpt>
      <trkpt lat="47.12092" lon="-1.18431">
        <ele>89.4</ele>
        <time>2019-10-11T14:40:08Z</time>
      </trkpt>
      <trkpt lat="47.12093" lon="-1.18426">
        <ele>89.4</ele>
        <time>2019-10-11T14:40:09Z</time>
      </trkpt>
      <trkpt lat="47.12095" lon="-1.18421">
        <ele>89.4</ele>
        <time>2019-10-11T14:40:10Z</time>
      </trkpt>
      <trkpt lat="47.12096" lon="-1.18417">
        <ele>89.4</ele>
        <time>2019-10-11T14:40:11Z</time>
      </trkpt>
      <trkpt lat="47.12097" lon="-1.18412">
        <ele>89.4</ele>
        <time>2019-10-11T14:40:12Z</time>
      </trkpt>
      <trkpt lat="47.12099" lon="-1.18407">
        <ele>89.4</ele>
        <time>2019-10-11T14:40:13Z</time>
      </trkpt>
      <trkpt lat="47.12101" lon="-1.18403">
        <ele>89.4</ele>
        <time>2019-10-11T14:40:14Z</time>
      </trkpt>
      <trkpt lat="47.12102" lon="-1.18399">
        <ele>89.3</ele>
        <time>2019-10-11T14:40:15Z</time>
      </trkpt>
      <trkpt lat="47.12105" lon="-1.18396">
        <ele>89.2</ele>
        <time>2019-10-11T14:40:16Z</time>
      </trkpt>
      <trkpt lat="47.1211" lon="-1.18395">
        <ele>89.2</ele>
        <time>2019-10-11T14:40:18Z</time>
      </trkpt>
      <trkpt lat="47.12113" lon="-1.18395">
        <ele>89.1</ele>
        <time>2019-10-11T14:40:19Z</time>
      </trkpt>
      <trkpt lat="47.12115" lon="-1.18396">
        <ele>89.1</ele>
        <time>2019-10-11T14:40:20Z</time>
      </trkpt>
      <trkpt lat="47.12118" lon="-1.18398">
        <ele>89</ele>
        <time>2019-10-11T14:40:21Z</time>
      </trkpt>
      <trkpt lat="47.12121" lon="-1.18398">
        <ele>89</ele>
        <time>2019-10-11T14:40:22Z</time>
      </trkpt>
      <trkpt lat="47.12124" lon="-1.18399">
        <ele>88.9</ele>
        <time>2019-10-11T14:40:23Z</time>
      </trkpt>
      <trkpt lat="47.12127" lon="-1.184">
        <ele>88.8</ele>
        <time>2019-10-11T14:40:24Z</time>
      </trkpt>
      <trkpt lat="47.1213" lon="-1.18401">
        <ele>88.7</ele>
        <time>2019-10-11T14:40:25Z</time>
      </trkpt>
      <trkpt lat="47.12134" lon="-1.18402">
        <ele>88.7</ele>
        <time>2019-10-11T14:40:26Z</time>
      </trkpt>
      <trkpt lat="47.12138" lon="-1.18403">
        <ele>88.6</ele>
        <time>2019-10-11T14:40:27Z</time>
      </trkpt>
      <trkpt lat="47.12141" lon="-1.18404">
        <ele>88.5</ele>
        <time>2019-10-11T14:40:28Z</time>
      </trkpt>
      <trkpt lat="47.12145" lon="-1.18406">
        <ele>88.4</ele>
        <time>2019-10-11T14:40:29Z</time>
      </trkpt>
      <trkpt lat="47.12149" lon="-1.18407">
        <ele>88.3</ele>
        <time>2019-10-11T14:40:30Z</time>
      </trkpt>
      <trkpt lat="47.12154" lon="-1.18408">
        <ele>88.1</ele>
        <time>2019-10-11T14:40:31Z</time>
      </trkpt>
      <trkpt lat="47.12158" lon="-1.1841">
        <ele>88</ele>
        <time>2019-10-11T14:40:32Z</time>
      </trkpt>
      <trkpt lat="47.12163" lon="-1.18411">
        <ele>87.8</ele>
        <time>2019-10-11T14:40:33Z</time>
      </trkpt>
      <trkpt lat="47.12168" lon="-1.18412">
        <ele>87.6</ele>
        <time>2019-10-11T14:40:34Z</time>
      </trkpt>
      <trkpt lat="47.12173" lon="-1.18414">
        <ele>87.4</ele>
        <time>2019-10-11T14:40:35Z</time>
      </trkpt>
      <trkpt lat="47.12178" lon="-1.18415">
        <ele>87.2</ele>
        <time>2019-10-11T14:40:36Z</time>
      </trkpt>
      <trkpt lat="47.12183" lon="-1.18416">
        <ele>87</ele>
        <time>2019-10-11T14:40:37Z</time>
      </trkpt>
      <trkpt lat="47.12189" lon="-1.18418">
        <ele>86.8</ele>
        <time>2019-10-11T14:40:38Z</time>
      </trkpt>
      <trkpt lat="47.12194" lon="-1.18419">
        <ele>86.7</ele>
        <time>2019-10-11T14:40:39Z</time>
      </trkpt>
      <trkpt lat="47.122" lon="-1.1842">
        <ele>86.5</ele>
        <time>2019-10-11T14:40:40Z</time>
      </trkpt>
      <trkpt lat="47.12205" lon="-1.18422">
        <ele>86.2</ele>
        <time>2019-10-11T14:40:41Z</time>
      </trkpt>
      <trkpt lat="47.12211" lon="-1.18423">
        <ele>86.1</ele>
        <time>2019-10-11T14:40:42Z</time>
      </trkpt>
      <trkpt lat="47.12216" lon="-1.18424">
        <ele>85.9</ele>
        <time>2019-10-11T14:40:43Z</time>
      </trkpt>
      <trkpt lat="47.12222" lon="-1.18425">
        <ele>85.8</ele>
        <time>2019-10-11T14:40:44Z</time>
      </trkpt>
      <trkpt lat="47.12227" lon="-1.18427">
        <ele>85.7</ele>
        <time>2019-10-11T14:40:45Z</time>
      </trkpt>
      <trkpt lat="47.12232" lon="-1.18428">
        <ele>85.6</ele>
        <time>2019-10-11T14:40:46Z</time>
      </trkpt>
      <trkpt lat="47.12238" lon="-1.18429">
        <ele>85.4</ele>
        <time>2019-10-11T14:40:47Z</time>
      </trkpt>
      <trkpt lat="47.12243" lon="-1.1843">
        <ele>85.3</ele>
        <time>2019-10-11T14:40:48Z</time>
      </trkpt>
      <trkpt lat="47.12249" lon="-1.18432">
        <ele>85.2</ele>
        <time>2019-10-11T14:40:49Z</time>
      </trkpt>
      <trkpt lat="47.12254" lon="-1.18433">
        <ele>85.1</ele>
        <time>2019-10-11T14:40:50Z</time>
      </trkpt>
      <trkpt lat="47.1226" lon="-1.18434">
        <ele>85</ele>
        <time>2019-10-11T14:40:51Z</time>
      </trkpt>
      <trkpt lat="47.12265" lon="-1.18436">
        <ele>84.9</ele>
        <time>2019-10-11T14:40:52Z</time>
      </trkpt>
      <trkpt lat="47.12271" lon="-1.18437">
        <ele>84.8</ele>
        <time>2019-10-11T14:40:53Z</time>
      </trkpt>
      <trkpt lat="47.12276" lon="-1.18439">
        <ele>84.7</ele>
        <time>2019-10-11T14:40:54Z</time>
      </trkpt>
      <trkpt lat="47.12281" lon="-1.18441">
        <ele>84.5</ele>
        <time>2019-10-11T14:40:55Z</time>
      </trkpt>
      <trkpt lat="47.12286" lon="-1.18444">
        <ele>84.4</ele>
        <time>2019-10-11T14:40:56Z</time>
      </trkpt>
      <trkpt lat="47.12291" lon="-1.18446">
        <ele>84.2</ele>
        <time>2019-10-11T14:40:57Z</time>
      </trkpt>
      <trkpt lat="47.12296" lon="-1.18448">
        <ele>84.1</ele>
        <time>2019-10-11T14:40:58Z</time>
      </trkpt>
      <trkpt lat="47.12301" lon="-1.18451">
        <ele>83.9</ele>
        <time>2019-10-11T14:40:59Z</time>
      </trkpt>
      <trkpt lat="47.12306" lon="-1.18453">
        <ele>83.8</ele>
        <time>2019-10-11T14:41:00Z</time>
      </trkpt>
      <trkpt lat="47.12311" lon="-1.18456">
        <ele>83.7</ele>
        <time>2019-10-11T14:41:01Z</time>
      </trkpt>
      <trkpt lat="47.12316" lon="-1.18459">
        <ele>83.5</ele>
        <time>2019-10-11T14:41:02Z</time>
      </trkpt>
      <trkpt lat="47.12321" lon="-1.18462">
        <ele>83.4</ele>
        <time>2019-10-11T14:41:03Z</time>
      </trkpt>
      <trkpt lat="47.12326" lon="-1.18465">
        <ele>83.2</ele>
        <time>2019-10-11T14:41:04Z</time>
      </trkpt>
      <trkpt lat="47.12332" lon="-1.18468">
        <ele>83.1</ele>
        <time>2019-10-11T14:41:05Z</time>
      </trkpt>
      <trkpt lat="47.12337" lon="-1.1847">
        <ele>83</ele>
        <time>2019-10-11T14:41:06Z</time>
      </trkpt>
      <trkpt lat="47.12343" lon="-1.18474">
        <ele>82.9</ele>
        <time>2019-10-11T14:41:07Z</time>
      </trkpt>
      <trkpt lat="47.12348" lon="-1.18478">
        <ele>82.8</ele>
        <time>2019-10-11T14:41:08Z</time>
      </trkpt>
      <trkpt lat="47.12353" lon="-1.18484">
        <ele>82.6</ele>
        <time>2019-10-11T14:41:09Z</time>
      </trkpt>
      <trkpt lat="47.12357" lon="-1.18492">
        <ele>82.5</ele>
        <time>2019-10-11T14:41:10Z</time>
      </trkpt>
      <trkpt lat="47.12359" lon="-1.185">
        <ele>82.4</ele>
        <time>2019-10-11T14:41:11Z</time>
      </trkpt>
      <trkpt lat="47.12359" lon="-1.18508">
        <ele>82.3</ele>
        <time>2019-10-11T14:41:12Z</time>
      </trkpt>
      <trkpt lat="47.12359" lon="-1.18516">
        <ele>82.2</ele>
        <time>2019-10-11T14:41:13Z</time>
      </trkpt>
      <trkpt lat="47.12358" lon="-1.18524">
        <ele>82.1</ele>
        <time>2019-10-11T14:41:14Z</time>
      </trkpt>
      <trkpt lat="47.12358" lon="-1.18531">
        <ele>82</ele>
        <time>2019-10-11T14:41:15Z</time>
      </trkpt>
      <trkpt lat="47.12357" lon="-1.18539">
        <ele>82</ele>
        <time>2019-10-11T14:41:16Z</time>
      </trkpt>
      <trkpt lat="47.12357" lon="-1.18546">
        <ele>81.9</ele>
        <time>2019-10-11T14:41:17Z</time>
      </trkpt>
      <trkpt lat="47.12356" lon="-1.18553">
        <ele>81.8</ele>
        <time>2019-10-11T14:41:18Z</time>
      </trkpt>
      <trkpt lat="47.12355" lon="-1.1856">
        <ele>81.7</ele>
        <time>2019-10-11T14:41:19Z</time>
      </trkpt>
      <trkpt lat="47.12354" lon="-1.18567">
        <ele>81.6</ele>
        <time>2019-10-11T14:41:20Z</time>
      </trkpt>
      <trkpt lat="47.12354" lon="-1.18574">
        <ele>81.5</ele>
        <time>2019-10-11T14:41:21Z</time>
      </trkpt>
      <trkpt lat="47.12355" lon="-1.18581">
        <ele>81.4</ele>
        <time>2019-10-11T14:41:22Z</time>
      </trkpt>
      <trkpt lat="47.12356" lon="-1.18588">
        <ele>81.3</ele>
        <time>2019-10-11T14:41:23Z</time>
      </trkpt>
      <trkpt lat="47.12358" lon="-1.18595">
        <ele>81.1</ele>
        <time>2019-10-11T14:41:24Z</time>
      </trkpt>
      <trkpt lat="47.12361" lon="-1.18601">
        <ele>81</ele>
        <time>2019-10-11T14:41:25Z</time>
      </trkpt>
      <trkpt lat="47.12364" lon="-1.18606">
        <ele>80.7</ele>
        <time>2019-10-11T14:41:26Z</time>
      </trkpt>
      <trkpt lat="47.12368" lon="-1.18612">
        <ele>80.4</ele>
        <time>2019-10-11T14:41:27Z</time>
      </trkpt>
      <trkpt lat="47.12372" lon="-1.18617">
        <ele>80.2</ele>
        <time>2019-10-11T14:41:28Z</time>
      </trkpt>
      <trkpt lat="47.12375" lon="-1.18622">
        <ele>80</ele>
        <time>2019-10-11T14:41:29Z</time>
      </trkpt>
      <trkpt lat="47.1238" lon="-1.18627">
        <ele>79.8</ele>
        <time>2019-10-11T14:41:30Z</time>
      </trkpt>
      <trkpt lat="47.12384" lon="-1.18632">
        <ele>79.6</ele>
        <time>2019-10-11T14:41:31Z</time>
      </trkpt>
      <trkpt lat="47.12388" lon="-1.18637">
        <ele>79.5</ele>
        <time>2019-10-11T14:41:32Z</time>
      </trkpt>
      <trkpt lat="47.12392" lon="-1.18642">
        <ele>79.3</ele>
        <time>2019-10-11T14:41:33Z</time>
      </trkpt>
      <trkpt lat="47.12396" lon="-1.18648">
        <ele>79.2</ele>
        <time>2019-10-11T14:41:34Z</time>
      </trkpt>
      <trkpt lat="47.12401" lon="-1.18653">
        <ele>79.1</ele>
        <time>2019-10-11T14:41:35Z</time>
      </trkpt>
      <trkpt lat="47.12405" lon="-1.18658">
        <ele>79</ele>
        <time>2019-10-11T14:41:36Z</time>
      </trkpt>
      <trkpt lat="47.12409" lon="-1.18663">
        <ele>78.9</ele>
        <time>2019-10-11T14:41:37Z</time>
      </trkpt>
      <trkpt lat="47.12413" lon="-1.18669">
        <ele>78.8</ele>
        <time>2019-10-11T14:41:38Z</time>
      </trkpt>
      <trkpt lat="47.12417" lon="-1.18674">
        <ele>78.7</ele>
        <time>2019-10-11T14:41:39Z</time>
      </trkpt>
      <trkpt lat="47.12421" lon="-1.1868">
        <ele>78.7</ele>
        <time>2019-10-11T14:41:40Z</time>
      </trkpt>
      <trkpt lat="47.12426" lon="-1.18685">
        <ele>78.6</ele>
        <time>2019-10-11T14:41:41Z</time>
      </trkpt>
      <trkpt lat="47.1243" lon="-1.1869">
        <ele>78.6</ele>
        <time>2019-10-11T14:41:42Z</time>
      </trkpt>
      <trkpt lat="47.12434" lon="-1.18696">
        <ele>78.5</ele>
        <time>2019-10-11T14:41:43Z</time>
      </trkpt>
      <trkpt lat="47.12439" lon="-1.18702">
        <ele>78.4</ele>
        <time>2019-10-11T14:41:44Z</time>
      </trkpt>
      <trkpt lat="47.12444" lon="-1.18707">
        <ele>78.4</ele>
        <time>2019-10-11T14:41:45Z</time>
      </trkpt>
      <trkpt lat="47.12448" lon="-1.18712">
        <ele>78.3</ele>
        <time>2019-10-11T14:41:46Z</time>
      </trkpt>
      <trkpt lat="47.12452" lon="-1.18717">
        <ele>78.2</ele>
        <time>2019-10-11T14:41:47Z</time>
      </trkpt>
      <trkpt lat="47.12456" lon="-1.18722">
        <ele>78.2</ele>
        <time>2019-10-11T14:41:48Z</time>
      </trkpt>
      <trkpt lat="47.1246" lon="-1.18727">
        <ele>78.1</ele>
        <time>2019-10-11T14:41:49Z</time>
      </trkpt>
      <trkpt lat="47.12463" lon="-1.18732">
        <ele>78</ele>
        <time>2019-10-11T14:41:50Z</time>
      </trkpt>
      <trkpt lat="47.12467" lon="-1.18736">
        <ele>77.9</ele>
        <time>2019-10-11T14:41:51Z</time>
      </trkpt>
      <trkpt lat="47.1247" lon="-1.18741">
        <ele>77.9</ele>
        <time>2019-10-11T14:41:52Z</time>
      </trkpt>
      <trkpt lat="47.12474" lon="-1.18746">
        <ele>77.8</ele>
        <time>2019-10-11T14:41:53Z</time>
      </trkpt>
      <trkpt lat="47.12478" lon="-1.1875">
        <ele>77.7</ele>
        <time>2019-10-11T14:41:54Z</time>
      </trkpt>
      <trkpt lat="47.12482" lon="-1.18754">
        <ele>77.6</ele>
        <time>2019-10-11T14:41:55Z</time>
      </trkpt>
      <trkpt lat="47.12486" lon="-1.18759">
        <ele>77.6</ele>
        <time>2019-10-11T14:41:56Z</time>
      </trkpt>
      <trkpt lat="47.1249" lon="-1.18763">
        <ele>77.5</ele>
        <time>2019-10-11T14:41:57Z</time>
      </trkpt>
      <trkpt lat="47.12494" lon="-1.18767">
        <ele>77.4</ele>
        <time>2019-10-11T14:41:58Z</time>
      </trkpt>
      <trkpt lat="47.12499" lon="-1.18771">
        <ele>77.4</ele>
        <time>2019-10-11T14:41:59Z</time>
      </trkpt>
      <trkpt lat="47.12504" lon="-1.18773">
        <ele>77.3</ele>
        <time>2019-10-11T14:42:00Z</time>
      </trkpt>
      <trkpt lat="47.12509" lon="-1.18774">
        <ele>77.2</ele>
        <time>2019-10-11T14:42:01Z</time>
      </trkpt>
      <trkpt lat="47.12515" lon="-1.18774">
        <ele>77.1</ele>
        <time>2019-10-11T14:42:02Z</time>
      </trkpt>
      <trkpt lat="47.12521" lon="-1.18773">
        <ele>77</ele>
        <time>2019-10-11T14:42:03Z</time>
      </trkpt>
      <trkpt lat="47.12527" lon="-1.18772">
        <ele>76.9</ele>
        <time>2019-10-11T14:42:04Z</time>
      </trkpt>
      <trkpt lat="47.12532" lon="-1.1877">
        <ele>76.8</ele>
        <time>2019-10-11T14:42:05Z</time>
      </trkpt>
      <trkpt lat="47.12538" lon="-1.18768">
        <ele>76.7</ele>
        <time>2019-10-11T14:42:06Z</time>
      </trkpt>
      <trkpt lat="47.12543" lon="-1.18767">
        <ele>76.6</ele>
        <time>2019-10-11T14:42:07Z</time>
      </trkpt>
      <trkpt lat="47.12548" lon="-1.18765">
        <ele>76.6</ele>
        <time>2019-10-11T14:42:08Z</time>
      </trkpt>
      <trkpt lat="47.12554" lon="-1.18764">
        <ele>76.5</ele>
        <time>2019-10-11T14:42:09Z</time>
      </trkpt>
      <trkpt lat="47.1256" lon="-1.18763">
        <ele>76.4</ele>
        <time>2019-10-11T14:42:10Z</time>
      </trkpt>
      <trkpt lat="47.12565" lon="-1.18761">
        <ele>76.3</ele>
        <time>2019-10-11T14:42:11Z</time>
      </trkpt>
      <trkpt lat="47.12571" lon="-1.18759">
        <ele>76.2</ele>
        <time>2019-10-11T14:42:12Z</time>
      </trkpt>
      <trkpt lat="47.12577" lon="-1.18758">
        <ele>76.1</ele>
        <time>2019-10-11T14:42:13Z</time>
      </trkpt>
      <trkpt lat="47.12582" lon="-1.18756">
        <ele>76</ele>
        <time>2019-10-11T14:42:14Z</time>
      </trkpt>
      <trkpt lat="47.12587" lon="-1.18755">
        <ele>75.8</ele>
        <time>2019-10-11T14:42:15Z</time>
      </trkpt>
      <trkpt lat="47.12592" lon="-1.18753">
        <ele>75.7</ele>
        <time>2019-10-11T14:42:16Z</time>
      </trkpt>
      <trkpt lat="47.12597" lon="-1.18751">
        <ele>75.5</ele>
        <time>2019-10-11T14:42:17Z</time>
      </trkpt>
      <trkpt lat="47.12603" lon="-1.18749">
        <ele>75.3</ele>
        <time>2019-10-11T14:42:18Z</time>
      </trkpt>
      <trkpt lat="47.12608" lon="-1.18748">
        <ele>75.1</ele>
        <time>2019-10-11T14:42:19Z</time>
      </trkpt>
      <trkpt lat="47.12614" lon="-1.18746">
        <ele>74.9</ele>
        <time>2019-10-11T14:42:20Z</time>
      </trkpt>
      <trkpt lat="47.1262" lon="-1.18745">
        <ele>74.7</ele>
        <time>2019-10-11T14:42:21Z</time>
      </trkpt>
      <trkpt lat="47.12626" lon="-1.18743">
        <ele>74.4</ele>
        <time>2019-10-11T14:42:22Z</time>
      </trkpt>
      <trkpt lat="47.12632" lon="-1.18742">
        <ele>74.2</ele>
        <time>2019-10-11T14:42:23Z</time>
      </trkpt>
      <trkpt lat="47.12638" lon="-1.1874">
        <ele>73.9</ele>
        <time>2019-10-11T14:42:24Z</time>
      </trkpt>
      <trkpt lat="47.12643" lon="-1.18738">
        <ele>73.7</ele>
        <time>2019-10-11T14:42:25Z</time>
      </trkpt>
      <trkpt lat="47.12649" lon="-1.18736">
        <ele>73.5</ele>
        <time>2019-10-11T14:42:26Z</time>
      </trkpt>
      <trkpt lat="47.12654" lon="-1.18734">
        <ele>73.4</ele>
        <time>2019-10-11T14:42:27Z</time>
      </trkpt>
      <trkpt lat="47.1266" lon="-1.18733">
        <ele>73.2</ele>
        <time>2019-10-11T14:42:28Z</time>
      </trkpt>
      <trkpt lat="47.12666" lon="-1.18731">
        <ele>73.1</ele>
        <time>2019-10-11T14:42:29Z</time>
      </trkpt>
      <trkpt lat="47.12671" lon="-1.18729">
        <ele>72.9</ele>
        <time>2019-10-11T14:42:30Z</time>
      </trkpt>
      <trkpt lat="47.12677" lon="-1.18727">
        <ele>72.8</ele>
        <time>2019-10-11T14:42:31Z</time>
      </trkpt>
      <trkpt lat="47.12682" lon="-1.18725">
        <ele>72.8</ele>
        <time>2019-10-11T14:42:32Z</time>
      </trkpt>
      <trkpt lat="47.12687" lon="-1.18723">
        <ele>72.8</ele>
        <time>2019-10-11T14:42:33Z</time>
      </trkpt>
      <trkpt lat="47.12693" lon="-1.18721">
        <ele>72.7</ele>
        <time>2019-10-11T14:42:34Z</time>
      </trkpt>
      <trkpt lat="47.12696" lon="-1.1872">
        <ele>72.8</ele>
        <time>2019-10-11T14:42:35Z</time>
      </trkpt>
      <trkpt lat="47.12701" lon="-1.18719">
        <ele>72.8</ele>
        <time>2019-10-11T14:42:36Z</time>
      </trkpt>
      <trkpt lat="47.12705" lon="-1.18718">
        <ele>72.9</ele>
        <time>2019-10-11T14:42:37Z</time>
      </trkpt>
      <trkpt lat="47.1271" lon="-1.18718">
        <ele>73.1</ele>
        <time>2019-10-11T14:42:38Z</time>
      </trkpt>
      <trkpt lat="47.12715" lon="-1.18717">
        <ele>73.3</ele>
        <time>2019-10-11T14:42:39Z</time>
      </trkpt>
      <trkpt lat="47.1272" lon="-1.18717">
        <ele>73.6</ele>
        <time>2019-10-11T14:42:40Z</time>
      </trkpt>
      <trkpt lat="47.12725" lon="-1.18717">
        <ele>74</ele>
        <time>2019-10-11T14:42:41Z</time>
      </trkpt>
      <trkpt lat="47.1273" lon="-1.18717">
        <ele>74.4</ele>
        <time>2019-10-11T14:42:42Z</time>
      </trkpt>
      <trkpt lat="47.12735" lon="-1.18717">
        <ele>74.8</ele>
        <time>2019-10-11T14:42:43Z</time>
      </trkpt>
      <trkpt lat="47.1274" lon="-1.18717">
        <ele>75</ele>
        <time>2019-10-11T14:42:44Z</time>
      </trkpt>
      <trkpt lat="47.12745" lon="-1.18717">
        <ele>75.2</ele>
        <time>2019-10-11T14:42:45Z</time>
      </trkpt>
      <trkpt lat="47.1275" lon="-1.18717">
        <ele>75.4</ele>
        <time>2019-10-11T14:42:46Z</time>
      </trkpt>
      <trkpt lat="47.12754" lon="-1.18717">
        <ele>75.6</ele>
        <time>2019-10-11T14:42:47Z</time>
      </trkpt>
      <trkpt lat="47.12759" lon="-1.18717">
        <ele>75.8</ele>
        <time>2019-10-11T14:42:48Z</time>
      </trkpt>
      <trkpt lat="47.12763" lon="-1.18717">
        <ele>76</ele>
        <time>2019-10-11T14:42:49Z</time>
      </trkpt>
      <trkpt lat="47.12767" lon="-1.18717">
        <ele>76.2</ele>
        <time>2019-10-11T14:42:50Z</time>
      </trkpt>
      <trkpt lat="47.12771" lon="-1.18717">
        <ele>76.3</ele>
        <time>2019-10-11T14:42:51Z</time>
      </trkpt>
      <trkpt lat="47.12775" lon="-1.18717">
        <ele>76.4</ele>
        <time>2019-10-11T14:42:52Z</time>
      </trkpt>
      <trkpt lat="47.12779" lon="-1.18717">
        <ele>76.5</ele>
        <time>2019-10-11T14:42:53Z</time>
      </trkpt>
      <trkpt lat="47.12783" lon="-1.18717">
        <ele>76.6</ele>
        <time>2019-10-11T14:42:54Z</time>
      </trkpt>
      <trkpt lat="47.12788" lon="-1.18718">
        <ele>76.7</ele>
        <time>2019-10-11T14:42:55Z</time>
      </trkpt>
      <trkpt lat="47.12792" lon="-1.18718">
        <ele>76.8</ele>
        <time>2019-10-11T14:42:56Z</time>
      </trkpt>
      <trkpt lat="47.12796" lon="-1.18719">
        <ele>76.9</ele>
        <time>2019-10-11T14:42:57Z</time>
      </trkpt>
      <trkpt lat="47.12801" lon="-1.18719">
        <ele>76.9</ele>
        <time>2019-10-11T14:42:58Z</time>
      </trkpt>
      <trkpt lat="47.12806" lon="-1.18719">
        <ele>77</ele>
        <time>2019-10-11T14:42:59Z</time>
      </trkpt>
      <trkpt lat="47.1281" lon="-1.18719">
        <ele>77.1</ele>
        <time>2019-10-11T14:43:00Z</time>
      </trkpt>
      <trkpt lat="47.12815" lon="-1.18719">
        <ele>77.1</ele>
        <time>2019-10-11T14:43:01Z</time>
      </trkpt>
      <trkpt lat="47.1282" lon="-1.18719">
        <ele>77.2</ele>
        <time>2019-10-11T14:43:02Z</time>
      </trkpt>
      <trkpt lat="47.12824" lon="-1.18719">
        <ele>77.2</ele>
        <time>2019-10-11T14:43:03Z</time>
      </trkpt>
      <trkpt lat="47.12828" lon="-1.1872">
        <ele>77.2</ele>
        <time>2019-10-11T14:43:04Z</time>
      </trkpt>
      <trkpt lat="47.12832" lon="-1.1872">
        <ele>77.2</ele>
        <time>2019-10-11T14:43:05Z</time>
      </trkpt>
      <trkpt lat="47.12836" lon="-1.1872">
        <ele>77.2</ele>
        <time>2019-10-11T14:43:06Z</time>
      </trkpt>
      <trkpt lat="47.12841" lon="-1.1872">
        <ele>77.3</ele>
        <time>2019-10-11T14:43:07Z</time>
      </trkpt>
      <trkpt lat="47.12845" lon="-1.18721">
        <ele>77.3</ele>
        <time>2019-10-11T14:43:08Z</time>
      </trkpt>
      <trkpt lat="47.12849" lon="-1.18721">
        <ele>77.2</ele>
        <time>2019-10-11T14:43:09Z</time>
      </trkpt>
      <trkpt lat="47.12853" lon="-1.18722">
        <ele>77.2</ele>
        <time>2019-10-11T14:43:10Z</time>
      </trkpt>
      <trkpt lat="47.12857" lon="-1.18722">
        <ele>77.2</ele>
        <time>2019-10-11T14:43:11Z</time>
      </trkpt>
      <trkpt lat="47.12861" lon="-1.18723">
        <ele>77.2</ele>
        <time>2019-10-11T14:43:12Z</time>
      </trkpt>
      <trkpt lat="47.12865" lon="-1.18723">
        <ele>77.1</ele>
        <time>2019-10-11T14:43:13Z</time>
      </trkpt>
      <trkpt lat="47.1287" lon="-1.18723">
        <ele>77.1</ele>
        <time>2019-10-11T14:43:14Z</time>
      </trkpt>
      <trkpt lat="47.12874" lon="-1.18724">
        <ele>77</ele>
        <time>2019-10-11T14:43:15Z</time>
      </trkpt>
      <trkpt lat="47.12878" lon="-1.18724">
        <ele>77</ele>
        <time>2019-10-11T14:43:16Z</time>
      </trkpt>
      <trkpt lat="47.12883" lon="-1.18724">
        <ele>76.9</ele>
        <time>2019-10-11T14:43:17Z</time>
      </trkpt>
      <trkpt lat="47.12887" lon="-1.18725">
        <ele>76.9</ele>
        <time>2019-10-11T14:43:18Z</time>
      </trkpt>
      <trkpt lat="47.12892" lon="-1.18725">
        <ele>76.8</ele>
        <time>2019-10-11T14:43:19Z</time>
      </trkpt>
      <trkpt lat="47.12896" lon="-1.18725">
        <ele>76.7</ele>
        <time>2019-10-11T14:43:20Z</time>
      </trkpt>
      <trkpt lat="47.129" lon="-1.18725">
        <ele>76.7</ele>
        <time>2019-10-11T14:43:21Z</time>
      </trkpt>
      <trkpt lat="47.12904" lon="-1.18726">
        <ele>76.6</ele>
        <time>2019-10-11T14:43:22Z</time>
      </trkpt>
      <trkpt lat="47.12908" lon="-1.18726">
        <ele>76.6</ele>
        <time>2019-10-11T14:43:23Z</time>
      </trkpt>
      <trkpt lat="47.12912" lon="-1.18726">
        <ele>76.5</ele>
        <time>2019-10-11T14:43:24Z</time>
      </trkpt>
      <trkpt lat="47.12916" lon="-1.18726">
        <ele>76.5</ele>
        <time>2019-10-11T14:43:25Z</time>
      </trkpt>
      <trkpt lat="47.1292" lon="-1.18725">
        <ele>76.5</ele>
        <time>2019-10-11T14:43:26Z</time>
      </trkpt>
      <trkpt lat="47.12924" lon="-1.18725">
        <ele>76.4</ele>
        <time>2019-10-11T14:43:27Z</time>
      </trkpt>
      <trkpt lat="47.12928" lon="-1.18724">
        <ele>76.4</ele>
        <time>2019-10-11T14:43:28Z</time>
      </trkpt>
      <trkpt lat="47.12932" lon="-1.18723">
        <ele>76.4</ele>
        <time>2019-10-11T14:43:29Z</time>
      </trkpt>
      <trkpt lat="47.12936" lon="-1.18721">
        <ele>76.3</ele>
        <time>2019-10-11T14:43:30Z</time>
      </trkpt>
      <trkpt lat="47.1294" lon="-1.1872">
        <ele>76.3</ele>
        <time>2019-10-11T14:43:31Z</time>
      </trkpt>
      <trkpt lat="47.12943" lon="-1.18718">
        <ele>76.3</ele>
        <time>2019-10-11T14:43:32Z</time>
      </trkpt>
      <trkpt lat="47.12947" lon="-1.18716">
        <ele>76.3</ele>
        <time>2019-10-11T14:43:33Z</time>
      </trkpt>
      <trkpt lat="47.12952" lon="-1.18716">
        <ele>76.3</ele>
        <time>2019-10-11T14:43:34Z</time>
      </trkpt>
      <trkpt lat="47.12956" lon="-1.18718">
        <ele>76.2</ele>
        <time>2019-10-11T14:43:35Z</time>
      </trkpt>
      <trkpt lat="47.12961" lon="-1.18719">
        <ele>76.1</ele>
        <time>2019-10-11T14:43:36Z</time>
      </trkpt>
      <trkpt lat="47.12965" lon="-1.18723">
        <ele>75.9</ele>
        <time>2019-10-11T14:43:37Z</time>
      </trkpt>
      <trkpt lat="47.12969" lon="-1.18727">
        <ele>75.8</ele>
        <time>2019-10-11T14:43:38Z</time>
      </trkpt>
      <trkpt lat="47.12973" lon="-1.18732">
        <ele>75.7</ele>
        <time>2019-10-11T14:43:39Z</time>
      </trkpt>
      <trkpt lat="47.12978" lon="-1.18736">
        <ele>75.6</ele>
        <time>2019-10-11T14:43:40Z</time>
      </trkpt>
      <trkpt lat="47.12982" lon="-1.1874">
        <ele>75.4</ele>
        <time>2019-10-11T14:43:41Z</time>
      </trkpt>
      <trkpt lat="47.12987" lon="-1.18745">
        <ele>75.3</ele>
        <time>2019-10-11T14:43:42Z</time>
      </trkpt>
      <trkpt lat="47.12992" lon="-1.1875">
        <ele>75.1</ele>
        <time>2019-10-11T14:43:43Z</time>
      </trkpt>
      <trkpt lat="47.12997" lon="-1.18754">
        <ele>74.9</ele>
        <time>2019-10-11T14:43:44Z</time>
      </trkpt>
      <trkpt lat="47.13002" lon="-1.18759">
        <ele>74.8</ele>
        <time>2019-10-11T14:43:45Z</time>
      </trkpt>
      <trkpt lat="47.13007" lon="-1.18763">
        <ele>74.6</ele>
        <time>2019-10-11T14:43:46Z</time>
      </trkpt>
      <trkpt lat="47.13012" lon="-1.18768">
        <ele>74.5</ele>
        <time>2019-10-11T14:43:47Z</time>
      </trkpt>
      <trkpt lat="47.13016" lon="-1.18772">
        <ele>74.3</ele>
        <time>2019-10-11T14:43:48Z</time>
      </trkpt>
      <trkpt lat="47.13021" lon="-1.18776">
        <ele>74.3</ele>
        <time>2019-10-11T14:43:49Z</time>
      </trkpt>
      <trkpt lat="47.13026" lon="-1.18781">
        <ele>74.2</ele>
        <time>2019-10-11T14:43:50Z</time>
      </trkpt>
      <trkpt lat="47.1303" lon="-1.18785">
        <ele>74.1</ele>
        <time>2019-10-11T14:43:51Z</time>
      </trkpt>
      <trkpt lat="47.13035" lon="-1.18789">
        <ele>74</ele>
        <time>2019-10-11T14:43:52Z</time>
      </trkpt>
      <trkpt lat="47.13039" lon="-1.18794">
        <ele>73.8</ele>
        <time>2019-10-11T14:43:53Z</time>
      </trkpt>
      <trkpt lat="47.13043" lon="-1.18798">
        <ele>73.7</ele>
        <time>2019-10-11T14:43:54Z</time>
      </trkpt>
      <trkpt lat="47.13047" lon="-1.18801">
        <ele>73.6</ele>
        <time>2019-10-11T14:43:55Z</time>
      </trkpt>
      <trkpt lat="47.13051" lon="-1.18805">
        <ele>73.5</ele>
        <time>2019-10-11T14:43:56Z</time>
      </trkpt>
      <trkpt lat="47.13054" lon="-1.18809">
        <ele>73.4</ele>
        <time>2019-10-11T14:43:57Z</time>
      </trkpt>
      <trkpt lat="47.13057" lon="-1.18813">
        <ele>73.3</ele>
        <time>2019-10-11T14:43:58Z</time>
      </trkpt>
      <trkpt lat="47.1306" lon="-1.18818">
        <ele>73.1</ele>
        <time>2019-10-11T14:43:59Z</time>
      </trkpt>
      <trkpt lat="47.13063" lon="-1.18823">
        <ele>72.9</ele>
        <time>2019-10-11T14:44:00Z</time>
      </trkpt>
      <trkpt lat="47.13065" lon="-1.18829">
        <ele>72.7</ele>
        <time>2019-10-11T14:44:01Z</time>
      </trkpt>
      <trkpt lat="47.13067" lon="-1.18835">
        <ele>72.5</ele>
        <time>2019-10-11T14:44:02Z</time>
      </trkpt>
      <trkpt lat="47.1307" lon="-1.18842">
        <ele>72.4</ele>
        <time>2019-10-11T14:44:03Z</time>
      </trkpt>
      <trkpt lat="47.13072" lon="-1.18848">
        <ele>72.3</ele>
        <time>2019-10-11T14:44:04Z</time>
      </trkpt>
      <trkpt lat="47.13074" lon="-1.18855">
        <ele>72.2</ele>
        <time>2019-10-11T14:44:05Z</time>
      </trkpt>
      <trkpt lat="47.13076" lon="-1.18861">
        <ele>72</ele>
        <time>2019-10-11T14:44:06Z</time>
      </trkpt>
      <trkpt lat="47.13078" lon="-1.18867">
        <ele>71.9</ele>
        <time>2019-10-11T14:44:07Z</time>
      </trkpt>
      <trkpt lat="47.1308" lon="-1.18874">
        <ele>71.8</ele>
        <time>2019-10-11T14:44:08Z</time>
      </trkpt>
      <trkpt lat="47.13082" lon="-1.1888">
        <ele>71.7</ele>
        <time>2019-10-11T14:44:09Z</time>
      </trkpt>
      <trkpt lat="47.13084" lon="-1.18886">
        <ele>71.6</ele>
        <time>2019-10-11T14:44:10Z</time>
      </trkpt>
      <trkpt lat="47.13087" lon="-1.18892">
        <ele>71.5</ele>
        <time>2019-10-11T14:44:11Z</time>
      </trkpt>
      <trkpt lat="47.1309" lon="-1.18898">
        <ele>71.3</ele>
        <time>2019-10-11T14:44:12Z</time>
      </trkpt>
      <trkpt lat="47.13094" lon="-1.18903">
        <ele>71.2</ele>
        <time>2019-10-11T14:44:13Z</time>
      </trkpt>
      <trkpt lat="47.13097" lon="-1.18909">
        <ele>71.1</ele>
        <time>2019-10-11T14:44:14Z</time>
      </trkpt>
      <trkpt lat="47.13101" lon="-1.18915">
        <ele>70.9</ele>
        <time>2019-10-11T14:44:15Z</time>
      </trkpt>
      <trkpt lat="47.13105" lon="-1.18921">
        <ele>70.8</ele>
        <time>2019-10-11T14:44:16Z</time>
      </trkpt>
      <trkpt lat="47.13109" lon="-1.18926">
        <ele>70.7</ele>
        <time>2019-10-11T14:44:17Z</time>
      </trkpt>
      <trkpt lat="47.13112" lon="-1.18931">
        <ele>70.7</ele>
        <time>2019-10-11T14:44:18Z</time>
      </trkpt>
      <trkpt lat="47.13116" lon="-1.18937">
        <ele>70.6</ele>
        <time>2019-10-11T14:44:19Z</time>
      </trkpt>
      <trkpt lat="47.13119" lon="-1.18942">
        <ele>70.6</ele>
        <time>2019-10-11T14:44:20Z</time>
      </trkpt>
      <trkpt lat="47.13123" lon="-1.18947">
        <ele>70.6</ele>
        <time>2019-10-11T14:44:21Z</time>
      </trkpt>
      <trkpt lat="47.13126" lon="-1.18952">
        <ele>70.6</ele>
        <time>2019-10-11T14:44:22Z</time>
      </trkpt>
      <trkpt lat="47.1313" lon="-1.18957">
        <ele>70.6</ele>
        <time>2019-10-11T14:44:23Z</time>
      </trkpt>
      <trkpt lat="47.13135" lon="-1.18961">
        <ele>70.8</ele>
        <time>2019-10-11T14:44:24Z</time>
      </trkpt>
      <trkpt lat="47.13139" lon="-1.18965">
        <ele>70.9</ele>
        <time>2019-10-11T14:44:25Z</time>
      </trkpt>
      <trkpt lat="47.13144" lon="-1.18968">
        <ele>71.1</ele>
        <time>2019-10-11T14:44:26Z</time>
      </trkpt>
      <trkpt lat="47.13149" lon="-1.1897">
        <ele>71.3</ele>
        <time>2019-10-11T14:44:27Z</time>
      </trkpt>
      <trkpt lat="47.13154" lon="-1.18972">
        <ele>71.5</ele>
        <time>2019-10-11T14:44:28Z</time>
      </trkpt>
      <trkpt lat="47.13159" lon="-1.18973">
        <ele>71.7</ele>
        <time>2019-10-11T14:44:29Z</time>
      </trkpt>
      <trkpt lat="47.13164" lon="-1.18974">
        <ele>72</ele>
        <time>2019-10-11T14:44:30Z</time>
      </trkpt>
      <trkpt lat="47.13169" lon="-1.18975">
        <ele>72.3</ele>
        <time>2019-10-11T14:44:31Z</time>
      </trkpt>
      <trkpt lat="47.13173" lon="-1.18976">
        <ele>72.4</ele>
        <time>2019-10-11T14:44:32Z</time>
      </trkpt>
      <trkpt lat="47.13177" lon="-1.18976">
        <ele>72.6</ele>
        <time>2019-10-11T14:44:33Z</time>
      </trkpt>
      <trkpt lat="47.13181" lon="-1.18976">
        <ele>72.7</ele>
        <time>2019-10-11T14:44:34Z</time>
      </trkpt>
      <trkpt lat="47.13185" lon="-1.18977">
        <ele>72.9</ele>
        <time>2019-10-11T14:44:35Z</time>
      </trkpt>
      <trkpt lat="47.13189" lon="-1.18977">
        <ele>73</ele>
        <time>2019-10-11T14:44:36Z</time>
      </trkpt>
      <trkpt lat="47.13192" lon="-1.18978">
        <ele>73.2</ele>
        <time>2019-10-11T14:44:37Z</time>
      </trkpt>
      <trkpt lat="47.13196" lon="-1.18978">
        <ele>73.4</ele>
        <time>2019-10-11T14:44:38Z</time>
      </trkpt>
      <trkpt lat="47.132" lon="-1.18978">
        <ele>73.5</ele>
        <time>2019-10-11T14:44:39Z</time>
      </trkpt>
      <trkpt lat="47.13204" lon="-1.18978">
        <ele>73.7</ele>
        <time>2019-10-11T14:44:40Z</time>
      </trkpt>
      <trkpt lat="47.13207" lon="-1.18978">
        <ele>74</ele>
        <time>2019-10-11T14:44:41Z</time>
      </trkpt>
      <trkpt lat="47.13211" lon="-1.18979">
        <ele>74.1</ele>
        <time>2019-10-11T14:44:42Z</time>
      </trkpt>
      <trkpt lat="47.13215" lon="-1.18979">
        <ele>74.2</ele>
        <time>2019-10-11T14:44:43Z</time>
      </trkpt>
      <trkpt lat="47.13218" lon="-1.18979">
        <ele>74.3</ele>
        <time>2019-10-11T14:44:44Z</time>
      </trkpt>
      <trkpt lat="47.13222" lon="-1.18979">
        <ele>74.4</ele>
        <time>2019-10-11T14:44:45Z</time>
      </trkpt>
      <trkpt lat="47.13226" lon="-1.18978">
        <ele>74.5</ele>
        <time>2019-10-11T14:44:46Z</time>
      </trkpt>
      <trkpt lat="47.1323" lon="-1.18978">
        <ele>74.6</ele>
        <time>2019-10-11T14:44:47Z</time>
      </trkpt>
      <trkpt lat="47.13233" lon="-1.18978">
        <ele>74.7</ele>
        <time>2019-10-11T14:44:48Z</time>
      </trkpt>
      <trkpt lat="47.13237" lon="-1.18978">
        <ele>74.8</ele>
        <time>2019-10-11T14:44:49Z</time>
      </trkpt>
      <trkpt lat="47.13241" lon="-1.18978">
        <ele>74.9</ele>
        <time>2019-10-11T14:44:50Z</time>
      </trkpt>
      <trkpt lat="47.13244" lon="-1.18979">
        <ele>75</ele>
        <time>2019-10-11T14:44:51Z</time>
      </trkpt>
      <trkpt lat="47.13248" lon="-1.1898">
        <ele>75.1</ele>
        <time>2019-10-11T14:44:52Z</time>
      </trkpt>
      <trkpt lat="47.13251" lon="-1.18981">
        <ele>75.2</ele>
        <time>2019-10-11T14:44:53Z</time>
      </trkpt>
      <trkpt lat="47.13255" lon="-1.18982">
        <ele>75.3</ele>
        <time>2019-10-11T14:44:54Z</time>
      </trkpt>
      <trkpt lat="47.13258" lon="-1.18984">
        <ele>75.4</ele>
        <time>2019-10-11T14:44:55Z</time>
      </trkpt>
      <trkpt lat="47.13261" lon="-1.18985">
        <ele>75.5</ele>
        <time>2019-10-11T14:44:56Z</time>
      </trkpt>
      <trkpt lat="47.13265" lon="-1.18986">
        <ele>75.5</ele>
        <time>2019-10-11T14:44:57Z</time>
      </trkpt>
      <trkpt lat="47.13268" lon="-1.18988">
        <ele>75.6</ele>
        <time>2019-10-11T14:44:58Z</time>
      </trkpt>
      <trkpt lat="47.13272" lon="-1.18989">
        <ele>75.7</ele>
        <time>2019-10-11T14:44:59Z</time>
      </trkpt>
      <trkpt lat="47.13275" lon="-1.18991">
        <ele>75.7</ele>
        <time>2019-10-11T14:45:00Z</time>
      </trkpt>
      <trkpt lat="47.13278" lon="-1.18992">
        <ele>75.8</ele>
        <time>2019-10-11T14:45:01Z</time>
      </trkpt>
      <trkpt lat="47.13282" lon="-1.18992">
        <ele>75.9</ele>
        <time>2019-10-11T14:45:02Z</time>
      </trkpt>
      <trkpt lat="47.13286" lon="-1.18993">
        <ele>76</ele>
        <time>2019-10-11T14:45:03Z</time>
      </trkpt>
      <trkpt lat="47.13289" lon="-1.18994">
        <ele>76.1</ele>
        <time>2019-10-11T14:45:04Z</time>
      </trkpt>
      <trkpt lat="47.13292" lon="-1.18994">
        <ele>76.1</ele>
        <time>2019-10-11T14:45:05Z</time>
      </trkpt>
      <trkpt lat="47.13295" lon="-1.18995">
        <ele>76.2</ele>
        <time>2019-10-11T14:45:06Z</time>
      </trkpt>
      <trkpt lat="47.13298" lon="-1.18995">
        <ele>76.3</ele>
        <time>2019-10-11T14:45:08Z</time>
      </trkpt>
      <trkpt lat="47.13303" lon="-1.18995">
        <ele>76.5</ele>
        <time>2019-10-11T14:45:10Z</time>
      </trkpt>
      <trkpt lat="47.13308" lon="-1.18993">
        <ele>76.5</ele>
        <time>2019-10-11T14:45:12Z</time>
      </trkpt>
      <trkpt lat="47.13313" lon="-1.18994">
        <ele>76.9</ele>
        <time>2019-10-11T14:45:14Z</time>
      </trkpt>
      <trkpt lat="47.13318" lon="-1.18997">
        <ele>77.2</ele>
        <time>2019-10-11T14:45:16Z</time>
      </trkpt>
      <trkpt lat="47.13322" lon="-1.19001">
        <ele>77.3</ele>
        <time>2019-10-11T14:45:18Z</time>
      </trkpt>
      <trkpt lat="47.13325" lon="-1.19004">
        <ele>77.4</ele>
        <time>2019-10-11T14:45:19Z</time>
      </trkpt>
      <trkpt lat="47.13327" lon="-1.19006">
        <ele>77.5</ele>
        <time>2019-10-11T14:45:20Z</time>
      </trkpt>
      <trkpt lat="47.1333" lon="-1.19009">
        <ele>77.6</ele>
        <time>2019-10-11T14:45:21Z</time>
      </trkpt>
      <trkpt lat="47.13333" lon="-1.19011">
        <ele>77.7</ele>
        <time>2019-10-11T14:45:22Z</time>
      </trkpt>
      <trkpt lat="47.13335" lon="-1.19013">
        <ele>77.8</ele>
        <time>2019-10-11T14:45:23Z</time>
      </trkpt>
      <trkpt lat="47.13338" lon="-1.19015">
        <ele>77.9</ele>
        <time>2019-10-11T14:45:24Z</time>
      </trkpt>
      <trkpt lat="47.1334" lon="-1.19018">
        <ele>78</ele>
        <time>2019-10-11T14:45:25Z</time>
      </trkpt>
      <trkpt lat="47.13343" lon="-1.19021">
        <ele>78.1</ele>
        <time>2019-10-11T14:45:26Z</time>
      </trkpt>
      <trkpt lat="47.13346" lon="-1.19023">
        <ele>78.2</ele>
        <time>2019-10-11T14:45:27Z</time>
      </trkpt>
      <trkpt lat="47.13348" lon="-1.19025">
        <ele>78.2</ele>
        <time>2019-10-11T14:45:28Z</time>
      </trkpt>
      <trkpt lat="47.13351" lon="-1.19028">
        <ele>78.3</ele>
        <time>2019-10-11T14:45:29Z</time>
      </trkpt>
      <trkpt lat="47.13354" lon="-1.1903">
        <ele>78.3</ele>
        <time>2019-10-11T14:45:30Z</time>
      </trkpt>
      <trkpt lat="47.13356" lon="-1.19032">
        <ele>78.3</ele>
        <time>2019-10-11T14:45:31Z</time>
      </trkpt>
      <trkpt lat="47.13359" lon="-1.19034">
        <ele>78.3</ele>
        <time>2019-10-11T14:45:32Z</time>
      </trkpt>
      <trkpt lat="47.13362" lon="-1.19037">
        <ele>78.4</ele>
        <time>2019-10-11T14:45:33Z</time>
      </trkpt>
      <trkpt lat="47.13364" lon="-1.1904">
        <ele>78.4</ele>
        <time>2019-10-11T14:45:34Z</time>
      </trkpt>
      <trkpt lat="47.13367" lon="-1.19042">
        <ele>78.4</ele>
        <time>2019-10-11T14:45:35Z</time>
      </trkpt>
      <trkpt lat="47.1337" lon="-1.19045">
        <ele>78.4</ele>
        <time>2019-10-11T14:45:36Z</time>
      </trkpt>
      <trkpt lat="47.13372" lon="-1.19048">
        <ele>78.4</ele>
        <time>2019-10-11T14:45:37Z</time>
      </trkpt>
      <trkpt lat="47.13375" lon="-1.19051">
        <ele>78.4</ele>
        <time>2019-10-11T14:45:38Z</time>
      </trkpt>
      <trkpt lat="47.13378" lon="-1.19054">
        <ele>78.4</ele>
        <time>2019-10-11T14:45:39Z</time>
      </trkpt>
      <trkpt lat="47.13381" lon="-1.19058">
        <ele>78.4</ele>
        <time>2019-10-11T14:45:40Z</time>
      </trkpt>
      <trkpt lat="47.13383" lon="-1.1906">
        <ele>78.4</ele>
        <time>2019-10-11T14:45:41Z</time>
      </trkpt>
      <trkpt lat="47.13386" lon="-1.19063">
        <ele>78.4</ele>
        <time>2019-10-11T14:45:42Z</time>
      </trkpt>
      <trkpt lat="47.13389" lon="-1.19066">
        <ele>78.4</ele>
        <time>2019-10-11T14:45:43Z</time>
      </trkpt>
      <trkpt lat="47.13392" lon="-1.19069">
        <ele>78.4</ele>
        <time>2019-10-11T14:45:44Z</time>
      </trkpt>
      <trkpt lat="47.13395" lon="-1.19071">
        <ele>78.4</ele>
        <time>2019-10-11T14:45:45Z</time>
      </trkpt>
      <trkpt lat="47.13397" lon="-1.19074">
        <ele>78.4</ele>
        <time>2019-10-11T14:45:46Z</time>
      </trkpt>
      <trkpt lat="47.134" lon="-1.19077">
        <ele>78.4</ele>
        <time>2019-10-11T14:45:47Z</time>
      </trkpt>
      <trkpt lat="47.13403" lon="-1.19079">
        <ele>78.4</ele>
        <time>2019-10-11T14:45:48Z</time>
      </trkpt>
      <trkpt lat="47.13406" lon="-1.19082">
        <ele>78.4</ele>
        <time>2019-10-11T14:45:49Z</time>
      </trkpt>
      <trkpt lat="47.13409" lon="-1.19085">
        <ele>78.4</ele>
        <time>2019-10-11T14:45:50Z</time>
      </trkpt>
      <trkpt lat="47.13412" lon="-1.19088">
        <ele>78.4</ele>
        <time>2019-10-11T14:45:51Z</time>
      </trkpt>
      <trkpt lat="47.13415" lon="-1.19091">
        <ele>78.5</ele>
        <time>2019-10-11T14:45:52Z</time>
      </trkpt>
      <trkpt lat="47.13418" lon="-1.19094">
        <ele>78.5</ele>
        <time>2019-10-11T14:45:53Z</time>
      </trkpt>
      <trkpt lat="47.13421" lon="-1.19097">
        <ele>78.5</ele>
        <time>2019-10-11T14:45:54Z</time>
      </trkpt>
      <trkpt lat="47.13423" lon="-1.191">
        <ele>78.5</ele>
        <time>2019-10-11T14:45:55Z</time>
      </trkpt>
      <trkpt lat="47.13426" lon="-1.19102">
        <ele>78.5</ele>
        <time>2019-10-11T14:45:56Z</time>
      </trkpt>
      <trkpt lat="47.13428" lon="-1.19106">
        <ele>78.6</ele>
        <time>2019-10-11T14:45:57Z</time>
      </trkpt>
      <trkpt lat="47.13431" lon="-1.19108">
        <ele>78.6</ele>
        <time>2019-10-11T14:45:58Z</time>
      </trkpt>
      <trkpt lat="47.13434" lon="-1.19111">
        <ele>78.7</ele>
        <time>2019-10-11T14:45:59Z</time>
      </trkpt>
      <trkpt lat="47.13437" lon="-1.19114">
        <ele>78.8</ele>
        <time>2019-10-11T14:46:00Z</time>
      </trkpt>
      <trkpt lat="47.1344" lon="-1.19116">
        <ele>78.8</ele>
        <time>2019-10-11T14:46:01Z</time>
      </trkpt>
      <trkpt lat="47.13443" lon="-1.19118">
        <ele>78.9</ele>
        <time>2019-10-11T14:46:02Z</time>
      </trkpt>
      <trkpt lat="47.13445" lon="-1.1912">
        <ele>78.9</ele>
        <time>2019-10-11T14:46:03Z</time>
      </trkpt>
      <trkpt lat="47.13448" lon="-1.19123">
        <ele>79</ele>
        <time>2019-10-11T14:46:04Z</time>
      </trkpt>
      <trkpt lat="47.13451" lon="-1.19125">
        <ele>79</ele>
        <time>2019-10-11T14:46:05Z</time>
      </trkpt>
      <trkpt lat="47.13453" lon="-1.19128">
        <ele>79</ele>
        <time>2019-10-11T14:46:06Z</time>
      </trkpt>
      <trkpt lat="47.13456" lon="-1.19131">
        <ele>79.1</ele>
        <time>2019-10-11T14:46:07Z</time>
      </trkpt>
      <trkpt lat="47.13459" lon="-1.19134">
        <ele>79.1</ele>
        <time>2019-10-11T14:46:08Z</time>
      </trkpt>
      <trkpt lat="47.13461" lon="-1.19137">
        <ele>79.2</ele>
        <time>2019-10-11T14:46:09Z</time>
      </trkpt>
      <trkpt lat="47.13464" lon="-1.19139">
        <ele>79.2</ele>
        <time>2019-10-11T14:46:10Z</time>
      </trkpt>
      <trkpt lat="47.13467" lon="-1.19142">
        <ele>79.2</ele>
        <time>2019-10-11T14:46:11Z</time>
      </trkpt>
      <trkpt lat="47.13469" lon="-1.19144">
        <ele>79.3</ele>
        <time>2019-10-11T14:46:12Z</time>
      </trkpt>
      <trkpt lat="47.13472" lon="-1.19147">
        <ele>79.3</ele>
        <time>2019-10-11T14:46:13Z</time>
      </trkpt>
      <trkpt lat="47.13474" lon="-1.19149">
        <ele>79.4</ele>
        <time>2019-10-11T14:46:14Z</time>
      </trkpt>
      <trkpt lat="47.13477" lon="-1.19152">
        <ele>79.4</ele>
        <time>2019-10-11T14:46:15Z</time>
      </trkpt>
      <trkpt lat="47.1348" lon="-1.19154">
        <ele>79.5</ele>
        <time>2019-10-11T14:46:16Z</time>
      </trkpt>
      <trkpt lat="47.13483" lon="-1.19157">
        <ele>79.5</ele>
        <time>2019-10-11T14:46:17Z</time>
      </trkpt>
      <trkpt lat="47.13486" lon="-1.1916">
        <ele>79.6</ele>
        <time>2019-10-11T14:46:18Z</time>
      </trkpt>
      <trkpt lat="47.1349" lon="-1.19162">
        <ele>79.6</ele>
        <time>2019-10-11T14:46:19Z</time>
      </trkpt>
      <trkpt lat="47.13492" lon="-1.19164">
        <ele>79.7</ele>
        <time>2019-10-11T14:46:20Z</time>
      </trkpt>
      <trkpt lat="47.13495" lon="-1.19166">
        <ele>79.7</ele>
        <time>2019-10-11T14:46:21Z</time>
      </trkpt>
      <trkpt lat="47.13498" lon="-1.19168">
        <ele>79.8</ele>
        <time>2019-10-11T14:46:22Z</time>
      </trkpt>
      <trkpt lat="47.135" lon="-1.1917">
        <ele>79.8</ele>
        <time>2019-10-11T14:46:23Z</time>
      </trkpt>
      <trkpt lat="47.13503" lon="-1.19172">
        <ele>79.9</ele>
        <time>2019-10-11T14:46:24Z</time>
      </trkpt>
      <trkpt lat="47.13506" lon="-1.19174">
        <ele>79.9</ele>
        <time>2019-10-11T14:46:25Z</time>
      </trkpt>
      <trkpt lat="47.13508" lon="-1.19177">
        <ele>80</ele>
        <time>2019-10-11T14:46:26Z</time>
      </trkpt>
      <trkpt lat="47.13511" lon="-1.19179">
        <ele>80</ele>
        <time>2019-10-11T14:46:27Z</time>
      </trkpt>
      <trkpt lat="47.13514" lon="-1.19181">
        <ele>80.1</ele>
        <time>2019-10-11T14:46:28Z</time>
      </trkpt>
      <trkpt lat="47.13516" lon="-1.19184">
        <ele>80.2</ele>
        <time>2019-10-11T14:46:29Z</time>
      </trkpt>
      <trkpt lat="47.13519" lon="-1.19186">
        <ele>80.2</ele>
        <time>2019-10-11T14:46:30Z</time>
      </trkpt>
      <trkpt lat="47.13522" lon="-1.19188">
        <ele>80.3</ele>
        <time>2019-10-11T14:46:31Z</time>
      </trkpt>
      <trkpt lat="47.13525" lon="-1.1919">
        <ele>80.3</ele>
        <time>2019-10-11T14:46:32Z</time>
      </trkpt>
      <trkpt lat="47.13527" lon="-1.19193">
        <ele>80.3</ele>
        <time>2019-10-11T14:46:33Z</time>
      </trkpt>
      <trkpt lat="47.1353" lon="-1.19195">
        <ele>80.4</ele>
        <time>2019-10-11T14:46:34Z</time>
      </trkpt>
      <trkpt lat="47.13533" lon="-1.19197">
        <ele>80.4</ele>
        <time>2019-10-11T14:46:35Z</time>
      </trkpt>
      <trkpt lat="47.13535" lon="-1.192">
        <ele>80.4</ele>
        <time>2019-10-11T14:46:36Z</time>
      </trkpt>
      <trkpt lat="47.13538" lon="-1.19202">
        <ele>80.5</ele>
        <time>2019-10-11T14:46:37Z</time>
      </trkpt>
      <trkpt lat="47.13541" lon="-1.19205">
        <ele>80.5</ele>
        <time>2019-10-11T14:46:38Z</time>
      </trkpt>
      <trkpt lat="47.13544" lon="-1.19207">
        <ele>80.5</ele>
        <time>2019-10-11T14:46:39Z</time>
      </trkpt>
      <trkpt lat="47.13547" lon="-1.19209">
        <ele>80.6</ele>
        <time>2019-10-11T14:46:40Z</time>
      </trkpt>
      <trkpt lat="47.1355" lon="-1.19212">
        <ele>80.7</ele>
        <time>2019-10-11T14:46:41Z</time>
      </trkpt>
      <trkpt lat="47.13552" lon="-1.19215">
        <ele>80.7</ele>
        <time>2019-10-11T14:46:42Z</time>
      </trkpt>
      <trkpt lat="47.13555" lon="-1.19218">
        <ele>80.8</ele>
        <time>2019-10-11T14:46:43Z</time>
      </trkpt>
      <trkpt lat="47.13558" lon="-1.1922">
        <ele>80.9</ele>
        <time>2019-10-11T14:46:44Z</time>
      </trkpt>
      <trkpt lat="47.13561" lon="-1.19222">
        <ele>81</ele>
        <time>2019-10-11T14:46:45Z</time>
      </trkpt>
      <trkpt lat="47.13563" lon="-1.19225">
        <ele>81.1</ele>
        <time>2019-10-11T14:46:46Z</time>
      </trkpt>
      <trkpt lat="47.13566" lon="-1.19227">
        <ele>81.2</ele>
        <time>2019-10-11T14:46:47Z</time>
      </trkpt>
      <trkpt lat="47.13569" lon="-1.1923">
        <ele>81.2</ele>
        <time>2019-10-11T14:46:48Z</time>
      </trkpt>
      <trkpt lat="47.13571" lon="-1.19233">
        <ele>81.3</ele>
        <time>2019-10-11T14:46:49Z</time>
      </trkpt>
      <trkpt lat="47.13574" lon="-1.19235">
        <ele>81.3</ele>
        <time>2019-10-11T14:46:50Z</time>
      </trkpt>
      <trkpt lat="47.13577" lon="-1.19238">
        <ele>81.4</ele>
        <time>2019-10-11T14:46:51Z</time>
      </trkpt>
      <trkpt lat="47.13579" lon="-1.19241">
        <ele>81.4</ele>
        <time>2019-10-11T14:46:52Z</time>
      </trkpt>
      <trkpt lat="47.13582" lon="-1.19244">
        <ele>81.5</ele>
        <time>2019-10-11T14:46:53Z</time>
      </trkpt>
      <trkpt lat="47.13584" lon="-1.19247">
        <ele>81.5</ele>
        <time>2019-10-11T14:46:54Z</time>
      </trkpt>
      <trkpt lat="47.13587" lon="-1.19249">
        <ele>81.5</ele>
        <time>2019-10-11T14:46:55Z</time>
      </trkpt>
      <trkpt lat="47.1359" lon="-1.19252">
        <ele>81.6</ele>
        <time>2019-10-11T14:46:56Z</time>
      </trkpt>
      <trkpt lat="47.13592" lon="-1.19255">
        <ele>81.6</ele>
        <time>2019-10-11T14:46:57Z</time>
      </trkpt>
      <trkpt lat="47.13595" lon="-1.19257">
        <ele>81.7</ele>
        <time>2019-10-11T14:46:58Z</time>
      </trkpt>
      <trkpt lat="47.13598" lon="-1.19259">
        <ele>81.7</ele>
        <time>2019-10-11T14:46:59Z</time>
      </trkpt>
      <trkpt lat="47.136" lon="-1.19262">
        <ele>81.8</ele>
        <time>2019-10-11T14:47:00Z</time>
      </trkpt>
      <trkpt lat="47.13603" lon="-1.19264">
        <ele>81.8</ele>
        <time>2019-10-11T14:47:01Z</time>
      </trkpt>
      <trkpt lat="47.13606" lon="-1.19266">
        <ele>81.9</ele>
        <time>2019-10-11T14:47:02Z</time>
      </trkpt>
      <trkpt lat="47.13608" lon="-1.19267">
        <ele>82</ele>
        <time>2019-10-11T14:47:03Z</time>
      </trkpt>
      <trkpt lat="47.13611" lon="-1.19269">
        <ele>82.1</ele>
        <time>2019-10-11T14:47:04Z</time>
      </trkpt>
      <trkpt lat="47.13614" lon="-1.19271">
        <ele>82.1</ele>
        <time>2019-10-11T14:47:05Z</time>
      </trkpt>
      <trkpt lat="47.13617" lon="-1.19272">
        <ele>82.2</ele>
        <time>2019-10-11T14:47:06Z</time>
      </trkpt>
      <trkpt lat="47.13619" lon="-1.19274">
        <ele>82.3</ele>
        <time>2019-10-11T14:47:07Z</time>
      </trkpt>
      <trkpt lat="47.13622" lon="-1.19276">
        <ele>82.3</ele>
        <time>2019-10-11T14:47:08Z</time>
      </trkpt>
      <trkpt lat="47.13625" lon="-1.19278">
        <ele>82.4</ele>
        <time>2019-10-11T14:47:09Z</time>
      </trkpt>
      <trkpt lat="47.13627" lon="-1.19279">
        <ele>82.5</ele>
        <time>2019-10-11T14:47:10Z</time>
      </trkpt>
      <trkpt lat="47.13632" lon="-1.19281">
        <ele>82.7</ele>
        <time>2019-10-11T14:47:12Z</time>
      </trkpt>
      <trkpt lat="47.13635" lon="-1.19283">
        <ele>82.7</ele>
        <time>2019-10-11T14:47:13Z</time>
      </trkpt>
      <trkpt lat="47.13638" lon="-1.19284">
        <ele>82.8</ele>
        <time>2019-10-11T14:47:14Z</time>
      </trkpt>
      <trkpt lat="47.13641" lon="-1.19287">
        <ele>82.8</ele>
        <time>2019-10-11T14:47:15Z</time>
      </trkpt>
      <trkpt lat="47.13644" lon="-1.19289">
        <ele>82.9</ele>
        <time>2019-10-11T14:47:16Z</time>
      </trkpt>
      <trkpt lat="47.13646" lon="-1.19291">
        <ele>83</ele>
        <time>2019-10-11T14:47:17Z</time>
      </trkpt>
      <trkpt lat="47.13649" lon="-1.19293">
        <ele>83</ele>
        <time>2019-10-11T14:47:18Z</time>
      </trkpt>
      <trkpt lat="47.13652" lon="-1.19295">
        <ele>83.1</ele>
        <time>2019-10-11T14:47:19Z</time>
      </trkpt>
      <trkpt lat="47.13655" lon="-1.19297">
        <ele>83.2</ele>
        <time>2019-10-11T14:47:20Z</time>
      </trkpt>
      <trkpt lat="47.13657" lon="-1.19298">
        <ele>83.2</ele>
        <time>2019-10-11T14:47:21Z</time>
      </trkpt>
      <trkpt lat="47.1366" lon="-1.193">
        <ele>83.3</ele>
        <time>2019-10-11T14:47:22Z</time>
      </trkpt>
      <trkpt lat="47.13662" lon="-1.19302">
        <ele>83.3</ele>
        <time>2019-10-11T14:47:23Z</time>
      </trkpt>
      <trkpt lat="47.13665" lon="-1.19304">
        <ele>83.4</ele>
        <time>2019-10-11T14:47:24Z</time>
      </trkpt>
      <trkpt lat="47.13667" lon="-1.19305">
        <ele>83.4</ele>
        <time>2019-10-11T14:47:25Z</time>
      </trkpt>
      <trkpt lat="47.13672" lon="-1.19309">
        <ele>83.5</ele>
        <time>2019-10-11T14:47:27Z</time>
      </trkpt>
      <trkpt lat="47.13675" lon="-1.19311">
        <ele>83.6</ele>
        <time>2019-10-11T14:47:28Z</time>
      </trkpt>
      <trkpt lat="47.13677" lon="-1.19312">
        <ele>83.7</ele>
        <time>2019-10-11T14:47:29Z</time>
      </trkpt>
      <trkpt lat="47.13682" lon="-1.19316">
        <ele>83.9</ele>
        <time>2019-10-11T14:47:31Z</time>
      </trkpt>
      <trkpt lat="47.13685" lon="-1.19318">
        <ele>83.9</ele>
        <time>2019-10-11T14:47:32Z</time>
      </trkpt>
      <trkpt lat="47.13687" lon="-1.1932">
        <ele>84</ele>
        <time>2019-10-11T14:47:33Z</time>
      </trkpt>
      <trkpt lat="47.1369" lon="-1.19322">
        <ele>84</ele>
        <time>2019-10-11T14:47:34Z</time>
      </trkpt>
      <trkpt lat="47.13692" lon="-1.19324">
        <ele>84</ele>
        <time>2019-10-11T14:47:35Z</time>
      </trkpt>
      <trkpt lat="47.13695" lon="-1.19326">
        <ele>84.1</ele>
        <time>2019-10-11T14:47:36Z</time>
      </trkpt>
      <trkpt lat="47.13697" lon="-1.19328">
        <ele>84.1</ele>
        <time>2019-10-11T14:47:37Z</time>
      </trkpt>
      <trkpt lat="47.137" lon="-1.1933">
        <ele>84.2</ele>
        <time>2019-10-11T14:47:38Z</time>
      </trkpt>
      <trkpt lat="47.13702" lon="-1.19332">
        <ele>84.2</ele>
        <time>2019-10-11T14:47:39Z</time>
      </trkpt>
      <trkpt lat="47.13705" lon="-1.19335">
        <ele>84.2</ele>
        <time>2019-10-11T14:47:40Z</time>
      </trkpt>
      <trkpt lat="47.13707" lon="-1.19337">
        <ele>84.3</ele>
        <time>2019-10-11T14:47:41Z</time>
      </trkpt>
      <trkpt lat="47.13712" lon="-1.1934">
        <ele>84.3</ele>
        <time>2019-10-11T14:47:43Z</time>
      </trkpt>
      <trkpt lat="47.13715" lon="-1.19342">
        <ele>84.4</ele>
        <time>2019-10-11T14:47:44Z</time>
      </trkpt>
      <trkpt lat="47.13717" lon="-1.19344">
        <ele>84.4</ele>
        <time>2019-10-11T14:47:45Z</time>
      </trkpt>
      <trkpt lat="47.1372" lon="-1.19346">
        <ele>84.4</ele>
        <time>2019-10-11T14:47:46Z</time>
      </trkpt>
      <trkpt lat="47.13722" lon="-1.19348">
        <ele>84.5</ele>
        <time>2019-10-11T14:47:47Z</time>
      </trkpt>
      <trkpt lat="47.13725" lon="-1.1935">
        <ele>84.5</ele>
        <time>2019-10-11T14:47:48Z</time>
      </trkpt>
      <trkpt lat="47.13727" lon="-1.19352">
        <ele>84.5</ele>
        <time>2019-10-11T14:47:49Z</time>
      </trkpt>
      <trkpt lat="47.1373" lon="-1.19354">
        <ele>84.5</ele>
        <time>2019-10-11T14:47:50Z</time>
      </trkpt>
      <trkpt lat="47.13732" lon="-1.19356">
        <ele>84.6</ele>
        <time>2019-10-11T14:47:51Z</time>
      </trkpt>
      <trkpt lat="47.13735" lon="-1.19358">
        <ele>84.6</ele>
        <time>2019-10-11T14:47:52Z</time>
      </trkpt>
      <trkpt lat="47.13738" lon="-1.1936">
        <ele>84.6</ele>
        <time>2019-10-11T14:47:53Z</time>
      </trkpt>
      <trkpt lat="47.1374" lon="-1.19362">
        <ele>84.7</ele>
        <time>2019-10-11T14:47:54Z</time>
      </trkpt>
      <trkpt lat="47.13743" lon="-1.19364">
        <ele>84.7</ele>
        <time>2019-10-11T14:47:55Z</time>
      </trkpt>
      <trkpt lat="47.13746" lon="-1.19366">
        <ele>84.7</ele>
        <time>2019-10-11T14:47:56Z</time>
      </trkpt>
      <trkpt lat="47.13748" lon="-1.19368">
        <ele>84.7</ele>
        <time>2019-10-11T14:47:57Z</time>
      </trkpt>
      <trkpt lat="47.13751" lon="-1.1937">
        <ele>84.7</ele>
        <time>2019-10-11T14:47:58Z</time>
      </trkpt>
      <trkpt lat="47.13754" lon="-1.19373">
        <ele>84.8</ele>
        <time>2019-10-11T14:47:59Z</time>
      </trkpt>
      <trkpt lat="47.13756" lon="-1.19375">
        <ele>84.8</ele>
        <time>2019-10-11T14:48:00Z</time>
      </trkpt>
      <trkpt lat="47.13761" lon="-1.19379">
        <ele>84.8</ele>
        <time>2019-10-11T14:48:02Z</time>
      </trkpt>
      <trkpt lat="47.13763" lon="-1.19381">
        <ele>84.8</ele>
        <time>2019-10-11T14:48:03Z</time>
      </trkpt>
      <trkpt lat="47.13766" lon="-1.19383">
        <ele>84.8</ele>
        <time>2019-10-11T14:48:04Z</time>
      </trkpt>
      <trkpt lat="47.13769" lon="-1.19385">
        <ele>84.8</ele>
        <time>2019-10-11T14:48:05Z</time>
      </trkpt>
      <trkpt lat="47.13771" lon="-1.19387">
        <ele>84.9</ele>
        <time>2019-10-11T14:48:06Z</time>
      </trkpt>
      <trkpt lat="47.13774" lon="-1.19389">
        <ele>84.9</ele>
        <time>2019-10-11T14:48:07Z</time>
      </trkpt>
      <trkpt lat="47.13777" lon="-1.19392">
        <ele>84.9</ele>
        <time>2019-10-11T14:48:08Z</time>
      </trkpt>
      <trkpt lat="47.1378" lon="-1.19394">
        <ele>84.9</ele>
        <time>2019-10-11T14:48:09Z</time>
      </trkpt>
      <trkpt lat="47.13782" lon="-1.19397">
        <ele>84.9</ele>
        <time>2019-10-11T14:48:10Z</time>
      </trkpt>
      <trkpt lat="47.13785" lon="-1.194">
        <ele>84.9</ele>
        <time>2019-10-11T14:48:11Z</time>
      </trkpt>
      <trkpt lat="47.13787" lon="-1.19402">
        <ele>84.8</ele>
        <time>2019-10-11T14:48:12Z</time>
      </trkpt>
      <trkpt lat="47.1379" lon="-1.19405">
        <ele>84.8</ele>
        <time>2019-10-11T14:48:13Z</time>
      </trkpt>
      <trkpt lat="47.13792" lon="-1.19407">
        <ele>84.8</ele>
        <time>2019-10-11T14:48:14Z</time>
      </trkpt>
      <trkpt lat="47.13794" lon="-1.1941">
        <ele>84.8</ele>
        <time>2019-10-11T14:48:15Z</time>
      </trkpt>
      <trkpt lat="47.13797" lon="-1.19413">
        <ele>84.8</ele>
        <time>2019-10-11T14:48:16Z</time>
      </trkpt>
      <trkpt lat="47.13799" lon="-1.19417">
        <ele>84.8</ele>
        <time>2019-10-11T14:48:17Z</time>
      </trkpt>
      <trkpt lat="47.13801" lon="-1.19421">
        <ele>84.8</ele>
        <time>2019-10-11T14:48:18Z</time>
      </trkpt>
      <trkpt lat="47.13803" lon="-1.19424">
        <ele>84.8</ele>
        <time>2019-10-11T14:48:19Z</time>
      </trkpt>
      <trkpt lat="47.13805" lon="-1.19428">
        <ele>84.8</ele>
        <time>2019-10-11T14:48:20Z</time>
      </trkpt>
      <trkpt lat="47.13807" lon="-1.19431">
        <ele>84.7</ele>
        <time>2019-10-11T14:48:21Z</time>
      </trkpt>
      <trkpt lat="47.13809" lon="-1.19436">
        <ele>84.7</ele>
        <time>2019-10-11T14:48:22Z</time>
      </trkpt>
      <trkpt lat="47.13811" lon="-1.1944">
        <ele>84.7</ele>
        <time>2019-10-11T14:48:23Z</time>
      </trkpt>
      <trkpt lat="47.13812" lon="-1.19444">
        <ele>84.7</ele>
        <time>2019-10-11T14:48:24Z</time>
      </trkpt>
      <trkpt lat="47.13814" lon="-1.19447">
        <ele>84.7</ele>
        <time>2019-10-11T14:48:25Z</time>
      </trkpt>
      <trkpt lat="47.13815" lon="-1.19451">
        <ele>84.7</ele>
        <time>2019-10-11T14:48:26Z</time>
      </trkpt>
      <trkpt lat="47.13817" lon="-1.19455">
        <ele>84.7</ele>
        <time>2019-10-11T14:48:27Z</time>
      </trkpt>
      <trkpt lat="47.13819" lon="-1.19459">
        <ele>84.7</ele>
        <time>2019-10-11T14:48:28Z</time>
      </trkpt>
      <trkpt lat="47.1382" lon="-1.19464">
        <ele>84.7</ele>
        <time>2019-10-11T14:48:29Z</time>
      </trkpt>
      <trkpt lat="47.13822" lon="-1.19468">
        <ele>84.7</ele>
        <time>2019-10-11T14:48:30Z</time>
      </trkpt>
      <trkpt lat="47.13823" lon="-1.19473">
        <ele>84.7</ele>
        <time>2019-10-11T14:48:31Z</time>
      </trkpt>
      <trkpt lat="47.13823" lon="-1.19477">
        <ele>84.7</ele>
        <time>2019-10-11T14:48:32Z</time>
      </trkpt>
      <trkpt lat="47.13824" lon="-1.19481">
        <ele>84.7</ele>
        <time>2019-10-11T14:48:33Z</time>
      </trkpt>
      <trkpt lat="47.13824" lon="-1.19485">
        <ele>84.7</ele>
        <time>2019-10-11T14:48:34Z</time>
      </trkpt>
      <trkpt lat="47.13824" lon="-1.19489">
        <ele>84.7</ele>
        <time>2019-10-11T14:48:35Z</time>
      </trkpt>
      <trkpt lat="47.13824" lon="-1.19494">
        <ele>84.7</ele>
        <time>2019-10-11T14:48:36Z</time>
      </trkpt>
      <trkpt lat="47.13824" lon="-1.19498">
        <ele>84.7</ele>
        <time>2019-10-11T14:48:37Z</time>
      </trkpt>
      <trkpt lat="47.13824" lon="-1.19503">
        <ele>84.7</ele>
        <time>2019-10-11T14:48:38Z</time>
      </trkpt>
      <trkpt lat="47.13824" lon="-1.19508">
        <ele>84.7</ele>
        <time>2019-10-11T14:48:39Z</time>
      </trkpt>
      <trkpt lat="47.13823" lon="-1.19512">
        <ele>84.7</ele>
        <time>2019-10-11T14:48:40Z</time>
      </trkpt>
      <trkpt lat="47.13823" lon="-1.19517">
        <ele>84.7</ele>
        <time>2019-10-11T14:48:41Z</time>
      </trkpt>
      <trkpt lat="47.13823" lon="-1.19523">
        <ele>84.7</ele>
        <time>2019-10-11T14:48:42Z</time>
      </trkpt>
      <trkpt lat="47.13823" lon="-1.19527">
        <ele>84.7</ele>
        <time>2019-10-11T14:48:43Z</time>
      </trkpt>
      <trkpt lat="47.13822" lon="-1.19532">
        <ele>84.7</ele>
        <time>2019-10-11T14:48:44Z</time>
      </trkpt>
      <trkpt lat="47.13822" lon="-1.19536">
        <ele>84.6</ele>
        <time>2019-10-11T14:48:45Z</time>
      </trkpt>
      <trkpt lat="47.13822" lon="-1.19544">
        <ele>84.6</ele>
        <time>2019-10-11T14:48:47Z</time>
      </trkpt>
      <trkpt lat="47.13823" lon="-1.19549">
        <ele>84.6</ele>
        <time>2019-10-11T14:48:48Z</time>
      </trkpt>
      <trkpt lat="47.13823" lon="-1.19554">
        <ele>84.6</ele>
        <time>2019-10-11T14:48:49Z</time>
      </trkpt>
      <trkpt lat="47.13823" lon="-1.19559">
        <ele>84.5</ele>
        <time>2019-10-11T14:48:50Z</time>
      </trkpt>
      <trkpt lat="47.13824" lon="-1.19564">
        <ele>84.5</ele>
        <time>2019-10-11T14:48:51Z</time>
      </trkpt>
      <trkpt lat="47.13825" lon="-1.19569">
        <ele>84.4</ele>
        <time>2019-10-11T14:48:52Z</time>
      </trkpt>
      <trkpt lat="47.13826" lon="-1.19574">
        <ele>84.4</ele>
        <time>2019-10-11T14:48:53Z</time>
      </trkpt>
      <trkpt lat="47.13827" lon="-1.19579">
        <ele>84.4</ele>
        <time>2019-10-11T14:48:54Z</time>
      </trkpt>
      <trkpt lat="47.13828" lon="-1.19584">
        <ele>84.3</ele>
        <time>2019-10-11T14:48:55Z</time>
      </trkpt>
      <trkpt lat="47.13829" lon="-1.19589">
        <ele>84.3</ele>
        <time>2019-10-11T14:48:56Z</time>
      </trkpt>
      <trkpt lat="47.13831" lon="-1.19593">
        <ele>84.2</ele>
        <time>2019-10-11T14:48:57Z</time>
      </trkpt>
      <trkpt lat="47.13832" lon="-1.19597">
        <ele>84.2</ele>
        <time>2019-10-11T14:48:58Z</time>
      </trkpt>
      <trkpt lat="47.13834" lon="-1.19601">
        <ele>84.1</ele>
        <time>2019-10-11T14:48:59Z</time>
      </trkpt>
      <trkpt lat="47.13836" lon="-1.19605">
        <ele>84.1</ele>
        <time>2019-10-11T14:49:00Z</time>
      </trkpt>
      <trkpt lat="47.13838" lon="-1.19609">
        <ele>84</ele>
        <time>2019-10-11T14:49:01Z</time>
      </trkpt>
      <trkpt lat="47.13841" lon="-1.19612">
        <ele>83.9</ele>
        <time>2019-10-11T14:49:02Z</time>
      </trkpt>
      <trkpt lat="47.13843" lon="-1.19615">
        <ele>83.9</ele>
        <time>2019-10-11T14:49:03Z</time>
      </trkpt>
      <trkpt lat="47.13846" lon="-1.19618">
        <ele>83.8</ele>
        <time>2019-10-11T14:49:04Z</time>
      </trkpt>
      <trkpt lat="47.13849" lon="-1.19621">
        <ele>83.7</ele>
        <time>2019-10-11T14:49:05Z</time>
      </trkpt>
      <trkpt lat="47.13852" lon="-1.19623">
        <ele>83.7</ele>
        <time>2019-10-11T14:49:06Z</time>
      </trkpt>
      <trkpt lat="47.13855" lon="-1.19625">
        <ele>83.6</ele>
        <time>2019-10-11T14:49:07Z</time>
      </trkpt>
      <trkpt lat="47.13858" lon="-1.19627">
        <ele>83.5</ele>
        <time>2019-10-11T14:49:08Z</time>
      </trkpt>
      <trkpt lat="47.13861" lon="-1.1963">
        <ele>83.4</ele>
        <time>2019-10-11T14:49:09Z</time>
      </trkpt>
      <trkpt lat="47.13865" lon="-1.19632">
        <ele>83.3</ele>
        <time>2019-10-11T14:49:10Z</time>
      </trkpt>
      <trkpt lat="47.13869" lon="-1.19634">
        <ele>83.2</ele>
        <time>2019-10-11T14:49:11Z</time>
      </trkpt>
      <trkpt lat="47.13872" lon="-1.19637">
        <ele>83.1</ele>
        <time>2019-10-11T14:49:12Z</time>
      </trkpt>
      <trkpt lat="47.13876" lon="-1.19639">
        <ele>83</ele>
        <time>2019-10-11T14:49:13Z</time>
      </trkpt>
      <trkpt lat="47.13881" lon="-1.19641">
        <ele>82.9</ele>
        <time>2019-10-11T14:49:14Z</time>
      </trkpt>
      <trkpt lat="47.13885" lon="-1.19644">
        <ele>82.7</ele>
        <time>2019-10-11T14:49:15Z</time>
      </trkpt>
      <trkpt lat="47.13889" lon="-1.19647">
        <ele>82.5</ele>
        <time>2019-10-11T14:49:16Z</time>
      </trkpt>
      <trkpt lat="47.13893" lon="-1.19649">
        <ele>82.3</ele>
        <time>2019-10-11T14:49:17Z</time>
      </trkpt>
      <trkpt lat="47.13898" lon="-1.19652">
        <ele>82.1</ele>
        <time>2019-10-11T14:49:18Z</time>
      </trkpt>
      <trkpt lat="47.13903" lon="-1.19655">
        <ele>81.9</ele>
        <time>2019-10-11T14:49:19Z</time>
      </trkpt>
      <trkpt lat="47.13908" lon="-1.19658">
        <ele>81.6</ele>
        <time>2019-10-11T14:49:20Z</time>
      </trkpt>
      <trkpt lat="47.13913" lon="-1.1966">
        <ele>81.3</ele>
        <time>2019-10-11T14:49:21Z</time>
      </trkpt>
      <trkpt lat="47.13918" lon="-1.19663">
        <ele>81.1</ele>
        <time>2019-10-11T14:49:22Z</time>
      </trkpt>
      <trkpt lat="47.13923" lon="-1.19666">
        <ele>80.9</ele>
        <time>2019-10-11T14:49:23Z</time>
      </trkpt>
      <trkpt lat="47.13928" lon="-1.19669">
        <ele>80.7</ele>
        <time>2019-10-11T14:49:24Z</time>
      </trkpt>
      <trkpt lat="47.13933" lon="-1.19672">
        <ele>80.5</ele>
        <time>2019-10-11T14:49:25Z</time>
      </trkpt>
      <trkpt lat="47.13939" lon="-1.19675">
        <ele>80.3</ele>
        <time>2019-10-11T14:49:26Z</time>
      </trkpt>
      <trkpt lat="47.13944" lon="-1.19678">
        <ele>80.1</ele>
        <time>2019-10-11T14:49:27Z</time>
      </trkpt>
      <trkpt lat="47.13949" lon="-1.19681">
        <ele>79.8</ele>
        <time>2019-10-11T14:49:28Z</time>
      </trkpt>
      <trkpt lat="47.13955" lon="-1.19684">
        <ele>79.6</ele>
        <time>2019-10-11T14:49:29Z</time>
      </trkpt>
      <trkpt lat="47.1396" lon="-1.19687">
        <ele>79.4</ele>
        <time>2019-10-11T14:49:30Z</time>
      </trkpt>
      <trkpt lat="47.13966" lon="-1.1969">
        <ele>79.2</ele>
        <time>2019-10-11T14:49:31Z</time>
      </trkpt>
      <trkpt lat="47.13971" lon="-1.19693">
        <ele>79</ele>
        <time>2019-10-11T14:49:32Z</time>
      </trkpt>
      <trkpt lat="47.13977" lon="-1.19696">
        <ele>78.8</ele>
        <time>2019-10-11T14:49:33Z</time>
      </trkpt>
      <trkpt lat="47.13982" lon="-1.19699">
        <ele>78.6</ele>
        <time>2019-10-11T14:49:34Z</time>
      </trkpt>
      <trkpt lat="47.13988" lon="-1.19702">
        <ele>78.4</ele>
        <time>2019-10-11T14:49:35Z</time>
      </trkpt>
      <trkpt lat="47.13993" lon="-1.19704">
        <ele>78.2</ele>
        <time>2019-10-11T14:49:36Z</time>
      </trkpt>
      <trkpt lat="47.13999" lon="-1.19707">
        <ele>78.1</ele>
        <time>2019-10-11T14:49:37Z</time>
      </trkpt>
      <trkpt lat="47.14004" lon="-1.19709">
        <ele>77.9</ele>
        <time>2019-10-11T14:49:38Z</time>
      </trkpt>
      <trkpt lat="47.1401" lon="-1.19711">
        <ele>77.7</ele>
        <time>2019-10-11T14:49:39Z</time>
      </trkpt>
      <trkpt lat="47.14016" lon="-1.19713">
        <ele>77.5</ele>
        <time>2019-10-11T14:49:40Z</time>
      </trkpt>
      <trkpt lat="47.14021" lon="-1.19716">
        <ele>77.3</ele>
        <time>2019-10-11T14:49:41Z</time>
      </trkpt>
      <trkpt lat="47.14027" lon="-1.19718">
        <ele>77.1</ele>
        <time>2019-10-11T14:49:42Z</time>
      </trkpt>
      <trkpt lat="47.14033" lon="-1.1972">
        <ele>77</ele>
        <time>2019-10-11T14:49:43Z</time>
      </trkpt>
      <trkpt lat="47.14038" lon="-1.19722">
        <ele>76.9</ele>
        <time>2019-10-11T14:49:44Z</time>
      </trkpt>
      <trkpt lat="47.14043" lon="-1.19724">
        <ele>76.7</ele>
        <time>2019-10-11T14:49:45Z</time>
      </trkpt>
      <trkpt lat="47.14049" lon="-1.19727">
        <ele>76.6</ele>
        <time>2019-10-11T14:49:46Z</time>
      </trkpt>
      <trkpt lat="47.14054" lon="-1.1973">
        <ele>76.4</ele>
        <time>2019-10-11T14:49:47Z</time>
      </trkpt>
      <trkpt lat="47.1406" lon="-1.19732">
        <ele>76.1</ele>
        <time>2019-10-11T14:49:48Z</time>
      </trkpt>
      <trkpt lat="47.14065" lon="-1.19735">
        <ele>75.8</ele>
        <time>2019-10-11T14:49:49Z</time>
      </trkpt>
      <trkpt lat="47.14071" lon="-1.19737">
        <ele>75.6</ele>
        <time>2019-10-11T14:49:50Z</time>
      </trkpt>
      <trkpt lat="47.14077" lon="-1.1974">
        <ele>75.3</ele>
        <time>2019-10-11T14:49:51Z</time>
      </trkpt>
      <trkpt lat="47.14082" lon="-1.19743">
        <ele>75.1</ele>
        <time>2019-10-11T14:49:52Z</time>
      </trkpt>
      <trkpt lat="47.14088" lon="-1.19746">
        <ele>74.8</ele>
        <time>2019-10-11T14:49:53Z</time>
      </trkpt>
      <trkpt lat="47.14094" lon="-1.1975">
        <ele>74.6</ele>
        <time>2019-10-11T14:49:54Z</time>
      </trkpt>
      <trkpt lat="47.141" lon="-1.19753">
        <ele>74.4</ele>
        <time>2019-10-11T14:49:55Z</time>
      </trkpt>
      <trkpt lat="47.14106" lon="-1.19756">
        <ele>74.1</ele>
        <time>2019-10-11T14:49:56Z</time>
      </trkpt>
      <trkpt lat="47.1411" lon="-1.19759">
        <ele>73.9</ele>
        <time>2019-10-11T14:49:57Z</time>
      </trkpt>
      <trkpt lat="47.14114" lon="-1.19762">
        <ele>73.6</ele>
        <time>2019-10-11T14:49:58Z</time>
      </trkpt>
      <trkpt lat="47.14116" lon="-1.19766">
        <ele>73.4</ele>
        <time>2019-10-11T14:49:59Z</time>
      </trkpt>
      <trkpt lat="47.14119" lon="-1.1977">
        <ele>73.2</ele>
        <time>2019-10-11T14:50:00Z</time>
      </trkpt>
      <trkpt lat="47.14118" lon="-1.19775">
        <ele>73.1</ele>
        <time>2019-10-11T14:50:01Z</time>
      </trkpt>
      <trkpt lat="47.14116" lon="-1.1978">
        <ele>72.8</ele>
        <time>2019-10-11T14:50:02Z</time>
      </trkpt>
      <trkpt lat="47.14114" lon="-1.19785">
        <ele>72.8</ele>
        <time>2019-10-11T14:50:03Z</time>
      </trkpt>
      <trkpt lat="47.14111" lon="-1.19789">
        <ele>72.8</ele>
        <time>2019-10-11T14:50:04Z</time>
      </trkpt>
      <trkpt lat="47.14108" lon="-1.19793">
        <ele>72.8</ele>
        <time>2019-10-11T14:50:05Z</time>
      </trkpt>
      <trkpt lat="47.14105" lon="-1.19797">
        <ele>72.8</ele>
        <time>2019-10-11T14:50:06Z</time>
      </trkpt>
      <trkpt lat="47.14102" lon="-1.19801">
        <ele>72.8</ele>
        <time>2019-10-11T14:50:07Z</time>
      </trkpt>
      <trkpt lat="47.141" lon="-1.19804">
        <ele>72.8</ele>
        <time>2019-10-11T14:50:08Z</time>
      </trkpt>
      <trkpt lat="47.14098" lon="-1.19808">
        <ele>72.8</ele>
        <time>2019-10-11T14:50:09Z</time>
      </trkpt>
      <trkpt lat="47.14095" lon="-1.19812">
        <ele>72.8</ele>
        <time>2019-10-11T14:50:10Z</time>
      </trkpt>
      <trkpt lat="47.14093" lon="-1.19816">
        <ele>72.8</ele>
        <time>2019-10-11T14:50:11Z</time>
      </trkpt>
      <trkpt lat="47.14091" lon="-1.1982">
        <ele>72.8</ele>
        <time>2019-10-11T14:50:12Z</time>
      </trkpt>
      <trkpt lat="47.14089" lon="-1.19824">
        <ele>72.8</ele>
        <time>2019-10-11T14:50:13Z</time>
      </trkpt>
      <trkpt lat="47.14087" lon="-1.19828">
        <ele>72.8</ele>
        <time>2019-10-11T14:50:14Z</time>
      </trkpt>
      <trkpt lat="47.14084" lon="-1.19831">
        <ele>72.8</ele>
        <time>2019-10-11T14:50:15Z</time>
      </trkpt>
      <trkpt lat="47.14082" lon="-1.19835">
        <ele>72.8</ele>
        <time>2019-10-11T14:50:16Z</time>
      </trkpt>
      <trkpt lat="47.1408" lon="-1.19839">
        <ele>72.8</ele>
        <time>2019-10-11T14:50:17Z</time>
      </trkpt>
      <trkpt lat="47.14078" lon="-1.19844">
        <ele>72.8</ele>
        <time>2019-10-11T14:50:18Z</time>
      </trkpt>
      <trkpt lat="47.14076" lon="-1.19848">
        <ele>72.8</ele>
        <time>2019-10-11T14:50:19Z</time>
      </trkpt>
      <trkpt lat="47.14074" lon="-1.19852">
        <ele>72.8</ele>
        <time>2019-10-11T14:50:20Z</time>
      </trkpt>
      <trkpt lat="47.14072" lon="-1.19856">
        <ele>72.8</ele>
        <time>2019-10-11T14:50:21Z</time>
      </trkpt>
      <trkpt lat="47.1407" lon="-1.19861">
        <ele>72.8</ele>
        <time>2019-10-11T14:50:22Z</time>
      </trkpt>
      <trkpt lat="47.14068" lon="-1.19865">
        <ele>72.8</ele>
        <time>2019-10-11T14:50:23Z</time>
      </trkpt>
      <trkpt lat="47.14066" lon="-1.19869">
        <ele>72.8</ele>
        <time>2019-10-11T14:50:24Z</time>
      </trkpt>
      <trkpt lat="47.14064" lon="-1.19874">
        <ele>72.8</ele>
        <time>2019-10-11T14:50:25Z</time>
      </trkpt>
      <trkpt lat="47.14062" lon="-1.19878">
        <ele>72.8</ele>
        <time>2019-10-11T14:50:26Z</time>
      </trkpt>
      <trkpt lat="47.1406" lon="-1.19883">
        <ele>72.8</ele>
        <time>2019-10-11T14:50:27Z</time>
      </trkpt>
      <trkpt lat="47.14058" lon="-1.19887">
        <ele>72.8</ele>
        <time>2019-10-11T14:50:28Z</time>
      </trkpt>
      <trkpt lat="47.14056" lon="-1.19892">
        <ele>72.8</ele>
        <time>2019-10-11T14:50:29Z</time>
      </trkpt>
      <trkpt lat="47.14054" lon="-1.19896">
        <ele>72.8</ele>
        <time>2019-10-11T14:50:30Z</time>
      </trkpt>
      <trkpt lat="47.14052" lon="-1.19901">
        <ele>72.8</ele>
        <time>2019-10-11T14:50:31Z</time>
      </trkpt>
      <trkpt lat="47.14051" lon="-1.19906">
        <ele>72.8</ele>
        <time>2019-10-11T14:50:32Z</time>
      </trkpt>
      <trkpt lat="47.14049" lon="-1.19911">
        <ele>72.8</ele>
        <time>2019-10-11T14:50:33Z</time>
      </trkpt>
      <trkpt lat="47.14047" lon="-1.19916">
        <ele>72.8</ele>
        <time>2019-10-11T14:50:34Z</time>
      </trkpt>
      <trkpt lat="47.14045" lon="-1.19921">
        <ele>72.8</ele>
        <time>2019-10-11T14:50:35Z</time>
      </trkpt>
      <trkpt lat="47.14044" lon="-1.19927">
        <ele>72.8</ele>
        <time>2019-10-11T14:50:36Z</time>
      </trkpt>
      <trkpt lat="47.14042" lon="-1.19932">
        <ele>72.9</ele>
        <time>2019-10-11T14:50:37Z</time>
      </trkpt>
      <trkpt lat="47.14041" lon="-1.19937">
        <ele>72.9</ele>
        <time>2019-10-11T14:50:38Z</time>
      </trkpt>
      <trkpt lat="47.14039" lon="-1.19942">
        <ele>72.9</ele>
        <time>2019-10-11T14:50:39Z</time>
      </trkpt>
      <trkpt lat="47.14038" lon="-1.19947">
        <ele>72.9</ele>
        <time>2019-10-11T14:50:40Z</time>
      </trkpt>
      <trkpt lat="47.14036" lon="-1.19952">
        <ele>72.9</ele>
        <time>2019-10-11T14:50:41Z</time>
      </trkpt>
      <trkpt lat="47.14035" lon="-1.19957">
        <ele>73</ele>
        <time>2019-10-11T14:50:42Z</time>
      </trkpt>
      <trkpt lat="47.14034" lon="-1.19962">
        <ele>73</ele>
        <time>2019-10-11T14:50:43Z</time>
      </trkpt>
      <trkpt lat="47.14032" lon="-1.19967">
        <ele>73.1</ele>
        <time>2019-10-11T14:50:44Z</time>
      </trkpt>
      <trkpt lat="47.14031" lon="-1.19972">
        <ele>73.2</ele>
        <time>2019-10-11T14:50:45Z</time>
      </trkpt>
      <trkpt lat="47.14029" lon="-1.19978">
        <ele>73.3</ele>
        <time>2019-10-11T14:50:46Z</time>
      </trkpt>
      <trkpt lat="47.14028" lon="-1.19983">
        <ele>73.4</ele>
        <time>2019-10-11T14:50:47Z</time>
      </trkpt>
      <trkpt lat="47.14027" lon="-1.19988">
        <ele>73.5</ele>
        <time>2019-10-11T14:50:48Z</time>
      </trkpt>
      <trkpt lat="47.14025" lon="-1.19993">
        <ele>73.5</ele>
        <time>2019-10-11T14:50:49Z</time>
      </trkpt>
      <trkpt lat="47.14024" lon="-1.19999">
        <ele>73.6</ele>
        <time>2019-10-11T14:50:50Z</time>
      </trkpt>
      <trkpt lat="47.14022" lon="-1.20004">
        <ele>73.7</ele>
        <time>2019-10-11T14:50:51Z</time>
      </trkpt>
      <trkpt lat="47.14021" lon="-1.2001">
        <ele>73.8</ele>
        <time>2019-10-11T14:50:52Z</time>
      </trkpt>
      <trkpt lat="47.14019" lon="-1.20015">
        <ele>73.8</ele>
        <time>2019-10-11T14:50:53Z</time>
      </trkpt>
      <trkpt lat="47.14018" lon="-1.20021">
        <ele>73.9</ele>
        <time>2019-10-11T14:50:54Z</time>
      </trkpt>
      <trkpt lat="47.14017" lon="-1.20026">
        <ele>74</ele>
        <time>2019-10-11T14:50:55Z</time>
      </trkpt>
      <trkpt lat="47.14015" lon="-1.20032">
        <ele>74</ele>
        <time>2019-10-11T14:50:56Z</time>
      </trkpt>
      <trkpt lat="47.14014" lon="-1.20038">
        <ele>74.1</ele>
        <time>2019-10-11T14:50:57Z</time>
      </trkpt>
      <trkpt lat="47.14013" lon="-1.20044">
        <ele>74.2</ele>
        <time>2019-10-11T14:50:58Z</time>
      </trkpt>
      <trkpt lat="47.14011" lon="-1.2005">
        <ele>74.3</ele>
        <time>2019-10-11T14:50:59Z</time>
      </trkpt>
      <trkpt lat="47.1401" lon="-1.20055">
        <ele>74.4</ele>
        <time>2019-10-11T14:51:00Z</time>
      </trkpt>
      <trkpt lat="47.14009" lon="-1.20061">
        <ele>74.5</ele>
        <time>2019-10-11T14:51:01Z</time>
      </trkpt>
      <trkpt lat="47.14007" lon="-1.20067">
        <ele>74.5</ele>
        <time>2019-10-11T14:51:02Z</time>
      </trkpt>
      <trkpt lat="47.14006" lon="-1.20073">
        <ele>74.6</ele>
        <time>2019-10-11T14:51:03Z</time>
      </trkpt>
      <trkpt lat="47.14004" lon="-1.20079">
        <ele>74.7</ele>
        <time>2019-10-11T14:51:04Z</time>
      </trkpt>
      <trkpt lat="47.14003" lon="-1.20085">
        <ele>74.8</ele>
        <time>2019-10-11T14:51:05Z</time>
      </trkpt>
      <trkpt lat="47.14002" lon="-1.2009">
        <ele>74.8</ele>
        <time>2019-10-11T14:51:06Z</time>
      </trkpt>
      <trkpt lat="47.14001" lon="-1.20096">
        <ele>74.8</ele>
        <time>2019-10-11T14:51:07Z</time>
      </trkpt>
      <trkpt lat="47.13999" lon="-1.20101">
        <ele>74.9</ele>
        <time>2019-10-11T14:51:08Z</time>
      </trkpt>
      <trkpt lat="47.13998" lon="-1.20107">
        <ele>74.9</ele>
        <time>2019-10-11T14:51:09Z</time>
      </trkpt>
      <trkpt lat="47.13996" lon="-1.20112">
        <ele>75</ele>
        <time>2019-10-11T14:51:10Z</time>
      </trkpt>
      <trkpt lat="47.13995" lon="-1.20117">
        <ele>75</ele>
        <time>2019-10-11T14:51:11Z</time>
      </trkpt>
      <trkpt lat="47.13993" lon="-1.20123">
        <ele>75.1</ele>
        <time>2019-10-11T14:51:12Z</time>
      </trkpt>
      <trkpt lat="47.13992" lon="-1.20128">
        <ele>75.2</ele>
        <time>2019-10-11T14:51:13Z</time>
      </trkpt>
      <trkpt lat="47.1399" lon="-1.20134">
        <ele>75.3</ele>
        <time>2019-10-11T14:51:14Z</time>
      </trkpt>
      <trkpt lat="47.13989" lon="-1.20139">
        <ele>75.4</ele>
        <time>2019-10-11T14:51:15Z</time>
      </trkpt>
      <trkpt lat="47.13987" lon="-1.20144">
        <ele>75.5</ele>
        <time>2019-10-11T14:51:16Z</time>
      </trkpt>
      <trkpt lat="47.13986" lon="-1.2015">
        <ele>75.7</ele>
        <time>2019-10-11T14:51:17Z</time>
      </trkpt>
      <trkpt lat="47.13984" lon="-1.20155">
        <ele>75.8</ele>
        <time>2019-10-11T14:51:18Z</time>
      </trkpt>
      <trkpt lat="47.13983" lon="-1.2016">
        <ele>76</ele>
        <time>2019-10-11T14:51:19Z</time>
      </trkpt>
      <trkpt lat="47.13981" lon="-1.20166">
        <ele>76.1</ele>
        <time>2019-10-11T14:51:20Z</time>
      </trkpt>
      <trkpt lat="47.1398" lon="-1.20171">
        <ele>76.3</ele>
        <time>2019-10-11T14:51:21Z</time>
      </trkpt>
      <trkpt lat="47.13978" lon="-1.20176">
        <ele>76.5</ele>
        <time>2019-10-11T14:51:22Z</time>
      </trkpt>
      <trkpt lat="47.13977" lon="-1.20181">
        <ele>76.6</ele>
        <time>2019-10-11T14:51:23Z</time>
      </trkpt>
      <trkpt lat="47.13976" lon="-1.20187">
        <ele>76.8</ele>
        <time>2019-10-11T14:51:24Z</time>
      </trkpt>
      <trkpt lat="47.13974" lon="-1.20192">
        <ele>77</ele>
        <time>2019-10-11T14:51:25Z</time>
      </trkpt>
      <trkpt lat="47.13973" lon="-1.20197">
        <ele>77.1</ele>
        <time>2019-10-11T14:51:26Z</time>
      </trkpt>
      <trkpt lat="47.13972" lon="-1.20202">
        <ele>77.3</ele>
        <time>2019-10-11T14:51:27Z</time>
      </trkpt>
      <trkpt lat="47.13971" lon="-1.20207">
        <ele>77.4</ele>
        <time>2019-10-11T14:51:28Z</time>
      </trkpt>
      <trkpt lat="47.13969" lon="-1.20211">
        <ele>77.5</ele>
        <time>2019-10-11T14:51:29Z</time>
      </trkpt>
      <trkpt lat="47.13968" lon="-1.20216">
        <ele>77.6</ele>
        <time>2019-10-11T14:51:30Z</time>
      </trkpt>
      <trkpt lat="47.13967" lon="-1.20221">
        <ele>77.7</ele>
        <time>2019-10-11T14:51:31Z</time>
      </trkpt>
      <trkpt lat="47.13965" lon="-1.20226">
        <ele>77.7</ele>
        <time>2019-10-11T14:51:32Z</time>
      </trkpt>
      <trkpt lat="47.13964" lon="-1.20231">
        <ele>77.8</ele>
        <time>2019-10-11T14:51:33Z</time>
      </trkpt>
      <trkpt lat="47.13963" lon="-1.20236">
        <ele>77.8</ele>
        <time>2019-10-11T14:51:34Z</time>
      </trkpt>
      <trkpt lat="47.13962" lon="-1.20241">
        <ele>77.8</ele>
        <time>2019-10-11T14:51:35Z</time>
      </trkpt>
      <trkpt lat="47.13961" lon="-1.20246">
        <ele>77.8</ele>
        <time>2019-10-11T14:51:36Z</time>
      </trkpt>
      <trkpt lat="47.1396" lon="-1.20251">
        <ele>77.8</ele>
        <time>2019-10-11T14:51:37Z</time>
      </trkpt>
      <trkpt lat="47.13958" lon="-1.20256">
        <ele>77.8</ele>
        <time>2019-10-11T14:51:38Z</time>
      </trkpt>
      <trkpt lat="47.13957" lon="-1.20261">
        <ele>77.8</ele>
        <time>2019-10-11T14:51:39Z</time>
      </trkpt>
      <trkpt lat="47.13956" lon="-1.20266">
        <ele>77.8</ele>
        <time>2019-10-11T14:51:40Z</time>
      </trkpt>
      <trkpt lat="47.13955" lon="-1.20271">
        <ele>77.8</ele>
        <time>2019-10-11T14:51:41Z</time>
      </trkpt>
      <trkpt lat="47.13954" lon="-1.20276">
        <ele>77.8</ele>
        <time>2019-10-11T14:51:42Z</time>
      </trkpt>
      <trkpt lat="47.13953" lon="-1.20281">
        <ele>77.8</ele>
        <time>2019-10-11T14:51:43Z</time>
      </trkpt>
      <trkpt lat="47.13952" lon="-1.20286">
        <ele>77.8</ele>
        <time>2019-10-11T14:51:44Z</time>
      </trkpt>
      <trkpt lat="47.13951" lon="-1.20291">
        <ele>77.8</ele>
        <time>2019-10-11T14:51:45Z</time>
      </trkpt>
      <trkpt lat="47.1395" lon="-1.20296">
        <ele>77.8</ele>
        <time>2019-10-11T14:51:46Z</time>
      </trkpt>
      <trkpt lat="47.13949" lon="-1.20301">
        <ele>77.8</ele>
        <time>2019-10-11T14:51:47Z</time>
      </trkpt>
      <trkpt lat="47.13948" lon="-1.20306">
        <ele>77.8</ele>
        <time>2019-10-11T14:51:48Z</time>
      </trkpt>
      <trkpt lat="47.13947" lon="-1.20311">
        <ele>77.8</ele>
        <time>2019-10-11T14:51:49Z</time>
      </trkpt>
      <trkpt lat="47.13946" lon="-1.20317">
        <ele>77.7</ele>
        <time>2019-10-11T14:51:50Z</time>
      </trkpt>
      <trkpt lat="47.13945" lon="-1.20322">
        <ele>77.7</ele>
        <time>2019-10-11T14:51:51Z</time>
      </trkpt>
      <trkpt lat="47.13944" lon="-1.20327">
        <ele>77.6</ele>
        <time>2019-10-11T14:51:52Z</time>
      </trkpt>
      <trkpt lat="47.13943" lon="-1.20332">
        <ele>77.6</ele>
        <time>2019-10-11T14:51:53Z</time>
      </trkpt>
      <trkpt lat="47.13942" lon="-1.20337">
        <ele>77.5</ele>
        <time>2019-10-11T14:51:54Z</time>
      </trkpt>
      <trkpt lat="47.13941" lon="-1.20342">
        <ele>77.4</ele>
        <time>2019-10-11T14:51:55Z</time>
      </trkpt>
      <trkpt lat="47.1394" lon="-1.20347">
        <ele>77.4</ele>
        <time>2019-10-11T14:51:56Z</time>
      </trkpt>
      <trkpt lat="47.13939" lon="-1.20353">
        <ele>77.3</ele>
        <time>2019-10-11T14:51:57Z</time>
      </trkpt>
      <trkpt lat="47.13937" lon="-1.20358">
        <ele>77.2</ele>
        <time>2019-10-11T14:51:58Z</time>
      </trkpt>
      <trkpt lat="47.13936" lon="-1.20363">
        <ele>77.1</ele>
        <time>2019-10-11T14:51:59Z</time>
      </trkpt>
      <trkpt lat="47.13934" lon="-1.20368">
        <ele>77</ele>
        <time>2019-10-11T14:52:00Z</time>
      </trkpt>
      <trkpt lat="47.13933" lon="-1.20374">
        <ele>76.9</ele>
        <time>2019-10-11T14:52:01Z</time>
      </trkpt>
      <trkpt lat="47.13932" lon="-1.20379">
        <ele>76.7</ele>
        <time>2019-10-11T14:52:02Z</time>
      </trkpt>
      <trkpt lat="47.1393" lon="-1.20385">
        <ele>76.6</ele>
        <time>2019-10-11T14:52:03Z</time>
      </trkpt>
      <trkpt lat="47.13929" lon="-1.20391">
        <ele>76.5</ele>
        <time>2019-10-11T14:52:04Z</time>
      </trkpt>
      <trkpt lat="47.13927" lon="-1.20396">
        <ele>76.3</ele>
        <time>2019-10-11T14:52:05Z</time>
      </trkpt>
      <trkpt lat="47.13926" lon="-1.20402">
        <ele>76.2</ele>
        <time>2019-10-11T14:52:06Z</time>
      </trkpt>
      <trkpt lat="47.13924" lon="-1.20408">
        <ele>76</ele>
        <time>2019-10-11T14:52:07Z</time>
      </trkpt>
      <trkpt lat="47.13922" lon="-1.20414">
        <ele>75.8</ele>
        <time>2019-10-11T14:52:08Z</time>
      </trkpt>
      <trkpt lat="47.13921" lon="-1.2042">
        <ele>75.6</ele>
        <time>2019-10-11T14:52:09Z</time>
      </trkpt>
      <trkpt lat="47.13919" lon="-1.20426">
        <ele>75.5</ele>
        <time>2019-10-11T14:52:10Z</time>
      </trkpt>
      <trkpt lat="47.13917" lon="-1.20433">
        <ele>75.3</ele>
        <time>2019-10-11T14:52:11Z</time>
      </trkpt>
      <trkpt lat="47.13916" lon="-1.20439">
        <ele>75.1</ele>
        <time>2019-10-11T14:52:12Z</time>
      </trkpt>
      <trkpt lat="47.13914" lon="-1.20446">
        <ele>74.9</ele>
        <time>2019-10-11T14:52:13Z</time>
      </trkpt>
      <trkpt lat="47.13912" lon="-1.20452">
        <ele>74.7</ele>
        <time>2019-10-11T14:52:14Z</time>
      </trkpt>
      <trkpt lat="47.13911" lon="-1.20459">
        <ele>74.5</ele>
        <time>2019-10-11T14:52:15Z</time>
      </trkpt>
      <trkpt lat="47.13909" lon="-1.20465">
        <ele>74.3</ele>
        <time>2019-10-11T14:52:16Z</time>
      </trkpt>
      <trkpt lat="47.13908" lon="-1.20472">
        <ele>74</ele>
        <time>2019-10-11T14:52:17Z</time>
      </trkpt>
      <trkpt lat="47.13906" lon="-1.20479">
        <ele>73.6</ele>
        <time>2019-10-11T14:52:18Z</time>
      </trkpt>
      <trkpt lat="47.13905" lon="-1.20486">
        <ele>73.3</ele>
        <time>2019-10-11T14:52:19Z</time>
      </trkpt>
      <trkpt lat="47.13904" lon="-1.20493">
        <ele>72.9</ele>
        <time>2019-10-11T14:52:20Z</time>
      </trkpt>
      <trkpt lat="47.13903" lon="-1.205">
        <ele>72.5</ele>
        <time>2019-10-11T14:52:21Z</time>
      </trkpt>
      <trkpt lat="47.13902" lon="-1.20508">
        <ele>72.3</ele>
        <time>2019-10-11T14:52:22Z</time>
      </trkpt>
      <trkpt lat="47.13901" lon="-1.20515">
        <ele>72</ele>
        <time>2019-10-11T14:52:23Z</time>
      </trkpt>
      <trkpt lat="47.139" lon="-1.20522">
        <ele>71.8</ele>
        <time>2019-10-11T14:52:24Z</time>
      </trkpt>
      <trkpt lat="47.13899" lon="-1.2053">
        <ele>71.6</ele>
        <time>2019-10-11T14:52:25Z</time>
      </trkpt>
      <trkpt lat="47.13898" lon="-1.20538">
        <ele>71.4</ele>
        <time>2019-10-11T14:52:26Z</time>
      </trkpt>
      <trkpt lat="47.13897" lon="-1.20545">
        <ele>71.2</ele>
        <time>2019-10-11T14:52:27Z</time>
      </trkpt>
      <trkpt lat="47.13896" lon="-1.20553">
        <ele>71</ele>
        <time>2019-10-11T14:52:28Z</time>
      </trkpt>
      <trkpt lat="47.13895" lon="-1.2056">
        <ele>70.9</ele>
        <time>2019-10-11T14:52:29Z</time>
      </trkpt>
      <trkpt lat="47.13894" lon="-1.20568">
        <ele>70.8</ele>
        <time>2019-10-11T14:52:30Z</time>
      </trkpt>
      <trkpt lat="47.13893" lon="-1.20576">
        <ele>70.7</ele>
        <time>2019-10-11T14:52:31Z</time>
      </trkpt>
      <trkpt lat="47.13892" lon="-1.20584">
        <ele>70.6</ele>
        <time>2019-10-11T14:52:32Z</time>
      </trkpt>
      <trkpt lat="47.13892" lon="-1.20593">
        <ele>70.6</ele>
        <time>2019-10-11T14:52:33Z</time>
      </trkpt>
      <trkpt lat="47.13891" lon="-1.20601">
        <ele>70.6</ele>
        <time>2019-10-11T14:52:34Z</time>
      </trkpt>
      <trkpt lat="47.1389" lon="-1.2061">
        <ele>70.6</ele>
        <time>2019-10-11T14:52:35Z</time>
      </trkpt>
      <trkpt lat="47.13889" lon="-1.20618">
        <ele>70.6</ele>
        <time>2019-10-11T14:52:36Z</time>
      </trkpt>
      <trkpt lat="47.13888" lon="-1.20626">
        <ele>70.6</ele>
        <time>2019-10-11T14:52:37Z</time>
      </trkpt>
      <trkpt lat="47.13887" lon="-1.20635">
        <ele>70.6</ele>
        <time>2019-10-11T14:52:38Z</time>
      </trkpt>
      <trkpt lat="47.13886" lon="-1.20643">
        <ele>70.6</ele>
        <time>2019-10-11T14:52:39Z</time>
      </trkpt>
      <trkpt lat="47.13885" lon="-1.20651">
        <ele>70.5</ele>
        <time>2019-10-11T14:52:40Z</time>
      </trkpt>
      <trkpt lat="47.13884" lon="-1.20659">
        <ele>70.5</ele>
        <time>2019-10-11T14:52:41Z</time>
      </trkpt>
      <trkpt lat="47.13884" lon="-1.20668">
        <ele>70.5</ele>
        <time>2019-10-11T14:52:42Z</time>
      </trkpt>
      <trkpt lat="47.13883" lon="-1.20676">
        <ele>70.5</ele>
        <time>2019-10-11T14:52:43Z</time>
      </trkpt>
      <trkpt lat="47.13883" lon="-1.20684">
        <ele>70.5</ele>
        <time>2019-10-11T14:52:44Z</time>
      </trkpt>
      <trkpt lat="47.13883" lon="-1.20693">
        <ele>70.5</ele>
        <time>2019-10-11T14:52:45Z</time>
      </trkpt>
      <trkpt lat="47.13884" lon="-1.20701">
        <ele>70.5</ele>
        <time>2019-10-11T14:52:46Z</time>
      </trkpt>
      <trkpt lat="47.13884" lon="-1.20709">
        <ele>70.5</ele>
        <time>2019-10-11T14:52:47Z</time>
      </trkpt>
      <trkpt lat="47.13885" lon="-1.20717">
        <ele>70.5</ele>
        <time>2019-10-11T14:52:48Z</time>
      </trkpt>
      <trkpt lat="47.13885" lon="-1.20725">
        <ele>70.5</ele>
        <time>2019-10-11T14:52:49Z</time>
      </trkpt>
      <trkpt lat="47.13886" lon="-1.20732">
        <ele>70.5</ele>
        <time>2019-10-11T14:52:50Z</time>
      </trkpt>
      <trkpt lat="47.13886" lon="-1.2074">
        <ele>70.5</ele>
        <time>2019-10-11T14:52:51Z</time>
      </trkpt>
      <trkpt lat="47.13886" lon="-1.20748">
        <ele>70.5</ele>
        <time>2019-10-11T14:52:52Z</time>
      </trkpt>
      <trkpt lat="47.13886" lon="-1.20756">
        <ele>70.6</ele>
        <time>2019-10-11T14:52:53Z</time>
      </trkpt>
      <trkpt lat="47.13885" lon="-1.20764">
        <ele>70.6</ele>
        <time>2019-10-11T14:52:54Z</time>
      </trkpt>
      <trkpt lat="47.13885" lon="-1.20771">
        <ele>70.7</ele>
        <time>2019-10-11T14:52:55Z</time>
      </trkpt>
      <trkpt lat="47.13883" lon="-1.20779">
        <ele>70.8</ele>
        <time>2019-10-11T14:52:56Z</time>
      </trkpt>
      <trkpt lat="47.13882" lon="-1.20786">
        <ele>70.9</ele>
        <time>2019-10-11T14:52:57Z</time>
      </trkpt>
      <trkpt lat="47.1388" lon="-1.20793">
        <ele>71</ele>
        <time>2019-10-11T14:52:58Z</time>
      </trkpt>
      <trkpt lat="47.13878" lon="-1.20799">
        <ele>71.1</ele>
        <time>2019-10-11T14:52:59Z</time>
      </trkpt>
      <trkpt lat="47.13876" lon="-1.20806">
        <ele>71.2</ele>
        <time>2019-10-11T14:53:00Z</time>
      </trkpt>
      <trkpt lat="47.13873" lon="-1.20811">
        <ele>71.3</ele>
        <time>2019-10-11T14:53:01Z</time>
      </trkpt>
      <trkpt lat="47.1387" lon="-1.20817">
        <ele>71.4</ele>
        <time>2019-10-11T14:53:02Z</time>
      </trkpt>
      <trkpt lat="47.13866" lon="-1.20822">
        <ele>71.4</ele>
        <time>2019-10-11T14:53:03Z</time>
      </trkpt>
      <trkpt lat="47.13863" lon="-1.20827">
        <ele>71.5</ele>
        <time>2019-10-11T14:53:04Z</time>
      </trkpt>
      <trkpt lat="47.13859" lon="-1.20832">
        <ele>71.6</ele>
        <time>2019-10-11T14:53:05Z</time>
      </trkpt>
      <trkpt lat="47.13856" lon="-1.20836">
        <ele>71.7</ele>
        <time>2019-10-11T14:53:06Z</time>
      </trkpt>
      <trkpt lat="47.13852" lon="-1.20841">
        <ele>71.8</ele>
        <time>2019-10-11T14:53:07Z</time>
      </trkpt>
      <trkpt lat="47.13849" lon="-1.20846">
        <ele>71.9</ele>
        <time>2019-10-11T14:53:08Z</time>
      </trkpt>
      <trkpt lat="47.13846" lon="-1.20851">
        <ele>72</ele>
        <time>2019-10-11T14:53:09Z</time>
      </trkpt>
      <trkpt lat="47.13842" lon="-1.20856">
        <ele>72.1</ele>
        <time>2019-10-11T14:53:10Z</time>
      </trkpt>
      <trkpt lat="47.1384" lon="-1.20861">
        <ele>72.2</ele>
        <time>2019-10-11T14:53:11Z</time>
      </trkpt>
      <trkpt lat="47.13837" lon="-1.20866">
        <ele>72.4</ele>
        <time>2019-10-11T14:53:12Z</time>
      </trkpt>
      <trkpt lat="47.13835" lon="-1.20872">
        <ele>72.4</ele>
        <time>2019-10-11T14:53:13Z</time>
      </trkpt>
      <trkpt lat="47.13833" lon="-1.20877">
        <ele>72.4</ele>
        <time>2019-10-11T14:53:14Z</time>
      </trkpt>
      <trkpt lat="47.13831" lon="-1.20883">
        <ele>72.4</ele>
        <time>2019-10-11T14:53:15Z</time>
      </trkpt>
      <trkpt lat="47.13829" lon="-1.20888">
        <ele>72.4</ele>
        <time>2019-10-11T14:53:16Z</time>
      </trkpt>
      <trkpt lat="47.13827" lon="-1.20894">
        <ele>72.4</ele>
        <time>2019-10-11T14:53:17Z</time>
      </trkpt>
      <trkpt lat="47.13825" lon="-1.209">
        <ele>72.4</ele>
        <time>2019-10-11T14:53:18Z</time>
      </trkpt>
      <trkpt lat="47.13824" lon="-1.20906">
        <ele>72.4</ele>
        <time>2019-10-11T14:53:19Z</time>
      </trkpt>
      <trkpt lat="47.13823" lon="-1.20911">
        <ele>72.4</ele>
        <time>2019-10-11T14:53:20Z</time>
      </trkpt>
      <trkpt lat="47.13822" lon="-1.20917">
        <ele>72.4</ele>
        <time>2019-10-11T14:53:21Z</time>
      </trkpt>
      <trkpt lat="47.13821" lon="-1.20923">
        <ele>72.5</ele>
        <time>2019-10-11T14:53:22Z</time>
      </trkpt>
      <trkpt lat="47.13819" lon="-1.20928">
        <ele>72.6</ele>
        <time>2019-10-11T14:53:23Z</time>
      </trkpt>
      <trkpt lat="47.13818" lon="-1.20934">
        <ele>72.7</ele>
        <time>2019-10-11T14:53:24Z</time>
      </trkpt>
      <trkpt lat="47.13817" lon="-1.2094">
        <ele>72.8</ele>
        <time>2019-10-11T14:53:25Z</time>
      </trkpt>
      <trkpt lat="47.13816" lon="-1.20945">
        <ele>72.9</ele>
        <time>2019-10-11T14:53:26Z</time>
      </trkpt>
      <trkpt lat="47.13815" lon="-1.20951">
        <ele>73</ele>
        <time>2019-10-11T14:53:27Z</time>
      </trkpt>
      <trkpt lat="47.13814" lon="-1.20956">
        <ele>73.1</ele>
        <time>2019-10-11T14:53:28Z</time>
      </trkpt>
      <trkpt lat="47.13812" lon="-1.20961">
        <ele>73.2</ele>
        <time>2019-10-11T14:53:29Z</time>
      </trkpt>
      <trkpt lat="47.13811" lon="-1.20967">
        <ele>73.3</ele>
        <time>2019-10-11T14:53:30Z</time>
      </trkpt>
      <trkpt lat="47.1381" lon="-1.20972">
        <ele>73.4</ele>
        <time>2019-10-11T14:53:31Z</time>
      </trkpt>
      <trkpt lat="47.13809" lon="-1.20978">
        <ele>73.5</ele>
        <time>2019-10-11T14:53:32Z</time>
      </trkpt>
      <trkpt lat="47.13808" lon="-1.20983">
        <ele>73.5</ele>
        <time>2019-10-11T14:53:33Z</time>
      </trkpt>
      <trkpt lat="47.13807" lon="-1.20988">
        <ele>73.6</ele>
        <time>2019-10-11T14:53:34Z</time>
      </trkpt>
      <trkpt lat="47.13806" lon="-1.20994">
        <ele>73.7</ele>
        <time>2019-10-11T14:53:35Z</time>
      </trkpt>
      <trkpt lat="47.13804" lon="-1.20999">
        <ele>73.8</ele>
        <time>2019-10-11T14:53:36Z</time>
      </trkpt>
      <trkpt lat="47.13803" lon="-1.21004">
        <ele>74</ele>
        <time>2019-10-11T14:53:37Z</time>
      </trkpt>
      <trkpt lat="47.13803" lon="-1.21009">
        <ele>74</ele>
        <time>2019-10-11T14:53:38Z</time>
      </trkpt>
      <trkpt lat="47.13802" lon="-1.21014">
        <ele>74.1</ele>
        <time>2019-10-11T14:53:39Z</time>
      </trkpt>
      <trkpt lat="47.13801" lon="-1.21019">
        <ele>74.2</ele>
        <time>2019-10-11T14:53:40Z</time>
      </trkpt>
      <trkpt lat="47.138" lon="-1.21024">
        <ele>74.3</ele>
        <time>2019-10-11T14:53:41Z</time>
      </trkpt>
      <trkpt lat="47.13799" lon="-1.21029">
        <ele>74.3</ele>
        <time>2019-10-11T14:53:42Z</time>
      </trkpt>
      <trkpt lat="47.13798" lon="-1.21034">
        <ele>74.4</ele>
        <time>2019-10-11T14:53:43Z</time>
      </trkpt>
      <trkpt lat="47.13797" lon="-1.21039">
        <ele>74.5</ele>
        <time>2019-10-11T14:53:44Z</time>
      </trkpt>
      <trkpt lat="47.13796" lon="-1.21045">
        <ele>74.6</ele>
        <time>2019-10-11T14:53:45Z</time>
      </trkpt>
      <trkpt lat="47.13795" lon="-1.2105">
        <ele>74.7</ele>
        <time>2019-10-11T14:53:46Z</time>
      </trkpt>
      <trkpt lat="47.13794" lon="-1.21056">
        <ele>74.8</ele>
        <time>2019-10-11T14:53:47Z</time>
      </trkpt>
      <trkpt lat="47.13793" lon="-1.21062">
        <ele>74.9</ele>
        <time>2019-10-11T14:53:48Z</time>
      </trkpt>
      <trkpt lat="47.13793" lon="-1.21069">
        <ele>75</ele>
        <time>2019-10-11T14:53:49Z</time>
      </trkpt>
      <trkpt lat="47.13792" lon="-1.21075">
        <ele>75.1</ele>
        <time>2019-10-11T14:53:50Z</time>
      </trkpt>
      <trkpt lat="47.13791" lon="-1.21081">
        <ele>75.2</ele>
        <time>2019-10-11T14:53:51Z</time>
      </trkpt>
      <trkpt lat="47.13791" lon="-1.21087">
        <ele>75.2</ele>
        <time>2019-10-11T14:53:52Z</time>
      </trkpt>
      <trkpt lat="47.13791" lon="-1.21093">
        <ele>75.2</ele>
        <time>2019-10-11T14:53:53Z</time>
      </trkpt>
      <trkpt lat="47.13791" lon="-1.21099">
        <ele>75.3</ele>
        <time>2019-10-11T14:53:54Z</time>
      </trkpt>
      <trkpt lat="47.13791" lon="-1.21105">
        <ele>75.3</ele>
        <time>2019-10-11T14:53:55Z</time>
      </trkpt>
      <trkpt lat="47.13791" lon="-1.21111">
        <ele>75.3</ele>
        <time>2019-10-11T14:53:56Z</time>
      </trkpt>
      <trkpt lat="47.13791" lon="-1.21116">
        <ele>75.3</ele>
        <time>2019-10-11T14:53:57Z</time>
      </trkpt>
      <trkpt lat="47.13791" lon="-1.21122">
        <ele>75.4</ele>
        <time>2019-10-11T14:53:58Z</time>
      </trkpt>
      <trkpt lat="47.1379" lon="-1.21127">
        <ele>75.4</ele>
        <time>2019-10-11T14:53:59Z</time>
      </trkpt>
      <trkpt lat="47.1379" lon="-1.21132">
        <ele>75.4</ele>
        <time>2019-10-11T14:54:00Z</time>
      </trkpt>
      <trkpt lat="47.13789" lon="-1.21137">
        <ele>75.4</ele>
        <time>2019-10-11T14:54:01Z</time>
      </trkpt>
      <trkpt lat="47.13789" lon="-1.21143">
        <ele>75.4</ele>
        <time>2019-10-11T14:54:02Z</time>
      </trkpt>
      <trkpt lat="47.13788" lon="-1.21149">
        <ele>75.4</ele>
        <time>2019-10-11T14:54:03Z</time>
      </trkpt>
      <trkpt lat="47.13787" lon="-1.21154">
        <ele>75.4</ele>
        <time>2019-10-11T14:54:04Z</time>
      </trkpt>
      <trkpt lat="47.13786" lon="-1.2116">
        <ele>75.4</ele>
        <time>2019-10-11T14:54:05Z</time>
      </trkpt>
      <trkpt lat="47.13785" lon="-1.21166">
        <ele>75.4</ele>
        <time>2019-10-11T14:54:06Z</time>
      </trkpt>
      <trkpt lat="47.13784" lon="-1.21172">
        <ele>75.4</ele>
        <time>2019-10-11T14:54:07Z</time>
      </trkpt>
      <trkpt lat="47.13783" lon="-1.21178">
        <ele>75.3</ele>
        <time>2019-10-11T14:54:08Z</time>
      </trkpt>
      <trkpt lat="47.13782" lon="-1.21183">
        <ele>75.3</ele>
        <time>2019-10-11T14:54:09Z</time>
      </trkpt>
      <trkpt lat="47.13781" lon="-1.21189">
        <ele>75.3</ele>
        <time>2019-10-11T14:54:10Z</time>
      </trkpt>
      <trkpt lat="47.1378" lon="-1.21194">
        <ele>75.3</ele>
        <time>2019-10-11T14:54:11Z</time>
      </trkpt>
      <trkpt lat="47.13779" lon="-1.212">
        <ele>75.2</ele>
        <time>2019-10-11T14:54:12Z</time>
      </trkpt>
      <trkpt lat="47.13778" lon="-1.21206">
        <ele>75.2</ele>
        <time>2019-10-11T14:54:13Z</time>
      </trkpt>
      <trkpt lat="47.13776" lon="-1.21211">
        <ele>75.1</ele>
        <time>2019-10-11T14:54:14Z</time>
      </trkpt>
      <trkpt lat="47.13775" lon="-1.21217">
        <ele>75.1</ele>
        <time>2019-10-11T14:54:15Z</time>
      </trkpt>
      <trkpt lat="47.13773" lon="-1.21223">
        <ele>75</ele>
        <time>2019-10-11T14:54:16Z</time>
      </trkpt>
      <trkpt lat="47.13772" lon="-1.21228">
        <ele>75</ele>
        <time>2019-10-11T14:54:17Z</time>
      </trkpt>
      <trkpt lat="47.1377" lon="-1.21233">
        <ele>74.9</ele>
        <time>2019-10-11T14:54:18Z</time>
      </trkpt>
      <trkpt lat="47.13769" lon="-1.21237">
        <ele>74.8</ele>
        <time>2019-10-11T14:54:19Z</time>
      </trkpt>
      <trkpt lat="47.13768" lon="-1.21242">
        <ele>74.8</ele>
        <time>2019-10-11T14:54:20Z</time>
      </trkpt>
      <trkpt lat="47.13767" lon="-1.21247">
        <ele>74.7</ele>
        <time>2019-10-11T14:54:21Z</time>
      </trkpt>
      <trkpt lat="47.13766" lon="-1.21252">
        <ele>74.6</ele>
        <time>2019-10-11T14:54:22Z</time>
      </trkpt>
      <trkpt lat="47.13765" lon="-1.21257">
        <ele>74.6</ele>
        <time>2019-10-11T14:54:23Z</time>
      </trkpt>
      <trkpt lat="47.13763" lon="-1.21262">
        <ele>74.5</ele>
        <time>2019-10-11T14:54:24Z</time>
      </trkpt>
      <trkpt lat="47.13762" lon="-1.21267">
        <ele>74.4</ele>
        <time>2019-10-11T14:54:25Z</time>
      </trkpt>
      <trkpt lat="47.13761" lon="-1.21271">
        <ele>74.3</ele>
        <time>2019-10-11T14:54:26Z</time>
      </trkpt>
      <trkpt lat="47.1376" lon="-1.21276">
        <ele>74.3</ele>
        <time>2019-10-11T14:54:27Z</time>
      </trkpt>
      <trkpt lat="47.13758" lon="-1.21281">
        <ele>74.2</ele>
        <time>2019-10-11T14:54:28Z</time>
      </trkpt>
      <trkpt lat="47.13757" lon="-1.21286">
        <ele>74.1</ele>
        <time>2019-10-11T14:54:29Z</time>
      </trkpt>
      <trkpt lat="47.13756" lon="-1.21291">
        <ele>74</ele>
        <time>2019-10-11T14:54:30Z</time>
      </trkpt>
      <trkpt lat="47.13755" lon="-1.21296">
        <ele>74</ele>
        <time>2019-10-11T14:54:31Z</time>
      </trkpt>
      <trkpt lat="47.13753" lon="-1.21301">
        <ele>73.9</ele>
        <time>2019-10-11T14:54:32Z</time>
      </trkpt>
      <trkpt lat="47.13752" lon="-1.21306">
        <ele>73.8</ele>
        <time>2019-10-11T14:54:33Z</time>
      </trkpt>
      <trkpt lat="47.13751" lon="-1.21311">
        <ele>73.8</ele>
        <time>2019-10-11T14:54:34Z</time>
      </trkpt>
      <trkpt lat="47.1375" lon="-1.21317">
        <ele>73.7</ele>
        <time>2019-10-11T14:54:35Z</time>
      </trkpt>
      <trkpt lat="47.13749" lon="-1.21322">
        <ele>73.6</ele>
        <time>2019-10-11T14:54:36Z</time>
      </trkpt>
      <trkpt lat="47.13748" lon="-1.21327">
        <ele>73.6</ele>
        <time>2019-10-11T14:54:37Z</time>
      </trkpt>
      <trkpt lat="47.13747" lon="-1.21332">
        <ele>73.5</ele>
        <time>2019-10-11T14:54:38Z</time>
      </trkpt>
      <trkpt lat="47.13745" lon="-1.21337">
        <ele>73.5</ele>
        <time>2019-10-11T14:54:39Z</time>
      </trkpt>
      <trkpt lat="47.13744" lon="-1.21342">
        <ele>73.5</ele>
        <time>2019-10-11T14:54:40Z</time>
      </trkpt>
      <trkpt lat="47.13743" lon="-1.21347">
        <ele>73.4</ele>
        <time>2019-10-11T14:54:41Z</time>
      </trkpt>
      <trkpt lat="47.13742" lon="-1.21351">
        <ele>73.4</ele>
        <time>2019-10-11T14:54:42Z</time>
      </trkpt>
      <trkpt lat="47.13741" lon="-1.21356">
        <ele>73.4</ele>
        <time>2019-10-11T14:54:43Z</time>
      </trkpt>
      <trkpt lat="47.13741" lon="-1.21361">
        <ele>73.4</ele>
        <time>2019-10-11T14:54:44Z</time>
      </trkpt>
      <trkpt lat="47.1374" lon="-1.21365">
        <ele>73.4</ele>
        <time>2019-10-11T14:54:45Z</time>
      </trkpt>
      <trkpt lat="47.13739" lon="-1.2137">
        <ele>73.4</ele>
        <time>2019-10-11T14:54:46Z</time>
      </trkpt>
      <trkpt lat="47.13738" lon="-1.21375">
        <ele>73.4</ele>
        <time>2019-10-11T14:54:47Z</time>
      </trkpt>
      <trkpt lat="47.13738" lon="-1.21381">
        <ele>73.4</ele>
        <time>2019-10-11T14:54:48Z</time>
      </trkpt>
      <trkpt lat="47.13737" lon="-1.21386">
        <ele>73.4</ele>
        <time>2019-10-11T14:54:49Z</time>
      </trkpt>
      <trkpt lat="47.13736" lon="-1.21391">
        <ele>73.4</ele>
        <time>2019-10-11T14:54:50Z</time>
      </trkpt>
      <trkpt lat="47.13736" lon="-1.21397">
        <ele>73.4</ele>
        <time>2019-10-11T14:54:51Z</time>
      </trkpt>
      <trkpt lat="47.13735" lon="-1.21402">
        <ele>73.4</ele>
        <time>2019-10-11T14:54:52Z</time>
      </trkpt>
      <trkpt lat="47.13735" lon="-1.21407">
        <ele>73.4</ele>
        <time>2019-10-11T14:54:53Z</time>
      </trkpt>
      <trkpt lat="47.13734" lon="-1.21412">
        <ele>73.4</ele>
        <time>2019-10-11T14:54:54Z</time>
      </trkpt>
      <trkpt lat="47.13735" lon="-1.21416">
        <ele>73.4</ele>
        <time>2019-10-11T14:54:55Z</time>
      </trkpt>
      <trkpt lat="47.13735" lon="-1.21421">
        <ele>73.4</ele>
        <time>2019-10-11T14:54:56Z</time>
      </trkpt>
      <trkpt lat="47.13735" lon="-1.21426">
        <ele>73.4</ele>
        <time>2019-10-11T14:54:57Z</time>
      </trkpt>
      <trkpt lat="47.13735" lon="-1.21431">
        <ele>73.4</ele>
        <time>2019-10-11T14:54:58Z</time>
      </trkpt>
      <trkpt lat="47.13734" lon="-1.21437">
        <ele>73.4</ele>
        <time>2019-10-11T14:54:59Z</time>
      </trkpt>
      <trkpt lat="47.13734" lon="-1.21443">
        <ele>73.4</ele>
        <time>2019-10-11T14:55:00Z</time>
      </trkpt>
      <trkpt lat="47.13734" lon="-1.21449">
        <ele>73.4</ele>
        <time>2019-10-11T14:55:01Z</time>
      </trkpt>
      <trkpt lat="47.13734" lon="-1.21455">
        <ele>73.4</ele>
        <time>2019-10-11T14:55:02Z</time>
      </trkpt>
      <trkpt lat="47.13735" lon="-1.2146">
        <ele>73.4</ele>
        <time>2019-10-11T14:55:03Z</time>
      </trkpt>
      <trkpt lat="47.13735" lon="-1.21466">
        <ele>73.4</ele>
        <time>2019-10-11T14:55:04Z</time>
      </trkpt>
      <trkpt lat="47.13736" lon="-1.21471">
        <ele>73.4</ele>
        <time>2019-10-11T14:55:05Z</time>
      </trkpt>
      <trkpt lat="47.13736" lon="-1.21476">
        <ele>73.4</ele>
        <time>2019-10-11T14:55:06Z</time>
      </trkpt>
      <trkpt lat="47.13736" lon="-1.21481">
        <ele>73.4</ele>
        <time>2019-10-11T14:55:07Z</time>
      </trkpt>
      <trkpt lat="47.13737" lon="-1.21487">
        <ele>73.4</ele>
        <time>2019-10-11T14:55:08Z</time>
      </trkpt>
      <trkpt lat="47.13737" lon="-1.21492">
        <ele>73.4</ele>
        <time>2019-10-11T14:55:09Z</time>
      </trkpt>
      <trkpt lat="47.13738" lon="-1.21497">
        <ele>73.4</ele>
        <time>2019-10-11T14:55:10Z</time>
      </trkpt>
      <trkpt lat="47.13738" lon="-1.21502">
        <ele>73.4</ele>
        <time>2019-10-11T14:55:11Z</time>
      </trkpt>
      <trkpt lat="47.13738" lon="-1.21507">
        <ele>73.4</ele>
        <time>2019-10-11T14:55:12Z</time>
      </trkpt>
      <trkpt lat="47.13739" lon="-1.21511">
        <ele>73.4</ele>
        <time>2019-10-11T14:55:13Z</time>
      </trkpt>
      <trkpt lat="47.13739" lon="-1.21516">
        <ele>73.4</ele>
        <time>2019-10-11T14:55:14Z</time>
      </trkpt>
      <trkpt lat="47.1374" lon="-1.21521">
        <ele>73.4</ele>
        <time>2019-10-11T14:55:15Z</time>
      </trkpt>
      <trkpt lat="47.1374" lon="-1.21526">
        <ele>73.4</ele>
        <time>2019-10-11T14:55:16Z</time>
      </trkpt>
      <trkpt lat="47.1374" lon="-1.21532">
        <ele>73.4</ele>
        <time>2019-10-11T14:55:17Z</time>
      </trkpt>
      <trkpt lat="47.1374" lon="-1.21537">
        <ele>73.4</ele>
        <time>2019-10-11T14:55:18Z</time>
      </trkpt>
      <trkpt lat="47.1374" lon="-1.21543">
        <ele>73.4</ele>
        <time>2019-10-11T14:55:19Z</time>
      </trkpt>
      <trkpt lat="47.1374" lon="-1.21549">
        <ele>73.4</ele>
        <time>2019-10-11T14:55:20Z</time>
      </trkpt>
      <trkpt lat="47.13739" lon="-1.21554">
        <ele>73.4</ele>
        <time>2019-10-11T14:55:21Z</time>
      </trkpt>
      <trkpt lat="47.13739" lon="-1.2156">
        <ele>73.4</ele>
        <time>2019-10-11T14:55:22Z</time>
      </trkpt>
      <trkpt lat="47.13738" lon="-1.21565">
        <ele>73.4</ele>
        <time>2019-10-11T14:55:23Z</time>
      </trkpt>
      <trkpt lat="47.13737" lon="-1.2157">
        <ele>73.4</ele>
        <time>2019-10-11T14:55:24Z</time>
      </trkpt>
      <trkpt lat="47.13736" lon="-1.21575">
        <ele>73.4</ele>
        <time>2019-10-11T14:55:25Z</time>
      </trkpt>
      <trkpt lat="47.13734" lon="-1.2158">
        <ele>73.4</ele>
        <time>2019-10-11T14:55:26Z</time>
      </trkpt>
      <trkpt lat="47.13733" lon="-1.21585">
        <ele>73.4</ele>
        <time>2019-10-11T14:55:27Z</time>
      </trkpt>
      <trkpt lat="47.13731" lon="-1.2159">
        <ele>73.4</ele>
        <time>2019-10-11T14:55:28Z</time>
      </trkpt>
      <trkpt lat="47.13729" lon="-1.21595">
        <ele>73.4</ele>
        <time>2019-10-11T14:55:29Z</time>
      </trkpt>
      <trkpt lat="47.13728" lon="-1.216">
        <ele>73.4</ele>
        <time>2019-10-11T14:55:30Z</time>
      </trkpt>
      <trkpt lat="47.13726" lon="-1.21605">
        <ele>73.4</ele>
        <time>2019-10-11T14:55:31Z</time>
      </trkpt>
      <trkpt lat="47.13725" lon="-1.2161">
        <ele>73.4</ele>
        <time>2019-10-11T14:55:32Z</time>
      </trkpt>
      <trkpt lat="47.13722" lon="-1.21615">
        <ele>73.4</ele>
        <time>2019-10-11T14:55:33Z</time>
      </trkpt>
      <trkpt lat="47.1372" lon="-1.2162">
        <ele>73.4</ele>
        <time>2019-10-11T14:55:34Z</time>
      </trkpt>
      <trkpt lat="47.13718" lon="-1.21625">
        <ele>73.4</ele>
        <time>2019-10-11T14:55:35Z</time>
      </trkpt>
      <trkpt lat="47.13715" lon="-1.2163">
        <ele>73.4</ele>
        <time>2019-10-11T14:55:36Z</time>
      </trkpt>
      <trkpt lat="47.13713" lon="-1.21635">
        <ele>73.4</ele>
        <time>2019-10-11T14:55:37Z</time>
      </trkpt>
      <trkpt lat="47.13711" lon="-1.2164">
        <ele>73.4</ele>
        <time>2019-10-11T14:55:38Z</time>
      </trkpt>
      <trkpt lat="47.13709" lon="-1.21644">
        <ele>73.4</ele>
        <time>2019-10-11T14:55:39Z</time>
      </trkpt>
      <trkpt lat="47.13706" lon="-1.21649">
        <ele>73.4</ele>
        <time>2019-10-11T14:55:40Z</time>
      </trkpt>
      <trkpt lat="47.13704" lon="-1.21654">
        <ele>73.4</ele>
        <time>2019-10-11T14:55:41Z</time>
      </trkpt>
      <trkpt lat="47.13702" lon="-1.21659">
        <ele>73.4</ele>
        <time>2019-10-11T14:55:42Z</time>
      </trkpt>
      <trkpt lat="47.137" lon="-1.21663">
        <ele>73.4</ele>
        <time>2019-10-11T14:55:43Z</time>
      </trkpt>
      <trkpt lat="47.13698" lon="-1.21668">
        <ele>73.4</ele>
        <time>2019-10-11T14:55:44Z</time>
      </trkpt>
      <trkpt lat="47.13696" lon="-1.21673">
        <ele>73.4</ele>
        <time>2019-10-11T14:55:45Z</time>
      </trkpt>
      <trkpt lat="47.13693" lon="-1.21677">
        <ele>73.4</ele>
        <time>2019-10-11T14:55:46Z</time>
      </trkpt>
      <trkpt lat="47.13691" lon="-1.21682">
        <ele>73.4</ele>
        <time>2019-10-11T14:55:47Z</time>
      </trkpt>
      <trkpt lat="47.13688" lon="-1.21686">
        <ele>73.4</ele>
        <time>2019-10-11T14:55:48Z</time>
      </trkpt>
      <trkpt lat="47.13686" lon="-1.21691">
        <ele>73.4</ele>
        <time>2019-10-11T14:55:49Z</time>
      </trkpt>
      <trkpt lat="47.13684" lon="-1.21695">
        <ele>73.4</ele>
        <time>2019-10-11T14:55:50Z</time>
      </trkpt>
      <trkpt lat="47.13681" lon="-1.21699">
        <ele>73.4</ele>
        <time>2019-10-11T14:55:51Z</time>
      </trkpt>
      <trkpt lat="47.13678" lon="-1.21704">
        <ele>73.4</ele>
        <time>2019-10-11T14:55:52Z</time>
      </trkpt>
      <trkpt lat="47.13676" lon="-1.21709">
        <ele>73.4</ele>
        <time>2019-10-11T14:55:53Z</time>
      </trkpt>
      <trkpt lat="47.13673" lon="-1.21713">
        <ele>73.4</ele>
        <time>2019-10-11T14:55:54Z</time>
      </trkpt>
      <trkpt lat="47.13671" lon="-1.21718">
        <ele>73.4</ele>
        <time>2019-10-11T14:55:55Z</time>
      </trkpt>
      <trkpt lat="47.13668" lon="-1.21722">
        <ele>73.4</ele>
        <time>2019-10-11T14:55:56Z</time>
      </trkpt>
      <trkpt lat="47.13666" lon="-1.21727">
        <ele>73.4</ele>
        <time>2019-10-11T14:55:57Z</time>
      </trkpt>
      <trkpt lat="47.13663" lon="-1.21731">
        <ele>73.4</ele>
        <time>2019-10-11T14:55:58Z</time>
      </trkpt>
      <trkpt lat="47.13661" lon="-1.21735">
        <ele>73.4</ele>
        <time>2019-10-11T14:55:59Z</time>
      </trkpt>
      <trkpt lat="47.13658" lon="-1.21739">
        <ele>73.4</ele>
        <time>2019-10-11T14:56:00Z</time>
      </trkpt>
      <trkpt lat="47.13655" lon="-1.21743">
        <ele>73.4</ele>
        <time>2019-10-11T14:56:01Z</time>
      </trkpt>
      <trkpt lat="47.13653" lon="-1.21748">
        <ele>73.4</ele>
        <time>2019-10-11T14:56:02Z</time>
      </trkpt>
      <trkpt lat="47.1365" lon="-1.21752">
        <ele>73.4</ele>
        <time>2019-10-11T14:56:03Z</time>
      </trkpt>
      <trkpt lat="47.13647" lon="-1.21757">
        <ele>73.4</ele>
        <time>2019-10-11T14:56:04Z</time>
      </trkpt>
      <trkpt lat="47.13644" lon="-1.21762">
        <ele>73.4</ele>
        <time>2019-10-11T14:56:05Z</time>
      </trkpt>
      <trkpt lat="47.13642" lon="-1.21766">
        <ele>73.4</ele>
        <time>2019-10-11T14:56:06Z</time>
      </trkpt>
      <trkpt lat="47.13639" lon="-1.21771">
        <ele>73.4</ele>
        <time>2019-10-11T14:56:07Z</time>
      </trkpt>
      <trkpt lat="47.13636" lon="-1.21775">
        <ele>73.4</ele>
        <time>2019-10-11T14:56:08Z</time>
      </trkpt>
      <trkpt lat="47.13633" lon="-1.2178">
        <ele>73.3</ele>
        <time>2019-10-11T14:56:09Z</time>
      </trkpt>
      <trkpt lat="47.1363" lon="-1.21784">
        <ele>73.3</ele>
        <time>2019-10-11T14:56:10Z</time>
      </trkpt>
      <trkpt lat="47.13627" lon="-1.21789">
        <ele>73.3</ele>
        <time>2019-10-11T14:56:11Z</time>
      </trkpt>
      <trkpt lat="47.13624" lon="-1.21794">
        <ele>73.2</ele>
        <time>2019-10-11T14:56:12Z</time>
      </trkpt>
      <trkpt lat="47.13621" lon="-1.21798">
        <ele>73.2</ele>
        <time>2019-10-11T14:56:13Z</time>
      </trkpt>
      <trkpt lat="47.13618" lon="-1.21803">
        <ele>73.1</ele>
        <time>2019-10-11T14:56:14Z</time>
      </trkpt>
      <trkpt lat="47.13615" lon="-1.21808">
        <ele>73.1</ele>
        <time>2019-10-11T14:56:15Z</time>
      </trkpt>
      <trkpt lat="47.13612" lon="-1.21812">
        <ele>73</ele>
        <time>2019-10-11T14:56:16Z</time>
      </trkpt>
      <trkpt lat="47.13609" lon="-1.21816">
        <ele>73</ele>
        <time>2019-10-11T14:56:17Z</time>
      </trkpt>
      <trkpt lat="47.13606" lon="-1.2182">
        <ele>72.9</ele>
        <time>2019-10-11T14:56:18Z</time>
      </trkpt>
      <trkpt lat="47.13604" lon="-1.21824">
        <ele>72.9</ele>
        <time>2019-10-11T14:56:19Z</time>
      </trkpt>
      <trkpt lat="47.13601" lon="-1.21828">
        <ele>72.8</ele>
        <time>2019-10-11T14:56:20Z</time>
      </trkpt>
      <trkpt lat="47.13598" lon="-1.21832">
        <ele>72.8</ele>
        <time>2019-10-11T14:56:21Z</time>
      </trkpt>
      <trkpt lat="47.13596" lon="-1.21836">
        <ele>72.7</ele>
        <time>2019-10-11T14:56:22Z</time>
      </trkpt>
      <trkpt lat="47.13593" lon="-1.21839">
        <ele>72.6</ele>
        <time>2019-10-11T14:56:23Z</time>
      </trkpt>
      <trkpt lat="47.1359" lon="-1.21843">
        <ele>72.6</ele>
        <time>2019-10-11T14:56:24Z</time>
      </trkpt>
      <trkpt lat="47.13587" lon="-1.21846">
        <ele>72.5</ele>
        <time>2019-10-11T14:56:25Z</time>
      </trkpt>
      <trkpt lat="47.13584" lon="-1.21849">
        <ele>72.5</ele>
        <time>2019-10-11T14:56:26Z</time>
      </trkpt>
      <trkpt lat="47.13581" lon="-1.21853">
        <ele>72.5</ele>
        <time>2019-10-11T14:56:27Z</time>
      </trkpt>
      <trkpt lat="47.13578" lon="-1.21856">
        <ele>72.5</ele>
        <time>2019-10-11T14:56:28Z</time>
      </trkpt>
      <trkpt lat="47.13575" lon="-1.21859">
        <ele>72.5</ele>
        <time>2019-10-11T14:56:29Z</time>
      </trkpt>
      <trkpt lat="47.13572" lon="-1.21863">
        <ele>72.5</ele>
        <time>2019-10-11T14:56:30Z</time>
      </trkpt>
      <trkpt lat="47.13569" lon="-1.21867">
        <ele>72.5</ele>
        <time>2019-10-11T14:56:31Z</time>
      </trkpt>
      <trkpt lat="47.13565" lon="-1.2187">
        <ele>72.4</ele>
        <time>2019-10-11T14:56:32Z</time>
      </trkpt>
      <trkpt lat="47.13562" lon="-1.21874">
        <ele>72.4</ele>
        <time>2019-10-11T14:56:33Z</time>
      </trkpt>
      <trkpt lat="47.13558" lon="-1.21877">
        <ele>72.4</ele>
        <time>2019-10-11T14:56:34Z</time>
      </trkpt>
      <trkpt lat="47.13555" lon="-1.21881">
        <ele>72.4</ele>
        <time>2019-10-11T14:56:35Z</time>
      </trkpt>
      <trkpt lat="47.13551" lon="-1.21884">
        <ele>72.4</ele>
        <time>2019-10-11T14:56:36Z</time>
      </trkpt>
      <trkpt lat="47.13548" lon="-1.21888">
        <ele>72.4</ele>
        <time>2019-10-11T14:56:37Z</time>
      </trkpt>
      <trkpt lat="47.13545" lon="-1.21892">
        <ele>72.4</ele>
        <time>2019-10-11T14:56:38Z</time>
      </trkpt>
      <trkpt lat="47.13541" lon="-1.21896">
        <ele>72.4</ele>
        <time>2019-10-11T14:56:39Z</time>
      </trkpt>
      <trkpt lat="47.13538" lon="-1.219">
        <ele>72.4</ele>
        <time>2019-10-11T14:56:40Z</time>
      </trkpt>
      <trkpt lat="47.13534" lon="-1.21904">
        <ele>72.4</ele>
        <time>2019-10-11T14:56:41Z</time>
      </trkpt>
      <trkpt lat="47.13531" lon="-1.21908">
        <ele>72.4</ele>
        <time>2019-10-11T14:56:42Z</time>
      </trkpt>
      <trkpt lat="47.13527" lon="-1.21912">
        <ele>72.4</ele>
        <time>2019-10-11T14:56:43Z</time>
      </trkpt>
      <trkpt lat="47.13524" lon="-1.21916">
        <ele>72.4</ele>
        <time>2019-10-11T14:56:44Z</time>
      </trkpt>
      <trkpt lat="47.13521" lon="-1.2192">
        <ele>72.4</ele>
        <time>2019-10-11T14:56:45Z</time>
      </trkpt>
      <trkpt lat="47.13518" lon="-1.21925">
        <ele>72.4</ele>
        <time>2019-10-11T14:56:46Z</time>
      </trkpt>
      <trkpt lat="47.13514" lon="-1.2193">
        <ele>72.4</ele>
        <time>2019-10-11T14:56:47Z</time>
      </trkpt>
      <trkpt lat="47.13511" lon="-1.21935">
        <ele>72.4</ele>
        <time>2019-10-11T14:56:48Z</time>
      </trkpt>
      <trkpt lat="47.13507" lon="-1.2194">
        <ele>72.4</ele>
        <time>2019-10-11T14:56:49Z</time>
      </trkpt>
      <trkpt lat="47.13503" lon="-1.21945">
        <ele>72.4</ele>
        <time>2019-10-11T14:56:50Z</time>
      </trkpt>
      <trkpt lat="47.13498" lon="-1.2195">
        <ele>72.4</ele>
        <time>2019-10-11T14:56:51Z</time>
      </trkpt>
      <trkpt lat="47.13494" lon="-1.21956">
        <ele>72.4</ele>
        <time>2019-10-11T14:56:52Z</time>
      </trkpt>
      <trkpt lat="47.1349" lon="-1.21961">
        <ele>72.4</ele>
        <time>2019-10-11T14:56:53Z</time>
      </trkpt>
      <trkpt lat="47.13486" lon="-1.21967">
        <ele>72.4</ele>
        <time>2019-10-11T14:56:54Z</time>
      </trkpt>
      <trkpt lat="47.13482" lon="-1.21973">
        <ele>72.4</ele>
        <time>2019-10-11T14:56:55Z</time>
      </trkpt>
      <trkpt lat="47.13478" lon="-1.21979">
        <ele>72.3</ele>
        <time>2019-10-11T14:56:56Z</time>
      </trkpt>
      <trkpt lat="47.13473" lon="-1.21985">
        <ele>72.3</ele>
        <time>2019-10-11T14:56:57Z</time>
      </trkpt>
      <trkpt lat="47.13469" lon="-1.2199">
        <ele>72.2</ele>
        <time>2019-10-11T14:56:58Z</time>
      </trkpt>
      <trkpt lat="47.13465" lon="-1.21995">
        <ele>72</ele>
        <time>2019-10-11T14:56:59Z</time>
      </trkpt>
      <trkpt lat="47.13461" lon="-1.22">
        <ele>71.8</ele>
        <time>2019-10-11T14:57:00Z</time>
      </trkpt>
      <trkpt lat="47.13456" lon="-1.22006">
        <ele>71.6</ele>
        <time>2019-10-11T14:57:01Z</time>
      </trkpt>
      <trkpt lat="47.13451" lon="-1.22012">
        <ele>71.4</ele>
        <time>2019-10-11T14:57:02Z</time>
      </trkpt>
      <trkpt lat="47.13446" lon="-1.22018">
        <ele>71.2</ele>
        <time>2019-10-11T14:57:03Z</time>
      </trkpt>
      <trkpt lat="47.1344" lon="-1.22023">
        <ele>70.9</ele>
        <time>2019-10-11T14:57:04Z</time>
      </trkpt>
      <trkpt lat="47.13435" lon="-1.22029">
        <ele>70.6</ele>
        <time>2019-10-11T14:57:05Z</time>
      </trkpt>
      <trkpt lat="47.13428" lon="-1.22034">
        <ele>70.2</ele>
        <time>2019-10-11T14:57:06Z</time>
      </trkpt>
      <trkpt lat="47.13422" lon="-1.22039">
        <ele>69.9</ele>
        <time>2019-10-11T14:57:07Z</time>
      </trkpt>
      <trkpt lat="47.13416" lon="-1.22043">
        <ele>69.5</ele>
        <time>2019-10-11T14:57:08Z</time>
      </trkpt>
      <trkpt lat="47.1341" lon="-1.22048">
        <ele>69.1</ele>
        <time>2019-10-11T14:57:09Z</time>
      </trkpt>
      <trkpt lat="47.13403" lon="-1.22052">
        <ele>68.7</ele>
        <time>2019-10-11T14:57:10Z</time>
      </trkpt>
      <trkpt lat="47.13397" lon="-1.22057">
        <ele>68.3</ele>
        <time>2019-10-11T14:57:11Z</time>
      </trkpt>
      <trkpt lat="47.1339" lon="-1.22062">
        <ele>67.8</ele>
        <time>2019-10-11T14:57:12Z</time>
      </trkpt>
      <trkpt lat="47.13383" lon="-1.22067">
        <ele>67.4</ele>
        <time>2019-10-11T14:57:13Z</time>
      </trkpt>
      <trkpt lat="47.13376" lon="-1.22072">
        <ele>66.8</ele>
        <time>2019-10-11T14:57:14Z</time>
      </trkpt>
      <trkpt lat="47.1337" lon="-1.22078">
        <ele>66.1</ele>
        <time>2019-10-11T14:57:15Z</time>
      </trkpt>
      <trkpt lat="47.13364" lon="-1.22085">
        <ele>65.4</ele>
        <time>2019-10-11T14:57:16Z</time>
      </trkpt>
      <trkpt lat="47.1336" lon="-1.22093">
        <ele>64.9</ele>
        <time>2019-10-11T14:57:17Z</time>
      </trkpt>
      <trkpt lat="47.13356" lon="-1.22102">
        <ele>64.4</ele>
        <time>2019-10-11T14:57:18Z</time>
      </trkpt>
      <trkpt lat="47.13354" lon="-1.22111">
        <ele>64</ele>
        <time>2019-10-11T14:57:19Z</time>
      </trkpt>
      <trkpt lat="47.13352" lon="-1.2212">
        <ele>63.6</ele>
        <time>2019-10-11T14:57:20Z</time>
      </trkpt>
      <trkpt lat="47.13351" lon="-1.22129">
        <ele>63.3</ele>
        <time>2019-10-11T14:57:21Z</time>
      </trkpt>
      <trkpt lat="47.13351" lon="-1.22138">
        <ele>62.9</ele>
        <time>2019-10-11T14:57:22Z</time>
      </trkpt>
      <trkpt lat="47.1335" lon="-1.22146">
        <ele>62.6</ele>
        <time>2019-10-11T14:57:23Z</time>
      </trkpt>
      <trkpt lat="47.1335" lon="-1.22153">
        <ele>62.3</ele>
        <time>2019-10-11T14:57:24Z</time>
      </trkpt>
      <trkpt lat="47.13349" lon="-1.22161">
        <ele>61.9</ele>
        <time>2019-10-11T14:57:25Z</time>
      </trkpt>
      <trkpt lat="47.13349" lon="-1.22168">
        <ele>61.6</ele>
        <time>2019-10-11T14:57:26Z</time>
      </trkpt>
      <trkpt lat="47.13349" lon="-1.22174">
        <ele>61.2</ele>
        <time>2019-10-11T14:57:27Z</time>
      </trkpt>
      <trkpt lat="47.13348" lon="-1.22181">
        <ele>60.9</ele>
        <time>2019-10-11T14:57:28Z</time>
      </trkpt>
      <trkpt lat="47.13349" lon="-1.22187">
        <ele>60.7</ele>
        <time>2019-10-11T14:57:29Z</time>
      </trkpt>
      <trkpt lat="47.13349" lon="-1.22193">
        <ele>60.5</ele>
        <time>2019-10-11T14:57:30Z</time>
      </trkpt>
      <trkpt lat="47.13349" lon="-1.222">
        <ele>60.3</ele>
        <time>2019-10-11T14:57:31Z</time>
      </trkpt>
      <trkpt lat="47.13349" lon="-1.22207">
        <ele>60.1</ele>
        <time>2019-10-11T14:57:32Z</time>
      </trkpt>
      <trkpt lat="47.13349" lon="-1.22214">
        <ele>59.9</ele>
        <time>2019-10-11T14:57:33Z</time>
      </trkpt>
      <trkpt lat="47.13349" lon="-1.22221">
        <ele>59.8</ele>
        <time>2019-10-11T14:57:34Z</time>
      </trkpt>
      <trkpt lat="47.13348" lon="-1.22228">
        <ele>59.6</ele>
        <time>2019-10-11T14:57:35Z</time>
      </trkpt>
      <trkpt lat="47.13348" lon="-1.22236">
        <ele>59.4</ele>
        <time>2019-10-11T14:57:36Z</time>
      </trkpt>
      <trkpt lat="47.13348" lon="-1.22244">
        <ele>59.3</ele>
        <time>2019-10-11T14:57:37Z</time>
      </trkpt>
      <trkpt lat="47.13348" lon="-1.22252">
        <ele>59.1</ele>
        <time>2019-10-11T14:57:38Z</time>
      </trkpt>
      <trkpt lat="47.13348" lon="-1.22261">
        <ele>58.9</ele>
        <time>2019-10-11T14:57:39Z</time>
      </trkpt>
      <trkpt lat="47.13348" lon="-1.2227">
        <ele>58.8</ele>
        <time>2019-10-11T14:57:40Z</time>
      </trkpt>
      <trkpt lat="47.13347" lon="-1.2228">
        <ele>58.7</ele>
        <time>2019-10-11T14:57:41Z</time>
      </trkpt>
      <trkpt lat="47.13347" lon="-1.22289">
        <ele>58.6</ele>
        <time>2019-10-11T14:57:42Z</time>
      </trkpt>
      <trkpt lat="47.13346" lon="-1.22299">
        <ele>58.6</ele>
        <time>2019-10-11T14:57:43Z</time>
      </trkpt>
      <trkpt lat="47.13345" lon="-1.22308">
        <ele>58.6</ele>
        <time>2019-10-11T14:57:44Z</time>
      </trkpt>
      <trkpt lat="47.13344" lon="-1.22317">
        <ele>58.5</ele>
        <time>2019-10-11T14:57:45Z</time>
      </trkpt>
      <trkpt lat="47.13343" lon="-1.22327">
        <ele>58.5</ele>
        <time>2019-10-11T14:57:46Z</time>
      </trkpt>
      <trkpt lat="47.13341" lon="-1.22337">
        <ele>58.5</ele>
        <time>2019-10-11T14:57:47Z</time>
      </trkpt>
      <trkpt lat="47.1334" lon="-1.22347">
        <ele>58.5</ele>
        <time>2019-10-11T14:57:48Z</time>
      </trkpt>
      <trkpt lat="47.13339" lon="-1.22357">
        <ele>58.7</ele>
        <time>2019-10-11T14:57:49Z</time>
      </trkpt>
      <trkpt lat="47.13338" lon="-1.22366">
        <ele>58.6</ele>
        <time>2019-10-11T14:57:50Z</time>
      </trkpt>
      <trkpt lat="47.13337" lon="-1.22374">
        <ele>58.6</ele>
        <time>2019-10-11T14:57:51Z</time>
      </trkpt>
      <trkpt lat="47.13335" lon="-1.22382">
        <ele>58.7</ele>
        <time>2019-10-11T14:57:52Z</time>
      </trkpt>
      <trkpt lat="47.13334" lon="-1.22389">
        <ele>58.9</ele>
        <time>2019-10-11T14:57:53Z</time>
      </trkpt>
      <trkpt lat="47.13333" lon="-1.22395">
        <ele>59.1</ele>
        <time>2019-10-11T14:57:54Z</time>
      </trkpt>
      <trkpt lat="47.13332" lon="-1.22402">
        <ele>59.1</ele>
        <time>2019-10-11T14:57:55Z</time>
      </trkpt>
      <trkpt lat="47.13331" lon="-1.22408">
        <ele>59.2</ele>
        <time>2019-10-11T14:57:56Z</time>
      </trkpt>
      <trkpt lat="47.1333" lon="-1.22414">
        <ele>59.2</ele>
        <time>2019-10-11T14:57:57Z</time>
      </trkpt>
      <trkpt lat="47.13329" lon="-1.2242">
        <ele>59.2</ele>
        <time>2019-10-11T14:57:58Z</time>
      </trkpt>
      <trkpt lat="47.13327" lon="-1.22426">
        <ele>59.3</ele>
        <time>2019-10-11T14:57:59Z</time>
      </trkpt>
      <trkpt lat="47.13326" lon="-1.22431">
        <ele>59.4</ele>
        <time>2019-10-11T14:58:00Z</time>
      </trkpt>
      <trkpt lat="47.13325" lon="-1.22437">
        <ele>59.3</ele>
        <time>2019-10-11T14:58:01Z</time>
      </trkpt>
      <trkpt lat="47.13324" lon="-1.22442">
        <ele>59.3</ele>
        <time>2019-10-11T14:58:02Z</time>
      </trkpt>
      <trkpt lat="47.13324" lon="-1.22447">
        <ele>59.3</ele>
        <time>2019-10-11T14:58:03Z</time>
      </trkpt>
      <trkpt lat="47.13323" lon="-1.22452">
        <ele>59.3</ele>
        <time>2019-10-11T14:58:04Z</time>
      </trkpt>
      <trkpt lat="47.13322" lon="-1.22456">
        <ele>59.3</ele>
        <time>2019-10-11T14:58:05Z</time>
      </trkpt>
      <trkpt lat="47.13321" lon="-1.22461">
        <ele>59.3</ele>
        <time>2019-10-11T14:58:06Z</time>
      </trkpt>
      <trkpt lat="47.1332" lon="-1.22466">
        <ele>59.3</ele>
        <time>2019-10-11T14:58:07Z</time>
      </trkpt>
      <trkpt lat="47.13319" lon="-1.22471">
        <ele>59.4</ele>
        <time>2019-10-11T14:58:08Z</time>
      </trkpt>
      <trkpt lat="47.13318" lon="-1.22477">
        <ele>59.5</ele>
        <time>2019-10-11T14:58:09Z</time>
      </trkpt>
      <trkpt lat="47.13317" lon="-1.22483">
        <ele>59.5</ele>
        <time>2019-10-11T14:58:10Z</time>
      </trkpt>
      <trkpt lat="47.13316" lon="-1.22489">
        <ele>59.5</ele>
        <time>2019-10-11T14:58:11Z</time>
      </trkpt>
      <trkpt lat="47.13316" lon="-1.22494">
        <ele>59.5</ele>
        <time>2019-10-11T14:58:12Z</time>
      </trkpt>
      <trkpt lat="47.13315" lon="-1.225">
        <ele>59.5</ele>
        <time>2019-10-11T14:58:13Z</time>
      </trkpt>
      <trkpt lat="47.13314" lon="-1.22506">
        <ele>59.5</ele>
        <time>2019-10-11T14:58:14Z</time>
      </trkpt>
      <trkpt lat="47.13313" lon="-1.22511">
        <ele>59.5</ele>
        <time>2019-10-11T14:58:15Z</time>
      </trkpt>
      <trkpt lat="47.13313" lon="-1.22517">
        <ele>59.5</ele>
        <time>2019-10-11T14:58:16Z</time>
      </trkpt>
      <trkpt lat="47.13312" lon="-1.22523">
        <ele>59.5</ele>
        <time>2019-10-11T14:58:17Z</time>
      </trkpt>
      <trkpt lat="47.13311" lon="-1.22529">
        <ele>59.5</ele>
        <time>2019-10-11T14:58:18Z</time>
      </trkpt>
      <trkpt lat="47.13311" lon="-1.22535">
        <ele>59.5</ele>
        <time>2019-10-11T14:58:19Z</time>
      </trkpt>
      <trkpt lat="47.13311" lon="-1.22541">
        <ele>59.5</ele>
        <time>2019-10-11T14:58:20Z</time>
      </trkpt>
      <trkpt lat="47.13311" lon="-1.22547">
        <ele>59.5</ele>
        <time>2019-10-11T14:58:21Z</time>
      </trkpt>
      <trkpt lat="47.1331" lon="-1.22552">
        <ele>59.5</ele>
        <time>2019-10-11T14:58:22Z</time>
      </trkpt>
      <trkpt lat="47.13309" lon="-1.22558">
        <ele>59.5</ele>
        <time>2019-10-11T14:58:23Z</time>
      </trkpt>
      <trkpt lat="47.13309" lon="-1.22564">
        <ele>59.4</ele>
        <time>2019-10-11T14:58:24Z</time>
      </trkpt>
      <trkpt lat="47.13308" lon="-1.2257">
        <ele>59.3</ele>
        <time>2019-10-11T14:58:25Z</time>
      </trkpt>
      <trkpt lat="47.13308" lon="-1.22576">
        <ele>59.1</ele>
        <time>2019-10-11T14:58:26Z</time>
      </trkpt>
      <trkpt lat="47.13307" lon="-1.22583">
        <ele>58.9</ele>
        <time>2019-10-11T14:58:27Z</time>
      </trkpt>
      <trkpt lat="47.13306" lon="-1.22589">
        <ele>58.8</ele>
        <time>2019-10-11T14:58:28Z</time>
      </trkpt>
      <trkpt lat="47.13306" lon="-1.22594">
        <ele>58.7</ele>
        <time>2019-10-11T14:58:29Z</time>
      </trkpt>
      <trkpt lat="47.13305" lon="-1.226">
        <ele>58.6</ele>
        <time>2019-10-11T14:58:30Z</time>
      </trkpt>
      <trkpt lat="47.13305" lon="-1.22605">
        <ele>58.5</ele>
        <time>2019-10-11T14:58:31Z</time>
      </trkpt>
      <trkpt lat="47.13304" lon="-1.2261">
        <ele>58.4</ele>
        <time>2019-10-11T14:58:32Z</time>
      </trkpt>
      <trkpt lat="47.13304" lon="-1.22615">
        <ele>58.4</ele>
        <time>2019-10-11T14:58:33Z</time>
      </trkpt>
      <trkpt lat="47.13304" lon="-1.22619">
        <ele>58.4</ele>
        <time>2019-10-11T14:58:34Z</time>
      </trkpt>
      <trkpt lat="47.13304" lon="-1.22624">
        <ele>58.4</ele>
        <time>2019-10-11T14:58:35Z</time>
      </trkpt>
      <trkpt lat="47.13304" lon="-1.22629">
        <ele>58.3</ele>
        <time>2019-10-11T14:58:36Z</time>
      </trkpt>
      <trkpt lat="47.13303" lon="-1.22635">
        <ele>58.3</ele>
        <time>2019-10-11T14:58:37Z</time>
      </trkpt>
      <trkpt lat="47.13303" lon="-1.22641">
        <ele>58.3</ele>
        <time>2019-10-11T14:58:38Z</time>
      </trkpt>
      <trkpt lat="47.13303" lon="-1.22647">
        <ele>58.2</ele>
        <time>2019-10-11T14:58:39Z</time>
      </trkpt>
      <trkpt lat="47.13303" lon="-1.22652">
        <ele>58.2</ele>
        <time>2019-10-11T14:58:40Z</time>
      </trkpt>
      <trkpt lat="47.13302" lon="-1.22658">
        <ele>58.2</ele>
        <time>2019-10-11T14:58:41Z</time>
      </trkpt>
      <trkpt lat="47.13302" lon="-1.22663">
        <ele>58.2</ele>
        <time>2019-10-11T14:58:42Z</time>
      </trkpt>
      <trkpt lat="47.13302" lon="-1.22669">
        <ele>58.2</ele>
        <time>2019-10-11T14:58:43Z</time>
      </trkpt>
      <trkpt lat="47.13302" lon="-1.22674">
        <ele>58.2</ele>
        <time>2019-10-11T14:58:44Z</time>
      </trkpt>
      <trkpt lat="47.13302" lon="-1.2268">
        <ele>58.2</ele>
        <time>2019-10-11T14:58:45Z</time>
      </trkpt>
      <trkpt lat="47.13302" lon="-1.22685">
        <ele>58.2</ele>
        <time>2019-10-11T14:58:46Z</time>
      </trkpt>
      <trkpt lat="47.13302" lon="-1.22691">
        <ele>58.2</ele>
        <time>2019-10-11T14:58:47Z</time>
      </trkpt>
      <trkpt lat="47.13302" lon="-1.22697">
        <ele>58.1</ele>
        <time>2019-10-11T14:58:48Z</time>
      </trkpt>
      <trkpt lat="47.13303" lon="-1.22702">
        <ele>58.1</ele>
        <time>2019-10-11T14:58:49Z</time>
      </trkpt>
      <trkpt lat="47.13303" lon="-1.22708">
        <ele>58.1</ele>
        <time>2019-10-11T14:58:50Z</time>
      </trkpt>
      <trkpt lat="47.13303" lon="-1.22714">
        <ele>58.1</ele>
        <time>2019-10-11T14:58:51Z</time>
      </trkpt>
      <trkpt lat="47.13304" lon="-1.2272">
        <ele>58.1</ele>
        <time>2019-10-11T14:58:52Z</time>
      </trkpt>
      <trkpt lat="47.13305" lon="-1.22725">
        <ele>58.1</ele>
        <time>2019-10-11T14:58:53Z</time>
      </trkpt>
      <trkpt lat="47.13305" lon="-1.22731">
        <ele>58.1</ele>
        <time>2019-10-11T14:58:54Z</time>
      </trkpt>
      <trkpt lat="47.13306" lon="-1.22737">
        <ele>58.1</ele>
        <time>2019-10-11T14:58:55Z</time>
      </trkpt>
      <trkpt lat="47.13307" lon="-1.22743">
        <ele>58.1</ele>
        <time>2019-10-11T14:58:56Z</time>
      </trkpt>
      <trkpt lat="47.13307" lon="-1.22749">
        <ele>58</ele>
        <time>2019-10-11T14:58:57Z</time>
      </trkpt>
      <trkpt lat="47.13308" lon="-1.22755">
        <ele>57.9</ele>
        <time>2019-10-11T14:58:58Z</time>
      </trkpt>
      <trkpt lat="47.13308" lon="-1.22761">
        <ele>57.8</ele>
        <time>2019-10-11T14:58:59Z</time>
      </trkpt>
      <trkpt lat="47.13308" lon="-1.22767">
        <ele>57.7</ele>
        <time>2019-10-11T14:59:00Z</time>
      </trkpt>
      <trkpt lat="47.13308" lon="-1.22773">
        <ele>57.7</ele>
        <time>2019-10-11T14:59:01Z</time>
      </trkpt>
      <trkpt lat="47.13307" lon="-1.22779">
        <ele>57.6</ele>
        <time>2019-10-11T14:59:02Z</time>
      </trkpt>
      <trkpt lat="47.13307" lon="-1.22785">
        <ele>57.6</ele>
        <time>2019-10-11T14:59:03Z</time>
      </trkpt>
      <trkpt lat="47.13307" lon="-1.2279">
        <ele>57.6</ele>
        <time>2019-10-11T14:59:04Z</time>
      </trkpt>
      <trkpt lat="47.13306" lon="-1.22796">
        <ele>57.7</ele>
        <time>2019-10-11T14:59:05Z</time>
      </trkpt>
      <trkpt lat="47.13306" lon="-1.22802">
        <ele>57.7</ele>
        <time>2019-10-11T14:59:06Z</time>
      </trkpt>
      <trkpt lat="47.13306" lon="-1.22808">
        <ele>57.6</ele>
        <time>2019-10-11T14:59:07Z</time>
      </trkpt>
      <trkpt lat="47.13305" lon="-1.22814">
        <ele>57.7</ele>
        <time>2019-10-11T14:59:08Z</time>
      </trkpt>
      <trkpt lat="47.13305" lon="-1.22819">
        <ele>57.9</ele>
        <time>2019-10-11T14:59:09Z</time>
      </trkpt>
      <trkpt lat="47.13304" lon="-1.22825">
        <ele>58</ele>
        <time>2019-10-11T14:59:10Z</time>
      </trkpt>
      <trkpt lat="47.13303" lon="-1.2283">
        <ele>58.1</ele>
        <time>2019-10-11T14:59:11Z</time>
      </trkpt>
      <trkpt lat="47.13302" lon="-1.22835">
        <ele>58.2</ele>
        <time>2019-10-11T14:59:12Z</time>
      </trkpt>
      <trkpt lat="47.13301" lon="-1.2284">
        <ele>58.4</ele>
        <time>2019-10-11T14:59:13Z</time>
      </trkpt>
      <trkpt lat="47.13301" lon="-1.22845">
        <ele>58.5</ele>
        <time>2019-10-11T14:59:14Z</time>
      </trkpt>
      <trkpt lat="47.133" lon="-1.2285">
        <ele>58.6</ele>
        <time>2019-10-11T14:59:15Z</time>
      </trkpt>
      <trkpt lat="47.13299" lon="-1.22855">
        <ele>58.7</ele>
        <time>2019-10-11T14:59:16Z</time>
      </trkpt>
      <trkpt lat="47.13298" lon="-1.2286">
        <ele>58.8</ele>
        <time>2019-10-11T14:59:17Z</time>
      </trkpt>
      <trkpt lat="47.13296" lon="-1.22865">
        <ele>58.9</ele>
        <time>2019-10-11T14:59:18Z</time>
      </trkpt>
      <trkpt lat="47.13295" lon="-1.2287">
        <ele>59</ele>
        <time>2019-10-11T14:59:19Z</time>
      </trkpt>
      <trkpt lat="47.13294" lon="-1.22875">
        <ele>59</ele>
        <time>2019-10-11T14:59:20Z</time>
      </trkpt>
      <trkpt lat="47.13294" lon="-1.2288">
        <ele>59.1</ele>
        <time>2019-10-11T14:59:21Z</time>
      </trkpt>
      <trkpt lat="47.13293" lon="-1.22884">
        <ele>59.1</ele>
        <time>2019-10-11T14:59:22Z</time>
      </trkpt>
      <trkpt lat="47.13292" lon="-1.22889">
        <ele>59.2</ele>
        <time>2019-10-11T14:59:23Z</time>
      </trkpt>
      <trkpt lat="47.13291" lon="-1.22894">
        <ele>59.2</ele>
        <time>2019-10-11T14:59:24Z</time>
      </trkpt>
      <trkpt lat="47.1329" lon="-1.22899">
        <ele>59.2</ele>
        <time>2019-10-11T14:59:25Z</time>
      </trkpt>
      <trkpt lat="47.13289" lon="-1.22903">
        <ele>59.2</ele>
        <time>2019-10-11T14:59:26Z</time>
      </trkpt>
      <trkpt lat="47.13288" lon="-1.22908">
        <ele>59.3</ele>
        <time>2019-10-11T14:59:27Z</time>
      </trkpt>
      <trkpt lat="47.13287" lon="-1.22912">
        <ele>59.3</ele>
        <time>2019-10-11T14:59:28Z</time>
      </trkpt>
      <trkpt lat="47.13287" lon="-1.22917">
        <ele>59.3</ele>
        <time>2019-10-11T14:59:29Z</time>
      </trkpt>
      <trkpt lat="47.13286" lon="-1.22922">
        <ele>59.3</ele>
        <time>2019-10-11T14:59:30Z</time>
      </trkpt>
      <trkpt lat="47.13285" lon="-1.22927">
        <ele>59.4</ele>
        <time>2019-10-11T14:59:31Z</time>
      </trkpt>
      <trkpt lat="47.13284" lon="-1.22931">
        <ele>59.4</ele>
        <time>2019-10-11T14:59:32Z</time>
      </trkpt>
      <trkpt lat="47.13283" lon="-1.22936">
        <ele>59.4</ele>
        <time>2019-10-11T14:59:33Z</time>
      </trkpt>
      <trkpt lat="47.13282" lon="-1.2294">
        <ele>59.4</ele>
        <time>2019-10-11T14:59:34Z</time>
      </trkpt>
      <trkpt lat="47.13281" lon="-1.22945">
        <ele>59.5</ele>
        <time>2019-10-11T14:59:35Z</time>
      </trkpt>
      <trkpt lat="47.13281" lon="-1.2295">
        <ele>59.5</ele>
        <time>2019-10-11T14:59:36Z</time>
      </trkpt>
      <trkpt lat="47.1328" lon="-1.22955">
        <ele>59.5</ele>
        <time>2019-10-11T14:59:37Z</time>
      </trkpt>
      <trkpt lat="47.13279" lon="-1.2296">
        <ele>59.5</ele>
        <time>2019-10-11T14:59:38Z</time>
      </trkpt>
      <trkpt lat="47.13278" lon="-1.22965">
        <ele>59.6</ele>
        <time>2019-10-11T14:59:39Z</time>
      </trkpt>
      <trkpt lat="47.13277" lon="-1.22969">
        <ele>59.6</ele>
        <time>2019-10-11T14:59:40Z</time>
      </trkpt>
      <trkpt lat="47.13276" lon="-1.22974">
        <ele>59.6</ele>
        <time>2019-10-11T14:59:41Z</time>
      </trkpt>
      <trkpt lat="47.13275" lon="-1.22979">
        <ele>59.6</ele>
        <time>2019-10-11T14:59:42Z</time>
      </trkpt>
      <trkpt lat="47.13274" lon="-1.22984">
        <ele>59.6</ele>
        <time>2019-10-11T14:59:43Z</time>
      </trkpt>
      <trkpt lat="47.13274" lon="-1.22988">
        <ele>59.6</ele>
        <time>2019-10-11T14:59:44Z</time>
      </trkpt>
      <trkpt lat="47.13273" lon="-1.22993">
        <ele>59.6</ele>
        <time>2019-10-11T14:59:45Z</time>
      </trkpt>
      <trkpt lat="47.13272" lon="-1.22997">
        <ele>59.6</ele>
        <time>2019-10-11T14:59:46Z</time>
      </trkpt>
      <trkpt lat="47.13272" lon="-1.23001">
        <ele>59.5</ele>
        <time>2019-10-11T14:59:47Z</time>
      </trkpt>
      <trkpt lat="47.13271" lon="-1.23006">
        <ele>59.5</ele>
        <time>2019-10-11T14:59:48Z</time>
      </trkpt>
      <trkpt lat="47.1327" lon="-1.2301">
        <ele>59.4</ele>
        <time>2019-10-11T14:59:49Z</time>
      </trkpt>
      <trkpt lat="47.13269" lon="-1.23015">
        <ele>59.3</ele>
        <time>2019-10-11T14:59:50Z</time>
      </trkpt>
      <trkpt lat="47.13269" lon="-1.23019">
        <ele>59.3</ele>
        <time>2019-10-11T14:59:51Z</time>
      </trkpt>
      <trkpt lat="47.13268" lon="-1.23024">
        <ele>59.2</ele>
        <time>2019-10-11T14:59:52Z</time>
      </trkpt>
      <trkpt lat="47.13268" lon="-1.23028">
        <ele>59.1</ele>
        <time>2019-10-11T14:59:53Z</time>
      </trkpt>
      <trkpt lat="47.13267" lon="-1.23032">
        <ele>59</ele>
        <time>2019-10-11T14:59:54Z</time>
      </trkpt>
      <trkpt lat="47.13266" lon="-1.23037">
        <ele>58.9</ele>
        <time>2019-10-11T14:59:55Z</time>
      </trkpt>
      <trkpt lat="47.13265" lon="-1.23041">
        <ele>58.8</ele>
        <time>2019-10-11T14:59:56Z</time>
      </trkpt>
      <trkpt lat="47.13265" lon="-1.23046">
        <ele>58.6</ele>
        <time>2019-10-11T14:59:57Z</time>
      </trkpt>
      <trkpt lat="47.13264" lon="-1.2305">
        <ele>58.5</ele>
        <time>2019-10-11T14:59:58Z</time>
      </trkpt>
      <trkpt lat="47.13263" lon="-1.23055">
        <ele>58.4</ele>
        <time>2019-10-11T14:59:59Z</time>
      </trkpt>
      <trkpt lat="47.13263" lon="-1.2306">
        <ele>58.2</ele>
        <time>2019-10-11T15:00:00Z</time>
      </trkpt>
      <trkpt lat="47.13262" lon="-1.23065">
        <ele>58.2</ele>
        <time>2019-10-11T15:00:01Z</time>
      </trkpt>
      <trkpt lat="47.1326" lon="-1.2307">
        <ele>58.1</ele>
        <time>2019-10-11T15:00:02Z</time>
      </trkpt>
      <trkpt lat="47.1326" lon="-1.23075">
        <ele>58.1</ele>
        <time>2019-10-11T15:00:03Z</time>
      </trkpt>
      <trkpt lat="47.13259" lon="-1.2308">
        <ele>58</ele>
        <time>2019-10-11T15:00:04Z</time>
      </trkpt>
      <trkpt lat="47.13257" lon="-1.23086">
        <ele>57.9</ele>
        <time>2019-10-11T15:00:06Z</time>
      </trkpt>
      <trkpt lat="47.13255" lon="-1.23092">
        <ele>57.9</ele>
        <time>2019-10-11T15:00:08Z</time>
      </trkpt>
      <trkpt lat="47.13255" lon="-1.23096">
        <ele>57.8</ele>
        <time>2019-10-11T15:00:09Z</time>
      </trkpt>
      <trkpt lat="47.13254" lon="-1.23101">
        <ele>57.4</ele>
        <time>2019-10-11T15:00:10Z</time>
      </trkpt>
      <trkpt lat="47.13254" lon="-1.23106">
        <ele>56.9</ele>
        <time>2019-10-11T15:00:11Z</time>
      </trkpt>
      <trkpt lat="47.13253" lon="-1.23112">
        <ele>56.3</ele>
        <time>2019-10-11T15:00:12Z</time>
      </trkpt>
      <trkpt lat="47.13254" lon="-1.23117">
        <ele>55.8</ele>
        <time>2019-10-11T15:00:13Z</time>
      </trkpt>
      <trkpt lat="47.13254" lon="-1.23121">
        <ele>55.4</ele>
        <time>2019-10-11T15:00:14Z</time>
      </trkpt>
      <trkpt lat="47.13255" lon="-1.23126">
        <ele>54.9</ele>
        <time>2019-10-11T15:00:15Z</time>
      </trkpt>
      <trkpt lat="47.13255" lon="-1.2313">
        <ele>54.7</ele>
        <time>2019-10-11T15:00:16Z</time>
      </trkpt>
      <trkpt lat="47.13255" lon="-1.23135">
        <ele>54.2</ele>
        <time>2019-10-11T15:00:17Z</time>
      </trkpt>
      <trkpt lat="47.13256" lon="-1.23139">
        <ele>53.8</ele>
        <time>2019-10-11T15:00:18Z</time>
      </trkpt>
      <trkpt lat="47.13256" lon="-1.23144">
        <ele>53.4</ele>
        <time>2019-10-11T15:00:19Z</time>
      </trkpt>
      <trkpt lat="47.13256" lon="-1.2315">
        <ele>53</ele>
        <time>2019-10-11T15:00:20Z</time>
      </trkpt>
      <trkpt lat="47.13256" lon="-1.23156">
        <ele>52.4</ele>
        <time>2019-10-11T15:00:21Z</time>
      </trkpt>
      <trkpt lat="47.13256" lon="-1.23162">
        <ele>51.9</ele>
        <time>2019-10-11T15:00:22Z</time>
      </trkpt>
      <trkpt lat="47.13256" lon="-1.23168">
        <ele>51.2</ele>
        <time>2019-10-11T15:00:23Z</time>
      </trkpt>
      <trkpt lat="47.13256" lon="-1.23175">
        <ele>50.7</ele>
        <time>2019-10-11T15:00:24Z</time>
      </trkpt>
      <trkpt lat="47.13256" lon="-1.23185">
        <ele>50.1</ele>
        <time>2019-10-11T15:00:25Z</time>
      </trkpt>
      <trkpt lat="47.13256" lon="-1.23194">
        <ele>49.5</ele>
        <time>2019-10-11T15:00:26Z</time>
      </trkpt>
      <trkpt lat="47.13255" lon="-1.23204">
        <ele>48.8</ele>
        <time>2019-10-11T15:00:27Z</time>
      </trkpt>
      <trkpt lat="47.13254" lon="-1.23213">
        <ele>48.2</ele>
        <time>2019-10-11T15:00:28Z</time>
      </trkpt>
      <trkpt lat="47.13252" lon="-1.23222">
        <ele>47.3</ele>
        <time>2019-10-11T15:00:29Z</time>
      </trkpt>
      <trkpt lat="47.1325" lon="-1.23229">
        <ele>46.6</ele>
        <time>2019-10-11T15:00:30Z</time>
      </trkpt>
      <trkpt lat="47.13249" lon="-1.23235">
        <ele>45.9</ele>
        <time>2019-10-11T15:00:31Z</time>
      </trkpt>
      <trkpt lat="47.13247" lon="-1.23239">
        <ele>45.4</ele>
        <time>2019-10-11T15:00:32Z</time>
      </trkpt>
      <trkpt lat="47.13245" lon="-1.23244">
        <ele>44.7</ele>
        <time>2019-10-11T15:00:33Z</time>
      </trkpt>
      <trkpt lat="47.13242" lon="-1.23249">
        <ele>43.9</ele>
        <time>2019-10-11T15:00:35Z</time>
      </trkpt>
      <trkpt lat="47.13239" lon="-1.23252">
        <ele>43.4</ele>
        <time>2019-10-11T15:00:36Z</time>
      </trkpt>
      <trkpt lat="47.13237" lon="-1.23255">
        <ele>42.7</ele>
        <time>2019-10-11T15:00:37Z</time>
      </trkpt>
      <trkpt lat="47.13234" lon="-1.23257">
        <ele>42.2</ele>
        <time>2019-10-11T15:00:39Z</time>
      </trkpt>
      <trkpt lat="47.1323" lon="-1.23256">
        <ele>41.7</ele>
        <time>2019-10-11T15:00:45Z</time>
      </trkpt>
      <trkpt lat="47.13227" lon="-1.23256">
        <ele>41.3</ele>
        <time>2019-10-11T15:00:47Z</time>
      </trkpt>
      <trkpt lat="47.13224" lon="-1.23255">
        <ele>40.8</ele>
        <time>2019-10-11T15:00:50Z</time>
      </trkpt>
      <trkpt lat="47.13216" lon="-1.23264">
        <ele>40.3</ele>
        <time>2019-10-11T15:01:39Z</time>
      </trkpt>
      <trkpt lat="47.13219" lon="-1.23269">
        <ele>39.9</ele>
        <time>2019-10-11T15:01:41Z</time>
      </trkpt>
      <trkpt lat="47.13223" lon="-1.23274">
        <ele>39.4</ele>
        <time>2019-10-11T15:01:47Z</time>
      </trkpt>
      <trkpt lat="47.13213" lon="-1.23292">
        <ele>39.5</ele>
        <time>2019-10-11T15:02:46Z</time>
      </trkpt>
      <trkpt lat="47.13215" lon="-1.23297">
        <ele>38.8</ele>
        <time>2019-10-11T15:02:48Z</time>
      </trkpt>
      <trkpt lat="47.13217" lon="-1.23302">
        <ele>38.2</ele>
        <time>2019-10-11T15:02:50Z</time>
      </trkpt>
      <trkpt lat="47.13219" lon="-1.23305">
        <ele>37.9</ele>
        <time>2019-10-11T15:02:51Z</time>
      </trkpt>
      <trkpt lat="47.13221" lon="-1.23308">
        <ele>37.6</ele>
        <time>2019-10-11T15:02:52Z</time>
      </trkpt>
      <trkpt lat="47.13225" lon="-1.23313">
        <ele>37.2</ele>
        <time>2019-10-11T15:02:54Z</time>
      </trkpt>
      <trkpt lat="47.13227" lon="-1.23316">
        <ele>37</ele>
        <time>2019-10-11T15:02:55Z</time>
      </trkpt>
      <trkpt lat="47.13229" lon="-1.23319">
        <ele>36.9</ele>
        <time>2019-10-11T15:02:56Z</time>
      </trkpt>
      <trkpt lat="47.13232" lon="-1.23324">
        <ele>36.7</ele>
        <time>2019-10-11T15:02:58Z</time>
      </trkpt>
      <trkpt lat="47.13236" lon="-1.23334">
        <ele>36.5</ele>
        <time>2019-10-11T15:03:02Z</time>
      </trkpt>
      <trkpt lat="47.13236" lon="-1.23339">
        <ele>36.4</ele>
        <time>2019-10-11T15:03:05Z</time>
      </trkpt>
      <trkpt lat="47.13234" lon="-1.23345">
        <ele>36.3</ele>
        <time>2019-10-11T15:03:07Z</time>
      </trkpt>
      <trkpt lat="47.13233" lon="-1.23352">
        <ele>36.2</ele>
        <time>2019-10-11T15:03:09Z</time>
      </trkpt>
      <trkpt lat="47.13233" lon="-1.23356">
        <ele>36.1</ele>
        <time>2019-10-11T15:03:10Z</time>
      </trkpt>
      <trkpt lat="47.13232" lon="-1.2336">
        <ele>36.1</ele>
        <time>2019-10-11T15:03:11Z</time>
      </trkpt>
      <trkpt lat="47.13232" lon="-1.23368">
        <ele>35.9</ele>
        <time>2019-10-11T15:03:13Z</time>
      </trkpt>
      <trkpt lat="47.13231" lon="-1.23374">
        <ele>35.7</ele>
        <time>2019-10-11T15:03:14Z</time>
      </trkpt>
      <trkpt lat="47.13229" lon="-1.23382">
        <ele>35.5</ele>
        <time>2019-10-11T15:03:16Z</time>
      </trkpt>
      <trkpt lat="47.13229" lon="-1.23388">
        <ele>35.3</ele>
        <time>2019-10-11T15:03:18Z</time>
      </trkpt>
      <trkpt lat="47.13227" lon="-1.23392">
        <ele>35.2</ele>
        <time>2019-10-11T15:03:20Z</time>
      </trkpt>
      <trkpt lat="47.13225" lon="-1.23396">
        <ele>35.1</ele>
        <time>2019-10-11T15:03:22Z</time>
      </trkpt>
      <trkpt lat="47.13222" lon="-1.23402">
        <ele>35</ele>
        <time>2019-10-11T15:03:24Z</time>
      </trkpt>
      <trkpt lat="47.13219" lon="-1.23406">
        <ele>34.9</ele>
        <time>2019-10-11T15:03:27Z</time>
      </trkpt>
      <trkpt lat="47.13217" lon="-1.2341">
        <ele>34.8</ele>
        <time>2019-10-11T15:03:29Z</time>
      </trkpt>
      <trkpt lat="47.13215" lon="-1.23418">
        <ele>34.7</ele>
        <time>2019-10-11T15:03:36Z</time>
      </trkpt>
      <trkpt lat="47.13212" lon="-1.23421">
        <ele>34.6</ele>
        <time>2019-10-11T15:03:40Z</time>
      </trkpt>
      <trkpt lat="47.13209" lon="-1.23426">
        <ele>34.5</ele>
        <time>2019-10-11T15:03:51Z</time>
      </trkpt>
      <trkpt lat="47.13204" lon="-1.2343">
        <ele>34.4</ele>
        <time>2019-10-11T15:04:03Z</time>
      </trkpt>
      <trkpt lat="47.13201" lon="-1.23434">
        <ele>34.3</ele>
        <time>2019-10-11T15:04:07Z</time>
      </trkpt>
      <trkpt lat="47.13199" lon="-1.23438">
        <ele>34.2</ele>
        <time>2019-10-11T15:04:09Z</time>
      </trkpt>
      <trkpt lat="47.13196" lon="-1.23442">
        <ele>34.1</ele>
        <time>2019-10-11T15:04:11Z</time>
      </trkpt>
      <trkpt lat="47.13193" lon="-1.23444">
        <ele>34</ele>
        <time>2019-10-11T15:04:13Z</time>
      </trkpt>
      <trkpt lat="47.13191" lon="-1.23445">
        <ele>33.9</ele>
        <time>2019-10-11T15:04:15Z</time>
      </trkpt>
      <trkpt lat="47.13188" lon="-1.23447">
        <ele>33.8</ele>
        <time>2019-10-11T15:04:17Z</time>
      </trkpt>
      <trkpt lat="47.13183" lon="-1.2345">
        <ele>33.7</ele>
        <time>2019-10-11T15:04:19Z</time>
      </trkpt>
      <trkpt lat="47.13181" lon="-1.23453">
        <ele>33.6</ele>
        <time>2019-10-11T15:04:20Z</time>
      </trkpt>
      <trkpt lat="47.13174" lon="-1.23461">
        <ele>33.4</ele>
        <time>2019-10-11T15:04:25Z</time>
      </trkpt>
      <trkpt lat="47.13172" lon="-1.23473">
        <ele>33.1</ele>
        <time>2019-10-11T15:04:37Z</time>
      </trkpt>
      <trkpt lat="47.13172" lon="-1.23479">
        <ele>33</ele>
        <time>2019-10-11T15:04:42Z</time>
      </trkpt>
      <trkpt lat="47.13171" lon="-1.23484">
        <ele>32.9</ele>
        <time>2019-10-11T15:04:47Z</time>
      </trkpt>
      <trkpt lat="47.1317" lon="-1.23488">
        <ele>32.8</ele>
        <time>2019-10-11T15:04:49Z</time>
      </trkpt>
      <trkpt lat="47.13169" lon="-1.23494">
        <ele>32.7</ele>
        <time>2019-10-11T15:04:51Z</time>
      </trkpt>
      <trkpt lat="47.13169" lon="-1.23498">
        <ele>32.6</ele>
        <time>2019-10-11T15:04:52Z</time>
      </trkpt>
      <trkpt lat="47.13168" lon="-1.23502">
        <ele>32.6</ele>
        <time>2019-10-11T15:04:53Z</time>
      </trkpt>
      <trkpt lat="47.13169" lon="-1.23508">
        <ele>32.5</ele>
        <time>2019-10-11T15:04:54Z</time>
      </trkpt>
      <trkpt lat="47.13169" lon="-1.23513">
        <ele>32.4</ele>
        <time>2019-10-11T15:04:55Z</time>
      </trkpt>
      <trkpt lat="47.13171" lon="-1.23519">
        <ele>32.3</ele>
        <time>2019-10-11T15:04:56Z</time>
      </trkpt>
      <trkpt lat="47.13172" lon="-1.23523">
        <ele>32.2</ele>
        <time>2019-10-11T15:04:57Z</time>
      </trkpt>
      <trkpt lat="47.13173" lon="-1.23529">
        <ele>32.2</ele>
        <time>2019-10-11T15:04:59Z</time>
      </trkpt>
      <trkpt lat="47.13175" lon="-1.23535">
        <ele>32.2</ele>
        <time>2019-10-11T15:05:01Z</time>
      </trkpt>
      <trkpt lat="47.13177" lon="-1.23541">
        <ele>32.1</ele>
        <time>2019-10-11T15:05:03Z</time>
      </trkpt>
      <trkpt lat="47.1318" lon="-1.23544">
        <ele>32.1</ele>
        <time>2019-10-11T15:05:04Z</time>
      </trkpt>
      <trkpt lat="47.13183" lon="-1.23547">
        <ele>32</ele>
        <time>2019-10-11T15:05:06Z</time>
      </trkpt>
      <trkpt lat="47.13187" lon="-1.2355">
        <ele>31.9</ele>
        <time>2019-10-11T15:05:08Z</time>
      </trkpt>
      <trkpt lat="47.1319" lon="-1.23551">
        <ele>31.9</ele>
        <time>2019-10-11T15:05:10Z</time>
      </trkpt>
      <trkpt lat="47.13193" lon="-1.23555">
        <ele>31.8</ele>
        <time>2019-10-11T15:05:12Z</time>
      </trkpt>
      <trkpt lat="47.13197" lon="-1.2356">
        <ele>31.7</ele>
        <time>2019-10-11T15:05:14Z</time>
      </trkpt>
      <trkpt lat="47.132" lon="-1.23566">
        <ele>31.6</ele>
        <time>2019-10-11T15:05:16Z</time>
      </trkpt>
      <trkpt lat="47.13201" lon="-1.23569">
        <ele>31.6</ele>
        <time>2019-10-11T15:05:17Z</time>
      </trkpt>
      <trkpt lat="47.13203" lon="-1.23572">
        <ele>31.5</ele>
        <time>2019-10-11T15:05:18Z</time>
      </trkpt>
      <trkpt lat="47.13205" lon="-1.23576">
        <ele>31.5</ele>
        <time>2019-10-11T15:05:19Z</time>
      </trkpt>
      <trkpt lat="47.13208" lon="-1.2358">
        <ele>31.4</ele>
        <time>2019-10-11T15:05:20Z</time>
      </trkpt>
      <trkpt lat="47.13211" lon="-1.23584">
        <ele>31.4</ele>
        <time>2019-10-11T15:05:21Z</time>
      </trkpt>
      <trkpt lat="47.13214" lon="-1.23588">
        <ele>31.3</ele>
        <time>2019-10-11T15:05:22Z</time>
      </trkpt>
      <trkpt lat="47.13217" lon="-1.23591">
        <ele>31.3</ele>
        <time>2019-10-11T15:05:23Z</time>
      </trkpt>
      <trkpt lat="47.1322" lon="-1.23593">
        <ele>31.2</ele>
        <time>2019-10-11T15:05:24Z</time>
      </trkpt>
      <trkpt lat="47.13223" lon="-1.23595">
        <ele>31.2</ele>
        <time>2019-10-11T15:05:25Z</time>
      </trkpt>
      <trkpt lat="47.13226" lon="-1.23597">
        <ele>31.1</ele>
        <time>2019-10-11T15:05:26Z</time>
      </trkpt>
      <trkpt lat="47.13229" lon="-1.23599">
        <ele>31.1</ele>
        <time>2019-10-11T15:05:27Z</time>
      </trkpt>
      <trkpt lat="47.13232" lon="-1.23602">
        <ele>31</ele>
        <time>2019-10-11T15:05:28Z</time>
      </trkpt>
      <trkpt lat="47.13235" lon="-1.23606">
        <ele>30.9</ele>
        <time>2019-10-11T15:05:30Z</time>
      </trkpt>
      <trkpt lat="47.13237" lon="-1.2361">
        <ele>30.7</ele>
        <time>2019-10-11T15:05:31Z</time>
      </trkpt>
      <trkpt lat="47.13238" lon="-1.23615">
        <ele>30.6</ele>
        <time>2019-10-11T15:05:32Z</time>
      </trkpt>
      <trkpt lat="47.13238" lon="-1.23619">
        <ele>30.5</ele>
        <time>2019-10-11T15:05:33Z</time>
      </trkpt>
      <trkpt lat="47.13239" lon="-1.23623">
        <ele>30.5</ele>
        <time>2019-10-11T15:05:34Z</time>
      </trkpt>
      <trkpt lat="47.13242" lon="-1.23629">
        <ele>30.3</ele>
        <time>2019-10-11T15:05:36Z</time>
      </trkpt>
      <trkpt lat="47.13245" lon="-1.23632">
        <ele>30.2</ele>
        <time>2019-10-11T15:05:37Z</time>
      </trkpt>
      <trkpt lat="47.13248" lon="-1.23634">
        <ele>30.1</ele>
        <time>2019-10-11T15:05:38Z</time>
      </trkpt>
      <trkpt lat="47.13251" lon="-1.23636">
        <ele>30</ele>
        <time>2019-10-11T15:05:39Z</time>
      </trkpt>
      <trkpt lat="47.13256" lon="-1.23638">
        <ele>29.9</ele>
        <time>2019-10-11T15:05:41Z</time>
      </trkpt>
      <trkpt lat="47.1326" lon="-1.2364">
        <ele>29.8</ele>
        <time>2019-10-11T15:05:43Z</time>
      </trkpt>
      <trkpt lat="47.13262" lon="-1.23641">
        <ele>29.7</ele>
        <time>2019-10-11T15:05:44Z</time>
      </trkpt>
      <trkpt lat="47.13265" lon="-1.23641">
        <ele>29.6</ele>
        <time>2019-10-11T15:05:45Z</time>
      </trkpt>
      <trkpt lat="47.1327" lon="-1.23643">
        <ele>29.5</ele>
        <time>2019-10-11T15:05:47Z</time>
      </trkpt>
      <trkpt lat="47.13273" lon="-1.23644">
        <ele>29.4</ele>
        <time>2019-10-11T15:05:48Z</time>
      </trkpt>
      <trkpt lat="47.13276" lon="-1.23645">
        <ele>29.3</ele>
        <time>2019-10-11T15:05:49Z</time>
      </trkpt>
      <trkpt lat="47.1328" lon="-1.23647">
        <ele>29.2</ele>
        <time>2019-10-11T15:05:50Z</time>
      </trkpt>
      <trkpt lat="47.13284" lon="-1.23649">
        <ele>29.2</ele>
        <time>2019-10-11T15:05:51Z</time>
      </trkpt>
      <trkpt lat="47.13287" lon="-1.23652">
        <ele>29.1</ele>
        <time>2019-10-11T15:05:52Z</time>
      </trkpt>
      <trkpt lat="47.1329" lon="-1.23654">
        <ele>29</ele>
        <time>2019-10-11T15:05:53Z</time>
      </trkpt>
      <trkpt lat="47.13293" lon="-1.23658">
        <ele>29</ele>
        <time>2019-10-11T15:05:55Z</time>
      </trkpt>
      <trkpt lat="47.13298" lon="-1.23659">
        <ele>28.9</ele>
        <time>2019-10-11T15:05:57Z</time>
      </trkpt>
      <trkpt lat="47.13301" lon="-1.2366">
        <ele>28.8</ele>
        <time>2019-10-11T15:05:59Z</time>
      </trkpt>
      <trkpt lat="47.13305" lon="-1.23666">
        <ele>28.7</ele>
        <time>2019-10-11T15:06:01Z</time>
      </trkpt>
      <trkpt lat="47.13308" lon="-1.23669">
        <ele>28.6</ele>
        <time>2019-10-11T15:06:02Z</time>
      </trkpt>
      <trkpt lat="47.13311" lon="-1.23672">
        <ele>28.5</ele>
        <time>2019-10-11T15:06:03Z</time>
      </trkpt>
      <trkpt lat="47.13314" lon="-1.23674">
        <ele>28.5</ele>
        <time>2019-10-11T15:06:04Z</time>
      </trkpt>
      <trkpt lat="47.13317" lon="-1.23676">
        <ele>28.3</ele>
        <time>2019-10-11T15:06:05Z</time>
      </trkpt>
      <trkpt lat="47.13319" lon="-1.23678">
        <ele>28.3</ele>
        <time>2019-10-11T15:06:06Z</time>
      </trkpt>
      <trkpt lat="47.13325" lon="-1.23681">
        <ele>28.1</ele>
        <time>2019-10-11T15:06:08Z</time>
      </trkpt>
      <trkpt lat="47.13328" lon="-1.23682">
        <ele>28</ele>
        <time>2019-10-11T15:06:09Z</time>
      </trkpt>
      <trkpt lat="47.13331" lon="-1.23683">
        <ele>28</ele>
        <time>2019-10-11T15:06:10Z</time>
      </trkpt>
      <trkpt lat="47.13334" lon="-1.23685">
        <ele>27.9</ele>
        <time>2019-10-11T15:06:11Z</time>
      </trkpt>
      <trkpt lat="47.13337" lon="-1.23686">
        <ele>27.8</ele>
        <time>2019-10-11T15:06:12Z</time>
      </trkpt>
      <trkpt lat="47.13342" lon="-1.23689">
        <ele>27.7</ele>
        <time>2019-10-11T15:06:14Z</time>
      </trkpt>
      <trkpt lat="47.13347" lon="-1.23693">
        <ele>27.5</ele>
        <time>2019-10-11T15:06:16Z</time>
      </trkpt>
      <trkpt lat="47.1335" lon="-1.23695">
        <ele>27.4</ele>
        <time>2019-10-11T15:06:17Z</time>
      </trkpt>
      <trkpt lat="47.13352" lon="-1.23698">
        <ele>27.4</ele>
        <time>2019-10-11T15:06:18Z</time>
      </trkpt>
      <trkpt lat="47.13355" lon="-1.23699">
        <ele>27.3</ele>
        <time>2019-10-11T15:06:19Z</time>
      </trkpt>
      <trkpt lat="47.13358" lon="-1.23702">
        <ele>27.2</ele>
        <time>2019-10-11T15:06:21Z</time>
      </trkpt>
      <trkpt lat="47.13361" lon="-1.23705">
        <ele>27.1</ele>
        <time>2019-10-11T15:06:23Z</time>
      </trkpt>
      <trkpt lat="47.13363" lon="-1.23708">
        <ele>27</ele>
        <time>2019-10-11T15:06:25Z</time>
      </trkpt>
      <trkpt lat="47.13364" lon="-1.23715">
        <ele>26.9</ele>
        <time>2019-10-11T15:06:27Z</time>
      </trkpt>
      <trkpt lat="47.13366" lon="-1.2372">
        <ele>26.8</ele>
        <time>2019-10-11T15:06:29Z</time>
      </trkpt>
      <trkpt lat="47.13369" lon="-1.23726">
        <ele>26.7</ele>
        <time>2019-10-11T15:06:31Z</time>
      </trkpt>
      <trkpt lat="47.13372" lon="-1.23732">
        <ele>26.5</ele>
        <time>2019-10-11T15:06:33Z</time>
      </trkpt>
      <trkpt lat="47.13373" lon="-1.23736">
        <ele>26.4</ele>
        <time>2019-10-11T15:06:34Z</time>
      </trkpt>
      <trkpt lat="47.13375" lon="-1.23743">
        <ele>26.3</ele>
        <time>2019-10-11T15:06:36Z</time>
      </trkpt>
      <trkpt lat="47.13377" lon="-1.23748">
        <ele>26.2</ele>
        <time>2019-10-11T15:06:38Z</time>
      </trkpt>
      <trkpt lat="47.13379" lon="-1.23754">
        <ele>26.1</ele>
        <time>2019-10-11T15:06:40Z</time>
      </trkpt>
      <trkpt lat="47.13381" lon="-1.23758">
        <ele>26.2</ele>
        <time>2019-10-11T15:06:41Z</time>
      </trkpt>
      <trkpt lat="47.13385" lon="-1.23763">
        <ele>26.3</ele>
        <time>2019-10-11T15:06:43Z</time>
      </trkpt>
      <trkpt lat="47.13387" lon="-1.23766">
        <ele>26.4</ele>
        <time>2019-10-11T15:06:44Z</time>
      </trkpt>
      <trkpt lat="47.13389" lon="-1.23769">
        <ele>26.7</ele>
        <time>2019-10-11T15:06:45Z</time>
      </trkpt>
      <trkpt lat="47.13391" lon="-1.23772">
        <ele>26.8</ele>
        <time>2019-10-11T15:06:46Z</time>
      </trkpt>
      <trkpt lat="47.13394" lon="-1.23775">
        <ele>26.9</ele>
        <time>2019-10-11T15:06:47Z</time>
      </trkpt>
      <trkpt lat="47.13398" lon="-1.23777">
        <ele>27</ele>
        <time>2019-10-11T15:06:49Z</time>
      </trkpt>
      <trkpt lat="47.13401" lon="-1.23778">
        <ele>27.1</ele>
        <time>2019-10-11T15:06:52Z</time>
      </trkpt>
      <trkpt lat="47.13404" lon="-1.23779">
        <ele>27.4</ele>
        <time>2019-10-11T15:07:05Z</time>
      </trkpt>
      <trkpt lat="47.13407" lon="-1.23779">
        <ele>27.5</ele>
        <time>2019-10-11T15:07:43Z</time>
      </trkpt>
      <trkpt lat="47.1341" lon="-1.23784">
        <ele>27.7</ele>
        <time>2019-10-11T15:07:45Z</time>
      </trkpt>
      <trkpt lat="47.13414" lon="-1.23787">
        <ele>27.8</ele>
        <time>2019-10-11T15:07:47Z</time>
      </trkpt>
      <trkpt lat="47.13417" lon="-1.23789">
        <ele>28</ele>
        <time>2019-10-11T15:07:48Z</time>
      </trkpt>
      <trkpt lat="47.13421" lon="-1.2379">
        <ele>28.2</ele>
        <time>2019-10-11T15:07:50Z</time>
      </trkpt>
      <trkpt lat="47.13426" lon="-1.23792">
        <ele>28.3</ele>
        <time>2019-10-11T15:07:52Z</time>
      </trkpt>
      <trkpt lat="47.1343" lon="-1.23795">
        <ele>28.4</ele>
        <time>2019-10-11T15:07:54Z</time>
      </trkpt>
      <trkpt lat="47.13433" lon="-1.23797">
        <ele>28.7</ele>
        <time>2019-10-11T15:07:55Z</time>
      </trkpt>
      <trkpt lat="47.13436" lon="-1.23798">
        <ele>28.8</ele>
        <time>2019-10-11T15:07:56Z</time>
      </trkpt>
      <trkpt lat="47.13441" lon="-1.238">
        <ele>28.9</ele>
        <time>2019-10-11T15:07:58Z</time>
      </trkpt>
      <trkpt lat="47.13445" lon="-1.23801">
        <ele>29</ele>
        <time>2019-10-11T15:08:00Z</time>
      </trkpt>
      <trkpt lat="47.13449" lon="-1.23804">
        <ele>29</ele>
        <time>2019-10-11T15:08:02Z</time>
      </trkpt>
      <trkpt lat="47.13452" lon="-1.23805">
        <ele>29.1</ele>
        <time>2019-10-11T15:08:03Z</time>
      </trkpt>
      <trkpt lat="47.13456" lon="-1.23808">
        <ele>29.1</ele>
        <time>2019-10-11T15:08:05Z</time>
      </trkpt>
      <trkpt lat="47.13459" lon="-1.23809">
        <ele>29.3</ele>
        <time>2019-10-11T15:08:06Z</time>
      </trkpt>
      <trkpt lat="47.13462" lon="-1.2381">
        <ele>29.4</ele>
        <time>2019-10-11T15:08:07Z</time>
      </trkpt>
      <trkpt lat="47.13466" lon="-1.2381">
        <ele>29.4</ele>
        <time>2019-10-11T15:08:09Z</time>
      </trkpt>
      <trkpt lat="47.13468" lon="-1.23812">
        <ele>29.4</ele>
        <time>2019-10-11T15:08:11Z</time>
      </trkpt>
      <trkpt lat="47.13471" lon="-1.23811">
        <ele>29.6</ele>
        <time>2019-10-11T15:08:13Z</time>
      </trkpt>
      <trkpt lat="47.13474" lon="-1.23812">
        <ele>29.9</ele>
        <time>2019-10-11T15:08:44Z</time>
      </trkpt>
      <trkpt lat="47.13477" lon="-1.23812">
        <ele>30</ele>
        <time>2019-10-11T15:08:48Z</time>
      </trkpt>
      <trkpt lat="47.13479" lon="-1.23815">
        <ele>30.1</ele>
        <time>2019-10-11T15:08:54Z</time>
      </trkpt>
      <trkpt lat="47.13481" lon="-1.23818">
        <ele>30.1</ele>
        <time>2019-10-11T15:08:58Z</time>
      </trkpt>
      <trkpt lat="47.13484" lon="-1.23821">
        <ele>30.2</ele>
        <time>2019-10-11T15:09:12Z</time>
      </trkpt>
      <trkpt lat="47.13487" lon="-1.23823">
        <ele>30.4</ele>
        <time>2019-10-11T15:09:20Z</time>
      </trkpt>
      <trkpt lat="47.1349" lon="-1.23823">
        <ele>30.5</ele>
        <time>2019-10-11T15:09:22Z</time>
      </trkpt>
      <trkpt lat="47.13494" lon="-1.23822">
        <ele>30.6</ele>
        <time>2019-10-11T15:09:24Z</time>
      </trkpt>
      <trkpt lat="47.13497" lon="-1.23824">
        <ele>30.7</ele>
        <time>2019-10-11T15:09:26Z</time>
      </trkpt>
      <trkpt lat="47.13502" lon="-1.23828">
        <ele>30.8</ele>
        <time>2019-10-11T15:09:28Z</time>
      </trkpt>
      <trkpt lat="47.13507" lon="-1.23831">
        <ele>31</ele>
        <time>2019-10-11T15:09:30Z</time>
      </trkpt>
      <trkpt lat="47.1351" lon="-1.23834">
        <ele>31.1</ele>
        <time>2019-10-11T15:09:32Z</time>
      </trkpt>
      <trkpt lat="47.13514" lon="-1.23837">
        <ele>31.3</ele>
        <time>2019-10-11T15:09:34Z</time>
      </trkpt>
      <trkpt lat="47.13519" lon="-1.2384">
        <ele>31.4</ele>
        <time>2019-10-11T15:09:36Z</time>
      </trkpt>
      <trkpt lat="47.13523" lon="-1.23842">
        <ele>31.6</ele>
        <time>2019-10-11T15:09:38Z</time>
      </trkpt>
      <trkpt lat="47.13526" lon="-1.23845">
        <ele>31.8</ele>
        <time>2019-10-11T15:09:39Z</time>
      </trkpt>
      <trkpt lat="47.13529" lon="-1.23849">
        <ele>32</ele>
        <time>2019-10-11T15:09:41Z</time>
      </trkpt>
      <trkpt lat="47.13532" lon="-1.23856">
        <ele>32.3</ele>
        <time>2019-10-11T15:09:43Z</time>
      </trkpt>
      <trkpt lat="47.13535" lon="-1.2386">
        <ele>32.5</ele>
        <time>2019-10-11T15:09:44Z</time>
      </trkpt>
      <trkpt lat="47.13537" lon="-1.23863">
        <ele>32.7</ele>
        <time>2019-10-11T15:09:45Z</time>
      </trkpt>
      <trkpt lat="47.1354" lon="-1.23865">
        <ele>32.9</ele>
        <time>2019-10-11T15:09:46Z</time>
      </trkpt>
      <trkpt lat="47.13542" lon="-1.23868">
        <ele>33.4</ele>
        <time>2019-10-11T15:09:47Z</time>
      </trkpt>
      <trkpt lat="47.13545" lon="-1.23874">
        <ele>33.3</ele>
        <time>2019-10-11T15:09:49Z</time>
      </trkpt>
      <trkpt lat="47.13549" lon="-1.23879">
        <ele>33.3</ele>
        <time>2019-10-11T15:09:51Z</time>
      </trkpt>
      <trkpt lat="47.13551" lon="-1.23882">
        <ele>33.3</ele>
        <time>2019-10-11T15:09:52Z</time>
      </trkpt>
      <trkpt lat="47.13553" lon="-1.23885">
        <ele>33.3</ele>
        <time>2019-10-11T15:09:53Z</time>
      </trkpt>
      <trkpt lat="47.13555" lon="-1.23888">
        <ele>33.3</ele>
        <time>2019-10-11T15:09:54Z</time>
      </trkpt>
      <trkpt lat="47.13558" lon="-1.23893">
        <ele>33.3</ele>
        <time>2019-10-11T15:09:56Z</time>
      </trkpt>
      <trkpt lat="47.13561" lon="-1.23896">
        <ele>33.3</ele>
        <time>2019-10-11T15:09:58Z</time>
      </trkpt>
      <trkpt lat="47.13565" lon="-1.23899">
        <ele>33.3</ele>
        <time>2019-10-11T15:10:00Z</time>
      </trkpt>
      <trkpt lat="47.13568" lon="-1.23902">
        <ele>33.3</ele>
        <time>2019-10-11T15:10:02Z</time>
      </trkpt>
      <trkpt lat="47.13571" lon="-1.23905">
        <ele>33.3</ele>
        <time>2019-10-11T15:10:04Z</time>
      </trkpt>
      <trkpt lat="47.13574" lon="-1.23907">
        <ele>33.2</ele>
        <time>2019-10-11T15:10:05Z</time>
      </trkpt>
      <trkpt lat="47.13577" lon="-1.23909">
        <ele>33.2</ele>
        <time>2019-10-11T15:10:07Z</time>
      </trkpt>
      <trkpt lat="47.1358" lon="-1.23911">
        <ele>33.2</ele>
        <time>2019-10-11T15:10:09Z</time>
      </trkpt>
      <trkpt lat="47.13584" lon="-1.23914">
        <ele>33.2</ele>
        <time>2019-10-11T15:10:11Z</time>
      </trkpt>
      <trkpt lat="47.13588" lon="-1.23918">
        <ele>33.2</ele>
        <time>2019-10-11T15:10:13Z</time>
      </trkpt>
      <trkpt lat="47.13592" lon="-1.23923">
        <ele>33.2</ele>
        <time>2019-10-11T15:10:15Z</time>
      </trkpt>
      <trkpt lat="47.13595" lon="-1.23926">
        <ele>33.2</ele>
        <time>2019-10-11T15:10:16Z</time>
      </trkpt>
      <trkpt lat="47.13599" lon="-1.23931">
        <ele>33.2</ele>
        <time>2019-10-11T15:10:18Z</time>
      </trkpt>
      <trkpt lat="47.13602" lon="-1.23934">
        <ele>33.5</ele>
        <time>2019-10-11T15:10:19Z</time>
      </trkpt>
      <trkpt lat="47.13604" lon="-1.23936">
        <ele>33.6</ele>
        <time>2019-10-11T15:10:20Z</time>
      </trkpt>
      <trkpt lat="47.13606" lon="-1.23938">
        <ele>33.7</ele>
        <time>2019-10-11T15:10:21Z</time>
      </trkpt>
      <trkpt lat="47.13611" lon="-1.23938">
        <ele>34</ele>
        <time>2019-10-11T15:10:23Z</time>
      </trkpt>
      <trkpt lat="47.13613" lon="-1.23935">
        <ele>34.2</ele>
        <time>2019-10-11T15:10:25Z</time>
      </trkpt>
      <trkpt lat="47.13616" lon="-1.23931">
        <ele>34.4</ele>
        <time>2019-10-11T15:10:27Z</time>
      </trkpt>
      <trkpt lat="47.13618" lon="-1.23927">
        <ele>34.6</ele>
        <time>2019-10-11T15:10:29Z</time>
      </trkpt>
      <trkpt lat="47.13621" lon="-1.23924">
        <ele>34.8</ele>
        <time>2019-10-11T15:10:31Z</time>
      </trkpt>
      <trkpt lat="47.13624" lon="-1.23921">
        <ele>34.9</ele>
        <time>2019-10-11T15:10:33Z</time>
      </trkpt>
      <trkpt lat="47.13627" lon="-1.23919">
        <ele>35</ele>
        <time>2019-10-11T15:10:35Z</time>
      </trkpt>
      <trkpt lat="47.1363" lon="-1.23918">
        <ele>35.1</ele>
        <time>2019-10-11T15:10:37Z</time>
      </trkpt>
      <trkpt lat="47.13634" lon="-1.23918">
        <ele>35.3</ele>
        <time>2019-10-11T15:10:39Z</time>
      </trkpt>
      <trkpt lat="47.13639" lon="-1.23923">
        <ele>35.5</ele>
        <time>2019-10-11T15:13:30Z</time>
      </trkpt>
      <trkpt lat="47.13643" lon="-1.23925">
        <ele>35.6</ele>
        <time>2019-10-11T15:13:32Z</time>
      </trkpt>
      <trkpt lat="47.13648" lon="-1.23928">
        <ele>35.8</ele>
        <time>2019-10-11T15:13:34Z</time>
      </trkpt>
      <trkpt lat="47.13652" lon="-1.23931">
        <ele>35.9</ele>
        <time>2019-10-11T15:13:36Z</time>
      </trkpt>
      <trkpt lat="47.13657" lon="-1.23933">
        <ele>36</ele>
        <time>2019-10-11T15:13:38Z</time>
      </trkpt>
      <trkpt lat="47.13662" lon="-1.23935">
        <ele>36.2</ele>
        <time>2019-10-11T15:13:40Z</time>
      </trkpt>
      <trkpt lat="47.13667" lon="-1.23936">
        <ele>36.3</ele>
        <time>2019-10-11T15:13:42Z</time>
      </trkpt>
      <trkpt lat="47.13671" lon="-1.23938">
        <ele>36.5</ele>
        <time>2019-10-11T15:13:44Z</time>
      </trkpt>
      <trkpt lat="47.13676" lon="-1.23939">
        <ele>36.7</ele>
        <time>2019-10-11T15:13:46Z</time>
      </trkpt>
      <trkpt lat="47.1368" lon="-1.2394">
        <ele>36.9</ele>
        <time>2019-10-11T15:13:48Z</time>
      </trkpt>
      <trkpt lat="47.13684" lon="-1.23941">
        <ele>37.1</ele>
        <time>2019-10-11T15:13:50Z</time>
      </trkpt>
      <trkpt lat="47.13689" lon="-1.23942">
        <ele>37.3</ele>
        <time>2019-10-11T15:13:52Z</time>
      </trkpt>
      <trkpt lat="47.13694" lon="-1.23942">
        <ele>37.5</ele>
        <time>2019-10-11T15:13:54Z</time>
      </trkpt>
      <trkpt lat="47.13699" lon="-1.23942">
        <ele>37.7</ele>
        <time>2019-10-11T15:13:56Z</time>
      </trkpt>
      <trkpt lat="47.13704" lon="-1.23942">
        <ele>37.8</ele>
        <time>2019-10-11T15:13:58Z</time>
      </trkpt>
      <trkpt lat="47.13708" lon="-1.23942">
        <ele>38</ele>
        <time>2019-10-11T15:14:00Z</time>
      </trkpt>
      <trkpt lat="47.13713" lon="-1.23942">
        <ele>38.2</ele>
        <time>2019-10-11T15:14:02Z</time>
      </trkpt>
      <trkpt lat="47.13718" lon="-1.23941">
        <ele>38.4</ele>
        <time>2019-10-11T15:14:04Z</time>
      </trkpt>
      <trkpt lat="47.13724" lon="-1.23941">
        <ele>38.7</ele>
        <time>2019-10-11T15:14:06Z</time>
      </trkpt>
      <trkpt lat="47.13726" lon="-1.23941">
        <ele>38.8</ele>
        <time>2019-10-11T15:14:07Z</time>
      </trkpt>
      <trkpt lat="47.13729" lon="-1.23941">
        <ele>38.9</ele>
        <time>2019-10-11T15:14:08Z</time>
      </trkpt>
      <trkpt lat="47.13734" lon="-1.23941">
        <ele>39.2</ele>
        <time>2019-10-11T15:14:10Z</time>
      </trkpt>
      <trkpt lat="47.13739" lon="-1.23941">
        <ele>39.5</ele>
        <time>2019-10-11T15:14:12Z</time>
      </trkpt>
      <trkpt lat="47.13744" lon="-1.23941">
        <ele>39.8</ele>
        <time>2019-10-11T15:14:14Z</time>
      </trkpt>
      <trkpt lat="47.13749" lon="-1.2394">
        <ele>40.1</ele>
        <time>2019-10-11T15:14:16Z</time>
      </trkpt>
      <trkpt lat="47.13754" lon="-1.2394">
        <ele>40.4</ele>
        <time>2019-10-11T15:14:18Z</time>
      </trkpt>
      <trkpt lat="47.13759" lon="-1.2394">
        <ele>40.7</ele>
        <time>2019-10-11T15:14:20Z</time>
      </trkpt>
      <trkpt lat="47.13764" lon="-1.2394">
        <ele>41</ele>
        <time>2019-10-11T15:14:22Z</time>
      </trkpt>
      <trkpt lat="47.13769" lon="-1.2394">
        <ele>41.3</ele>
        <time>2019-10-11T15:14:24Z</time>
      </trkpt>
      <trkpt lat="47.13774" lon="-1.23938">
        <ele>41.6</ele>
        <time>2019-10-11T15:14:26Z</time>
      </trkpt>
      <trkpt lat="47.13778" lon="-1.23937">
        <ele>41.8</ele>
        <time>2019-10-11T15:14:28Z</time>
      </trkpt>
      <trkpt lat="47.13783" lon="-1.23935">
        <ele>42.1</ele>
        <time>2019-10-11T15:14:30Z</time>
      </trkpt>
      <trkpt lat="47.13788" lon="-1.23933">
        <ele>42.3</ele>
        <time>2019-10-11T15:14:32Z</time>
      </trkpt>
      <trkpt lat="47.13793" lon="-1.2393">
        <ele>42.6</ele>
        <time>2019-10-11T15:14:34Z</time>
      </trkpt>
      <trkpt lat="47.13797" lon="-1.23926">
        <ele>43</ele>
        <time>2019-10-11T15:14:36Z</time>
      </trkpt>
      <trkpt lat="47.13801" lon="-1.23922">
        <ele>43.3</ele>
        <time>2019-10-11T15:14:38Z</time>
      </trkpt>
      <trkpt lat="47.13804" lon="-1.23918">
        <ele>43.6</ele>
        <time>2019-10-11T15:14:40Z</time>
      </trkpt>
      <trkpt lat="47.13808" lon="-1.23913">
        <ele>43.8</ele>
        <time>2019-10-11T15:14:42Z</time>
      </trkpt>
      <trkpt lat="47.13811" lon="-1.23909">
        <ele>44.1</ele>
        <time>2019-10-11T15:14:44Z</time>
      </trkpt>
      <trkpt lat="47.13814" lon="-1.23904">
        <ele>44.3</ele>
        <time>2019-10-11T15:14:46Z</time>
      </trkpt>
      <trkpt lat="47.13817" lon="-1.23899">
        <ele>44.6</ele>
        <time>2019-10-11T15:14:48Z</time>
      </trkpt>
      <trkpt lat="47.1382" lon="-1.23893">
        <ele>44.8</ele>
        <time>2019-10-11T15:14:50Z</time>
      </trkpt>
      <trkpt lat="47.13823" lon="-1.23888">
        <ele>45</ele>
        <time>2019-10-11T15:14:52Z</time>
      </trkpt>
      <trkpt lat="47.13826" lon="-1.23883">
        <ele>45.2</ele>
        <time>2019-10-11T15:14:54Z</time>
      </trkpt>
      <trkpt lat="47.13828" lon="-1.23878">
        <ele>45.4</ele>
        <time>2019-10-11T15:14:56Z</time>
      </trkpt>
      <trkpt lat="47.13831" lon="-1.23873">
        <ele>45.6</ele>
        <time>2019-10-11T15:14:58Z</time>
      </trkpt>
      <trkpt lat="47.13834" lon="-1.23868">
        <ele>45.9</ele>
        <time>2019-10-11T15:15:00Z</time>
      </trkpt>
      <trkpt lat="47.13836" lon="-1.23863">
        <ele>46.2</ele>
        <time>2019-10-11T15:15:02Z</time>
      </trkpt>
      <trkpt lat="47.13838" lon="-1.23858">
        <ele>46.5</ele>
        <time>2019-10-11T15:15:04Z</time>
      </trkpt>
      <trkpt lat="47.1384" lon="-1.23854">
        <ele>46.8</ele>
        <time>2019-10-11T15:15:06Z</time>
      </trkpt>
      <trkpt lat="47.13843" lon="-1.23849">
        <ele>47.2</ele>
        <time>2019-10-11T15:15:08Z</time>
      </trkpt>
      <trkpt lat="47.13845" lon="-1.23844">
        <ele>47.5</ele>
        <time>2019-10-11T15:15:10Z</time>
      </trkpt>
      <trkpt lat="47.13848" lon="-1.23839">
        <ele>47.8</ele>
        <time>2019-10-11T15:15:12Z</time>
      </trkpt>
      <trkpt lat="47.13851" lon="-1.23835">
        <ele>48.1</ele>
        <time>2019-10-11T15:15:14Z</time>
      </trkpt>
      <trkpt lat="47.13853" lon="-1.2383">
        <ele>48.5</ele>
        <time>2019-10-11T15:15:16Z</time>
      </trkpt>
      <trkpt lat="47.13855" lon="-1.23825">
        <ele>48.8</ele>
        <time>2019-10-11T15:15:18Z</time>
      </trkpt>
      <trkpt lat="47.13857" lon="-1.2382">
        <ele>49.1</ele>
        <time>2019-10-11T15:15:20Z</time>
      </trkpt>
      <trkpt lat="47.1386" lon="-1.23816">
        <ele>49.4</ele>
        <time>2019-10-11T15:15:22Z</time>
      </trkpt>
      <trkpt lat="47.13862" lon="-1.23811">
        <ele>49.7</ele>
        <time>2019-10-11T15:15:24Z</time>
      </trkpt>
      <trkpt lat="47.13864" lon="-1.23807">
        <ele>50</ele>
        <time>2019-10-11T15:15:26Z</time>
      </trkpt>
      <trkpt lat="47.13866" lon="-1.23802">
        <ele>50.1</ele>
        <time>2019-10-11T15:15:28Z</time>
      </trkpt>
      <trkpt lat="47.13868" lon="-1.23798">
        <ele>50.3</ele>
        <time>2019-10-11T15:15:30Z</time>
      </trkpt>
      <trkpt lat="47.1387" lon="-1.23795">
        <ele>50.5</ele>
        <time>2019-10-11T15:15:32Z</time>
      </trkpt>
      <trkpt lat="47.13872" lon="-1.23792">
        <ele>50.6</ele>
        <time>2019-10-11T15:15:34Z</time>
      </trkpt>
      <trkpt lat="47.13874" lon="-1.23789">
        <ele>50.7</ele>
        <time>2019-10-11T15:15:36Z</time>
      </trkpt>
      <trkpt lat="47.13876" lon="-1.23785">
        <ele>50.8</ele>
        <time>2019-10-11T15:15:38Z</time>
      </trkpt>
      <trkpt lat="47.13878" lon="-1.23781">
        <ele>50.9</ele>
        <time>2019-10-11T15:15:40Z</time>
      </trkpt>
      <trkpt lat="47.13881" lon="-1.23776">
        <ele>51.1</ele>
        <time>2019-10-11T15:15:42Z</time>
      </trkpt>
      <trkpt lat="47.13884" lon="-1.23772">
        <ele>51.2</ele>
        <time>2019-10-11T15:15:44Z</time>
      </trkpt>
      <trkpt lat="47.13887" lon="-1.23769">
        <ele>51.4</ele>
        <time>2019-10-11T15:15:46Z</time>
      </trkpt>
      <trkpt lat="47.1389" lon="-1.23766">
        <ele>51.6</ele>
        <time>2019-10-11T15:15:48Z</time>
      </trkpt>
      <trkpt lat="47.13893" lon="-1.23762">
        <ele>51.8</ele>
        <time>2019-10-11T15:15:50Z</time>
      </trkpt>
      <trkpt lat="47.13895" lon="-1.23758">
        <ele>51.9</ele>
        <time>2019-10-11T15:15:52Z</time>
      </trkpt>
      <trkpt lat="47.13899" lon="-1.23756">
        <ele>52</ele>
        <time>2019-10-11T15:15:54Z</time>
      </trkpt>
      <trkpt lat="47.13902" lon="-1.23752">
        <ele>52.2</ele>
        <time>2019-10-11T15:15:56Z</time>
      </trkpt>
      <trkpt lat="47.13905" lon="-1.23749">
        <ele>52.3</ele>
        <time>2019-10-11T15:15:58Z</time>
      </trkpt>
      <trkpt lat="47.13909" lon="-1.23746">
        <ele>52.5</ele>
        <time>2019-10-11T15:16:00Z</time>
      </trkpt>
      <trkpt lat="47.13912" lon="-1.23744">
        <ele>52.8</ele>
        <time>2019-10-11T15:16:02Z</time>
      </trkpt>
      <trkpt lat="47.13916" lon="-1.23742">
        <ele>53.1</ele>
        <time>2019-10-11T15:16:04Z</time>
      </trkpt>
      <trkpt lat="47.13919" lon="-1.23741">
        <ele>53.3</ele>
        <time>2019-10-11T15:16:06Z</time>
      </trkpt>
      <trkpt lat="47.13923" lon="-1.23739">
        <ele>53.5</ele>
        <time>2019-10-11T15:16:08Z</time>
      </trkpt>
      <trkpt lat="47.13926" lon="-1.23738">
        <ele>53.8</ele>
        <time>2019-10-11T15:16:10Z</time>
      </trkpt>
      <trkpt lat="47.1393" lon="-1.23737">
        <ele>54.1</ele>
        <time>2019-10-11T15:16:12Z</time>
      </trkpt>
      <trkpt lat="47.13934" lon="-1.23736">
        <ele>54.4</ele>
        <time>2019-10-11T15:16:14Z</time>
      </trkpt>
      <trkpt lat="47.13938" lon="-1.23735">
        <ele>54.5</ele>
        <time>2019-10-11T15:16:16Z</time>
      </trkpt>
      <trkpt lat="47.13941" lon="-1.23735">
        <ele>54.7</ele>
        <time>2019-10-11T15:16:18Z</time>
      </trkpt>
      <trkpt lat="47.13945" lon="-1.23735">
        <ele>54.9</ele>
        <time>2019-10-11T15:16:20Z</time>
      </trkpt>
      <trkpt lat="47.13949" lon="-1.23734">
        <ele>55.1</ele>
        <time>2019-10-11T15:16:22Z</time>
      </trkpt>
      <trkpt lat="47.13953" lon="-1.23733">
        <ele>55.3</ele>
        <time>2019-10-11T15:16:24Z</time>
      </trkpt>
      <trkpt lat="47.13956" lon="-1.23733">
        <ele>55.5</ele>
        <time>2019-10-11T15:16:26Z</time>
      </trkpt>
      <trkpt lat="47.1396" lon="-1.23733">
        <ele>55.7</ele>
        <time>2019-10-11T15:16:28Z</time>
      </trkpt>
      <trkpt lat="47.13964" lon="-1.23733">
        <ele>55.9</ele>
        <time>2019-10-11T15:16:30Z</time>
      </trkpt>
      <trkpt lat="47.13968" lon="-1.23732">
        <ele>56</ele>
        <time>2019-10-11T15:16:32Z</time>
      </trkpt>
      <trkpt lat="47.13972" lon="-1.23732">
        <ele>56.1</ele>
        <time>2019-10-11T15:16:34Z</time>
      </trkpt>
      <trkpt lat="47.13976" lon="-1.23731">
        <ele>56.2</ele>
        <time>2019-10-11T15:16:36Z</time>
      </trkpt>
      <trkpt lat="47.1398" lon="-1.23731">
        <ele>56.3</ele>
        <time>2019-10-11T15:16:38Z</time>
      </trkpt>
      <trkpt lat="47.13984" lon="-1.23731">
        <ele>56.4</ele>
        <time>2019-10-11T15:16:40Z</time>
      </trkpt>
      <trkpt lat="47.13989" lon="-1.2373">
        <ele>56.4</ele>
        <time>2019-10-11T15:16:42Z</time>
      </trkpt>
      <trkpt lat="47.13993" lon="-1.2373">
        <ele>56.5</ele>
        <time>2019-10-11T15:16:44Z</time>
      </trkpt>
      <trkpt lat="47.13997" lon="-1.23729">
        <ele>56.5</ele>
        <time>2019-10-11T15:16:46Z</time>
      </trkpt>
      <trkpt lat="47.14002" lon="-1.23729">
        <ele>56.6</ele>
        <time>2019-10-11T15:16:48Z</time>
      </trkpt>
      <trkpt lat="47.14006" lon="-1.23728">
        <ele>56.6</ele>
        <time>2019-10-11T15:16:50Z</time>
      </trkpt>
      <trkpt lat="47.14011" lon="-1.23728">
        <ele>56.6</ele>
        <time>2019-10-11T15:16:52Z</time>
      </trkpt>
      <trkpt lat="47.14016" lon="-1.23727">
        <ele>56.6</ele>
        <time>2019-10-11T15:16:54Z</time>
      </trkpt>
      <trkpt lat="47.14019" lon="-1.23727">
        <ele>56.6</ele>
        <time>2019-10-11T15:16:55Z</time>
      </trkpt>
      <trkpt lat="47.14021" lon="-1.23726">
        <ele>56.6</ele>
        <time>2019-10-11T15:16:56Z</time>
      </trkpt>
      <trkpt lat="47.14024" lon="-1.23726">
        <ele>56.6</ele>
        <time>2019-10-11T15:16:57Z</time>
      </trkpt>
      <trkpt lat="47.14027" lon="-1.23726">
        <ele>56.6</ele>
        <time>2019-10-11T15:16:58Z</time>
      </trkpt>
      <trkpt lat="47.1403" lon="-1.23726">
        <ele>56.6</ele>
        <time>2019-10-11T15:16:59Z</time>
      </trkpt>
      <trkpt lat="47.14033" lon="-1.23725">
        <ele>56.5</ele>
        <time>2019-10-11T15:17:00Z</time>
      </trkpt>
      <trkpt lat="47.14038" lon="-1.23725">
        <ele>56.5</ele>
        <time>2019-10-11T15:17:02Z</time>
      </trkpt>
      <trkpt lat="47.14043" lon="-1.23724">
        <ele>56.4</ele>
        <time>2019-10-11T15:17:04Z</time>
      </trkpt>
      <trkpt lat="47.14048" lon="-1.23723">
        <ele>56.4</ele>
        <time>2019-10-11T15:17:06Z</time>
      </trkpt>
      <trkpt lat="47.1405" lon="-1.23722">
        <ele>56.3</ele>
        <time>2019-10-11T15:17:07Z</time>
      </trkpt>
      <trkpt lat="47.14053" lon="-1.23722">
        <ele>56.3</ele>
        <time>2019-10-11T15:17:08Z</time>
      </trkpt>
      <trkpt lat="47.14058" lon="-1.23721">
        <ele>56.2</ele>
        <time>2019-10-11T15:17:10Z</time>
      </trkpt>
      <trkpt lat="47.14064" lon="-1.2372">
        <ele>56.1</ele>
        <time>2019-10-11T15:17:12Z</time>
      </trkpt>
      <trkpt lat="47.14066" lon="-1.23719">
        <ele>56.1</ele>
        <time>2019-10-11T15:17:13Z</time>
      </trkpt>
      <trkpt lat="47.14072" lon="-1.23717">
        <ele>56</ele>
        <time>2019-10-11T15:17:15Z</time>
      </trkpt>
      <trkpt lat="47.14075" lon="-1.23716">
        <ele>55.9</ele>
        <time>2019-10-11T15:17:16Z</time>
      </trkpt>
      <trkpt lat="47.14077" lon="-1.23715">
        <ele>55.9</ele>
        <time>2019-10-11T15:17:17Z</time>
      </trkpt>
      <trkpt lat="47.1408" lon="-1.23713">
        <ele>55.8</ele>
        <time>2019-10-11T15:17:18Z</time>
      </trkpt>
      <trkpt lat="47.14083" lon="-1.23712">
        <ele>55.8</ele>
        <time>2019-10-11T15:17:19Z</time>
      </trkpt>
      <trkpt lat="47.14086" lon="-1.23711">
        <ele>55.7</ele>
        <time>2019-10-11T15:17:20Z</time>
      </trkpt>
      <trkpt lat="47.14089" lon="-1.2371">
        <ele>55.7</ele>
        <time>2019-10-11T15:17:21Z</time>
      </trkpt>
      <trkpt lat="47.14092" lon="-1.23709">
        <ele>55.6</ele>
        <time>2019-10-11T15:17:22Z</time>
      </trkpt>
      <trkpt lat="47.14095" lon="-1.23707">
        <ele>55.6</ele>
        <time>2019-10-11T15:17:23Z</time>
      </trkpt>
      <trkpt lat="47.14098" lon="-1.23706">
        <ele>55.5</ele>
        <time>2019-10-11T15:17:24Z</time>
      </trkpt>
      <trkpt lat="47.14101" lon="-1.23704">
        <ele>55.5</ele>
        <time>2019-10-11T15:17:25Z</time>
      </trkpt>
      <trkpt lat="47.14104" lon="-1.23703">
        <ele>55.4</ele>
        <time>2019-10-11T15:17:26Z</time>
      </trkpt>
      <trkpt lat="47.14107" lon="-1.23701">
        <ele>55.3</ele>
        <time>2019-10-11T15:17:27Z</time>
      </trkpt>
      <trkpt lat="47.1411" lon="-1.23699">
        <ele>55.2</ele>
        <time>2019-10-11T15:17:28Z</time>
      </trkpt>
      <trkpt lat="47.14114" lon="-1.23696">
        <ele>55.1</ele>
        <time>2019-10-11T15:17:29Z</time>
      </trkpt>
      <trkpt lat="47.14117" lon="-1.23694">
        <ele>55</ele>
        <time>2019-10-11T15:17:30Z</time>
      </trkpt>
      <trkpt lat="47.1412" lon="-1.23692">
        <ele>55</ele>
        <time>2019-10-11T15:17:31Z</time>
      </trkpt>
      <trkpt lat="47.14123" lon="-1.23689">
        <ele>55</ele>
        <time>2019-10-11T15:17:32Z</time>
      </trkpt>
      <trkpt lat="47.14126" lon="-1.23687">
        <ele>54.9</ele>
        <time>2019-10-11T15:17:33Z</time>
      </trkpt>
      <trkpt lat="47.1413" lon="-1.23684">
        <ele>54.9</ele>
        <time>2019-10-11T15:17:34Z</time>
      </trkpt>
      <trkpt lat="47.14133" lon="-1.23681">
        <ele>54.9</ele>
        <time>2019-10-11T15:17:35Z</time>
      </trkpt>
      <trkpt lat="47.14136" lon="-1.23678">
        <ele>54.9</ele>
        <time>2019-10-11T15:17:36Z</time>
      </trkpt>
      <trkpt lat="47.1414" lon="-1.23676">
        <ele>54.8</ele>
        <time>2019-10-11T15:17:37Z</time>
      </trkpt>
      <trkpt lat="47.14143" lon="-1.23673">
        <ele>54.8</ele>
        <time>2019-10-11T15:17:38Z</time>
      </trkpt>
      <trkpt lat="47.14146" lon="-1.2367">
        <ele>54.8</ele>
        <time>2019-10-11T15:17:39Z</time>
      </trkpt>
      <trkpt lat="47.14148" lon="-1.23668">
        <ele>54.8</ele>
        <time>2019-10-11T15:17:40Z</time>
      </trkpt>
      <trkpt lat="47.14151" lon="-1.23665">
        <ele>54.8</ele>
        <time>2019-10-11T15:17:41Z</time>
      </trkpt>
      <trkpt lat="47.14154" lon="-1.23663">
        <ele>54.8</ele>
        <time>2019-10-11T15:17:42Z</time>
      </trkpt>
      <trkpt lat="47.14156" lon="-1.23661">
        <ele>54.9</ele>
        <time>2019-10-11T15:17:43Z</time>
      </trkpt>
      <trkpt lat="47.14159" lon="-1.23659">
        <ele>54.9</ele>
        <time>2019-10-11T15:17:44Z</time>
      </trkpt>
      <trkpt lat="47.14162" lon="-1.23657">
        <ele>54.9</ele>
        <time>2019-10-11T15:17:45Z</time>
      </trkpt>
      <trkpt lat="47.14165" lon="-1.23654">
        <ele>54.9</ele>
        <time>2019-10-11T15:17:46Z</time>
      </trkpt>
      <trkpt lat="47.14167" lon="-1.23652">
        <ele>54.9</ele>
        <time>2019-10-11T15:17:47Z</time>
      </trkpt>
      <trkpt lat="47.1417" lon="-1.2365">
        <ele>54.9</ele>
        <time>2019-10-11T15:17:48Z</time>
      </trkpt>
      <trkpt lat="47.14173" lon="-1.23647">
        <ele>54.9</ele>
        <time>2019-10-11T15:17:49Z</time>
      </trkpt>
      <trkpt lat="47.14176" lon="-1.23645">
        <ele>54.9</ele>
        <time>2019-10-11T15:17:50Z</time>
      </trkpt>
      <trkpt lat="47.14179" lon="-1.23642">
        <ele>54.8</ele>
        <time>2019-10-11T15:17:51Z</time>
      </trkpt>
      <trkpt lat="47.14182" lon="-1.2364">
        <ele>54.8</ele>
        <time>2019-10-11T15:17:52Z</time>
      </trkpt>
      <trkpt lat="47.14184" lon="-1.23638">
        <ele>54.9</ele>
        <time>2019-10-11T15:17:53Z</time>
      </trkpt>
      <trkpt lat="47.14187" lon="-1.23635">
        <ele>54.9</ele>
        <time>2019-10-11T15:17:54Z</time>
      </trkpt>
      <trkpt lat="47.14189" lon="-1.23633">
        <ele>54.9</ele>
        <time>2019-10-11T15:17:55Z</time>
      </trkpt>
      <trkpt lat="47.14192" lon="-1.23631">
        <ele>54.9</ele>
        <time>2019-10-11T15:17:56Z</time>
      </trkpt>
      <trkpt lat="47.14195" lon="-1.23629">
        <ele>54.9</ele>
        <time>2019-10-11T15:17:57Z</time>
      </trkpt>
      <trkpt lat="47.14198" lon="-1.23626">
        <ele>55</ele>
        <time>2019-10-11T15:17:58Z</time>
      </trkpt>
      <trkpt lat="47.14201" lon="-1.23624">
        <ele>55.1</ele>
        <time>2019-10-11T15:17:59Z</time>
      </trkpt>
      <trkpt lat="47.14204" lon="-1.23621">
        <ele>55.1</ele>
        <time>2019-10-11T15:18:00Z</time>
      </trkpt>
      <trkpt lat="47.14207" lon="-1.23619">
        <ele>55.2</ele>
        <time>2019-10-11T15:18:01Z</time>
      </trkpt>
      <trkpt lat="47.1421" lon="-1.23616">
        <ele>55.3</ele>
        <time>2019-10-11T15:18:02Z</time>
      </trkpt>
      <trkpt lat="47.14213" lon="-1.23614">
        <ele>55.4</ele>
        <time>2019-10-11T15:18:03Z</time>
      </trkpt>
      <trkpt lat="47.14215" lon="-1.23612">
        <ele>55.4</ele>
        <time>2019-10-11T15:18:04Z</time>
      </trkpt>
      <trkpt lat="47.14218" lon="-1.2361">
        <ele>55.5</ele>
        <time>2019-10-11T15:18:05Z</time>
      </trkpt>
      <trkpt lat="47.14221" lon="-1.23607">
        <ele>55.6</ele>
        <time>2019-10-11T15:18:06Z</time>
      </trkpt>
      <trkpt lat="47.14223" lon="-1.23605">
        <ele>55.6</ele>
        <time>2019-10-11T15:18:07Z</time>
      </trkpt>
      <trkpt lat="47.14226" lon="-1.23603">
        <ele>55.7</ele>
        <time>2019-10-11T15:18:08Z</time>
      </trkpt>
      <trkpt lat="47.14229" lon="-1.23601">
        <ele>55.8</ele>
        <time>2019-10-11T15:18:09Z</time>
      </trkpt>
      <trkpt lat="47.14232" lon="-1.23599">
        <ele>56</ele>
        <time>2019-10-11T15:18:10Z</time>
      </trkpt>
      <trkpt lat="47.14234" lon="-1.23597">
        <ele>56.1</ele>
        <time>2019-10-11T15:18:11Z</time>
      </trkpt>
      <trkpt lat="47.14237" lon="-1.23595">
        <ele>56.1</ele>
        <time>2019-10-11T15:18:12Z</time>
      </trkpt>
      <trkpt lat="47.14239" lon="-1.23593">
        <ele>56.2</ele>
        <time>2019-10-11T15:18:13Z</time>
      </trkpt>
      <trkpt lat="47.14242" lon="-1.23591">
        <ele>56.3</ele>
        <time>2019-10-11T15:18:14Z</time>
      </trkpt>
      <trkpt lat="47.14245" lon="-1.23589">
        <ele>56.4</ele>
        <time>2019-10-11T15:18:15Z</time>
      </trkpt>
      <trkpt lat="47.14247" lon="-1.23588">
        <ele>56.4</ele>
        <time>2019-10-11T15:18:16Z</time>
      </trkpt>
      <trkpt lat="47.1425" lon="-1.23585">
        <ele>56.5</ele>
        <time>2019-10-11T15:18:17Z</time>
      </trkpt>
      <trkpt lat="47.14253" lon="-1.23583">
        <ele>56.6</ele>
        <time>2019-10-11T15:18:18Z</time>
      </trkpt>
      <trkpt lat="47.14256" lon="-1.23582">
        <ele>56.7</ele>
        <time>2019-10-11T15:18:19Z</time>
      </trkpt>
      <trkpt lat="47.14258" lon="-1.2358">
        <ele>56.8</ele>
        <time>2019-10-11T15:18:20Z</time>
      </trkpt>
      <trkpt lat="47.14261" lon="-1.23578">
        <ele>56.9</ele>
        <time>2019-10-11T15:18:21Z</time>
      </trkpt>
      <trkpt lat="47.14264" lon="-1.23576">
        <ele>57</ele>
        <time>2019-10-11T15:18:22Z</time>
      </trkpt>
      <trkpt lat="47.14267" lon="-1.23574">
        <ele>57</ele>
        <time>2019-10-11T15:18:23Z</time>
      </trkpt>
      <trkpt lat="47.1427" lon="-1.23572">
        <ele>57.1</ele>
        <time>2019-10-11T15:18:24Z</time>
      </trkpt>
      <trkpt lat="47.14272" lon="-1.2357">
        <ele>57.2</ele>
        <time>2019-10-11T15:18:25Z</time>
      </trkpt>
      <trkpt lat="47.14275" lon="-1.23569">
        <ele>57.3</ele>
        <time>2019-10-11T15:18:26Z</time>
      </trkpt>
      <trkpt lat="47.14278" lon="-1.23567">
        <ele>57.4</ele>
        <time>2019-10-11T15:18:27Z</time>
      </trkpt>
      <trkpt lat="47.14281" lon="-1.23565">
        <ele>57.5</ele>
        <time>2019-10-11T15:18:28Z</time>
      </trkpt>
      <trkpt lat="47.14284" lon="-1.23563">
        <ele>57.6</ele>
        <time>2019-10-11T15:18:29Z</time>
      </trkpt>
      <trkpt lat="47.14287" lon="-1.23562">
        <ele>57.7</ele>
        <time>2019-10-11T15:18:30Z</time>
      </trkpt>
      <trkpt lat="47.14289" lon="-1.2356">
        <ele>57.8</ele>
        <time>2019-10-11T15:18:31Z</time>
      </trkpt>
      <trkpt lat="47.14292" lon="-1.23558">
        <ele>57.9</ele>
        <time>2019-10-11T15:18:32Z</time>
      </trkpt>
      <trkpt lat="47.14295" lon="-1.23556">
        <ele>58</ele>
        <time>2019-10-11T15:18:33Z</time>
      </trkpt>
      <trkpt lat="47.14298" lon="-1.23554">
        <ele>58.1</ele>
        <time>2019-10-11T15:18:34Z</time>
      </trkpt>
      <trkpt lat="47.14301" lon="-1.23552">
        <ele>58.2</ele>
        <time>2019-10-11T15:18:35Z</time>
      </trkpt>
      <trkpt lat="47.14303" lon="-1.2355">
        <ele>58.4</ele>
        <time>2019-10-11T15:18:36Z</time>
      </trkpt>
      <trkpt lat="47.14306" lon="-1.23548">
        <ele>58.5</ele>
        <time>2019-10-11T15:18:37Z</time>
      </trkpt>
      <trkpt lat="47.14308" lon="-1.23545">
        <ele>58.6</ele>
        <time>2019-10-11T15:18:38Z</time>
      </trkpt>
      <trkpt lat="47.14311" lon="-1.23543">
        <ele>58.7</ele>
        <time>2019-10-11T15:18:39Z</time>
      </trkpt>
      <trkpt lat="47.14314" lon="-1.2354">
        <ele>58.8</ele>
        <time>2019-10-11T15:18:40Z</time>
      </trkpt>
      <trkpt lat="47.14317" lon="-1.23537">
        <ele>58.9</ele>
        <time>2019-10-11T15:18:41Z</time>
      </trkpt>
      <trkpt lat="47.14319" lon="-1.23534">
        <ele>59</ele>
        <time>2019-10-11T15:18:42Z</time>
      </trkpt>
      <trkpt lat="47.14322" lon="-1.23531">
        <ele>59.1</ele>
        <time>2019-10-11T15:18:43Z</time>
      </trkpt>
      <trkpt lat="47.14324" lon="-1.23529">
        <ele>59.1</ele>
        <time>2019-10-11T15:18:44Z</time>
      </trkpt>
      <trkpt lat="47.14328" lon="-1.23524">
        <ele>59.3</ele>
        <time>2019-10-11T15:18:46Z</time>
      </trkpt>
      <trkpt lat="47.14331" lon="-1.23521">
        <ele>59.4</ele>
        <time>2019-10-11T15:18:47Z</time>
      </trkpt>
      <trkpt lat="47.14334" lon="-1.23518">
        <ele>59.5</ele>
        <time>2019-10-11T15:18:48Z</time>
      </trkpt>
      <trkpt lat="47.14336" lon="-1.23516">
        <ele>59.6</ele>
        <time>2019-10-11T15:18:49Z</time>
      </trkpt>
      <trkpt lat="47.1434" lon="-1.23511">
        <ele>59.8</ele>
        <time>2019-10-11T15:18:51Z</time>
      </trkpt>
      <trkpt lat="47.14343" lon="-1.23508">
        <ele>59.9</ele>
        <time>2019-10-11T15:18:53Z</time>
      </trkpt>
      <trkpt lat="47.14346" lon="-1.23506">
        <ele>59.9</ele>
        <time>2019-10-11T15:18:55Z</time>
      </trkpt>
      <trkpt lat="47.14349" lon="-1.23504">
        <ele>60</ele>
        <time>2019-10-11T15:18:57Z</time>
      </trkpt>
      <trkpt lat="47.14352" lon="-1.23503">
        <ele>60</ele>
        <time>2019-10-11T15:18:59Z</time>
      </trkpt>
      <trkpt lat="47.14355" lon="-1.23505">
        <ele>60</ele>
        <time>2019-10-11T15:19:02Z</time>
      </trkpt>
      <trkpt lat="47.14357" lon="-1.2351">
        <ele>60</ele>
        <time>2019-10-11T15:19:05Z</time>
      </trkpt>
      <trkpt lat="47.14359" lon="-1.23513">
        <ele>60.1</ele>
        <time>2019-10-11T15:19:07Z</time>
      </trkpt>
      <trkpt lat="47.14361" lon="-1.23518">
        <ele>60.1</ele>
        <time>2019-10-11T15:19:09Z</time>
      </trkpt>
      <trkpt lat="47.14365" lon="-1.23524">
        <ele>60.1</ele>
        <time>2019-10-11T15:19:11Z</time>
      </trkpt>
      <trkpt lat="47.14366" lon="-1.23528">
        <ele>60.2</ele>
        <time>2019-10-11T15:19:12Z</time>
      </trkpt>
      <trkpt lat="47.14368" lon="-1.23532">
        <ele>60.2</ele>
        <time>2019-10-11T15:19:13Z</time>
      </trkpt>
      <trkpt lat="47.14369" lon="-1.23537">
        <ele>60.2</ele>
        <time>2019-10-11T15:19:14Z</time>
      </trkpt>
      <trkpt lat="47.14371" lon="-1.23541">
        <ele>60.3</ele>
        <time>2019-10-11T15:19:15Z</time>
      </trkpt>
      <trkpt lat="47.14372" lon="-1.23546">
        <ele>60.4</ele>
        <time>2019-10-11T15:19:16Z</time>
      </trkpt>
      <trkpt lat="47.14374" lon="-1.2355">
        <ele>60.5</ele>
        <time>2019-10-11T15:19:17Z</time>
      </trkpt>
      <trkpt lat="47.14376" lon="-1.23555">
        <ele>60.6</ele>
        <time>2019-10-11T15:19:18Z</time>
      </trkpt>
      <trkpt lat="47.14378" lon="-1.2356">
        <ele>60.7</ele>
        <time>2019-10-11T15:19:19Z</time>
      </trkpt>
      <trkpt lat="47.1438" lon="-1.23564">
        <ele>60.8</ele>
        <time>2019-10-11T15:19:20Z</time>
      </trkpt>
      <trkpt lat="47.14382" lon="-1.23568">
        <ele>60.8</ele>
        <time>2019-10-11T15:19:21Z</time>
      </trkpt>
      <trkpt lat="47.14384" lon="-1.23572">
        <ele>60.9</ele>
        <time>2019-10-11T15:19:22Z</time>
      </trkpt>
      <trkpt lat="47.14386" lon="-1.23576">
        <ele>61</ele>
        <time>2019-10-11T15:19:23Z</time>
      </trkpt>
      <trkpt lat="47.14388" lon="-1.23579">
        <ele>61</ele>
        <time>2019-10-11T15:19:24Z</time>
      </trkpt>
      <trkpt lat="47.14391" lon="-1.23583">
        <ele>61.1</ele>
        <time>2019-10-11T15:19:25Z</time>
      </trkpt>
      <trkpt lat="47.14393" lon="-1.23587">
        <ele>61.2</ele>
        <time>2019-10-11T15:19:26Z</time>
      </trkpt>
      <trkpt lat="47.14396" lon="-1.2359">
        <ele>61.4</ele>
        <time>2019-10-11T15:19:27Z</time>
      </trkpt>
      <trkpt lat="47.14399" lon="-1.23594">
        <ele>61.5</ele>
        <time>2019-10-11T15:19:28Z</time>
      </trkpt>
      <trkpt lat="47.14401" lon="-1.23597">
        <ele>61.6</ele>
        <time>2019-10-11T15:19:29Z</time>
      </trkpt>
      <trkpt lat="47.14404" lon="-1.23599">
        <ele>61.7</ele>
        <time>2019-10-11T15:19:30Z</time>
      </trkpt>
      <trkpt lat="47.14407" lon="-1.23601">
        <ele>61.8</ele>
        <time>2019-10-11T15:19:31Z</time>
      </trkpt>
      <trkpt lat="47.1441" lon="-1.23604">
        <ele>61.9</ele>
        <time>2019-10-11T15:19:32Z</time>
      </trkpt>
      <trkpt lat="47.14413" lon="-1.23606">
        <ele>62</ele>
        <time>2019-10-11T15:19:33Z</time>
      </trkpt>
      <trkpt lat="47.14416" lon="-1.23608">
        <ele>62.1</ele>
        <time>2019-10-11T15:19:34Z</time>
      </trkpt>
      <trkpt lat="47.14418" lon="-1.2361">
        <ele>62.1</ele>
        <time>2019-10-11T15:19:35Z</time>
      </trkpt>
      <trkpt lat="47.14421" lon="-1.23612">
        <ele>62.2</ele>
        <time>2019-10-11T15:19:36Z</time>
      </trkpt>
      <trkpt lat="47.14424" lon="-1.23613">
        <ele>62.4</ele>
        <time>2019-10-11T15:19:37Z</time>
      </trkpt>
      <trkpt lat="47.14426" lon="-1.23615">
        <ele>62.5</ele>
        <time>2019-10-11T15:19:38Z</time>
      </trkpt>
      <trkpt lat="47.14429" lon="-1.23617">
        <ele>62.7</ele>
        <time>2019-10-11T15:19:39Z</time>
      </trkpt>
      <trkpt lat="47.14432" lon="-1.23619">
        <ele>62.8</ele>
        <time>2019-10-11T15:19:40Z</time>
      </trkpt>
      <trkpt lat="47.14434" lon="-1.23621">
        <ele>62.9</ele>
        <time>2019-10-11T15:19:41Z</time>
      </trkpt>
      <trkpt lat="47.14437" lon="-1.23622">
        <ele>63</ele>
        <time>2019-10-11T15:19:42Z</time>
      </trkpt>
      <trkpt lat="47.14439" lon="-1.23624">
        <ele>63.1</ele>
        <time>2019-10-11T15:19:43Z</time>
      </trkpt>
      <trkpt lat="47.14442" lon="-1.23627">
        <ele>63.3</ele>
        <time>2019-10-11T15:19:44Z</time>
      </trkpt>
      <trkpt lat="47.14444" lon="-1.23629">
        <ele>63.4</ele>
        <time>2019-10-11T15:19:45Z</time>
      </trkpt>
      <trkpt lat="47.14447" lon="-1.23631">
        <ele>63.5</ele>
        <time>2019-10-11T15:19:46Z</time>
      </trkpt>
      <trkpt lat="47.14449" lon="-1.23634">
        <ele>63.6</ele>
        <time>2019-10-11T15:19:47Z</time>
      </trkpt>
      <trkpt lat="47.14452" lon="-1.23637">
        <ele>63.6</ele>
        <time>2019-10-11T15:19:48Z</time>
      </trkpt>
      <trkpt lat="47.14454" lon="-1.23639">
        <ele>63.7</ele>
        <time>2019-10-11T15:19:49Z</time>
      </trkpt>
      <trkpt lat="47.14456" lon="-1.23642">
        <ele>63.8</ele>
        <time>2019-10-11T15:19:50Z</time>
      </trkpt>
      <trkpt lat="47.14459" lon="-1.23645">
        <ele>63.9</ele>
        <time>2019-10-11T15:19:51Z</time>
      </trkpt>
      <trkpt lat="47.14461" lon="-1.23648">
        <ele>64</ele>
        <time>2019-10-11T15:19:52Z</time>
      </trkpt>
      <trkpt lat="47.14463" lon="-1.23651">
        <ele>64.1</ele>
        <time>2019-10-11T15:19:53Z</time>
      </trkpt>
      <trkpt lat="47.14465" lon="-1.23654">
        <ele>64.2</ele>
        <time>2019-10-11T15:19:54Z</time>
      </trkpt>
      <trkpt lat="47.14467" lon="-1.23657">
        <ele>64.3</ele>
        <time>2019-10-11T15:19:55Z</time>
      </trkpt>
      <trkpt lat="47.14471" lon="-1.23662">
        <ele>64.5</ele>
        <time>2019-10-11T15:19:57Z</time>
      </trkpt>
      <trkpt lat="47.14475" lon="-1.23667">
        <ele>64.6</ele>
        <time>2019-10-11T15:19:59Z</time>
      </trkpt>
      <trkpt lat="47.14478" lon="-1.23672">
        <ele>64.8</ele>
        <time>2019-10-11T15:20:01Z</time>
      </trkpt>
      <trkpt lat="47.14482" lon="-1.23676">
        <ele>65</ele>
        <time>2019-10-11T15:20:03Z</time>
      </trkpt>
      <trkpt lat="47.14485" lon="-1.23681">
        <ele>65.1</ele>
        <time>2019-10-11T15:20:05Z</time>
      </trkpt>
      <trkpt lat="47.14489" lon="-1.23686">
        <ele>65.3</ele>
        <time>2019-10-11T15:20:07Z</time>
      </trkpt>
      <trkpt lat="47.14492" lon="-1.23691">
        <ele>65.4</ele>
        <time>2019-10-11T15:20:09Z</time>
      </trkpt>
      <trkpt lat="47.14496" lon="-1.23695">
        <ele>65.6</ele>
        <time>2019-10-11T15:20:11Z</time>
      </trkpt>
      <trkpt lat="47.14499" lon="-1.237">
        <ele>65.8</ele>
        <time>2019-10-11T15:20:13Z</time>
      </trkpt>
      <trkpt lat="47.14503" lon="-1.23705">
        <ele>66</ele>
        <time>2019-10-11T15:20:15Z</time>
      </trkpt>
      <trkpt lat="47.14507" lon="-1.2371">
        <ele>66.1</ele>
        <time>2019-10-11T15:20:17Z</time>
      </trkpt>
      <trkpt lat="47.1451" lon="-1.23715">
        <ele>66.3</ele>
        <time>2019-10-11T15:20:19Z</time>
      </trkpt>
      <trkpt lat="47.14514" lon="-1.2372">
        <ele>66.5</ele>
        <time>2019-10-11T15:20:21Z</time>
      </trkpt>
      <trkpt lat="47.14517" lon="-1.23725">
        <ele>66.7</ele>
        <time>2019-10-11T15:20:23Z</time>
      </trkpt>
      <trkpt lat="47.14521" lon="-1.2373">
        <ele>67</ele>
        <time>2019-10-11T15:20:25Z</time>
      </trkpt>
      <trkpt lat="47.14524" lon="-1.23735">
        <ele>67.2</ele>
        <time>2019-10-11T15:20:27Z</time>
      </trkpt>
      <trkpt lat="47.14528" lon="-1.23739">
        <ele>67.4</ele>
        <time>2019-10-11T15:20:29Z</time>
      </trkpt>
      <trkpt lat="47.14532" lon="-1.23744">
        <ele>67.7</ele>
        <time>2019-10-11T15:20:31Z</time>
      </trkpt>
      <trkpt lat="47.14536" lon="-1.23749">
        <ele>67.9</ele>
        <time>2019-10-11T15:20:33Z</time>
      </trkpt>
      <trkpt lat="47.1454" lon="-1.23754">
        <ele>68.2</ele>
        <time>2019-10-11T15:20:35Z</time>
      </trkpt>
      <trkpt lat="47.14544" lon="-1.23758">
        <ele>68.5</ele>
        <time>2019-10-11T15:20:37Z</time>
      </trkpt>
      <trkpt lat="47.14548" lon="-1.23762">
        <ele>68.7</ele>
        <time>2019-10-11T15:20:39Z</time>
      </trkpt>
      <trkpt lat="47.14553" lon="-1.23765">
        <ele>68.9</ele>
        <time>2019-10-11T15:20:41Z</time>
      </trkpt>
      <trkpt lat="47.14557" lon="-1.23767">
        <ele>69</ele>
        <time>2019-10-11T15:20:43Z</time>
      </trkpt>
      <trkpt lat="47.14562" lon="-1.23769">
        <ele>69.1</ele>
        <time>2019-10-11T15:20:45Z</time>
      </trkpt>
      <trkpt lat="47.14566" lon="-1.23771">
        <ele>69.2</ele>
        <time>2019-10-11T15:20:47Z</time>
      </trkpt>
      <trkpt lat="47.1457" lon="-1.23772">
        <ele>69.3</ele>
        <time>2019-10-11T15:20:49Z</time>
      </trkpt>
      <trkpt lat="47.14574" lon="-1.23771">
        <ele>69.4</ele>
        <time>2019-10-11T15:20:51Z</time>
      </trkpt>
      <trkpt lat="47.14577" lon="-1.2377">
        <ele>69.5</ele>
        <time>2019-10-11T15:20:53Z</time>
      </trkpt>
      <trkpt lat="47.1458" lon="-1.23771">
        <ele>69.6</ele>
        <time>2019-10-11T15:20:55Z</time>
      </trkpt>
      <trkpt lat="47.14584" lon="-1.23773">
        <ele>69.7</ele>
        <time>2019-10-11T15:20:57Z</time>
      </trkpt>
      <trkpt lat="47.14589" lon="-1.23777">
        <ele>69.8</ele>
        <time>2019-10-11T15:20:59Z</time>
      </trkpt>
      <trkpt lat="47.14592" lon="-1.23779">
        <ele>69.9</ele>
        <time>2019-10-11T15:21:00Z</time>
      </trkpt>
      <trkpt lat="47.14597" lon="-1.23781">
        <ele>70</ele>
        <time>2019-10-11T15:21:02Z</time>
      </trkpt>
      <trkpt lat="47.14602" lon="-1.23782">
        <ele>70.2</ele>
        <time>2019-10-11T15:21:04Z</time>
      </trkpt>
      <trkpt lat="47.14605" lon="-1.23783">
        <ele>70.2</ele>
        <time>2019-10-11T15:21:05Z</time>
      </trkpt>
      <trkpt lat="47.14608" lon="-1.23784">
        <ele>70.3</ele>
        <time>2019-10-11T15:21:06Z</time>
      </trkpt>
      <trkpt lat="47.14611" lon="-1.23784">
        <ele>70.4</ele>
        <time>2019-10-11T15:21:07Z</time>
      </trkpt>
      <trkpt lat="47.14614" lon="-1.23785">
        <ele>70.4</ele>
        <time>2019-10-11T15:21:08Z</time>
      </trkpt>
      <trkpt lat="47.14616" lon="-1.23786">
        <ele>70.5</ele>
        <time>2019-10-11T15:21:09Z</time>
      </trkpt>
      <trkpt lat="47.14619" lon="-1.23786">
        <ele>70.5</ele>
        <time>2019-10-11T15:21:10Z</time>
      </trkpt>
      <trkpt lat="47.14622" lon="-1.23787">
        <ele>70.6</ele>
        <time>2019-10-11T15:21:11Z</time>
      </trkpt>
      <trkpt lat="47.14625" lon="-1.23788">
        <ele>70.6</ele>
        <time>2019-10-11T15:21:12Z</time>
      </trkpt>
      <trkpt lat="47.14628" lon="-1.23789">
        <ele>70.6</ele>
        <time>2019-10-11T15:21:13Z</time>
      </trkpt>
      <trkpt lat="47.14631" lon="-1.2379">
        <ele>70.7</ele>
        <time>2019-10-11T15:21:14Z</time>
      </trkpt>
      <trkpt lat="47.14633" lon="-1.23791">
        <ele>70.7</ele>
        <time>2019-10-11T15:21:15Z</time>
      </trkpt>
      <trkpt lat="47.14636" lon="-1.23791">
        <ele>70.7</ele>
        <time>2019-10-11T15:21:16Z</time>
      </trkpt>
      <trkpt lat="47.14641" lon="-1.23792">
        <ele>70.8</ele>
        <time>2019-10-11T15:21:18Z</time>
      </trkpt>
      <trkpt lat="47.14647" lon="-1.23793">
        <ele>70.9</ele>
        <time>2019-10-11T15:21:20Z</time>
      </trkpt>
      <trkpt lat="47.14649" lon="-1.23794">
        <ele>71</ele>
        <time>2019-10-11T15:21:21Z</time>
      </trkpt>
      <trkpt lat="47.14652" lon="-1.23795">
        <ele>71.1</ele>
        <time>2019-10-11T15:21:22Z</time>
      </trkpt>
      <trkpt lat="47.14655" lon="-1.23796">
        <ele>71.1</ele>
        <time>2019-10-11T15:21:23Z</time>
      </trkpt>
      <trkpt lat="47.14658" lon="-1.23797">
        <ele>71.2</ele>
        <time>2019-10-11T15:21:24Z</time>
      </trkpt>
      <trkpt lat="47.14661" lon="-1.23798">
        <ele>71.4</ele>
        <time>2019-10-11T15:21:25Z</time>
      </trkpt>
      <trkpt lat="47.14665" lon="-1.23799">
        <ele>71.5</ele>
        <time>2019-10-11T15:21:26Z</time>
      </trkpt>
      <trkpt lat="47.14667" lon="-1.23799">
        <ele>71.5</ele>
        <time>2019-10-11T15:21:27Z</time>
      </trkpt>
      <trkpt lat="47.1467" lon="-1.238">
        <ele>71.6</ele>
        <time>2019-10-11T15:21:28Z</time>
      </trkpt>
      <trkpt lat="47.14673" lon="-1.23801">
        <ele>71.7</ele>
        <time>2019-10-11T15:21:29Z</time>
      </trkpt>
      <trkpt lat="47.14677" lon="-1.23802">
        <ele>71.7</ele>
        <time>2019-10-11T15:21:30Z</time>
      </trkpt>
      <trkpt lat="47.1468" lon="-1.23803">
        <ele>71.8</ele>
        <time>2019-10-11T15:21:31Z</time>
      </trkpt>
      <trkpt lat="47.14683" lon="-1.23805">
        <ele>71.9</ele>
        <time>2019-10-11T15:21:32Z</time>
      </trkpt>
      <trkpt lat="47.14685" lon="-1.23806">
        <ele>71.9</ele>
        <time>2019-10-11T15:21:33Z</time>
      </trkpt>
      <trkpt lat="47.14688" lon="-1.23807">
        <ele>72</ele>
        <time>2019-10-11T15:21:34Z</time>
      </trkpt>
      <trkpt lat="47.14691" lon="-1.23809">
        <ele>72.1</ele>
        <time>2019-10-11T15:21:35Z</time>
      </trkpt>
      <trkpt lat="47.14694" lon="-1.23811">
        <ele>72.2</ele>
        <time>2019-10-11T15:21:36Z</time>
      </trkpt>
      <trkpt lat="47.14697" lon="-1.23813">
        <ele>72.3</ele>
        <time>2019-10-11T15:21:37Z</time>
      </trkpt>
      <trkpt lat="47.147" lon="-1.23815">
        <ele>72.3</ele>
        <time>2019-10-11T15:21:38Z</time>
      </trkpt>
      <trkpt lat="47.14703" lon="-1.23816">
        <ele>72.4</ele>
        <time>2019-10-11T15:21:39Z</time>
      </trkpt>
      <trkpt lat="47.14705" lon="-1.23817">
        <ele>72.5</ele>
        <time>2019-10-11T15:21:40Z</time>
      </trkpt>
      <trkpt lat="47.14708" lon="-1.23819">
        <ele>72.8</ele>
        <time>2019-10-11T15:21:41Z</time>
      </trkpt>
      <trkpt lat="47.14711" lon="-1.23819">
        <ele>72.9</ele>
        <time>2019-10-11T15:21:42Z</time>
      </trkpt>
      <trkpt lat="47.14714" lon="-1.23819">
        <ele>73</ele>
        <time>2019-10-11T15:21:43Z</time>
      </trkpt>
      <trkpt lat="47.14717" lon="-1.23819">
        <ele>73.1</ele>
        <time>2019-10-11T15:21:44Z</time>
      </trkpt>
      <trkpt lat="47.1472" lon="-1.23819">
        <ele>73.2</ele>
        <time>2019-10-11T15:21:45Z</time>
      </trkpt>
      <trkpt lat="47.14724" lon="-1.23818">
        <ele>73.2</ele>
        <time>2019-10-11T15:21:46Z</time>
      </trkpt>
      <trkpt lat="47.14727" lon="-1.23817">
        <ele>73.3</ele>
        <time>2019-10-11T15:21:47Z</time>
      </trkpt>
      <trkpt lat="47.1473" lon="-1.23816">
        <ele>73.4</ele>
        <time>2019-10-11T15:21:48Z</time>
      </trkpt>
      <trkpt lat="47.14733" lon="-1.23815">
        <ele>73.5</ele>
        <time>2019-10-11T15:21:49Z</time>
      </trkpt>
      <trkpt lat="47.14736" lon="-1.23814">
        <ele>73.5</ele>
        <time>2019-10-11T15:21:50Z</time>
      </trkpt>
      <trkpt lat="47.14739" lon="-1.23813">
        <ele>73.6</ele>
        <time>2019-10-11T15:21:51Z</time>
      </trkpt>
      <trkpt lat="47.14742" lon="-1.23812">
        <ele>73.7</ele>
        <time>2019-10-11T15:21:52Z</time>
      </trkpt>
      <trkpt lat="47.14745" lon="-1.23811">
        <ele>73.8</ele>
        <time>2019-10-11T15:21:53Z</time>
      </trkpt>
      <trkpt lat="47.14748" lon="-1.23809">
        <ele>73.9</ele>
        <time>2019-10-11T15:21:54Z</time>
      </trkpt>
      <trkpt lat="47.14752" lon="-1.23808">
        <ele>74</ele>
        <time>2019-10-11T15:21:55Z</time>
      </trkpt>
      <trkpt lat="47.14755" lon="-1.23806">
        <ele>74.1</ele>
        <time>2019-10-11T15:21:56Z</time>
      </trkpt>
      <trkpt lat="47.14758" lon="-1.23805">
        <ele>74.2</ele>
        <time>2019-10-11T15:21:57Z</time>
      </trkpt>
      <trkpt lat="47.14761" lon="-1.23803">
        <ele>74.3</ele>
        <time>2019-10-11T15:21:58Z</time>
      </trkpt>
      <trkpt lat="47.14764" lon="-1.23802">
        <ele>74.4</ele>
        <time>2019-10-11T15:21:59Z</time>
      </trkpt>
      <trkpt lat="47.14767" lon="-1.23801">
        <ele>74.5</ele>
        <time>2019-10-11T15:22:00Z</time>
      </trkpt>
      <trkpt lat="47.1477" lon="-1.23798">
        <ele>74.7</ele>
        <time>2019-10-11T15:22:01Z</time>
      </trkpt>
      <trkpt lat="47.14772" lon="-1.23795">
        <ele>74.7</ele>
        <time>2019-10-11T15:22:02Z</time>
      </trkpt>
      <trkpt lat="47.14775" lon="-1.23792">
        <ele>74.8</ele>
        <time>2019-10-11T15:22:03Z</time>
      </trkpt>
      <trkpt lat="47.14777" lon="-1.23788">
        <ele>74.9</ele>
        <time>2019-10-11T15:22:04Z</time>
      </trkpt>
      <trkpt lat="47.14779" lon="-1.23784">
        <ele>75</ele>
        <time>2019-10-11T15:22:05Z</time>
      </trkpt>
      <trkpt lat="47.14782" lon="-1.23781">
        <ele>75.1</ele>
        <time>2019-10-11T15:22:06Z</time>
      </trkpt>
      <trkpt lat="47.14784" lon="-1.23777">
        <ele>75.1</ele>
        <time>2019-10-11T15:22:07Z</time>
      </trkpt>
      <trkpt lat="47.14786" lon="-1.23772">
        <ele>75.2</ele>
        <time>2019-10-11T15:22:08Z</time>
      </trkpt>
      <trkpt lat="47.14789" lon="-1.23769">
        <ele>75.3</ele>
        <time>2019-10-11T15:22:09Z</time>
      </trkpt>
      <trkpt lat="47.14791" lon="-1.23765">
        <ele>75.4</ele>
        <time>2019-10-11T15:22:10Z</time>
      </trkpt>
      <trkpt lat="47.14793" lon="-1.23761">
        <ele>75.4</ele>
        <time>2019-10-11T15:22:11Z</time>
      </trkpt>
      <trkpt lat="47.14796" lon="-1.23758">
        <ele>75.5</ele>
        <time>2019-10-11T15:22:12Z</time>
      </trkpt>
      <trkpt lat="47.14799" lon="-1.23754">
        <ele>75.6</ele>
        <time>2019-10-11T15:22:13Z</time>
      </trkpt>
      <trkpt lat="47.14801" lon="-1.2375">
        <ele>75.7</ele>
        <time>2019-10-11T15:22:14Z</time>
      </trkpt>
      <trkpt lat="47.14804" lon="-1.23746">
        <ele>75.8</ele>
        <time>2019-10-11T15:22:15Z</time>
      </trkpt>
      <trkpt lat="47.14806" lon="-1.23742">
        <ele>75.8</ele>
        <time>2019-10-11T15:22:16Z</time>
      </trkpt>
      <trkpt lat="47.14809" lon="-1.23738">
        <ele>75.9</ele>
        <time>2019-10-11T15:22:17Z</time>
      </trkpt>
      <trkpt lat="47.14811" lon="-1.23735">
        <ele>76</ele>
        <time>2019-10-11T15:22:18Z</time>
      </trkpt>
      <trkpt lat="47.14814" lon="-1.23731">
        <ele>76</ele>
        <time>2019-10-11T15:22:19Z</time>
      </trkpt>
      <trkpt lat="47.14816" lon="-1.23728">
        <ele>76.1</ele>
        <time>2019-10-11T15:22:20Z</time>
      </trkpt>
      <trkpt lat="47.14819" lon="-1.23725">
        <ele>76.2</ele>
        <time>2019-10-11T15:22:21Z</time>
      </trkpt>
      <trkpt lat="47.14822" lon="-1.23722">
        <ele>76.3</ele>
        <time>2019-10-11T15:22:22Z</time>
      </trkpt>
      <trkpt lat="47.14825" lon="-1.23719">
        <ele>76.3</ele>
        <time>2019-10-11T15:22:23Z</time>
      </trkpt>
      <trkpt lat="47.14828" lon="-1.23716">
        <ele>76.4</ele>
        <time>2019-10-11T15:22:24Z</time>
      </trkpt>
      <trkpt lat="47.14831" lon="-1.23713">
        <ele>76.5</ele>
        <time>2019-10-11T15:22:25Z</time>
      </trkpt>
      <trkpt lat="47.14834" lon="-1.2371">
        <ele>76.6</ele>
        <time>2019-10-11T15:22:26Z</time>
      </trkpt>
      <trkpt lat="47.14837" lon="-1.23707">
        <ele>76.6</ele>
        <time>2019-10-11T15:22:27Z</time>
      </trkpt>
      <trkpt lat="47.1484" lon="-1.23704">
        <ele>76.7</ele>
        <time>2019-10-11T15:22:28Z</time>
      </trkpt>
      <trkpt lat="47.14843" lon="-1.237">
        <ele>76.8</ele>
        <time>2019-10-11T15:22:29Z</time>
      </trkpt>
      <trkpt lat="47.14845" lon="-1.23698">
        <ele>76.8</ele>
        <time>2019-10-11T15:22:30Z</time>
      </trkpt>
      <trkpt lat="47.14849" lon="-1.23695">
        <ele>76.9</ele>
        <time>2019-10-11T15:22:31Z</time>
      </trkpt>
      <trkpt lat="47.14852" lon="-1.23692">
        <ele>77</ele>
        <time>2019-10-11T15:22:32Z</time>
      </trkpt>
      <trkpt lat="47.14855" lon="-1.2369">
        <ele>77.1</ele>
        <time>2019-10-11T15:22:33Z</time>
      </trkpt>
      <trkpt lat="47.14858" lon="-1.23688">
        <ele>77.1</ele>
        <time>2019-10-11T15:22:34Z</time>
      </trkpt>
      <trkpt lat="47.14862" lon="-1.23686">
        <ele>77.3</ele>
        <time>2019-10-11T15:22:35Z</time>
      </trkpt>
      <trkpt lat="47.14864" lon="-1.23685">
        <ele>77.3</ele>
        <time>2019-10-11T15:22:36Z</time>
      </trkpt>
      <trkpt lat="47.14868" lon="-1.23683">
        <ele>77.4</ele>
        <time>2019-10-11T15:22:37Z</time>
      </trkpt>
      <trkpt lat="47.14871" lon="-1.23682">
        <ele>77.5</ele>
        <time>2019-10-11T15:22:38Z</time>
      </trkpt>
      <trkpt lat="47.14874" lon="-1.2368">
        <ele>77.6</ele>
        <time>2019-10-11T15:22:39Z</time>
      </trkpt>
      <trkpt lat="47.14877" lon="-1.23679">
        <ele>77.7</ele>
        <time>2019-10-11T15:22:40Z</time>
      </trkpt>
      <trkpt lat="47.1488" lon="-1.23677">
        <ele>77.8</ele>
        <time>2019-10-11T15:22:41Z</time>
      </trkpt>
      <trkpt lat="47.14884" lon="-1.23676">
        <ele>77.9</ele>
        <time>2019-10-11T15:22:42Z</time>
      </trkpt>
      <trkpt lat="47.14887" lon="-1.23675">
        <ele>78</ele>
        <time>2019-10-11T15:22:43Z</time>
      </trkpt>
      <trkpt lat="47.1489" lon="-1.23673">
        <ele>78.1</ele>
        <time>2019-10-11T15:22:44Z</time>
      </trkpt>
      <trkpt lat="47.14893" lon="-1.23672">
        <ele>78.2</ele>
        <time>2019-10-11T15:22:45Z</time>
      </trkpt>
      <trkpt lat="47.14896" lon="-1.23671">
        <ele>78.2</ele>
        <time>2019-10-11T15:22:46Z</time>
      </trkpt>
      <trkpt lat="47.14899" lon="-1.23669">
        <ele>78.3</ele>
        <time>2019-10-11T15:22:47Z</time>
      </trkpt>
      <trkpt lat="47.14903" lon="-1.23668">
        <ele>78.3</ele>
        <time>2019-10-11T15:22:48Z</time>
      </trkpt>
      <trkpt lat="47.14906" lon="-1.23667">
        <ele>78.4</ele>
        <time>2019-10-11T15:22:49Z</time>
      </trkpt>
      <trkpt lat="47.14909" lon="-1.23665">
        <ele>78.4</ele>
        <time>2019-10-11T15:22:50Z</time>
      </trkpt>
      <trkpt lat="47.14912" lon="-1.23664">
        <ele>78.4</ele>
        <time>2019-10-11T15:22:51Z</time>
      </trkpt>
      <trkpt lat="47.14915" lon="-1.23663">
        <ele>78.4</ele>
        <time>2019-10-11T15:22:52Z</time>
      </trkpt>
      <trkpt lat="47.14919" lon="-1.23661">
        <ele>78.5</ele>
        <time>2019-10-11T15:22:53Z</time>
      </trkpt>
      <trkpt lat="47.14922" lon="-1.2366">
        <ele>78.5</ele>
        <time>2019-10-11T15:22:54Z</time>
      </trkpt>
      <trkpt lat="47.14924" lon="-1.23659">
        <ele>78.5</ele>
        <time>2019-10-11T15:22:55Z</time>
      </trkpt>
      <trkpt lat="47.14927" lon="-1.23658">
        <ele>78.5</ele>
        <time>2019-10-11T15:22:56Z</time>
      </trkpt>
      <trkpt lat="47.1493" lon="-1.23657">
        <ele>78.6</ele>
        <time>2019-10-11T15:22:57Z</time>
      </trkpt>
      <trkpt lat="47.14933" lon="-1.23656">
        <ele>78.6</ele>
        <time>2019-10-11T15:22:58Z</time>
      </trkpt>
      <trkpt lat="47.14936" lon="-1.23655">
        <ele>78.6</ele>
        <time>2019-10-11T15:22:59Z</time>
      </trkpt>
      <trkpt lat="47.14939" lon="-1.23654">
        <ele>78.6</ele>
        <time>2019-10-11T15:23:00Z</time>
      </trkpt>
      <trkpt lat="47.14942" lon="-1.23653">
        <ele>78.6</ele>
        <time>2019-10-11T15:23:01Z</time>
      </trkpt>
      <trkpt lat="47.14945" lon="-1.23652">
        <ele>78.6</ele>
        <time>2019-10-11T15:23:02Z</time>
      </trkpt>
      <trkpt lat="47.14947" lon="-1.23651">
        <ele>78.7</ele>
        <time>2019-10-11T15:23:03Z</time>
      </trkpt>
      <trkpt lat="47.1495" lon="-1.2365">
        <ele>78.7</ele>
        <time>2019-10-11T15:23:04Z</time>
      </trkpt>
      <trkpt lat="47.14956" lon="-1.23648">
        <ele>78.7</ele>
        <time>2019-10-11T15:23:06Z</time>
      </trkpt>
      <trkpt lat="47.14959" lon="-1.23648">
        <ele>78.7</ele>
        <time>2019-10-11T15:23:07Z</time>
      </trkpt>
      <trkpt lat="47.14965" lon="-1.23647">
        <ele>78.7</ele>
        <time>2019-10-11T15:23:09Z</time>
      </trkpt>
      <trkpt lat="47.14968" lon="-1.23647">
        <ele>78.7</ele>
        <time>2019-10-11T15:23:10Z</time>
      </trkpt>
      <trkpt lat="47.14971" lon="-1.23646">
        <ele>78.7</ele>
        <time>2019-10-11T15:23:11Z</time>
      </trkpt>
      <trkpt lat="47.14974" lon="-1.23646">
        <ele>78.7</ele>
        <time>2019-10-11T15:23:12Z</time>
      </trkpt>
      <trkpt lat="47.14977" lon="-1.23645">
        <ele>78.7</ele>
        <time>2019-10-11T15:23:13Z</time>
      </trkpt>
      <trkpt lat="47.1498" lon="-1.23645">
        <ele>78.7</ele>
        <time>2019-10-11T15:23:14Z</time>
      </trkpt>
      <trkpt lat="47.14984" lon="-1.23645">
        <ele>78.7</ele>
        <time>2019-10-11T15:23:15Z</time>
      </trkpt>
      <trkpt lat="47.14987" lon="-1.23645">
        <ele>78.7</ele>
        <time>2019-10-11T15:23:16Z</time>
      </trkpt>
      <trkpt lat="47.14991" lon="-1.23644">
        <ele>78.7</ele>
        <time>2019-10-11T15:23:17Z</time>
      </trkpt>
      <trkpt lat="47.14994" lon="-1.23644">
        <ele>78.8</ele>
        <time>2019-10-11T15:23:18Z</time>
      </trkpt>
      <trkpt lat="47.14998" lon="-1.23643">
        <ele>78.8</ele>
        <time>2019-10-11T15:23:19Z</time>
      </trkpt>
      <trkpt lat="47.15001" lon="-1.23643">
        <ele>78.8</ele>
        <time>2019-10-11T15:23:20Z</time>
      </trkpt>
      <trkpt lat="47.15005" lon="-1.23643">
        <ele>78.8</ele>
        <time>2019-10-11T15:23:21Z</time>
      </trkpt>
      <trkpt lat="47.15008" lon="-1.23643">
        <ele>78.8</ele>
        <time>2019-10-11T15:23:22Z</time>
      </trkpt>
      <trkpt lat="47.15012" lon="-1.23643">
        <ele>78.9</ele>
        <time>2019-10-11T15:23:23Z</time>
      </trkpt>
      <trkpt lat="47.15016" lon="-1.23642">
        <ele>78.9</ele>
        <time>2019-10-11T15:23:24Z</time>
      </trkpt>
      <trkpt lat="47.1502" lon="-1.23642">
        <ele>78.9</ele>
        <time>2019-10-11T15:23:25Z</time>
      </trkpt>
      <trkpt lat="47.15024" lon="-1.23642">
        <ele>78.9</ele>
        <time>2019-10-11T15:23:26Z</time>
      </trkpt>
      <trkpt lat="47.15028" lon="-1.23641">
        <ele>78.9</ele>
        <time>2019-10-11T15:23:27Z</time>
      </trkpt>
      <trkpt lat="47.15032" lon="-1.23641">
        <ele>79</ele>
        <time>2019-10-11T15:23:28Z</time>
      </trkpt>
      <trkpt lat="47.15036" lon="-1.2364">
        <ele>79</ele>
        <time>2019-10-11T15:23:29Z</time>
      </trkpt>
      <trkpt lat="47.1504" lon="-1.2364">
        <ele>79</ele>
        <time>2019-10-11T15:23:30Z</time>
      </trkpt>
      <trkpt lat="47.15044" lon="-1.2364">
        <ele>79.1</ele>
        <time>2019-10-11T15:23:31Z</time>
      </trkpt>
      <trkpt lat="47.15048" lon="-1.23639">
        <ele>79.1</ele>
        <time>2019-10-11T15:23:32Z</time>
      </trkpt>
      <trkpt lat="47.15052" lon="-1.23639">
        <ele>79.2</ele>
        <time>2019-10-11T15:23:33Z</time>
      </trkpt>
      <trkpt lat="47.15056" lon="-1.23638">
        <ele>79.2</ele>
        <time>2019-10-11T15:23:34Z</time>
      </trkpt>
      <trkpt lat="47.1506" lon="-1.23637">
        <ele>79.2</ele>
        <time>2019-10-11T15:23:35Z</time>
      </trkpt>
      <trkpt lat="47.15063" lon="-1.23636">
        <ele>79.2</ele>
        <time>2019-10-11T15:23:36Z</time>
      </trkpt>
      <trkpt lat="47.15068" lon="-1.23636">
        <ele>79.2</ele>
        <time>2019-10-11T15:23:37Z</time>
      </trkpt>
      <trkpt lat="47.15072" lon="-1.23635">
        <ele>79.2</ele>
        <time>2019-10-11T15:23:38Z</time>
      </trkpt>
      <trkpt lat="47.15076" lon="-1.23634">
        <ele>79.2</ele>
        <time>2019-10-11T15:23:39Z</time>
      </trkpt>
      <trkpt lat="47.15079" lon="-1.23633">
        <ele>79.1</ele>
        <time>2019-10-11T15:23:40Z</time>
      </trkpt>
      <trkpt lat="47.15083" lon="-1.23632">
        <ele>79.1</ele>
        <time>2019-10-11T15:23:41Z</time>
      </trkpt>
      <trkpt lat="47.15087" lon="-1.23632">
        <ele>79</ele>
        <time>2019-10-11T15:23:42Z</time>
      </trkpt>
      <trkpt lat="47.15091" lon="-1.23631">
        <ele>79</ele>
        <time>2019-10-11T15:23:43Z</time>
      </trkpt>
      <trkpt lat="47.15095" lon="-1.2363">
        <ele>78.9</ele>
        <time>2019-10-11T15:23:44Z</time>
      </trkpt>
      <trkpt lat="47.15099" lon="-1.2363">
        <ele>78.8</ele>
        <time>2019-10-11T15:23:45Z</time>
      </trkpt>
      <trkpt lat="47.15103" lon="-1.23629">
        <ele>78.7</ele>
        <time>2019-10-11T15:23:46Z</time>
      </trkpt>
      <trkpt lat="47.15107" lon="-1.23628">
        <ele>78.6</ele>
        <time>2019-10-11T15:23:47Z</time>
      </trkpt>
      <trkpt lat="47.15111" lon="-1.23628">
        <ele>78.6</ele>
        <time>2019-10-11T15:23:48Z</time>
      </trkpt>
      <trkpt lat="47.15115" lon="-1.23627">
        <ele>78.5</ele>
        <time>2019-10-11T15:23:49Z</time>
      </trkpt>
      <trkpt lat="47.15119" lon="-1.23627">
        <ele>78.4</ele>
        <time>2019-10-11T15:23:50Z</time>
      </trkpt>
      <trkpt lat="47.15123" lon="-1.23626">
        <ele>78.4</ele>
        <time>2019-10-11T15:23:51Z</time>
      </trkpt>
      <trkpt lat="47.15127" lon="-1.23626">
        <ele>78.3</ele>
        <time>2019-10-11T15:23:52Z</time>
      </trkpt>
      <trkpt lat="47.15131" lon="-1.23626">
        <ele>78.2</ele>
        <time>2019-10-11T15:23:53Z</time>
      </trkpt>
      <trkpt lat="47.15135" lon="-1.23625">
        <ele>78.2</ele>
        <time>2019-10-11T15:23:54Z</time>
      </trkpt>
      <trkpt lat="47.15139" lon="-1.23624">
        <ele>78.1</ele>
        <time>2019-10-11T15:23:55Z</time>
      </trkpt>
      <trkpt lat="47.15143" lon="-1.23624">
        <ele>78.1</ele>
        <time>2019-10-11T15:23:56Z</time>
      </trkpt>
      <trkpt lat="47.15148" lon="-1.23624">
        <ele>78</ele>
        <time>2019-10-11T15:23:57Z</time>
      </trkpt>
      <trkpt lat="47.15152" lon="-1.23624">
        <ele>78</ele>
        <time>2019-10-11T15:23:58Z</time>
      </trkpt>
      <trkpt lat="47.15156" lon="-1.23624">
        <ele>77.9</ele>
        <time>2019-10-11T15:23:59Z</time>
      </trkpt>
      <trkpt lat="47.1516" lon="-1.23624">
        <ele>77.9</ele>
        <time>2019-10-11T15:24:00Z</time>
      </trkpt>
      <trkpt lat="47.15164" lon="-1.23623">
        <ele>77.9</ele>
        <time>2019-10-11T15:24:01Z</time>
      </trkpt>
      <trkpt lat="47.15168" lon="-1.23623">
        <ele>77.9</ele>
        <time>2019-10-11T15:24:02Z</time>
      </trkpt>
      <trkpt lat="47.15172" lon="-1.23622">
        <ele>77.9</ele>
        <time>2019-10-11T15:24:03Z</time>
      </trkpt>
      <trkpt lat="47.15176" lon="-1.23623">
        <ele>77.8</ele>
        <time>2019-10-11T15:24:04Z</time>
      </trkpt>
      <trkpt lat="47.1518" lon="-1.23623">
        <ele>77.8</ele>
        <time>2019-10-11T15:24:05Z</time>
      </trkpt>
      <trkpt lat="47.15183" lon="-1.23623">
        <ele>77.8</ele>
        <time>2019-10-11T15:24:06Z</time>
      </trkpt>
      <trkpt lat="47.15186" lon="-1.23623">
        <ele>77.8</ele>
        <time>2019-10-11T15:24:07Z</time>
      </trkpt>
      <trkpt lat="47.15189" lon="-1.23622">
        <ele>77.8</ele>
        <time>2019-10-11T15:24:08Z</time>
      </trkpt>
      <trkpt lat="47.15193" lon="-1.23622">
        <ele>77.7</ele>
        <time>2019-10-11T15:24:09Z</time>
      </trkpt>
      <trkpt lat="47.15197" lon="-1.23623">
        <ele>77.7</ele>
        <time>2019-10-11T15:24:10Z</time>
      </trkpt>
      <trkpt lat="47.152" lon="-1.23623">
        <ele>77.6</ele>
        <time>2019-10-11T15:24:11Z</time>
      </trkpt>
      <trkpt lat="47.15205" lon="-1.23623">
        <ele>77.5</ele>
        <time>2019-10-11T15:24:12Z</time>
      </trkpt>
      <trkpt lat="47.15209" lon="-1.23623">
        <ele>77.4</ele>
        <time>2019-10-11T15:24:13Z</time>
      </trkpt>
      <trkpt lat="47.15214" lon="-1.23623">
        <ele>77.3</ele>
        <time>2019-10-11T15:24:14Z</time>
      </trkpt>
      <trkpt lat="47.15218" lon="-1.23623">
        <ele>77.2</ele>
        <time>2019-10-11T15:24:15Z</time>
      </trkpt>
      <trkpt lat="47.15222" lon="-1.23623">
        <ele>77.2</ele>
        <time>2019-10-11T15:24:16Z</time>
      </trkpt>
      <trkpt lat="47.15226" lon="-1.23624">
        <ele>77.1</ele>
        <time>2019-10-11T15:24:17Z</time>
      </trkpt>
      <trkpt lat="47.15231" lon="-1.23624">
        <ele>77</ele>
        <time>2019-10-11T15:24:18Z</time>
      </trkpt>
      <trkpt lat="47.15235" lon="-1.23624">
        <ele>77</ele>
        <time>2019-10-11T15:24:19Z</time>
      </trkpt>
      <trkpt lat="47.15239" lon="-1.23624">
        <ele>76.9</ele>
        <time>2019-10-11T15:24:20Z</time>
      </trkpt>
      <trkpt lat="47.15243" lon="-1.23625">
        <ele>76.9</ele>
        <time>2019-10-11T15:24:21Z</time>
      </trkpt>
      <trkpt lat="47.15247" lon="-1.23625">
        <ele>76.8</ele>
        <time>2019-10-11T15:24:22Z</time>
      </trkpt>
      <trkpt lat="47.15251" lon="-1.23625">
        <ele>76.8</ele>
        <time>2019-10-11T15:24:23Z</time>
      </trkpt>
      <trkpt lat="47.15255" lon="-1.23626">
        <ele>76.8</ele>
        <time>2019-10-11T15:24:24Z</time>
      </trkpt>
      <trkpt lat="47.15259" lon="-1.23627">
        <ele>76.8</ele>
        <time>2019-10-11T15:24:25Z</time>
      </trkpt>
      <trkpt lat="47.15264" lon="-1.23628">
        <ele>76.8</ele>
        <time>2019-10-11T15:24:26Z</time>
      </trkpt>
      <trkpt lat="47.15268" lon="-1.23629">
        <ele>76.8</ele>
        <time>2019-10-11T15:24:27Z</time>
      </trkpt>
      <trkpt lat="47.15272" lon="-1.2363">
        <ele>76.8</ele>
        <time>2019-10-11T15:24:28Z</time>
      </trkpt>
      <trkpt lat="47.15277" lon="-1.23631">
        <ele>76.8</ele>
        <time>2019-10-11T15:24:29Z</time>
      </trkpt>
      <trkpt lat="47.1528" lon="-1.23631">
        <ele>76.8</ele>
        <time>2019-10-11T15:24:30Z</time>
      </trkpt>
      <trkpt lat="47.15285" lon="-1.23633">
        <ele>76.8</ele>
        <time>2019-10-11T15:24:31Z</time>
      </trkpt>
      <trkpt lat="47.15289" lon="-1.23634">
        <ele>76.8</ele>
        <time>2019-10-11T15:24:32Z</time>
      </trkpt>
      <trkpt lat="47.15293" lon="-1.23636">
        <ele>76.9</ele>
        <time>2019-10-11T15:24:33Z</time>
      </trkpt>
      <trkpt lat="47.15297" lon="-1.23637">
        <ele>76.9</ele>
        <time>2019-10-11T15:24:34Z</time>
      </trkpt>
      <trkpt lat="47.15301" lon="-1.23639">
        <ele>76.9</ele>
        <time>2019-10-11T15:24:35Z</time>
      </trkpt>
      <trkpt lat="47.15305" lon="-1.23641">
        <ele>76.9</ele>
        <time>2019-10-11T15:24:36Z</time>
      </trkpt>
      <trkpt lat="47.15308" lon="-1.23642">
        <ele>76.9</ele>
        <time>2019-10-11T15:24:37Z</time>
      </trkpt>
      <trkpt lat="47.15312" lon="-1.23644">
        <ele>76.9</ele>
        <time>2019-10-11T15:24:38Z</time>
      </trkpt>
      <trkpt lat="47.15315" lon="-1.23646">
        <ele>76.9</ele>
        <time>2019-10-11T15:24:39Z</time>
      </trkpt>
      <trkpt lat="47.15319" lon="-1.23647">
        <ele>76.9</ele>
        <time>2019-10-11T15:24:40Z</time>
      </trkpt>
      <trkpt lat="47.15323" lon="-1.23649">
        <ele>76.9</ele>
        <time>2019-10-11T15:24:41Z</time>
      </trkpt>
      <trkpt lat="47.15327" lon="-1.23651">
        <ele>76.8</ele>
        <time>2019-10-11T15:24:42Z</time>
      </trkpt>
      <trkpt lat="47.15331" lon="-1.23653">
        <ele>76.8</ele>
        <time>2019-10-11T15:24:43Z</time>
      </trkpt>
      <trkpt lat="47.15335" lon="-1.23655">
        <ele>76.8</ele>
        <time>2019-10-11T15:24:44Z</time>
      </trkpt>
      <trkpt lat="47.15339" lon="-1.23657">
        <ele>76.7</ele>
        <time>2019-10-11T15:24:45Z</time>
      </trkpt>
      <trkpt lat="47.15343" lon="-1.23659">
        <ele>76.7</ele>
        <time>2019-10-11T15:24:46Z</time>
      </trkpt>
      <trkpt lat="47.15346" lon="-1.2366">
        <ele>76.7</ele>
        <time>2019-10-11T15:24:47Z</time>
      </trkpt>
      <trkpt lat="47.1535" lon="-1.23662">
        <ele>76.6</ele>
        <time>2019-10-11T15:24:48Z</time>
      </trkpt>
      <trkpt lat="47.15354" lon="-1.23665">
        <ele>76.6</ele>
        <time>2019-10-11T15:24:49Z</time>
      </trkpt>
      <trkpt lat="47.15358" lon="-1.23667">
        <ele>76.5</ele>
        <time>2019-10-11T15:24:50Z</time>
      </trkpt>
      <trkpt lat="47.15361" lon="-1.23669">
        <ele>76.5</ele>
        <time>2019-10-11T15:24:51Z</time>
      </trkpt>
      <trkpt lat="47.15365" lon="-1.2367">
        <ele>76.5</ele>
        <time>2019-10-11T15:24:52Z</time>
      </trkpt>
      <trkpt lat="47.1537" lon="-1.23672">
        <ele>76.4</ele>
        <time>2019-10-11T15:24:53Z</time>
      </trkpt>
      <trkpt lat="47.15373" lon="-1.23674">
        <ele>76.4</ele>
        <time>2019-10-11T15:24:54Z</time>
      </trkpt>
      <trkpt lat="47.15377" lon="-1.23676">
        <ele>76.3</ele>
        <time>2019-10-11T15:24:55Z</time>
      </trkpt>
      <trkpt lat="47.15381" lon="-1.23678">
        <ele>76.3</ele>
        <time>2019-10-11T15:24:56Z</time>
      </trkpt>
      <trkpt lat="47.15385" lon="-1.2368">
        <ele>76.2</ele>
        <time>2019-10-11T15:24:57Z</time>
      </trkpt>
      <trkpt lat="47.15389" lon="-1.23682">
        <ele>76.2</ele>
        <time>2019-10-11T15:24:58Z</time>
      </trkpt>
      <trkpt lat="47.15392" lon="-1.23683">
        <ele>76.1</ele>
        <time>2019-10-11T15:24:59Z</time>
      </trkpt>
      <trkpt lat="47.15396" lon="-1.23685">
        <ele>76.1</ele>
        <time>2019-10-11T15:25:00Z</time>
      </trkpt>
      <trkpt lat="47.15399" lon="-1.23687">
        <ele>76</ele>
        <time>2019-10-11T15:25:01Z</time>
      </trkpt>
      <trkpt lat="47.15403" lon="-1.23688">
        <ele>76</ele>
        <time>2019-10-11T15:25:02Z</time>
      </trkpt>
      <trkpt lat="47.15407" lon="-1.2369">
        <ele>75.9</ele>
        <time>2019-10-11T15:25:03Z</time>
      </trkpt>
      <trkpt lat="47.15411" lon="-1.23692">
        <ele>75.9</ele>
        <time>2019-10-11T15:25:04Z</time>
      </trkpt>
      <trkpt lat="47.15415" lon="-1.23694">
        <ele>75.9</ele>
        <time>2019-10-11T15:25:05Z</time>
      </trkpt>
      <trkpt lat="47.15419" lon="-1.23696">
        <ele>75.8</ele>
        <time>2019-10-11T15:25:06Z</time>
      </trkpt>
      <trkpt lat="47.15422" lon="-1.23698">
        <ele>75.8</ele>
        <time>2019-10-11T15:25:07Z</time>
      </trkpt>
      <trkpt lat="47.15426" lon="-1.237">
        <ele>75.8</ele>
        <time>2019-10-11T15:25:08Z</time>
      </trkpt>
      <trkpt lat="47.15429" lon="-1.23702">
        <ele>75.8</ele>
        <time>2019-10-11T15:25:09Z</time>
      </trkpt>
      <trkpt lat="47.15432" lon="-1.23704">
        <ele>75.7</ele>
        <time>2019-10-11T15:25:10Z</time>
      </trkpt>
      <trkpt lat="47.15435" lon="-1.23705">
        <ele>75.7</ele>
        <time>2019-10-11T15:25:11Z</time>
      </trkpt>
      <trkpt lat="47.15437" lon="-1.23707">
        <ele>75.7</ele>
        <time>2019-10-11T15:25:12Z</time>
      </trkpt>
      <trkpt lat="47.15442" lon="-1.2371">
        <ele>75.7</ele>
        <time>2019-10-11T15:25:14Z</time>
      </trkpt>
      <trkpt lat="47.15445" lon="-1.2371">
        <ele>75.7</ele>
        <time>2019-10-11T15:25:16Z</time>
      </trkpt>
      <trkpt lat="47.15448" lon="-1.23711">
        <ele>75.7</ele>
        <time>2019-10-11T15:25:18Z</time>
      </trkpt>
      <trkpt lat="47.1545" lon="-1.23716">
        <ele>75.6</ele>
        <time>2019-10-11T15:25:20Z</time>
      </trkpt>
      <trkpt lat="47.15453" lon="-1.23723">
        <ele>75.6</ele>
        <time>2019-10-11T15:25:22Z</time>
      </trkpt>
      <trkpt lat="47.15455" lon="-1.23728">
        <ele>75.6</ele>
        <time>2019-10-11T15:25:24Z</time>
      </trkpt>
      <trkpt lat="47.15459" lon="-1.23734">
        <ele>75.6</ele>
        <time>2019-10-11T15:25:26Z</time>
      </trkpt>
      <trkpt lat="47.15463" lon="-1.23738">
        <ele>75.6</ele>
        <time>2019-10-11T15:25:28Z</time>
      </trkpt>
      <trkpt lat="47.15465" lon="-1.2374">
        <ele>75.6</ele>
        <time>2019-10-11T15:25:29Z</time>
      </trkpt>
      <trkpt lat="47.15468" lon="-1.23742">
        <ele>75.6</ele>
        <time>2019-10-11T15:25:30Z</time>
      </trkpt>
      <trkpt lat="47.1547" lon="-1.23744">
        <ele>75.6</ele>
        <time>2019-10-11T15:25:31Z</time>
      </trkpt>
      <trkpt lat="47.15473" lon="-1.23746">
        <ele>75.6</ele>
        <time>2019-10-11T15:25:32Z</time>
      </trkpt>
      <trkpt lat="47.15475" lon="-1.23749">
        <ele>75.6</ele>
        <time>2019-10-11T15:25:33Z</time>
      </trkpt>
      <trkpt lat="47.15478" lon="-1.23751">
        <ele>75.6</ele>
        <time>2019-10-11T15:25:34Z</time>
      </trkpt>
      <trkpt lat="47.1548" lon="-1.23753">
        <ele>75.6</ele>
        <time>2019-10-11T15:25:35Z</time>
      </trkpt>
      <trkpt lat="47.15483" lon="-1.23756">
        <ele>75.6</ele>
        <time>2019-10-11T15:25:36Z</time>
      </trkpt>
      <trkpt lat="47.15486" lon="-1.23761">
        <ele>75.7</ele>
        <time>2019-10-11T15:25:38Z</time>
      </trkpt>
      <trkpt lat="47.15488" lon="-1.23765">
        <ele>75.8</ele>
        <time>2019-10-11T15:25:39Z</time>
      </trkpt>
      <trkpt lat="47.15488" lon="-1.23769">
        <ele>75.9</ele>
        <time>2019-10-11T15:25:40Z</time>
      </trkpt>
      <trkpt lat="47.15489" lon="-1.23774">
        <ele>76</ele>
        <time>2019-10-11T15:25:41Z</time>
      </trkpt>
      <trkpt lat="47.15489" lon="-1.2378">
        <ele>76</ele>
        <time>2019-10-11T15:25:42Z</time>
      </trkpt>
      <trkpt lat="47.15489" lon="-1.23785">
        <ele>76.1</ele>
        <time>2019-10-11T15:25:43Z</time>
      </trkpt>
      <trkpt lat="47.1549" lon="-1.23789">
        <ele>76.2</ele>
        <time>2019-10-11T15:25:44Z</time>
      </trkpt>
      <trkpt lat="47.1549" lon="-1.23795">
        <ele>76.3</ele>
        <time>2019-10-11T15:25:45Z</time>
      </trkpt>
      <trkpt lat="47.1549" lon="-1.238">
        <ele>76.3</ele>
        <time>2019-10-11T15:25:46Z</time>
      </trkpt>
      <trkpt lat="47.1549" lon="-1.23805">
        <ele>76.4</ele>
        <time>2019-10-11T15:25:47Z</time>
      </trkpt>
      <trkpt lat="47.15491" lon="-1.2381">
        <ele>76.5</ele>
        <time>2019-10-11T15:25:48Z</time>
      </trkpt>
      <trkpt lat="47.15491" lon="-1.23814">
        <ele>76.5</ele>
        <time>2019-10-11T15:25:49Z</time>
      </trkpt>
      <trkpt lat="47.15491" lon="-1.23819">
        <ele>76.5</ele>
        <time>2019-10-11T15:25:50Z</time>
      </trkpt>
      <trkpt lat="47.1549" lon="-1.23824">
        <ele>76.5</ele>
        <time>2019-10-11T15:25:51Z</time>
      </trkpt>
      <trkpt lat="47.1549" lon="-1.23829">
        <ele>76.5</ele>
        <time>2019-10-11T15:25:52Z</time>
      </trkpt>
      <trkpt lat="47.1549" lon="-1.23834">
        <ele>76.6</ele>
        <time>2019-10-11T15:25:53Z</time>
      </trkpt>
      <trkpt lat="47.1549" lon="-1.23839">
        <ele>76.6</ele>
        <time>2019-10-11T15:25:54Z</time>
      </trkpt>
      <trkpt lat="47.1549" lon="-1.23844">
        <ele>76.6</ele>
        <time>2019-10-11T15:25:55Z</time>
      </trkpt>
      <trkpt lat="47.1549" lon="-1.23849">
        <ele>76.6</ele>
        <time>2019-10-11T15:25:56Z</time>
      </trkpt>
      <trkpt lat="47.15491" lon="-1.23854">
        <ele>76.6</ele>
        <time>2019-10-11T15:25:57Z</time>
      </trkpt>
      <trkpt lat="47.15491" lon="-1.23859">
        <ele>76.6</ele>
        <time>2019-10-11T15:25:58Z</time>
      </trkpt>
      <trkpt lat="47.15491" lon="-1.23864">
        <ele>76.6</ele>
        <time>2019-10-11T15:25:59Z</time>
      </trkpt>
      <trkpt lat="47.15491" lon="-1.23869">
        <ele>76.5</ele>
        <time>2019-10-11T15:26:00Z</time>
      </trkpt>
      <trkpt lat="47.15491" lon="-1.23874">
        <ele>76.5</ele>
        <time>2019-10-11T15:26:01Z</time>
      </trkpt>
      <trkpt lat="47.15491" lon="-1.23879">
        <ele>76.5</ele>
        <time>2019-10-11T15:26:02Z</time>
      </trkpt>
      <trkpt lat="47.15491" lon="-1.23884">
        <ele>76.5</ele>
        <time>2019-10-11T15:26:03Z</time>
      </trkpt>
      <trkpt lat="47.15491" lon="-1.23889">
        <ele>76.4</ele>
        <time>2019-10-11T15:26:04Z</time>
      </trkpt>
      <trkpt lat="47.15491" lon="-1.23894">
        <ele>76.4</ele>
        <time>2019-10-11T15:26:05Z</time>
      </trkpt>
      <trkpt lat="47.15491" lon="-1.23899">
        <ele>76.4</ele>
        <time>2019-10-11T15:26:06Z</time>
      </trkpt>
      <trkpt lat="47.1549" lon="-1.23904">
        <ele>76.3</ele>
        <time>2019-10-11T15:26:07Z</time>
      </trkpt>
      <trkpt lat="47.1549" lon="-1.23909">
        <ele>76.3</ele>
        <time>2019-10-11T15:26:08Z</time>
      </trkpt>
      <trkpt lat="47.1549" lon="-1.23914">
        <ele>76.3</ele>
        <time>2019-10-11T15:26:09Z</time>
      </trkpt>
      <trkpt lat="47.1549" lon="-1.23918">
        <ele>76.2</ele>
        <time>2019-10-11T15:26:10Z</time>
      </trkpt>
      <trkpt lat="47.15489" lon="-1.23923">
        <ele>76.2</ele>
        <time>2019-10-11T15:26:11Z</time>
      </trkpt>
      <trkpt lat="47.15489" lon="-1.23927">
        <ele>76.2</ele>
        <time>2019-10-11T15:26:12Z</time>
      </trkpt>
      <trkpt lat="47.15489" lon="-1.23931">
        <ele>76.2</ele>
        <time>2019-10-11T15:26:13Z</time>
      </trkpt>
      <trkpt lat="47.15489" lon="-1.23936">
        <ele>76.2</ele>
        <time>2019-10-11T15:26:14Z</time>
      </trkpt>
      <trkpt lat="47.15488" lon="-1.2394">
        <ele>76.2</ele>
        <time>2019-10-11T15:26:15Z</time>
      </trkpt>
      <trkpt lat="47.15488" lon="-1.23944">
        <ele>76.2</ele>
        <time>2019-10-11T15:26:16Z</time>
      </trkpt>
      <trkpt lat="47.1549" lon="-1.23951">
        <ele>75.8</ele>
        <time>2019-10-11T15:26:18Z</time>
      </trkpt>
      <trkpt lat="47.15493" lon="-1.23953">
        <ele>75.7</ele>
        <time>2019-10-11T15:26:19Z</time>
      </trkpt>
      <trkpt lat="47.15496" lon="-1.23953">
        <ele>75.7</ele>
        <time>2019-10-11T15:26:20Z</time>
      </trkpt>
      <trkpt lat="47.15499" lon="-1.23951">
        <ele>75.6</ele>
        <time>2019-10-11T15:26:21Z</time>
      </trkpt>
      <trkpt lat="47.15501" lon="-1.23947">
        <ele>75.7</ele>
        <time>2019-10-11T15:26:22Z</time>
      </trkpt>
      <trkpt lat="47.15504" lon="-1.23944">
        <ele>75.7</ele>
        <time>2019-10-11T15:26:23Z</time>
      </trkpt>
      <trkpt lat="47.15507" lon="-1.23941">
        <ele>75.8</ele>
        <time>2019-10-11T15:26:24Z</time>
      </trkpt>
      <trkpt lat="47.15509" lon="-1.23938">
        <ele>75.9</ele>
        <time>2019-10-11T15:26:25Z</time>
      </trkpt>
      <trkpt lat="47.15512" lon="-1.23935">
        <ele>75.9</ele>
        <time>2019-10-11T15:26:26Z</time>
      </trkpt>
      <trkpt lat="47.15515" lon="-1.23932">
        <ele>76</ele>
        <time>2019-10-11T15:26:27Z</time>
      </trkpt>
      <trkpt lat="47.15518" lon="-1.23929">
        <ele>76</ele>
        <time>2019-10-11T15:26:28Z</time>
      </trkpt>
      <trkpt lat="47.15521" lon="-1.23926">
        <ele>76.1</ele>
        <time>2019-10-11T15:26:29Z</time>
      </trkpt>
      <trkpt lat="47.15523" lon="-1.23922">
        <ele>76.1</ele>
        <time>2019-10-11T15:26:30Z</time>
      </trkpt>
      <trkpt lat="47.15526" lon="-1.23919">
        <ele>76.1</ele>
        <time>2019-10-11T15:26:31Z</time>
      </trkpt>
      <trkpt lat="47.15529" lon="-1.23916">
        <ele>76.2</ele>
        <time>2019-10-11T15:26:32Z</time>
      </trkpt>
      <trkpt lat="47.15532" lon="-1.23913">
        <ele>76.2</ele>
        <time>2019-10-11T15:26:33Z</time>
      </trkpt>
      <trkpt lat="47.15534" lon="-1.2391">
        <ele>76.2</ele>
        <time>2019-10-11T15:26:34Z</time>
      </trkpt>
      <trkpt lat="47.15537" lon="-1.23907">
        <ele>76.2</ele>
        <time>2019-10-11T15:26:35Z</time>
      </trkpt>
      <trkpt lat="47.15539" lon="-1.23904">
        <ele>76.1</ele>
        <time>2019-10-11T15:26:36Z</time>
      </trkpt>
      <trkpt lat="47.15542" lon="-1.23902">
        <ele>75.9</ele>
        <time>2019-10-11T15:26:37Z</time>
      </trkpt>
      <trkpt lat="47.15546" lon="-1.23897">
        <ele>75.8</ele>
        <time>2019-10-11T15:26:39Z</time>
      </trkpt>
      <trkpt lat="47.1555" lon="-1.23895">
        <ele>75.7</ele>
        <time>2019-10-11T15:26:41Z</time>
      </trkpt>
      <trkpt lat="47.15554" lon="-1.23899">
        <ele>75.7</ele>
        <time>2019-10-11T15:26:43Z</time>
      </trkpt>
      <trkpt lat="47.15555" lon="-1.23906">
        <ele>75.7</ele>
        <time>2019-10-11T15:26:45Z</time>
      </trkpt>
      <trkpt lat="47.15554" lon="-1.23911">
        <ele>75.6</ele>
        <time>2019-10-11T15:26:46Z</time>
      </trkpt>
      <trkpt lat="47.15554" lon="-1.23917">
        <ele>75.6</ele>
        <time>2019-10-11T15:26:47Z</time>
      </trkpt>
      <trkpt lat="47.15554" lon="-1.23922">
        <ele>75.6</ele>
        <time>2019-10-11T15:26:48Z</time>
      </trkpt>
      <trkpt lat="47.15553" lon="-1.23927">
        <ele>75.6</ele>
        <time>2019-10-11T15:26:49Z</time>
      </trkpt>
      <trkpt lat="47.15553" lon="-1.23933">
        <ele>75.6</ele>
        <time>2019-10-11T15:26:50Z</time>
      </trkpt>
      <trkpt lat="47.15554" lon="-1.23938">
        <ele>75.6</ele>
        <time>2019-10-11T15:26:51Z</time>
      </trkpt>
      <trkpt lat="47.15554" lon="-1.23944">
        <ele>75.6</ele>
        <time>2019-10-11T15:26:52Z</time>
      </trkpt>
      <trkpt lat="47.15555" lon="-1.2395">
        <ele>75.6</ele>
        <time>2019-10-11T15:26:53Z</time>
      </trkpt>
      <trkpt lat="47.15556" lon="-1.23956">
        <ele>75.6</ele>
        <time>2019-10-11T15:26:54Z</time>
      </trkpt>
      <trkpt lat="47.15558" lon="-1.23961">
        <ele>75.6</ele>
        <time>2019-10-11T15:26:55Z</time>
      </trkpt>
      <trkpt lat="47.15559" lon="-1.23966">
        <ele>75.7</ele>
        <time>2019-10-11T15:26:56Z</time>
      </trkpt>
      <trkpt lat="47.15561" lon="-1.23972">
        <ele>75.7</ele>
        <time>2019-10-11T15:26:57Z</time>
      </trkpt>
      <trkpt lat="47.15563" lon="-1.23977">
        <ele>75.7</ele>
        <time>2019-10-11T15:26:58Z</time>
      </trkpt>
      <trkpt lat="47.15565" lon="-1.23982">
        <ele>75.8</ele>
        <time>2019-10-11T15:26:59Z</time>
      </trkpt>
      <trkpt lat="47.15567" lon="-1.23987">
        <ele>75.8</ele>
        <time>2019-10-11T15:27:00Z</time>
      </trkpt>
      <trkpt lat="47.15569" lon="-1.23992">
        <ele>75.9</ele>
        <time>2019-10-11T15:27:01Z</time>
      </trkpt>
      <trkpt lat="47.15572" lon="-1.23997">
        <ele>76</ele>
        <time>2019-10-11T15:27:02Z</time>
      </trkpt>
      <trkpt lat="47.15573" lon="-1.24003">
        <ele>76.1</ele>
        <time>2019-10-11T15:27:03Z</time>
      </trkpt>
      <trkpt lat="47.15575" lon="-1.24007">
        <ele>76.2</ele>
        <time>2019-10-11T15:27:04Z</time>
      </trkpt>
      <trkpt lat="47.15578" lon="-1.24013">
        <ele>76.3</ele>
        <time>2019-10-11T15:27:05Z</time>
      </trkpt>
      <trkpt lat="47.15579" lon="-1.24018">
        <ele>76.3</ele>
        <time>2019-10-11T15:27:06Z</time>
      </trkpt>
      <trkpt lat="47.15581" lon="-1.24023">
        <ele>76.4</ele>
        <time>2019-10-11T15:27:07Z</time>
      </trkpt>
      <trkpt lat="47.15582" lon="-1.24029">
        <ele>76.4</ele>
        <time>2019-10-11T15:27:08Z</time>
      </trkpt>
      <trkpt lat="47.15583" lon="-1.24034">
        <ele>76.4</ele>
        <time>2019-10-11T15:27:09Z</time>
      </trkpt>
      <trkpt lat="47.15584" lon="-1.2404">
        <ele>76.5</ele>
        <time>2019-10-11T15:27:10Z</time>
      </trkpt>
      <trkpt lat="47.15585" lon="-1.24046">
        <ele>76.6</ele>
        <time>2019-10-11T15:27:11Z</time>
      </trkpt>
      <trkpt lat="47.15585" lon="-1.24052">
        <ele>76.6</ele>
        <time>2019-10-11T15:27:12Z</time>
      </trkpt>
      <trkpt lat="47.15586" lon="-1.24058">
        <ele>76.7</ele>
        <time>2019-10-11T15:27:13Z</time>
      </trkpt>
      <trkpt lat="47.15586" lon="-1.24064">
        <ele>76.7</ele>
        <time>2019-10-11T15:27:14Z</time>
      </trkpt>
      <trkpt lat="47.15586" lon="-1.2407">
        <ele>76.8</ele>
        <time>2019-10-11T15:27:15Z</time>
      </trkpt>
      <trkpt lat="47.15586" lon="-1.24076">
        <ele>76.8</ele>
        <time>2019-10-11T15:27:16Z</time>
      </trkpt>
      <trkpt lat="47.15587" lon="-1.24082">
        <ele>76.9</ele>
        <time>2019-10-11T15:27:17Z</time>
      </trkpt>
      <trkpt lat="47.15586" lon="-1.24088">
        <ele>76.9</ele>
        <time>2019-10-11T15:27:18Z</time>
      </trkpt>
      <trkpt lat="47.15586" lon="-1.24094">
        <ele>76.9</ele>
        <time>2019-10-11T15:27:19Z</time>
      </trkpt>
      <trkpt lat="47.15586" lon="-1.24101">
        <ele>76.9</ele>
        <time>2019-10-11T15:27:20Z</time>
      </trkpt>
      <trkpt lat="47.15585" lon="-1.24108">
        <ele>76.9</ele>
        <time>2019-10-11T15:27:21Z</time>
      </trkpt>
      <trkpt lat="47.15585" lon="-1.24115">
        <ele>76.8</ele>
        <time>2019-10-11T15:27:22Z</time>
      </trkpt>
      <trkpt lat="47.15584" lon="-1.24121">
        <ele>76.8</ele>
        <time>2019-10-11T15:27:23Z</time>
      </trkpt>
      <trkpt lat="47.15584" lon="-1.24128">
        <ele>76.7</ele>
        <time>2019-10-11T15:27:24Z</time>
      </trkpt>
      <trkpt lat="47.15583" lon="-1.24134">
        <ele>76.5</ele>
        <time>2019-10-11T15:27:25Z</time>
      </trkpt>
      <trkpt lat="47.15582" lon="-1.24141">
        <ele>76.4</ele>
        <time>2019-10-11T15:27:26Z</time>
      </trkpt>
      <trkpt lat="47.15582" lon="-1.24148">
        <ele>76.3</ele>
        <time>2019-10-11T15:27:27Z</time>
      </trkpt>
      <trkpt lat="47.15581" lon="-1.24155">
        <ele>76.3</ele>
        <time>2019-10-11T15:27:28Z</time>
      </trkpt>
      <trkpt lat="47.1558" lon="-1.24162">
        <ele>76.3</ele>
        <time>2019-10-11T15:27:29Z</time>
      </trkpt>
      <trkpt lat="47.1558" lon="-1.24168">
        <ele>76.2</ele>
        <time>2019-10-11T15:27:30Z</time>
      </trkpt>
      <trkpt lat="47.15579" lon="-1.24174">
        <ele>76.1</ele>
        <time>2019-10-11T15:27:31Z</time>
      </trkpt>
      <trkpt lat="47.15578" lon="-1.2418">
        <ele>76</ele>
        <time>2019-10-11T15:27:32Z</time>
      </trkpt>
      <trkpt lat="47.15577" lon="-1.24186">
        <ele>75.8</ele>
        <time>2019-10-11T15:27:33Z</time>
      </trkpt>
      <trkpt lat="47.15577" lon="-1.2419">
        <ele>75.7</ele>
        <time>2019-10-11T15:27:34Z</time>
      </trkpt>
      <trkpt lat="47.15576" lon="-1.24195">
        <ele>75.4</ele>
        <time>2019-10-11T15:27:35Z</time>
      </trkpt>
      <trkpt lat="47.15576" lon="-1.24201">
        <ele>75.1</ele>
        <time>2019-10-11T15:27:36Z</time>
      </trkpt>
      <trkpt lat="47.15575" lon="-1.24206">
        <ele>74.9</ele>
        <time>2019-10-11T15:27:37Z</time>
      </trkpt>
      <trkpt lat="47.15574" lon="-1.24212">
        <ele>74.8</ele>
        <time>2019-10-11T15:27:38Z</time>
      </trkpt>
      <trkpt lat="47.15573" lon="-1.24218">
        <ele>74.6</ele>
        <time>2019-10-11T15:27:39Z</time>
      </trkpt>
      <trkpt lat="47.15572" lon="-1.24224">
        <ele>74.5</ele>
        <time>2019-10-11T15:27:40Z</time>
      </trkpt>
      <trkpt lat="47.15571" lon="-1.24231">
        <ele>74.5</ele>
        <time>2019-10-11T15:27:41Z</time>
      </trkpt>
      <trkpt lat="47.1557" lon="-1.24237">
        <ele>74.4</ele>
        <time>2019-10-11T15:27:42Z</time>
      </trkpt>
      <trkpt lat="47.1557" lon="-1.24243">
        <ele>74.4</ele>
        <time>2019-10-11T15:27:43Z</time>
      </trkpt>
      <trkpt lat="47.1557" lon="-1.24249">
        <ele>74.2</ele>
        <time>2019-10-11T15:27:44Z</time>
      </trkpt>
      <trkpt lat="47.1557" lon="-1.24255">
        <ele>74</ele>
        <time>2019-10-11T15:27:45Z</time>
      </trkpt>
      <trkpt lat="47.1557" lon="-1.24261">
        <ele>73.8</ele>
        <time>2019-10-11T15:27:46Z</time>
      </trkpt>
      <trkpt lat="47.15571" lon="-1.24268">
        <ele>73.7</ele>
        <time>2019-10-11T15:27:47Z</time>
      </trkpt>
      <trkpt lat="47.15571" lon="-1.24274">
        <ele>73.5</ele>
        <time>2019-10-11T15:27:48Z</time>
      </trkpt>
      <trkpt lat="47.15571" lon="-1.24281">
        <ele>73.4</ele>
        <time>2019-10-11T15:27:49Z</time>
      </trkpt>
      <trkpt lat="47.15571" lon="-1.24287">
        <ele>73.3</ele>
        <time>2019-10-11T15:27:50Z</time>
      </trkpt>
      <trkpt lat="47.15572" lon="-1.24293">
        <ele>73.3</ele>
        <time>2019-10-11T15:27:51Z</time>
      </trkpt>
      <trkpt lat="47.15572" lon="-1.243">
        <ele>73.2</ele>
        <time>2019-10-11T15:27:52Z</time>
      </trkpt>
      <trkpt lat="47.15572" lon="-1.24306">
        <ele>73.2</ele>
        <time>2019-10-11T15:27:53Z</time>
      </trkpt>
      <trkpt lat="47.15572" lon="-1.24313">
        <ele>73</ele>
        <time>2019-10-11T15:27:54Z</time>
      </trkpt>
      <trkpt lat="47.15573" lon="-1.2432">
        <ele>72.7</ele>
        <time>2019-10-11T15:27:55Z</time>
      </trkpt>
      <trkpt lat="47.15573" lon="-1.24327">
        <ele>72.4</ele>
        <time>2019-10-11T15:27:56Z</time>
      </trkpt>
      <trkpt lat="47.15573" lon="-1.24333">
        <ele>72.2</ele>
        <time>2019-10-11T15:27:57Z</time>
      </trkpt>
      <trkpt lat="47.15573" lon="-1.2434">
        <ele>72.1</ele>
        <time>2019-10-11T15:27:58Z</time>
      </trkpt>
      <trkpt lat="47.15574" lon="-1.24347">
        <ele>72.1</ele>
        <time>2019-10-11T15:27:59Z</time>
      </trkpt>
      <trkpt lat="47.15574" lon="-1.24353">
        <ele>72.1</ele>
        <time>2019-10-11T15:28:00Z</time>
      </trkpt>
      <trkpt lat="47.15574" lon="-1.2436">
        <ele>72</ele>
        <time>2019-10-11T15:28:01Z</time>
      </trkpt>
      <trkpt lat="47.15574" lon="-1.24366">
        <ele>71.8</ele>
        <time>2019-10-11T15:28:02Z</time>
      </trkpt>
      <trkpt lat="47.15574" lon="-1.24373">
        <ele>71.6</ele>
        <time>2019-10-11T15:28:03Z</time>
      </trkpt>
      <trkpt lat="47.15575" lon="-1.24379">
        <ele>71.4</ele>
        <time>2019-10-11T15:28:04Z</time>
      </trkpt>
      <trkpt lat="47.15575" lon="-1.24386">
        <ele>71.3</ele>
        <time>2019-10-11T15:28:05Z</time>
      </trkpt>
      <trkpt lat="47.15576" lon="-1.24392">
        <ele>71.2</ele>
        <time>2019-10-11T15:28:06Z</time>
      </trkpt>
      <trkpt lat="47.15576" lon="-1.24398">
        <ele>71.2</ele>
        <time>2019-10-11T15:28:07Z</time>
      </trkpt>
      <trkpt lat="47.15576" lon="-1.24405">
        <ele>71.1</ele>
        <time>2019-10-11T15:28:08Z</time>
      </trkpt>
      <trkpt lat="47.15576" lon="-1.24411">
        <ele>71</ele>
        <time>2019-10-11T15:28:09Z</time>
      </trkpt>
      <trkpt lat="47.15577" lon="-1.24417">
        <ele>70.9</ele>
        <time>2019-10-11T15:28:10Z</time>
      </trkpt>
      <trkpt lat="47.15577" lon="-1.24423">
        <ele>70.6</ele>
        <time>2019-10-11T15:28:11Z</time>
      </trkpt>
      <trkpt lat="47.15577" lon="-1.2443">
        <ele>70.3</ele>
        <time>2019-10-11T15:28:12Z</time>
      </trkpt>
      <trkpt lat="47.15577" lon="-1.24436">
        <ele>70</ele>
        <time>2019-10-11T15:28:13Z</time>
      </trkpt>
      <trkpt lat="47.15577" lon="-1.24443">
        <ele>69.7</ele>
        <time>2019-10-11T15:28:14Z</time>
      </trkpt>
      <trkpt lat="47.15577" lon="-1.24449">
        <ele>69.3</ele>
        <time>2019-10-11T15:28:15Z</time>
      </trkpt>
      <trkpt lat="47.15578" lon="-1.24455">
        <ele>69</ele>
        <time>2019-10-11T15:28:16Z</time>
      </trkpt>
      <trkpt lat="47.15578" lon="-1.24461">
        <ele>68.7</ele>
        <time>2019-10-11T15:28:17Z</time>
      </trkpt>
      <trkpt lat="47.15578" lon="-1.24467">
        <ele>68.4</ele>
        <time>2019-10-11T15:28:18Z</time>
      </trkpt>
      <trkpt lat="47.15579" lon="-1.24474">
        <ele>68.2</ele>
        <time>2019-10-11T15:28:19Z</time>
      </trkpt>
      <trkpt lat="47.15579" lon="-1.2448">
        <ele>67.9</ele>
        <time>2019-10-11T15:28:20Z</time>
      </trkpt>
      <trkpt lat="47.15579" lon="-1.24487">
        <ele>67.5</ele>
        <time>2019-10-11T15:28:21Z</time>
      </trkpt>
      <trkpt lat="47.15579" lon="-1.24494">
        <ele>67.1</ele>
        <time>2019-10-11T15:28:22Z</time>
      </trkpt>
      <trkpt lat="47.15579" lon="-1.24501">
        <ele>66.8</ele>
        <time>2019-10-11T15:28:23Z</time>
      </trkpt>
      <trkpt lat="47.15579" lon="-1.24508">
        <ele>66.6</ele>
        <time>2019-10-11T15:28:24Z</time>
      </trkpt>
      <trkpt lat="47.1558" lon="-1.24515">
        <ele>66.3</ele>
        <time>2019-10-11T15:28:25Z</time>
      </trkpt>
      <trkpt lat="47.1558" lon="-1.24522">
        <ele>66</ele>
        <time>2019-10-11T15:28:26Z</time>
      </trkpt>
      <trkpt lat="47.1558" lon="-1.24529">
        <ele>65.8</ele>
        <time>2019-10-11T15:28:27Z</time>
      </trkpt>
      <trkpt lat="47.1558" lon="-1.24536">
        <ele>65.6</ele>
        <time>2019-10-11T15:28:28Z</time>
      </trkpt>
      <trkpt lat="47.1558" lon="-1.24542">
        <ele>65.4</ele>
        <time>2019-10-11T15:28:29Z</time>
      </trkpt>
      <trkpt lat="47.15581" lon="-1.24549">
        <ele>65.2</ele>
        <time>2019-10-11T15:28:30Z</time>
      </trkpt>
      <trkpt lat="47.15581" lon="-1.24557">
        <ele>65</ele>
        <time>2019-10-11T15:28:31Z</time>
      </trkpt>
      <trkpt lat="47.15581" lon="-1.24564">
        <ele>64.9</ele>
        <time>2019-10-11T15:28:32Z</time>
      </trkpt>
      <trkpt lat="47.15581" lon="-1.24571">
        <ele>64.7</ele>
        <time>2019-10-11T15:28:33Z</time>
      </trkpt>
      <trkpt lat="47.15581" lon="-1.24578">
        <ele>64.5</ele>
        <time>2019-10-11T15:28:34Z</time>
      </trkpt>
      <trkpt lat="47.15581" lon="-1.24585">
        <ele>64.4</ele>
        <time>2019-10-11T15:28:35Z</time>
      </trkpt>
      <trkpt lat="47.15581" lon="-1.24592">
        <ele>64.2</ele>
        <time>2019-10-11T15:28:36Z</time>
      </trkpt>
      <trkpt lat="47.15581" lon="-1.24599">
        <ele>64</ele>
        <time>2019-10-11T15:28:37Z</time>
      </trkpt>
      <trkpt lat="47.15581" lon="-1.24606">
        <ele>63.8</ele>
        <time>2019-10-11T15:28:38Z</time>
      </trkpt>
      <trkpt lat="47.15581" lon="-1.24614">
        <ele>63.5</ele>
        <time>2019-10-11T15:28:39Z</time>
      </trkpt>
      <trkpt lat="47.15581" lon="-1.24621">
        <ele>63.3</ele>
        <time>2019-10-11T15:28:40Z</time>
      </trkpt>
      <trkpt lat="47.15581" lon="-1.24628">
        <ele>63.2</ele>
        <time>2019-10-11T15:28:41Z</time>
      </trkpt>
      <trkpt lat="47.15581" lon="-1.24636">
        <ele>62.9</ele>
        <time>2019-10-11T15:28:42Z</time>
      </trkpt>
      <trkpt lat="47.15582" lon="-1.24644">
        <ele>62.7</ele>
        <time>2019-10-11T15:28:43Z</time>
      </trkpt>
      <trkpt lat="47.15582" lon="-1.24652">
        <ele>62.5</ele>
        <time>2019-10-11T15:28:44Z</time>
      </trkpt>
      <trkpt lat="47.15582" lon="-1.2466">
        <ele>62.4</ele>
        <time>2019-10-11T15:28:45Z</time>
      </trkpt>
      <trkpt lat="47.15582" lon="-1.24668">
        <ele>62.2</ele>
        <time>2019-10-11T15:28:46Z</time>
      </trkpt>
      <trkpt lat="47.15582" lon="-1.24675">
        <ele>62</ele>
        <time>2019-10-11T15:28:47Z</time>
      </trkpt>
      <trkpt lat="47.15582" lon="-1.24683">
        <ele>61.9</ele>
        <time>2019-10-11T15:28:48Z</time>
      </trkpt>
      <trkpt lat="47.15583" lon="-1.2469">
        <ele>61.7</ele>
        <time>2019-10-11T15:28:49Z</time>
      </trkpt>
      <trkpt lat="47.15583" lon="-1.24698">
        <ele>61.4</ele>
        <time>2019-10-11T15:28:50Z</time>
      </trkpt>
      <trkpt lat="47.15583" lon="-1.24705">
        <ele>61.3</ele>
        <time>2019-10-11T15:28:51Z</time>
      </trkpt>
      <trkpt lat="47.15583" lon="-1.24713">
        <ele>61.1</ele>
        <time>2019-10-11T15:28:52Z</time>
      </trkpt>
      <trkpt lat="47.15583" lon="-1.2472">
        <ele>60.9</ele>
        <time>2019-10-11T15:28:53Z</time>
      </trkpt>
      <trkpt lat="47.15583" lon="-1.24727">
        <ele>60.7</ele>
        <time>2019-10-11T15:28:54Z</time>
      </trkpt>
      <trkpt lat="47.15583" lon="-1.24734">
        <ele>60.6</ele>
        <time>2019-10-11T15:28:55Z</time>
      </trkpt>
      <trkpt lat="47.15583" lon="-1.24741">
        <ele>60.4</ele>
        <time>2019-10-11T15:28:56Z</time>
      </trkpt>
      <trkpt lat="47.15583" lon="-1.24748">
        <ele>60.2</ele>
        <time>2019-10-11T15:28:57Z</time>
      </trkpt>
      <trkpt lat="47.15583" lon="-1.24755">
        <ele>60.1</ele>
        <time>2019-10-11T15:28:58Z</time>
      </trkpt>
      <trkpt lat="47.15583" lon="-1.24762">
        <ele>59.9</ele>
        <time>2019-10-11T15:28:59Z</time>
      </trkpt>
      <trkpt lat="47.15583" lon="-1.24769">
        <ele>59.8</ele>
        <time>2019-10-11T15:29:00Z</time>
      </trkpt>
      <trkpt lat="47.15583" lon="-1.24776">
        <ele>59.6</ele>
        <time>2019-10-11T15:29:01Z</time>
      </trkpt>
      <trkpt lat="47.15583" lon="-1.24783">
        <ele>59.4</ele>
        <time>2019-10-11T15:29:02Z</time>
      </trkpt>
      <trkpt lat="47.15583" lon="-1.2479">
        <ele>59.2</ele>
        <time>2019-10-11T15:29:03Z</time>
      </trkpt>
      <trkpt lat="47.15584" lon="-1.24797">
        <ele>59.1</ele>
        <time>2019-10-11T15:29:04Z</time>
      </trkpt>
      <trkpt lat="47.15584" lon="-1.24804">
        <ele>58.9</ele>
        <time>2019-10-11T15:29:05Z</time>
      </trkpt>
      <trkpt lat="47.15584" lon="-1.24811">
        <ele>58.8</ele>
        <time>2019-10-11T15:29:06Z</time>
      </trkpt>
      <trkpt lat="47.15584" lon="-1.24818">
        <ele>58.6</ele>
        <time>2019-10-11T15:29:07Z</time>
      </trkpt>
      <trkpt lat="47.15585" lon="-1.24826">
        <ele>58.5</ele>
        <time>2019-10-11T15:29:08Z</time>
      </trkpt>
      <trkpt lat="47.15585" lon="-1.24833">
        <ele>58.4</ele>
        <time>2019-10-11T15:29:09Z</time>
      </trkpt>
      <trkpt lat="47.15585" lon="-1.24839">
        <ele>58.3</ele>
        <time>2019-10-11T15:29:10Z</time>
      </trkpt>
      <trkpt lat="47.15585" lon="-1.24846">
        <ele>58.2</ele>
        <time>2019-10-11T15:29:11Z</time>
      </trkpt>
      <trkpt lat="47.15585" lon="-1.24853">
        <ele>58.1</ele>
        <time>2019-10-11T15:29:12Z</time>
      </trkpt>
      <trkpt lat="47.15584" lon="-1.2486">
        <ele>58</ele>
        <time>2019-10-11T15:29:13Z</time>
      </trkpt>
      <trkpt lat="47.15584" lon="-1.24867">
        <ele>57.9</ele>
        <time>2019-10-11T15:29:14Z</time>
      </trkpt>
      <trkpt lat="47.15584" lon="-1.24874">
        <ele>57.8</ele>
        <time>2019-10-11T15:29:15Z</time>
      </trkpt>
      <trkpt lat="47.15583" lon="-1.24881">
        <ele>57.7</ele>
        <time>2019-10-11T15:29:16Z</time>
      </trkpt>
      <trkpt lat="47.15583" lon="-1.24887">
        <ele>57.6</ele>
        <time>2019-10-11T15:29:17Z</time>
      </trkpt>
      <trkpt lat="47.15583" lon="-1.24894">
        <ele>57.5</ele>
        <time>2019-10-11T15:29:18Z</time>
      </trkpt>
      <trkpt lat="47.15583" lon="-1.24901">
        <ele>57.4</ele>
        <time>2019-10-11T15:29:19Z</time>
      </trkpt>
      <trkpt lat="47.15583" lon="-1.24908">
        <ele>57.2</ele>
        <time>2019-10-11T15:29:20Z</time>
      </trkpt>
      <trkpt lat="47.15583" lon="-1.24915">
        <ele>57</ele>
        <time>2019-10-11T15:29:21Z</time>
      </trkpt>
      <trkpt lat="47.15583" lon="-1.24922">
        <ele>56.7</ele>
        <time>2019-10-11T15:29:22Z</time>
      </trkpt>
      <trkpt lat="47.15583" lon="-1.24929">
        <ele>56.5</ele>
        <time>2019-10-11T15:29:23Z</time>
      </trkpt>
      <trkpt lat="47.15583" lon="-1.24936">
        <ele>56.2</ele>
        <time>2019-10-11T15:29:24Z</time>
      </trkpt>
      <trkpt lat="47.15583" lon="-1.24942">
        <ele>56</ele>
        <time>2019-10-11T15:29:25Z</time>
      </trkpt>
      <trkpt lat="47.15584" lon="-1.24949">
        <ele>55.8</ele>
        <time>2019-10-11T15:29:26Z</time>
      </trkpt>
      <trkpt lat="47.15584" lon="-1.24956">
        <ele>55.5</ele>
        <time>2019-10-11T15:29:27Z</time>
      </trkpt>
      <trkpt lat="47.15584" lon="-1.24962">
        <ele>55.2</ele>
        <time>2019-10-11T15:29:28Z</time>
      </trkpt>
      <trkpt lat="47.15585" lon="-1.24969">
        <ele>55</ele>
        <time>2019-10-11T15:29:29Z</time>
      </trkpt>
      <trkpt lat="47.15585" lon="-1.24976">
        <ele>54.6</ele>
        <time>2019-10-11T15:29:30Z</time>
      </trkpt>
      <trkpt lat="47.15586" lon="-1.24982">
        <ele>54.4</ele>
        <time>2019-10-11T15:29:31Z</time>
      </trkpt>
      <trkpt lat="47.15588" lon="-1.24988">
        <ele>54</ele>
        <time>2019-10-11T15:29:32Z</time>
      </trkpt>
      <trkpt lat="47.15591" lon="-1.24994">
        <ele>53.8</ele>
        <time>2019-10-11T15:29:33Z</time>
      </trkpt>
      <trkpt lat="47.15595" lon="-1.24999">
        <ele>53.6</ele>
        <time>2019-10-11T15:29:34Z</time>
      </trkpt>
      <trkpt lat="47.156" lon="-1.25005">
        <ele>53.2</ele>
        <time>2019-10-11T15:29:35Z</time>
      </trkpt>
      <trkpt lat="47.15605" lon="-1.25009">
        <ele>53</ele>
        <time>2019-10-11T15:29:36Z</time>
      </trkpt>
      <trkpt lat="47.1561" lon="-1.25014">
        <ele>52.8</ele>
        <time>2019-10-11T15:29:37Z</time>
      </trkpt>
      <trkpt lat="47.15615" lon="-1.2502">
        <ele>52.5</ele>
        <time>2019-10-11T15:29:38Z</time>
      </trkpt>
      <trkpt lat="47.15619" lon="-1.25026">
        <ele>52</ele>
        <time>2019-10-11T15:29:39Z</time>
      </trkpt>
      <trkpt lat="47.15624" lon="-1.25033">
        <ele>51.7</ele>
        <time>2019-10-11T15:29:40Z</time>
      </trkpt>
      <trkpt lat="47.15628" lon="-1.25039">
        <ele>51.1</ele>
        <time>2019-10-11T15:29:41Z</time>
      </trkpt>
      <trkpt lat="47.15633" lon="-1.25045">
        <ele>50.7</ele>
        <time>2019-10-11T15:29:42Z</time>
      </trkpt>
      <trkpt lat="47.15638" lon="-1.25052">
        <ele>50.1</ele>
        <time>2019-10-11T15:29:43Z</time>
      </trkpt>
      <trkpt lat="47.15644" lon="-1.25058">
        <ele>49.6</ele>
        <time>2019-10-11T15:29:44Z</time>
      </trkpt>
      <trkpt lat="47.15649" lon="-1.25064">
        <ele>49.1</ele>
        <time>2019-10-11T15:29:45Z</time>
      </trkpt>
      <trkpt lat="47.15654" lon="-1.25069">
        <ele>48.6</ele>
        <time>2019-10-11T15:29:46Z</time>
      </trkpt>
      <trkpt lat="47.15659" lon="-1.25073">
        <ele>48.2</ele>
        <time>2019-10-11T15:29:47Z</time>
      </trkpt>
      <trkpt lat="47.15663" lon="-1.25077">
        <ele>47.9</ele>
        <time>2019-10-11T15:29:48Z</time>
      </trkpt>
      <trkpt lat="47.15666" lon="-1.2508">
        <ele>47.8</ele>
        <time>2019-10-11T15:29:49Z</time>
      </trkpt>
      <trkpt lat="47.15669" lon="-1.25082">
        <ele>47.6</ele>
        <time>2019-10-11T15:29:50Z</time>
      </trkpt>
      <trkpt lat="47.15671" lon="-1.25088">
        <ele>47.3</ele>
        <time>2019-10-11T15:29:52Z</time>
      </trkpt>
      <trkpt lat="47.1567" lon="-1.25093">
        <ele>47.1</ele>
        <time>2019-10-11T15:29:53Z</time>
      </trkpt>
      <trkpt lat="47.15667" lon="-1.25097">
        <ele>47.1</ele>
        <time>2019-10-11T15:29:54Z</time>
      </trkpt>
      <trkpt lat="47.15664" lon="-1.25102">
        <ele>47</ele>
        <time>2019-10-11T15:29:55Z</time>
      </trkpt>
      <trkpt lat="47.1566" lon="-1.25107">
        <ele>46.9</ele>
        <time>2019-10-11T15:29:56Z</time>
      </trkpt>
      <trkpt lat="47.15656" lon="-1.25113">
        <ele>46.8</ele>
        <time>2019-10-11T15:29:57Z</time>
      </trkpt>
      <trkpt lat="47.15651" lon="-1.2512">
        <ele>46.8</ele>
        <time>2019-10-11T15:29:58Z</time>
      </trkpt>
      <trkpt lat="47.15645" lon="-1.25127">
        <ele>46.6</ele>
        <time>2019-10-11T15:29:59Z</time>
      </trkpt>
      <trkpt lat="47.1564" lon="-1.25135">
        <ele>46.5</ele>
        <time>2019-10-11T15:30:00Z</time>
      </trkpt>
      <trkpt lat="47.15634" lon="-1.25144">
        <ele>46.5</ele>
        <time>2019-10-11T15:30:01Z</time>
      </trkpt>
      <trkpt lat="47.15629" lon="-1.25154">
        <ele>46.5</ele>
        <time>2019-10-11T15:30:02Z</time>
      </trkpt>
      <trkpt lat="47.15624" lon="-1.25164">
        <ele>46.6</ele>
        <time>2019-10-11T15:30:03Z</time>
      </trkpt>
      <trkpt lat="47.15619" lon="-1.25173">
        <ele>46.6</ele>
        <time>2019-10-11T15:30:04Z</time>
      </trkpt>
      <trkpt lat="47.15615" lon="-1.25181">
        <ele>46.7</ele>
        <time>2019-10-11T15:30:05Z</time>
      </trkpt>
      <trkpt lat="47.1561" lon="-1.25188">
        <ele>46.7</ele>
        <time>2019-10-11T15:30:06Z</time>
      </trkpt>
      <trkpt lat="47.15606" lon="-1.25194">
        <ele>47.2</ele>
        <time>2019-10-11T15:30:07Z</time>
      </trkpt>
      <trkpt lat="47.15602" lon="-1.25199">
        <ele>47.5</ele>
        <time>2019-10-11T15:30:08Z</time>
      </trkpt>
      <trkpt lat="47.15598" lon="-1.25203">
        <ele>47.8</ele>
        <time>2019-10-11T15:30:09Z</time>
      </trkpt>
      <trkpt lat="47.15594" lon="-1.25207">
        <ele>48.1</ele>
        <time>2019-10-11T15:30:10Z</time>
      </trkpt>
      <trkpt lat="47.1559" lon="-1.25212">
        <ele>48.4</ele>
        <time>2019-10-11T15:30:11Z</time>
      </trkpt>
      <trkpt lat="47.15587" lon="-1.25216">
        <ele>48.6</ele>
        <time>2019-10-11T15:30:12Z</time>
      </trkpt>
      <trkpt lat="47.15583" lon="-1.2522">
        <ele>48.8</ele>
        <time>2019-10-11T15:30:13Z</time>
      </trkpt>
      <trkpt lat="47.1558" lon="-1.25224">
        <ele>49</ele>
        <time>2019-10-11T15:30:14Z</time>
      </trkpt>
      <trkpt lat="47.15577" lon="-1.25228">
        <ele>49.1</ele>
        <time>2019-10-11T15:30:15Z</time>
      </trkpt>
      <trkpt lat="47.15574" lon="-1.25231">
        <ele>49.3</ele>
        <time>2019-10-11T15:30:16Z</time>
      </trkpt>
      <trkpt lat="47.15572" lon="-1.25235">
        <ele>49.4</ele>
        <time>2019-10-11T15:30:17Z</time>
      </trkpt>
      <trkpt lat="47.1557" lon="-1.2524">
        <ele>49.6</ele>
        <time>2019-10-11T15:30:18Z</time>
      </trkpt>
      <trkpt lat="47.15569" lon="-1.25245">
        <ele>49.7</ele>
        <time>2019-10-11T15:30:19Z</time>
      </trkpt>
      <trkpt lat="47.15569" lon="-1.25249">
        <ele>49.8</ele>
        <time>2019-10-11T15:30:20Z</time>
      </trkpt>
      <trkpt lat="47.15569" lon="-1.25254">
        <ele>49.9</ele>
        <time>2019-10-11T15:30:21Z</time>
      </trkpt>
      <trkpt lat="47.15569" lon="-1.25258">
        <ele>50</ele>
        <time>2019-10-11T15:30:22Z</time>
      </trkpt>
      <trkpt lat="47.15568" lon="-1.25263">
        <ele>50.1</ele>
        <time>2019-10-11T15:30:23Z</time>
      </trkpt>
      <trkpt lat="47.15568" lon="-1.25268">
        <ele>50.2</ele>
        <time>2019-10-11T15:30:24Z</time>
      </trkpt>
      <trkpt lat="47.15568" lon="-1.25272">
        <ele>50.4</ele>
        <time>2019-10-11T15:30:25Z</time>
      </trkpt>
      <trkpt lat="47.15568" lon="-1.25277">
        <ele>50.5</ele>
        <time>2019-10-11T15:30:26Z</time>
      </trkpt>
      <trkpt lat="47.15567" lon="-1.25282">
        <ele>50.6</ele>
        <time>2019-10-11T15:30:27Z</time>
      </trkpt>
      <trkpt lat="47.15567" lon="-1.25287">
        <ele>50.8</ele>
        <time>2019-10-11T15:30:28Z</time>
      </trkpt>
      <trkpt lat="47.15567" lon="-1.25292">
        <ele>50.9</ele>
        <time>2019-10-11T15:30:29Z</time>
      </trkpt>
      <trkpt lat="47.15567" lon="-1.25296">
        <ele>51.1</ele>
        <time>2019-10-11T15:30:30Z</time>
      </trkpt>
      <trkpt lat="47.15567" lon="-1.25301">
        <ele>51.2</ele>
        <time>2019-10-11T15:30:31Z</time>
      </trkpt>
      <trkpt lat="47.15566" lon="-1.25305">
        <ele>51.4</ele>
        <time>2019-10-11T15:30:32Z</time>
      </trkpt>
      <trkpt lat="47.15566" lon="-1.2531">
        <ele>51.5</ele>
        <time>2019-10-11T15:30:33Z</time>
      </trkpt>
      <trkpt lat="47.15566" lon="-1.25314">
        <ele>51.7</ele>
        <time>2019-10-11T15:30:34Z</time>
      </trkpt>
      <trkpt lat="47.15566" lon="-1.25318">
        <ele>51.8</ele>
        <time>2019-10-11T15:30:35Z</time>
      </trkpt>
      <trkpt lat="47.15565" lon="-1.25322">
        <ele>51.9</ele>
        <time>2019-10-11T15:30:36Z</time>
      </trkpt>
      <trkpt lat="47.15565" lon="-1.2533">
        <ele>52.1</ele>
        <time>2019-10-11T15:30:38Z</time>
      </trkpt>
      <trkpt lat="47.15565" lon="-1.25336">
        <ele>52.3</ele>
        <time>2019-10-11T15:30:40Z</time>
      </trkpt>
      <trkpt lat="47.15565" lon="-1.25344">
        <ele>52.5</ele>
        <time>2019-10-11T15:30:42Z</time>
      </trkpt>
      <trkpt lat="47.15564" lon="-1.25351">
        <ele>52.7</ele>
        <time>2019-10-11T15:30:44Z</time>
      </trkpt>
      <trkpt lat="47.15564" lon="-1.25357">
        <ele>52.9</ele>
        <time>2019-10-11T15:30:46Z</time>
      </trkpt>
      <trkpt lat="47.15564" lon="-1.25364">
        <ele>53</ele>
        <time>2019-10-11T15:30:48Z</time>
      </trkpt>
      <trkpt lat="47.15564" lon="-1.2537">
        <ele>53.1</ele>
        <time>2019-10-11T15:30:50Z</time>
      </trkpt>
      <trkpt lat="47.15564" lon="-1.25376">
        <ele>53.2</ele>
        <time>2019-10-11T15:30:52Z</time>
      </trkpt>
      <trkpt lat="47.15564" lon="-1.25381">
        <ele>53.3</ele>
        <time>2019-10-11T15:30:54Z</time>
      </trkpt>
      <trkpt lat="47.15563" lon="-1.25388">
        <ele>53.4</ele>
        <time>2019-10-11T15:30:56Z</time>
      </trkpt>
      <trkpt lat="47.15563" lon="-1.25394">
        <ele>53.5</ele>
        <time>2019-10-11T15:30:58Z</time>
      </trkpt>
      <trkpt lat="47.15563" lon="-1.254">
        <ele>53.5</ele>
        <time>2019-10-11T15:31:00Z</time>
      </trkpt>
      <trkpt lat="47.15563" lon="-1.25405">
        <ele>53.6</ele>
        <time>2019-10-11T15:31:02Z</time>
      </trkpt>
      <trkpt lat="47.15562" lon="-1.25411">
        <ele>53.6</ele>
        <time>2019-10-11T15:31:04Z</time>
      </trkpt>
      <trkpt lat="47.15562" lon="-1.25417">
        <ele>53.6</ele>
        <time>2019-10-11T15:31:06Z</time>
      </trkpt>
      <trkpt lat="47.15562" lon="-1.25423">
        <ele>53.6</ele>
        <time>2019-10-11T15:31:08Z</time>
      </trkpt>
      <trkpt lat="47.15562" lon="-1.25429">
        <ele>53.6</ele>
        <time>2019-10-11T15:31:10Z</time>
      </trkpt>
      <trkpt lat="47.15561" lon="-1.25435">
        <ele>53.6</ele>
        <time>2019-10-11T15:31:12Z</time>
      </trkpt>
      <trkpt lat="47.15561" lon="-1.25442">
        <ele>53.6</ele>
        <time>2019-10-11T15:31:14Z</time>
      </trkpt>
      <trkpt lat="47.1556" lon="-1.25448">
        <ele>53.7</ele>
        <time>2019-10-11T15:31:16Z</time>
      </trkpt>
      <trkpt lat="47.1556" lon="-1.25455">
        <ele>53.7</ele>
        <time>2019-10-11T15:31:18Z</time>
      </trkpt>
      <trkpt lat="47.1556" lon="-1.25461">
        <ele>53.7</ele>
        <time>2019-10-11T15:31:20Z</time>
      </trkpt>
      <trkpt lat="47.1556" lon="-1.25468">
        <ele>53.7</ele>
        <time>2019-10-11T15:31:22Z</time>
      </trkpt>
      <trkpt lat="47.1556" lon="-1.25476">
        <ele>53.7</ele>
        <time>2019-10-11T15:31:24Z</time>
      </trkpt>
      <trkpt lat="47.1556" lon="-1.25483">
        <ele>53.7</ele>
        <time>2019-10-11T15:31:26Z</time>
      </trkpt>
      <trkpt lat="47.15559" lon="-1.2549">
        <ele>53.7</ele>
        <time>2019-10-11T15:31:28Z</time>
      </trkpt>
      <trkpt lat="47.15559" lon="-1.25497">
        <ele>53.6</ele>
        <time>2019-10-11T15:31:30Z</time>
      </trkpt>
      <trkpt lat="47.15558" lon="-1.25503">
        <ele>53.5</ele>
        <time>2019-10-11T15:31:32Z</time>
      </trkpt>
      <trkpt lat="47.15558" lon="-1.2551">
        <ele>53.4</ele>
        <time>2019-10-11T15:31:34Z</time>
      </trkpt>
      <trkpt lat="47.15558" lon="-1.25517">
        <ele>53.2</ele>
        <time>2019-10-11T15:31:36Z</time>
      </trkpt>
      <trkpt lat="47.15558" lon="-1.25524">
        <ele>53.1</ele>
        <time>2019-10-11T15:31:38Z</time>
      </trkpt>
      <trkpt lat="47.15558" lon="-1.25531">
        <ele>53</ele>
        <time>2019-10-11T15:31:40Z</time>
      </trkpt>
      <trkpt lat="47.15558" lon="-1.25539">
        <ele>52.9</ele>
        <time>2019-10-11T15:31:42Z</time>
      </trkpt>
      <trkpt lat="47.15558" lon="-1.25543">
        <ele>52.9</ele>
        <time>2019-10-11T15:31:43Z</time>
      </trkpt>
      <trkpt lat="47.15558" lon="-1.25547">
        <ele>52.9</ele>
        <time>2019-10-11T15:31:44Z</time>
      </trkpt>
      <trkpt lat="47.15557" lon="-1.25555">
        <ele>52.9</ele>
        <time>2019-10-11T15:31:46Z</time>
      </trkpt>
      <trkpt lat="47.15556" lon="-1.25562">
        <ele>52.9</ele>
        <time>2019-10-11T15:31:48Z</time>
      </trkpt>
      <trkpt lat="47.15556" lon="-1.25566">
        <ele>52.9</ele>
        <time>2019-10-11T15:31:49Z</time>
      </trkpt>
      <trkpt lat="47.15556" lon="-1.25571">
        <ele>52.9</ele>
        <time>2019-10-11T15:31:50Z</time>
      </trkpt>
      <trkpt lat="47.15556" lon="-1.25575">
        <ele>52.9</ele>
        <time>2019-10-11T15:31:51Z</time>
      </trkpt>
      <trkpt lat="47.15556" lon="-1.25579">
        <ele>52.9</ele>
        <time>2019-10-11T15:31:52Z</time>
      </trkpt>
      <trkpt lat="47.15555" lon="-1.25584">
        <ele>52.9</ele>
        <time>2019-10-11T15:31:53Z</time>
      </trkpt>
      <trkpt lat="47.15555" lon="-1.25588">
        <ele>52.7</ele>
        <time>2019-10-11T15:31:54Z</time>
      </trkpt>
      <trkpt lat="47.15554" lon="-1.25593">
        <ele>52.5</ele>
        <time>2019-10-11T15:31:55Z</time>
      </trkpt>
      <trkpt lat="47.15554" lon="-1.25598">
        <ele>52.4</ele>
        <time>2019-10-11T15:31:56Z</time>
      </trkpt>
      <trkpt lat="47.15553" lon="-1.25603">
        <ele>52.2</ele>
        <time>2019-10-11T15:31:57Z</time>
      </trkpt>
      <trkpt lat="47.15553" lon="-1.25608">
        <ele>52.1</ele>
        <time>2019-10-11T15:31:58Z</time>
      </trkpt>
      <trkpt lat="47.15553" lon="-1.25613">
        <ele>52</ele>
        <time>2019-10-11T15:32:00Z</time>
      </trkpt>
      <trkpt lat="47.15552" lon="-1.25618">
        <ele>51.9</ele>
        <time>2019-10-11T15:32:05Z</time>
      </trkpt>
      <trkpt lat="47.15551" lon="-1.25623">
        <ele>51.8</ele>
        <time>2019-10-11T15:32:07Z</time>
      </trkpt>
      <trkpt lat="47.15551" lon="-1.2563">
        <ele>51.6</ele>
        <time>2019-10-11T15:32:09Z</time>
      </trkpt>
      <trkpt lat="47.15551" lon="-1.25637">
        <ele>51.5</ele>
        <time>2019-10-11T15:32:11Z</time>
      </trkpt>
      <trkpt lat="47.1555" lon="-1.25641">
        <ele>51.4</ele>
        <time>2019-10-11T15:32:12Z</time>
      </trkpt>
      <trkpt lat="47.1555" lon="-1.25646">
        <ele>51.3</ele>
        <time>2019-10-11T15:32:13Z</time>
      </trkpt>
      <trkpt lat="47.1555" lon="-1.2565">
        <ele>51.2</ele>
        <time>2019-10-11T15:32:14Z</time>
      </trkpt>
      <trkpt lat="47.1555" lon="-1.25655">
        <ele>51.1</ele>
        <time>2019-10-11T15:32:15Z</time>
      </trkpt>
      <trkpt lat="47.15549" lon="-1.25661">
        <ele>51</ele>
        <time>2019-10-11T15:32:16Z</time>
      </trkpt>
      <trkpt lat="47.15549" lon="-1.25667">
        <ele>50.9</ele>
        <time>2019-10-11T15:32:17Z</time>
      </trkpt>
      <trkpt lat="47.15548" lon="-1.25672">
        <ele>50.8</ele>
        <time>2019-10-11T15:32:18Z</time>
      </trkpt>
      <trkpt lat="47.15548" lon="-1.25678">
        <ele>50.7</ele>
        <time>2019-10-11T15:32:19Z</time>
      </trkpt>
      <trkpt lat="47.15547" lon="-1.25684">
        <ele>50.6</ele>
        <time>2019-10-11T15:32:20Z</time>
      </trkpt>
      <trkpt lat="47.15547" lon="-1.2569">
        <ele>50.5</ele>
        <time>2019-10-11T15:32:21Z</time>
      </trkpt>
      <trkpt lat="47.15546" lon="-1.25696">
        <ele>50.4</ele>
        <time>2019-10-11T15:32:22Z</time>
      </trkpt>
      <trkpt lat="47.15546" lon="-1.25701">
        <ele>50.3</ele>
        <time>2019-10-11T15:32:23Z</time>
      </trkpt>
      <trkpt lat="47.15545" lon="-1.25707">
        <ele>50.2</ele>
        <time>2019-10-11T15:32:24Z</time>
      </trkpt>
      <trkpt lat="47.15545" lon="-1.25711">
        <ele>50.1</ele>
        <time>2019-10-11T15:32:25Z</time>
      </trkpt>
      <trkpt lat="47.15544" lon="-1.25716">
        <ele>50</ele>
        <time>2019-10-11T15:32:26Z</time>
      </trkpt>
      <trkpt lat="47.15544" lon="-1.25721">
        <ele>49.9</ele>
        <time>2019-10-11T15:32:27Z</time>
      </trkpt>
      <trkpt lat="47.15543" lon="-1.25726">
        <ele>49.8</ele>
        <time>2019-10-11T15:32:28Z</time>
      </trkpt>
      <trkpt lat="47.15543" lon="-1.25731">
        <ele>49.7</ele>
        <time>2019-10-11T15:32:29Z</time>
      </trkpt>
      <trkpt lat="47.15542" lon="-1.25735">
        <ele>49.6</ele>
        <time>2019-10-11T15:32:30Z</time>
      </trkpt>
      <trkpt lat="47.15542" lon="-1.2574">
        <ele>49.6</ele>
        <time>2019-10-11T15:32:31Z</time>
      </trkpt>
      <trkpt lat="47.15541" lon="-1.25744">
        <ele>49.5</ele>
        <time>2019-10-11T15:32:32Z</time>
      </trkpt>
      <trkpt lat="47.15541" lon="-1.2575">
        <ele>49.3</ele>
        <time>2019-10-11T15:32:33Z</time>
      </trkpt>
      <trkpt lat="47.15541" lon="-1.25755">
        <ele>49.2</ele>
        <time>2019-10-11T15:32:34Z</time>
      </trkpt>
      <trkpt lat="47.1554" lon="-1.2576">
        <ele>49.1</ele>
        <time>2019-10-11T15:32:35Z</time>
      </trkpt>
      <trkpt lat="47.15539" lon="-1.25765">
        <ele>49</ele>
        <time>2019-10-11T15:32:36Z</time>
      </trkpt>
      <trkpt lat="47.15539" lon="-1.25771">
        <ele>48.9</ele>
        <time>2019-10-11T15:32:37Z</time>
      </trkpt>
      <trkpt lat="47.15538" lon="-1.25776">
        <ele>48.8</ele>
        <time>2019-10-11T15:32:38Z</time>
      </trkpt>
      <trkpt lat="47.15537" lon="-1.25782">
        <ele>48.6</ele>
        <time>2019-10-11T15:32:39Z</time>
      </trkpt>
      <trkpt lat="47.15537" lon="-1.25787">
        <ele>48.5</ele>
        <time>2019-10-11T15:32:40Z</time>
      </trkpt>
      <trkpt lat="47.15537" lon="-1.25793">
        <ele>48.4</ele>
        <time>2019-10-11T15:32:41Z</time>
      </trkpt>
      <trkpt lat="47.15537" lon="-1.25798">
        <ele>48.3</ele>
        <time>2019-10-11T15:32:42Z</time>
      </trkpt>
      <trkpt lat="47.15537" lon="-1.25804">
        <ele>48.2</ele>
        <time>2019-10-11T15:32:43Z</time>
      </trkpt>
      <trkpt lat="47.15538" lon="-1.2581">
        <ele>48</ele>
        <time>2019-10-11T15:32:44Z</time>
      </trkpt>
      <trkpt lat="47.15539" lon="-1.25817">
        <ele>47.9</ele>
        <time>2019-10-11T15:32:45Z</time>
      </trkpt>
      <trkpt lat="47.1554" lon="-1.25823">
        <ele>47.8</ele>
        <time>2019-10-11T15:32:46Z</time>
      </trkpt>
      <trkpt lat="47.15541" lon="-1.2583">
        <ele>47.7</ele>
        <time>2019-10-11T15:32:47Z</time>
      </trkpt>
      <trkpt lat="47.15543" lon="-1.25836">
        <ele>47.6</ele>
        <time>2019-10-11T15:32:48Z</time>
      </trkpt>
      <trkpt lat="47.15544" lon="-1.25843">
        <ele>47.6</ele>
        <time>2019-10-11T15:32:49Z</time>
      </trkpt>
      <trkpt lat="47.15545" lon="-1.25848">
        <ele>47.6</ele>
        <time>2019-10-11T15:32:50Z</time>
      </trkpt>
      <trkpt lat="47.15546" lon="-1.25853">
        <ele>47.5</ele>
        <time>2019-10-11T15:32:51Z</time>
      </trkpt>
      <trkpt lat="47.15548" lon="-1.25858">
        <ele>47.5</ele>
        <time>2019-10-11T15:32:52Z</time>
      </trkpt>
      <trkpt lat="47.1555" lon="-1.25863">
        <ele>47.2</ele>
        <time>2019-10-11T15:32:53Z</time>
      </trkpt>
      <trkpt lat="47.15553" lon="-1.25867">
        <ele>47</ele>
        <time>2019-10-11T15:32:54Z</time>
      </trkpt>
      <trkpt lat="47.15556" lon="-1.25872">
        <ele>46.8</ele>
        <time>2019-10-11T15:32:55Z</time>
      </trkpt>
      <trkpt lat="47.1556" lon="-1.25876">
        <ele>46.5</ele>
        <time>2019-10-11T15:32:56Z</time>
      </trkpt>
      <trkpt lat="47.15565" lon="-1.2588">
        <ele>46.2</ele>
        <time>2019-10-11T15:32:57Z</time>
      </trkpt>
      <trkpt lat="47.15569" lon="-1.25884">
        <ele>46</ele>
        <time>2019-10-11T15:32:58Z</time>
      </trkpt>
      <trkpt lat="47.15573" lon="-1.25887">
        <ele>45.7</ele>
        <time>2019-10-11T15:32:59Z</time>
      </trkpt>
      <trkpt lat="47.15578" lon="-1.25889">
        <ele>45.3</ele>
        <time>2019-10-11T15:33:00Z</time>
      </trkpt>
      <trkpt lat="47.15582" lon="-1.25887">
        <ele>45.2</ele>
        <time>2019-10-11T15:33:01Z</time>
      </trkpt>
      <trkpt lat="47.15584" lon="-1.25882">
        <ele>45.1</ele>
        <time>2019-10-11T15:33:02Z</time>
      </trkpt>
      <trkpt lat="47.15585" lon="-1.25877">
        <ele>45</ele>
        <time>2019-10-11T15:33:03Z</time>
      </trkpt>
      <trkpt lat="47.15587" lon="-1.25872">
        <ele>45</ele>
        <time>2019-10-11T15:33:04Z</time>
      </trkpt>
      <trkpt lat="47.15588" lon="-1.25867">
        <ele>45</ele>
        <time>2019-10-11T15:33:05Z</time>
      </trkpt>
      <trkpt lat="47.1559" lon="-1.25862">
        <ele>45</ele>
        <time>2019-10-11T15:33:06Z</time>
      </trkpt>
      <trkpt lat="47.15591" lon="-1.25858">
        <ele>45.1</ele>
        <time>2019-10-11T15:33:07Z</time>
      </trkpt>
      <trkpt lat="47.15593" lon="-1.25853">
        <ele>45.2</ele>
        <time>2019-10-11T15:33:08Z</time>
      </trkpt>
      <trkpt lat="47.15595" lon="-1.25849">
        <ele>45.2</ele>
        <time>2019-10-11T15:33:09Z</time>
      </trkpt>
      <trkpt lat="47.15597" lon="-1.25845">
        <ele>45.2</ele>
        <time>2019-10-11T15:33:10Z</time>
      </trkpt>
      <trkpt lat="47.156" lon="-1.25841">
        <ele>45.1</ele>
        <time>2019-10-11T15:33:11Z</time>
      </trkpt>
      <trkpt lat="47.15603" lon="-1.25841">
        <ele>44.9</ele>
        <time>2019-10-11T15:33:12Z</time>
      </trkpt>
      <trkpt lat="47.15607" lon="-1.25843">
        <ele>44.6</ele>
        <time>2019-10-11T15:33:13Z</time>
      </trkpt>
      <trkpt lat="47.1561" lon="-1.25845">
        <ele>44.3</ele>
        <time>2019-10-11T15:33:14Z</time>
      </trkpt>
      <trkpt lat="47.15613" lon="-1.25848">
        <ele>44.1</ele>
        <time>2019-10-11T15:33:15Z</time>
      </trkpt>
      <trkpt lat="47.15616" lon="-1.2585">
        <ele>43.9</ele>
        <time>2019-10-11T15:33:16Z</time>
      </trkpt>
      <trkpt lat="47.15621" lon="-1.2585">
        <ele>43.6</ele>
        <time>2019-10-11T15:33:17Z</time>
      </trkpt>
      <trkpt lat="47.15624" lon="-1.25846">
        <ele>43.3</ele>
        <time>2019-10-11T15:33:18Z</time>
      </trkpt>
      <trkpt lat="47.15628" lon="-1.2584">
        <ele>43</ele>
        <time>2019-10-11T15:33:19Z</time>
      </trkpt>
      <trkpt lat="47.15632" lon="-1.25836">
        <ele>42.8</ele>
        <time>2019-10-11T15:33:20Z</time>
      </trkpt>
      <trkpt lat="47.15636" lon="-1.25836">
        <ele>42.5</ele>
        <time>2019-10-11T15:33:21Z</time>
      </trkpt>
      <trkpt lat="47.15641" lon="-1.25838">
        <ele>42.3</ele>
        <time>2019-10-11T15:33:22Z</time>
      </trkpt>
      <trkpt lat="47.15645" lon="-1.25841">
        <ele>42.1</ele>
        <time>2019-10-11T15:33:23Z</time>
      </trkpt>
      <trkpt lat="47.15649" lon="-1.25845">
        <ele>41.9</ele>
        <time>2019-10-11T15:33:24Z</time>
      </trkpt>
      <trkpt lat="47.15653" lon="-1.25849">
        <ele>41.6</ele>
        <time>2019-10-11T15:33:25Z</time>
      </trkpt>
      <trkpt lat="47.15657" lon="-1.25852">
        <ele>41.4</ele>
        <time>2019-10-11T15:33:26Z</time>
      </trkpt>
      <trkpt lat="47.15662" lon="-1.25855">
        <ele>41.1</ele>
        <time>2019-10-11T15:33:27Z</time>
      </trkpt>
      <trkpt lat="47.15666" lon="-1.25857">
        <ele>40.8</ele>
        <time>2019-10-11T15:33:28Z</time>
      </trkpt>
      <trkpt lat="47.1567" lon="-1.2586">
        <ele>40.6</ele>
        <time>2019-10-11T15:33:29Z</time>
      </trkpt>
      <trkpt lat="47.15674" lon="-1.25863">
        <ele>40.4</ele>
        <time>2019-10-11T15:33:30Z</time>
      </trkpt>
      <trkpt lat="47.15678" lon="-1.25866">
        <ele>40.1</ele>
        <time>2019-10-11T15:33:31Z</time>
      </trkpt>
      <trkpt lat="47.15682" lon="-1.2587">
        <ele>39.9</ele>
        <time>2019-10-11T15:33:32Z</time>
      </trkpt>
      <trkpt lat="47.15686" lon="-1.25874">
        <ele>39.7</ele>
        <time>2019-10-11T15:33:33Z</time>
      </trkpt>
      <trkpt lat="47.1569" lon="-1.25877">
        <ele>39.5</ele>
        <time>2019-10-11T15:33:34Z</time>
      </trkpt>
      <trkpt lat="47.15695" lon="-1.25881">
        <ele>39.2</ele>
        <time>2019-10-11T15:33:35Z</time>
      </trkpt>
      <trkpt lat="47.15699" lon="-1.25884">
        <ele>39</ele>
        <time>2019-10-11T15:33:36Z</time>
      </trkpt>
      <trkpt lat="47.15704" lon="-1.25887">
        <ele>38.8</ele>
        <time>2019-10-11T15:33:37Z</time>
      </trkpt>
      <trkpt lat="47.15708" lon="-1.25891">
        <ele>38.6</ele>
        <time>2019-10-11T15:33:38Z</time>
      </trkpt>
      <trkpt lat="47.15712" lon="-1.25894">
        <ele>38.4</ele>
        <time>2019-10-11T15:33:39Z</time>
      </trkpt>
      <trkpt lat="47.15716" lon="-1.25898">
        <ele>38.1</ele>
        <time>2019-10-11T15:33:40Z</time>
      </trkpt>
      <trkpt lat="47.1572" lon="-1.25902">
        <ele>37.9</ele>
        <time>2019-10-11T15:33:41Z</time>
      </trkpt>
      <trkpt lat="47.15724" lon="-1.25906">
        <ele>37.7</ele>
        <time>2019-10-11T15:33:42Z</time>
      </trkpt>
      <trkpt lat="47.15728" lon="-1.2591">
        <ele>37.5</ele>
        <time>2019-10-11T15:33:43Z</time>
      </trkpt>
      <trkpt lat="47.15731" lon="-1.25913">
        <ele>37.3</ele>
        <time>2019-10-11T15:33:44Z</time>
      </trkpt>
      <trkpt lat="47.15736" lon="-1.25917">
        <ele>37</ele>
        <time>2019-10-11T15:33:45Z</time>
      </trkpt>
      <trkpt lat="47.1574" lon="-1.25921">
        <ele>36.8</ele>
        <time>2019-10-11T15:33:46Z</time>
      </trkpt>
      <trkpt lat="47.15745" lon="-1.25925">
        <ele>36.6</ele>
        <time>2019-10-11T15:33:47Z</time>
      </trkpt>
      <trkpt lat="47.15749" lon="-1.2593">
        <ele>36.4</ele>
        <time>2019-10-11T15:33:48Z</time>
      </trkpt>
      <trkpt lat="47.15754" lon="-1.25934">
        <ele>36.2</ele>
        <time>2019-10-11T15:33:49Z</time>
      </trkpt>
      <trkpt lat="47.15759" lon="-1.25939">
        <ele>36</ele>
        <time>2019-10-11T15:33:50Z</time>
      </trkpt>
      <trkpt lat="47.15764" lon="-1.25944">
        <ele>35.8</ele>
        <time>2019-10-11T15:33:51Z</time>
      </trkpt>
      <trkpt lat="47.15768" lon="-1.25947">
        <ele>35.7</ele>
        <time>2019-10-11T15:33:52Z</time>
      </trkpt>
      <trkpt lat="47.15771" lon="-1.25951">
        <ele>35.6</ele>
        <time>2019-10-11T15:33:53Z</time>
      </trkpt>
      <trkpt lat="47.15774" lon="-1.25953">
        <ele>35.5</ele>
        <time>2019-10-11T15:33:54Z</time>
      </trkpt>
      <trkpt lat="47.15777" lon="-1.25954">
        <ele>35.4</ele>
        <time>2019-10-11T15:33:55Z</time>
      </trkpt>
      <trkpt lat="47.1578" lon="-1.25952">
        <ele>34.9</ele>
        <time>2019-10-11T15:33:56Z</time>
      </trkpt>
      <trkpt lat="47.15783" lon="-1.25948">
        <ele>34.5</ele>
        <time>2019-10-11T15:33:57Z</time>
      </trkpt>
      <trkpt lat="47.15785" lon="-1.25943">
        <ele>34.2</ele>
        <time>2019-10-11T15:33:58Z</time>
      </trkpt>
      <trkpt lat="47.15788" lon="-1.25938">
        <ele>33.9</ele>
        <time>2019-10-11T15:33:59Z</time>
      </trkpt>
      <trkpt lat="47.15791" lon="-1.25934">
        <ele>33.7</ele>
        <time>2019-10-11T15:34:00Z</time>
      </trkpt>
      <trkpt lat="47.15794" lon="-1.25929">
        <ele>33.6</ele>
        <time>2019-10-11T15:34:01Z</time>
      </trkpt>
      <trkpt lat="47.15797" lon="-1.25923">
        <ele>33.6</ele>
        <time>2019-10-11T15:34:02Z</time>
      </trkpt>
      <trkpt lat="47.15801" lon="-1.25918">
        <ele>33.7</ele>
        <time>2019-10-11T15:34:03Z</time>
      </trkpt>
      <trkpt lat="47.15804" lon="-1.25913">
        <ele>33.8</ele>
        <time>2019-10-11T15:34:04Z</time>
      </trkpt>
      <trkpt lat="47.15809" lon="-1.25912">
        <ele>33.9</ele>
        <time>2019-10-11T15:34:05Z</time>
      </trkpt>
      <trkpt lat="47.15814" lon="-1.25914">
        <ele>33.9</ele>
        <time>2019-10-11T15:34:06Z</time>
      </trkpt>
      <trkpt lat="47.15818" lon="-1.25919">
        <ele>33.9</ele>
        <time>2019-10-11T15:34:07Z</time>
      </trkpt>
      <trkpt lat="47.1582" lon="-1.25925">
        <ele>33.9</ele>
        <time>2019-10-11T15:34:08Z</time>
      </trkpt>
      <trkpt lat="47.15821" lon="-1.25931">
        <ele>33.8</ele>
        <time>2019-10-11T15:34:09Z</time>
      </trkpt>
      <trkpt lat="47.15823" lon="-1.25937">
        <ele>33.8</ele>
        <time>2019-10-11T15:34:10Z</time>
      </trkpt>
      <trkpt lat="47.15825" lon="-1.25944">
        <ele>33.6</ele>
        <time>2019-10-11T15:34:11Z</time>
      </trkpt>
      <trkpt lat="47.15827" lon="-1.25951">
        <ele>33.4</ele>
        <time>2019-10-11T15:34:12Z</time>
      </trkpt>
      <trkpt lat="47.15828" lon="-1.25958">
        <ele>33.3</ele>
        <time>2019-10-11T15:34:13Z</time>
      </trkpt>
      <trkpt lat="47.1583" lon="-1.25965">
        <ele>33.2</ele>
        <time>2019-10-11T15:34:14Z</time>
      </trkpt>
      <trkpt lat="47.15831" lon="-1.25971">
        <ele>33.1</ele>
        <time>2019-10-11T15:34:15Z</time>
      </trkpt>
      <trkpt lat="47.15832" lon="-1.25976">
        <ele>33</ele>
        <time>2019-10-11T15:34:16Z</time>
      </trkpt>
      <trkpt lat="47.15833" lon="-1.25979">
        <ele>32.9</ele>
        <time>2019-10-11T15:34:17Z</time>
      </trkpt>
      <trkpt lat="47.15834" lon="-1.25983">
        <ele>32.9</ele>
        <time>2019-10-11T15:34:18Z</time>
      </trkpt>
      <trkpt lat="47.15835" lon="-1.25988">
        <ele>32.8</ele>
        <time>2019-10-11T15:34:20Z</time>
      </trkpt>
      <trkpt lat="47.15836" lon="-1.25996">
        <ele>32.7</ele>
        <time>2019-10-11T15:34:22Z</time>
      </trkpt>
      <trkpt lat="47.15837" lon="-1.26002">
        <ele>32.7</ele>
        <time>2019-10-11T15:34:23Z</time>
      </trkpt>
      <trkpt lat="47.15838" lon="-1.26007">
        <ele>32.6</ele>
        <time>2019-10-11T15:34:25Z</time>
      </trkpt>
      <trkpt lat="47.15841" lon="-1.2601">
        <ele>32.6</ele>
        <time>2019-10-11T15:34:26Z</time>
      </trkpt>
      <trkpt lat="47.15843" lon="-1.26014">
        <ele>32.6</ele>
        <time>2019-10-11T15:34:27Z</time>
      </trkpt>
      <trkpt lat="47.15844" lon="-1.26018">
        <ele>32.6</ele>
        <time>2019-10-11T15:34:28Z</time>
      </trkpt>
      <trkpt lat="47.15845" lon="-1.26023">
        <ele>32.6</ele>
        <time>2019-10-11T15:34:29Z</time>
      </trkpt>
      <trkpt lat="47.15844" lon="-1.26027">
        <ele>32.6</ele>
        <time>2019-10-11T15:34:30Z</time>
      </trkpt>
      <trkpt lat="47.15841" lon="-1.26032">
        <ele>32.6</ele>
        <time>2019-10-11T15:34:32Z</time>
      </trkpt>
      <trkpt lat="47.15836" lon="-1.26032">
        <ele>32.6</ele>
        <time>2019-10-11T15:34:34Z</time>
      </trkpt>
      <trkpt lat="47.15833" lon="-1.26031">
        <ele>32.6</ele>
        <time>2019-10-11T15:34:35Z</time>
      </trkpt>
      <trkpt lat="47.1583" lon="-1.2603">
        <ele>32.7</ele>
        <time>2019-10-11T15:34:36Z</time>
      </trkpt>
      <trkpt lat="47.15827" lon="-1.2603">
        <ele>32.7</ele>
        <time>2019-10-11T15:34:37Z</time>
      </trkpt>
      <trkpt lat="47.15824" lon="-1.26034">
        <ele>32.8</ele>
        <time>2019-10-11T15:34:39Z</time>
      </trkpt>
      <trkpt lat="47.15821" lon="-1.26035">
        <ele>32.8</ele>
        <time>2019-10-11T15:34:40Z</time>
      </trkpt>
      <trkpt lat="47.15817" lon="-1.26035">
        <ele>32.9</ele>
        <time>2019-10-11T15:34:41Z</time>
      </trkpt>
      <trkpt lat="47.15812" lon="-1.26036">
        <ele>32.9</ele>
        <time>2019-10-11T15:34:42Z</time>
      </trkpt>
      <trkpt lat="47.15809" lon="-1.26036">
        <ele>33</ele>
        <time>2019-10-11T15:34:43Z</time>
      </trkpt>
      <trkpt lat="47.15804" lon="-1.26039">
        <ele>33.1</ele>
        <time>2019-10-11T15:34:44Z</time>
      </trkpt>
      <trkpt lat="47.158" lon="-1.26043">
        <ele>33.2</ele>
        <time>2019-10-11T15:34:45Z</time>
      </trkpt>
      <trkpt lat="47.15797" lon="-1.26046">
        <ele>33.3</ele>
        <time>2019-10-11T15:34:46Z</time>
      </trkpt>
      <trkpt lat="47.15793" lon="-1.2605">
        <ele>33.3</ele>
        <time>2019-10-11T15:34:47Z</time>
      </trkpt>
      <trkpt lat="47.1579" lon="-1.26055">
        <ele>33.3</ele>
        <time>2019-10-11T15:34:48Z</time>
      </trkpt>
      <trkpt lat="47.15788" lon="-1.26059">
        <ele>33.2</ele>
        <time>2019-10-11T15:34:49Z</time>
      </trkpt>
      <trkpt lat="47.15785" lon="-1.26063">
        <ele>33.2</ele>
        <time>2019-10-11T15:34:50Z</time>
      </trkpt>
      <trkpt lat="47.15783" lon="-1.26067">
        <ele>33.1</ele>
        <time>2019-10-11T15:34:51Z</time>
      </trkpt>
      <trkpt lat="47.15781" lon="-1.26071">
        <ele>33.1</ele>
        <time>2019-10-11T15:34:52Z</time>
      </trkpt>
      <trkpt lat="47.15779" lon="-1.26074">
        <ele>33.1</ele>
        <time>2019-10-11T15:34:53Z</time>
      </trkpt>
      <trkpt lat="47.15777" lon="-1.26081">
        <ele>33</ele>
        <time>2019-10-11T15:34:55Z</time>
      </trkpt>
      <trkpt lat="47.15774" lon="-1.26088">
        <ele>32.9</ele>
        <time>2019-10-11T15:34:57Z</time>
      </trkpt>
      <trkpt lat="47.15773" lon="-1.26091">
        <ele>32.9</ele>
        <time>2019-10-11T15:34:58Z</time>
      </trkpt>
      <trkpt lat="47.15771" lon="-1.26095">
        <ele>32.8</ele>
        <time>2019-10-11T15:34:59Z</time>
      </trkpt>
      <trkpt lat="47.15769" lon="-1.26103">
        <ele>32.8</ele>
        <time>2019-10-11T15:35:01Z</time>
      </trkpt>
      <trkpt lat="47.15768" lon="-1.26108">
        <ele>32.7</ele>
        <time>2019-10-11T15:35:02Z</time>
      </trkpt>
      <trkpt lat="47.15767" lon="-1.26113">
        <ele>32.7</ele>
        <time>2019-10-11T15:35:03Z</time>
      </trkpt>
      <trkpt lat="47.15766" lon="-1.26117">
        <ele>32.6</ele>
        <time>2019-10-11T15:35:04Z</time>
      </trkpt>
      <trkpt lat="47.15767" lon="-1.26123">
        <ele>32.5</ele>
        <time>2019-10-11T15:35:06Z</time>
      </trkpt>
      <trkpt lat="47.15768" lon="-1.26128">
        <ele>32.5</ele>
        <time>2019-10-11T15:35:08Z</time>
      </trkpt>
      <trkpt lat="47.15768" lon="-1.26133">
        <ele>32.4</ele>
        <time>2019-10-11T15:35:11Z</time>
      </trkpt>
      <trkpt lat="47.15769" lon="-1.26138">
        <ele>32.4</ele>
        <time>2019-10-11T15:35:14Z</time>
      </trkpt>
      <trkpt lat="47.1577" lon="-1.26143">
        <ele>32.4</ele>
        <time>2019-10-11T15:35:17Z</time>
      </trkpt>
      <trkpt lat="47.1577" lon="-1.26147">
        <ele>32.4</ele>
        <time>2019-10-11T15:35:23Z</time>
      </trkpt>
      <trkpt lat="47.1577" lon="-1.26151">
        <ele>32.4</ele>
        <time>2019-10-11T15:35:26Z</time>
      </trkpt>
      <trkpt lat="47.15773" lon="-1.26155">
        <ele>32.4</ele>
        <time>2019-10-11T15:38:35Z</time>
      </trkpt>
      <trkpt lat="47.15776" lon="-1.26158">
        <ele>32.5</ele>
        <time>2019-10-11T15:38:38Z</time>
      </trkpt>
      <trkpt lat="47.15779" lon="-1.26161">
        <ele>32.5</ele>
        <time>2019-10-11T15:38:40Z</time>
      </trkpt>
      <trkpt lat="47.15783" lon="-1.26162">
        <ele>32.6</ele>
        <time>2019-10-11T15:38:42Z</time>
      </trkpt>
      <trkpt lat="47.15786" lon="-1.26162">
        <ele>32.7</ele>
        <time>2019-10-11T15:38:44Z</time>
      </trkpt>
      <trkpt lat="47.1579" lon="-1.26162">
        <ele>32.8</ele>
        <time>2019-10-11T15:38:46Z</time>
      </trkpt>
      <trkpt lat="47.15794" lon="-1.26161">
        <ele>32.9</ele>
        <time>2019-10-11T15:38:48Z</time>
      </trkpt>
      <trkpt lat="47.15798" lon="-1.26159">
        <ele>33.4</ele>
        <time>2019-10-11T15:38:50Z</time>
      </trkpt>
      <trkpt lat="47.15802" lon="-1.26159">
        <ele>33.5</ele>
        <time>2019-10-11T15:38:52Z</time>
      </trkpt>
      <trkpt lat="47.15807" lon="-1.26158">
        <ele>33.8</ele>
        <time>2019-10-11T15:38:54Z</time>
      </trkpt>
      <trkpt lat="47.15812" lon="-1.26157">
        <ele>33.9</ele>
        <time>2019-10-11T15:38:56Z</time>
      </trkpt>
      <trkpt lat="47.15816" lon="-1.26155">
        <ele>34</ele>
        <time>2019-10-11T15:38:58Z</time>
      </trkpt>
      <trkpt lat="47.1582" lon="-1.26156">
        <ele>34.1</ele>
        <time>2019-10-11T15:39:00Z</time>
      </trkpt>
      <trkpt lat="47.15821" lon="-1.2616">
        <ele>34.2</ele>
        <time>2019-10-11T15:39:02Z</time>
      </trkpt>
      <trkpt lat="47.15821" lon="-1.26165">
        <ele>34.3</ele>
        <time>2019-10-11T15:39:04Z</time>
      </trkpt>
      <trkpt lat="47.15822" lon="-1.26171">
        <ele>34.4</ele>
        <time>2019-10-11T15:39:06Z</time>
      </trkpt>
      <trkpt lat="47.15822" lon="-1.26175">
        <ele>34.4</ele>
        <time>2019-10-11T15:39:08Z</time>
      </trkpt>
      <trkpt lat="47.15823" lon="-1.2618">
        <ele>34.5</ele>
        <time>2019-10-11T15:39:16Z</time>
      </trkpt>
      <trkpt lat="47.15825" lon="-1.26181">
        <ele>34.6</ele>
        <time>2019-10-11T15:39:43Z</time>
      </trkpt>
      <trkpt lat="47.15829" lon="-1.26182">
        <ele>34.6</ele>
        <time>2019-10-11T15:39:51Z</time>
      </trkpt>
      <trkpt lat="47.15833" lon="-1.2618">
        <ele>34.9</ele>
        <time>2019-10-11T15:39:53Z</time>
      </trkpt>
      <trkpt lat="47.15838" lon="-1.26179">
        <ele>35.1</ele>
        <time>2019-10-11T15:39:55Z</time>
      </trkpt>
      <trkpt lat="47.15841" lon="-1.2618">
        <ele>35.2</ele>
        <time>2019-10-11T15:39:56Z</time>
      </trkpt>
      <trkpt lat="47.15845" lon="-1.26181">
        <ele>35.4</ele>
        <time>2019-10-11T15:39:57Z</time>
      </trkpt>
      <trkpt lat="47.15847" lon="-1.26184">
        <ele>35.5</ele>
        <time>2019-10-11T15:39:58Z</time>
      </trkpt>
      <trkpt lat="47.1585" lon="-1.26187">
        <ele>35.5</ele>
        <time>2019-10-11T15:39:59Z</time>
      </trkpt>
      <trkpt lat="47.15852" lon="-1.2619">
        <ele>35.6</ele>
        <time>2019-10-11T15:40:00Z</time>
      </trkpt>
      <trkpt lat="47.15853" lon="-1.26193">
        <ele>35.7</ele>
        <time>2019-10-11T15:40:01Z</time>
      </trkpt>
      <trkpt lat="47.15855" lon="-1.26196">
        <ele>35.9</ele>
        <time>2019-10-11T15:40:02Z</time>
      </trkpt>
      <trkpt lat="47.15857" lon="-1.26199">
        <ele>36</ele>
        <time>2019-10-11T15:40:03Z</time>
      </trkpt>
      <trkpt lat="47.1586" lon="-1.26201">
        <ele>36.3</ele>
        <time>2019-10-11T15:40:04Z</time>
      </trkpt>
      <trkpt lat="47.15863" lon="-1.26203">
        <ele>36.4</ele>
        <time>2019-10-11T15:40:05Z</time>
      </trkpt>
      <trkpt lat="47.15868" lon="-1.26204">
        <ele>36.6</ele>
        <time>2019-10-11T15:40:07Z</time>
      </trkpt>
      <trkpt lat="47.15873" lon="-1.26204">
        <ele>37</ele>
        <time>2019-10-11T15:40:09Z</time>
      </trkpt>
      <trkpt lat="47.15876" lon="-1.26205">
        <ele>37.2</ele>
        <time>2019-10-11T15:40:10Z</time>
      </trkpt>
      <trkpt lat="47.15878" lon="-1.26206">
        <ele>37.3</ele>
        <time>2019-10-11T15:40:11Z</time>
      </trkpt>
      <trkpt lat="47.15881" lon="-1.26207">
        <ele>37.5</ele>
        <time>2019-10-11T15:40:12Z</time>
      </trkpt>
      <trkpt lat="47.15884" lon="-1.26208">
        <ele>37.7</ele>
        <time>2019-10-11T15:40:13Z</time>
      </trkpt>
      <trkpt lat="47.15887" lon="-1.26209">
        <ele>37.8</ele>
        <time>2019-10-11T15:40:14Z</time>
      </trkpt>
      <trkpt lat="47.1589" lon="-1.2621">
        <ele>38</ele>
        <time>2019-10-11T15:40:15Z</time>
      </trkpt>
      <trkpt lat="47.15893" lon="-1.26211">
        <ele>38.1</ele>
        <time>2019-10-11T15:40:16Z</time>
      </trkpt>
      <trkpt lat="47.15896" lon="-1.26212">
        <ele>38.3</ele>
        <time>2019-10-11T15:40:17Z</time>
      </trkpt>
      <trkpt lat="47.159" lon="-1.26213">
        <ele>38.5</ele>
        <time>2019-10-11T15:40:18Z</time>
      </trkpt>
      <trkpt lat="47.15903" lon="-1.26214">
        <ele>38.7</ele>
        <time>2019-10-11T15:40:19Z</time>
      </trkpt>
      <trkpt lat="47.15906" lon="-1.26215">
        <ele>38.8</ele>
        <time>2019-10-11T15:40:20Z</time>
      </trkpt>
      <trkpt lat="47.15909" lon="-1.26216">
        <ele>39</ele>
        <time>2019-10-11T15:40:21Z</time>
      </trkpt>
      <trkpt lat="47.15912" lon="-1.26217">
        <ele>39.2</ele>
        <time>2019-10-11T15:40:22Z</time>
      </trkpt>
      <trkpt lat="47.15915" lon="-1.26218">
        <ele>39.4</ele>
        <time>2019-10-11T15:40:23Z</time>
      </trkpt>
      <trkpt lat="47.15918" lon="-1.26219">
        <ele>39.5</ele>
        <time>2019-10-11T15:40:24Z</time>
      </trkpt>
      <trkpt lat="47.15921" lon="-1.2622">
        <ele>39.7</ele>
        <time>2019-10-11T15:40:25Z</time>
      </trkpt>
      <trkpt lat="47.15924" lon="-1.26221">
        <ele>39.9</ele>
        <time>2019-10-11T15:40:26Z</time>
      </trkpt>
      <trkpt lat="47.15927" lon="-1.26222">
        <ele>40.1</ele>
        <time>2019-10-11T15:40:27Z</time>
      </trkpt>
      <trkpt lat="47.1593" lon="-1.26224">
        <ele>40.2</ele>
        <time>2019-10-11T15:40:28Z</time>
      </trkpt>
      <trkpt lat="47.15933" lon="-1.26226">
        <ele>40.4</ele>
        <time>2019-10-11T15:40:29Z</time>
      </trkpt>
      <trkpt lat="47.15936" lon="-1.26228">
        <ele>40.6</ele>
        <time>2019-10-11T15:40:30Z</time>
      </trkpt>
      <trkpt lat="47.15939" lon="-1.2623">
        <ele>40.7</ele>
        <time>2019-10-11T15:40:31Z</time>
      </trkpt>
      <trkpt lat="47.15941" lon="-1.26232">
        <ele>40.9</ele>
        <time>2019-10-11T15:40:32Z</time>
      </trkpt>
      <trkpt lat="47.15944" lon="-1.26234">
        <ele>41.1</ele>
        <time>2019-10-11T15:40:33Z</time>
      </trkpt>
      <trkpt lat="47.15947" lon="-1.26237">
        <ele>41.3</ele>
        <time>2019-10-11T15:40:34Z</time>
      </trkpt>
      <trkpt lat="47.15949" lon="-1.26239">
        <ele>41.5</ele>
        <time>2019-10-11T15:40:35Z</time>
      </trkpt>
      <trkpt lat="47.15952" lon="-1.26241">
        <ele>41.6</ele>
        <time>2019-10-11T15:40:36Z</time>
      </trkpt>
      <trkpt lat="47.15955" lon="-1.26243">
        <ele>41.8</ele>
        <time>2019-10-11T15:40:37Z</time>
      </trkpt>
      <trkpt lat="47.15957" lon="-1.26245">
        <ele>42</ele>
        <time>2019-10-11T15:40:38Z</time>
      </trkpt>
      <trkpt lat="47.1596" lon="-1.26247">
        <ele>42.2</ele>
        <time>2019-10-11T15:40:39Z</time>
      </trkpt>
      <trkpt lat="47.15962" lon="-1.26249">
        <ele>42.3</ele>
        <time>2019-10-11T15:40:40Z</time>
      </trkpt>
      <trkpt lat="47.15965" lon="-1.26251">
        <ele>42.5</ele>
        <time>2019-10-11T15:40:41Z</time>
      </trkpt>
      <trkpt lat="47.15967" lon="-1.26253">
        <ele>42.7</ele>
        <time>2019-10-11T15:40:42Z</time>
      </trkpt>
      <trkpt lat="47.1597" lon="-1.26255">
        <ele>42.8</ele>
        <time>2019-10-11T15:40:43Z</time>
      </trkpt>
      <trkpt lat="47.15972" lon="-1.26257">
        <ele>43</ele>
        <time>2019-10-11T15:40:44Z</time>
      </trkpt>
      <trkpt lat="47.15975" lon="-1.26259">
        <ele>43.2</ele>
        <time>2019-10-11T15:40:45Z</time>
      </trkpt>
      <trkpt lat="47.15978" lon="-1.26261">
        <ele>43.3</ele>
        <time>2019-10-11T15:40:46Z</time>
      </trkpt>
      <trkpt lat="47.15982" lon="-1.26264">
        <ele>43.6</ele>
        <time>2019-10-11T15:40:48Z</time>
      </trkpt>
      <trkpt lat="47.15986" lon="-1.26268">
        <ele>43.9</ele>
        <time>2019-10-11T15:40:50Z</time>
      </trkpt>
      <trkpt lat="47.1599" lon="-1.26271">
        <ele>44.2</ele>
        <time>2019-10-11T15:40:52Z</time>
      </trkpt>
      <trkpt lat="47.15994" lon="-1.26276">
        <ele>44.5</ele>
        <time>2019-10-11T15:40:54Z</time>
      </trkpt>
      <trkpt lat="47.15997" lon="-1.26279">
        <ele>44.8</ele>
        <time>2019-10-11T15:40:56Z</time>
      </trkpt>
      <trkpt lat="47.16002" lon="-1.26283">
        <ele>45.1</ele>
        <time>2019-10-11T15:40:58Z</time>
      </trkpt>
      <trkpt lat="47.16006" lon="-1.26287">
        <ele>45.4</ele>
        <time>2019-10-11T15:41:00Z</time>
      </trkpt>
      <trkpt lat="47.16009" lon="-1.26291">
        <ele>45.6</ele>
        <time>2019-10-11T15:41:02Z</time>
      </trkpt>
      <trkpt lat="47.16013" lon="-1.26294">
        <ele>45.9</ele>
        <time>2019-10-11T15:41:04Z</time>
      </trkpt>
      <trkpt lat="47.16016" lon="-1.26298">
        <ele>46.1</ele>
        <time>2019-10-11T15:41:06Z</time>
      </trkpt>
      <trkpt lat="47.1602" lon="-1.26301">
        <ele>46.3</ele>
        <time>2019-10-11T15:41:08Z</time>
      </trkpt>
      <trkpt lat="47.16023" lon="-1.26304">
        <ele>46.9</ele>
        <time>2019-10-11T15:41:10Z</time>
      </trkpt>
      <trkpt lat="47.16026" lon="-1.26307">
        <ele>47.1</ele>
        <time>2019-10-11T15:41:12Z</time>
      </trkpt>
      <trkpt lat="47.16029" lon="-1.26311">
        <ele>47.2</ele>
        <time>2019-10-11T15:41:14Z</time>
      </trkpt>
      <trkpt lat="47.16033" lon="-1.26315">
        <ele>47.4</ele>
        <time>2019-10-11T15:41:16Z</time>
      </trkpt>
      <trkpt lat="47.16036" lon="-1.26319">
        <ele>47.5</ele>
        <time>2019-10-11T15:41:18Z</time>
      </trkpt>
      <trkpt lat="47.16039" lon="-1.26323">
        <ele>47.7</ele>
        <time>2019-10-11T15:41:20Z</time>
      </trkpt>
      <trkpt lat="47.16043" lon="-1.26326">
        <ele>48.2</ele>
        <time>2019-10-11T15:41:22Z</time>
      </trkpt>
      <trkpt lat="47.16047" lon="-1.26327">
        <ele>48.3</ele>
        <time>2019-10-11T15:41:24Z</time>
      </trkpt>
      <trkpt lat="47.16051" lon="-1.26327">
        <ele>48.5</ele>
        <time>2019-10-11T15:41:26Z</time>
      </trkpt>
      <trkpt lat="47.16056" lon="-1.26327">
        <ele>48.7</ele>
        <time>2019-10-11T15:41:28Z</time>
      </trkpt>
      <trkpt lat="47.16059" lon="-1.26324">
        <ele>48.9</ele>
        <time>2019-10-11T15:41:30Z</time>
      </trkpt>
      <trkpt lat="47.16064" lon="-1.26323">
        <ele>49.2</ele>
        <time>2019-10-11T15:41:32Z</time>
      </trkpt>
      <trkpt lat="47.16068" lon="-1.26322">
        <ele>49.5</ele>
        <time>2019-10-11T15:41:34Z</time>
      </trkpt>
      <trkpt lat="47.16072" lon="-1.26323">
        <ele>49.8</ele>
        <time>2019-10-11T15:41:36Z</time>
      </trkpt>
      <trkpt lat="47.16076" lon="-1.26324">
        <ele>50.2</ele>
        <time>2019-10-11T15:41:38Z</time>
      </trkpt>
      <trkpt lat="47.1608" lon="-1.26325">
        <ele>50.5</ele>
        <time>2019-10-11T15:41:40Z</time>
      </trkpt>
      <trkpt lat="47.16083" lon="-1.26327">
        <ele>50.7</ele>
        <time>2019-10-11T15:41:42Z</time>
      </trkpt>
      <trkpt lat="47.16087" lon="-1.26328">
        <ele>51</ele>
        <time>2019-10-11T15:41:44Z</time>
      </trkpt>
      <trkpt lat="47.16091" lon="-1.26329">
        <ele>51.3</ele>
        <time>2019-10-11T15:41:46Z</time>
      </trkpt>
      <trkpt lat="47.16095" lon="-1.2633">
        <ele>51.6</ele>
        <time>2019-10-11T15:41:48Z</time>
      </trkpt>
      <trkpt lat="47.16099" lon="-1.26332">
        <ele>51.9</ele>
        <time>2019-10-11T15:41:50Z</time>
      </trkpt>
      <trkpt lat="47.16102" lon="-1.26333">
        <ele>52.1</ele>
        <time>2019-10-11T15:41:52Z</time>
      </trkpt>
      <trkpt lat="47.16105" lon="-1.26335">
        <ele>52.2</ele>
        <time>2019-10-11T15:41:54Z</time>
      </trkpt>
      <trkpt lat="47.16108" lon="-1.26336">
        <ele>52.4</ele>
        <time>2019-10-11T15:41:56Z</time>
      </trkpt>
      <trkpt lat="47.16112" lon="-1.26338">
        <ele>52.6</ele>
        <time>2019-10-11T15:41:58Z</time>
      </trkpt>
      <trkpt lat="47.16116" lon="-1.2634">
        <ele>53.2</ele>
        <time>2019-10-11T15:42:00Z</time>
      </trkpt>
      <trkpt lat="47.16121" lon="-1.26343">
        <ele>53.5</ele>
        <time>2019-10-11T15:42:02Z</time>
      </trkpt>
      <trkpt lat="47.16125" lon="-1.26345">
        <ele>53.8</ele>
        <time>2019-10-11T15:42:04Z</time>
      </trkpt>
      <trkpt lat="47.16129" lon="-1.26348">
        <ele>54.1</ele>
        <time>2019-10-11T15:42:06Z</time>
      </trkpt>
      <trkpt lat="47.16133" lon="-1.26351">
        <ele>54.4</ele>
        <time>2019-10-11T15:42:08Z</time>
      </trkpt>
      <trkpt lat="47.16137" lon="-1.26354">
        <ele>54.6</ele>
        <time>2019-10-11T15:42:10Z</time>
      </trkpt>
      <trkpt lat="47.16142" lon="-1.26357">
        <ele>54.7</ele>
        <time>2019-10-11T15:42:12Z</time>
      </trkpt>
      <trkpt lat="47.16146" lon="-1.2636">
        <ele>54.7</ele>
        <time>2019-10-11T15:42:14Z</time>
      </trkpt>
      <trkpt lat="47.1615" lon="-1.26362">
        <ele>54.7</ele>
        <time>2019-10-11T15:42:16Z</time>
      </trkpt>
      <trkpt lat="47.16153" lon="-1.26363">
        <ele>54.8</ele>
        <time>2019-10-11T15:42:18Z</time>
      </trkpt>
      <trkpt lat="47.16157" lon="-1.26365">
        <ele>54.9</ele>
        <time>2019-10-11T15:42:20Z</time>
      </trkpt>
      <trkpt lat="47.16159" lon="-1.26367">
        <ele>55</ele>
        <time>2019-10-11T15:42:22Z</time>
      </trkpt>
      <trkpt lat="47.16162" lon="-1.26369">
        <ele>55.1</ele>
        <time>2019-10-11T15:42:24Z</time>
      </trkpt>
      <trkpt lat="47.16166" lon="-1.2637">
        <ele>55.4</ele>
        <time>2019-10-11T15:42:26Z</time>
      </trkpt>
      <trkpt lat="47.1617" lon="-1.26372">
        <ele>55.7</ele>
        <time>2019-10-11T15:42:28Z</time>
      </trkpt>
      <trkpt lat="47.16174" lon="-1.26376">
        <ele>55.9</ele>
        <time>2019-10-11T15:42:30Z</time>
      </trkpt>
      <trkpt lat="47.16178" lon="-1.26378">
        <ele>56</ele>
        <time>2019-10-11T15:42:32Z</time>
      </trkpt>
      <trkpt lat="47.16182" lon="-1.2638">
        <ele>56.2</ele>
        <time>2019-10-11T15:42:34Z</time>
      </trkpt>
      <trkpt lat="47.16186" lon="-1.26382">
        <ele>56.3</ele>
        <time>2019-10-11T15:42:36Z</time>
      </trkpt>
      <trkpt lat="47.16189" lon="-1.26385">
        <ele>56.3</ele>
        <time>2019-10-11T15:42:38Z</time>
      </trkpt>
      <trkpt lat="47.16194" lon="-1.26388">
        <ele>56.4</ele>
        <time>2019-10-11T15:42:40Z</time>
      </trkpt>
      <trkpt lat="47.16198" lon="-1.26391">
        <ele>56.5</ele>
        <time>2019-10-11T15:42:42Z</time>
      </trkpt>
      <trkpt lat="47.16203" lon="-1.26395">
        <ele>56.5</ele>
        <time>2019-10-11T15:42:44Z</time>
      </trkpt>
      <trkpt lat="47.16207" lon="-1.26398">
        <ele>56.6</ele>
        <time>2019-10-11T15:42:46Z</time>
      </trkpt>
      <trkpt lat="47.16211" lon="-1.26401">
        <ele>56.6</ele>
        <time>2019-10-11T15:42:48Z</time>
      </trkpt>
      <trkpt lat="47.16215" lon="-1.26405">
        <ele>56.7</ele>
        <time>2019-10-11T15:42:50Z</time>
      </trkpt>
      <trkpt lat="47.16219" lon="-1.26408">
        <ele>56.7</ele>
        <time>2019-10-11T15:42:52Z</time>
      </trkpt>
      <trkpt lat="47.16223" lon="-1.26411">
        <ele>56.8</ele>
        <time>2019-10-11T15:42:54Z</time>
      </trkpt>
      <trkpt lat="47.16227" lon="-1.26415">
        <ele>56.9</ele>
        <time>2019-10-11T15:42:56Z</time>
      </trkpt>
      <trkpt lat="47.1623" lon="-1.2642">
        <ele>57</ele>
        <time>2019-10-11T15:42:58Z</time>
      </trkpt>
      <trkpt lat="47.16234" lon="-1.26424">
        <ele>57.1</ele>
        <time>2019-10-11T15:43:00Z</time>
      </trkpt>
      <trkpt lat="47.16237" lon="-1.26428">
        <ele>57.2</ele>
        <time>2019-10-11T15:43:02Z</time>
      </trkpt>
      <trkpt lat="47.16241" lon="-1.26433">
        <ele>57.3</ele>
        <time>2019-10-11T15:43:04Z</time>
      </trkpt>
      <trkpt lat="47.16244" lon="-1.26437">
        <ele>57.5</ele>
        <time>2019-10-11T15:43:06Z</time>
      </trkpt>
      <trkpt lat="47.16247" lon="-1.26442">
        <ele>57.5</ele>
        <time>2019-10-11T15:43:08Z</time>
      </trkpt>
      <trkpt lat="47.16251" lon="-1.26446">
        <ele>57.6</ele>
        <time>2019-10-11T15:43:10Z</time>
      </trkpt>
      <trkpt lat="47.16255" lon="-1.26448">
        <ele>57.7</ele>
        <time>2019-10-11T15:43:12Z</time>
      </trkpt>
      <trkpt lat="47.1626" lon="-1.2645">
        <ele>57.8</ele>
        <time>2019-10-11T15:43:14Z</time>
      </trkpt>
      <trkpt lat="47.16264" lon="-1.26451">
        <ele>57.8</ele>
        <time>2019-10-11T15:43:16Z</time>
      </trkpt>
      <trkpt lat="47.16268" lon="-1.26453">
        <ele>57.9</ele>
        <time>2019-10-11T15:43:18Z</time>
      </trkpt>
      <trkpt lat="47.16272" lon="-1.26457">
        <ele>58</ele>
        <time>2019-10-11T15:43:20Z</time>
      </trkpt>
      <trkpt lat="47.16276" lon="-1.26461">
        <ele>58.2</ele>
        <time>2019-10-11T15:43:22Z</time>
      </trkpt>
      <trkpt lat="47.16279" lon="-1.26466">
        <ele>58.3</ele>
        <time>2019-10-11T15:43:24Z</time>
      </trkpt>
      <trkpt lat="47.16283" lon="-1.2647">
        <ele>58.4</ele>
        <time>2019-10-11T15:43:26Z</time>
      </trkpt>
      <trkpt lat="47.16287" lon="-1.26475">
        <ele>58.6</ele>
        <time>2019-10-11T15:43:28Z</time>
      </trkpt>
      <trkpt lat="47.1629" lon="-1.2648">
        <ele>58.7</ele>
        <time>2019-10-11T15:43:30Z</time>
      </trkpt>
      <trkpt lat="47.16294" lon="-1.26486">
        <ele>58.9</ele>
        <time>2019-10-11T15:43:32Z</time>
      </trkpt>
      <trkpt lat="47.16297" lon="-1.26491">
        <ele>59</ele>
        <time>2019-10-11T15:43:34Z</time>
      </trkpt>
      <trkpt lat="47.163" lon="-1.26496">
        <ele>59.1</ele>
        <time>2019-10-11T15:43:36Z</time>
      </trkpt>
      <trkpt lat="47.16303" lon="-1.26501">
        <ele>59.2</ele>
        <time>2019-10-11T15:43:38Z</time>
      </trkpt>
      <trkpt lat="47.16307" lon="-1.26506">
        <ele>59.3</ele>
        <time>2019-10-11T15:43:40Z</time>
      </trkpt>
      <trkpt lat="47.16309" lon="-1.26509">
        <ele>59.3</ele>
        <time>2019-10-11T15:43:41Z</time>
      </trkpt>
      <trkpt lat="47.16313" lon="-1.26514">
        <ele>59.5</ele>
        <time>2019-10-11T15:43:43Z</time>
      </trkpt>
      <trkpt lat="47.16317" lon="-1.26518">
        <ele>59.6</ele>
        <time>2019-10-11T15:43:45Z</time>
      </trkpt>
      <trkpt lat="47.16321" lon="-1.26523">
        <ele>59.6</ele>
        <time>2019-10-11T15:43:47Z</time>
      </trkpt>
      <trkpt lat="47.16324" lon="-1.26527">
        <ele>59.7</ele>
        <time>2019-10-11T15:43:49Z</time>
      </trkpt>
      <trkpt lat="47.16327" lon="-1.2653">
        <ele>59.8</ele>
        <time>2019-10-11T15:43:51Z</time>
      </trkpt>
      <trkpt lat="47.16331" lon="-1.26534">
        <ele>59.8</ele>
        <time>2019-10-11T15:43:53Z</time>
      </trkpt>
      <trkpt lat="47.16333" lon="-1.26536">
        <ele>59.9</ele>
        <time>2019-10-11T15:43:54Z</time>
      </trkpt>
      <trkpt lat="47.16335" lon="-1.26539">
        <ele>59.9</ele>
        <time>2019-10-11T15:43:55Z</time>
      </trkpt>
      <trkpt lat="47.16339" lon="-1.26545">
        <ele>60</ele>
        <time>2019-10-11T15:43:57Z</time>
      </trkpt>
      <trkpt lat="47.1634" lon="-1.2655">
        <ele>60</ele>
        <time>2019-10-11T15:43:58Z</time>
      </trkpt>
      <trkpt lat="47.16341" lon="-1.26553">
        <ele>60.1</ele>
        <time>2019-10-11T15:43:59Z</time>
      </trkpt>
      <trkpt lat="47.16342" lon="-1.26558">
        <ele>60.2</ele>
        <time>2019-10-11T15:44:00Z</time>
      </trkpt>
      <trkpt lat="47.16343" lon="-1.26564">
        <ele>60.3</ele>
        <time>2019-10-11T15:44:02Z</time>
      </trkpt>
      <trkpt lat="47.16346" lon="-1.2657">
        <ele>60.4</ele>
        <time>2019-10-11T15:44:04Z</time>
      </trkpt>
      <trkpt lat="47.1635" lon="-1.26575">
        <ele>60.9</ele>
        <time>2019-10-11T15:44:06Z</time>
      </trkpt>
      <trkpt lat="47.16352" lon="-1.26579">
        <ele>61</ele>
        <time>2019-10-11T15:44:07Z</time>
      </trkpt>
      <trkpt lat="47.16355" lon="-1.26583">
        <ele>61.1</ele>
        <time>2019-10-11T15:44:09Z</time>
      </trkpt>
      <trkpt lat="47.16359" lon="-1.2659">
        <ele>61.3</ele>
        <time>2019-10-11T15:44:11Z</time>
      </trkpt>
      <trkpt lat="47.16361" lon="-1.26595">
        <ele>61.3</ele>
        <time>2019-10-11T15:44:12Z</time>
      </trkpt>
      <trkpt lat="47.16363" lon="-1.26599">
        <ele>61.4</ele>
        <time>2019-10-11T15:44:13Z</time>
      </trkpt>
      <trkpt lat="47.16366" lon="-1.26602">
        <ele>61.4</ele>
        <time>2019-10-11T15:44:14Z</time>
      </trkpt>
      <trkpt lat="47.1637" lon="-1.26608">
        <ele>61.5</ele>
        <time>2019-10-11T15:44:16Z</time>
      </trkpt>
      <trkpt lat="47.16372" lon="-1.26611">
        <ele>61.6</ele>
        <time>2019-10-11T15:44:17Z</time>
      </trkpt>
      <trkpt lat="47.16374" lon="-1.26615">
        <ele>61.6</ele>
        <time>2019-10-11T15:44:18Z</time>
      </trkpt>
      <trkpt lat="47.16376" lon="-1.26618">
        <ele>61.7</ele>
        <time>2019-10-11T15:44:19Z</time>
      </trkpt>
      <trkpt lat="47.16378" lon="-1.26621">
        <ele>61.8</ele>
        <time>2019-10-11T15:44:20Z</time>
      </trkpt>
      <trkpt lat="47.1638" lon="-1.26624">
        <ele>61.9</ele>
        <time>2019-10-11T15:44:21Z</time>
      </trkpt>
      <trkpt lat="47.16382" lon="-1.26627">
        <ele>62</ele>
        <time>2019-10-11T15:44:22Z</time>
      </trkpt>
      <trkpt lat="47.16387" lon="-1.26631">
        <ele>62.1</ele>
        <time>2019-10-11T15:44:24Z</time>
      </trkpt>
      <trkpt lat="47.16389" lon="-1.26634">
        <ele>62.1</ele>
        <time>2019-10-11T15:44:25Z</time>
      </trkpt>
      <trkpt lat="47.16391" lon="-1.26636">
        <ele>62.2</ele>
        <time>2019-10-11T15:44:26Z</time>
      </trkpt>
      <trkpt lat="47.16393" lon="-1.26639">
        <ele>62.2</ele>
        <time>2019-10-11T15:44:27Z</time>
      </trkpt>
      <trkpt lat="47.16396" lon="-1.26642">
        <ele>62.3</ele>
        <time>2019-10-11T15:44:28Z</time>
      </trkpt>
      <trkpt lat="47.16398" lon="-1.26645">
        <ele>62.3</ele>
        <time>2019-10-11T15:44:29Z</time>
      </trkpt>
      <trkpt lat="47.164" lon="-1.26648">
        <ele>62.3</ele>
        <time>2019-10-11T15:44:30Z</time>
      </trkpt>
      <trkpt lat="47.16402" lon="-1.2665">
        <ele>62.4</ele>
        <time>2019-10-11T15:44:31Z</time>
      </trkpt>
      <trkpt lat="47.16405" lon="-1.26653">
        <ele>62.4</ele>
        <time>2019-10-11T15:44:32Z</time>
      </trkpt>
      <trkpt lat="47.16407" lon="-1.26656">
        <ele>62.4</ele>
        <time>2019-10-11T15:44:33Z</time>
      </trkpt>
      <trkpt lat="47.16409" lon="-1.26659">
        <ele>62.4</ele>
        <time>2019-10-11T15:44:34Z</time>
      </trkpt>
      <trkpt lat="47.16411" lon="-1.26662">
        <ele>62.6</ele>
        <time>2019-10-11T15:44:35Z</time>
      </trkpt>
      <trkpt lat="47.16414" lon="-1.26665">
        <ele>62.7</ele>
        <time>2019-10-11T15:44:36Z</time>
      </trkpt>
      <trkpt lat="47.16416" lon="-1.26668">
        <ele>62.8</ele>
        <time>2019-10-11T15:44:37Z</time>
      </trkpt>
      <trkpt lat="47.16419" lon="-1.26672">
        <ele>62.9</ele>
        <time>2019-10-11T15:44:38Z</time>
      </trkpt>
      <trkpt lat="47.16421" lon="-1.26675">
        <ele>63</ele>
        <time>2019-10-11T15:44:39Z</time>
      </trkpt>
      <trkpt lat="47.16424" lon="-1.26678">
        <ele>63.1</ele>
        <time>2019-10-11T15:44:40Z</time>
      </trkpt>
      <trkpt lat="47.16426" lon="-1.26682">
        <ele>63.2</ele>
        <time>2019-10-11T15:44:41Z</time>
      </trkpt>
      <trkpt lat="47.16429" lon="-1.26686">
        <ele>63.3</ele>
        <time>2019-10-11T15:44:42Z</time>
      </trkpt>
      <trkpt lat="47.16431" lon="-1.26689">
        <ele>63.3</ele>
        <time>2019-10-11T15:44:43Z</time>
      </trkpt>
      <trkpt lat="47.16434" lon="-1.26693">
        <ele>63.4</ele>
        <time>2019-10-11T15:44:44Z</time>
      </trkpt>
      <trkpt lat="47.16437" lon="-1.26697">
        <ele>63.4</ele>
        <time>2019-10-11T15:44:45Z</time>
      </trkpt>
      <trkpt lat="47.1644" lon="-1.26701">
        <ele>63.4</ele>
        <time>2019-10-11T15:44:46Z</time>
      </trkpt>
      <trkpt lat="47.16442" lon="-1.26705">
        <ele>63.4</ele>
        <time>2019-10-11T15:44:47Z</time>
      </trkpt>
      <trkpt lat="47.16444" lon="-1.26708">
        <ele>63.5</ele>
        <time>2019-10-11T15:44:48Z</time>
      </trkpt>
      <trkpt lat="47.16447" lon="-1.26711">
        <ele>63.5</ele>
        <time>2019-10-11T15:44:49Z</time>
      </trkpt>
      <trkpt lat="47.16449" lon="-1.26714">
        <ele>63.6</ele>
        <time>2019-10-11T15:44:50Z</time>
      </trkpt>
      <trkpt lat="47.16452" lon="-1.26717">
        <ele>63.7</ele>
        <time>2019-10-11T15:44:51Z</time>
      </trkpt>
      <trkpt lat="47.16454" lon="-1.26721">
        <ele>63.7</ele>
        <time>2019-10-11T15:44:52Z</time>
      </trkpt>
      <trkpt lat="47.16457" lon="-1.26724">
        <ele>63.8</ele>
        <time>2019-10-11T15:44:53Z</time>
      </trkpt>
      <trkpt lat="47.16459" lon="-1.26728">
        <ele>63.8</ele>
        <time>2019-10-11T15:44:54Z</time>
      </trkpt>
      <trkpt lat="47.16462" lon="-1.26731">
        <ele>63.9</ele>
        <time>2019-10-11T15:44:55Z</time>
      </trkpt>
      <trkpt lat="47.16464" lon="-1.26734">
        <ele>63.9</ele>
        <time>2019-10-11T15:44:56Z</time>
      </trkpt>
      <trkpt lat="47.16466" lon="-1.26737">
        <ele>64</ele>
        <time>2019-10-11T15:44:57Z</time>
      </trkpt>
      <trkpt lat="47.16468" lon="-1.2674">
        <ele>64</ele>
        <time>2019-10-11T15:44:58Z</time>
      </trkpt>
      <trkpt lat="47.16471" lon="-1.26744">
        <ele>64.1</ele>
        <time>2019-10-11T15:44:59Z</time>
      </trkpt>
      <trkpt lat="47.16473" lon="-1.26747">
        <ele>64.2</ele>
        <time>2019-10-11T15:45:00Z</time>
      </trkpt>
      <trkpt lat="47.16476" lon="-1.2675">
        <ele>64.3</ele>
        <time>2019-10-11T15:45:01Z</time>
      </trkpt>
      <trkpt lat="47.16479" lon="-1.26754">
        <ele>64.4</ele>
        <time>2019-10-11T15:45:02Z</time>
      </trkpt>
      <trkpt lat="47.16481" lon="-1.26757">
        <ele>64.4</ele>
        <time>2019-10-11T15:45:03Z</time>
      </trkpt>
      <trkpt lat="47.16483" lon="-1.2676">
        <ele>64.4</ele>
        <time>2019-10-11T15:45:04Z</time>
      </trkpt>
      <trkpt lat="47.16486" lon="-1.26763">
        <ele>64.5</ele>
        <time>2019-10-11T15:45:05Z</time>
      </trkpt>
      <trkpt lat="47.16488" lon="-1.26766">
        <ele>64.5</ele>
        <time>2019-10-11T15:45:06Z</time>
      </trkpt>
      <trkpt lat="47.1649" lon="-1.26769">
        <ele>64.6</ele>
        <time>2019-10-11T15:45:07Z</time>
      </trkpt>
      <trkpt lat="47.16493" lon="-1.26774">
        <ele>64.6</ele>
        <time>2019-10-11T15:45:09Z</time>
      </trkpt>
      <trkpt lat="47.16496" lon="-1.26777">
        <ele>64.7</ele>
        <time>2019-10-11T15:45:11Z</time>
      </trkpt>
      <trkpt lat="47.16499" lon="-1.2678">
        <ele>64.7</ele>
        <time>2019-10-11T15:45:13Z</time>
      </trkpt>
      <trkpt lat="47.16505" lon="-1.26786">
        <ele>64.8</ele>
        <time>2019-10-11T15:45:15Z</time>
      </trkpt>
      <trkpt lat="47.16508" lon="-1.26789">
        <ele>64.9</ele>
        <time>2019-10-11T15:45:16Z</time>
      </trkpt>
      <trkpt lat="47.16512" lon="-1.26792">
        <ele>64.9</ele>
        <time>2019-10-11T15:45:17Z</time>
      </trkpt>
      <trkpt lat="47.16515" lon="-1.26796">
        <ele>65</ele>
        <time>2019-10-11T15:45:18Z</time>
      </trkpt>
      <trkpt lat="47.16517" lon="-1.26801">
        <ele>65</ele>
        <time>2019-10-11T15:45:19Z</time>
      </trkpt>
      <trkpt lat="47.1652" lon="-1.26806">
        <ele>65</ele>
        <time>2019-10-11T15:45:20Z</time>
      </trkpt>
      <trkpt lat="47.16522" lon="-1.26811">
        <ele>65.1</ele>
        <time>2019-10-11T15:45:21Z</time>
      </trkpt>
      <trkpt lat="47.16525" lon="-1.26815">
        <ele>65.1</ele>
        <time>2019-10-11T15:45:22Z</time>
      </trkpt>
      <trkpt lat="47.16528" lon="-1.26818">
        <ele>65.1</ele>
        <time>2019-10-11T15:45:23Z</time>
      </trkpt>
      <trkpt lat="47.16531" lon="-1.26822">
        <ele>65.2</ele>
        <time>2019-10-11T15:45:24Z</time>
      </trkpt>
      <trkpt lat="47.16533" lon="-1.26825">
        <ele>65.2</ele>
        <time>2019-10-11T15:45:25Z</time>
      </trkpt>
      <trkpt lat="47.16536" lon="-1.26829">
        <ele>65.2</ele>
        <time>2019-10-11T15:45:26Z</time>
      </trkpt>
      <trkpt lat="47.16538" lon="-1.26833">
        <ele>65.2</ele>
        <time>2019-10-11T15:45:27Z</time>
      </trkpt>
      <trkpt lat="47.16541" lon="-1.26837">
        <ele>65.3</ele>
        <time>2019-10-11T15:45:28Z</time>
      </trkpt>
      <trkpt lat="47.16544" lon="-1.26841">
        <ele>65.3</ele>
        <time>2019-10-11T15:45:29Z</time>
      </trkpt>
      <trkpt lat="47.16547" lon="-1.26845">
        <ele>65.3</ele>
        <time>2019-10-11T15:45:30Z</time>
      </trkpt>
      <trkpt lat="47.1655" lon="-1.2685">
        <ele>65.3</ele>
        <time>2019-10-11T15:45:31Z</time>
      </trkpt>
      <trkpt lat="47.16552" lon="-1.26854">
        <ele>65.3</ele>
        <time>2019-10-11T15:45:32Z</time>
      </trkpt>
      <trkpt lat="47.16555" lon="-1.26858">
        <ele>65.3</ele>
        <time>2019-10-11T15:45:33Z</time>
      </trkpt>
      <trkpt lat="47.16558" lon="-1.26862">
        <ele>65.3</ele>
        <time>2019-10-11T15:45:34Z</time>
      </trkpt>
      <trkpt lat="47.16561" lon="-1.26867">
        <ele>65.3</ele>
        <time>2019-10-11T15:45:35Z</time>
      </trkpt>
      <trkpt lat="47.16564" lon="-1.26871">
        <ele>65.3</ele>
        <time>2019-10-11T15:45:36Z</time>
      </trkpt>
      <trkpt lat="47.16567" lon="-1.26875">
        <ele>65.4</ele>
        <time>2019-10-11T15:45:37Z</time>
      </trkpt>
      <trkpt lat="47.1657" lon="-1.26879">
        <ele>65.4</ele>
        <time>2019-10-11T15:45:38Z</time>
      </trkpt>
      <trkpt lat="47.16572" lon="-1.26883">
        <ele>65.4</ele>
        <time>2019-10-11T15:45:39Z</time>
      </trkpt>
      <trkpt lat="47.16575" lon="-1.26887">
        <ele>65.4</ele>
        <time>2019-10-11T15:45:40Z</time>
      </trkpt>
      <trkpt lat="47.16577" lon="-1.26891">
        <ele>65.4</ele>
        <time>2019-10-11T15:45:41Z</time>
      </trkpt>
      <trkpt lat="47.1658" lon="-1.26895">
        <ele>65.4</ele>
        <time>2019-10-11T15:45:42Z</time>
      </trkpt>
      <trkpt lat="47.16582" lon="-1.26899">
        <ele>65.4</ele>
        <time>2019-10-11T15:45:43Z</time>
      </trkpt>
      <trkpt lat="47.16585" lon="-1.26902">
        <ele>65.4</ele>
        <time>2019-10-11T15:45:44Z</time>
      </trkpt>
      <trkpt lat="47.16588" lon="-1.26906">
        <ele>65.4</ele>
        <time>2019-10-11T15:45:45Z</time>
      </trkpt>
      <trkpt lat="47.16591" lon="-1.2691">
        <ele>65.4</ele>
        <time>2019-10-11T15:45:46Z</time>
      </trkpt>
      <trkpt lat="47.16593" lon="-1.26913">
        <ele>65.3</ele>
        <time>2019-10-11T15:45:47Z</time>
      </trkpt>
      <trkpt lat="47.16596" lon="-1.26917">
        <ele>65.3</ele>
        <time>2019-10-11T15:45:48Z</time>
      </trkpt>
      <trkpt lat="47.16598" lon="-1.2692">
        <ele>65.3</ele>
        <time>2019-10-11T15:45:49Z</time>
      </trkpt>
      <trkpt lat="47.166" lon="-1.26923">
        <ele>65.2</ele>
        <time>2019-10-11T15:45:50Z</time>
      </trkpt>
      <trkpt lat="47.16603" lon="-1.26927">
        <ele>65.2</ele>
        <time>2019-10-11T15:45:51Z</time>
      </trkpt>
      <trkpt lat="47.16605" lon="-1.2693">
        <ele>65.1</ele>
        <time>2019-10-11T15:45:52Z</time>
      </trkpt>
      <trkpt lat="47.16608" lon="-1.26934">
        <ele>65.1</ele>
        <time>2019-10-11T15:45:53Z</time>
      </trkpt>
      <trkpt lat="47.1661" lon="-1.26938">
        <ele>65</ele>
        <time>2019-10-11T15:45:54Z</time>
      </trkpt>
      <trkpt lat="47.16613" lon="-1.26941">
        <ele>64.9</ele>
        <time>2019-10-11T15:45:55Z</time>
      </trkpt>
      <trkpt lat="47.16615" lon="-1.26944">
        <ele>64.9</ele>
        <time>2019-10-11T15:45:56Z</time>
      </trkpt>
      <trkpt lat="47.16618" lon="-1.26947">
        <ele>64.9</ele>
        <time>2019-10-11T15:45:57Z</time>
      </trkpt>
      <trkpt lat="47.16622" lon="-1.26951">
        <ele>64.8</ele>
        <time>2019-10-11T15:45:59Z</time>
      </trkpt>
      <trkpt lat="47.16624" lon="-1.26954">
        <ele>64.7</ele>
        <time>2019-10-11T15:46:01Z</time>
      </trkpt>
      <trkpt lat="47.16628" lon="-1.26954">
        <ele>64.9</ele>
        <time>2019-10-11T15:46:18Z</time>
      </trkpt>
      <trkpt lat="47.16632" lon="-1.2695">
        <ele>65.1</ele>
        <time>2019-10-11T15:46:20Z</time>
      </trkpt>
      <trkpt lat="47.16634" lon="-1.26947">
        <ele>65.2</ele>
        <time>2019-10-11T15:46:21Z</time>
      </trkpt>
      <trkpt lat="47.16636" lon="-1.26944">
        <ele>65.3</ele>
        <time>2019-10-11T15:46:22Z</time>
      </trkpt>
      <trkpt lat="47.16638" lon="-1.26941">
        <ele>65.4</ele>
        <time>2019-10-11T15:46:23Z</time>
      </trkpt>
      <trkpt lat="47.16642" lon="-1.26936">
        <ele>65.6</ele>
        <time>2019-10-11T15:46:25Z</time>
      </trkpt>
      <trkpt lat="47.16644" lon="-1.26933">
        <ele>65.7</ele>
        <time>2019-10-11T15:46:26Z</time>
      </trkpt>
      <trkpt lat="47.16646" lon="-1.2693">
        <ele>66</ele>
        <time>2019-10-11T15:46:27Z</time>
      </trkpt>
      <trkpt lat="47.16649" lon="-1.26928">
        <ele>66</ele>
        <time>2019-10-11T15:46:28Z</time>
      </trkpt>
      <trkpt lat="47.16652" lon="-1.26927">
        <ele>66</ele>
        <time>2019-10-11T15:46:29Z</time>
      </trkpt>
      <trkpt lat="47.16654" lon="-1.26927">
        <ele>66</ele>
        <time>2019-10-11T15:46:30Z</time>
      </trkpt>
      <trkpt lat="47.16656" lon="-1.2693">
        <ele>65.9</ele>
        <time>2019-10-11T15:46:31Z</time>
      </trkpt>
      <trkpt lat="47.16659" lon="-1.26934">
        <ele>65.8</ele>
        <time>2019-10-11T15:46:32Z</time>
      </trkpt>
      <trkpt lat="47.16662" lon="-1.26939">
        <ele>65.8</ele>
        <time>2019-10-11T15:46:33Z</time>
      </trkpt>
      <trkpt lat="47.16666" lon="-1.26943">
        <ele>65.7</ele>
        <time>2019-10-11T15:46:34Z</time>
      </trkpt>
      <trkpt lat="47.16669" lon="-1.26947">
        <ele>65.6</ele>
        <time>2019-10-11T15:46:35Z</time>
      </trkpt>
      <trkpt lat="47.16673" lon="-1.26952">
        <ele>65.5</ele>
        <time>2019-10-11T15:46:36Z</time>
      </trkpt>
      <trkpt lat="47.16675" lon="-1.26957">
        <ele>65.4</ele>
        <time>2019-10-11T15:46:37Z</time>
      </trkpt>
      <trkpt lat="47.16678" lon="-1.26962">
        <ele>65.3</ele>
        <time>2019-10-11T15:46:38Z</time>
      </trkpt>
      <trkpt lat="47.16679" lon="-1.26967">
        <ele>65.2</ele>
        <time>2019-10-11T15:46:39Z</time>
      </trkpt>
      <trkpt lat="47.16678" lon="-1.26972">
        <ele>65.1</ele>
        <time>2019-10-11T15:46:40Z</time>
      </trkpt>
      <trkpt lat="47.16677" lon="-1.26978">
        <ele>65</ele>
        <time>2019-10-11T15:46:41Z</time>
      </trkpt>
      <trkpt lat="47.16677" lon="-1.26983">
        <ele>64.8</ele>
        <time>2019-10-11T15:46:42Z</time>
      </trkpt>
      <trkpt lat="47.16679" lon="-1.26988">
        <ele>64.8</ele>
        <time>2019-10-11T15:46:44Z</time>
      </trkpt>
      <trkpt lat="47.16683" lon="-1.2699">
        <ele>64.8</ele>
        <time>2019-10-11T15:46:45Z</time>
      </trkpt>
      <trkpt lat="47.16686" lon="-1.26993">
        <ele>64.7</ele>
        <time>2019-10-11T15:46:46Z</time>
      </trkpt>
      <trkpt lat="47.16689" lon="-1.26997">
        <ele>64.6</ele>
        <time>2019-10-11T15:46:47Z</time>
      </trkpt>
      <trkpt lat="47.16693" lon="-1.27">
        <ele>64.5</ele>
        <time>2019-10-11T15:46:48Z</time>
      </trkpt>
      <trkpt lat="47.16696" lon="-1.27004">
        <ele>64.5</ele>
        <time>2019-10-11T15:46:49Z</time>
      </trkpt>
      <trkpt lat="47.167" lon="-1.27007">
        <ele>64.5</ele>
        <time>2019-10-11T15:46:50Z</time>
      </trkpt>
      <trkpt lat="47.16703" lon="-1.2701">
        <ele>64.4</ele>
        <time>2019-10-11T15:46:51Z</time>
      </trkpt>
      <trkpt lat="47.16706" lon="-1.27012">
        <ele>64.4</ele>
        <time>2019-10-11T15:46:52Z</time>
      </trkpt>
      <trkpt lat="47.16709" lon="-1.27015">
        <ele>64.3</ele>
        <time>2019-10-11T15:46:53Z</time>
      </trkpt>
      <trkpt lat="47.16713" lon="-1.2702">
        <ele>64.2</ele>
        <time>2019-10-11T15:46:55Z</time>
      </trkpt>
      <trkpt lat="47.16713" lon="-1.27027">
        <ele>64.1</ele>
        <time>2019-10-11T15:46:57Z</time>
      </trkpt>
      <trkpt lat="47.16712" lon="-1.27031">
        <ele>64</ele>
        <time>2019-10-11T15:46:58Z</time>
      </trkpt>
      <trkpt lat="47.1671" lon="-1.27034">
        <ele>64</ele>
        <time>2019-10-11T15:46:59Z</time>
      </trkpt>
      <trkpt lat="47.16708" lon="-1.27038">
        <ele>63.9</ele>
        <time>2019-10-11T15:47:00Z</time>
      </trkpt>
      <trkpt lat="47.16707" lon="-1.27042">
        <ele>63.9</ele>
        <time>2019-10-11T15:47:01Z</time>
      </trkpt>
      <trkpt lat="47.16704" lon="-1.27046">
        <ele>63.8</ele>
        <time>2019-10-11T15:47:02Z</time>
      </trkpt>
      <trkpt lat="47.16703" lon="-1.27051">
        <ele>63.8</ele>
        <time>2019-10-11T15:47:03Z</time>
      </trkpt>
      <trkpt lat="47.16701" lon="-1.27056">
        <ele>63.7</ele>
        <time>2019-10-11T15:47:04Z</time>
      </trkpt>
      <trkpt lat="47.16699" lon="-1.27061">
        <ele>63.7</ele>
        <time>2019-10-11T15:47:05Z</time>
      </trkpt>
      <trkpt lat="47.16699" lon="-1.27066">
        <ele>63.7</ele>
        <time>2019-10-11T15:47:06Z</time>
      </trkpt>
      <trkpt lat="47.16698" lon="-1.27071">
        <ele>63.6</ele>
        <time>2019-10-11T15:47:07Z</time>
      </trkpt>
      <trkpt lat="47.16698" lon="-1.27076">
        <ele>63.6</ele>
        <time>2019-10-11T15:47:08Z</time>
      </trkpt>
      <trkpt lat="47.16698" lon="-1.27081">
        <ele>63.5</ele>
        <time>2019-10-11T15:47:09Z</time>
      </trkpt>
      <trkpt lat="47.16699" lon="-1.27087">
        <ele>63.5</ele>
        <time>2019-10-11T15:47:10Z</time>
      </trkpt>
      <trkpt lat="47.16699" lon="-1.27092">
        <ele>63.4</ele>
        <time>2019-10-11T15:47:11Z</time>
      </trkpt>
      <trkpt lat="47.167" lon="-1.27097">
        <ele>63.2</ele>
        <time>2019-10-11T15:47:12Z</time>
      </trkpt>
      <trkpt lat="47.167" lon="-1.27102">
        <ele>63.1</ele>
        <time>2019-10-11T15:47:13Z</time>
      </trkpt>
      <trkpt lat="47.16701" lon="-1.27107">
        <ele>62.9</ele>
        <time>2019-10-11T15:47:14Z</time>
      </trkpt>
      <trkpt lat="47.16701" lon="-1.27113">
        <ele>62.8</ele>
        <time>2019-10-11T15:47:15Z</time>
      </trkpt>
      <trkpt lat="47.16702" lon="-1.27118">
        <ele>62.6</ele>
        <time>2019-10-11T15:47:16Z</time>
      </trkpt>
      <trkpt lat="47.16703" lon="-1.27124">
        <ele>62.5</ele>
        <time>2019-10-11T15:47:17Z</time>
      </trkpt>
      <trkpt lat="47.16703" lon="-1.2713">
        <ele>62.3</ele>
        <time>2019-10-11T15:47:18Z</time>
      </trkpt>
      <trkpt lat="47.16704" lon="-1.27137">
        <ele>62.1</ele>
        <time>2019-10-11T15:47:19Z</time>
      </trkpt>
      <trkpt lat="47.16704" lon="-1.27143">
        <ele>62</ele>
        <time>2019-10-11T15:47:20Z</time>
      </trkpt>
      <trkpt lat="47.16705" lon="-1.27149">
        <ele>61.8</ele>
        <time>2019-10-11T15:47:21Z</time>
      </trkpt>
      <trkpt lat="47.16705" lon="-1.27156">
        <ele>61.6</ele>
        <time>2019-10-11T15:47:22Z</time>
      </trkpt>
      <trkpt lat="47.16706" lon="-1.27162">
        <ele>61.4</ele>
        <time>2019-10-11T15:47:23Z</time>
      </trkpt>
      <trkpt lat="47.16706" lon="-1.27169">
        <ele>61.1</ele>
        <time>2019-10-11T15:47:24Z</time>
      </trkpt>
      <trkpt lat="47.16707" lon="-1.27176">
        <ele>60.9</ele>
        <time>2019-10-11T15:47:25Z</time>
      </trkpt>
      <trkpt lat="47.16708" lon="-1.27183">
        <ele>60.8</ele>
        <time>2019-10-11T15:47:26Z</time>
      </trkpt>
      <trkpt lat="47.16708" lon="-1.27191">
        <ele>60.6</ele>
        <time>2019-10-11T15:47:27Z</time>
      </trkpt>
      <trkpt lat="47.16709" lon="-1.27198">
        <ele>60.5</ele>
        <time>2019-10-11T15:47:28Z</time>
      </trkpt>
      <trkpt lat="47.16709" lon="-1.27205">
        <ele>60.3</ele>
        <time>2019-10-11T15:47:29Z</time>
      </trkpt>
      <trkpt lat="47.1671" lon="-1.27211">
        <ele>60.2</ele>
        <time>2019-10-11T15:47:30Z</time>
      </trkpt>
      <trkpt lat="47.16711" lon="-1.27218">
        <ele>60.1</ele>
        <time>2019-10-11T15:47:31Z</time>
      </trkpt>
      <trkpt lat="47.16712" lon="-1.27224">
        <ele>60</ele>
        <time>2019-10-11T15:47:32Z</time>
      </trkpt>
      <trkpt lat="47.16713" lon="-1.2723">
        <ele>60</ele>
        <time>2019-10-11T15:47:33Z</time>
      </trkpt>
      <trkpt lat="47.16714" lon="-1.27236">
        <ele>60</ele>
        <time>2019-10-11T15:47:34Z</time>
      </trkpt>
      <trkpt lat="47.16715" lon="-1.2724">
        <ele>60</ele>
        <time>2019-10-11T15:47:35Z</time>
      </trkpt>
      <trkpt lat="47.16717" lon="-1.27243">
        <ele>60.1</ele>
        <time>2019-10-11T15:47:36Z</time>
      </trkpt>
      <trkpt lat="47.1672" lon="-1.27245">
        <ele>60.1</ele>
        <time>2019-10-11T15:47:37Z</time>
      </trkpt>
      <trkpt lat="47.16723" lon="-1.27245">
        <ele>60.1</ele>
        <time>2019-10-11T15:47:38Z</time>
      </trkpt>
      <trkpt lat="47.16726" lon="-1.27246">
        <ele>60.1</ele>
        <time>2019-10-11T15:47:39Z</time>
      </trkpt>
      <trkpt lat="47.1673" lon="-1.27245">
        <ele>60.2</ele>
        <time>2019-10-11T15:47:40Z</time>
      </trkpt>
      <trkpt lat="47.16734" lon="-1.27244">
        <ele>60.2</ele>
        <time>2019-10-11T15:47:41Z</time>
      </trkpt>
      <trkpt lat="47.16738" lon="-1.27243">
        <ele>60.3</ele>
        <time>2019-10-11T15:47:42Z</time>
      </trkpt>
      <trkpt lat="47.16742" lon="-1.27241">
        <ele>60.3</ele>
        <time>2019-10-11T15:47:43Z</time>
      </trkpt>
      <trkpt lat="47.16746" lon="-1.27239">
        <ele>60.3</ele>
        <time>2019-10-11T15:47:44Z</time>
      </trkpt>
      <trkpt lat="47.1675" lon="-1.27236">
        <ele>60.4</ele>
        <time>2019-10-11T15:47:45Z</time>
      </trkpt>
      <trkpt lat="47.16754" lon="-1.27233">
        <ele>60.5</ele>
        <time>2019-10-11T15:47:46Z</time>
      </trkpt>
      <trkpt lat="47.16758" lon="-1.2723">
        <ele>60.6</ele>
        <time>2019-10-11T15:47:47Z</time>
      </trkpt>
      <trkpt lat="47.16762" lon="-1.27226">
        <ele>60.6</ele>
        <time>2019-10-11T15:47:48Z</time>
      </trkpt>
      <trkpt lat="47.16765" lon="-1.27221">
        <ele>60.7</ele>
        <time>2019-10-11T15:47:49Z</time>
      </trkpt>
      <trkpt lat="47.16768" lon="-1.27217">
        <ele>60.8</ele>
        <time>2019-10-11T15:47:50Z</time>
      </trkpt>
      <trkpt lat="47.16772" lon="-1.27213">
        <ele>60.9</ele>
        <time>2019-10-11T15:47:51Z</time>
      </trkpt>
      <trkpt lat="47.16775" lon="-1.27208">
        <ele>61</ele>
        <time>2019-10-11T15:47:52Z</time>
      </trkpt>
      <trkpt lat="47.16778" lon="-1.27203">
        <ele>61.2</ele>
        <time>2019-10-11T15:47:53Z</time>
      </trkpt>
      <trkpt lat="47.16781" lon="-1.27199">
        <ele>61.3</ele>
        <time>2019-10-11T15:47:54Z</time>
      </trkpt>
      <trkpt lat="47.16785" lon="-1.27195">
        <ele>61.3</ele>
        <time>2019-10-11T15:47:55Z</time>
      </trkpt>
      <trkpt lat="47.16789" lon="-1.27193">
        <ele>61.4</ele>
        <time>2019-10-11T15:47:56Z</time>
      </trkpt>
      <trkpt lat="47.16793" lon="-1.27191">
        <ele>61.5</ele>
        <time>2019-10-11T15:47:57Z</time>
      </trkpt>
      <trkpt lat="47.16796" lon="-1.2719">
        <ele>61.5</ele>
        <time>2019-10-11T15:47:58Z</time>
      </trkpt>
      <trkpt lat="47.168" lon="-1.27188">
        <ele>61.6</ele>
        <time>2019-10-11T15:47:59Z</time>
      </trkpt>
      <trkpt lat="47.16803" lon="-1.27187">
        <ele>61.7</ele>
        <time>2019-10-11T15:48:00Z</time>
      </trkpt>
      <trkpt lat="47.16806" lon="-1.27187">
        <ele>61.7</ele>
        <time>2019-10-11T15:48:01Z</time>
      </trkpt>
      <trkpt lat="47.16809" lon="-1.27186">
        <ele>61.9</ele>
        <time>2019-10-11T15:48:02Z</time>
      </trkpt>
      <trkpt lat="47.16813" lon="-1.27188">
        <ele>61.9</ele>
        <time>2019-10-11T15:48:04Z</time>
      </trkpt>
      <trkpt lat="47.16813" lon="-1.27193">
        <ele>61.9</ele>
        <time>2019-10-11T15:48:06Z</time>
      </trkpt>
      <trkpt lat="47.1681" lon="-1.27199">
        <ele>61.9</ele>
        <time>2019-10-11T15:48:08Z</time>
      </trkpt>
      <trkpt lat="47.16808" lon="-1.27203">
        <ele>61.8</ele>
        <time>2019-10-11T15:48:09Z</time>
      </trkpt>
      <trkpt lat="47.16807" lon="-1.27206">
        <ele>61.8</ele>
        <time>2019-10-11T15:48:10Z</time>
      </trkpt>
      <trkpt lat="47.16805" lon="-1.27209">
        <ele>61.8</ele>
        <time>2019-10-11T15:48:11Z</time>
      </trkpt>
      <trkpt lat="47.16803" lon="-1.27213">
        <ele>61.8</ele>
        <time>2019-10-11T15:48:12Z</time>
      </trkpt>
      <trkpt lat="47.16802" lon="-1.27217">
        <ele>61.8</ele>
        <time>2019-10-11T15:48:13Z</time>
      </trkpt>
      <trkpt lat="47.16802" lon="-1.27225">
        <ele>61.7</ele>
        <time>2019-10-11T15:48:15Z</time>
      </trkpt>
      <trkpt lat="47.16802" lon="-1.2723">
        <ele>61.8</ele>
        <time>2019-10-11T15:48:17Z</time>
      </trkpt>
      <trkpt lat="47.16807" lon="-1.27233">
        <ele>61.8</ele>
        <time>2019-10-11T15:48:20Z</time>
      </trkpt>
      <trkpt lat="47.16811" lon="-1.27237">
        <ele>61.9</ele>
        <time>2019-10-11T15:48:22Z</time>
      </trkpt>
      <trkpt lat="47.16813" lon="-1.27243">
        <ele>61.9</ele>
        <time>2019-10-11T15:48:24Z</time>
      </trkpt>
      <trkpt lat="47.16812" lon="-1.27249">
        <ele>62</ele>
        <time>2019-10-11T15:48:26Z</time>
      </trkpt>
      <trkpt lat="47.1681" lon="-1.27255">
        <ele>62</ele>
        <time>2019-10-11T15:48:28Z</time>
      </trkpt>
      <trkpt lat="47.16808" lon="-1.2726">
        <ele>62</ele>
        <time>2019-10-11T15:48:30Z</time>
      </trkpt>
      <trkpt lat="47.16805" lon="-1.27263">
        <ele>62</ele>
        <time>2019-10-11T15:48:32Z</time>
      </trkpt>
      <trkpt lat="47.16797" lon="-1.27255">
        <ele>61.9</ele>
        <time>2019-10-11T15:50:05Z</time>
      </trkpt>
    </trkseg>
  </trk>
</gpx>